<?xml version="1.0" encoding="UTF-8" standalone="yes"?>
<gpx version="1.1" creator="MagicMaps Tour Explorer"
     xmlns:xsi="http://www.w3.org/2001/XMLSchema-instance"
     xmlns="http://www.topografix.com/GPX/1/1">
  <trk>
    <name>X14_Davensberg_Amelsbüren_Münster_Stuhlmacher</name>
    <trkseg>
      <trkpt lat="51.820290000" lon="7.592438000">
        <ele>61.3</ele>
        <time>2017-04-29T04:07:40</time>
      </trkpt>
      <trkpt lat="51.820305000" lon="7.592455000">
        <ele>61.3</ele>
        <time>2017-04-29T04:07:42</time>
        <extensions><speed>1.36</speed></extensions>
      </trkpt>
      <trkpt lat="51.820316000" lon="7.592470000">
        <ele>61.3</ele>
        <time>2017-04-29T04:07:43</time>
        <extensions><speed>1.31</speed></extensions>
      </trkpt>
      <trkpt lat="51.820328000" lon="7.592482000">
        <ele>61.3</ele>
        <time>2017-04-29T04:07:44</time>
        <extensions><speed>1.35</speed></extensions>
      </trkpt>
      <trkpt lat="51.820339000" lon="7.592493000">
        <ele>61.3</ele>
        <time>2017-04-29T04:07:45</time>
        <extensions><speed>1.37</speed></extensions>
      </trkpt>
      <trkpt lat="51.820351000" lon="7.592505000">
        <ele>61.2</ele>
        <time>2017-04-29T04:07:46</time>
        <extensions><speed>1.31</speed></extensions>
      </trkpt>
      <trkpt lat="51.820362000" lon="7.592518000">
        <ele>61.2</ele>
        <time>2017-04-29T04:07:47</time>
        <extensions><speed>1.31</speed></extensions>
      </trkpt>
      <trkpt lat="51.820374000" lon="7.592533000">
        <ele>61.2</ele>
        <time>2017-04-29T04:07:48</time>
        <extensions><speed>1.31</speed></extensions>
      </trkpt>
      <trkpt lat="51.820381000" lon="7.592543000">
        <ele>61.2</ele>
        <time>2017-04-29T04:07:49</time>
        <extensions><speed>1.29</speed></extensions>
      </trkpt>
      <trkpt lat="51.820389000" lon="7.592557000">
        <ele>61.2</ele>
        <time>2017-04-29T04:07:50</time>
        <extensions><speed>1.25</speed></extensions>
      </trkpt>
      <trkpt lat="51.820404000" lon="7.592570000">
        <ele>61.2</ele>
        <time>2017-04-29T04:07:51</time>
        <extensions><speed>1.25</speed></extensions>
      </trkpt>
      <trkpt lat="51.820415000" lon="7.592582000">
        <ele>61.1</ele>
        <time>2017-04-29T04:07:52</time>
        <extensions><speed>1.26</speed></extensions>
      </trkpt>
      <trkpt lat="51.820427000" lon="7.592594000">
        <ele>61.1</ele>
        <time>2017-04-29T04:07:53</time>
        <extensions><speed>1.29</speed></extensions>
      </trkpt>
      <trkpt lat="51.820435000" lon="7.592607000">
        <ele>61.1</ele>
        <time>2017-04-29T04:07:54</time>
        <extensions><speed>1.30</speed></extensions>
      </trkpt>
      <trkpt lat="51.820442000" lon="7.592622000">
        <ele>61.1</ele>
        <time>2017-04-29T04:07:55</time>
        <extensions><speed>1.34</speed></extensions>
      </trkpt>
      <trkpt lat="51.820457000" lon="7.592632000">
        <ele>61.1</ele>
        <time>2017-04-29T04:07:56</time>
        <extensions><speed>1.33</speed></extensions>
      </trkpt>
      <trkpt lat="51.820473000" lon="7.592643000">
        <ele>61.1</ele>
        <time>2017-04-29T04:07:57</time>
        <extensions><speed>1.33</speed></extensions>
      </trkpt>
      <trkpt lat="51.820480000" lon="7.592649000">
        <ele>61.0</ele>
        <time>2017-04-29T04:07:58</time>
        <extensions><speed>1.31</speed></extensions>
      </trkpt>
      <trkpt lat="51.820496000" lon="7.592653000">
        <ele>61.0</ele>
        <time>2017-04-29T04:07:59</time>
        <extensions><speed>1.31</speed></extensions>
      </trkpt>
      <trkpt lat="51.820507000" lon="7.592662000">
        <ele>61.0</ele>
        <time>2017-04-29T04:08:00</time>
        <extensions><speed>1.32</speed></extensions>
      </trkpt>
      <trkpt lat="51.820518000" lon="7.592668000">
        <ele>61.0</ele>
        <time>2017-04-29T04:08:01</time>
        <extensions><speed>1.33</speed></extensions>
      </trkpt>
      <trkpt lat="51.820538000" lon="7.592669000">
        <ele>61.0</ele>
        <time>2017-04-29T04:08:02</time>
        <extensions><speed>1.29</speed></extensions>
      </trkpt>
      <trkpt lat="51.820545000" lon="7.592673000">
        <ele>61.0</ele>
        <time>2017-04-29T04:08:03</time>
        <extensions><speed>1.31</speed></extensions>
      </trkpt>
      <trkpt lat="51.820557000" lon="7.592675000">
        <ele>60.9</ele>
        <time>2017-04-29T04:08:04</time>
        <extensions><speed>1.29</speed></extensions>
      </trkpt>
      <trkpt lat="51.820568000" lon="7.592675000">
        <ele>60.9</ele>
        <time>2017-04-29T04:08:05</time>
        <extensions><speed>1.23</speed></extensions>
      </trkpt>
      <trkpt lat="51.820576000" lon="7.592675000">
        <ele>60.9</ele>
        <time>2017-04-29T04:08:06</time>
        <extensions><speed>1.23</speed></extensions>
      </trkpt>
      <trkpt lat="51.820587000" lon="7.592669000">
        <ele>60.9</ele>
        <time>2017-04-29T04:08:07</time>
        <extensions><speed>1.28</speed></extensions>
      </trkpt>
      <trkpt lat="51.820602000" lon="7.592665000">
        <ele>60.9</ele>
        <time>2017-04-29T04:08:08</time>
        <extensions><speed>1.28</speed></extensions>
      </trkpt>
      <trkpt lat="51.820614000" lon="7.592660000">
        <ele>60.9</ele>
        <time>2017-04-29T04:08:09</time>
        <extensions><speed>1.32</speed></extensions>
      </trkpt>
      <trkpt lat="51.820629000" lon="7.592653000">
        <ele>60.8</ele>
        <time>2017-04-29T04:08:10</time>
        <extensions><speed>1.34</speed></extensions>
      </trkpt>
      <trkpt lat="51.820637000" lon="7.592652000">
        <ele>60.8</ele>
        <time>2017-04-29T04:08:11</time>
        <extensions><speed>1.34</speed></extensions>
      </trkpt>
      <trkpt lat="51.820652000" lon="7.592652000">
        <ele>60.8</ele>
        <time>2017-04-29T04:08:12</time>
        <extensions><speed>1.27</speed></extensions>
      </trkpt>
      <trkpt lat="51.820660000" lon="7.592647000">
        <ele>60.8</ele>
        <time>2017-04-29T04:08:13</time>
        <extensions><speed>1.28</speed></extensions>
      </trkpt>
      <trkpt lat="51.820667000" lon="7.592640000">
        <ele>60.8</ele>
        <time>2017-04-29T04:08:14</time>
        <extensions><speed>1.17</speed></extensions>
      </trkpt>
      <trkpt lat="51.820679000" lon="7.592637000">
        <ele>60.8</ele>
        <time>2017-04-29T04:08:15</time>
        <extensions><speed>1.16</speed></extensions>
      </trkpt>
      <trkpt lat="51.820694000" lon="7.592638000">
        <ele>60.7</ele>
        <time>2017-04-29T04:08:16</time>
        <extensions><speed>1.16</speed></extensions>
      </trkpt>
      <trkpt lat="51.820702000" lon="7.592640000">
        <ele>60.7</ele>
        <time>2017-04-29T04:08:17</time>
        <extensions><speed>1.19</speed></extensions>
      </trkpt>
      <trkpt lat="51.820713000" lon="7.592637000">
        <ele>60.7</ele>
        <time>2017-04-29T04:08:18</time>
        <extensions><speed>1.17</speed></extensions>
      </trkpt>
      <trkpt lat="51.820724000" lon="7.592632000">
        <ele>60.7</ele>
        <time>2017-04-29T04:08:19</time>
        <extensions><speed>1.27</speed></extensions>
      </trkpt>
      <trkpt lat="51.820736000" lon="7.592627000">
        <ele>60.7</ele>
        <time>2017-04-29T04:08:20</time>
        <extensions><speed>1.20</speed></extensions>
      </trkpt>
      <trkpt lat="51.820744000" lon="7.592620000">
        <ele>60.7</ele>
        <time>2017-04-29T04:08:21</time>
        <extensions><speed>1.27</speed></extensions>
      </trkpt>
      <trkpt lat="51.820759000" lon="7.592612000">
        <ele>60.6</ele>
        <time>2017-04-29T04:08:22</time>
        <extensions><speed>1.32</speed></extensions>
      </trkpt>
      <trkpt lat="51.820766000" lon="7.592603000">
        <ele>60.6</ele>
        <time>2017-04-29T04:08:23</time>
        <extensions><speed>1.33</speed></extensions>
      </trkpt>
      <trkpt lat="51.820778000" lon="7.592594000">
        <ele>60.6</ele>
        <time>2017-04-29T04:08:24</time>
        <extensions><speed>1.39</speed></extensions>
      </trkpt>
      <trkpt lat="51.820793000" lon="7.592584000">
        <ele>60.6</ele>
        <time>2017-04-29T04:08:25</time>
        <extensions><speed>1.42</speed></extensions>
      </trkpt>
      <trkpt lat="51.820801000" lon="7.592570000">
        <ele>60.6</ele>
        <time>2017-04-29T04:08:26</time>
        <extensions><speed>1.38</speed></extensions>
      </trkpt>
      <trkpt lat="51.820812000" lon="7.592555000">
        <ele>60.6</ele>
        <time>2017-04-29T04:08:27</time>
        <extensions><speed>1.37</speed></extensions>
      </trkpt>
      <trkpt lat="51.820824000" lon="7.592545000">
        <ele>60.6</ele>
        <time>2017-04-29T04:08:28</time>
        <extensions><speed>1.37</speed></extensions>
      </trkpt>
      <trkpt lat="51.820831000" lon="7.592533000">
        <ele>60.5</ele>
        <time>2017-04-29T04:08:29</time>
        <extensions><speed>1.37</speed></extensions>
      </trkpt>
      <trkpt lat="51.820843000" lon="7.592518000">
        <ele>60.5</ele>
        <time>2017-04-29T04:08:30</time>
        <extensions><speed>1.34</speed></extensions>
      </trkpt>
      <trkpt lat="51.820850000" lon="7.592508000">
        <ele>60.5</ele>
        <time>2017-04-29T04:08:31</time>
        <extensions><speed>1.31</speed></extensions>
      </trkpt>
      <trkpt lat="51.820862000" lon="7.592505000">
        <ele>60.5</ele>
        <time>2017-04-29T04:08:32</time>
        <extensions><speed>1.18</speed></extensions>
      </trkpt>
      <trkpt lat="51.820866000" lon="7.592500000">
        <ele>60.5</ele>
        <time>2017-04-29T04:08:33</time>
        <extensions><speed>1.06</speed></extensions>
      </trkpt>
      <trkpt lat="51.820877000" lon="7.592490000">
        <ele>60.5</ele>
        <time>2017-04-29T04:08:34</time>
        <extensions><speed>1.06</speed></extensions>
      </trkpt>
      <trkpt lat="51.820892000" lon="7.592482000">
        <ele>60.4</ele>
        <time>2017-04-29T04:08:35</time>
        <extensions><speed>0.94</speed></extensions>
      </trkpt>
      <trkpt lat="51.820900000" lon="7.592472000">
        <ele>60.4</ele>
        <time>2017-04-29T04:08:36</time>
        <extensions><speed>1.16</speed></extensions>
      </trkpt>
      <trkpt lat="51.820911000" lon="7.592458000">
        <ele>60.4</ele>
        <time>2017-04-29T04:08:37</time>
        <extensions><speed>1.17</speed></extensions>
      </trkpt>
      <trkpt lat="51.820919000" lon="7.592445000">
        <ele>60.4</ele>
        <time>2017-04-29T04:08:38</time>
        <extensions><speed>1.27</speed></extensions>
      </trkpt>
      <trkpt lat="51.820930000" lon="7.592438000">
        <ele>60.4</ele>
        <time>2017-04-29T04:08:39</time>
        <extensions><speed>1.10</speed></extensions>
      </trkpt>
      <trkpt lat="51.820942000" lon="7.592438000">
        <ele>60.4</ele>
        <time>2017-04-29T04:08:40</time>
        <extensions><speed>1.16</speed></extensions>
      </trkpt>
      <trkpt lat="51.820953000" lon="7.592445000">
        <ele>60.4</ele>
        <time>2017-04-29T04:08:41</time>
        <extensions><speed>1.16</speed></extensions>
      </trkpt>
      <trkpt lat="51.820961000" lon="7.592455000">
        <ele>60.3</ele>
        <time>2017-04-29T04:08:42</time>
        <extensions><speed>1.21</speed></extensions>
      </trkpt>
      <trkpt lat="51.820972000" lon="7.592465000">
        <ele>60.3</ele>
        <time>2017-04-29T04:08:43</time>
        <extensions><speed>1.17</speed></extensions>
      </trkpt>
      <trkpt lat="51.820984000" lon="7.592475000">
        <ele>60.3</ele>
        <time>2017-04-29T04:08:44</time>
        <extensions><speed>1.19</speed></extensions>
      </trkpt>
      <trkpt lat="51.820992000" lon="7.592485000">
        <ele>60.3</ele>
        <time>2017-04-29T04:08:45</time>
        <extensions><speed>1.15</speed></extensions>
      </trkpt>
      <trkpt lat="51.821003000" lon="7.592490000">
        <ele>60.3</ele>
        <time>2017-04-29T04:08:46</time>
        <extensions><speed>1.15</speed></extensions>
      </trkpt>
      <trkpt lat="51.821014000" lon="7.592494000">
        <ele>60.3</ele>
        <time>2017-04-29T04:08:47</time>
        <extensions><speed>1.14</speed></extensions>
      </trkpt>
      <trkpt lat="51.821022000" lon="7.592496000">
        <ele>60.2</ele>
        <time>2017-04-29T04:08:48</time>
        <extensions><speed>1.11</speed></extensions>
      </trkpt>
      <trkpt lat="51.821030000" lon="7.592502000">
        <ele>60.2</ele>
        <time>2017-04-29T04:08:49</time>
        <extensions><speed>1.15</speed></extensions>
      </trkpt>
      <trkpt lat="51.821045000" lon="7.592502000">
        <ele>60.2</ele>
        <time>2017-04-29T04:08:50</time>
        <extensions><speed>1.22</speed></extensions>
      </trkpt>
      <trkpt lat="51.821060000" lon="7.592494000">
        <ele>60.2</ele>
        <time>2017-04-29T04:08:51</time>
        <extensions><speed>1.25</speed></extensions>
      </trkpt>
      <trkpt lat="51.821064000" lon="7.592484000">
        <ele>60.2</ele>
        <time>2017-04-29T04:08:52</time>
        <extensions><speed>1.18</speed></extensions>
      </trkpt>
      <trkpt lat="51.821068000" lon="7.592465000">
        <ele>60.2</ele>
        <time>2017-04-29T04:08:53</time>
        <extensions><speed>1.25</speed></extensions>
      </trkpt>
      <trkpt lat="51.821072000" lon="7.592445000">
        <ele>60.2</ele>
        <time>2017-04-29T04:08:54</time>
        <extensions><speed>1.28</speed></extensions>
      </trkpt>
      <trkpt lat="51.821079000" lon="7.592426000">
        <ele>60.1</ele>
        <time>2017-04-29T04:08:55</time>
        <extensions><speed>1.34</speed></extensions>
      </trkpt>
      <trkpt lat="51.821087000" lon="7.592410000">
        <ele>60.1</ele>
        <time>2017-04-29T04:08:56</time>
        <extensions><speed>1.35</speed></extensions>
      </trkpt>
      <trkpt lat="51.821095000" lon="7.592393000">
        <ele>60.1</ele>
        <time>2017-04-29T04:08:57</time>
        <extensions><speed>1.38</speed></extensions>
      </trkpt>
      <trkpt lat="51.821098000" lon="7.592373000">
        <ele>60.1</ele>
        <time>2017-04-29T04:08:58</time>
        <extensions><speed>1.38</speed></extensions>
      </trkpt>
      <trkpt lat="51.821102000" lon="7.592350000">
        <ele>60.1</ele>
        <time>2017-04-29T04:08:59</time>
        <extensions><speed>1.40</speed></extensions>
      </trkpt>
      <trkpt lat="51.821106000" lon="7.592330000">
        <ele>60.1</ele>
        <time>2017-04-29T04:09:00</time>
        <extensions><speed>1.42</speed></extensions>
      </trkpt>
      <trkpt lat="51.821114000" lon="7.592310000">
        <ele>60.1</ele>
        <time>2017-04-29T04:09:01</time>
        <extensions><speed>1.42</speed></extensions>
      </trkpt>
      <trkpt lat="51.821121000" lon="7.592290000">
        <ele>60.1</ele>
        <time>2017-04-29T04:09:02</time>
        <extensions><speed>1.41</speed></extensions>
      </trkpt>
      <trkpt lat="51.821125000" lon="7.592272000">
        <ele>60.1</ele>
        <time>2017-04-29T04:09:03</time>
        <extensions><speed>1.46</speed></extensions>
      </trkpt>
      <trkpt lat="51.821129000" lon="7.592251000">
        <ele>60.1</ele>
        <time>2017-04-29T04:09:04</time>
        <extensions><speed>1.42</speed></extensions>
      </trkpt>
      <trkpt lat="51.821136000" lon="7.592233000">
        <ele>60.0</ele>
        <time>2017-04-29T04:09:05</time>
        <extensions><speed>1.39</speed></extensions>
      </trkpt>
      <trkpt lat="51.821140000" lon="7.592215000">
        <ele>60.0</ele>
        <time>2017-04-29T04:09:06</time>
        <extensions><speed>1.39</speed></extensions>
      </trkpt>
      <trkpt lat="51.821148000" lon="7.592198000">
        <ele>60.0</ele>
        <time>2017-04-29T04:09:07</time>
        <extensions><speed>1.39</speed></extensions>
      </trkpt>
      <trkpt lat="51.821156000" lon="7.592181000">
        <ele>60.0</ele>
        <time>2017-04-29T04:09:08</time>
        <extensions><speed>1.41</speed></extensions>
      </trkpt>
      <trkpt lat="51.821159000" lon="7.592164000">
        <ele>60.0</ele>
        <time>2017-04-29T04:09:09</time>
        <extensions><speed>1.43</speed></extensions>
      </trkpt>
      <trkpt lat="51.821171000" lon="7.592150000">
        <ele>60.0</ele>
        <time>2017-04-29T04:09:10</time>
        <extensions><speed>1.39</speed></extensions>
      </trkpt>
      <trkpt lat="51.821178000" lon="7.592137000">
        <ele>60.0</ele>
        <time>2017-04-29T04:09:11</time>
        <extensions><speed>1.41</speed></extensions>
      </trkpt>
      <trkpt lat="51.821190000" lon="7.592122000">
        <ele>60.0</ele>
        <time>2017-04-29T04:09:12</time>
        <extensions><speed>1.44</speed></extensions>
      </trkpt>
      <trkpt lat="51.821190000" lon="7.592105000">
        <ele>60.0</ele>
        <time>2017-04-29T04:09:13</time>
        <extensions><speed>1.39</speed></extensions>
      </trkpt>
      <trkpt lat="51.821194000" lon="7.592085000">
        <ele>60.0</ele>
        <time>2017-04-29T04:09:14</time>
        <extensions><speed>1.34</speed></extensions>
      </trkpt>
      <trkpt lat="51.821201000" lon="7.592067000">
        <ele>60.0</ele>
        <time>2017-04-29T04:09:15</time>
        <extensions><speed>1.34</speed></extensions>
      </trkpt>
      <trkpt lat="51.821209000" lon="7.592048000">
        <ele>60.0</ele>
        <time>2017-04-29T04:09:16</time>
        <extensions><speed>1.32</speed></extensions>
      </trkpt>
      <trkpt lat="51.821217000" lon="7.592030000">
        <ele>60.0</ele>
        <time>2017-04-29T04:09:17</time>
        <extensions><speed>1.32</speed></extensions>
      </trkpt>
      <trkpt lat="51.821220000" lon="7.592011000">
        <ele>60.0</ele>
        <time>2017-04-29T04:09:18</time>
        <extensions><speed>1.33</speed></extensions>
      </trkpt>
      <trkpt lat="51.821224000" lon="7.591993000">
        <ele>60.0</ele>
        <time>2017-04-29T04:09:19</time>
        <extensions><speed>1.36</speed></extensions>
      </trkpt>
      <trkpt lat="51.821236000" lon="7.591975000">
        <ele>60.0</ele>
        <time>2017-04-29T04:09:20</time>
        <extensions><speed>1.36</speed></extensions>
      </trkpt>
      <trkpt lat="51.821243000" lon="7.591957000">
        <ele>60.0</ele>
        <time>2017-04-29T04:09:21</time>
        <extensions><speed>1.36</speed></extensions>
      </trkpt>
      <trkpt lat="51.821247000" lon="7.591938000">
        <ele>60.0</ele>
        <time>2017-04-29T04:09:22</time>
        <extensions><speed>1.36</speed></extensions>
      </trkpt>
      <trkpt lat="51.821255000" lon="7.591923000">
        <ele>60.0</ele>
        <time>2017-04-29T04:09:23</time>
        <extensions><speed>1.34</speed></extensions>
      </trkpt>
      <trkpt lat="51.821259000" lon="7.591905000">
        <ele>60.0</ele>
        <time>2017-04-29T04:09:24</time>
        <extensions><speed>1.34</speed></extensions>
      </trkpt>
      <trkpt lat="51.821262000" lon="7.591890000">
        <ele>59.9</ele>
        <time>2017-04-29T04:09:25</time>
        <extensions><speed>1.30</speed></extensions>
      </trkpt>
      <trkpt lat="51.821270000" lon="7.591877000">
        <ele>59.9</ele>
        <time>2017-04-29T04:09:26</time>
        <extensions><speed>1.26</speed></extensions>
      </trkpt>
      <trkpt lat="51.821274000" lon="7.591860000">
        <ele>59.9</ele>
        <time>2017-04-29T04:09:27</time>
        <extensions><speed>1.25</speed></extensions>
      </trkpt>
      <trkpt lat="51.821285000" lon="7.591845000">
        <ele>59.9</ele>
        <time>2017-04-29T04:09:28</time>
        <extensions><speed>1.25</speed></extensions>
      </trkpt>
      <trkpt lat="51.821289000" lon="7.591830000">
        <ele>59.9</ele>
        <time>2017-04-29T04:09:29</time>
        <extensions><speed>1.24</speed></extensions>
      </trkpt>
      <trkpt lat="51.821293000" lon="7.591810000">
        <ele>59.9</ele>
        <time>2017-04-29T04:09:30</time>
        <extensions><speed>1.30</speed></extensions>
      </trkpt>
      <trkpt lat="51.821297000" lon="7.591790000">
        <ele>59.9</ele>
        <time>2017-04-29T04:09:31</time>
        <extensions><speed>1.36</speed></extensions>
      </trkpt>
      <trkpt lat="51.821304000" lon="7.591770000">
        <ele>59.9</ele>
        <time>2017-04-29T04:09:32</time>
        <extensions><speed>1.38</speed></extensions>
      </trkpt>
      <trkpt lat="51.821312000" lon="7.591753000">
        <ele>59.9</ele>
        <time>2017-04-29T04:09:33</time>
        <extensions><speed>1.38</speed></extensions>
      </trkpt>
      <trkpt lat="51.821320000" lon="7.591738000">
        <ele>59.9</ele>
        <time>2017-04-29T04:09:34</time>
        <extensions><speed>1.35</speed></extensions>
      </trkpt>
      <trkpt lat="51.821323000" lon="7.591720000">
        <ele>59.9</ele>
        <time>2017-04-29T04:09:35</time>
        <extensions><speed>1.36</speed></extensions>
      </trkpt>
      <trkpt lat="51.821331000" lon="7.591702000">
        <ele>59.8</ele>
        <time>2017-04-29T04:09:36</time>
        <extensions><speed>1.39</speed></extensions>
      </trkpt>
      <trkpt lat="51.821339000" lon="7.591683000">
        <ele>59.8</ele>
        <time>2017-04-29T04:09:37</time>
        <extensions><speed>1.32</speed></extensions>
      </trkpt>
      <trkpt lat="51.821346000" lon="7.591668000">
        <ele>59.8</ele>
        <time>2017-04-29T04:09:38</time>
        <extensions><speed>1.40</speed></extensions>
      </trkpt>
      <trkpt lat="51.821354000" lon="7.591655000">
        <ele>59.8</ele>
        <time>2017-04-29T04:09:39</time>
        <extensions><speed>1.40</speed></extensions>
      </trkpt>
      <trkpt lat="51.821362000" lon="7.591642000">
        <ele>59.8</ele>
        <time>2017-04-29T04:09:40</time>
        <extensions><speed>1.35</speed></extensions>
      </trkpt>
      <trkpt lat="51.821369000" lon="7.591626000">
        <ele>59.8</ele>
        <time>2017-04-29T04:09:41</time>
        <extensions><speed>1.25</speed></extensions>
      </trkpt>
      <trkpt lat="51.821377000" lon="7.591615000">
        <ele>59.8</ele>
        <time>2017-04-29T04:09:42</time>
        <extensions><speed>1.20</speed></extensions>
      </trkpt>
      <trkpt lat="51.821384000" lon="7.591603000">
        <ele>59.8</ele>
        <time>2017-04-29T04:09:43</time>
        <extensions><speed>1.17</speed></extensions>
      </trkpt>
      <trkpt lat="51.821392000" lon="7.591589000">
        <ele>59.7</ele>
        <time>2017-04-29T04:09:44</time>
        <extensions><speed>1.21</speed></extensions>
      </trkpt>
      <trkpt lat="51.821400000" lon="7.591575000">
        <ele>59.7</ele>
        <time>2017-04-29T04:09:45</time>
        <extensions><speed>1.21</speed></extensions>
      </trkpt>
      <trkpt lat="51.821404000" lon="7.591560000">
        <ele>59.7</ele>
        <time>2017-04-29T04:09:46</time>
        <extensions><speed>1.27</speed></extensions>
      </trkpt>
      <trkpt lat="51.821419000" lon="7.591547000">
        <ele>59.7</ele>
        <time>2017-04-29T04:09:47</time>
        <extensions><speed>1.29</speed></extensions>
      </trkpt>
      <trkpt lat="51.821426000" lon="7.591532000">
        <ele>59.7</ele>
        <time>2017-04-29T04:09:48</time>
        <extensions><speed>1.31</speed></extensions>
      </trkpt>
      <trkpt lat="51.821434000" lon="7.591516000">
        <ele>59.7</ele>
        <time>2017-04-29T04:09:49</time>
        <extensions><speed>1.33</speed></extensions>
      </trkpt>
      <trkpt lat="51.821445000" lon="7.591500000">
        <ele>59.6</ele>
        <time>2017-04-29T04:09:50</time>
        <extensions><speed>1.32</speed></extensions>
      </trkpt>
      <trkpt lat="51.821453000" lon="7.591486000">
        <ele>59.6</ele>
        <time>2017-04-29T04:09:51</time>
        <extensions><speed>1.29</speed></extensions>
      </trkpt>
      <trkpt lat="51.821461000" lon="7.591474000">
        <ele>59.6</ele>
        <time>2017-04-29T04:09:52</time>
        <extensions><speed>1.31</speed></extensions>
      </trkpt>
      <trkpt lat="51.821468000" lon="7.591460000">
        <ele>59.6</ele>
        <time>2017-04-29T04:09:53</time>
        <extensions><speed>1.24</speed></extensions>
      </trkpt>
      <trkpt lat="51.821476000" lon="7.591444000">
        <ele>59.5</ele>
        <time>2017-04-29T04:09:54</time>
        <extensions><speed>1.26</speed></extensions>
      </trkpt>
      <trkpt lat="51.821484000" lon="7.591425000">
        <ele>59.5</ele>
        <time>2017-04-29T04:09:55</time>
        <extensions><speed>1.28</speed></extensions>
      </trkpt>
      <trkpt lat="51.821491000" lon="7.591412000">
        <ele>59.5</ele>
        <time>2017-04-29T04:09:56</time>
        <extensions><speed>1.32</speed></extensions>
      </trkpt>
      <trkpt lat="51.821503000" lon="7.591398000">
        <ele>59.5</ele>
        <time>2017-04-29T04:09:57</time>
        <extensions><speed>1.28</speed></extensions>
      </trkpt>
      <trkpt lat="51.821510000" lon="7.591383000">
        <ele>59.5</ele>
        <time>2017-04-29T04:09:58</time>
        <extensions><speed>1.34</speed></extensions>
      </trkpt>
      <trkpt lat="51.821518000" lon="7.591367000">
        <ele>59.4</ele>
        <time>2017-04-29T04:09:59</time>
        <extensions><speed>1.28</speed></extensions>
      </trkpt>
      <trkpt lat="51.821529000" lon="7.591350000">
        <ele>59.4</ele>
        <time>2017-04-29T04:10:00</time>
        <extensions><speed>1.33</speed></extensions>
      </trkpt>
      <trkpt lat="51.821537000" lon="7.591332000">
        <ele>59.4</ele>
        <time>2017-04-29T04:10:01</time>
        <extensions><speed>1.36</speed></extensions>
      </trkpt>
      <trkpt lat="51.821541000" lon="7.591315000">
        <ele>59.4</ele>
        <time>2017-04-29T04:10:02</time>
        <extensions><speed>1.37</speed></extensions>
      </trkpt>
      <trkpt lat="51.821548000" lon="7.591300000">
        <ele>59.4</ele>
        <time>2017-04-29T04:10:03</time>
        <extensions><speed>1.34</speed></extensions>
      </trkpt>
      <trkpt lat="51.821556000" lon="7.591283000">
        <ele>59.3</ele>
        <time>2017-04-29T04:10:04</time>
        <extensions><speed>1.34</speed></extensions>
      </trkpt>
      <trkpt lat="51.821560000" lon="7.591265000">
        <ele>59.3</ele>
        <time>2017-04-29T04:10:05</time>
        <extensions><speed>1.30</speed></extensions>
      </trkpt>
      <trkpt lat="51.821568000" lon="7.591248000">
        <ele>59.3</ele>
        <time>2017-04-29T04:10:06</time>
        <extensions><speed>1.28</speed></extensions>
      </trkpt>
      <trkpt lat="51.821579000" lon="7.591230000">
        <ele>59.3</ele>
        <time>2017-04-29T04:10:07</time>
        <extensions><speed>1.31</speed></extensions>
      </trkpt>
      <trkpt lat="51.821583000" lon="7.591213000">
        <ele>59.3</ele>
        <time>2017-04-29T04:10:08</time>
        <extensions><speed>1.30</speed></extensions>
      </trkpt>
      <trkpt lat="51.821594000" lon="7.591198000">
        <ele>59.2</ele>
        <time>2017-04-29T04:10:09</time>
        <extensions><speed>1.31</speed></extensions>
      </trkpt>
      <trkpt lat="51.821602000" lon="7.591180000">
        <ele>59.2</ele>
        <time>2017-04-29T04:10:10</time>
        <extensions><speed>1.37</speed></extensions>
      </trkpt>
      <trkpt lat="51.821609000" lon="7.591166000">
        <ele>59.2</ele>
        <time>2017-04-29T04:10:11</time>
        <extensions><speed>1.36</speed></extensions>
      </trkpt>
      <trkpt lat="51.821613000" lon="7.591148000">
        <ele>59.2</ele>
        <time>2017-04-29T04:10:12</time>
        <extensions><speed>1.35</speed></extensions>
      </trkpt>
      <trkpt lat="51.821625000" lon="7.591132000">
        <ele>59.2</ele>
        <time>2017-04-29T04:10:13</time>
        <extensions><speed>1.38</speed></extensions>
      </trkpt>
      <trkpt lat="51.821632000" lon="7.591116000">
        <ele>59.2</ele>
        <time>2017-04-29T04:10:14</time>
        <extensions><speed>1.42</speed></extensions>
      </trkpt>
      <trkpt lat="51.821644000" lon="7.591100000">
        <ele>59.2</ele>
        <time>2017-04-29T04:10:15</time>
        <extensions><speed>1.42</speed></extensions>
      </trkpt>
      <trkpt lat="51.821651000" lon="7.591084000">
        <ele>59.1</ele>
        <time>2017-04-29T04:10:16</time>
        <extensions><speed>1.42</speed></extensions>
      </trkpt>
      <trkpt lat="51.821659000" lon="7.591068000">
        <ele>59.1</ele>
        <time>2017-04-29T04:10:17</time>
        <extensions><speed>1.43</speed></extensions>
      </trkpt>
      <trkpt lat="51.821671000" lon="7.591052000">
        <ele>59.1</ele>
        <time>2017-04-29T04:10:18</time>
        <extensions><speed>1.44</speed></extensions>
      </trkpt>
      <trkpt lat="51.821678000" lon="7.591033000">
        <ele>59.1</ele>
        <time>2017-04-29T04:10:19</time>
        <extensions><speed>1.45</speed></extensions>
      </trkpt>
      <trkpt lat="51.821686000" lon="7.591017000">
        <ele>59.1</ele>
        <time>2017-04-29T04:10:20</time>
        <extensions><speed>1.45</speed></extensions>
      </trkpt>
      <trkpt lat="51.821693000" lon="7.591000000">
        <ele>59.1</ele>
        <time>2017-04-29T04:10:21</time>
        <extensions><speed>1.47</speed></extensions>
      </trkpt>
      <trkpt lat="51.821705000" lon="7.590983000">
        <ele>59.1</ele>
        <time>2017-04-29T04:10:22</time>
        <extensions><speed>1.46</speed></extensions>
      </trkpt>
      <trkpt lat="51.821712000" lon="7.590966000">
        <ele>59.1</ele>
        <time>2017-04-29T04:10:23</time>
        <extensions><speed>1.44</speed></extensions>
      </trkpt>
      <trkpt lat="51.821720000" lon="7.590953000">
        <ele>59.1</ele>
        <time>2017-04-29T04:10:24</time>
        <extensions><speed>1.41</speed></extensions>
      </trkpt>
      <trkpt lat="51.821732000" lon="7.590940000">
        <ele>59.1</ele>
        <time>2017-04-29T04:10:25</time>
        <extensions><speed>1.38</speed></extensions>
      </trkpt>
      <trkpt lat="51.821739000" lon="7.590924000">
        <ele>59.0</ele>
        <time>2017-04-29T04:10:26</time>
        <extensions><speed>1.38</speed></extensions>
      </trkpt>
      <trkpt lat="51.821747000" lon="7.590910000">
        <ele>59.0</ele>
        <time>2017-04-29T04:10:27</time>
        <extensions><speed>1.41</speed></extensions>
      </trkpt>
      <trkpt lat="51.821754000" lon="7.590895000">
        <ele>59.0</ele>
        <time>2017-04-29T04:10:28</time>
        <extensions><speed>1.38</speed></extensions>
      </trkpt>
      <trkpt lat="51.821766000" lon="7.590880000">
        <ele>59.0</ele>
        <time>2017-04-29T04:10:29</time>
        <extensions><speed>1.43</speed></extensions>
      </trkpt>
      <trkpt lat="51.821777000" lon="7.590868000">
        <ele>59.0</ele>
        <time>2017-04-29T04:10:30</time>
        <extensions><speed>1.40</speed></extensions>
      </trkpt>
      <trkpt lat="51.821785000" lon="7.590854000">
        <ele>59.0</ele>
        <time>2017-04-29T04:10:31</time>
        <extensions><speed>1.38</speed></extensions>
      </trkpt>
      <trkpt lat="51.821796000" lon="7.590837000">
        <ele>59.0</ele>
        <time>2017-04-29T04:10:32</time>
        <extensions><speed>1.42</speed></extensions>
      </trkpt>
      <trkpt lat="51.821808000" lon="7.590822000">
        <ele>59.0</ele>
        <time>2017-04-29T04:10:33</time>
        <extensions><speed>1.51</speed></extensions>
      </trkpt>
      <trkpt lat="51.821815000" lon="7.590805000">
        <ele>59.0</ele>
        <time>2017-04-29T04:10:34</time>
        <extensions><speed>1.45</speed></extensions>
      </trkpt>
      <trkpt lat="51.821819000" lon="7.590788000">
        <ele>59.0</ele>
        <time>2017-04-29T04:10:35</time>
        <extensions><speed>1.49</speed></extensions>
      </trkpt>
      <trkpt lat="51.821827000" lon="7.590772000">
        <ele>59.0</ele>
        <time>2017-04-29T04:10:36</time>
        <extensions><speed>1.47</speed></extensions>
      </trkpt>
      <trkpt lat="51.821838000" lon="7.590755000">
        <ele>59.0</ele>
        <time>2017-04-29T04:10:37</time>
        <extensions><speed>1.44</speed></extensions>
      </trkpt>
      <trkpt lat="51.821842000" lon="7.590740000">
        <ele>59.0</ele>
        <time>2017-04-29T04:10:38</time>
        <extensions><speed>1.39</speed></extensions>
      </trkpt>
      <trkpt lat="51.821850000" lon="7.590726000">
        <ele>59.0</ele>
        <time>2017-04-29T04:10:39</time>
        <extensions><speed>1.37</speed></extensions>
      </trkpt>
      <trkpt lat="51.821857000" lon="7.590714000">
        <ele>59.0</ele>
        <time>2017-04-29T04:10:40</time>
        <extensions><speed>1.32</speed></extensions>
      </trkpt>
      <trkpt lat="51.821865000" lon="7.590702000">
        <ele>59.0</ele>
        <time>2017-04-29T04:10:41</time>
        <extensions><speed>1.28</speed></extensions>
      </trkpt>
      <trkpt lat="51.821877000" lon="7.590690000">
        <ele>59.0</ele>
        <time>2017-04-29T04:10:42</time>
        <extensions><speed>1.28</speed></extensions>
      </trkpt>
      <trkpt lat="51.821880000" lon="7.590677000">
        <ele>59.0</ele>
        <time>2017-04-29T04:10:43</time>
        <extensions><speed>1.29</speed></extensions>
      </trkpt>
      <trkpt lat="51.821888000" lon="7.590660000">
        <ele>59.0</ele>
        <time>2017-04-29T04:10:44</time>
        <extensions><speed>1.32</speed></extensions>
      </trkpt>
      <trkpt lat="51.821896000" lon="7.590647000">
        <ele>59.0</ele>
        <time>2017-04-29T04:10:45</time>
        <extensions><speed>1.33</speed></extensions>
      </trkpt>
      <trkpt lat="51.821907000" lon="7.590630000">
        <ele>59.0</ele>
        <time>2017-04-29T04:10:46</time>
        <extensions><speed>1.39</speed></extensions>
      </trkpt>
      <trkpt lat="51.821911000" lon="7.590616000">
        <ele>59.0</ele>
        <time>2017-04-29T04:10:47</time>
        <extensions><speed>1.37</speed></extensions>
      </trkpt>
      <trkpt lat="51.821918000" lon="7.590603000">
        <ele>59.0</ele>
        <time>2017-04-29T04:10:48</time>
        <extensions><speed>1.37</speed></extensions>
      </trkpt>
      <trkpt lat="51.821930000" lon="7.590587000">
        <ele>59.0</ele>
        <time>2017-04-29T04:10:49</time>
        <extensions><speed>1.36</speed></extensions>
      </trkpt>
      <trkpt lat="51.821938000" lon="7.590567000">
        <ele>59.0</ele>
        <time>2017-04-29T04:10:50</time>
        <extensions><speed>1.39</speed></extensions>
      </trkpt>
      <trkpt lat="51.821941000" lon="7.590550000">
        <ele>59.0</ele>
        <time>2017-04-29T04:10:51</time>
        <extensions><speed>1.32</speed></extensions>
      </trkpt>
      <trkpt lat="51.821949000" lon="7.590537000">
        <ele>59.0</ele>
        <time>2017-04-29T04:10:52</time>
        <extensions><speed>1.32</speed></extensions>
      </trkpt>
      <trkpt lat="51.821957000" lon="7.590521000">
        <ele>59.0</ele>
        <time>2017-04-29T04:10:53</time>
        <extensions><speed>1.34</speed></extensions>
      </trkpt>
      <trkpt lat="51.821968000" lon="7.590505000">
        <ele>59.0</ele>
        <time>2017-04-29T04:10:54</time>
        <extensions><speed>1.34</speed></extensions>
      </trkpt>
      <trkpt lat="51.821976000" lon="7.590492000">
        <ele>59.0</ele>
        <time>2017-04-29T04:10:55</time>
        <extensions><speed>1.33</speed></extensions>
      </trkpt>
      <trkpt lat="51.821983000" lon="7.590478000">
        <ele>59.0</ele>
        <time>2017-04-29T04:10:56</time>
        <extensions><speed>1.36</speed></extensions>
      </trkpt>
      <trkpt lat="51.821995000" lon="7.590464000">
        <ele>59.0</ele>
        <time>2017-04-29T04:10:57</time>
        <extensions><speed>1.40</speed></extensions>
      </trkpt>
      <trkpt lat="51.822006000" lon="7.590448000">
        <ele>59.0</ele>
        <time>2017-04-29T04:10:58</time>
        <extensions><speed>1.40</speed></extensions>
      </trkpt>
      <trkpt lat="51.822010000" lon="7.590432000">
        <ele>59.0</ele>
        <time>2017-04-29T04:10:59</time>
        <extensions><speed>1.38</speed></extensions>
      </trkpt>
      <trkpt lat="51.822021000" lon="7.590416000">
        <ele>59.0</ele>
        <time>2017-04-29T04:11:00</time>
        <extensions><speed>1.41</speed></extensions>
      </trkpt>
      <trkpt lat="51.822029000" lon="7.590402000">
        <ele>59.0</ele>
        <time>2017-04-29T04:11:01</time>
        <extensions><speed>1.41</speed></extensions>
      </trkpt>
      <trkpt lat="51.822037000" lon="7.590387000">
        <ele>59.0</ele>
        <time>2017-04-29T04:11:02</time>
        <extensions><speed>1.38</speed></extensions>
      </trkpt>
      <trkpt lat="51.822044000" lon="7.590373000">
        <ele>59.0</ele>
        <time>2017-04-29T04:11:03</time>
        <extensions><speed>1.40</speed></extensions>
      </trkpt>
      <trkpt lat="51.822052000" lon="7.590360000">
        <ele>59.0</ele>
        <time>2017-04-29T04:11:04</time>
        <extensions><speed>1.37</speed></extensions>
      </trkpt>
      <trkpt lat="51.822060000" lon="7.590346000">
        <ele>59.0</ele>
        <time>2017-04-29T04:11:05</time>
        <extensions><speed>1.30</speed></extensions>
      </trkpt>
      <trkpt lat="51.822071000" lon="7.590334000">
        <ele>59.0</ele>
        <time>2017-04-29T04:11:06</time>
        <extensions><speed>1.33</speed></extensions>
      </trkpt>
      <trkpt lat="51.822079000" lon="7.590325000">
        <ele>59.0</ele>
        <time>2017-04-29T04:11:07</time>
        <extensions><speed>1.26</speed></extensions>
      </trkpt>
      <trkpt lat="51.822090000" lon="7.590318000">
        <ele>59.0</ele>
        <time>2017-04-29T04:11:08</time>
        <extensions><speed>1.26</speed></extensions>
      </trkpt>
      <trkpt lat="51.822102000" lon="7.590306000">
        <ele>59.0</ele>
        <time>2017-04-29T04:11:09</time>
        <extensions><speed>1.37</speed></extensions>
      </trkpt>
      <trkpt lat="51.822109000" lon="7.590299000">
        <ele>59.0</ele>
        <time>2017-04-29T04:11:10</time>
        <extensions><speed>1.38</speed></extensions>
      </trkpt>
      <trkpt lat="51.822124000" lon="7.590299000">
        <ele>59.0</ele>
        <time>2017-04-29T04:11:11</time>
        <extensions><speed>1.33</speed></extensions>
      </trkpt>
      <trkpt lat="51.822136000" lon="7.590303000">
        <ele>59.0</ele>
        <time>2017-04-29T04:11:12</time>
        <extensions><speed>1.43</speed></extensions>
      </trkpt>
      <trkpt lat="51.822151000" lon="7.590308000">
        <ele>59.0</ele>
        <time>2017-04-29T04:11:13</time>
        <extensions><speed>1.41</speed></extensions>
      </trkpt>
      <trkpt lat="51.822166000" lon="7.590317000">
        <ele>59.0</ele>
        <time>2017-04-29T04:11:14</time>
        <extensions><speed>1.41</speed></extensions>
      </trkpt>
      <trkpt lat="51.822174000" lon="7.590329000">
        <ele>59.0</ele>
        <time>2017-04-29T04:11:15</time>
        <extensions><speed>1.53</speed></extensions>
      </trkpt>
      <trkpt lat="51.822186000" lon="7.590336000">
        <ele>59.0</ele>
        <time>2017-04-29T04:11:16</time>
        <extensions><speed>1.53</speed></extensions>
      </trkpt>
      <trkpt lat="51.822201000" lon="7.590343000">
        <ele>59.0</ele>
        <time>2017-04-29T04:11:17</time>
        <extensions><speed>1.43</speed></extensions>
      </trkpt>
      <trkpt lat="51.822208000" lon="7.590352000">
        <ele>59.0</ele>
        <time>2017-04-29T04:11:18</time>
        <extensions><speed>1.43</speed></extensions>
      </trkpt>
      <trkpt lat="51.822224000" lon="7.590360000">
        <ele>59.0</ele>
        <time>2017-04-29T04:11:19</time>
        <extensions><speed>1.43</speed></extensions>
      </trkpt>
      <trkpt lat="51.822235000" lon="7.590370000">
        <ele>59.0</ele>
        <time>2017-04-29T04:11:20</time>
        <extensions><speed>1.43</speed></extensions>
      </trkpt>
      <trkpt lat="51.822239000" lon="7.590380000">
        <ele>59.0</ele>
        <time>2017-04-29T04:11:21</time>
        <extensions><speed>1.46</speed></extensions>
      </trkpt>
      <trkpt lat="51.822254000" lon="7.590392000">
        <ele>59.0</ele>
        <time>2017-04-29T04:11:22</time>
        <extensions><speed>1.46</speed></extensions>
      </trkpt>
      <trkpt lat="51.822266000" lon="7.590402000">
        <ele>59.0</ele>
        <time>2017-04-29T04:11:23</time>
        <extensions><speed>1.47</speed></extensions>
      </trkpt>
      <trkpt lat="51.822273000" lon="7.590410000">
        <ele>59.0</ele>
        <time>2017-04-29T04:11:24</time>
        <extensions><speed>1.46</speed></extensions>
      </trkpt>
      <trkpt lat="51.822285000" lon="7.590420000">
        <ele>59.0</ele>
        <time>2017-04-29T04:11:25</time>
        <extensions><speed>1.44</speed></extensions>
      </trkpt>
      <trkpt lat="51.822296000" lon="7.590428000">
        <ele>59.0</ele>
        <time>2017-04-29T04:11:26</time>
        <extensions><speed>1.44</speed></extensions>
      </trkpt>
      <trkpt lat="51.822304000" lon="7.590437000">
        <ele>59.0</ele>
        <time>2017-04-29T04:11:27</time>
        <extensions><speed>1.42</speed></extensions>
      </trkpt>
      <trkpt lat="51.822319000" lon="7.590443000">
        <ele>59.0</ele>
        <time>2017-04-29T04:11:28</time>
        <extensions><speed>1.42</speed></extensions>
      </trkpt>
      <trkpt lat="51.822330000" lon="7.590452000">
        <ele>59.0</ele>
        <time>2017-04-29T04:11:29</time>
        <extensions><speed>1.43</speed></extensions>
      </trkpt>
      <trkpt lat="51.822338000" lon="7.590460000">
        <ele>59.0</ele>
        <time>2017-04-29T04:11:30</time>
        <extensions><speed>1.43</speed></extensions>
      </trkpt>
      <trkpt lat="51.822350000" lon="7.590468000">
        <ele>59.0</ele>
        <time>2017-04-29T04:11:31</time>
        <extensions><speed>1.42</speed></extensions>
      </trkpt>
      <trkpt lat="51.822361000" lon="7.590478000">
        <ele>59.0</ele>
        <time>2017-04-29T04:11:32</time>
        <extensions><speed>1.44</speed></extensions>
      </trkpt>
      <trkpt lat="51.822372000" lon="7.590490000">
        <ele>59.0</ele>
        <time>2017-04-29T04:11:33</time>
        <extensions><speed>1.43</speed></extensions>
      </trkpt>
      <trkpt lat="51.822380000" lon="7.590498000">
        <ele>59.0</ele>
        <time>2017-04-29T04:11:34</time>
        <extensions><speed>1.41</speed></extensions>
      </trkpt>
      <trkpt lat="51.822395000" lon="7.590509000">
        <ele>59.0</ele>
        <time>2017-04-29T04:11:35</time>
        <extensions><speed>1.42</speed></extensions>
      </trkpt>
      <trkpt lat="51.822403000" lon="7.590518000">
        <ele>59.0</ele>
        <time>2017-04-29T04:11:36</time>
        <extensions><speed>1.42</speed></extensions>
      </trkpt>
      <trkpt lat="51.822414000" lon="7.590528000">
        <ele>59.0</ele>
        <time>2017-04-29T04:11:37</time>
        <extensions><speed>1.38</speed></extensions>
      </trkpt>
      <trkpt lat="51.822426000" lon="7.590539000">
        <ele>59.0</ele>
        <time>2017-04-29T04:11:38</time>
        <extensions><speed>1.38</speed></extensions>
      </trkpt>
      <trkpt lat="51.822437000" lon="7.590548000">
        <ele>59.0</ele>
        <time>2017-04-29T04:11:39</time>
        <extensions><speed>1.43</speed></extensions>
      </trkpt>
      <trkpt lat="51.822445000" lon="7.590555000">
        <ele>59.0</ele>
        <time>2017-04-29T04:11:40</time>
        <extensions><speed>1.40</speed></extensions>
      </trkpt>
      <trkpt lat="51.822456000" lon="7.590563000">
        <ele>59.0</ele>
        <time>2017-04-29T04:11:41</time>
        <extensions><speed>1.38</speed></extensions>
      </trkpt>
      <trkpt lat="51.822464000" lon="7.590572000">
        <ele>59.0</ele>
        <time>2017-04-29T04:11:42</time>
        <extensions><speed>1.38</speed></extensions>
      </trkpt>
      <trkpt lat="51.822475000" lon="7.590581000">
        <ele>59.0</ele>
        <time>2017-04-29T04:11:43</time>
        <extensions><speed>1.36</speed></extensions>
      </trkpt>
      <trkpt lat="51.822487000" lon="7.590591000">
        <ele>59.0</ele>
        <time>2017-04-29T04:11:44</time>
        <extensions><speed>1.36</speed></extensions>
      </trkpt>
      <trkpt lat="51.822498000" lon="7.590599000">
        <ele>59.0</ele>
        <time>2017-04-29T04:11:45</time>
        <extensions><speed>1.38</speed></extensions>
      </trkpt>
      <trkpt lat="51.822510000" lon="7.590607000">
        <ele>59.0</ele>
        <time>2017-04-29T04:11:46</time>
        <extensions><speed>1.40</speed></extensions>
      </trkpt>
      <trkpt lat="51.822521000" lon="7.590613000">
        <ele>59.0</ele>
        <time>2017-04-29T04:11:47</time>
        <extensions><speed>1.42</speed></extensions>
      </trkpt>
      <trkpt lat="51.822533000" lon="7.590620000">
        <ele>59.0</ele>
        <time>2017-04-29T04:11:48</time>
        <extensions><speed>1.43</speed></extensions>
      </trkpt>
      <trkpt lat="51.822544000" lon="7.590628000">
        <ele>59.0</ele>
        <time>2017-04-29T04:11:49</time>
        <extensions><speed>1.44</speed></extensions>
      </trkpt>
      <trkpt lat="51.822559000" lon="7.590640000">
        <ele>59.0</ele>
        <time>2017-04-29T04:11:50</time>
        <extensions><speed>1.44</speed></extensions>
      </trkpt>
      <trkpt lat="51.822567000" lon="7.590647000">
        <ele>59.0</ele>
        <time>2017-04-29T04:11:51</time>
        <extensions><speed>1.43</speed></extensions>
      </trkpt>
      <trkpt lat="51.822575000" lon="7.590655000">
        <ele>59.0</ele>
        <time>2017-04-29T04:11:52</time>
        <extensions><speed>1.42</speed></extensions>
      </trkpt>
      <trkpt lat="51.822586000" lon="7.590663000">
        <ele>59.0</ele>
        <time>2017-04-29T04:11:53</time>
        <extensions><speed>1.40</speed></extensions>
      </trkpt>
      <trkpt lat="51.822594000" lon="7.590672000">
        <ele>59.0</ele>
        <time>2017-04-29T04:11:54</time>
        <extensions><speed>1.39</speed></extensions>
      </trkpt>
      <trkpt lat="51.822605000" lon="7.590681000">
        <ele>59.0</ele>
        <time>2017-04-29T04:11:55</time>
        <extensions><speed>1.36</speed></extensions>
      </trkpt>
      <trkpt lat="51.822617000" lon="7.590690000">
        <ele>58.9</ele>
        <time>2017-04-29T04:11:56</time>
        <extensions><speed>1.40</speed></extensions>
      </trkpt>
      <trkpt lat="51.822624000" lon="7.590700000">
        <ele>58.9</ele>
        <time>2017-04-29T04:11:57</time>
        <extensions><speed>1.40</speed></extensions>
      </trkpt>
      <trkpt lat="51.822636000" lon="7.590710000">
        <ele>58.9</ele>
        <time>2017-04-29T04:11:58</time>
        <extensions><speed>1.39</speed></extensions>
      </trkpt>
      <trkpt lat="51.822647000" lon="7.590717000">
        <ele>58.9</ele>
        <time>2017-04-29T04:11:59</time>
        <extensions><speed>1.36</speed></extensions>
      </trkpt>
      <trkpt lat="51.822659000" lon="7.590725000">
        <ele>58.9</ele>
        <time>2017-04-29T04:12:00</time>
        <extensions><speed>1.37</speed></extensions>
      </trkpt>
      <trkpt lat="51.822666000" lon="7.590734000">
        <ele>58.9</ele>
        <time>2017-04-29T04:12:01</time>
        <extensions><speed>1.36</speed></extensions>
      </trkpt>
      <trkpt lat="51.822678000" lon="7.590744000">
        <ele>58.9</ele>
        <time>2017-04-29T04:12:02</time>
        <extensions><speed>1.34</speed></extensions>
      </trkpt>
      <trkpt lat="51.822689000" lon="7.590755000">
        <ele>58.9</ele>
        <time>2017-04-29T04:12:03</time>
        <extensions><speed>1.35</speed></extensions>
      </trkpt>
      <trkpt lat="51.822701000" lon="7.590765000">
        <ele>58.8</ele>
        <time>2017-04-29T04:12:04</time>
        <extensions><speed>1.35</speed></extensions>
      </trkpt>
      <trkpt lat="51.822712000" lon="7.590772000">
        <ele>58.8</ele>
        <time>2017-04-29T04:12:05</time>
        <extensions><speed>1.35</speed></extensions>
      </trkpt>
      <trkpt lat="51.822723000" lon="7.590778000">
        <ele>58.8</ele>
        <time>2017-04-29T04:12:06</time>
        <extensions><speed>1.36</speed></extensions>
      </trkpt>
      <trkpt lat="51.822731000" lon="7.590787000">
        <ele>58.8</ele>
        <time>2017-04-29T04:12:07</time>
        <extensions><speed>1.36</speed></extensions>
      </trkpt>
      <trkpt lat="51.822739000" lon="7.590796000">
        <ele>58.8</ele>
        <time>2017-04-29T04:12:08</time>
        <extensions><speed>1.36</speed></extensions>
      </trkpt>
      <trkpt lat="51.822750000" lon="7.590808000">
        <ele>58.8</ele>
        <time>2017-04-29T04:12:09</time>
        <extensions><speed>1.35</speed></extensions>
      </trkpt>
      <trkpt lat="51.822758000" lon="7.590819000">
        <ele>58.8</ele>
        <time>2017-04-29T04:12:10</time>
        <extensions><speed>1.37</speed></extensions>
      </trkpt>
      <trkpt lat="51.822769000" lon="7.590828000">
        <ele>58.7</ele>
        <time>2017-04-29T04:12:11</time>
        <extensions><speed>1.34</speed></extensions>
      </trkpt>
      <trkpt lat="51.822781000" lon="7.590838000">
        <ele>58.7</ele>
        <time>2017-04-29T04:12:12</time>
        <extensions><speed>1.34</speed></extensions>
      </trkpt>
      <trkpt lat="51.822788000" lon="7.590845000">
        <ele>58.7</ele>
        <time>2017-04-29T04:12:13</time>
        <extensions><speed>1.32</speed></extensions>
      </trkpt>
      <trkpt lat="51.822796000" lon="7.590852000">
        <ele>58.7</ele>
        <time>2017-04-29T04:12:14</time>
        <extensions><speed>1.35</speed></extensions>
      </trkpt>
      <trkpt lat="51.822811000" lon="7.590863000">
        <ele>58.7</ele>
        <time>2017-04-29T04:12:15</time>
        <extensions><speed>1.35</speed></extensions>
      </trkpt>
      <trkpt lat="51.822819000" lon="7.590873000">
        <ele>58.7</ele>
        <time>2017-04-29T04:12:16</time>
        <extensions><speed>1.38</speed></extensions>
      </trkpt>
      <trkpt lat="51.822830000" lon="7.590884000">
        <ele>58.6</ele>
        <time>2017-04-29T04:12:17</time>
        <extensions><speed>1.38</speed></extensions>
      </trkpt>
      <trkpt lat="51.822842000" lon="7.590893000">
        <ele>58.6</ele>
        <time>2017-04-29T04:12:18</time>
        <extensions><speed>1.38</speed></extensions>
      </trkpt>
      <trkpt lat="51.822853000" lon="7.590905000">
        <ele>58.6</ele>
        <time>2017-04-29T04:12:19</time>
        <extensions><speed>1.36</speed></extensions>
      </trkpt>
      <trkpt lat="51.822861000" lon="7.590915000">
        <ele>58.6</ele>
        <time>2017-04-29T04:12:20</time>
        <extensions><speed>1.34</speed></extensions>
      </trkpt>
      <trkpt lat="51.822872000" lon="7.590925000">
        <ele>58.6</ele>
        <time>2017-04-29T04:12:21</time>
        <extensions><speed>1.34</speed></extensions>
      </trkpt>
      <trkpt lat="51.822884000" lon="7.590937000">
        <ele>58.6</ele>
        <time>2017-04-29T04:12:22</time>
        <extensions><speed>1.37</speed></extensions>
      </trkpt>
      <trkpt lat="51.822891000" lon="7.590949000">
        <ele>58.5</ele>
        <time>2017-04-29T04:12:23</time>
        <extensions><speed>1.36</speed></extensions>
      </trkpt>
      <trkpt lat="51.822903000" lon="7.590961000">
        <ele>58.5</ele>
        <time>2017-04-29T04:12:24</time>
        <extensions><speed>1.36</speed></extensions>
      </trkpt>
      <trkpt lat="51.822914000" lon="7.590971000">
        <ele>58.5</ele>
        <time>2017-04-29T04:12:25</time>
        <extensions><speed>1.37</speed></extensions>
      </trkpt>
      <trkpt lat="51.822922000" lon="7.590982000">
        <ele>58.5</ele>
        <time>2017-04-29T04:12:26</time>
        <extensions><speed>1.38</speed></extensions>
      </trkpt>
      <trkpt lat="51.822933000" lon="7.590990000">
        <ele>58.5</ele>
        <time>2017-04-29T04:12:27</time>
        <extensions><speed>1.35</speed></extensions>
      </trkpt>
      <trkpt lat="51.822945000" lon="7.590998000">
        <ele>58.5</ele>
        <time>2017-04-29T04:12:28</time>
        <extensions><speed>1.36</speed></extensions>
      </trkpt>
      <trkpt lat="51.822956000" lon="7.591008000">
        <ele>58.5</ele>
        <time>2017-04-29T04:12:29</time>
        <extensions><speed>1.40</speed></extensions>
      </trkpt>
      <trkpt lat="51.822968000" lon="7.591017000">
        <ele>58.5</ele>
        <time>2017-04-29T04:12:30</time>
        <extensions><speed>1.37</speed></extensions>
      </trkpt>
      <trkpt lat="51.822979000" lon="7.591025000">
        <ele>58.5</ele>
        <time>2017-04-29T04:12:31</time>
        <extensions><speed>1.38</speed></extensions>
      </trkpt>
      <trkpt lat="51.822990000" lon="7.591035000">
        <ele>58.5</ele>
        <time>2017-04-29T04:12:32</time>
        <extensions><speed>1.41</speed></extensions>
      </trkpt>
      <trkpt lat="51.823002000" lon="7.591045000">
        <ele>58.4</ele>
        <time>2017-04-29T04:12:33</time>
        <extensions><speed>1.42</speed></extensions>
      </trkpt>
      <trkpt lat="51.823013000" lon="7.591053000">
        <ele>58.4</ele>
        <time>2017-04-29T04:12:34</time>
        <extensions><speed>1.39</speed></extensions>
      </trkpt>
      <trkpt lat="51.823021000" lon="7.591063000">
        <ele>58.4</ele>
        <time>2017-04-29T04:12:35</time>
        <extensions><speed>1.41</speed></extensions>
      </trkpt>
      <trkpt lat="51.823032000" lon="7.591073000">
        <ele>58.4</ele>
        <time>2017-04-29T04:12:36</time>
        <extensions><speed>1.37</speed></extensions>
      </trkpt>
      <trkpt lat="51.823044000" lon="7.591085000">
        <ele>58.4</ele>
        <time>2017-04-29T04:12:37</time>
        <extensions><speed>1.33</speed></extensions>
      </trkpt>
      <trkpt lat="51.823051000" lon="7.591095000">
        <ele>58.4</ele>
        <time>2017-04-29T04:12:38</time>
        <extensions><speed>1.34</speed></extensions>
      </trkpt>
      <trkpt lat="51.823063000" lon="7.591106000">
        <ele>58.4</ele>
        <time>2017-04-29T04:12:39</time>
        <extensions><speed>1.39</speed></extensions>
      </trkpt>
      <trkpt lat="51.823074000" lon="7.591115000">
        <ele>58.3</ele>
        <time>2017-04-29T04:12:40</time>
        <extensions><speed>1.35</speed></extensions>
      </trkpt>
      <trkpt lat="51.823082000" lon="7.591122000">
        <ele>58.3</ele>
        <time>2017-04-29T04:12:41</time>
        <extensions><speed>1.38</speed></extensions>
      </trkpt>
      <trkpt lat="51.823093000" lon="7.591129000">
        <ele>58.3</ele>
        <time>2017-04-29T04:12:42</time>
        <extensions><speed>1.41</speed></extensions>
      </trkpt>
      <trkpt lat="51.823105000" lon="7.591136000">
        <ele>58.3</ele>
        <time>2017-04-29T04:12:43</time>
        <extensions><speed>1.38</speed></extensions>
      </trkpt>
      <trkpt lat="51.823116000" lon="7.591145000">
        <ele>58.3</ele>
        <time>2017-04-29T04:12:44</time>
        <extensions><speed>1.38</speed></extensions>
      </trkpt>
      <trkpt lat="51.823128000" lon="7.591155000">
        <ele>58.3</ele>
        <time>2017-04-29T04:12:45</time>
        <extensions><speed>1.38</speed></extensions>
      </trkpt>
      <trkpt lat="51.823139000" lon="7.591166000">
        <ele>58.2</ele>
        <time>2017-04-29T04:12:46</time>
        <extensions><speed>1.35</speed></extensions>
      </trkpt>
      <trkpt lat="51.823147000" lon="7.591178000">
        <ele>58.2</ele>
        <time>2017-04-29T04:12:47</time>
        <extensions><speed>1.33</speed></extensions>
      </trkpt>
      <trkpt lat="51.823147000" lon="7.591195000">
        <ele>58.2</ele>
        <time>2017-04-29T04:12:48</time>
        <extensions><speed>1.31</speed></extensions>
      </trkpt>
      <trkpt lat="51.823147000" lon="7.591213000">
        <ele>58.2</ele>
        <time>2017-04-29T04:12:49</time>
        <extensions><speed>1.31</speed></extensions>
      </trkpt>
      <trkpt lat="51.823147000" lon="7.591232000">
        <ele>58.2</ele>
        <time>2017-04-29T04:12:50</time>
        <extensions><speed>1.33</speed></extensions>
      </trkpt>
      <trkpt lat="51.823143000" lon="7.591248000">
        <ele>58.1</ele>
        <time>2017-04-29T04:12:51</time>
        <extensions><speed>1.34</speed></extensions>
      </trkpt>
      <trkpt lat="51.823135000" lon="7.591265000">
        <ele>58.1</ele>
        <time>2017-04-29T04:12:52</time>
        <extensions><speed>1.34</speed></extensions>
      </trkpt>
      <trkpt lat="51.823124000" lon="7.591281000">
        <ele>58.1</ele>
        <time>2017-04-29T04:12:53</time>
        <extensions><speed>1.36</speed></extensions>
      </trkpt>
      <trkpt lat="51.823116000" lon="7.591297000">
        <ele>58.1</ele>
        <time>2017-04-29T04:12:54</time>
        <extensions><speed>1.36</speed></extensions>
      </trkpt>
      <trkpt lat="51.823112000" lon="7.591315000">
        <ele>58.1</ele>
        <time>2017-04-29T04:12:55</time>
        <extensions><speed>1.37</speed></extensions>
      </trkpt>
      <trkpt lat="51.823112000" lon="7.591333000">
        <ele>58.1</ele>
        <time>2017-04-29T04:12:56</time>
        <extensions><speed>1.38</speed></extensions>
      </trkpt>
      <trkpt lat="51.823120000" lon="7.591346000">
        <ele>58.1</ele>
        <time>2017-04-29T04:12:57</time>
        <extensions><speed>1.38</speed></extensions>
      </trkpt>
      <trkpt lat="51.823132000" lon="7.591360000">
        <ele>58.2</ele>
        <time>2017-04-29T04:12:58</time>
        <extensions><speed>1.40</speed></extensions>
      </trkpt>
      <trkpt lat="51.823143000" lon="7.591372000">
        <ele>58.2</ele>
        <time>2017-04-29T04:12:59</time>
        <extensions><speed>1.38</speed></extensions>
      </trkpt>
      <trkpt lat="51.823147000" lon="7.591383000">
        <ele>58.2</ele>
        <time>2017-04-29T04:13:00</time>
        <extensions><speed>1.34</speed></extensions>
      </trkpt>
      <trkpt lat="51.823154000" lon="7.591393000">
        <ele>58.2</ele>
        <time>2017-04-29T04:13:01</time>
        <extensions><speed>1.33</speed></extensions>
      </trkpt>
      <trkpt lat="51.823166000" lon="7.591407000">
        <ele>58.2</ele>
        <time>2017-04-29T04:13:02</time>
        <extensions><speed>1.36</speed></extensions>
      </trkpt>
      <trkpt lat="51.823177000" lon="7.591414000">
        <ele>58.2</ele>
        <time>2017-04-29T04:13:03</time>
        <extensions><speed>1.33</speed></extensions>
      </trkpt>
      <trkpt lat="51.823185000" lon="7.591414000">
        <ele>58.2</ele>
        <time>2017-04-29T04:13:04</time>
        <extensions><speed>1.34</speed></extensions>
      </trkpt>
      <trkpt lat="51.823196000" lon="7.591410000">
        <ele>58.1</ele>
        <time>2017-04-29T04:13:05</time>
        <extensions><speed>1.30</speed></extensions>
      </trkpt>
      <trkpt lat="51.823204000" lon="7.591400000">
        <ele>58.1</ele>
        <time>2017-04-29T04:13:06</time>
        <extensions><speed>1.30</speed></extensions>
      </trkpt>
      <trkpt lat="51.823212000" lon="7.591386000">
        <ele>58.1</ele>
        <time>2017-04-29T04:13:07</time>
        <extensions><speed>1.26</speed></extensions>
      </trkpt>
      <trkpt lat="51.823215000" lon="7.591369000">
        <ele>58.1</ele>
        <time>2017-04-29T04:13:08</time>
        <extensions><speed>1.34</speed></extensions>
      </trkpt>
      <trkpt lat="51.823227000" lon="7.591350000">
        <ele>58.0</ele>
        <time>2017-04-29T04:13:09</time>
        <extensions><speed>1.36</speed></extensions>
      </trkpt>
      <trkpt lat="51.823238000" lon="7.591335000">
        <ele>58.0</ele>
        <time>2017-04-29T04:13:10</time>
        <extensions><speed>1.39</speed></extensions>
      </trkpt>
      <trkpt lat="51.823246000" lon="7.591323000">
        <ele>58.0</ele>
        <time>2017-04-29T04:13:11</time>
        <extensions><speed>1.38</speed></extensions>
      </trkpt>
      <trkpt lat="51.823250000" lon="7.591307000">
        <ele>58.0</ele>
        <time>2017-04-29T04:13:12</time>
        <extensions><speed>1.43</speed></extensions>
      </trkpt>
      <trkpt lat="51.823257000" lon="7.591287000">
        <ele>58.0</ele>
        <time>2017-04-29T04:13:13</time>
        <extensions><speed>1.41</speed></extensions>
      </trkpt>
      <trkpt lat="51.823269000" lon="7.591270000">
        <ele>58.0</ele>
        <time>2017-04-29T04:13:14</time>
        <extensions><speed>1.41</speed></extensions>
      </trkpt>
      <trkpt lat="51.823277000" lon="7.591255000">
        <ele>58.0</ele>
        <time>2017-04-29T04:13:15</time>
        <extensions><speed>1.43</speed></extensions>
      </trkpt>
      <trkpt lat="51.823288000" lon="7.591243000">
        <ele>58.0</ele>
        <time>2017-04-29T04:13:16</time>
        <extensions><speed>1.44</speed></extensions>
      </trkpt>
      <trkpt lat="51.823299000" lon="7.591232000">
        <ele>58.0</ele>
        <time>2017-04-29T04:13:17</time>
        <extensions><speed>1.47</speed></extensions>
      </trkpt>
      <trkpt lat="51.823307000" lon="7.591217000">
        <ele>58.0</ele>
        <time>2017-04-29T04:13:18</time>
        <extensions><speed>1.49</speed></extensions>
      </trkpt>
      <trkpt lat="51.823315000" lon="7.591200000">
        <ele>58.0</ele>
        <time>2017-04-29T04:13:19</time>
        <extensions><speed>1.49</speed></extensions>
      </trkpt>
      <trkpt lat="51.823330000" lon="7.591187000">
        <ele>58.0</ele>
        <time>2017-04-29T04:13:20</time>
        <extensions><speed>1.49</speed></extensions>
      </trkpt>
      <trkpt lat="51.823341000" lon="7.591173000">
        <ele>58.1</ele>
        <time>2017-04-29T04:13:21</time>
        <extensions><speed>1.47</speed></extensions>
      </trkpt>
      <trkpt lat="51.823349000" lon="7.591162000">
        <ele>58.1</ele>
        <time>2017-04-29T04:13:22</time>
        <extensions><speed>1.44</speed></extensions>
      </trkpt>
      <trkpt lat="51.823360000" lon="7.591150000">
        <ele>58.1</ele>
        <time>2017-04-29T04:13:23</time>
        <extensions><speed>1.44</speed></extensions>
      </trkpt>
      <trkpt lat="51.823372000" lon="7.591140000">
        <ele>58.1</ele>
        <time>2017-04-29T04:13:24</time>
        <extensions><speed>1.42</speed></extensions>
      </trkpt>
      <trkpt lat="51.823380000" lon="7.591132000">
        <ele>58.1</ele>
        <time>2017-04-29T04:13:25</time>
        <extensions><speed>1.39</speed></extensions>
      </trkpt>
      <trkpt lat="51.823395000" lon="7.591118000">
        <ele>58.1</ele>
        <time>2017-04-29T04:13:26</time>
        <extensions><speed>1.44</speed></extensions>
      </trkpt>
      <trkpt lat="51.823406000" lon="7.591105000">
        <ele>58.1</ele>
        <time>2017-04-29T04:13:27</time>
        <extensions><speed>1.45</speed></extensions>
      </trkpt>
      <trkpt lat="51.823421000" lon="7.591095000">
        <ele>58.1</ele>
        <time>2017-04-29T04:13:28</time>
        <extensions><speed>1.42</speed></extensions>
      </trkpt>
      <trkpt lat="51.823429000" lon="7.591087000">
        <ele>58.1</ele>
        <time>2017-04-29T04:13:29</time>
        <extensions><speed>1.44</speed></extensions>
      </trkpt>
      <trkpt lat="51.823441000" lon="7.591080000">
        <ele>58.2</ele>
        <time>2017-04-29T04:13:30</time>
        <extensions><speed>1.44</speed></extensions>
      </trkpt>
      <trkpt lat="51.823448000" lon="7.591072000">
        <ele>58.2</ele>
        <time>2017-04-29T04:13:31</time>
        <extensions><speed>1.39</speed></extensions>
      </trkpt>
      <trkpt lat="51.823460000" lon="7.591063000">
        <ele>58.2</ele>
        <time>2017-04-29T04:13:32</time>
        <extensions><speed>1.40</speed></extensions>
      </trkpt>
      <trkpt lat="51.823471000" lon="7.591053000">
        <ele>58.2</ele>
        <time>2017-04-29T04:13:33</time>
        <extensions><speed>1.41</speed></extensions>
      </trkpt>
      <trkpt lat="51.823486000" lon="7.591042000">
        <ele>58.2</ele>
        <time>2017-04-29T04:13:34</time>
        <extensions><speed>1.42</speed></extensions>
      </trkpt>
      <trkpt lat="51.823498000" lon="7.591031000">
        <ele>58.2</ele>
        <time>2017-04-29T04:13:35</time>
        <extensions><speed>1.47</speed></extensions>
      </trkpt>
      <trkpt lat="51.823505000" lon="7.591020000">
        <ele>58.3</ele>
        <time>2017-04-29T04:13:36</time>
        <extensions><speed>1.47</speed></extensions>
      </trkpt>
      <trkpt lat="51.823517000" lon="7.591010000">
        <ele>58.3</ele>
        <time>2017-04-29T04:13:37</time>
        <extensions><speed>1.43</speed></extensions>
      </trkpt>
      <trkpt lat="51.823532000" lon="7.591000000">
        <ele>58.3</ele>
        <time>2017-04-29T04:13:38</time>
        <extensions><speed>1.44</speed></extensions>
      </trkpt>
      <trkpt lat="51.823540000" lon="7.590989000">
        <ele>58.3</ele>
        <time>2017-04-29T04:13:39</time>
        <extensions><speed>1.43</speed></extensions>
      </trkpt>
      <trkpt lat="51.823555000" lon="7.590980000">
        <ele>58.3</ele>
        <time>2017-04-29T04:13:40</time>
        <extensions><speed>1.41</speed></extensions>
      </trkpt>
      <trkpt lat="51.823563000" lon="7.590975000">
        <ele>58.3</ele>
        <time>2017-04-29T04:13:41</time>
        <extensions><speed>1.43</speed></extensions>
      </trkpt>
      <trkpt lat="51.823574000" lon="7.590968000">
        <ele>58.4</ele>
        <time>2017-04-29T04:13:42</time>
        <extensions><speed>1.44</speed></extensions>
      </trkpt>
      <trkpt lat="51.823586000" lon="7.590961000">
        <ele>58.4</ele>
        <time>2017-04-29T04:13:43</time>
        <extensions><speed>1.43</speed></extensions>
      </trkpt>
      <trkpt lat="51.823597000" lon="7.590950000">
        <ele>58.4</ele>
        <time>2017-04-29T04:13:44</time>
        <extensions><speed>1.43</speed></extensions>
      </trkpt>
      <trkpt lat="51.823605000" lon="7.590940000">
        <ele>58.4</ele>
        <time>2017-04-29T04:13:45</time>
        <extensions><speed>1.42</speed></extensions>
      </trkpt>
      <trkpt lat="51.823616000" lon="7.590930000">
        <ele>58.4</ele>
        <time>2017-04-29T04:13:46</time>
        <extensions><speed>1.42</speed></extensions>
      </trkpt>
      <trkpt lat="51.823627000" lon="7.590919000">
        <ele>58.5</ele>
        <time>2017-04-29T04:13:47</time>
        <extensions><speed>1.42</speed></extensions>
      </trkpt>
      <trkpt lat="51.823635000" lon="7.590907000">
        <ele>58.5</ele>
        <time>2017-04-29T04:13:48</time>
        <extensions><speed>1.40</speed></extensions>
      </trkpt>
      <trkpt lat="51.823647000" lon="7.590896000">
        <ele>58.5</ele>
        <time>2017-04-29T04:13:49</time>
        <extensions><speed>1.42</speed></extensions>
      </trkpt>
      <trkpt lat="51.823658000" lon="7.590885000">
        <ele>58.5</ele>
        <time>2017-04-29T04:13:50</time>
        <extensions><speed>1.48</speed></extensions>
      </trkpt>
      <trkpt lat="51.823669000" lon="7.590877000">
        <ele>58.5</ele>
        <time>2017-04-29T04:13:51</time>
        <extensions><speed>1.43</speed></extensions>
      </trkpt>
      <trkpt lat="51.823681000" lon="7.590868000">
        <ele>58.6</ele>
        <time>2017-04-29T04:13:52</time>
        <extensions><speed>1.36</speed></extensions>
      </trkpt>
      <trkpt lat="51.823692000" lon="7.590857000">
        <ele>58.6</ele>
        <time>2017-04-29T04:13:53</time>
        <extensions><speed>1.42</speed></extensions>
      </trkpt>
      <trkpt lat="51.823700000" lon="7.590847000">
        <ele>58.6</ele>
        <time>2017-04-29T04:13:54</time>
        <extensions><speed>1.37</speed></extensions>
      </trkpt>
      <trkpt lat="51.823711000" lon="7.590835000">
        <ele>58.6</ele>
        <time>2017-04-29T04:13:55</time>
        <extensions><speed>1.35</speed></extensions>
      </trkpt>
      <trkpt lat="51.823723000" lon="7.590825000">
        <ele>58.7</ele>
        <time>2017-04-29T04:13:56</time>
        <extensions><speed>1.40</speed></extensions>
      </trkpt>
      <trkpt lat="51.823734000" lon="7.590817000">
        <ele>58.7</ele>
        <time>2017-04-29T04:13:57</time>
        <extensions><speed>1.40</speed></extensions>
      </trkpt>
      <trkpt lat="51.823746000" lon="7.590805000">
        <ele>58.7</ele>
        <time>2017-04-29T04:13:58</time>
        <extensions><speed>1.38</speed></extensions>
      </trkpt>
      <trkpt lat="51.823757000" lon="7.590793000">
        <ele>58.8</ele>
        <time>2017-04-29T04:13:59</time>
        <extensions><speed>1.42</speed></extensions>
      </trkpt>
      <trkpt lat="51.823765000" lon="7.590784000">
        <ele>58.8</ele>
        <time>2017-04-29T04:14:00</time>
        <extensions><speed>1.39</speed></extensions>
      </trkpt>
      <trkpt lat="51.823776000" lon="7.590774000">
        <ele>58.8</ele>
        <time>2017-04-29T04:14:01</time>
        <extensions><speed>1.39</speed></extensions>
      </trkpt>
      <trkpt lat="51.823792000" lon="7.590763000">
        <ele>58.8</ele>
        <time>2017-04-29T04:14:02</time>
        <extensions><speed>1.45</speed></extensions>
      </trkpt>
      <trkpt lat="51.823799000" lon="7.590755000">
        <ele>58.9</ele>
        <time>2017-04-29T04:14:03</time>
        <extensions><speed>1.43</speed></extensions>
      </trkpt>
      <trkpt lat="51.823811000" lon="7.590747000">
        <ele>58.9</ele>
        <time>2017-04-29T04:14:04</time>
        <extensions><speed>1.39</speed></extensions>
      </trkpt>
      <trkpt lat="51.823822000" lon="7.590737000">
        <ele>58.9</ele>
        <time>2017-04-29T04:14:05</time>
        <extensions><speed>1.43</speed></extensions>
      </trkpt>
      <trkpt lat="51.823830000" lon="7.590726000">
        <ele>59.0</ele>
        <time>2017-04-29T04:14:06</time>
        <extensions><speed>1.41</speed></extensions>
      </trkpt>
      <trkpt lat="51.823841000" lon="7.590717000">
        <ele>59.0</ele>
        <time>2017-04-29T04:14:07</time>
        <extensions><speed>1.41</speed></extensions>
      </trkpt>
      <trkpt lat="51.823856000" lon="7.590705000">
        <ele>59.0</ele>
        <time>2017-04-29T04:14:08</time>
        <extensions><speed>1.44</speed></extensions>
      </trkpt>
      <trkpt lat="51.823864000" lon="7.590693000">
        <ele>59.1</ele>
        <time>2017-04-29T04:14:09</time>
        <extensions><speed>1.44</speed></extensions>
      </trkpt>
      <trkpt lat="51.823875000" lon="7.590684000">
        <ele>59.1</ele>
        <time>2017-04-29T04:14:10</time>
        <extensions><speed>1.42</speed></extensions>
      </trkpt>
      <trkpt lat="51.823887000" lon="7.590675000">
        <ele>59.1</ele>
        <time>2017-04-29T04:14:11</time>
        <extensions><speed>1.40</speed></extensions>
      </trkpt>
      <trkpt lat="51.823898000" lon="7.590667000">
        <ele>59.1</ele>
        <time>2017-04-29T04:14:12</time>
        <extensions><speed>1.37</speed></extensions>
      </trkpt>
      <trkpt lat="51.823906000" lon="7.590656000">
        <ele>59.2</ele>
        <time>2017-04-29T04:14:13</time>
        <extensions><speed>1.37</speed></extensions>
      </trkpt>
      <trkpt lat="51.823921000" lon="7.590647000">
        <ele>59.2</ele>
        <time>2017-04-29T04:14:14</time>
        <extensions><speed>1.36</speed></extensions>
      </trkpt>
      <trkpt lat="51.823929000" lon="7.590639000">
        <ele>59.3</ele>
        <time>2017-04-29T04:14:15</time>
        <extensions><speed>1.33</speed></extensions>
      </trkpt>
      <trkpt lat="51.823940000" lon="7.590627000">
        <ele>59.3</ele>
        <time>2017-04-29T04:14:16</time>
        <extensions><speed>1.38</speed></extensions>
      </trkpt>
      <trkpt lat="51.823952000" lon="7.590613000">
        <ele>59.4</ele>
        <time>2017-04-29T04:14:17</time>
        <extensions><speed>1.38</speed></extensions>
      </trkpt>
      <trkpt lat="51.823963000" lon="7.590600000">
        <ele>59.5</ele>
        <time>2017-04-29T04:14:18</time>
        <extensions><speed>1.43</speed></extensions>
      </trkpt>
      <trkpt lat="51.823971000" lon="7.590587000">
        <ele>59.6</ele>
        <time>2017-04-29T04:14:19</time>
        <extensions><speed>1.50</speed></extensions>
      </trkpt>
      <trkpt lat="51.823982000" lon="7.590574000">
        <ele>59.7</ele>
        <time>2017-04-29T04:14:20</time>
        <extensions><speed>1.50</speed></extensions>
      </trkpt>
      <trkpt lat="51.823990000" lon="7.590558000">
        <ele>59.8</ele>
        <time>2017-04-29T04:14:21</time>
        <extensions><speed>1.47</speed></extensions>
      </trkpt>
      <trkpt lat="51.823997000" lon="7.590544000">
        <ele>59.8</ele>
        <time>2017-04-29T04:14:22</time>
        <extensions><speed>1.48</speed></extensions>
      </trkpt>
      <trkpt lat="51.824009000" lon="7.590528000">
        <ele>60.0</ele>
        <time>2017-04-29T04:14:23</time>
        <extensions><speed>1.45</speed></extensions>
      </trkpt>
      <trkpt lat="51.824020000" lon="7.590515000">
        <ele>60.1</ele>
        <time>2017-04-29T04:14:24</time>
        <extensions><speed>1.45</speed></extensions>
      </trkpt>
      <trkpt lat="51.824028000" lon="7.590502000">
        <ele>60.2</ele>
        <time>2017-04-29T04:14:25</time>
        <extensions><speed>1.46</speed></extensions>
      </trkpt>
      <trkpt lat="51.824039000" lon="7.590487000">
        <ele>60.3</ele>
        <time>2017-04-29T04:14:26</time>
        <extensions><speed>1.44</speed></extensions>
      </trkpt>
      <trkpt lat="51.824047000" lon="7.590468000">
        <ele>60.5</ele>
        <time>2017-04-29T04:14:27</time>
        <extensions><speed>1.43</speed></extensions>
      </trkpt>
      <trkpt lat="51.824051000" lon="7.590452000">
        <ele>60.6</ele>
        <time>2017-04-29T04:14:28</time>
        <extensions><speed>1.41</speed></extensions>
      </trkpt>
      <trkpt lat="51.824059000" lon="7.590432000">
        <ele>60.7</ele>
        <time>2017-04-29T04:14:29</time>
        <extensions><speed>1.40</speed></extensions>
      </trkpt>
      <trkpt lat="51.824062000" lon="7.590411000">
        <ele>60.8</ele>
        <time>2017-04-29T04:14:30</time>
        <extensions><speed>1.40</speed></extensions>
      </trkpt>
      <trkpt lat="51.824066000" lon="7.590392000">
        <ele>60.9</ele>
        <time>2017-04-29T04:14:31</time>
        <extensions><speed>1.42</speed></extensions>
      </trkpt>
      <trkpt lat="51.824070000" lon="7.590371000">
        <ele>61.0</ele>
        <time>2017-04-29T04:14:32</time>
        <extensions><speed>1.43</speed></extensions>
      </trkpt>
      <trkpt lat="51.824074000" lon="7.590352000">
        <ele>61.1</ele>
        <time>2017-04-29T04:14:33</time>
        <extensions><speed>1.44</speed></extensions>
      </trkpt>
      <trkpt lat="51.824078000" lon="7.590334000">
        <ele>61.2</ele>
        <time>2017-04-29T04:14:34</time>
        <extensions><speed>1.44</speed></extensions>
      </trkpt>
      <trkpt lat="51.824081000" lon="7.590315000">
        <ele>61.3</ele>
        <time>2017-04-29T04:14:35</time>
        <extensions><speed>1.40</speed></extensions>
      </trkpt>
      <trkpt lat="51.824085000" lon="7.590297000">
        <ele>61.3</ele>
        <time>2017-04-29T04:14:36</time>
        <extensions><speed>1.40</speed></extensions>
      </trkpt>
      <trkpt lat="51.824089000" lon="7.590278000">
        <ele>61.4</ele>
        <time>2017-04-29T04:14:37</time>
        <extensions><speed>1.34</speed></extensions>
      </trkpt>
      <trkpt lat="51.824093000" lon="7.590262000">
        <ele>61.5</ele>
        <time>2017-04-29T04:14:38</time>
        <extensions><speed>1.32</speed></extensions>
      </trkpt>
      <trkpt lat="51.824097000" lon="7.590241000">
        <ele>61.5</ele>
        <time>2017-04-29T04:14:39</time>
        <extensions><speed>1.36</speed></extensions>
      </trkpt>
      <trkpt lat="51.824100000" lon="7.590224000">
        <ele>61.6</ele>
        <time>2017-04-29T04:14:40</time>
        <extensions><speed>1.35</speed></extensions>
      </trkpt>
      <trkpt lat="51.824104000" lon="7.590205000">
        <ele>61.6</ele>
        <time>2017-04-29T04:14:41</time>
        <extensions><speed>1.35</speed></extensions>
      </trkpt>
      <trkpt lat="51.824108000" lon="7.590185000">
        <ele>61.7</ele>
        <time>2017-04-29T04:14:42</time>
        <extensions><speed>1.40</speed></extensions>
      </trkpt>
      <trkpt lat="51.824112000" lon="7.590161000">
        <ele>61.7</ele>
        <time>2017-04-29T04:14:43</time>
        <extensions><speed>1.44</speed></extensions>
      </trkpt>
      <trkpt lat="51.824116000" lon="7.590147000">
        <ele>61.8</ele>
        <time>2017-04-29T04:14:44</time>
        <extensions><speed>1.41</speed></extensions>
      </trkpt>
      <trkpt lat="51.824116000" lon="7.590135000">
        <ele>61.8</ele>
        <time>2017-04-29T04:14:45</time>
        <extensions><speed>1.38</speed></extensions>
      </trkpt>
      <trkpt lat="51.824123000" lon="7.590124000">
        <ele>61.9</ele>
        <time>2017-04-29T04:14:46</time>
        <extensions><speed>1.37</speed></extensions>
      </trkpt>
      <trkpt lat="51.824135000" lon="7.590115000">
        <ele>61.9</ele>
        <time>2017-04-29T04:14:47</time>
        <extensions><speed>1.34</speed></extensions>
      </trkpt>
      <trkpt lat="51.824146000" lon="7.590112000">
        <ele>62.0</ele>
        <time>2017-04-29T04:14:48</time>
        <extensions><speed>1.34</speed></extensions>
      </trkpt>
      <trkpt lat="51.824158000" lon="7.590112000">
        <ele>62.0</ele>
        <time>2017-04-29T04:14:49</time>
        <extensions><speed>1.41</speed></extensions>
      </trkpt>
      <trkpt lat="51.824173000" lon="7.590115000">
        <ele>62.1</ele>
        <time>2017-04-29T04:14:50</time>
        <extensions><speed>1.44</speed></extensions>
      </trkpt>
      <trkpt lat="51.824188000" lon="7.590114000">
        <ele>62.1</ele>
        <time>2017-04-29T04:14:51</time>
        <extensions><speed>1.43</speed></extensions>
      </trkpt>
      <trkpt lat="51.824200000" lon="7.590114000">
        <ele>62.2</ele>
        <time>2017-04-29T04:14:52</time>
        <extensions><speed>1.44</speed></extensions>
      </trkpt>
      <trkpt lat="51.824211000" lon="7.590120000">
        <ele>62.3</ele>
        <time>2017-04-29T04:14:53</time>
        <extensions><speed>1.42</speed></extensions>
      </trkpt>
      <trkpt lat="51.824223000" lon="7.590126000">
        <ele>62.4</ele>
        <time>2017-04-29T04:14:54</time>
        <extensions><speed>1.42</speed></extensions>
      </trkpt>
      <trkpt lat="51.824238000" lon="7.590131000">
        <ele>62.5</ele>
        <time>2017-04-29T04:14:55</time>
        <extensions><speed>1.40</speed></extensions>
      </trkpt>
      <trkpt lat="51.824249000" lon="7.590137000">
        <ele>62.6</ele>
        <time>2017-04-29T04:14:56</time>
        <extensions><speed>1.39</speed></extensions>
      </trkpt>
      <trkpt lat="51.824257000" lon="7.590143000">
        <ele>62.7</ele>
        <time>2017-04-29T04:14:57</time>
        <extensions><speed>1.38</speed></extensions>
      </trkpt>
      <trkpt lat="51.824268000" lon="7.590145000">
        <ele>62.8</ele>
        <time>2017-04-29T04:14:58</time>
        <extensions><speed>1.37</speed></extensions>
      </trkpt>
      <trkpt lat="51.824280000" lon="7.590148000">
        <ele>62.9</ele>
        <time>2017-04-29T04:14:59</time>
        <extensions><speed>1.37</speed></extensions>
      </trkpt>
      <trkpt lat="51.824287000" lon="7.590157000">
        <ele>63.0</ele>
        <time>2017-04-29T04:15:00</time>
        <extensions><speed>1.39</speed></extensions>
      </trkpt>
      <trkpt lat="51.824299000" lon="7.590167000">
        <ele>63.1</ele>
        <time>2017-04-29T04:15:01</time>
        <extensions><speed>1.39</speed></extensions>
      </trkpt>
      <trkpt lat="51.824314000" lon="7.590177000">
        <ele>63.2</ele>
        <time>2017-04-29T04:15:02</time>
        <extensions><speed>1.40</speed></extensions>
      </trkpt>
      <trkpt lat="51.824322000" lon="7.590183000">
        <ele>63.3</ele>
        <time>2017-04-29T04:15:03</time>
        <extensions><speed>1.41</speed></extensions>
      </trkpt>
      <trkpt lat="51.824333000" lon="7.590190000">
        <ele>63.4</ele>
        <time>2017-04-29T04:15:04</time>
        <extensions><speed>1.41</speed></extensions>
      </trkpt>
      <trkpt lat="51.824345000" lon="7.590199000">
        <ele>63.5</ele>
        <time>2017-04-29T04:15:05</time>
        <extensions><speed>1.39</speed></extensions>
      </trkpt>
      <trkpt lat="51.824352000" lon="7.590215000">
        <ele>63.6</ele>
        <time>2017-04-29T04:15:06</time>
        <extensions><speed>1.39</speed></extensions>
      </trkpt>
      <trkpt lat="51.824360000" lon="7.590227000">
        <ele>63.7</ele>
        <time>2017-04-29T04:15:07</time>
        <extensions><speed>1.38</speed></extensions>
      </trkpt>
      <trkpt lat="51.824368000" lon="7.590241000">
        <ele>63.8</ele>
        <time>2017-04-29T04:15:08</time>
        <extensions><speed>1.38</speed></extensions>
      </trkpt>
      <trkpt lat="51.824379000" lon="7.590262000">
        <ele>63.9</ele>
        <time>2017-04-29T04:15:09</time>
        <extensions><speed>1.40</speed></extensions>
      </trkpt>
      <trkpt lat="51.824387000" lon="7.590280000">
        <ele>64.0</ele>
        <time>2017-04-29T04:15:10</time>
        <extensions><speed>1.44</speed></extensions>
      </trkpt>
      <trkpt lat="51.824398000" lon="7.590297000">
        <ele>64.0</ele>
        <time>2017-04-29T04:15:11</time>
        <extensions><speed>1.47</speed></extensions>
      </trkpt>
      <trkpt lat="51.824406000" lon="7.590310000">
        <ele>64.1</ele>
        <time>2017-04-29T04:15:12</time>
        <extensions><speed>1.47</speed></extensions>
      </trkpt>
      <trkpt lat="51.824413000" lon="7.590329000">
        <ele>64.2</ele>
        <time>2017-04-29T04:15:13</time>
        <extensions><speed>1.45</speed></extensions>
      </trkpt>
      <trkpt lat="51.824417000" lon="7.590348000">
        <ele>64.3</ele>
        <time>2017-04-29T04:15:14</time>
        <extensions><speed>1.42</speed></extensions>
      </trkpt>
      <trkpt lat="51.824417000" lon="7.590364000">
        <ele>64.3</ele>
        <time>2017-04-29T04:15:15</time>
        <extensions><speed>1.39</speed></extensions>
      </trkpt>
      <trkpt lat="51.824421000" lon="7.590378000">
        <ele>64.4</ele>
        <time>2017-04-29T04:15:16</time>
        <extensions><speed>1.38</speed></extensions>
      </trkpt>
      <trkpt lat="51.824432000" lon="7.590404000">
        <ele>64.5</ele>
        <time>2017-04-29T04:15:17</time>
        <extensions><speed>1.39</speed></extensions>
      </trkpt>
      <trkpt lat="51.824440000" lon="7.590425000">
        <ele>64.5</ele>
        <time>2017-04-29T04:15:18</time>
        <extensions><speed>1.36</speed></extensions>
      </trkpt>
      <trkpt lat="51.824444000" lon="7.590443000">
        <ele>64.6</ele>
        <time>2017-04-29T04:15:19</time>
        <extensions><speed>1.38</speed></extensions>
      </trkpt>
      <trkpt lat="51.824448000" lon="7.590462000">
        <ele>64.6</ele>
        <time>2017-04-29T04:15:20</time>
        <extensions><speed>1.41</speed></extensions>
      </trkpt>
      <trkpt lat="51.824451000" lon="7.590478000">
        <ele>64.7</ele>
        <time>2017-04-29T04:15:21</time>
        <extensions><speed>1.42</speed></extensions>
      </trkpt>
      <trkpt lat="51.824459000" lon="7.590493000">
        <ele>64.7</ele>
        <time>2017-04-29T04:15:22</time>
        <extensions><speed>1.37</speed></extensions>
      </trkpt>
      <trkpt lat="51.824463000" lon="7.590509000">
        <ele>64.7</ele>
        <time>2017-04-29T04:15:23</time>
        <extensions><speed>1.38</speed></extensions>
      </trkpt>
      <trkpt lat="51.824467000" lon="7.590523000">
        <ele>64.7</ele>
        <time>2017-04-29T04:15:24</time>
        <extensions><speed>1.34</speed></extensions>
      </trkpt>
      <trkpt lat="51.824474000" lon="7.590537000">
        <ele>64.8</ele>
        <time>2017-04-29T04:15:25</time>
        <extensions><speed>1.36</speed></extensions>
      </trkpt>
      <trkpt lat="51.824482000" lon="7.590550000">
        <ele>64.8</ele>
        <time>2017-04-29T04:15:26</time>
        <extensions><speed>1.37</speed></extensions>
      </trkpt>
      <trkpt lat="51.824482000" lon="7.590565000">
        <ele>64.9</ele>
        <time>2017-04-29T04:15:27</time>
        <extensions><speed>1.37</speed></extensions>
      </trkpt>
      <trkpt lat="51.824486000" lon="7.590583000">
        <ele>64.9</ele>
        <time>2017-04-29T04:15:28</time>
        <extensions><speed>1.41</speed></extensions>
      </trkpt>
      <trkpt lat="51.824493000" lon="7.590597000">
        <ele>65.0</ele>
        <time>2017-04-29T04:15:29</time>
        <extensions><speed>1.42</speed></extensions>
      </trkpt>
      <trkpt lat="51.824501000" lon="7.590611000">
        <ele>65.1</ele>
        <time>2017-04-29T04:15:30</time>
        <extensions><speed>1.39</speed></extensions>
      </trkpt>
      <trkpt lat="51.824509000" lon="7.590628000">
        <ele>65.1</ele>
        <time>2017-04-29T04:15:31</time>
        <extensions><speed>1.34</speed></extensions>
      </trkpt>
      <trkpt lat="51.824509000" lon="7.590647000">
        <ele>65.2</ele>
        <time>2017-04-29T04:15:32</time>
        <extensions><speed>1.38</speed></extensions>
      </trkpt>
      <trkpt lat="51.824512000" lon="7.590665000">
        <ele>65.2</ele>
        <time>2017-04-29T04:15:33</time>
        <extensions><speed>1.34</speed></extensions>
      </trkpt>
      <trkpt lat="51.824516000" lon="7.590681000">
        <ele>65.3</ele>
        <time>2017-04-29T04:15:34</time>
        <extensions><speed>1.32</speed></extensions>
      </trkpt>
      <trkpt lat="51.824524000" lon="7.590695000">
        <ele>65.3</ele>
        <time>2017-04-29T04:15:35</time>
        <extensions><speed>1.29</speed></extensions>
      </trkpt>
      <trkpt lat="51.824532000" lon="7.590710000">
        <ele>65.3</ele>
        <time>2017-04-29T04:15:36</time>
        <extensions><speed>1.33</speed></extensions>
      </trkpt>
      <trkpt lat="51.824535000" lon="7.590720000">
        <ele>65.4</ele>
        <time>2017-04-29T04:15:37</time>
        <extensions><speed>1.33</speed></extensions>
      </trkpt>
      <trkpt lat="51.824547000" lon="7.590735000">
        <ele>65.4</ele>
        <time>2017-04-29T04:15:38</time>
        <extensions><speed>1.37</speed></extensions>
      </trkpt>
      <trkpt lat="51.824547000" lon="7.590755000">
        <ele>65.5</ele>
        <time>2017-04-29T04:15:39</time>
        <extensions><speed>1.42</speed></extensions>
      </trkpt>
      <trkpt lat="51.824551000" lon="7.590780000">
        <ele>65.5</ele>
        <time>2017-04-29T04:15:40</time>
        <extensions><speed>1.42</speed></extensions>
      </trkpt>
      <trkpt lat="51.824558000" lon="7.590805000">
        <ele>65.6</ele>
        <time>2017-04-29T04:15:41</time>
        <extensions><speed>1.44</speed></extensions>
      </trkpt>
      <trkpt lat="51.824570000" lon="7.590825000">
        <ele>65.6</ele>
        <time>2017-04-29T04:15:42</time>
        <extensions><speed>1.42</speed></extensions>
      </trkpt>
      <trkpt lat="51.824574000" lon="7.590842000">
        <ele>65.7</ele>
        <time>2017-04-29T04:15:43</time>
        <extensions><speed>1.42</speed></extensions>
      </trkpt>
      <trkpt lat="51.824581000" lon="7.590856000">
        <ele>65.8</ele>
        <time>2017-04-29T04:15:44</time>
        <extensions><speed>1.40</speed></extensions>
      </trkpt>
      <trkpt lat="51.824585000" lon="7.590868000">
        <ele>65.8</ele>
        <time>2017-04-29T04:15:45</time>
        <extensions><speed>1.37</speed></extensions>
      </trkpt>
      <trkpt lat="51.824596000" lon="7.590885000">
        <ele>65.9</ele>
        <time>2017-04-29T04:15:46</time>
        <extensions><speed>1.36</speed></extensions>
      </trkpt>
      <trkpt lat="51.824604000" lon="7.590896000">
        <ele>65.9</ele>
        <time>2017-04-29T04:15:47</time>
        <extensions><speed>1.37</speed></extensions>
      </trkpt>
      <trkpt lat="51.824608000" lon="7.590913000">
        <ele>66.0</ele>
        <time>2017-04-29T04:15:48</time>
        <extensions><speed>1.37</speed></extensions>
      </trkpt>
      <trkpt lat="51.824612000" lon="7.590926000">
        <ele>66.1</ele>
        <time>2017-04-29T04:15:49</time>
        <extensions><speed>1.36</speed></extensions>
      </trkpt>
      <trkpt lat="51.824619000" lon="7.590935000">
        <ele>66.1</ele>
        <time>2017-04-29T04:15:50</time>
        <extensions><speed>1.35</speed></extensions>
      </trkpt>
      <trkpt lat="51.824627000" lon="7.590950000">
        <ele>66.2</ele>
        <time>2017-04-29T04:15:51</time>
        <extensions><speed>1.33</speed></extensions>
      </trkpt>
      <trkpt lat="51.824642000" lon="7.590961000">
        <ele>66.2</ele>
        <time>2017-04-29T04:15:52</time>
        <extensions><speed>1.29</speed></extensions>
      </trkpt>
      <trkpt lat="51.824650000" lon="7.590966000">
        <ele>66.2</ele>
        <time>2017-04-29T04:15:53</time>
        <extensions><speed>1.24</speed></extensions>
      </trkpt>
      <trkpt lat="51.824657000" lon="7.590963000">
        <ele>66.3</ele>
        <time>2017-04-29T04:15:54</time>
        <extensions><speed>1.24</speed></extensions>
      </trkpt>
      <trkpt lat="51.824665000" lon="7.590963000">
        <ele>66.4</ele>
        <time>2017-04-29T04:15:55</time>
      </trkpt>
      <trkpt lat="51.824673000" lon="7.590961000">
        <ele>66.5</ele>
        <time>2017-04-29T04:15:57</time>
        <extensions><speed>1.02</speed></extensions>
      </trkpt>
      <trkpt lat="51.824680000" lon="7.590961000">
        <ele>66.5</ele>
        <time>2017-04-29T04:15:58</time>
        <extensions><speed>1.02</speed></extensions>
      </trkpt>
      <trkpt lat="51.824692000" lon="7.590961000">
        <ele>66.6</ele>
        <time>2017-04-29T04:15:59</time>
        <extensions><speed>0.93</speed></extensions>
      </trkpt>
      <trkpt lat="51.824699000" lon="7.590961000">
        <ele>66.6</ele>
        <time>2017-04-29T04:16:00</time>
        <extensions><speed>0.93</speed></extensions>
      </trkpt>
      <trkpt lat="51.824711000" lon="7.590961000">
        <ele>66.7</ele>
        <time>2017-04-29T04:16:01</time>
        <extensions><speed>1.02</speed></extensions>
      </trkpt>
      <trkpt lat="51.824722000" lon="7.590950000">
        <ele>66.8</ele>
        <time>2017-04-29T04:16:02</time>
        <extensions><speed>1.10</speed></extensions>
      </trkpt>
      <trkpt lat="51.824734000" lon="7.590941000">
        <ele>66.8</ele>
        <time>2017-04-29T04:16:03</time>
        <extensions><speed>1.10</speed></extensions>
      </trkpt>
      <trkpt lat="51.824745000" lon="7.590938000">
        <ele>66.9</ele>
        <time>2017-04-29T04:16:04</time>
        <extensions><speed>1.20</speed></extensions>
      </trkpt>
      <trkpt lat="51.824753000" lon="7.590931000">
        <ele>67.0</ele>
        <time>2017-04-29T04:16:05</time>
        <extensions><speed>1.27</speed></extensions>
      </trkpt>
      <trkpt lat="51.824764000" lon="7.590924000">
        <ele>67.1</ele>
        <time>2017-04-29T04:16:06</time>
        <extensions><speed>1.29</speed></extensions>
      </trkpt>
      <trkpt lat="51.824776000" lon="7.590915000">
        <ele>67.2</ele>
        <time>2017-04-29T04:16:07</time>
        <extensions><speed>1.31</speed></extensions>
      </trkpt>
      <trkpt lat="51.824783000" lon="7.590909000">
        <ele>67.3</ele>
        <time>2017-04-29T04:16:08</time>
        <extensions><speed>1.33</speed></extensions>
      </trkpt>
      <trkpt lat="51.824799000" lon="7.590901000">
        <ele>67.4</ele>
        <time>2017-04-29T04:16:09</time>
        <extensions><speed>1.35</speed></extensions>
      </trkpt>
      <trkpt lat="51.824810000" lon="7.590901000">
        <ele>67.5</ele>
        <time>2017-04-29T04:16:10</time>
        <extensions><speed>1.38</speed></extensions>
      </trkpt>
      <trkpt lat="51.824818000" lon="7.590901000">
        <ele>67.6</ele>
        <time>2017-04-29T04:16:11</time>
        <extensions><speed>1.38</speed></extensions>
      </trkpt>
      <trkpt lat="51.824829000" lon="7.590903000">
        <ele>67.7</ele>
        <time>2017-04-29T04:16:12</time>
        <extensions><speed>1.36</speed></extensions>
      </trkpt>
      <trkpt lat="51.824841000" lon="7.590903000">
        <ele>67.8</ele>
        <time>2017-04-29T04:16:13</time>
        <extensions><speed>1.33</speed></extensions>
      </trkpt>
      <trkpt lat="51.824848000" lon="7.590901000">
        <ele>67.9</ele>
        <time>2017-04-29T04:16:14</time>
        <extensions><speed>1.29</speed></extensions>
      </trkpt>
      <trkpt lat="51.824863000" lon="7.590898000">
        <ele>68.0</ele>
        <time>2017-04-29T04:16:15</time>
        <extensions><speed>1.26</speed></extensions>
      </trkpt>
      <trkpt lat="51.824875000" lon="7.590895000">
        <ele>68.1</ele>
        <time>2017-04-29T04:16:16</time>
        <extensions><speed>1.26</speed></extensions>
      </trkpt>
      <trkpt lat="51.824886000" lon="7.590893000">
        <ele>68.2</ele>
        <time>2017-04-29T04:16:17</time>
        <extensions><speed>1.29</speed></extensions>
      </trkpt>
      <trkpt lat="51.824902000" lon="7.590890000">
        <ele>68.3</ele>
        <time>2017-04-29T04:16:18</time>
        <extensions><speed>1.31</speed></extensions>
      </trkpt>
      <trkpt lat="51.824909000" lon="7.590885000">
        <ele>68.4</ele>
        <time>2017-04-29T04:16:19</time>
        <extensions><speed>1.35</speed></extensions>
      </trkpt>
      <trkpt lat="51.824921000" lon="7.590882000">
        <ele>68.5</ele>
        <time>2017-04-29T04:16:20</time>
        <extensions><speed>1.38</speed></extensions>
      </trkpt>
      <trkpt lat="51.824936000" lon="7.590878000">
        <ele>68.6</ele>
        <time>2017-04-29T04:16:21</time>
        <extensions><speed>1.35</speed></extensions>
      </trkpt>
      <trkpt lat="51.824944000" lon="7.590878000">
        <ele>68.7</ele>
        <time>2017-04-29T04:16:22</time>
        <extensions><speed>1.34</speed></extensions>
      </trkpt>
      <trkpt lat="51.824955000" lon="7.590880000">
        <ele>68.8</ele>
        <time>2017-04-29T04:16:23</time>
        <extensions><speed>1.36</speed></extensions>
      </trkpt>
      <trkpt lat="51.824970000" lon="7.590878000">
        <ele>68.9</ele>
        <time>2017-04-29T04:16:24</time>
        <extensions><speed>1.32</speed></extensions>
      </trkpt>
      <trkpt lat="51.824978000" lon="7.590875000">
        <ele>69.0</ele>
        <time>2017-04-29T04:16:25</time>
        <extensions><speed>1.31</speed></extensions>
      </trkpt>
      <trkpt lat="51.824993000" lon="7.590873000">
        <ele>69.1</ele>
        <time>2017-04-29T04:16:26</time>
        <extensions><speed>1.33</speed></extensions>
      </trkpt>
      <trkpt lat="51.825005000" lon="7.590872000">
        <ele>69.2</ele>
        <time>2017-04-29T04:16:27</time>
        <extensions><speed>1.37</speed></extensions>
      </trkpt>
      <trkpt lat="51.825016000" lon="7.590867000">
        <ele>69.3</ele>
        <time>2017-04-29T04:16:28</time>
        <extensions><speed>1.36</speed></extensions>
      </trkpt>
      <trkpt lat="51.825027000" lon="7.590863000">
        <ele>69.4</ele>
        <time>2017-04-29T04:16:29</time>
        <extensions><speed>1.40</speed></extensions>
      </trkpt>
      <trkpt lat="51.825039000" lon="7.590858000">
        <ele>69.4</ele>
        <time>2017-04-29T04:16:30</time>
        <extensions><speed>1.40</speed></extensions>
      </trkpt>
      <trkpt lat="51.825050000" lon="7.590856000">
        <ele>69.5</ele>
        <time>2017-04-29T04:16:31</time>
        <extensions><speed>1.37</speed></extensions>
      </trkpt>
      <trkpt lat="51.825062000" lon="7.590854000">
        <ele>69.6</ele>
        <time>2017-04-29T04:16:32</time>
        <extensions><speed>1.35</speed></extensions>
      </trkpt>
      <trkpt lat="51.825073000" lon="7.590854000">
        <ele>69.8</ele>
        <time>2017-04-29T04:16:33</time>
        <extensions><speed>1.40</speed></extensions>
      </trkpt>
      <trkpt lat="51.825085000" lon="7.590854000">
        <ele>69.9</ele>
        <time>2017-04-29T04:16:34</time>
        <extensions><speed>1.41</speed></extensions>
      </trkpt>
      <trkpt lat="51.825096000" lon="7.590850000">
        <ele>70.0</ele>
        <time>2017-04-29T04:16:35</time>
        <extensions><speed>1.44</speed></extensions>
      </trkpt>
      <trkpt lat="51.825108000" lon="7.590845000">
        <ele>70.1</ele>
        <time>2017-04-29T04:16:36</time>
        <extensions><speed>1.44</speed></extensions>
      </trkpt>
      <trkpt lat="51.825119000" lon="7.590837000">
        <ele>70.2</ele>
        <time>2017-04-29T04:16:37</time>
        <extensions><speed>1.46</speed></extensions>
      </trkpt>
      <trkpt lat="51.825134000" lon="7.590830000">
        <ele>70.3</ele>
        <time>2017-04-29T04:16:38</time>
        <extensions><speed>1.42</speed></extensions>
      </trkpt>
      <trkpt lat="51.825142000" lon="7.590827000">
        <ele>70.4</ele>
        <time>2017-04-29T04:16:39</time>
        <extensions><speed>1.40</speed></extensions>
      </trkpt>
      <trkpt lat="51.825150000" lon="7.590825000">
        <ele>70.5</ele>
        <time>2017-04-29T04:16:40</time>
        <extensions><speed>1.35</speed></extensions>
      </trkpt>
      <trkpt lat="51.825161000" lon="7.590827000">
        <ele>70.6</ele>
        <time>2017-04-29T04:16:41</time>
        <extensions><speed>1.34</speed></extensions>
      </trkpt>
      <trkpt lat="51.825172000" lon="7.590823000">
        <ele>70.7</ele>
        <time>2017-04-29T04:16:42</time>
        <extensions><speed>1.34</speed></extensions>
      </trkpt>
      <trkpt lat="51.825188000" lon="7.590819000">
        <ele>70.8</ele>
        <time>2017-04-29T04:16:43</time>
        <extensions><speed>1.33</speed></extensions>
      </trkpt>
      <trkpt lat="51.825199000" lon="7.590812000">
        <ele>70.9</ele>
        <time>2017-04-29T04:16:44</time>
        <extensions><speed>1.40</speed></extensions>
      </trkpt>
      <trkpt lat="51.825214000" lon="7.590806000">
        <ele>71.0</ele>
        <time>2017-04-29T04:16:45</time>
        <extensions><speed>1.43</speed></extensions>
      </trkpt>
      <trkpt lat="51.825230000" lon="7.590805000">
        <ele>71.1</ele>
        <time>2017-04-29T04:16:46</time>
        <extensions><speed>1.43</speed></extensions>
      </trkpt>
      <trkpt lat="51.825241000" lon="7.590798000">
        <ele>71.2</ele>
        <time>2017-04-29T04:16:47</time>
        <extensions><speed>1.42</speed></extensions>
      </trkpt>
      <trkpt lat="51.825256000" lon="7.590798000">
        <ele>71.3</ele>
        <time>2017-04-29T04:16:48</time>
        <extensions><speed>1.43</speed></extensions>
      </trkpt>
      <trkpt lat="51.825268000" lon="7.590795000">
        <ele>71.4</ele>
        <time>2017-04-29T04:16:49</time>
        <extensions><speed>1.43</speed></extensions>
      </trkpt>
      <trkpt lat="51.825283000" lon="7.590790000">
        <ele>71.5</ele>
        <time>2017-04-29T04:16:50</time>
        <extensions><speed>1.41</speed></extensions>
      </trkpt>
      <trkpt lat="51.825294000" lon="7.590786000">
        <ele>71.6</ele>
        <time>2017-04-29T04:16:51</time>
        <extensions><speed>1.44</speed></extensions>
      </trkpt>
      <trkpt lat="51.825302000" lon="7.590778000">
        <ele>71.7</ele>
        <time>2017-04-29T04:16:52</time>
        <extensions><speed>1.43</speed></extensions>
      </trkpt>
      <trkpt lat="51.825317000" lon="7.590775000">
        <ele>71.8</ele>
        <time>2017-04-29T04:16:53</time>
        <extensions><speed>1.47</speed></extensions>
      </trkpt>
      <trkpt lat="51.825329000" lon="7.590772000">
        <ele>71.9</ele>
        <time>2017-04-29T04:16:54</time>
        <extensions><speed>1.42</speed></extensions>
      </trkpt>
      <trkpt lat="51.825336000" lon="7.590766000">
        <ele>71.9</ele>
        <time>2017-04-29T04:16:55</time>
        <extensions><speed>1.42</speed></extensions>
      </trkpt>
      <trkpt lat="51.825348000" lon="7.590763000">
        <ele>72.0</ele>
        <time>2017-04-29T04:16:56</time>
        <extensions><speed>1.32</speed></extensions>
      </trkpt>
      <trkpt lat="51.825363000" lon="7.590762000">
        <ele>72.0</ele>
        <time>2017-04-29T04:16:57</time>
        <extensions><speed>1.29</speed></extensions>
      </trkpt>
      <trkpt lat="51.825371000" lon="7.590758000">
        <ele>72.0</ele>
        <time>2017-04-29T04:16:58</time>
        <extensions><speed>1.29</speed></extensions>
      </trkpt>
      <trkpt lat="51.825386000" lon="7.590755000">
        <ele>72.1</ele>
        <time>2017-04-29T04:16:59</time>
        <extensions><speed>1.31</speed></extensions>
      </trkpt>
      <trkpt lat="51.825397000" lon="7.590753000">
        <ele>72.1</ele>
        <time>2017-04-29T04:17:00</time>
        <extensions><speed>1.34</speed></extensions>
      </trkpt>
      <trkpt lat="51.825405000" lon="7.590747000">
        <ele>72.1</ele>
        <time>2017-04-29T04:17:01</time>
        <extensions><speed>1.36</speed></extensions>
      </trkpt>
      <trkpt lat="51.825417000" lon="7.590738000">
        <ele>72.1</ele>
        <time>2017-04-29T04:17:02</time>
        <extensions><speed>1.32</speed></extensions>
      </trkpt>
      <trkpt lat="51.825428000" lon="7.590735000">
        <ele>72.2</ele>
        <time>2017-04-29T04:17:03</time>
        <extensions><speed>1.32</speed></extensions>
      </trkpt>
      <trkpt lat="51.825436000" lon="7.590728000">
        <ele>72.2</ele>
        <time>2017-04-29T04:17:04</time>
        <extensions><speed>1.27</speed></extensions>
      </trkpt>
      <trkpt lat="51.825447000" lon="7.590723000">
        <ele>72.2</ele>
        <time>2017-04-29T04:17:05</time>
        <extensions><speed>1.27</speed></extensions>
      </trkpt>
      <trkpt lat="51.825459000" lon="7.590725000">
        <ele>72.2</ele>
        <time>2017-04-29T04:17:06</time>
        <extensions><speed>1.28</speed></extensions>
      </trkpt>
      <trkpt lat="51.825470000" lon="7.590725000">
        <ele>72.3</ele>
        <time>2017-04-29T04:17:07</time>
        <extensions><speed>1.27</speed></extensions>
      </trkpt>
      <trkpt lat="51.825478000" lon="7.590723000">
        <ele>72.3</ele>
        <time>2017-04-29T04:17:08</time>
        <extensions><speed>1.23</speed></extensions>
      </trkpt>
      <trkpt lat="51.825493000" lon="7.590720000">
        <ele>72.3</ele>
        <time>2017-04-29T04:17:09</time>
        <extensions><speed>1.27</speed></extensions>
      </trkpt>
      <trkpt lat="51.825504000" lon="7.590720000">
        <ele>72.3</ele>
        <time>2017-04-29T04:17:10</time>
        <extensions><speed>1.30</speed></extensions>
      </trkpt>
      <trkpt lat="51.825516000" lon="7.590717000">
        <ele>72.4</ele>
        <time>2017-04-29T04:17:11</time>
        <extensions><speed>1.30</speed></extensions>
      </trkpt>
      <trkpt lat="51.825527000" lon="7.590710000">
        <ele>72.4</ele>
        <time>2017-04-29T04:17:12</time>
        <extensions><speed>1.35</speed></extensions>
      </trkpt>
      <trkpt lat="51.825539000" lon="7.590703000">
        <ele>72.4</ele>
        <time>2017-04-29T04:17:13</time>
        <extensions><speed>1.36</speed></extensions>
      </trkpt>
      <trkpt lat="51.825554000" lon="7.590703000">
        <ele>72.5</ele>
        <time>2017-04-29T04:17:14</time>
        <extensions><speed>1.34</speed></extensions>
      </trkpt>
      <trkpt lat="51.825565000" lon="7.590702000">
        <ele>72.5</ele>
        <time>2017-04-29T04:17:15</time>
        <extensions><speed>1.35</speed></extensions>
      </trkpt>
      <trkpt lat="51.825577000" lon="7.590693000">
        <ele>72.5</ele>
        <time>2017-04-29T04:17:16</time>
        <extensions><speed>1.33</speed></extensions>
      </trkpt>
      <trkpt lat="51.825588000" lon="7.590686000">
        <ele>72.5</ele>
        <time>2017-04-29T04:17:17</time>
        <extensions><speed>1.36</speed></extensions>
      </trkpt>
      <trkpt lat="51.825596000" lon="7.590679000">
        <ele>72.6</ele>
        <time>2017-04-29T04:17:18</time>
        <extensions><speed>1.37</speed></extensions>
      </trkpt>
      <trkpt lat="51.825611000" lon="7.590672000">
        <ele>72.6</ele>
        <time>2017-04-29T04:17:19</time>
        <extensions><speed>1.44</speed></extensions>
      </trkpt>
      <trkpt lat="51.825623000" lon="7.590668000">
        <ele>72.6</ele>
        <time>2017-04-29T04:17:20</time>
        <extensions><speed>1.37</speed></extensions>
      </trkpt>
      <trkpt lat="51.825634000" lon="7.590667000">
        <ele>72.7</ele>
        <time>2017-04-29T04:17:21</time>
        <extensions><speed>1.39</speed></extensions>
      </trkpt>
      <trkpt lat="51.825649000" lon="7.590665000">
        <ele>72.7</ele>
        <time>2017-04-29T04:17:22</time>
        <extensions><speed>1.36</speed></extensions>
      </trkpt>
      <trkpt lat="51.825657000" lon="7.590663000">
        <ele>72.7</ele>
        <time>2017-04-29T04:17:23</time>
        <extensions><speed>1.33</speed></extensions>
      </trkpt>
      <trkpt lat="51.825668000" lon="7.590660000">
        <ele>72.7</ele>
        <time>2017-04-29T04:17:24</time>
        <extensions><speed>1.32</speed></extensions>
      </trkpt>
      <trkpt lat="51.825684000" lon="7.590655000">
        <ele>72.8</ele>
        <time>2017-04-29T04:17:25</time>
        <extensions><speed>1.35</speed></extensions>
      </trkpt>
      <trkpt lat="51.825695000" lon="7.590653000">
        <ele>72.8</ele>
        <time>2017-04-29T04:17:26</time>
        <extensions><speed>1.39</speed></extensions>
      </trkpt>
      <trkpt lat="51.825706000" lon="7.590650000">
        <ele>72.8</ele>
        <time>2017-04-29T04:17:27</time>
        <extensions><speed>1.45</speed></extensions>
      </trkpt>
      <trkpt lat="51.825722000" lon="7.590644000">
        <ele>72.9</ele>
        <time>2017-04-29T04:17:28</time>
        <extensions><speed>1.51</speed></extensions>
      </trkpt>
      <trkpt lat="51.825729000" lon="7.590639000">
        <ele>72.9</ele>
        <time>2017-04-29T04:17:29</time>
        <extensions><speed>1.51</speed></extensions>
      </trkpt>
      <trkpt lat="51.825748000" lon="7.590635000">
        <ele>72.9</ele>
        <time>2017-04-29T04:17:30</time>
        <extensions><speed>1.50</speed></extensions>
      </trkpt>
      <trkpt lat="51.825756000" lon="7.590639000">
        <ele>72.9</ele>
        <time>2017-04-29T04:17:31</time>
        <extensions><speed>1.48</speed></extensions>
      </trkpt>
      <trkpt lat="51.825764000" lon="7.590642000">
        <ele>73.0</ele>
        <time>2017-04-29T04:17:32</time>
        <extensions><speed>1.36</speed></extensions>
      </trkpt>
      <trkpt lat="51.825775000" lon="7.590642000">
        <ele>73.0</ele>
        <time>2017-04-29T04:17:33</time>
        <extensions><speed>1.27</speed></extensions>
      </trkpt>
      <trkpt lat="51.825787000" lon="7.590637000">
        <ele>73.0</ele>
        <time>2017-04-29T04:17:34</time>
        <extensions><speed>1.22</speed></extensions>
      </trkpt>
      <trkpt lat="51.825794000" lon="7.590628000">
        <ele>73.1</ele>
        <time>2017-04-29T04:17:35</time>
        <extensions><speed>1.22</speed></extensions>
      </trkpt>
      <trkpt lat="51.825809000" lon="7.590621000">
        <ele>73.1</ele>
        <time>2017-04-29T04:17:36</time>
        <extensions><speed>1.30</speed></extensions>
      </trkpt>
      <trkpt lat="51.825821000" lon="7.590615000">
        <ele>73.1</ele>
        <time>2017-04-29T04:17:37</time>
        <extensions><speed>1.33</speed></extensions>
      </trkpt>
      <trkpt lat="51.825836000" lon="7.590613000">
        <ele>73.2</ele>
        <time>2017-04-29T04:17:38</time>
        <extensions><speed>1.33</speed></extensions>
      </trkpt>
      <trkpt lat="51.825848000" lon="7.590612000">
        <ele>73.2</ele>
        <time>2017-04-29T04:17:39</time>
        <extensions><speed>1.38</speed></extensions>
      </trkpt>
      <trkpt lat="51.825855000" lon="7.590611000">
        <ele>73.2</ele>
        <time>2017-04-29T04:17:40</time>
        <extensions><speed>1.32</speed></extensions>
      </trkpt>
      <trkpt lat="51.825867000" lon="7.590609000">
        <ele>73.2</ele>
        <time>2017-04-29T04:17:41</time>
        <extensions><speed>1.32</speed></extensions>
      </trkpt>
      <trkpt lat="51.825882000" lon="7.590607000">
        <ele>73.3</ele>
        <time>2017-04-29T04:17:42</time>
        <extensions><speed>1.31</speed></extensions>
      </trkpt>
      <trkpt lat="51.825890000" lon="7.590602000">
        <ele>73.3</ele>
        <time>2017-04-29T04:17:43</time>
        <extensions><speed>1.36</speed></extensions>
      </trkpt>
      <trkpt lat="51.825905000" lon="7.590597000">
        <ele>73.3</ele>
        <time>2017-04-29T04:17:44</time>
        <extensions><speed>1.35</speed></extensions>
      </trkpt>
      <trkpt lat="51.825916000" lon="7.590595000">
        <ele>73.4</ele>
        <time>2017-04-29T04:17:45</time>
        <extensions><speed>1.35</speed></extensions>
      </trkpt>
      <trkpt lat="51.825924000" lon="7.590590000">
        <ele>73.4</ele>
        <time>2017-04-29T04:17:46</time>
        <extensions><speed>1.37</speed></extensions>
      </trkpt>
      <trkpt lat="51.825935000" lon="7.590585000">
        <ele>73.4</ele>
        <time>2017-04-29T04:17:47</time>
        <extensions><speed>1.38</speed></extensions>
      </trkpt>
      <trkpt lat="51.825951000" lon="7.590581000">
        <ele>73.4</ele>
        <time>2017-04-29T04:17:48</time>
        <extensions><speed>1.33</speed></extensions>
      </trkpt>
      <trkpt lat="51.825962000" lon="7.590580000">
        <ele>73.5</ele>
        <time>2017-04-29T04:17:49</time>
        <extensions><speed>1.29</speed></extensions>
      </trkpt>
      <trkpt lat="51.825977000" lon="7.590577000">
        <ele>73.5</ele>
        <time>2017-04-29T04:17:50</time>
        <extensions><speed>1.37</speed></extensions>
      </trkpt>
      <trkpt lat="51.825989000" lon="7.590575000">
        <ele>73.5</ele>
        <time>2017-04-29T04:17:51</time>
        <extensions><speed>1.37</speed></extensions>
      </trkpt>
      <trkpt lat="51.826000000" lon="7.590574000">
        <ele>73.5</ele>
        <time>2017-04-29T04:17:52</time>
        <extensions><speed>1.41</speed></extensions>
      </trkpt>
      <trkpt lat="51.826015000" lon="7.590570000">
        <ele>73.5</ele>
        <time>2017-04-29T04:17:53</time>
        <extensions><speed>1.41</speed></extensions>
      </trkpt>
      <trkpt lat="51.826023000" lon="7.590565000">
        <ele>73.5</ele>
        <time>2017-04-29T04:17:54</time>
        <extensions><speed>1.47</speed></extensions>
      </trkpt>
      <trkpt lat="51.826038000" lon="7.590557000">
        <ele>73.5</ele>
        <time>2017-04-29T04:17:55</time>
        <extensions><speed>1.46</speed></extensions>
      </trkpt>
      <trkpt lat="51.826050000" lon="7.590551000">
        <ele>73.5</ele>
        <time>2017-04-29T04:17:56</time>
        <extensions><speed>1.39</speed></extensions>
      </trkpt>
      <trkpt lat="51.826065000" lon="7.590545000">
        <ele>73.5</ele>
        <time>2017-04-29T04:17:57</time>
        <extensions><speed>1.42</speed></extensions>
      </trkpt>
      <trkpt lat="51.826077000" lon="7.590540000">
        <ele>73.5</ele>
        <time>2017-04-29T04:17:58</time>
        <extensions><speed>1.42</speed></extensions>
      </trkpt>
      <trkpt lat="51.826084000" lon="7.590537000">
        <ele>73.5</ele>
        <time>2017-04-29T04:17:59</time>
        <extensions><speed>1.36</speed></extensions>
      </trkpt>
      <trkpt lat="51.826096000" lon="7.590537000">
        <ele>73.5</ele>
        <time>2017-04-29T04:18:00</time>
        <extensions><speed>1.28</speed></extensions>
      </trkpt>
      <trkpt lat="51.826111000" lon="7.590537000">
        <ele>73.5</ele>
        <time>2017-04-29T04:18:01</time>
        <extensions><speed>1.31</speed></extensions>
      </trkpt>
      <trkpt lat="51.826126000" lon="7.590534000">
        <ele>73.4</ele>
        <time>2017-04-29T04:18:02</time>
        <extensions><speed>1.30</speed></extensions>
      </trkpt>
      <trkpt lat="51.826138000" lon="7.590530000">
        <ele>73.4</ele>
        <time>2017-04-29T04:18:03</time>
        <extensions><speed>1.33</speed></extensions>
      </trkpt>
      <trkpt lat="51.826145000" lon="7.590528000">
        <ele>73.4</ele>
        <time>2017-04-29T04:18:04</time>
        <extensions><speed>1.29</speed></extensions>
      </trkpt>
      <trkpt lat="51.826153000" lon="7.590532000">
        <ele>73.4</ele>
        <time>2017-04-29T04:18:05</time>
        <extensions><speed>1.26</speed></extensions>
      </trkpt>
      <trkpt lat="51.826164000" lon="7.590530000">
        <ele>73.4</ele>
        <time>2017-04-29T04:18:06</time>
        <extensions><speed>1.25</speed></extensions>
      </trkpt>
      <trkpt lat="51.826176000" lon="7.590528000">
        <ele>73.4</ele>
        <time>2017-04-29T04:18:07</time>
        <extensions><speed>1.25</speed></extensions>
      </trkpt>
      <trkpt lat="51.826187000" lon="7.590525000">
        <ele>73.4</ele>
        <time>2017-04-29T04:18:08</time>
        <extensions><speed>1.24</speed></extensions>
      </trkpt>
      <trkpt lat="51.826202000" lon="7.590523000">
        <ele>73.4</ele>
        <time>2017-04-29T04:18:09</time>
        <extensions><speed>1.27</speed></extensions>
      </trkpt>
      <trkpt lat="51.826210000" lon="7.590521000">
        <ele>73.4</ele>
        <time>2017-04-29T04:18:10</time>
        <extensions><speed>1.31</speed></extensions>
      </trkpt>
      <trkpt lat="51.826225000" lon="7.590518000">
        <ele>73.3</ele>
        <time>2017-04-29T04:18:11</time>
        <extensions><speed>1.34</speed></extensions>
      </trkpt>
      <trkpt lat="51.826241000" lon="7.590515000">
        <ele>73.3</ele>
        <time>2017-04-29T04:18:12</time>
        <extensions><speed>1.37</speed></extensions>
      </trkpt>
      <trkpt lat="51.826248000" lon="7.590511000">
        <ele>73.3</ele>
        <time>2017-04-29T04:18:13</time>
        <extensions><speed>1.37</speed></extensions>
      </trkpt>
      <trkpt lat="51.826263000" lon="7.590507000">
        <ele>73.3</ele>
        <time>2017-04-29T04:18:14</time>
        <extensions><speed>1.43</speed></extensions>
      </trkpt>
      <trkpt lat="51.826275000" lon="7.590495000">
        <ele>73.3</ele>
        <time>2017-04-29T04:18:15</time>
        <extensions><speed>1.35</speed></extensions>
      </trkpt>
      <trkpt lat="51.826279000" lon="7.590487000">
        <ele>73.3</ele>
        <time>2017-04-29T04:18:16</time>
        <extensions><speed>1.29</speed></extensions>
      </trkpt>
      <trkpt lat="51.826294000" lon="7.590480000">
        <ele>73.3</ele>
        <time>2017-04-29T04:18:17</time>
        <extensions><speed>1.27</speed></extensions>
      </trkpt>
      <trkpt lat="51.826305000" lon="7.590480000">
        <ele>73.3</ele>
        <time>2017-04-29T04:18:18</time>
        <extensions><speed>1.28</speed></extensions>
      </trkpt>
      <trkpt lat="51.826317000" lon="7.590475000">
        <ele>73.3</ele>
        <time>2017-04-29T04:18:19</time>
        <extensions><speed>1.26</speed></extensions>
      </trkpt>
      <trkpt lat="51.826332000" lon="7.590472000">
        <ele>73.2</ele>
        <time>2017-04-29T04:18:20</time>
        <extensions><speed>1.27</speed></extensions>
      </trkpt>
      <trkpt lat="51.826340000" lon="7.590472000">
        <ele>73.2</ele>
        <time>2017-04-29T04:18:21</time>
        <extensions><speed>1.31</speed></extensions>
      </trkpt>
      <trkpt lat="51.826355000" lon="7.590470000">
        <ele>73.2</ele>
        <time>2017-04-29T04:18:22</time>
        <extensions><speed>1.31</speed></extensions>
      </trkpt>
      <trkpt lat="51.826363000" lon="7.590468000">
        <ele>73.2</ele>
        <time>2017-04-29T04:18:23</time>
      </trkpt>
      <trkpt lat="51.826374000" lon="7.590465000">
        <ele>73.2</ele>
        <time>2017-04-29T04:18:25</time>
        <extensions><speed>1.35</speed></extensions>
      </trkpt>
      <trkpt lat="51.826389000" lon="7.590460000">
        <ele>73.2</ele>
        <time>2017-04-29T04:18:26</time>
        <extensions><speed>1.32</speed></extensions>
      </trkpt>
      <trkpt lat="51.826408000" lon="7.590455000">
        <ele>73.2</ele>
        <time>2017-04-29T04:18:27</time>
        <extensions><speed>1.38</speed></extensions>
      </trkpt>
      <trkpt lat="51.826420000" lon="7.590452000">
        <ele>73.2</ele>
        <time>2017-04-29T04:18:28</time>
        <extensions><speed>1.45</speed></extensions>
      </trkpt>
      <trkpt lat="51.826435000" lon="7.590450000">
        <ele>73.2</ele>
        <time>2017-04-29T04:18:29</time>
        <extensions><speed>1.36</speed></extensions>
      </trkpt>
      <trkpt lat="51.826443000" lon="7.590448000">
        <ele>73.2</ele>
        <time>2017-04-29T04:18:30</time>
        <extensions><speed>1.36</speed></extensions>
      </trkpt>
      <trkpt lat="51.826454000" lon="7.590448000">
        <ele>73.2</ele>
        <time>2017-04-29T04:18:31</time>
        <extensions><speed>1.42</speed></extensions>
      </trkpt>
      <trkpt lat="51.826473000" lon="7.590450000">
        <ele>73.1</ele>
        <time>2017-04-29T04:18:32</time>
        <extensions><speed>1.35</speed></extensions>
      </trkpt>
      <trkpt lat="51.826481000" lon="7.590448000">
        <ele>73.1</ele>
        <time>2017-04-29T04:18:33</time>
        <extensions><speed>1.29</speed></extensions>
      </trkpt>
      <trkpt lat="51.826496000" lon="7.590446000">
        <ele>73.1</ele>
        <time>2017-04-29T04:18:34</time>
        <extensions><speed>1.26</speed></extensions>
      </trkpt>
      <trkpt lat="51.826504000" lon="7.590443000">
        <ele>73.1</ele>
        <time>2017-04-29T04:18:35</time>
        <extensions><speed>1.28</speed></extensions>
      </trkpt>
      <trkpt lat="51.826515000" lon="7.590437000">
        <ele>73.1</ele>
        <time>2017-04-29T04:18:36</time>
        <extensions><speed>1.23</speed></extensions>
      </trkpt>
      <trkpt lat="51.826527000" lon="7.590430000">
        <ele>73.1</ele>
        <time>2017-04-29T04:18:37</time>
        <extensions><speed>1.16</speed></extensions>
      </trkpt>
      <trkpt lat="51.826538000" lon="7.590424000">
        <ele>73.1</ele>
        <time>2017-04-29T04:18:38</time>
        <extensions><speed>1.14</speed></extensions>
      </trkpt>
      <trkpt lat="51.826546000" lon="7.590416000">
        <ele>73.1</ele>
        <time>2017-04-29T04:18:39</time>
        <extensions><speed>1.10</speed></extensions>
      </trkpt>
      <trkpt lat="51.826557000" lon="7.590413000">
        <ele>73.1</ele>
        <time>2017-04-29T04:18:40</time>
        <extensions><speed>1.10</speed></extensions>
      </trkpt>
      <trkpt lat="51.826569000" lon="7.590408000">
        <ele>73.1</ele>
        <time>2017-04-29T04:18:41</time>
        <extensions><speed>1.17</speed></extensions>
      </trkpt>
      <trkpt lat="51.826588000" lon="7.590404000">
        <ele>73.1</ele>
        <time>2017-04-29T04:18:42</time>
        <extensions><speed>1.29</speed></extensions>
      </trkpt>
      <trkpt lat="51.826603000" lon="7.590400000">
        <ele>73.1</ele>
        <time>2017-04-29T04:18:43</time>
        <extensions><speed>1.37</speed></extensions>
      </trkpt>
      <trkpt lat="51.826614000" lon="7.590399000">
        <ele>73.0</ele>
        <time>2017-04-29T04:18:44</time>
        <extensions><speed>1.42</speed></extensions>
      </trkpt>
      <trkpt lat="51.826626000" lon="7.590394000">
        <ele>73.0</ele>
        <time>2017-04-29T04:18:45</time>
        <extensions><speed>1.46</speed></extensions>
      </trkpt>
      <trkpt lat="51.826637000" lon="7.590388000">
        <ele>73.0</ele>
        <time>2017-04-29T04:18:46</time>
        <extensions><speed>1.46</speed></extensions>
      </trkpt>
      <trkpt lat="51.826653000" lon="7.590385000">
        <ele>73.0</ele>
        <time>2017-04-29T04:18:47</time>
        <extensions><speed>1.50</speed></extensions>
      </trkpt>
      <trkpt lat="51.826664000" lon="7.590382000">
        <ele>73.0</ele>
        <time>2017-04-29T04:18:48</time>
        <extensions><speed>1.49</speed></extensions>
      </trkpt>
      <trkpt lat="51.826672000" lon="7.590380000">
        <ele>73.0</ele>
        <time>2017-04-29T04:18:49</time>
        <extensions><speed>1.35</speed></extensions>
      </trkpt>
      <trkpt lat="51.826683000" lon="7.590378000">
        <ele>73.0</ele>
        <time>2017-04-29T04:18:50</time>
        <extensions><speed>1.33</speed></extensions>
      </trkpt>
      <trkpt lat="51.826694000" lon="7.590378000">
        <ele>73.0</ele>
        <time>2017-04-29T04:18:51</time>
        <extensions><speed>1.25</speed></extensions>
      </trkpt>
      <trkpt lat="51.826706000" lon="7.590373000">
        <ele>72.9</ele>
        <time>2017-04-29T04:18:52</time>
        <extensions><speed>1.21</speed></extensions>
      </trkpt>
      <trkpt lat="51.826721000" lon="7.590373000">
        <ele>72.9</ele>
        <time>2017-04-29T04:18:53</time>
        <extensions><speed>1.17</speed></extensions>
      </trkpt>
      <trkpt lat="51.826733000" lon="7.590375000">
        <ele>72.9</ele>
        <time>2017-04-29T04:18:54</time>
        <extensions><speed>1.24</speed></extensions>
      </trkpt>
      <trkpt lat="51.826740000" lon="7.590375000">
        <ele>72.9</ele>
        <time>2017-04-29T04:18:55</time>
        <extensions><speed>1.09</speed></extensions>
      </trkpt>
      <trkpt lat="51.826756000" lon="7.590373000">
        <ele>72.8</ele>
        <time>2017-04-29T04:18:56</time>
        <extensions><speed>1.10</speed></extensions>
      </trkpt>
      <trkpt lat="51.826767000" lon="7.590369000">
        <ele>72.8</ele>
        <time>2017-04-29T04:18:57</time>
        <extensions><speed>1.10</speed></extensions>
      </trkpt>
      <trkpt lat="51.826778000" lon="7.590364000">
        <ele>72.8</ele>
        <time>2017-04-29T04:18:58</time>
        <extensions><speed>1.24</speed></extensions>
      </trkpt>
      <trkpt lat="51.826794000" lon="7.590360000">
        <ele>72.7</ele>
        <time>2017-04-29T04:18:59</time>
        <extensions><speed>1.29</speed></extensions>
      </trkpt>
      <trkpt lat="51.826805000" lon="7.590358000">
        <ele>72.7</ele>
        <time>2017-04-29T04:19:00</time>
        <extensions><speed>1.32</speed></extensions>
      </trkpt>
      <trkpt lat="51.826820000" lon="7.590358000">
        <ele>72.7</ele>
        <time>2017-04-29T04:19:01</time>
        <extensions><speed>1.37</speed></extensions>
      </trkpt>
      <trkpt lat="51.826832000" lon="7.590360000">
        <ele>72.6</ele>
        <time>2017-04-29T04:19:02</time>
        <extensions><speed>1.33</speed></extensions>
      </trkpt>
      <trkpt lat="51.826843000" lon="7.590358000">
        <ele>72.6</ele>
        <time>2017-04-29T04:19:03</time>
        <extensions><speed>1.30</speed></extensions>
      </trkpt>
      <trkpt lat="51.826855000" lon="7.590353000">
        <ele>72.5</ele>
        <time>2017-04-29T04:19:04</time>
        <extensions><speed>1.23</speed></extensions>
      </trkpt>
      <trkpt lat="51.826862000" lon="7.590348000">
        <ele>72.5</ele>
        <time>2017-04-29T04:19:05</time>
        <extensions><speed>1.17</speed></extensions>
      </trkpt>
      <trkpt lat="51.826874000" lon="7.590346000">
        <ele>72.5</ele>
        <time>2017-04-29T04:19:06</time>
        <extensions><speed>1.07</speed></extensions>
      </trkpt>
      <trkpt lat="51.826889000" lon="7.590343000">
        <ele>72.4</ele>
        <time>2017-04-29T04:19:07</time>
        <extensions><speed>1.14</speed></extensions>
      </trkpt>
      <trkpt lat="51.826897000" lon="7.590338000">
        <ele>72.4</ele>
        <time>2017-04-29T04:19:08</time>
        <extensions><speed>1.14</speed></extensions>
      </trkpt>
      <trkpt lat="51.826912000" lon="7.590334000">
        <ele>72.4</ele>
        <time>2017-04-29T04:19:09</time>
        <extensions><speed>1.17</speed></extensions>
      </trkpt>
      <trkpt lat="51.826923000" lon="7.590332000">
        <ele>72.3</ele>
        <time>2017-04-29T04:19:10</time>
        <extensions><speed>1.25</speed></extensions>
      </trkpt>
      <trkpt lat="51.826935000" lon="7.590332000">
        <ele>72.3</ele>
        <time>2017-04-29T04:19:11</time>
        <extensions><speed>1.25</speed></extensions>
      </trkpt>
      <trkpt lat="51.826946000" lon="7.590338000">
        <ele>72.3</ele>
        <time>2017-04-29T04:19:12</time>
        <extensions><speed>1.20</speed></extensions>
      </trkpt>
      <trkpt lat="51.826958000" lon="7.590336000">
        <ele>72.2</ele>
        <time>2017-04-29T04:19:13</time>
        <extensions><speed>1.14</speed></extensions>
      </trkpt>
      <trkpt lat="51.826965000" lon="7.590332000">
        <ele>72.2</ele>
        <time>2017-04-29T04:19:14</time>
        <extensions><speed>1.16</speed></extensions>
      </trkpt>
      <trkpt lat="51.826977000" lon="7.590329000">
        <ele>72.2</ele>
        <time>2017-04-29T04:19:15</time>
        <extensions><speed>1.18</speed></extensions>
      </trkpt>
      <trkpt lat="51.826992000" lon="7.590329000">
        <ele>72.1</ele>
        <time>2017-04-29T04:19:16</time>
        <extensions><speed>1.17</speed></extensions>
      </trkpt>
      <trkpt lat="51.827000000" lon="7.590325000">
        <ele>72.1</ele>
        <time>2017-04-29T04:19:17</time>
        <extensions><speed>1.17</speed></extensions>
      </trkpt>
      <trkpt lat="51.827011000" lon="7.590325000">
        <ele>72.1</ele>
        <time>2017-04-29T04:19:18</time>
        <extensions><speed>1.17</speed></extensions>
      </trkpt>
      <trkpt lat="51.827026000" lon="7.590322000">
        <ele>72.0</ele>
        <time>2017-04-29T04:19:19</time>
        <extensions><speed>1.18</speed></extensions>
      </trkpt>
      <trkpt lat="51.827042000" lon="7.590315000">
        <ele>72.0</ele>
        <time>2017-04-29T04:19:20</time>
        <extensions><speed>1.18</speed></extensions>
      </trkpt>
      <trkpt lat="51.827057000" lon="7.590312000">
        <ele>72.0</ele>
        <time>2017-04-29T04:19:21</time>
        <extensions><speed>1.27</speed></extensions>
      </trkpt>
      <trkpt lat="51.827065000" lon="7.590313000">
        <ele>71.9</ele>
        <time>2017-04-29T04:19:22</time>
        <extensions><speed>1.29</speed></extensions>
      </trkpt>
      <trkpt lat="51.827076000" lon="7.590312000">
        <ele>71.9</ele>
        <time>2017-04-29T04:19:23</time>
        <extensions><speed>1.37</speed></extensions>
      </trkpt>
      <trkpt lat="51.827091000" lon="7.590310000">
        <ele>71.9</ele>
        <time>2017-04-29T04:19:24</time>
        <extensions><speed>1.38</speed></extensions>
      </trkpt>
      <trkpt lat="51.827106000" lon="7.590306000">
        <ele>71.8</ele>
        <time>2017-04-29T04:19:25</time>
        <extensions><speed>1.38</speed></extensions>
      </trkpt>
      <trkpt lat="51.827118000" lon="7.590302000">
        <ele>71.8</ele>
        <time>2017-04-29T04:19:26</time>
        <extensions><speed>1.39</speed></extensions>
      </trkpt>
      <trkpt lat="51.827126000" lon="7.590297000">
        <ele>71.7</ele>
        <time>2017-04-29T04:19:27</time>
        <extensions><speed>1.39</speed></extensions>
      </trkpt>
      <trkpt lat="51.827141000" lon="7.590293000">
        <ele>71.7</ele>
        <time>2017-04-29T04:19:28</time>
        <extensions><speed>1.42</speed></extensions>
      </trkpt>
      <trkpt lat="51.827156000" lon="7.590290000">
        <ele>71.7</ele>
        <time>2017-04-29T04:19:29</time>
        <extensions><speed>1.41</speed></extensions>
      </trkpt>
      <trkpt lat="51.827171000" lon="7.590283000">
        <ele>71.7</ele>
        <time>2017-04-29T04:19:30</time>
        <extensions><speed>1.41</speed></extensions>
      </trkpt>
      <trkpt lat="51.827190000" lon="7.590278000">
        <ele>71.6</ele>
        <time>2017-04-29T04:19:31</time>
        <extensions><speed>1.39</speed></extensions>
      </trkpt>
      <trkpt lat="51.827198000" lon="7.590277000">
        <ele>71.6</ele>
        <time>2017-04-29T04:19:32</time>
        <extensions><speed>1.39</speed></extensions>
      </trkpt>
      <trkpt lat="51.827213000" lon="7.590273000">
        <ele>71.5</ele>
        <time>2017-04-29T04:19:33</time>
        <extensions><speed>1.30</speed></extensions>
      </trkpt>
      <trkpt lat="51.827221000" lon="7.590268000">
        <ele>71.5</ele>
        <time>2017-04-29T04:19:34</time>
        <extensions><speed>1.29</speed></extensions>
      </trkpt>
      <trkpt lat="51.827236000" lon="7.590265000">
        <ele>71.4</ele>
        <time>2017-04-29T04:19:35</time>
        <extensions><speed>1.23</speed></extensions>
      </trkpt>
      <trkpt lat="51.827251000" lon="7.590264000">
        <ele>71.4</ele>
        <time>2017-04-29T04:19:36</time>
        <extensions><speed>1.23</speed></extensions>
      </trkpt>
      <trkpt lat="51.827259000" lon="7.590262000">
        <ele>71.4</ele>
        <time>2017-04-29T04:19:37</time>
        <extensions><speed>1.29</speed></extensions>
      </trkpt>
      <trkpt lat="51.827274000" lon="7.590257000">
        <ele>71.3</ele>
        <time>2017-04-29T04:19:38</time>
        <extensions><speed>1.33</speed></extensions>
      </trkpt>
      <trkpt lat="51.827286000" lon="7.590252000">
        <ele>71.3</ele>
        <time>2017-04-29T04:19:39</time>
        <extensions><speed>1.32</speed></extensions>
      </trkpt>
      <trkpt lat="51.827297000" lon="7.590252000">
        <ele>71.2</ele>
        <time>2017-04-29T04:19:40</time>
        <extensions><speed>1.28</speed></extensions>
      </trkpt>
      <trkpt lat="51.827309000" lon="7.590253000">
        <ele>71.2</ele>
        <time>2017-04-29T04:19:41</time>
        <extensions><speed>1.21</speed></extensions>
      </trkpt>
      <trkpt lat="51.827320000" lon="7.590252000">
        <ele>71.2</ele>
        <time>2017-04-29T04:19:42</time>
        <extensions><speed>1.18</speed></extensions>
      </trkpt>
      <trkpt lat="51.827332000" lon="7.590252000">
        <ele>71.1</ele>
        <time>2017-04-29T04:19:43</time>
        <extensions><speed>1.15</speed></extensions>
      </trkpt>
      <trkpt lat="51.827343000" lon="7.590250000">
        <ele>71.1</ele>
        <time>2017-04-29T04:19:44</time>
        <extensions><speed>1.15</speed></extensions>
      </trkpt>
      <trkpt lat="51.827351000" lon="7.590247000">
        <ele>71.1</ele>
        <time>2017-04-29T04:19:45</time>
        <extensions><speed>1.18</speed></extensions>
      </trkpt>
      <trkpt lat="51.827362000" lon="7.590241000">
        <ele>71.0</ele>
        <time>2017-04-29T04:19:46</time>
        <extensions><speed>1.18</speed></extensions>
      </trkpt>
      <trkpt lat="51.827374000" lon="7.590236000">
        <ele>71.0</ele>
        <time>2017-04-29T04:19:47</time>
        <extensions><speed>1.11</speed></extensions>
      </trkpt>
      <trkpt lat="51.827385000" lon="7.590231000">
        <ele>71.0</ele>
        <time>2017-04-29T04:19:48</time>
        <extensions><speed>1.12</speed></extensions>
      </trkpt>
      <trkpt lat="51.827396000" lon="7.590225000">
        <ele>70.9</ele>
        <time>2017-04-29T04:19:49</time>
        <extensions><speed>1.16</speed></extensions>
      </trkpt>
      <trkpt lat="51.827412000" lon="7.590222000">
        <ele>70.9</ele>
        <time>2017-04-29T04:19:50</time>
        <extensions><speed>1.19</speed></extensions>
      </trkpt>
      <trkpt lat="51.827419000" lon="7.590219000">
        <ele>70.9</ele>
        <time>2017-04-29T04:19:51</time>
        <extensions><speed>1.25</speed></extensions>
      </trkpt>
      <trkpt lat="51.827435000" lon="7.590219000">
        <ele>70.8</ele>
        <time>2017-04-29T04:19:52</time>
        <extensions><speed>1.30</speed></extensions>
      </trkpt>
      <trkpt lat="51.827450000" lon="7.590215000">
        <ele>70.8</ele>
        <time>2017-04-29T04:19:53</time>
        <extensions><speed>1.41</speed></extensions>
      </trkpt>
      <trkpt lat="51.827465000" lon="7.590212000">
        <ele>70.8</ele>
        <time>2017-04-29T04:19:54</time>
        <extensions><speed>1.42</speed></extensions>
      </trkpt>
      <trkpt lat="51.827480000" lon="7.590210000">
        <ele>70.7</ele>
        <time>2017-04-29T04:19:55</time>
        <extensions><speed>1.47</speed></extensions>
      </trkpt>
      <trkpt lat="51.827496000" lon="7.590208000">
        <ele>70.7</ele>
        <time>2017-04-29T04:19:56</time>
        <extensions><speed>1.48</speed></extensions>
      </trkpt>
      <trkpt lat="51.827511000" lon="7.590205000">
        <ele>70.7</ele>
        <time>2017-04-29T04:19:57</time>
        <extensions><speed>1.44</speed></extensions>
      </trkpt>
      <trkpt lat="51.827522000" lon="7.590199000">
        <ele>70.6</ele>
        <time>2017-04-29T04:19:58</time>
        <extensions><speed>1.43</speed></extensions>
      </trkpt>
      <trkpt lat="51.827534000" lon="7.590196000">
        <ele>70.6</ele>
        <time>2017-04-29T04:19:59</time>
        <extensions><speed>1.42</speed></extensions>
      </trkpt>
      <trkpt lat="51.827545000" lon="7.590189000">
        <ele>70.5</ele>
        <time>2017-04-29T04:20:00</time>
        <extensions><speed>1.37</speed></extensions>
      </trkpt>
      <trkpt lat="51.827557000" lon="7.590183000">
        <ele>70.5</ele>
        <time>2017-04-29T04:20:01</time>
        <extensions><speed>1.33</speed></extensions>
      </trkpt>
      <trkpt lat="51.827572000" lon="7.590180000">
        <ele>70.5</ele>
        <time>2017-04-29T04:20:02</time>
        <extensions><speed>1.30</speed></extensions>
      </trkpt>
      <trkpt lat="51.827579000" lon="7.590180000">
        <ele>70.4</ele>
        <time>2017-04-29T04:20:03</time>
        <extensions><speed>1.28</speed></extensions>
      </trkpt>
      <trkpt lat="51.827591000" lon="7.590177000">
        <ele>70.4</ele>
        <time>2017-04-29T04:20:04</time>
        <extensions><speed>1.24</speed></extensions>
      </trkpt>
      <trkpt lat="51.827602000" lon="7.590171000">
        <ele>70.3</ele>
        <time>2017-04-29T04:20:05</time>
        <extensions><speed>1.18</speed></extensions>
      </trkpt>
      <trkpt lat="51.827614000" lon="7.590168000">
        <ele>70.3</ele>
        <time>2017-04-29T04:20:06</time>
        <extensions><speed>1.22</speed></extensions>
      </trkpt>
      <trkpt lat="51.827629000" lon="7.590165000">
        <ele>70.3</ele>
        <time>2017-04-29T04:20:07</time>
        <extensions><speed>1.20</speed></extensions>
      </trkpt>
      <trkpt lat="51.827644000" lon="7.590163000">
        <ele>70.2</ele>
        <time>2017-04-29T04:20:08</time>
        <extensions><speed>1.18</speed></extensions>
      </trkpt>
      <trkpt lat="51.827656000" lon="7.590159000">
        <ele>70.2</ele>
        <time>2017-04-29T04:20:09</time>
        <extensions><speed>1.26</speed></extensions>
      </trkpt>
      <trkpt lat="51.827667000" lon="7.590152000">
        <ele>70.1</ele>
        <time>2017-04-29T04:20:10</time>
        <extensions><speed>1.31</speed></extensions>
      </trkpt>
      <trkpt lat="51.827679000" lon="7.590143000">
        <ele>70.1</ele>
        <time>2017-04-29T04:20:11</time>
        <extensions><speed>1.29</speed></extensions>
      </trkpt>
      <trkpt lat="51.827690000" lon="7.590135000">
        <ele>70.0</ele>
        <time>2017-04-29T04:20:12</time>
        <extensions><speed>1.33</speed></extensions>
      </trkpt>
      <trkpt lat="51.827705000" lon="7.590128000">
        <ele>70.0</ele>
        <time>2017-04-29T04:20:13</time>
        <extensions><speed>1.36</speed></extensions>
      </trkpt>
      <trkpt lat="51.827713000" lon="7.590124000">
        <ele>69.9</ele>
        <time>2017-04-29T04:20:14</time>
        <extensions><speed>1.34</speed></extensions>
      </trkpt>
      <trkpt lat="51.827728000" lon="7.590120000">
        <ele>69.9</ele>
        <time>2017-04-29T04:20:15</time>
        <extensions><speed>1.35</speed></extensions>
      </trkpt>
      <trkpt lat="51.827740000" lon="7.590115000">
        <ele>69.8</ele>
        <time>2017-04-29T04:20:16</time>
        <extensions><speed>1.39</speed></extensions>
      </trkpt>
      <trkpt lat="51.827751000" lon="7.590106000">
        <ele>69.7</ele>
        <time>2017-04-29T04:20:17</time>
        <extensions><speed>1.38</speed></extensions>
      </trkpt>
      <trkpt lat="51.827766000" lon="7.590103000">
        <ele>69.7</ele>
        <time>2017-04-29T04:20:18</time>
        <extensions><speed>1.38</speed></extensions>
      </trkpt>
      <trkpt lat="51.827778000" lon="7.590102000">
        <ele>69.6</ele>
        <time>2017-04-29T04:20:19</time>
        <extensions><speed>1.38</speed></extensions>
      </trkpt>
      <trkpt lat="51.827789000" lon="7.590102000">
        <ele>69.5</ele>
        <time>2017-04-29T04:20:20</time>
        <extensions><speed>1.37</speed></extensions>
      </trkpt>
      <trkpt lat="51.827805000" lon="7.590103000">
        <ele>69.5</ele>
        <time>2017-04-29T04:20:21</time>
        <extensions><speed>1.36</speed></extensions>
      </trkpt>
      <trkpt lat="51.827816000" lon="7.590098000">
        <ele>69.4</ele>
        <time>2017-04-29T04:20:22</time>
        <extensions><speed>1.38</speed></extensions>
      </trkpt>
      <trkpt lat="51.827831000" lon="7.590093000">
        <ele>69.4</ele>
        <time>2017-04-29T04:20:23</time>
        <extensions><speed>1.37</speed></extensions>
      </trkpt>
      <trkpt lat="51.827843000" lon="7.590090000">
        <ele>69.3</ele>
        <time>2017-04-29T04:20:24</time>
        <extensions><speed>1.37</speed></extensions>
      </trkpt>
      <trkpt lat="51.827862000" lon="7.590089000">
        <ele>69.3</ele>
        <time>2017-04-29T04:20:25</time>
        <extensions><speed>1.41</speed></extensions>
      </trkpt>
      <trkpt lat="51.827873000" lon="7.590086000">
        <ele>69.2</ele>
        <time>2017-04-29T04:20:26</time>
        <extensions><speed>1.47</speed></extensions>
      </trkpt>
      <trkpt lat="51.827888000" lon="7.590082000">
        <ele>69.2</ele>
        <time>2017-04-29T04:20:27</time>
        <extensions><speed>1.45</speed></extensions>
      </trkpt>
      <trkpt lat="51.827904000" lon="7.590078000">
        <ele>69.2</ele>
        <time>2017-04-29T04:20:28</time>
        <extensions><speed>1.46</speed></extensions>
      </trkpt>
      <trkpt lat="51.827915000" lon="7.590077000">
        <ele>69.1</ele>
        <time>2017-04-29T04:20:29</time>
        <extensions><speed>1.46</speed></extensions>
      </trkpt>
      <trkpt lat="51.827927000" lon="7.590072000">
        <ele>69.1</ele>
        <time>2017-04-29T04:20:30</time>
        <extensions><speed>1.42</speed></extensions>
      </trkpt>
      <trkpt lat="51.827938000" lon="7.590068000">
        <ele>69.0</ele>
        <time>2017-04-29T04:20:31</time>
        <extensions><speed>1.40</speed></extensions>
      </trkpt>
      <trkpt lat="51.827950000" lon="7.590061000">
        <ele>68.9</ele>
        <time>2017-04-29T04:20:32</time>
        <extensions><speed>1.35</speed></extensions>
      </trkpt>
      <trkpt lat="51.827961000" lon="7.590056000">
        <ele>68.9</ele>
        <time>2017-04-29T04:20:33</time>
        <extensions><speed>1.32</speed></extensions>
      </trkpt>
      <trkpt lat="51.827972000" lon="7.590054000">
        <ele>68.8</ele>
        <time>2017-04-29T04:20:34</time>
        <extensions><speed>1.28</speed></extensions>
      </trkpt>
      <trkpt lat="51.827988000" lon="7.590049000">
        <ele>68.8</ele>
        <time>2017-04-29T04:20:35</time>
        <extensions><speed>1.28</speed></extensions>
      </trkpt>
      <trkpt lat="51.828003000" lon="7.590042000">
        <ele>68.7</ele>
        <time>2017-04-29T04:20:36</time>
        <extensions><speed>1.33</speed></extensions>
      </trkpt>
      <trkpt lat="51.828014000" lon="7.590035000">
        <ele>68.7</ele>
        <time>2017-04-29T04:20:37</time>
        <extensions><speed>1.35</speed></extensions>
      </trkpt>
      <trkpt lat="51.828026000" lon="7.590030000">
        <ele>68.6</ele>
        <time>2017-04-29T04:20:38</time>
        <extensions><speed>1.37</speed></extensions>
      </trkpt>
      <trkpt lat="51.828037000" lon="7.590024000">
        <ele>68.5</ele>
        <time>2017-04-29T04:20:39</time>
        <extensions><speed>1.41</speed></extensions>
      </trkpt>
      <trkpt lat="51.828049000" lon="7.590021000">
        <ele>68.5</ele>
        <time>2017-04-29T04:20:40</time>
        <extensions><speed>1.42</speed></extensions>
      </trkpt>
      <trkpt lat="51.828064000" lon="7.590017000">
        <ele>68.5</ele>
        <time>2017-04-29T04:20:41</time>
        <extensions><speed>1.42</speed></extensions>
      </trkpt>
      <trkpt lat="51.828075000" lon="7.590014000">
        <ele>68.4</ele>
        <time>2017-04-29T04:20:42</time>
        <extensions><speed>1.45</speed></extensions>
      </trkpt>
      <trkpt lat="51.828087000" lon="7.590007000">
        <ele>68.4</ele>
        <time>2017-04-29T04:20:43</time>
        <extensions><speed>1.45</speed></extensions>
      </trkpt>
      <trkpt lat="51.828102000" lon="7.590002000">
        <ele>68.4</ele>
        <time>2017-04-29T04:20:44</time>
        <extensions><speed>1.45</speed></extensions>
      </trkpt>
      <trkpt lat="51.828110000" lon="7.589998000">
        <ele>68.4</ele>
        <time>2017-04-29T04:20:45</time>
        <extensions><speed>1.45</speed></extensions>
      </trkpt>
      <trkpt lat="51.828125000" lon="7.589995000">
        <ele>68.4</ele>
        <time>2017-04-29T04:20:46</time>
        <extensions><speed>1.43</speed></extensions>
      </trkpt>
      <trkpt lat="51.828136000" lon="7.589993000">
        <ele>68.4</ele>
        <time>2017-04-29T04:20:47</time>
        <extensions><speed>1.44</speed></extensions>
      </trkpt>
      <trkpt lat="51.828152000" lon="7.589993000">
        <ele>68.4</ele>
        <time>2017-04-29T04:20:48</time>
        <extensions><speed>1.42</speed></extensions>
      </trkpt>
      <trkpt lat="51.828163000" lon="7.589992000">
        <ele>68.4</ele>
        <time>2017-04-29T04:20:49</time>
        <extensions><speed>1.36</speed></extensions>
      </trkpt>
      <trkpt lat="51.828171000" lon="7.589992000">
        <ele>68.4</ele>
        <time>2017-04-29T04:20:50</time>
        <extensions><speed>1.33</speed></extensions>
      </trkpt>
      <trkpt lat="51.828186000" lon="7.589990000">
        <ele>68.4</ele>
        <time>2017-04-29T04:20:51</time>
        <extensions><speed>1.35</speed></extensions>
      </trkpt>
      <trkpt lat="51.828197000" lon="7.589986000">
        <ele>68.4</ele>
        <time>2017-04-29T04:20:52</time>
        <extensions><speed>1.34</speed></extensions>
      </trkpt>
      <trkpt lat="51.828209000" lon="7.589985000">
        <ele>68.4</ele>
        <time>2017-04-29T04:20:53</time>
        <extensions><speed>1.34</speed></extensions>
      </trkpt>
      <trkpt lat="51.828224000" lon="7.589982000">
        <ele>68.4</ele>
        <time>2017-04-29T04:20:54</time>
        <extensions><speed>1.39</speed></extensions>
      </trkpt>
      <trkpt lat="51.828232000" lon="7.589977000">
        <ele>68.4</ele>
        <time>2017-04-29T04:20:55</time>
        <extensions><speed>1.40</speed></extensions>
      </trkpt>
      <trkpt lat="51.828247000" lon="7.589972000">
        <ele>68.4</ele>
        <time>2017-04-29T04:20:56</time>
        <extensions><speed>1.41</speed></extensions>
      </trkpt>
      <trkpt lat="51.828262000" lon="7.589968000">
        <ele>68.4</ele>
        <time>2017-04-29T04:20:57</time>
        <extensions><speed>1.44</speed></extensions>
      </trkpt>
      <trkpt lat="51.828274000" lon="7.589965000">
        <ele>68.4</ele>
        <time>2017-04-29T04:20:58</time>
        <extensions><speed>1.45</speed></extensions>
      </trkpt>
      <trkpt lat="51.828289000" lon="7.589962000">
        <ele>68.4</ele>
        <time>2017-04-29T04:20:59</time>
        <extensions><speed>1.46</speed></extensions>
      </trkpt>
      <trkpt lat="51.828300000" lon="7.589962000">
        <ele>68.4</ele>
        <time>2017-04-29T04:21:00</time>
        <extensions><speed>1.46</speed></extensions>
      </trkpt>
      <trkpt lat="51.828316000" lon="7.589960000">
        <ele>68.5</ele>
        <time>2017-04-29T04:21:01</time>
        <extensions><speed>1.48</speed></extensions>
      </trkpt>
      <trkpt lat="51.828331000" lon="7.589960000">
        <ele>68.5</ele>
        <time>2017-04-29T04:21:02</time>
        <extensions><speed>1.45</speed></extensions>
      </trkpt>
      <trkpt lat="51.828342000" lon="7.589956000">
        <ele>68.5</ele>
        <time>2017-04-29T04:21:03</time>
        <extensions><speed>1.45</speed></extensions>
      </trkpt>
      <trkpt lat="51.828358000" lon="7.589953000">
        <ele>68.5</ele>
        <time>2017-04-29T04:21:04</time>
        <extensions><speed>1.44</speed></extensions>
      </trkpt>
      <trkpt lat="51.828365000" lon="7.589949000">
        <ele>68.5</ele>
        <time>2017-04-29T04:21:05</time>
        <extensions><speed>1.45</speed></extensions>
      </trkpt>
      <trkpt lat="51.828381000" lon="7.589945000">
        <ele>68.5</ele>
        <time>2017-04-29T04:21:06</time>
        <extensions><speed>1.42</speed></extensions>
      </trkpt>
      <trkpt lat="51.828396000" lon="7.589940000">
        <ele>68.5</ele>
        <time>2017-04-29T04:21:07</time>
        <extensions><speed>1.47</speed></extensions>
      </trkpt>
      <trkpt lat="51.828407000" lon="7.589935000">
        <ele>68.5</ele>
        <time>2017-04-29T04:21:08</time>
        <extensions><speed>1.44</speed></extensions>
      </trkpt>
      <trkpt lat="51.828423000" lon="7.589930000">
        <ele>68.5</ele>
        <time>2017-04-29T04:21:09</time>
        <extensions><speed>1.40</speed></extensions>
      </trkpt>
      <trkpt lat="51.828430000" lon="7.589925000">
        <ele>68.5</ele>
        <time>2017-04-29T04:21:10</time>
        <extensions><speed>1.39</speed></extensions>
      </trkpt>
      <trkpt lat="51.828445000" lon="7.589920000">
        <ele>68.5</ele>
        <time>2017-04-29T04:21:11</time>
        <extensions><speed>1.43</speed></extensions>
      </trkpt>
      <trkpt lat="51.828461000" lon="7.589917000">
        <ele>68.5</ele>
        <time>2017-04-29T04:21:12</time>
        <extensions><speed>1.43</speed></extensions>
      </trkpt>
      <trkpt lat="51.828472000" lon="7.589914000">
        <ele>68.5</ele>
        <time>2017-04-29T04:21:13</time>
        <extensions><speed>1.43</speed></extensions>
      </trkpt>
      <trkpt lat="51.828487000" lon="7.589912000">
        <ele>68.5</ele>
        <time>2017-04-29T04:21:14</time>
        <extensions><speed>1.46</speed></extensions>
      </trkpt>
      <trkpt lat="51.828495000" lon="7.589909000">
        <ele>68.5</ele>
        <time>2017-04-29T04:21:15</time>
        <extensions><speed>1.47</speed></extensions>
      </trkpt>
      <trkpt lat="51.828510000" lon="7.589905000">
        <ele>68.5</ele>
        <time>2017-04-29T04:21:16</time>
        <extensions><speed>1.49</speed></extensions>
      </trkpt>
      <trkpt lat="51.828526000" lon="7.589897000">
        <ele>68.5</ele>
        <time>2017-04-29T04:21:17</time>
        <extensions><speed>1.53</speed></extensions>
      </trkpt>
      <trkpt lat="51.828537000" lon="7.589891000">
        <ele>68.5</ele>
        <time>2017-04-29T04:21:18</time>
        <extensions><speed>1.53</speed></extensions>
      </trkpt>
      <trkpt lat="51.828552000" lon="7.589886000">
        <ele>68.5</ele>
        <time>2017-04-29T04:21:19</time>
        <extensions><speed>1.54</speed></extensions>
      </trkpt>
      <trkpt lat="51.828564000" lon="7.589883000">
        <ele>68.5</ele>
        <time>2017-04-29T04:21:20</time>
        <extensions><speed>1.54</speed></extensions>
      </trkpt>
      <trkpt lat="51.828575000" lon="7.589882000">
        <ele>68.5</ele>
        <time>2017-04-29T04:21:21</time>
        <extensions><speed>1.50</speed></extensions>
      </trkpt>
      <trkpt lat="51.828590000" lon="7.589879000">
        <ele>68.5</ele>
        <time>2017-04-29T04:21:22</time>
        <extensions><speed>1.50</speed></extensions>
      </trkpt>
      <trkpt lat="51.828602000" lon="7.589875000">
        <ele>68.5</ele>
        <time>2017-04-29T04:21:23</time>
        <extensions><speed>1.48</speed></extensions>
      </trkpt>
      <trkpt lat="51.828617000" lon="7.589873000">
        <ele>68.5</ele>
        <time>2017-04-29T04:21:24</time>
        <extensions><speed>1.45</speed></extensions>
      </trkpt>
      <trkpt lat="51.828629000" lon="7.589872000">
        <ele>68.5</ele>
        <time>2017-04-29T04:21:25</time>
        <extensions><speed>1.45</speed></extensions>
      </trkpt>
      <trkpt lat="51.828640000" lon="7.589872000">
        <ele>68.5</ele>
        <time>2017-04-29T04:21:26</time>
        <extensions><speed>1.38</speed></extensions>
      </trkpt>
      <trkpt lat="51.828655000" lon="7.589870000">
        <ele>68.5</ele>
        <time>2017-04-29T04:21:27</time>
        <extensions><speed>1.38</speed></extensions>
      </trkpt>
      <trkpt lat="51.828663000" lon="7.589865000">
        <ele>68.5</ele>
        <time>2017-04-29T04:21:28</time>
        <extensions><speed>1.39</speed></extensions>
      </trkpt>
      <trkpt lat="51.828678000" lon="7.589858000">
        <ele>68.5</ele>
        <time>2017-04-29T04:21:29</time>
        <extensions><speed>1.37</speed></extensions>
      </trkpt>
      <trkpt lat="51.828690000" lon="7.589853000">
        <ele>68.6</ele>
        <time>2017-04-29T04:21:30</time>
        <extensions><speed>1.44</speed></extensions>
      </trkpt>
      <trkpt lat="51.828701000" lon="7.589848000">
        <ele>68.6</ele>
        <time>2017-04-29T04:21:31</time>
        <extensions><speed>1.45</speed></extensions>
      </trkpt>
      <trkpt lat="51.828712000" lon="7.589844000">
        <ele>68.6</ele>
        <time>2017-04-29T04:21:32</time>
        <extensions><speed>1.46</speed></extensions>
      </trkpt>
      <trkpt lat="51.828724000" lon="7.589839000">
        <ele>68.6</ele>
        <time>2017-04-29T04:21:33</time>
        <extensions><speed>1.43</speed></extensions>
      </trkpt>
      <trkpt lat="51.828735000" lon="7.589837000">
        <ele>68.6</ele>
        <time>2017-04-29T04:21:34</time>
        <extensions><speed>1.43</speed></extensions>
      </trkpt>
      <trkpt lat="51.828747000" lon="7.589837000">
        <ele>68.6</ele>
        <time>2017-04-29T04:21:35</time>
        <extensions><speed>1.37</speed></extensions>
      </trkpt>
      <trkpt lat="51.828754000" lon="7.589839000">
        <ele>68.6</ele>
        <time>2017-04-29T04:21:36</time>
        <extensions><speed>1.33</speed></extensions>
      </trkpt>
      <trkpt lat="51.828770000" lon="7.589839000">
        <ele>68.6</ele>
        <time>2017-04-29T04:21:37</time>
        <extensions><speed>1.33</speed></extensions>
      </trkpt>
      <trkpt lat="51.828785000" lon="7.589835000">
        <ele>68.6</ele>
        <time>2017-04-29T04:21:38</time>
        <extensions><speed>1.33</speed></extensions>
      </trkpt>
      <trkpt lat="51.828793000" lon="7.589833000">
        <ele>68.6</ele>
        <time>2017-04-29T04:21:39</time>
        <extensions><speed>1.33</speed></extensions>
      </trkpt>
      <trkpt lat="51.828804000" lon="7.589833000">
        <ele>68.6</ele>
        <time>2017-04-29T04:21:40</time>
        <extensions><speed>1.37</speed></extensions>
      </trkpt>
      <trkpt lat="51.828815000" lon="7.589830000">
        <ele>68.6</ele>
        <time>2017-04-29T04:21:41</time>
        <extensions><speed>1.41</speed></extensions>
      </trkpt>
      <trkpt lat="51.828827000" lon="7.589823000">
        <ele>68.6</ele>
        <time>2017-04-29T04:21:42</time>
        <extensions><speed>1.37</speed></extensions>
      </trkpt>
      <trkpt lat="51.828838000" lon="7.589820000">
        <ele>68.6</ele>
        <time>2017-04-29T04:21:43</time>
        <extensions><speed>1.35</speed></extensions>
      </trkpt>
      <trkpt lat="51.828854000" lon="7.589815000">
        <ele>68.6</ele>
        <time>2017-04-29T04:21:44</time>
        <extensions><speed>1.39</speed></extensions>
      </trkpt>
      <trkpt lat="51.828861000" lon="7.589810000">
        <ele>68.6</ele>
        <time>2017-04-29T04:21:45</time>
        <extensions><speed>1.41</speed></extensions>
      </trkpt>
      <trkpt lat="51.828876000" lon="7.589807000">
        <ele>68.6</ele>
        <time>2017-04-29T04:21:46</time>
        <extensions><speed>1.42</speed></extensions>
      </trkpt>
      <trkpt lat="51.828888000" lon="7.589805000">
        <ele>68.6</ele>
        <time>2017-04-29T04:21:47</time>
        <extensions><speed>1.50</speed></extensions>
      </trkpt>
      <trkpt lat="51.828907000" lon="7.589804000">
        <ele>68.5</ele>
        <time>2017-04-29T04:21:48</time>
        <extensions><speed>1.50</speed></extensions>
      </trkpt>
      <trkpt lat="51.828918000" lon="7.589802000">
        <ele>68.5</ele>
        <time>2017-04-29T04:21:49</time>
        <extensions><speed>1.51</speed></extensions>
      </trkpt>
      <trkpt lat="51.828930000" lon="7.589800000">
        <ele>68.5</ele>
        <time>2017-04-29T04:21:50</time>
        <extensions><speed>1.51</speed></extensions>
      </trkpt>
      <trkpt lat="51.828945000" lon="7.589797000">
        <ele>68.5</ele>
        <time>2017-04-29T04:21:51</time>
        <extensions><speed>1.49</speed></extensions>
      </trkpt>
      <trkpt lat="51.828957000" lon="7.589795000">
        <ele>68.5</ele>
        <time>2017-04-29T04:21:52</time>
        <extensions><speed>1.48</speed></extensions>
      </trkpt>
      <trkpt lat="51.828972000" lon="7.589792000">
        <ele>68.5</ele>
        <time>2017-04-29T04:21:53</time>
        <extensions><speed>1.48</speed></extensions>
      </trkpt>
      <trkpt lat="51.828983000" lon="7.589790000">
        <ele>68.5</ele>
        <time>2017-04-29T04:21:54</time>
        <extensions><speed>1.44</speed></extensions>
      </trkpt>
      <trkpt lat="51.828995000" lon="7.589785000">
        <ele>68.5</ele>
        <time>2017-04-29T04:21:55</time>
        <extensions><speed>1.43</speed></extensions>
      </trkpt>
      <trkpt lat="51.829010000" lon="7.589781000">
        <ele>68.5</ele>
        <time>2017-04-29T04:21:56</time>
        <extensions><speed>1.40</speed></extensions>
      </trkpt>
      <trkpt lat="51.829021000" lon="7.589778000">
        <ele>68.5</ele>
        <time>2017-04-29T04:21:57</time>
        <extensions><speed>1.40</speed></extensions>
      </trkpt>
      <trkpt lat="51.829037000" lon="7.589772000">
        <ele>68.5</ele>
        <time>2017-04-29T04:21:58</time>
        <extensions><speed>1.40</speed></extensions>
      </trkpt>
      <trkpt lat="51.829048000" lon="7.589767000">
        <ele>68.5</ele>
        <time>2017-04-29T04:21:59</time>
        <extensions><speed>1.42</speed></extensions>
      </trkpt>
      <trkpt lat="51.829060000" lon="7.589764000">
        <ele>68.5</ele>
        <time>2017-04-29T04:22:00</time>
        <extensions><speed>1.43</speed></extensions>
      </trkpt>
      <trkpt lat="51.829071000" lon="7.589762000">
        <ele>68.5</ele>
        <time>2017-04-29T04:22:01</time>
        <extensions><speed>1.43</speed></extensions>
      </trkpt>
      <trkpt lat="51.829079000" lon="7.589760000">
        <ele>68.5</ele>
        <time>2017-04-29T04:22:02</time>
        <extensions><speed>1.37</speed></extensions>
      </trkpt>
      <trkpt lat="51.829094000" lon="7.589758000">
        <ele>68.5</ele>
        <time>2017-04-29T04:22:03</time>
        <extensions><speed>1.38</speed></extensions>
      </trkpt>
      <trkpt lat="51.829109000" lon="7.589758000">
        <ele>68.5</ele>
        <time>2017-04-29T04:22:04</time>
        <extensions><speed>1.34</speed></extensions>
      </trkpt>
      <trkpt lat="51.829117000" lon="7.589760000">
        <ele>68.5</ele>
        <time>2017-04-29T04:22:05</time>
        <extensions><speed>1.30</speed></extensions>
      </trkpt>
      <trkpt lat="51.829128000" lon="7.589762000">
        <ele>68.5</ele>
        <time>2017-04-29T04:22:06</time>
        <extensions><speed>1.34</speed></extensions>
      </trkpt>
      <trkpt lat="51.829144000" lon="7.589762000">
        <ele>68.5</ele>
        <time>2017-04-29T04:22:07</time>
        <extensions><speed>1.34</speed></extensions>
      </trkpt>
      <trkpt lat="51.829147000" lon="7.589760000">
        <ele>68.5</ele>
        <time>2017-04-29T04:22:08</time>
        <extensions><speed>1.28</speed></extensions>
      </trkpt>
      <trkpt lat="51.829159000" lon="7.589765000">
        <ele>68.5</ele>
        <time>2017-04-29T04:22:09</time>
        <extensions><speed>1.23</speed></extensions>
      </trkpt>
      <trkpt lat="51.829174000" lon="7.589770000">
        <ele>68.5</ele>
        <time>2017-04-29T04:22:10</time>
        <extensions><speed>1.26</speed></extensions>
      </trkpt>
      <trkpt lat="51.829182000" lon="7.589780000">
        <ele>68.6</ele>
        <time>2017-04-29T04:22:11</time>
        <extensions><speed>1.25</speed></extensions>
      </trkpt>
      <trkpt lat="51.829189000" lon="7.589795000">
        <ele>68.6</ele>
        <time>2017-04-29T04:22:12</time>
        <extensions><speed>1.36</speed></extensions>
      </trkpt>
      <trkpt lat="51.829197000" lon="7.589810000">
        <ele>68.6</ele>
        <time>2017-04-29T04:22:13</time>
        <extensions><speed>1.38</speed></extensions>
      </trkpt>
      <trkpt lat="51.829205000" lon="7.589825000">
        <ele>68.6</ele>
        <time>2017-04-29T04:22:14</time>
        <extensions><speed>1.47</speed></extensions>
      </trkpt>
      <trkpt lat="51.829212000" lon="7.589840000">
        <ele>68.6</ele>
        <time>2017-04-29T04:22:15</time>
        <extensions><speed>1.44</speed></extensions>
      </trkpt>
      <trkpt lat="51.829216000" lon="7.589857000">
        <ele>68.7</ele>
        <time>2017-04-29T04:22:16</time>
        <extensions><speed>1.50</speed></extensions>
      </trkpt>
      <trkpt lat="51.829227000" lon="7.589875000">
        <ele>68.7</ele>
        <time>2017-04-29T04:22:17</time>
        <extensions><speed>1.51</speed></extensions>
      </trkpt>
      <trkpt lat="51.829239000" lon="7.589893000">
        <ele>68.8</ele>
        <time>2017-04-29T04:22:18</time>
        <extensions><speed>1.58</speed></extensions>
      </trkpt>
      <trkpt lat="51.829247000" lon="7.589912000">
        <ele>68.8</ele>
        <time>2017-04-29T04:22:19</time>
        <extensions><speed>1.60</speed></extensions>
      </trkpt>
      <trkpt lat="51.829258000" lon="7.589931000">
        <ele>68.9</ele>
        <time>2017-04-29T04:22:20</time>
        <extensions><speed>1.64</speed></extensions>
      </trkpt>
      <trkpt lat="51.829269000" lon="7.589949000">
        <ele>68.9</ele>
        <time>2017-04-29T04:22:21</time>
        <extensions><speed>1.64</speed></extensions>
      </trkpt>
      <trkpt lat="51.829277000" lon="7.589965000">
        <ele>69.0</ele>
        <time>2017-04-29T04:22:22</time>
        <extensions><speed>1.60</speed></extensions>
      </trkpt>
      <trkpt lat="51.829285000" lon="7.589982000">
        <ele>69.1</ele>
        <time>2017-04-29T04:22:23</time>
        <extensions><speed>1.55</speed></extensions>
      </trkpt>
      <trkpt lat="51.829292000" lon="7.589996000">
        <ele>69.1</ele>
        <time>2017-04-29T04:22:24</time>
        <extensions><speed>1.51</speed></extensions>
      </trkpt>
      <trkpt lat="51.829300000" lon="7.590012000">
        <ele>69.2</ele>
        <time>2017-04-29T04:22:25</time>
        <extensions><speed>1.46</speed></extensions>
      </trkpt>
      <trkpt lat="51.829308000" lon="7.590023000">
        <ele>69.2</ele>
        <time>2017-04-29T04:22:26</time>
        <extensions><speed>1.45</speed></extensions>
      </trkpt>
      <trkpt lat="51.829319000" lon="7.590036000">
        <ele>69.3</ele>
        <time>2017-04-29T04:22:27</time>
        <extensions><speed>1.44</speed></extensions>
      </trkpt>
      <trkpt lat="51.829330000" lon="7.590052000">
        <ele>69.4</ele>
        <time>2017-04-29T04:22:28</time>
        <extensions><speed>1.46</speed></extensions>
      </trkpt>
      <trkpt lat="51.829338000" lon="7.590072000">
        <ele>69.4</ele>
        <time>2017-04-29T04:22:29</time>
        <extensions><speed>1.47</speed></extensions>
      </trkpt>
      <trkpt lat="51.829342000" lon="7.590089000">
        <ele>69.4</ele>
        <time>2017-04-29T04:22:30</time>
        <extensions><speed>1.47</speed></extensions>
      </trkpt>
      <trkpt lat="51.829353000" lon="7.590105000">
        <ele>69.5</ele>
        <time>2017-04-29T04:22:31</time>
        <extensions><speed>1.45</speed></extensions>
      </trkpt>
      <trkpt lat="51.829361000" lon="7.590124000">
        <ele>69.5</ele>
        <time>2017-04-29T04:22:32</time>
        <extensions><speed>1.48</speed></extensions>
      </trkpt>
      <trkpt lat="51.829372000" lon="7.590138000">
        <ele>69.6</ele>
        <time>2017-04-29T04:22:33</time>
        <extensions><speed>1.45</speed></extensions>
      </trkpt>
      <trkpt lat="51.829376000" lon="7.590152000">
        <ele>69.6</ele>
        <time>2017-04-29T04:22:34</time>
        <extensions><speed>1.42</speed></extensions>
      </trkpt>
      <trkpt lat="51.829384000" lon="7.590167000">
        <ele>69.7</ele>
        <time>2017-04-29T04:22:35</time>
        <extensions><speed>1.40</speed></extensions>
      </trkpt>
      <trkpt lat="51.829391000" lon="7.590182000">
        <ele>69.7</ele>
        <time>2017-04-29T04:22:36</time>
        <extensions><speed>1.43</speed></extensions>
      </trkpt>
      <trkpt lat="51.829403000" lon="7.590196000">
        <ele>69.8</ele>
        <time>2017-04-29T04:22:37</time>
        <extensions><speed>1.38</speed></extensions>
      </trkpt>
      <trkpt lat="51.829407000" lon="7.590210000">
        <ele>69.8</ele>
        <time>2017-04-29T04:22:38</time>
        <extensions><speed>1.33</speed></extensions>
      </trkpt>
      <trkpt lat="51.829414000" lon="7.590227000">
        <ele>69.9</ele>
        <time>2017-04-29T04:22:39</time>
        <extensions><speed>1.39</speed></extensions>
      </trkpt>
      <trkpt lat="51.829422000" lon="7.590243000">
        <ele>69.9</ele>
        <time>2017-04-29T04:22:40</time>
        <extensions><speed>1.48</speed></extensions>
      </trkpt>
      <trkpt lat="51.829433000" lon="7.590261000">
        <ele>69.9</ele>
        <time>2017-04-29T04:22:41</time>
        <extensions><speed>1.45</speed></extensions>
      </trkpt>
      <trkpt lat="51.829437000" lon="7.590273000">
        <ele>69.8</ele>
        <time>2017-04-29T04:22:42</time>
        <extensions><speed>1.49</speed></extensions>
      </trkpt>
      <trkpt lat="51.829449000" lon="7.590285000">
        <ele>69.8</ele>
        <time>2017-04-29T04:22:43</time>
        <extensions><speed>1.49</speed></extensions>
      </trkpt>
      <trkpt lat="51.829456000" lon="7.590300000">
        <ele>69.8</ele>
        <time>2017-04-29T04:22:44</time>
        <extensions><speed>1.43</speed></extensions>
      </trkpt>
      <trkpt lat="51.829468000" lon="7.590317000">
        <ele>69.7</ele>
        <time>2017-04-29T04:22:45</time>
        <extensions><speed>1.43</speed></extensions>
      </trkpt>
      <trkpt lat="51.829475000" lon="7.590334000">
        <ele>69.7</ele>
        <time>2017-04-29T04:22:46</time>
        <extensions><speed>1.46</speed></extensions>
      </trkpt>
      <trkpt lat="51.829483000" lon="7.590352000">
        <ele>69.6</ele>
        <time>2017-04-29T04:22:47</time>
        <extensions><speed>1.47</speed></extensions>
      </trkpt>
      <trkpt lat="51.829491000" lon="7.590367000">
        <ele>69.5</ele>
        <time>2017-04-29T04:22:48</time>
        <extensions><speed>1.47</speed></extensions>
      </trkpt>
      <trkpt lat="51.829494000" lon="7.590378000">
        <ele>69.5</ele>
        <time>2017-04-29T04:22:49</time>
        <extensions><speed>1.33</speed></extensions>
      </trkpt>
      <trkpt lat="51.829502000" lon="7.590392000">
        <ele>69.4</ele>
        <time>2017-04-29T04:22:50</time>
        <extensions><speed>1.23</speed></extensions>
      </trkpt>
      <trkpt lat="51.829510000" lon="7.590402000">
        <ele>69.3</ele>
        <time>2017-04-29T04:22:51</time>
        <extensions><speed>1.17</speed></extensions>
      </trkpt>
      <trkpt lat="51.829517000" lon="7.590413000">
        <ele>69.3</ele>
        <time>2017-04-29T04:22:52</time>
        <extensions><speed>1.17</speed></extensions>
      </trkpt>
      <trkpt lat="51.829525000" lon="7.590428000">
        <ele>69.2</ele>
        <time>2017-04-29T04:22:53</time>
        <extensions><speed>1.28</speed></extensions>
      </trkpt>
      <trkpt lat="51.829536000" lon="7.590445000">
        <ele>69.2</ele>
        <time>2017-04-29T04:22:54</time>
        <extensions><speed>1.31</speed></extensions>
      </trkpt>
      <trkpt lat="51.829540000" lon="7.590460000">
        <ele>69.1</ele>
        <time>2017-04-29T04:22:55</time>
        <extensions><speed>1.32</speed></extensions>
      </trkpt>
      <trkpt lat="51.829548000" lon="7.590477000">
        <ele>69.0</ele>
        <time>2017-04-29T04:22:56</time>
        <extensions><speed>1.37</speed></extensions>
      </trkpt>
      <trkpt lat="51.829556000" lon="7.590495000">
        <ele>69.0</ele>
        <time>2017-04-29T04:22:57</time>
        <extensions><speed>1.38</speed></extensions>
      </trkpt>
      <trkpt lat="51.829563000" lon="7.590513000">
        <ele>68.9</ele>
        <time>2017-04-29T04:22:58</time>
        <extensions><speed>1.44</speed></extensions>
      </trkpt>
      <trkpt lat="51.829567000" lon="7.590532000">
        <ele>68.9</ele>
        <time>2017-04-29T04:22:59</time>
        <extensions><speed>1.40</speed></extensions>
      </trkpt>
      <trkpt lat="51.829571000" lon="7.590546000">
        <ele>68.8</ele>
        <time>2017-04-29T04:23:00</time>
        <extensions><speed>1.40</speed></extensions>
      </trkpt>
      <trkpt lat="51.829578000" lon="7.590565000">
        <ele>68.8</ele>
        <time>2017-04-29T04:23:01</time>
        <extensions><speed>1.33</speed></extensions>
      </trkpt>
      <trkpt lat="51.829586000" lon="7.590580000">
        <ele>68.7</ele>
        <time>2017-04-29T04:23:02</time>
        <extensions><speed>1.36</speed></extensions>
      </trkpt>
      <trkpt lat="51.829597000" lon="7.590591000">
        <ele>68.7</ele>
        <time>2017-04-29T04:23:03</time>
        <extensions><speed>1.35</speed></extensions>
      </trkpt>
      <trkpt lat="51.829601000" lon="7.590603000">
        <ele>68.6</ele>
        <time>2017-04-29T04:23:04</time>
        <extensions><speed>1.36</speed></extensions>
      </trkpt>
      <trkpt lat="51.829609000" lon="7.590620000">
        <ele>68.5</ele>
        <time>2017-04-29T04:23:05</time>
        <extensions><speed>1.41</speed></extensions>
      </trkpt>
      <trkpt lat="51.829617000" lon="7.590639000">
        <ele>68.5</ele>
        <time>2017-04-29T04:23:06</time>
        <extensions><speed>1.46</speed></extensions>
      </trkpt>
      <trkpt lat="51.829628000" lon="7.590655000">
        <ele>68.4</ele>
        <time>2017-04-29T04:23:07</time>
        <extensions><speed>1.46</speed></extensions>
      </trkpt>
      <trkpt lat="51.829636000" lon="7.590670000">
        <ele>68.4</ele>
        <time>2017-04-29T04:23:08</time>
        <extensions><speed>1.43</speed></extensions>
      </trkpt>
      <trkpt lat="51.829643000" lon="7.590684000">
        <ele>68.3</ele>
        <time>2017-04-29T04:23:09</time>
        <extensions><speed>1.43</speed></extensions>
      </trkpt>
      <trkpt lat="51.829655000" lon="7.590697000">
        <ele>68.3</ele>
        <time>2017-04-29T04:23:10</time>
        <extensions><speed>1.39</speed></extensions>
      </trkpt>
      <trkpt lat="51.829662000" lon="7.590709000">
        <ele>68.2</ele>
        <time>2017-04-29T04:23:11</time>
        <extensions><speed>1.35</speed></extensions>
      </trkpt>
      <trkpt lat="51.829670000" lon="7.590721000">
        <ele>68.2</ele>
        <time>2017-04-29T04:23:12</time>
        <extensions><speed>1.33</speed></extensions>
      </trkpt>
      <trkpt lat="51.829678000" lon="7.590735000">
        <ele>68.1</ele>
        <time>2017-04-29T04:23:13</time>
        <extensions><speed>1.32</speed></extensions>
      </trkpt>
      <trkpt lat="51.829685000" lon="7.590749000">
        <ele>68.1</ele>
        <time>2017-04-29T04:23:14</time>
        <extensions><speed>1.29</speed></extensions>
      </trkpt>
      <trkpt lat="51.829693000" lon="7.590763000">
        <ele>68.0</ele>
        <time>2017-04-29T04:23:15</time>
        <extensions><speed>1.28</speed></extensions>
      </trkpt>
      <trkpt lat="51.829700000" lon="7.590784000">
        <ele>68.0</ele>
        <time>2017-04-29T04:23:16</time>
        <extensions><speed>1.30</speed></extensions>
      </trkpt>
      <trkpt lat="51.829708000" lon="7.590802000">
        <ele>67.9</ele>
        <time>2017-04-29T04:23:17</time>
        <extensions><speed>1.38</speed></extensions>
      </trkpt>
      <trkpt lat="51.829716000" lon="7.590819000">
        <ele>67.9</ele>
        <time>2017-04-29T04:23:18</time>
        <extensions><speed>1.40</speed></extensions>
      </trkpt>
      <trkpt lat="51.829723000" lon="7.590837000">
        <ele>67.8</ele>
        <time>2017-04-29T04:23:19</time>
        <extensions><speed>1.45</speed></extensions>
      </trkpt>
      <trkpt lat="51.829731000" lon="7.590854000">
        <ele>67.8</ele>
        <time>2017-04-29T04:23:20</time>
        <extensions><speed>1.45</speed></extensions>
      </trkpt>
      <trkpt lat="51.829739000" lon="7.590868000">
        <ele>67.7</ele>
        <time>2017-04-29T04:23:21</time>
        <extensions><speed>1.42</speed></extensions>
      </trkpt>
      <trkpt lat="51.829746000" lon="7.590885000">
        <ele>67.7</ele>
        <time>2017-04-29T04:23:22</time>
        <extensions><speed>1.40</speed></extensions>
      </trkpt>
      <trkpt lat="51.829758000" lon="7.590900000">
        <ele>67.6</ele>
        <time>2017-04-29T04:23:23</time>
        <extensions><speed>1.41</speed></extensions>
      </trkpt>
      <trkpt lat="51.829765000" lon="7.590917000">
        <ele>67.6</ele>
        <time>2017-04-29T04:23:24</time>
        <extensions><speed>1.46</speed></extensions>
      </trkpt>
      <trkpt lat="51.829773000" lon="7.590933000">
        <ele>67.5</ele>
        <time>2017-04-29T04:23:25</time>
        <extensions><speed>1.46</speed></extensions>
      </trkpt>
      <trkpt lat="51.829781000" lon="7.590949000">
        <ele>67.5</ele>
        <time>2017-04-29T04:23:26</time>
        <extensions><speed>1.50</speed></extensions>
      </trkpt>
      <trkpt lat="51.829792000" lon="7.590963000">
        <ele>67.4</ele>
        <time>2017-04-29T04:23:27</time>
        <extensions><speed>1.55</speed></extensions>
      </trkpt>
      <trkpt lat="51.829796000" lon="7.590980000">
        <ele>67.4</ele>
        <time>2017-04-29T04:23:28</time>
        <extensions><speed>1.51</speed></extensions>
      </trkpt>
      <trkpt lat="51.829803000" lon="7.590996000">
        <ele>67.3</ele>
        <time>2017-04-29T04:23:29</time>
        <extensions><speed>1.46</speed></extensions>
      </trkpt>
      <trkpt lat="51.829811000" lon="7.591012000">
        <ele>67.2</ele>
        <time>2017-04-29T04:23:30</time>
        <extensions><speed>1.46</speed></extensions>
      </trkpt>
      <trkpt lat="51.829819000" lon="7.591025000">
        <ele>67.2</ele>
        <time>2017-04-29T04:23:31</time>
        <extensions><speed>1.38</speed></extensions>
      </trkpt>
      <trkpt lat="51.829826000" lon="7.591040000">
        <ele>67.1</ele>
        <time>2017-04-29T04:23:32</time>
        <extensions><speed>1.29</speed></extensions>
      </trkpt>
      <trkpt lat="51.829830000" lon="7.591053000">
        <ele>67.0</ele>
        <time>2017-04-29T04:23:33</time>
        <extensions><speed>1.29</speed></extensions>
      </trkpt>
      <trkpt lat="51.829838000" lon="7.591065000">
        <ele>67.0</ele>
        <time>2017-04-29T04:23:34</time>
        <extensions><speed>1.25</speed></extensions>
      </trkpt>
      <trkpt lat="51.829849000" lon="7.591078000">
        <ele>67.0</ele>
        <time>2017-04-29T04:23:35</time>
        <extensions><speed>1.31</speed></extensions>
      </trkpt>
      <trkpt lat="51.829857000" lon="7.591094000">
        <ele>66.9</ele>
        <time>2017-04-29T04:23:36</time>
        <extensions><speed>1.39</speed></extensions>
      </trkpt>
      <trkpt lat="51.829865000" lon="7.591106000">
        <ele>66.8</ele>
        <time>2017-04-29T04:23:37</time>
        <extensions><speed>1.39</speed></extensions>
      </trkpt>
      <trkpt lat="51.829872000" lon="7.591120000">
        <ele>66.8</ele>
        <time>2017-04-29T04:23:38</time>
        <extensions><speed>1.36</speed></extensions>
      </trkpt>
      <trkpt lat="51.829884000" lon="7.591134000">
        <ele>66.7</ele>
        <time>2017-04-29T04:23:39</time>
        <extensions><speed>1.38</speed></extensions>
      </trkpt>
      <trkpt lat="51.829895000" lon="7.591146000">
        <ele>66.6</ele>
        <time>2017-04-29T04:23:40</time>
        <extensions><speed>1.35</speed></extensions>
      </trkpt>
      <trkpt lat="51.829895000" lon="7.591162000">
        <ele>66.6</ele>
        <time>2017-04-29T04:23:41</time>
        <extensions><speed>1.33</speed></extensions>
      </trkpt>
      <trkpt lat="51.829906000" lon="7.591175000">
        <ele>66.5</ele>
        <time>2017-04-29T04:23:42</time>
        <extensions><speed>1.33</speed></extensions>
      </trkpt>
      <trkpt lat="51.829918000" lon="7.591192000">
        <ele>66.5</ele>
        <time>2017-04-29T04:23:43</time>
        <extensions><speed>1.35</speed></extensions>
      </trkpt>
      <trkpt lat="51.829929000" lon="7.591205000">
        <ele>66.4</ele>
        <time>2017-04-29T04:23:44</time>
        <extensions><speed>1.37</speed></extensions>
      </trkpt>
      <trkpt lat="51.829933000" lon="7.591222000">
        <ele>66.4</ele>
        <time>2017-04-29T04:23:45</time>
        <extensions><speed>1.39</speed></extensions>
      </trkpt>
      <trkpt lat="51.829945000" lon="7.591235000">
        <ele>66.3</ele>
        <time>2017-04-29T04:23:46</time>
        <extensions><speed>1.41</speed></extensions>
      </trkpt>
      <trkpt lat="51.829956000" lon="7.591248000">
        <ele>66.2</ele>
        <time>2017-04-29T04:23:47</time>
        <extensions><speed>1.41</speed></extensions>
      </trkpt>
      <trkpt lat="51.829964000" lon="7.591259000">
        <ele>66.2</ele>
        <time>2017-04-29T04:23:48</time>
        <extensions><speed>1.41</speed></extensions>
      </trkpt>
      <trkpt lat="51.829975000" lon="7.591270000">
        <ele>66.1</ele>
        <time>2017-04-29T04:23:49</time>
        <extensions><speed>1.39</speed></extensions>
      </trkpt>
      <trkpt lat="51.829990000" lon="7.591281000">
        <ele>66.1</ele>
        <time>2017-04-29T04:23:50</time>
        <extensions><speed>1.39</speed></extensions>
      </trkpt>
      <trkpt lat="51.830002000" lon="7.591293000">
        <ele>66.0</ele>
        <time>2017-04-29T04:23:51</time>
        <extensions><speed>1.42</speed></extensions>
      </trkpt>
      <trkpt lat="51.830013000" lon="7.591302000">
        <ele>66.0</ele>
        <time>2017-04-29T04:23:52</time>
        <extensions><speed>1.45</speed></extensions>
      </trkpt>
      <trkpt lat="51.830025000" lon="7.591310000">
        <ele>65.9</ele>
        <time>2017-04-29T04:23:53</time>
        <extensions><speed>1.43</speed></extensions>
      </trkpt>
      <trkpt lat="51.830032000" lon="7.591315000">
        <ele>65.9</ele>
        <time>2017-04-29T04:23:54</time>
        <extensions><speed>1.39</speed></extensions>
      </trkpt>
      <trkpt lat="51.830048000" lon="7.591320000">
        <ele>65.9</ele>
        <time>2017-04-29T04:23:55</time>
        <extensions><speed>1.41</speed></extensions>
      </trkpt>
      <trkpt lat="51.830059000" lon="7.591327000">
        <ele>65.8</ele>
        <time>2017-04-29T04:23:56</time>
        <extensions><speed>1.41</speed></extensions>
      </trkpt>
      <trkpt lat="51.830074000" lon="7.591332000">
        <ele>65.8</ele>
        <time>2017-04-29T04:23:57</time>
        <extensions><speed>1.43</speed></extensions>
      </trkpt>
      <trkpt lat="51.830090000" lon="7.591339000">
        <ele>65.8</ele>
        <time>2017-04-29T04:23:58</time>
        <extensions><speed>1.47</speed></extensions>
      </trkpt>
      <trkpt lat="51.830101000" lon="7.591342000">
        <ele>65.7</ele>
        <time>2017-04-29T04:23:59</time>
        <extensions><speed>1.48</speed></extensions>
      </trkpt>
      <trkpt lat="51.830116000" lon="7.591345000">
        <ele>65.7</ele>
        <time>2017-04-29T04:24:00</time>
        <extensions><speed>1.46</speed></extensions>
      </trkpt>
      <trkpt lat="51.830128000" lon="7.591348000">
        <ele>65.7</ele>
        <time>2017-04-29T04:24:01</time>
        <extensions><speed>1.41</speed></extensions>
      </trkpt>
      <trkpt lat="51.830139000" lon="7.591350000">
        <ele>65.7</ele>
        <time>2017-04-29T04:24:02</time>
        <extensions><speed>1.38</speed></extensions>
      </trkpt>
      <trkpt lat="51.830154000" lon="7.591352000">
        <ele>65.6</ele>
        <time>2017-04-29T04:24:03</time>
        <extensions><speed>1.41</speed></extensions>
      </trkpt>
      <trkpt lat="51.830166000" lon="7.591357000">
        <ele>65.6</ele>
        <time>2017-04-29T04:24:04</time>
        <extensions><speed>1.40</speed></extensions>
      </trkpt>
      <trkpt lat="51.830177000" lon="7.591367000">
        <ele>65.6</ele>
        <time>2017-04-29T04:24:05</time>
        <extensions><speed>1.42</speed></extensions>
      </trkpt>
      <trkpt lat="51.830189000" lon="7.591375000">
        <ele>65.6</ele>
        <time>2017-04-29T04:24:06</time>
        <extensions><speed>1.41</speed></extensions>
      </trkpt>
      <trkpt lat="51.830204000" lon="7.591377000">
        <ele>65.6</ele>
        <time>2017-04-29T04:24:07</time>
        <extensions><speed>1.41</speed></extensions>
      </trkpt>
      <trkpt lat="51.830219000" lon="7.591380000">
        <ele>65.5</ele>
        <time>2017-04-29T04:24:08</time>
        <extensions><speed>1.42</speed></extensions>
      </trkpt>
      <trkpt lat="51.830231000" lon="7.591383000">
        <ele>65.5</ele>
        <time>2017-04-29T04:24:09</time>
        <extensions><speed>1.42</speed></extensions>
      </trkpt>
      <trkpt lat="51.830242000" lon="7.591388000">
        <ele>65.5</ele>
        <time>2017-04-29T04:24:10</time>
        <extensions><speed>1.38</speed></extensions>
      </trkpt>
      <trkpt lat="51.830254000" lon="7.591397000">
        <ele>65.5</ele>
        <time>2017-04-29T04:24:11</time>
        <extensions><speed>1.41</speed></extensions>
      </trkpt>
      <trkpt lat="51.830265000" lon="7.591400000">
        <ele>65.5</ele>
        <time>2017-04-29T04:24:12</time>
        <extensions><speed>1.41</speed></extensions>
      </trkpt>
      <trkpt lat="51.830276000" lon="7.591403000">
        <ele>65.5</ele>
        <time>2017-04-29T04:24:13</time>
        <extensions><speed>1.40</speed></extensions>
      </trkpt>
      <trkpt lat="51.830288000" lon="7.591407000">
        <ele>65.4</ele>
        <time>2017-04-29T04:24:14</time>
        <extensions><speed>1.42</speed></extensions>
      </trkpt>
      <trkpt lat="51.830303000" lon="7.591409000">
        <ele>65.4</ele>
        <time>2017-04-29T04:24:15</time>
        <extensions><speed>1.43</speed></extensions>
      </trkpt>
      <trkpt lat="51.830318000" lon="7.591412000">
        <ele>65.4</ele>
        <time>2017-04-29T04:24:16</time>
        <extensions><speed>1.44</speed></extensions>
      </trkpt>
      <trkpt lat="51.830330000" lon="7.591414000">
        <ele>65.4</ele>
        <time>2017-04-29T04:24:17</time>
        <extensions><speed>1.47</speed></extensions>
      </trkpt>
      <trkpt lat="51.830345000" lon="7.591414000">
        <ele>65.4</ele>
        <time>2017-04-29T04:24:18</time>
        <extensions><speed>1.47</speed></extensions>
      </trkpt>
      <trkpt lat="51.830357000" lon="7.591418000">
        <ele>65.4</ele>
        <time>2017-04-29T04:24:19</time>
        <extensions><speed>1.50</speed></extensions>
      </trkpt>
      <trkpt lat="51.830372000" lon="7.591423000">
        <ele>65.4</ele>
        <time>2017-04-29T04:24:20</time>
        <extensions><speed>1.49</speed></extensions>
      </trkpt>
      <trkpt lat="51.830383000" lon="7.591426000">
        <ele>65.3</ele>
        <time>2017-04-29T04:24:21</time>
        <extensions><speed>1.48</speed></extensions>
      </trkpt>
      <trkpt lat="51.830395000" lon="7.591428000">
        <ele>65.3</ele>
        <time>2017-04-29T04:24:22</time>
        <extensions><speed>1.47</speed></extensions>
      </trkpt>
      <trkpt lat="51.830410000" lon="7.591432000">
        <ele>65.3</ele>
        <time>2017-04-29T04:24:23</time>
        <extensions><speed>1.48</speed></extensions>
      </trkpt>
      <trkpt lat="51.830418000" lon="7.591437000">
        <ele>65.3</ele>
        <time>2017-04-29T04:24:24</time>
        <extensions><speed>1.43</speed></extensions>
      </trkpt>
      <trkpt lat="51.830433000" lon="7.591440000">
        <ele>65.3</ele>
        <time>2017-04-29T04:24:25</time>
        <extensions><speed>1.44</speed></extensions>
      </trkpt>
      <trkpt lat="51.830448000" lon="7.591444000">
        <ele>65.3</ele>
        <time>2017-04-29T04:24:26</time>
        <extensions><speed>1.41</speed></extensions>
      </trkpt>
      <trkpt lat="51.830456000" lon="7.591447000">
        <ele>65.3</ele>
        <time>2017-04-29T04:24:27</time>
        <extensions><speed>1.38</speed></extensions>
      </trkpt>
      <trkpt lat="51.830467000" lon="7.591445000">
        <ele>65.3</ele>
        <time>2017-04-29T04:24:28</time>
        <extensions><speed>1.38</speed></extensions>
      </trkpt>
      <trkpt lat="51.830482000" lon="7.591444000">
        <ele>65.3</ele>
        <time>2017-04-29T04:24:29</time>
        <extensions><speed>1.40</speed></extensions>
      </trkpt>
      <trkpt lat="51.830494000" lon="7.591442000">
        <ele>65.2</ele>
        <time>2017-04-29T04:24:30</time>
        <extensions><speed>1.41</speed></extensions>
      </trkpt>
      <trkpt lat="51.830505000" lon="7.591442000">
        <ele>65.2</ele>
        <time>2017-04-29T04:24:31</time>
        <extensions><speed>1.41</speed></extensions>
      </trkpt>
      <trkpt lat="51.830513000" lon="7.591440000">
        <ele>65.2</ele>
        <time>2017-04-29T04:24:32</time>
        <extensions><speed>1.38</speed></extensions>
      </trkpt>
      <trkpt lat="51.830521000" lon="7.591444000">
        <ele>65.2</ele>
        <time>2017-04-29T04:24:33</time>
        <extensions><speed>1.25</speed></extensions>
      </trkpt>
      <trkpt lat="51.830532000" lon="7.591449000">
        <ele>65.2</ele>
        <time>2017-04-29T04:24:34</time>
        <extensions><speed>1.15</speed></extensions>
      </trkpt>
      <trkpt lat="51.830544000" lon="7.591451000">
        <ele>65.2</ele>
        <time>2017-04-29T04:24:35</time>
        <extensions><speed>1.15</speed></extensions>
      </trkpt>
      <trkpt lat="51.830551000" lon="7.591458000">
        <ele>65.2</ele>
        <time>2017-04-29T04:24:36</time>
        <extensions><speed>1.12</speed></extensions>
      </trkpt>
      <trkpt lat="51.830566000" lon="7.591463000">
        <ele>65.2</ele>
        <time>2017-04-29T04:24:37</time>
        <extensions><speed>1.19</speed></extensions>
      </trkpt>
      <trkpt lat="51.830578000" lon="7.591465000">
        <ele>65.2</ele>
        <time>2017-04-29T04:24:38</time>
        <extensions><speed>1.25</speed></extensions>
      </trkpt>
      <trkpt lat="51.830589000" lon="7.591462000">
        <ele>65.2</ele>
        <time>2017-04-29T04:24:39</time>
        <extensions><speed>1.25</speed></extensions>
      </trkpt>
      <trkpt lat="51.830601000" lon="7.591458000">
        <ele>65.2</ele>
        <time>2017-04-29T04:24:40</time>
        <extensions><speed>1.28</speed></extensions>
      </trkpt>
      <trkpt lat="51.830612000" lon="7.591460000">
        <ele>65.2</ele>
        <time>2017-04-29T04:24:41</time>
        <extensions><speed>1.28</speed></extensions>
      </trkpt>
      <trkpt lat="51.830624000" lon="7.591460000">
        <ele>65.2</ele>
        <time>2017-04-29T04:24:42</time>
        <extensions><speed>1.31</speed></extensions>
      </trkpt>
      <trkpt lat="51.830643000" lon="7.591458000">
        <ele>65.2</ele>
        <time>2017-04-29T04:24:43</time>
        <extensions><speed>1.37</speed></extensions>
      </trkpt>
      <trkpt lat="51.830654000" lon="7.591458000">
        <ele>65.2</ele>
        <time>2017-04-29T04:24:44</time>
        <extensions><speed>1.39</speed></extensions>
      </trkpt>
      <trkpt lat="51.830666000" lon="7.591458000">
        <ele>65.2</ele>
        <time>2017-04-29T04:24:45</time>
        <extensions><speed>1.42</speed></extensions>
      </trkpt>
      <trkpt lat="51.830681000" lon="7.591458000">
        <ele>65.2</ele>
        <time>2017-04-29T04:24:46</time>
        <extensions><speed>1.46</speed></extensions>
      </trkpt>
      <trkpt lat="51.830692000" lon="7.591460000">
        <ele>65.2</ele>
        <time>2017-04-29T04:24:47</time>
        <extensions><speed>1.44</speed></extensions>
      </trkpt>
      <trkpt lat="51.830711000" lon="7.591462000">
        <ele>65.2</ele>
        <time>2017-04-29T04:24:48</time>
        <extensions><speed>1.44</speed></extensions>
      </trkpt>
      <trkpt lat="51.830723000" lon="7.591460000">
        <ele>65.2</ele>
        <time>2017-04-29T04:24:49</time>
        <extensions><speed>1.44</speed></extensions>
      </trkpt>
      <trkpt lat="51.830734000" lon="7.591460000">
        <ele>65.2</ele>
        <time>2017-04-29T04:24:50</time>
        <extensions><speed>1.43</speed></extensions>
      </trkpt>
      <trkpt lat="51.830746000" lon="7.591458000">
        <ele>65.2</ele>
        <time>2017-04-29T04:24:51</time>
        <extensions><speed>1.48</speed></extensions>
      </trkpt>
      <trkpt lat="51.830761000" lon="7.591458000">
        <ele>65.1</ele>
        <time>2017-04-29T04:24:52</time>
        <extensions><speed>1.52</speed></extensions>
      </trkpt>
      <trkpt lat="51.830776000" lon="7.591458000">
        <ele>65.1</ele>
        <time>2017-04-29T04:24:53</time>
        <extensions><speed>1.50</speed></extensions>
      </trkpt>
      <trkpt lat="51.830791000" lon="7.591456000">
        <ele>65.1</ele>
        <time>2017-04-29T04:24:54</time>
        <extensions><speed>1.53</speed></extensions>
      </trkpt>
      <trkpt lat="51.830803000" lon="7.591456000">
        <ele>65.1</ele>
        <time>2017-04-29T04:24:55</time>
        <extensions><speed>1.51</speed></extensions>
      </trkpt>
      <trkpt lat="51.830814000" lon="7.591458000">
        <ele>65.1</ele>
        <time>2017-04-29T04:24:56</time>
        <extensions><speed>1.49</speed></extensions>
      </trkpt>
      <trkpt lat="51.830830000" lon="7.591458000">
        <ele>65.1</ele>
        <time>2017-04-29T04:24:57</time>
        <extensions><speed>1.44</speed></extensions>
      </trkpt>
      <trkpt lat="51.830841000" lon="7.591460000">
        <ele>65.0</ele>
        <time>2017-04-29T04:24:58</time>
        <extensions><speed>1.40</speed></extensions>
      </trkpt>
      <trkpt lat="51.830856000" lon="7.591460000">
        <ele>65.0</ele>
        <time>2017-04-29T04:24:59</time>
        <extensions><speed>1.37</speed></extensions>
      </trkpt>
      <trkpt lat="51.830872000" lon="7.591460000">
        <ele>64.9</ele>
        <time>2017-04-29T04:25:00</time>
        <extensions><speed>1.37</speed></extensions>
      </trkpt>
      <trkpt lat="51.830883000" lon="7.591460000">
        <ele>64.9</ele>
        <time>2017-04-29T04:25:01</time>
        <extensions><speed>1.37</speed></extensions>
      </trkpt>
      <trkpt lat="51.830898000" lon="7.591460000">
        <ele>64.8</ele>
        <time>2017-04-29T04:25:02</time>
        <extensions><speed>1.37</speed></extensions>
      </trkpt>
      <trkpt lat="51.830910000" lon="7.591458000">
        <ele>64.8</ele>
        <time>2017-04-29T04:25:03</time>
        <extensions><speed>1.39</speed></extensions>
      </trkpt>
      <trkpt lat="51.830921000" lon="7.591453000">
        <ele>64.7</ele>
        <time>2017-04-29T04:25:04</time>
        <extensions><speed>1.38</speed></extensions>
      </trkpt>
      <trkpt lat="51.830936000" lon="7.591453000">
        <ele>64.6</ele>
        <time>2017-04-29T04:25:05</time>
        <extensions><speed>1.41</speed></extensions>
      </trkpt>
      <trkpt lat="51.830944000" lon="7.591453000">
        <ele>64.6</ele>
        <time>2017-04-29T04:25:06</time>
        <extensions><speed>1.43</speed></extensions>
      </trkpt>
      <trkpt lat="51.830959000" lon="7.591456000">
        <ele>64.5</ele>
        <time>2017-04-29T04:25:07</time>
        <extensions><speed>1.45</speed></extensions>
      </trkpt>
      <trkpt lat="51.830971000" lon="7.591460000">
        <ele>64.5</ele>
        <time>2017-04-29T04:25:08</time>
        <extensions><speed>1.43</speed></extensions>
      </trkpt>
      <trkpt lat="51.830990000" lon="7.591462000">
        <ele>64.4</ele>
        <time>2017-04-29T04:25:09</time>
        <extensions><speed>1.48</speed></extensions>
      </trkpt>
      <trkpt lat="51.831005000" lon="7.591460000">
        <ele>64.4</ele>
        <time>2017-04-29T04:25:10</time>
        <extensions><speed>1.48</speed></extensions>
      </trkpt>
      <trkpt lat="51.831017000" lon="7.591460000">
        <ele>64.3</ele>
        <time>2017-04-29T04:25:11</time>
        <extensions><speed>1.49</speed></extensions>
      </trkpt>
      <trkpt lat="51.831032000" lon="7.591462000">
        <ele>64.2</ele>
        <time>2017-04-29T04:25:12</time>
        <extensions><speed>1.53</speed></extensions>
      </trkpt>
      <trkpt lat="51.831043000" lon="7.591463000">
        <ele>64.2</ele>
        <time>2017-04-29T04:25:13</time>
        <extensions><speed>1.53</speed></extensions>
      </trkpt>
      <trkpt lat="51.831059000" lon="7.591463000">
        <ele>64.1</ele>
        <time>2017-04-29T04:25:14</time>
        <extensions><speed>1.52</speed></extensions>
      </trkpt>
      <trkpt lat="51.831070000" lon="7.591463000">
        <ele>64.1</ele>
        <time>2017-04-29T04:25:15</time>
        <extensions><speed>1.49</speed></extensions>
      </trkpt>
      <trkpt lat="51.831081000" lon="7.591465000">
        <ele>64.0</ele>
        <time>2017-04-29T04:25:16</time>
        <extensions><speed>1.45</speed></extensions>
      </trkpt>
      <trkpt lat="51.831097000" lon="7.591467000">
        <ele>63.9</ele>
        <time>2017-04-29T04:25:17</time>
        <extensions><speed>1.45</speed></extensions>
      </trkpt>
      <trkpt lat="51.831112000" lon="7.591467000">
        <ele>63.9</ele>
        <time>2017-04-29T04:25:18</time>
        <extensions><speed>1.47</speed></extensions>
      </trkpt>
      <trkpt lat="51.831127000" lon="7.591465000">
        <ele>63.8</ele>
        <time>2017-04-29T04:25:19</time>
        <extensions><speed>1.46</speed></extensions>
      </trkpt>
      <trkpt lat="51.831139000" lon="7.591467000">
        <ele>63.8</ele>
        <time>2017-04-29T04:25:20</time>
        <extensions><speed>1.47</speed></extensions>
      </trkpt>
      <trkpt lat="51.831150000" lon="7.591467000">
        <ele>63.7</ele>
        <time>2017-04-29T04:25:21</time>
        <extensions><speed>1.48</speed></extensions>
      </trkpt>
      <trkpt lat="51.831165000" lon="7.591468000">
        <ele>63.6</ele>
        <time>2017-04-29T04:25:22</time>
        <extensions><speed>1.46</speed></extensions>
      </trkpt>
      <trkpt lat="51.831181000" lon="7.591472000">
        <ele>63.6</ele>
        <time>2017-04-29T04:25:23</time>
        <extensions><speed>1.46</speed></extensions>
      </trkpt>
      <trkpt lat="51.831200000" lon="7.591475000">
        <ele>63.5</ele>
        <time>2017-04-29T04:25:24</time>
        <extensions><speed>1.47</speed></extensions>
      </trkpt>
      <trkpt lat="51.831211000" lon="7.591477000">
        <ele>63.5</ele>
        <time>2017-04-29T04:25:25</time>
        <extensions><speed>1.50</speed></extensions>
      </trkpt>
      <trkpt lat="51.831223000" lon="7.591477000">
        <ele>63.4</ele>
        <time>2017-04-29T04:25:26</time>
        <extensions><speed>1.48</speed></extensions>
      </trkpt>
      <trkpt lat="51.831234000" lon="7.591479000">
        <ele>63.3</ele>
        <time>2017-04-29T04:25:27</time>
        <extensions><speed>1.50</speed></extensions>
      </trkpt>
      <trkpt lat="51.831249000" lon="7.591480000">
        <ele>63.3</ele>
        <time>2017-04-29T04:25:28</time>
        <extensions><speed>1.50</speed></extensions>
      </trkpt>
      <trkpt lat="51.831264000" lon="7.591483000">
        <ele>63.2</ele>
        <time>2017-04-29T04:25:29</time>
        <extensions><speed>1.52</speed></extensions>
      </trkpt>
      <trkpt lat="51.831280000" lon="7.591486000">
        <ele>63.1</ele>
        <time>2017-04-29T04:25:30</time>
        <extensions><speed>1.48</speed></extensions>
      </trkpt>
      <trkpt lat="51.831291000" lon="7.591491000">
        <ele>63.1</ele>
        <time>2017-04-29T04:25:31</time>
        <extensions><speed>1.49</speed></extensions>
      </trkpt>
      <trkpt lat="51.831303000" lon="7.591500000">
        <ele>63.0</ele>
        <time>2017-04-29T04:25:32</time>
        <extensions><speed>1.47</speed></extensions>
      </trkpt>
      <trkpt lat="51.831318000" lon="7.591507000">
        <ele>62.9</ele>
        <time>2017-04-29T04:25:33</time>
        <extensions><speed>1.44</speed></extensions>
      </trkpt>
      <trkpt lat="51.831329000" lon="7.591510000">
        <ele>62.9</ele>
        <time>2017-04-29T04:25:34</time>
        <extensions><speed>1.44</speed></extensions>
      </trkpt>
      <trkpt lat="51.831345000" lon="7.591512000">
        <ele>62.9</ele>
        <time>2017-04-29T04:25:35</time>
        <extensions><speed>1.47</speed></extensions>
      </trkpt>
      <trkpt lat="51.831360000" lon="7.591516000">
        <ele>62.8</ele>
        <time>2017-04-29T04:25:36</time>
        <extensions><speed>1.46</speed></extensions>
      </trkpt>
      <trkpt lat="51.831371000" lon="7.591521000">
        <ele>62.7</ele>
        <time>2017-04-29T04:25:37</time>
        <extensions><speed>1.49</speed></extensions>
      </trkpt>
      <trkpt lat="51.831383000" lon="7.591525000">
        <ele>62.7</ele>
        <time>2017-04-29T04:25:38</time>
        <extensions><speed>1.49</speed></extensions>
      </trkpt>
      <trkpt lat="51.831394000" lon="7.591530000">
        <ele>62.6</ele>
        <time>2017-04-29T04:25:39</time>
        <extensions><speed>1.49</speed></extensions>
      </trkpt>
      <trkpt lat="51.831409000" lon="7.591535000">
        <ele>62.5</ele>
        <time>2017-04-29T04:25:40</time>
        <extensions><speed>1.47</speed></extensions>
      </trkpt>
      <trkpt lat="51.831425000" lon="7.591542000">
        <ele>62.4</ele>
        <time>2017-04-29T04:25:41</time>
        <extensions><speed>1.45</speed></extensions>
      </trkpt>
      <trkpt lat="51.831432000" lon="7.591548000">
        <ele>62.4</ele>
        <time>2017-04-29T04:25:42</time>
        <extensions><speed>1.41</speed></extensions>
      </trkpt>
      <trkpt lat="51.831448000" lon="7.591553000">
        <ele>62.3</ele>
        <time>2017-04-29T04:25:43</time>
        <extensions><speed>1.41</speed></extensions>
      </trkpt>
      <trkpt lat="51.831459000" lon="7.591558000">
        <ele>62.2</ele>
        <time>2017-04-29T04:25:44</time>
        <extensions><speed>1.41</speed></extensions>
      </trkpt>
      <trkpt lat="51.831474000" lon="7.591565000">
        <ele>62.2</ele>
        <time>2017-04-29T04:25:45</time>
        <extensions><speed>1.41</speed></extensions>
      </trkpt>
      <trkpt lat="51.831490000" lon="7.591570000">
        <ele>62.1</ele>
        <time>2017-04-29T04:25:46</time>
        <extensions><speed>1.43</speed></extensions>
      </trkpt>
      <trkpt lat="51.831497000" lon="7.591575000">
        <ele>62.0</ele>
        <time>2017-04-29T04:25:47</time>
        <extensions><speed>1.47</speed></extensions>
      </trkpt>
      <trkpt lat="51.831512000" lon="7.591582000">
        <ele>62.0</ele>
        <time>2017-04-29T04:25:48</time>
        <extensions><speed>1.51</speed></extensions>
      </trkpt>
      <trkpt lat="51.831524000" lon="7.591587000">
        <ele>61.9</ele>
        <time>2017-04-29T04:25:49</time>
        <extensions><speed>1.48</speed></extensions>
      </trkpt>
      <trkpt lat="51.831539000" lon="7.591591000">
        <ele>61.9</ele>
        <time>2017-04-29T04:25:50</time>
        <extensions><speed>1.50</speed></extensions>
      </trkpt>
      <trkpt lat="51.831551000" lon="7.591600000">
        <ele>61.8</ele>
        <time>2017-04-29T04:25:51</time>
        <extensions><speed>1.51</speed></extensions>
      </trkpt>
      <trkpt lat="51.831562000" lon="7.591607000">
        <ele>61.7</ele>
        <time>2017-04-29T04:25:52</time>
        <extensions><speed>1.50</speed></extensions>
      </trkpt>
      <trkpt lat="51.831573000" lon="7.591612000">
        <ele>61.7</ele>
        <time>2017-04-29T04:25:53</time>
        <extensions><speed>1.49</speed></extensions>
      </trkpt>
      <trkpt lat="51.831589000" lon="7.591617000">
        <ele>61.6</ele>
        <time>2017-04-29T04:25:54</time>
        <extensions><speed>1.49</speed></extensions>
      </trkpt>
      <trkpt lat="51.831600000" lon="7.591623000">
        <ele>61.6</ele>
        <time>2017-04-29T04:25:55</time>
        <extensions><speed>1.49</speed></extensions>
      </trkpt>
      <trkpt lat="51.831615000" lon="7.591628000">
        <ele>61.5</ele>
        <time>2017-04-29T04:25:56</time>
        <extensions><speed>1.47</speed></extensions>
      </trkpt>
      <trkpt lat="51.831627000" lon="7.591635000">
        <ele>61.5</ele>
        <time>2017-04-29T04:25:57</time>
        <extensions><speed>1.45</speed></extensions>
      </trkpt>
      <trkpt lat="51.831638000" lon="7.591640000">
        <ele>61.4</ele>
        <time>2017-04-29T04:25:58</time>
        <extensions><speed>1.44</speed></extensions>
      </trkpt>
      <trkpt lat="51.831650000" lon="7.591649000">
        <ele>61.4</ele>
        <time>2017-04-29T04:25:59</time>
        <extensions><speed>1.44</speed></extensions>
      </trkpt>
      <trkpt lat="51.831661000" lon="7.591655000">
        <ele>61.3</ele>
        <time>2017-04-29T04:26:00</time>
        <extensions><speed>1.44</speed></extensions>
      </trkpt>
      <trkpt lat="51.831676000" lon="7.591661000">
        <ele>61.3</ele>
        <time>2017-04-29T04:26:01</time>
        <extensions><speed>1.44</speed></extensions>
      </trkpt>
      <trkpt lat="51.831688000" lon="7.591665000">
        <ele>61.2</ele>
        <time>2017-04-29T04:26:02</time>
        <extensions><speed>1.47</speed></extensions>
      </trkpt>
      <trkpt lat="51.831703000" lon="7.591670000">
        <ele>61.1</ele>
        <time>2017-04-29T04:26:03</time>
        <extensions><speed>1.47</speed></extensions>
      </trkpt>
      <trkpt lat="51.831715000" lon="7.591673000">
        <ele>61.1</ele>
        <time>2017-04-29T04:26:04</time>
        <extensions><speed>1.48</speed></extensions>
      </trkpt>
      <trkpt lat="51.831726000" lon="7.591679000">
        <ele>61.0</ele>
        <time>2017-04-29T04:26:05</time>
        <extensions><speed>1.50</speed></extensions>
      </trkpt>
      <trkpt lat="51.831741000" lon="7.591683000">
        <ele>61.0</ele>
        <time>2017-04-29T04:26:06</time>
        <extensions><speed>1.50</speed></extensions>
      </trkpt>
      <trkpt lat="51.831753000" lon="7.591691000">
        <ele>60.9</ele>
        <time>2017-04-29T04:26:07</time>
        <extensions><speed>1.47</speed></extensions>
      </trkpt>
      <trkpt lat="51.831764000" lon="7.591695000">
        <ele>60.9</ele>
        <time>2017-04-29T04:26:08</time>
        <extensions><speed>1.51</speed></extensions>
      </trkpt>
      <trkpt lat="51.831776000" lon="7.591702000">
        <ele>60.8</ele>
        <time>2017-04-29T04:26:09</time>
        <extensions><speed>1.49</speed></extensions>
      </trkpt>
      <trkpt lat="51.831787000" lon="7.591710000">
        <ele>60.8</ele>
        <time>2017-04-29T04:26:10</time>
        <extensions><speed>1.46</speed></extensions>
      </trkpt>
      <trkpt lat="51.831799000" lon="7.591715000">
        <ele>60.7</ele>
        <time>2017-04-29T04:26:11</time>
        <extensions><speed>1.39</speed></extensions>
      </trkpt>
      <trkpt lat="51.831814000" lon="7.591719000">
        <ele>60.6</ele>
        <time>2017-04-29T04:26:12</time>
        <extensions><speed>1.39</speed></extensions>
      </trkpt>
      <trkpt lat="51.831821000" lon="7.591723000">
        <ele>60.6</ele>
        <time>2017-04-29T04:26:13</time>
        <extensions><speed>1.39</speed></extensions>
      </trkpt>
      <trkpt lat="51.831837000" lon="7.591728000">
        <ele>60.5</ele>
        <time>2017-04-29T04:26:14</time>
        <extensions><speed>1.44</speed></extensions>
      </trkpt>
      <trkpt lat="51.831848000" lon="7.591732000">
        <ele>60.5</ele>
        <time>2017-04-29T04:26:15</time>
        <extensions><speed>1.47</speed></extensions>
      </trkpt>
      <trkpt lat="51.831860000" lon="7.591733000">
        <ele>60.4</ele>
        <time>2017-04-29T04:26:16</time>
        <extensions><speed>1.48</speed></extensions>
      </trkpt>
      <trkpt lat="51.831875000" lon="7.591738000">
        <ele>60.4</ele>
        <time>2017-04-29T04:26:17</time>
        <extensions><speed>1.48</speed></extensions>
      </trkpt>
      <trkpt lat="51.831882000" lon="7.591745000">
        <ele>60.3</ele>
        <time>2017-04-29T04:26:18</time>
        <extensions><speed>1.47</speed></extensions>
      </trkpt>
      <trkpt lat="51.831898000" lon="7.591750000">
        <ele>60.3</ele>
        <time>2017-04-29T04:26:19</time>
        <extensions><speed>1.44</speed></extensions>
      </trkpt>
      <trkpt lat="51.831909000" lon="7.591755000">
        <ele>60.2</ele>
        <time>2017-04-29T04:26:20</time>
        <extensions><speed>1.40</speed></extensions>
      </trkpt>
      <trkpt lat="51.831917000" lon="7.591762000">
        <ele>60.2</ele>
        <time>2017-04-29T04:26:21</time>
        <extensions><speed>1.39</speed></extensions>
      </trkpt>
      <trkpt lat="51.831932000" lon="7.591764000">
        <ele>60.1</ele>
        <time>2017-04-29T04:26:22</time>
        <extensions><speed>1.38</speed></extensions>
      </trkpt>
      <trkpt lat="51.831944000" lon="7.591770000">
        <ele>60.1</ele>
        <time>2017-04-29T04:26:23</time>
        <extensions><speed>1.36</speed></extensions>
      </trkpt>
      <trkpt lat="51.831955000" lon="7.591773000">
        <ele>60.0</ele>
        <time>2017-04-29T04:26:24</time>
        <extensions><speed>1.36</speed></extensions>
      </trkpt>
      <trkpt lat="51.831966000" lon="7.591775000">
        <ele>60.0</ele>
        <time>2017-04-29T04:26:25</time>
        <extensions><speed>1.36</speed></extensions>
      </trkpt>
      <trkpt lat="51.831982000" lon="7.591776000">
        <ele>59.9</ele>
        <time>2017-04-29T04:26:26</time>
        <extensions><speed>1.36</speed></extensions>
      </trkpt>
      <trkpt lat="51.831993000" lon="7.591780000">
        <ele>59.9</ele>
        <time>2017-04-29T04:26:27</time>
        <extensions><speed>1.42</speed></extensions>
      </trkpt>
      <trkpt lat="51.832008000" lon="7.591784000">
        <ele>59.8</ele>
        <time>2017-04-29T04:26:28</time>
        <extensions><speed>1.42</speed></extensions>
      </trkpt>
      <trkpt lat="51.832020000" lon="7.591789000">
        <ele>59.8</ele>
        <time>2017-04-29T04:26:29</time>
        <extensions><speed>1.49</speed></extensions>
      </trkpt>
      <trkpt lat="51.832035000" lon="7.591792000">
        <ele>59.7</ele>
        <time>2017-04-29T04:26:30</time>
        <extensions><speed>1.49</speed></extensions>
      </trkpt>
      <trkpt lat="51.832047000" lon="7.591795000">
        <ele>59.6</ele>
        <time>2017-04-29T04:26:31</time>
        <extensions><speed>1.45</speed></extensions>
      </trkpt>
      <trkpt lat="51.832054000" lon="7.591796000">
        <ele>59.6</ele>
        <time>2017-04-29T04:26:32</time>
        <extensions><speed>1.39</speed></extensions>
      </trkpt>
      <trkpt lat="51.832069000" lon="7.591800000">
        <ele>59.6</ele>
        <time>2017-04-29T04:26:33</time>
        <extensions><speed>1.41</speed></extensions>
      </trkpt>
      <trkpt lat="51.832081000" lon="7.591808000">
        <ele>59.5</ele>
        <time>2017-04-29T04:26:34</time>
        <extensions><speed>1.41</speed></extensions>
      </trkpt>
      <trkpt lat="51.832096000" lon="7.591817000">
        <ele>59.5</ele>
        <time>2017-04-29T04:26:35</time>
        <extensions><speed>1.41</speed></extensions>
      </trkpt>
      <trkpt lat="51.832108000" lon="7.591822000">
        <ele>59.4</ele>
        <time>2017-04-29T04:26:36</time>
        <extensions><speed>1.44</speed></extensions>
      </trkpt>
      <trkpt lat="51.832119000" lon="7.591824000">
        <ele>59.3</ele>
        <time>2017-04-29T04:26:37</time>
        <extensions><speed>1.49</speed></extensions>
      </trkpt>
      <trkpt lat="51.832134000" lon="7.591827000">
        <ele>59.3</ele>
        <time>2017-04-29T04:26:38</time>
        <extensions><speed>1.49</speed></extensions>
      </trkpt>
      <trkpt lat="51.832146000" lon="7.591830000">
        <ele>59.2</ele>
        <time>2017-04-29T04:26:39</time>
        <extensions><speed>1.49</speed></extensions>
      </trkpt>
      <trkpt lat="51.832157000" lon="7.591833000">
        <ele>59.2</ele>
        <time>2017-04-29T04:26:40</time>
        <extensions><speed>1.49</speed></extensions>
      </trkpt>
      <trkpt lat="51.832172000" lon="7.591836000">
        <ele>59.1</ele>
        <time>2017-04-29T04:26:41</time>
        <extensions><speed>1.45</speed></extensions>
      </trkpt>
      <trkpt lat="51.832184000" lon="7.591843000">
        <ele>59.1</ele>
        <time>2017-04-29T04:26:42</time>
        <extensions><speed>1.41</speed></extensions>
      </trkpt>
      <trkpt lat="51.832195000" lon="7.591850000">
        <ele>59.1</ele>
        <time>2017-04-29T04:26:43</time>
        <extensions><speed>1.39</speed></extensions>
      </trkpt>
      <trkpt lat="51.832207000" lon="7.591857000">
        <ele>59.1</ele>
        <time>2017-04-29T04:26:44</time>
        <extensions><speed>1.38</speed></extensions>
      </trkpt>
      <trkpt lat="51.832214000" lon="7.591866000">
        <ele>59.1</ele>
        <time>2017-04-29T04:26:45</time>
        <extensions><speed>1.39</speed></extensions>
      </trkpt>
      <trkpt lat="51.832222000" lon="7.591882000">
        <ele>59.1</ele>
        <time>2017-04-29T04:26:46</time>
        <extensions><speed>1.40</speed></extensions>
      </trkpt>
      <trkpt lat="51.832233000" lon="7.591899000">
        <ele>59.1</ele>
        <time>2017-04-29T04:26:47</time>
        <extensions><speed>1.37</speed></extensions>
      </trkpt>
      <trkpt lat="51.832241000" lon="7.591915000">
        <ele>59.1</ele>
        <time>2017-04-29T04:26:48</time>
        <extensions><speed>1.38</speed></extensions>
      </trkpt>
      <trkpt lat="51.832245000" lon="7.591932000">
        <ele>59.1</ele>
        <time>2017-04-29T04:26:49</time>
        <extensions><speed>1.37</speed></extensions>
      </trkpt>
      <trkpt lat="51.832249000" lon="7.591948000">
        <ele>59.1</ele>
        <time>2017-04-29T04:26:50</time>
        <extensions><speed>1.35</speed></extensions>
      </trkpt>
      <trkpt lat="51.832253000" lon="7.591969000">
        <ele>59.1</ele>
        <time>2017-04-29T04:26:51</time>
        <extensions><speed>1.35</speed></extensions>
      </trkpt>
      <trkpt lat="51.832256000" lon="7.591989000">
        <ele>59.2</ele>
        <time>2017-04-29T04:26:52</time>
        <extensions><speed>1.36</speed></extensions>
      </trkpt>
      <trkpt lat="51.832253000" lon="7.592008000">
        <ele>59.2</ele>
        <time>2017-04-29T04:26:53</time>
        <extensions><speed>1.34</speed></extensions>
      </trkpt>
      <trkpt lat="51.832253000" lon="7.592029000">
        <ele>59.2</ele>
        <time>2017-04-29T04:26:54</time>
        <extensions><speed>1.34</speed></extensions>
      </trkpt>
      <trkpt lat="51.832253000" lon="7.592048000">
        <ele>59.2</ele>
        <time>2017-04-29T04:26:55</time>
        <extensions><speed>1.40</speed></extensions>
      </trkpt>
      <trkpt lat="51.832249000" lon="7.592072000">
        <ele>59.2</ele>
        <time>2017-04-29T04:26:56</time>
        <extensions><speed>1.39</speed></extensions>
      </trkpt>
      <trkpt lat="51.832249000" lon="7.592092000">
        <ele>59.2</ele>
        <time>2017-04-29T04:26:57</time>
        <extensions><speed>1.39</speed></extensions>
      </trkpt>
      <trkpt lat="51.832249000" lon="7.592111000">
        <ele>59.2</ele>
        <time>2017-04-29T04:26:58</time>
        <extensions><speed>1.42</speed></extensions>
      </trkpt>
      <trkpt lat="51.832253000" lon="7.592132000">
        <ele>59.2</ele>
        <time>2017-04-29T04:26:59</time>
        <extensions><speed>1.48</speed></extensions>
      </trkpt>
      <trkpt lat="51.832253000" lon="7.592152000">
        <ele>59.2</ele>
        <time>2017-04-29T04:27:00</time>
        <extensions><speed>1.45</speed></extensions>
      </trkpt>
      <trkpt lat="51.832256000" lon="7.592172000">
        <ele>59.2</ele>
        <time>2017-04-29T04:27:01</time>
        <extensions><speed>1.40</speed></extensions>
      </trkpt>
      <trkpt lat="51.832256000" lon="7.592190000">
        <ele>59.2</ele>
        <time>2017-04-29T04:27:02</time>
        <extensions><speed>1.44</speed></extensions>
      </trkpt>
      <trkpt lat="51.832256000" lon="7.592212000">
        <ele>59.2</ele>
        <time>2017-04-29T04:27:03</time>
        <extensions><speed>1.47</speed></extensions>
      </trkpt>
      <trkpt lat="51.832260000" lon="7.592233000">
        <ele>59.2</ele>
        <time>2017-04-29T04:27:04</time>
        <extensions><speed>1.46</speed></extensions>
      </trkpt>
      <trkpt lat="51.832260000" lon="7.592253000">
        <ele>59.2</ele>
        <time>2017-04-29T04:27:05</time>
        <extensions><speed>1.43</speed></extensions>
      </trkpt>
      <trkpt lat="51.832260000" lon="7.592272000">
        <ele>59.2</ele>
        <time>2017-04-29T04:27:06</time>
        <extensions><speed>1.44</speed></extensions>
      </trkpt>
      <trkpt lat="51.832260000" lon="7.592291000">
        <ele>59.2</ele>
        <time>2017-04-29T04:27:07</time>
        <extensions><speed>1.40</speed></extensions>
      </trkpt>
      <trkpt lat="51.832260000" lon="7.592312000">
        <ele>59.2</ele>
        <time>2017-04-29T04:27:08</time>
        <extensions><speed>1.37</speed></extensions>
      </trkpt>
      <trkpt lat="51.832260000" lon="7.592333000">
        <ele>59.2</ele>
        <time>2017-04-29T04:27:09</time>
        <extensions><speed>1.37</speed></extensions>
      </trkpt>
      <trkpt lat="51.832260000" lon="7.592355000">
        <ele>59.2</ele>
        <time>2017-04-29T04:27:10</time>
        <extensions><speed>1.38</speed></extensions>
      </trkpt>
      <trkpt lat="51.832260000" lon="7.592375000">
        <ele>59.2</ele>
        <time>2017-04-29T04:27:11</time>
        <extensions><speed>1.42</speed></extensions>
      </trkpt>
      <trkpt lat="51.832260000" lon="7.592395000">
        <ele>59.3</ele>
        <time>2017-04-29T04:27:12</time>
        <extensions><speed>1.44</speed></extensions>
      </trkpt>
      <trkpt lat="51.832260000" lon="7.592415000">
        <ele>59.3</ele>
        <time>2017-04-29T04:27:13</time>
        <extensions><speed>1.44</speed></extensions>
      </trkpt>
      <trkpt lat="51.832260000" lon="7.592435000">
        <ele>59.3</ele>
        <time>2017-04-29T04:27:14</time>
        <extensions><speed>1.43</speed></extensions>
      </trkpt>
      <trkpt lat="51.832264000" lon="7.592455000">
        <ele>59.3</ele>
        <time>2017-04-29T04:27:15</time>
        <extensions><speed>1.43</speed></extensions>
      </trkpt>
      <trkpt lat="51.832264000" lon="7.592474000">
        <ele>59.3</ele>
        <time>2017-04-29T04:27:16</time>
        <extensions><speed>1.43</speed></extensions>
      </trkpt>
      <trkpt lat="51.832264000" lon="7.592493000">
        <ele>59.4</ele>
        <time>2017-04-29T04:27:17</time>
        <extensions><speed>1.42</speed></extensions>
      </trkpt>
      <trkpt lat="51.832264000" lon="7.592515000">
        <ele>59.4</ele>
        <time>2017-04-29T04:27:18</time>
        <extensions><speed>1.42</speed></extensions>
      </trkpt>
      <trkpt lat="51.832264000" lon="7.592535000">
        <ele>59.4</ele>
        <time>2017-04-29T04:27:19</time>
        <extensions><speed>1.43</speed></extensions>
      </trkpt>
      <trkpt lat="51.832264000" lon="7.592554000">
        <ele>59.4</ele>
        <time>2017-04-29T04:27:20</time>
        <extensions><speed>1.43</speed></extensions>
      </trkpt>
      <trkpt lat="51.832260000" lon="7.592575000">
        <ele>59.5</ele>
        <time>2017-04-29T04:27:21</time>
        <extensions><speed>1.42</speed></extensions>
      </trkpt>
      <trkpt lat="51.832260000" lon="7.592597000">
        <ele>59.5</ele>
        <time>2017-04-29T04:27:22</time>
        <extensions><speed>1.41</speed></extensions>
      </trkpt>
      <trkpt lat="51.832260000" lon="7.592617000">
        <ele>59.5</ele>
        <time>2017-04-29T04:27:23</time>
        <extensions><speed>1.40</speed></extensions>
      </trkpt>
      <trkpt lat="51.832260000" lon="7.592637000">
        <ele>59.5</ele>
        <time>2017-04-29T04:27:24</time>
        <extensions><speed>1.39</speed></extensions>
      </trkpt>
      <trkpt lat="51.832264000" lon="7.592657000">
        <ele>59.6</ele>
        <time>2017-04-29T04:27:25</time>
        <extensions><speed>1.40</speed></extensions>
      </trkpt>
      <trkpt lat="51.832264000" lon="7.592677000">
        <ele>59.6</ele>
        <time>2017-04-29T04:27:26</time>
        <extensions><speed>1.41</speed></extensions>
      </trkpt>
      <trkpt lat="51.832264000" lon="7.592699000">
        <ele>59.6</ele>
        <time>2017-04-29T04:27:27</time>
        <extensions><speed>1.41</speed></extensions>
      </trkpt>
      <trkpt lat="51.832268000" lon="7.592720000">
        <ele>59.6</ele>
        <time>2017-04-29T04:27:28</time>
        <extensions><speed>1.41</speed></extensions>
      </trkpt>
      <trkpt lat="51.832268000" lon="7.592738000">
        <ele>59.7</ele>
        <time>2017-04-29T04:27:29</time>
        <extensions><speed>1.40</speed></extensions>
      </trkpt>
      <trkpt lat="51.832268000" lon="7.592759000">
        <ele>59.7</ele>
        <time>2017-04-29T04:27:30</time>
        <extensions><speed>1.40</speed></extensions>
      </trkpt>
      <trkpt lat="51.832268000" lon="7.592780000">
        <ele>59.7</ele>
        <time>2017-04-29T04:27:31</time>
        <extensions><speed>1.41</speed></extensions>
      </trkpt>
      <trkpt lat="51.832268000" lon="7.592802000">
        <ele>59.7</ele>
        <time>2017-04-29T04:27:32</time>
        <extensions><speed>1.42</speed></extensions>
      </trkpt>
      <trkpt lat="51.832264000" lon="7.592824000">
        <ele>59.7</ele>
        <time>2017-04-29T04:27:33</time>
        <extensions><speed>1.47</speed></extensions>
      </trkpt>
      <trkpt lat="51.832264000" lon="7.592844000">
        <ele>59.8</ele>
        <time>2017-04-29T04:27:34</time>
        <extensions><speed>1.48</speed></extensions>
      </trkpt>
      <trkpt lat="51.832264000" lon="7.592864000">
        <ele>59.8</ele>
        <time>2017-04-29T04:27:35</time>
        <extensions><speed>1.46</speed></extensions>
      </trkpt>
      <trkpt lat="51.832264000" lon="7.592881000">
        <ele>59.8</ele>
        <time>2017-04-29T04:27:36</time>
        <extensions><speed>1.40</speed></extensions>
      </trkpt>
      <trkpt lat="51.832264000" lon="7.592902000">
        <ele>59.8</ele>
        <time>2017-04-29T04:27:37</time>
        <extensions><speed>1.39</speed></extensions>
      </trkpt>
      <trkpt lat="51.832264000" lon="7.592922000">
        <ele>59.8</ele>
        <time>2017-04-29T04:27:38</time>
        <extensions><speed>1.36</speed></extensions>
      </trkpt>
      <trkpt lat="51.832264000" lon="7.592944000">
        <ele>59.9</ele>
        <time>2017-04-29T04:27:39</time>
        <extensions><speed>1.36</speed></extensions>
      </trkpt>
      <trkpt lat="51.832264000" lon="7.592963000">
        <ele>59.9</ele>
        <time>2017-04-29T04:27:40</time>
        <extensions><speed>1.36</speed></extensions>
      </trkpt>
      <trkpt lat="51.832264000" lon="7.592987000">
        <ele>59.9</ele>
        <time>2017-04-29T04:27:41</time>
        <extensions><speed>1.38</speed></extensions>
      </trkpt>
      <trkpt lat="51.832264000" lon="7.593007000">
        <ele>59.9</ele>
        <time>2017-04-29T04:27:42</time>
        <extensions><speed>1.39</speed></extensions>
      </trkpt>
      <trkpt lat="51.832260000" lon="7.593027000">
        <ele>60.0</ele>
        <time>2017-04-29T04:27:43</time>
        <extensions><speed>1.39</speed></extensions>
      </trkpt>
      <trkpt lat="51.832260000" lon="7.593045000">
        <ele>60.0</ele>
        <time>2017-04-29T04:27:44</time>
        <extensions><speed>1.39</speed></extensions>
      </trkpt>
      <trkpt lat="51.832260000" lon="7.593063000">
        <ele>60.0</ele>
        <time>2017-04-29T04:27:45</time>
        <extensions><speed>1.36</speed></extensions>
      </trkpt>
      <trkpt lat="51.832264000" lon="7.593085000">
        <ele>60.0</ele>
        <time>2017-04-29T04:27:46</time>
        <extensions><speed>1.37</speed></extensions>
      </trkpt>
      <trkpt lat="51.832264000" lon="7.593110000">
        <ele>60.0</ele>
        <time>2017-04-29T04:27:47</time>
        <extensions><speed>1.36</speed></extensions>
      </trkpt>
      <trkpt lat="51.832260000" lon="7.593132000">
        <ele>60.0</ele>
        <time>2017-04-29T04:27:48</time>
        <extensions><speed>1.40</speed></extensions>
      </trkpt>
      <trkpt lat="51.832260000" lon="7.593150000">
        <ele>60.0</ele>
        <time>2017-04-29T04:27:49</time>
        <extensions><speed>1.40</speed></extensions>
      </trkpt>
      <trkpt lat="51.832260000" lon="7.593166000">
        <ele>60.0</ele>
        <time>2017-04-29T04:27:50</time>
        <extensions><speed>1.40</speed></extensions>
      </trkpt>
      <trkpt lat="51.832260000" lon="7.593187000">
        <ele>60.0</ele>
        <time>2017-04-29T04:27:51</time>
        <extensions><speed>1.35</speed></extensions>
      </trkpt>
      <trkpt lat="51.832260000" lon="7.593208000">
        <ele>60.0</ele>
        <time>2017-04-29T04:27:52</time>
        <extensions><speed>1.37</speed></extensions>
      </trkpt>
      <trkpt lat="51.832260000" lon="7.593231000">
        <ele>60.0</ele>
        <time>2017-04-29T04:27:53</time>
        <extensions><speed>1.35</speed></extensions>
      </trkpt>
      <trkpt lat="51.832260000" lon="7.593252000">
        <ele>60.0</ele>
        <time>2017-04-29T04:27:54</time>
        <extensions><speed>1.36</speed></extensions>
      </trkpt>
      <trkpt lat="51.832260000" lon="7.593270000">
        <ele>60.0</ele>
        <time>2017-04-29T04:27:55</time>
        <extensions><speed>1.39</speed></extensions>
      </trkpt>
      <trkpt lat="51.832256000" lon="7.593290000">
        <ele>60.0</ele>
        <time>2017-04-29T04:27:56</time>
        <extensions><speed>1.43</speed></extensions>
      </trkpt>
      <trkpt lat="51.832256000" lon="7.593310000">
        <ele>60.0</ele>
        <time>2017-04-29T04:27:57</time>
        <extensions><speed>1.39</speed></extensions>
      </trkpt>
      <trkpt lat="51.832256000" lon="7.593329000">
        <ele>60.0</ele>
        <time>2017-04-29T04:27:58</time>
        <extensions><speed>1.38</speed></extensions>
      </trkpt>
      <trkpt lat="51.832256000" lon="7.593352000">
        <ele>60.0</ele>
        <time>2017-04-29T04:27:59</time>
        <extensions><speed>1.42</speed></extensions>
      </trkpt>
      <trkpt lat="51.832260000" lon="7.593373000">
        <ele>60.0</ele>
        <time>2017-04-29T04:28:00</time>
        <extensions><speed>1.44</speed></extensions>
      </trkpt>
      <trkpt lat="51.832260000" lon="7.593394000">
        <ele>60.0</ele>
        <time>2017-04-29T04:28:01</time>
        <extensions><speed>1.42</speed></extensions>
      </trkpt>
      <trkpt lat="51.832264000" lon="7.593413000">
        <ele>60.0</ele>
        <time>2017-04-29T04:28:02</time>
        <extensions><speed>1.44</speed></extensions>
      </trkpt>
      <trkpt lat="51.832268000" lon="7.593433000">
        <ele>60.0</ele>
        <time>2017-04-29T04:28:03</time>
        <extensions><speed>1.45</speed></extensions>
      </trkpt>
      <trkpt lat="51.832272000" lon="7.593455000">
        <ele>60.0</ele>
        <time>2017-04-29T04:28:04</time>
        <extensions><speed>1.44</speed></extensions>
      </trkpt>
      <trkpt lat="51.832275000" lon="7.593473000">
        <ele>60.0</ele>
        <time>2017-04-29T04:28:05</time>
        <extensions><speed>1.43</speed></extensions>
      </trkpt>
      <trkpt lat="51.832275000" lon="7.593490000">
        <ele>60.0</ele>
        <time>2017-04-29T04:28:06</time>
        <extensions><speed>1.40</speed></extensions>
      </trkpt>
      <trkpt lat="51.832279000" lon="7.593506000">
        <ele>60.0</ele>
        <time>2017-04-29T04:28:07</time>
        <extensions><speed>1.37</speed></extensions>
      </trkpt>
      <trkpt lat="51.832283000" lon="7.593520000">
        <ele>60.0</ele>
        <time>2017-04-29T04:28:08</time>
        <extensions><speed>1.28</speed></extensions>
      </trkpt>
      <trkpt lat="51.832287000" lon="7.593534000">
        <ele>60.0</ele>
        <time>2017-04-29T04:28:09</time>
        <extensions><speed>1.22</speed></extensions>
      </trkpt>
      <trkpt lat="51.832294000" lon="7.593543000">
        <ele>60.0</ele>
        <time>2017-04-29T04:28:10</time>
        <extensions><speed>1.18</speed></extensions>
      </trkpt>
      <trkpt lat="51.832302000" lon="7.593545000">
        <ele>60.0</ele>
        <time>2017-04-29T04:28:11</time>
        <extensions><speed>1.13</speed></extensions>
      </trkpt>
      <trkpt lat="51.832310000" lon="7.593546000">
        <ele>60.0</ele>
        <time>2017-04-29T04:28:12</time>
        <extensions><speed>1.13</speed></extensions>
      </trkpt>
      <trkpt lat="51.832325000" lon="7.593552000">
        <ele>60.0</ele>
        <time>2017-04-29T04:28:13</time>
        <extensions><speed>1.23</speed></extensions>
      </trkpt>
      <trkpt lat="51.832336000" lon="7.593558000">
        <ele>60.0</ele>
        <time>2017-04-29T04:28:14</time>
        <extensions><speed>1.30</speed></extensions>
      </trkpt>
      <trkpt lat="51.832344000" lon="7.593564000">
        <ele>60.0</ele>
        <time>2017-04-29T04:28:15</time>
        <extensions><speed>1.27</speed></extensions>
      </trkpt>
      <trkpt lat="51.832359000" lon="7.593560000">
        <ele>60.0</ele>
        <time>2017-04-29T04:28:16</time>
        <extensions><speed>1.39</speed></extensions>
      </trkpt>
      <trkpt lat="51.832375000" lon="7.593554000">
        <ele>60.0</ele>
        <time>2017-04-29T04:28:17</time>
        <extensions><speed>1.37</speed></extensions>
      </trkpt>
      <trkpt lat="51.832390000" lon="7.593548000">
        <ele>60.0</ele>
        <time>2017-04-29T04:28:18</time>
        <extensions><speed>1.40</speed></extensions>
      </trkpt>
      <trkpt lat="51.832401000" lon="7.593545000">
        <ele>60.0</ele>
        <time>2017-04-29T04:28:19</time>
        <extensions><speed>1.42</speed></extensions>
      </trkpt>
      <trkpt lat="51.832413000" lon="7.593545000">
        <ele>60.0</ele>
        <time>2017-04-29T04:28:20</time>
        <extensions><speed>1.43</speed></extensions>
      </trkpt>
      <trkpt lat="51.832428000" lon="7.593546000">
        <ele>60.0</ele>
        <time>2017-04-29T04:28:21</time>
        <extensions><speed>1.41</speed></extensions>
      </trkpt>
      <trkpt lat="51.832439000" lon="7.593546000">
        <ele>60.0</ele>
        <time>2017-04-29T04:28:22</time>
        <extensions><speed>1.42</speed></extensions>
      </trkpt>
      <trkpt lat="51.832451000" lon="7.593545000">
        <ele>60.0</ele>
        <time>2017-04-29T04:28:23</time>
        <extensions><speed>1.41</speed></extensions>
      </trkpt>
      <trkpt lat="51.832462000" lon="7.593548000">
        <ele>60.0</ele>
        <time>2017-04-29T04:28:24</time>
        <extensions><speed>1.36</speed></extensions>
      </trkpt>
      <trkpt lat="51.832470000" lon="7.593552000">
        <ele>60.0</ele>
        <time>2017-04-29T04:28:25</time>
        <extensions><speed>1.37</speed></extensions>
      </trkpt>
      <trkpt lat="51.832489000" lon="7.593555000">
        <ele>60.0</ele>
        <time>2017-04-29T04:28:26</time>
        <extensions><speed>1.42</speed></extensions>
      </trkpt>
      <trkpt lat="51.832504000" lon="7.593557000">
        <ele>60.0</ele>
        <time>2017-04-29T04:28:27</time>
        <extensions><speed>1.37</speed></extensions>
      </trkpt>
      <trkpt lat="51.832516000" lon="7.593558000">
        <ele>60.0</ele>
        <time>2017-04-29T04:28:28</time>
        <extensions><speed>1.37</speed></extensions>
      </trkpt>
      <trkpt lat="51.832531000" lon="7.593562000">
        <ele>60.0</ele>
        <time>2017-04-29T04:28:29</time>
        <extensions><speed>1.42</speed></extensions>
      </trkpt>
      <trkpt lat="51.832542000" lon="7.593565000">
        <ele>60.0</ele>
        <time>2017-04-29T04:28:30</time>
        <extensions><speed>1.40</speed></extensions>
      </trkpt>
      <trkpt lat="51.832558000" lon="7.593565000">
        <ele>60.0</ele>
        <time>2017-04-29T04:28:31</time>
        <extensions><speed>1.40</speed></extensions>
      </trkpt>
      <trkpt lat="51.832573000" lon="7.593562000">
        <ele>60.0</ele>
        <time>2017-04-29T04:28:32</time>
        <extensions><speed>1.42</speed></extensions>
      </trkpt>
      <trkpt lat="51.832588000" lon="7.593562000">
        <ele>60.0</ele>
        <time>2017-04-29T04:28:33</time>
        <extensions><speed>1.41</speed></extensions>
      </trkpt>
      <trkpt lat="51.832600000" lon="7.593567000">
        <ele>60.0</ele>
        <time>2017-04-29T04:28:34</time>
        <extensions><speed>1.38</speed></extensions>
      </trkpt>
      <trkpt lat="51.832615000" lon="7.593565000">
        <ele>60.0</ele>
        <time>2017-04-29T04:28:35</time>
        <extensions><speed>1.41</speed></extensions>
      </trkpt>
      <trkpt lat="51.832630000" lon="7.593562000">
        <ele>60.0</ele>
        <time>2017-04-29T04:28:36</time>
        <extensions><speed>1.40</speed></extensions>
      </trkpt>
      <trkpt lat="51.832638000" lon="7.593558000">
        <ele>60.0</ele>
        <time>2017-04-29T04:28:37</time>
        <extensions><speed>1.36</speed></extensions>
      </trkpt>
      <trkpt lat="51.832649000" lon="7.593557000">
        <ele>60.0</ele>
        <time>2017-04-29T04:28:38</time>
        <extensions><speed>1.39</speed></extensions>
      </trkpt>
      <trkpt lat="51.832664000" lon="7.593557000">
        <ele>60.0</ele>
        <time>2017-04-29T04:28:39</time>
        <extensions><speed>1.39</speed></extensions>
      </trkpt>
      <trkpt lat="51.832676000" lon="7.593560000">
        <ele>60.0</ele>
        <time>2017-04-29T04:28:40</time>
        <extensions><speed>1.39</speed></extensions>
      </trkpt>
      <trkpt lat="51.832691000" lon="7.593562000">
        <ele>60.0</ele>
        <time>2017-04-29T04:28:41</time>
        <extensions><speed>1.41</speed></extensions>
      </trkpt>
      <trkpt lat="51.832706000" lon="7.593564000">
        <ele>60.0</ele>
        <time>2017-04-29T04:28:42</time>
        <extensions><speed>1.48</speed></extensions>
      </trkpt>
      <trkpt lat="51.832722000" lon="7.593564000">
        <ele>60.0</ele>
        <time>2017-04-29T04:28:43</time>
        <extensions><speed>1.45</speed></extensions>
      </trkpt>
      <trkpt lat="51.832733000" lon="7.593565000">
        <ele>60.0</ele>
        <time>2017-04-29T04:28:44</time>
        <extensions><speed>1.49</speed></extensions>
      </trkpt>
      <trkpt lat="51.832741000" lon="7.593564000">
        <ele>60.0</ele>
        <time>2017-04-29T04:28:45</time>
        <extensions><speed>1.39</speed></extensions>
      </trkpt>
      <trkpt lat="51.832748000" lon="7.593564000">
        <ele>60.0</ele>
        <time>2017-04-29T04:28:46</time>
        <extensions><speed>1.37</speed></extensions>
      </trkpt>
      <trkpt lat="51.832764000" lon="7.593564000">
        <ele>60.0</ele>
        <time>2017-04-29T04:28:47</time>
        <extensions><speed>1.35</speed></extensions>
      </trkpt>
      <trkpt lat="51.832775000" lon="7.593564000">
        <ele>60.0</ele>
        <time>2017-04-29T04:28:48</time>
        <extensions><speed>1.40</speed></extensions>
      </trkpt>
      <trkpt lat="51.832790000" lon="7.593562000">
        <ele>60.0</ele>
        <time>2017-04-29T04:28:49</time>
        <extensions><speed>1.40</speed></extensions>
      </trkpt>
      <trkpt lat="51.832802000" lon="7.593560000">
        <ele>60.0</ele>
        <time>2017-04-29T04:28:50</time>
        <extensions><speed>1.40</speed></extensions>
      </trkpt>
      <trkpt lat="51.832817000" lon="7.593558000">
        <ele>60.0</ele>
        <time>2017-04-29T04:28:51</time>
        <extensions><speed>1.40</speed></extensions>
      </trkpt>
      <trkpt lat="51.832829000" lon="7.593558000">
        <ele>60.0</ele>
        <time>2017-04-29T04:28:52</time>
        <extensions><speed>1.39</speed></extensions>
      </trkpt>
      <trkpt lat="51.832840000" lon="7.593558000">
        <ele>60.0</ele>
        <time>2017-04-29T04:28:53</time>
        <extensions><speed>1.40</speed></extensions>
      </trkpt>
      <trkpt lat="51.832855000" lon="7.593560000">
        <ele>60.0</ele>
        <time>2017-04-29T04:28:54</time>
        <extensions><speed>1.39</speed></extensions>
      </trkpt>
      <trkpt lat="51.832863000" lon="7.593558000">
        <ele>60.0</ele>
        <time>2017-04-29T04:28:55</time>
        <extensions><speed>1.43</speed></extensions>
      </trkpt>
      <trkpt lat="51.832878000" lon="7.593557000">
        <ele>60.0</ele>
        <time>2017-04-29T04:28:56</time>
        <extensions><speed>1.40</speed></extensions>
      </trkpt>
      <trkpt lat="51.832890000" lon="7.593557000">
        <ele>60.0</ele>
        <time>2017-04-29T04:28:57</time>
        <extensions><speed>1.42</speed></extensions>
      </trkpt>
      <trkpt lat="51.832897000" lon="7.593555000">
        <ele>60.0</ele>
        <time>2017-04-29T04:28:58</time>
        <extensions><speed>1.42</speed></extensions>
      </trkpt>
      <trkpt lat="51.832912000" lon="7.593557000">
        <ele>60.0</ele>
        <time>2017-04-29T04:28:59</time>
        <extensions><speed>1.49</speed></extensions>
      </trkpt>
      <trkpt lat="51.832928000" lon="7.593557000">
        <ele>60.0</ele>
        <time>2017-04-29T04:29:00</time>
        <extensions><speed>1.50</speed></extensions>
      </trkpt>
      <trkpt lat="51.832943000" lon="7.593557000">
        <ele>60.0</ele>
        <time>2017-04-29T04:29:01</time>
        <extensions><speed>1.56</speed></extensions>
      </trkpt>
      <trkpt lat="51.832958000" lon="7.593557000">
        <ele>60.0</ele>
        <time>2017-04-29T04:29:02</time>
        <extensions><speed>1.56</speed></extensions>
      </trkpt>
      <trkpt lat="51.832962000" lon="7.593557000">
        <ele>60.0</ele>
        <time>2017-04-29T04:29:03</time>
        <extensions><speed>1.47</speed></extensions>
      </trkpt>
      <trkpt lat="51.832973000" lon="7.593555000">
        <ele>60.0</ele>
        <time>2017-04-29T04:29:04</time>
        <extensions><speed>1.42</speed></extensions>
      </trkpt>
      <trkpt lat="51.832989000" lon="7.593548000">
        <ele>60.0</ele>
        <time>2017-04-29T04:29:05</time>
        <extensions><speed>1.32</speed></extensions>
      </trkpt>
      <trkpt lat="51.832996000" lon="7.593543000">
        <ele>60.0</ele>
        <time>2017-04-29T04:29:06</time>
        <extensions><speed>1.32</speed></extensions>
      </trkpt>
      <trkpt lat="51.833012000" lon="7.593543000">
        <ele>60.0</ele>
        <time>2017-04-29T04:29:07</time>
        <extensions><speed>1.41</speed></extensions>
      </trkpt>
      <trkpt lat="51.833023000" lon="7.593543000">
        <ele>60.0</ele>
        <time>2017-04-29T04:29:08</time>
        <extensions><speed>1.44</speed></extensions>
      </trkpt>
      <trkpt lat="51.833035000" lon="7.593545000">
        <ele>60.0</ele>
        <time>2017-04-29T04:29:09</time>
        <extensions><speed>1.39</speed></extensions>
      </trkpt>
      <trkpt lat="51.833046000" lon="7.593545000">
        <ele>60.0</ele>
        <time>2017-04-29T04:29:10</time>
        <extensions><speed>1.46</speed></extensions>
      </trkpt>
      <trkpt lat="51.833057000" lon="7.593543000">
        <ele>60.0</ele>
        <time>2017-04-29T04:29:11</time>
        <extensions><speed>1.39</speed></extensions>
      </trkpt>
      <trkpt lat="51.833069000" lon="7.593543000">
        <ele>60.0</ele>
        <time>2017-04-29T04:29:12</time>
        <extensions><speed>1.32</speed></extensions>
      </trkpt>
      <trkpt lat="51.833080000" lon="7.593543000">
        <ele>60.0</ele>
        <time>2017-04-29T04:29:13</time>
        <extensions><speed>1.28</speed></extensions>
      </trkpt>
      <trkpt lat="51.833092000" lon="7.593545000">
        <ele>60.0</ele>
        <time>2017-04-29T04:29:14</time>
        <extensions><speed>1.29</speed></extensions>
      </trkpt>
      <trkpt lat="51.833099000" lon="7.593546000">
        <ele>60.0</ele>
        <time>2017-04-29T04:29:15</time>
        <extensions><speed>1.29</speed></extensions>
      </trkpt>
      <trkpt lat="51.833115000" lon="7.593548000">
        <ele>60.0</ele>
        <time>2017-04-29T04:29:16</time>
        <extensions><speed>1.34</speed></extensions>
      </trkpt>
      <trkpt lat="51.833126000" lon="7.593546000">
        <ele>60.0</ele>
        <time>2017-04-29T04:29:17</time>
        <extensions><speed>1.40</speed></extensions>
      </trkpt>
      <trkpt lat="51.833141000" lon="7.593546000">
        <ele>60.0</ele>
        <time>2017-04-29T04:29:18</time>
        <extensions><speed>1.46</speed></extensions>
      </trkpt>
      <trkpt lat="51.833153000" lon="7.593546000">
        <ele>60.0</ele>
        <time>2017-04-29T04:29:19</time>
        <extensions><speed>1.47</speed></extensions>
      </trkpt>
      <trkpt lat="51.833164000" lon="7.593546000">
        <ele>60.0</ele>
        <time>2017-04-29T04:29:20</time>
        <extensions><speed>1.46</speed></extensions>
      </trkpt>
      <trkpt lat="51.833176000" lon="7.593548000">
        <ele>60.0</ele>
        <time>2017-04-29T04:29:21</time>
        <extensions><speed>1.45</speed></extensions>
      </trkpt>
      <trkpt lat="51.833187000" lon="7.593550000">
        <ele>60.0</ele>
        <time>2017-04-29T04:29:22</time>
        <extensions><speed>1.39</speed></extensions>
      </trkpt>
      <trkpt lat="51.833199000" lon="7.593548000">
        <ele>60.0</ele>
        <time>2017-04-29T04:29:23</time>
        <extensions><speed>1.36</speed></extensions>
      </trkpt>
      <trkpt lat="51.833214000" lon="7.593546000">
        <ele>60.0</ele>
        <time>2017-04-29T04:29:24</time>
        <extensions><speed>1.36</speed></extensions>
      </trkpt>
      <trkpt lat="51.833225000" lon="7.593545000">
        <ele>60.0</ele>
        <time>2017-04-29T04:29:25</time>
        <extensions><speed>1.37</speed></extensions>
      </trkpt>
      <trkpt lat="51.833237000" lon="7.593545000">
        <ele>60.0</ele>
        <time>2017-04-29T04:29:26</time>
        <extensions><speed>1.41</speed></extensions>
      </trkpt>
      <trkpt lat="51.833252000" lon="7.593545000">
        <ele>60.1</ele>
        <time>2017-04-29T04:29:27</time>
        <extensions><speed>1.46</speed></extensions>
      </trkpt>
      <trkpt lat="51.833263000" lon="7.593543000">
        <ele>60.1</ele>
        <time>2017-04-29T04:29:28</time>
        <extensions><speed>1.48</speed></extensions>
      </trkpt>
      <trkpt lat="51.833282000" lon="7.593543000">
        <ele>60.1</ele>
        <time>2017-04-29T04:29:29</time>
        <extensions><speed>1.52</speed></extensions>
      </trkpt>
      <trkpt lat="51.833290000" lon="7.593541000">
        <ele>60.1</ele>
        <time>2017-04-29T04:29:30</time>
        <extensions><speed>1.52</speed></extensions>
      </trkpt>
      <trkpt lat="51.833305000" lon="7.593540000">
        <ele>60.1</ele>
        <time>2017-04-29T04:29:31</time>
        <extensions><speed>1.53</speed></extensions>
      </trkpt>
      <trkpt lat="51.833317000" lon="7.593538000">
        <ele>60.1</ele>
        <time>2017-04-29T04:29:32</time>
        <extensions><speed>1.51</speed></extensions>
      </trkpt>
      <trkpt lat="51.833328000" lon="7.593538000">
        <ele>60.1</ele>
        <time>2017-04-29T04:29:33</time>
        <extensions><speed>1.48</speed></extensions>
      </trkpt>
      <trkpt lat="51.833344000" lon="7.593538000">
        <ele>60.1</ele>
        <time>2017-04-29T04:29:34</time>
        <extensions><speed>1.47</speed></extensions>
      </trkpt>
      <trkpt lat="51.833355000" lon="7.593540000">
        <ele>60.1</ele>
        <time>2017-04-29T04:29:35</time>
        <extensions><speed>1.48</speed></extensions>
      </trkpt>
      <trkpt lat="51.833370000" lon="7.593540000">
        <ele>60.1</ele>
        <time>2017-04-29T04:29:36</time>
        <extensions><speed>1.46</speed></extensions>
      </trkpt>
      <trkpt lat="51.833382000" lon="7.593540000">
        <ele>60.1</ele>
        <time>2017-04-29T04:29:37</time>
        <extensions><speed>1.48</speed></extensions>
      </trkpt>
      <trkpt lat="51.833393000" lon="7.593543000">
        <ele>60.1</ele>
        <time>2017-04-29T04:29:38</time>
        <extensions><speed>1.48</speed></extensions>
      </trkpt>
      <trkpt lat="51.833408000" lon="7.593543000">
        <ele>60.1</ele>
        <time>2017-04-29T04:29:39</time>
        <extensions><speed>1.45</speed></extensions>
      </trkpt>
      <trkpt lat="51.833420000" lon="7.593541000">
        <ele>60.1</ele>
        <time>2017-04-29T04:29:40</time>
        <extensions><speed>1.46</speed></extensions>
      </trkpt>
      <trkpt lat="51.833435000" lon="7.593543000">
        <ele>60.1</ele>
        <time>2017-04-29T04:29:41</time>
        <extensions><speed>1.48</speed></extensions>
      </trkpt>
      <trkpt lat="51.833447000" lon="7.593543000">
        <ele>60.1</ele>
        <time>2017-04-29T04:29:42</time>
        <extensions><speed>1.48</speed></extensions>
      </trkpt>
      <trkpt lat="51.833458000" lon="7.593543000">
        <ele>60.1</ele>
        <time>2017-04-29T04:29:43</time>
        <extensions><speed>1.46</speed></extensions>
      </trkpt>
      <trkpt lat="51.833473000" lon="7.593545000">
        <ele>60.1</ele>
        <time>2017-04-29T04:29:44</time>
        <extensions><speed>1.52</speed></extensions>
      </trkpt>
      <trkpt lat="51.833485000" lon="7.593548000">
        <ele>60.1</ele>
        <time>2017-04-29T04:29:45</time>
        <extensions><speed>1.49</speed></extensions>
      </trkpt>
      <trkpt lat="51.833496000" lon="7.593550000">
        <ele>60.1</ele>
        <time>2017-04-29T04:29:46</time>
        <extensions><speed>1.47</speed></extensions>
      </trkpt>
      <trkpt lat="51.833511000" lon="7.593554000">
        <ele>60.1</ele>
        <time>2017-04-29T04:29:47</time>
        <extensions><speed>1.44</speed></extensions>
      </trkpt>
      <trkpt lat="51.833519000" lon="7.593554000">
        <ele>60.1</ele>
        <time>2017-04-29T04:29:48</time>
        <extensions><speed>1.44</speed></extensions>
      </trkpt>
      <trkpt lat="51.833534000" lon="7.593555000">
        <ele>60.1</ele>
        <time>2017-04-29T04:29:49</time>
        <extensions><speed>1.43</speed></extensions>
      </trkpt>
      <trkpt lat="51.833546000" lon="7.593558000">
        <ele>60.1</ele>
        <time>2017-04-29T04:29:50</time>
        <extensions><speed>1.44</speed></extensions>
      </trkpt>
      <trkpt lat="51.833561000" lon="7.593562000">
        <ele>60.1</ele>
        <time>2017-04-29T04:29:51</time>
        <extensions><speed>1.46</speed></extensions>
      </trkpt>
      <trkpt lat="51.833576000" lon="7.593565000">
        <ele>60.1</ele>
        <time>2017-04-29T04:29:52</time>
        <extensions><speed>1.47</speed></extensions>
      </trkpt>
      <trkpt lat="51.833584000" lon="7.593567000">
        <ele>60.1</ele>
        <time>2017-04-29T04:29:53</time>
        <extensions><speed>1.49</speed></extensions>
      </trkpt>
      <trkpt lat="51.833599000" lon="7.593565000">
        <ele>60.1</ele>
        <time>2017-04-29T04:29:54</time>
        <extensions><speed>1.50</speed></extensions>
      </trkpt>
      <trkpt lat="51.833611000" lon="7.593564000">
        <ele>60.1</ele>
        <time>2017-04-29T04:29:55</time>
        <extensions><speed>1.49</speed></extensions>
      </trkpt>
      <trkpt lat="51.833630000" lon="7.593567000">
        <ele>60.1</ele>
        <time>2017-04-29T04:29:56</time>
        <extensions><speed>1.55</speed></extensions>
      </trkpt>
      <trkpt lat="51.833645000" lon="7.593570000">
        <ele>60.2</ele>
        <time>2017-04-29T04:29:57</time>
        <extensions><speed>1.58</speed></extensions>
      </trkpt>
      <trkpt lat="51.833656000" lon="7.593573000">
        <ele>60.2</ele>
        <time>2017-04-29T04:29:58</time>
        <extensions><speed>1.59</speed></extensions>
      </trkpt>
      <trkpt lat="51.833672000" lon="7.593578000">
        <ele>60.2</ele>
        <time>2017-04-29T04:29:59</time>
        <extensions><speed>1.55</speed></extensions>
      </trkpt>
      <trkpt lat="51.833683000" lon="7.593580000">
        <ele>60.2</ele>
        <time>2017-04-29T04:30:00</time>
        <extensions><speed>1.60</speed></extensions>
      </trkpt>
      <trkpt lat="51.833702000" lon="7.593583000">
        <ele>60.2</ele>
        <time>2017-04-29T04:30:01</time>
        <extensions><speed>1.59</speed></extensions>
      </trkpt>
      <trkpt lat="51.833714000" lon="7.593586000">
        <ele>60.2</ele>
        <time>2017-04-29T04:30:02</time>
        <extensions><speed>1.54</speed></extensions>
      </trkpt>
      <trkpt lat="51.833725000" lon="7.593592000">
        <ele>60.3</ele>
        <time>2017-04-29T04:30:03</time>
        <extensions><speed>1.56</speed></extensions>
      </trkpt>
      <trkpt lat="51.833740000" lon="7.593598000">
        <ele>60.3</ele>
        <time>2017-04-29T04:30:04</time>
        <extensions><speed>1.55</speed></extensions>
      </trkpt>
      <trkpt lat="51.833752000" lon="7.593602000">
        <ele>60.3</ele>
        <time>2017-04-29T04:30:05</time>
        <extensions><speed>1.51</speed></extensions>
      </trkpt>
      <trkpt lat="51.833767000" lon="7.593606000">
        <ele>60.3</ele>
        <time>2017-04-29T04:30:06</time>
        <extensions><speed>1.48</speed></extensions>
      </trkpt>
      <trkpt lat="51.833775000" lon="7.593611000">
        <ele>60.3</ele>
        <time>2017-04-29T04:30:07</time>
        <extensions><speed>1.45</speed></extensions>
      </trkpt>
      <trkpt lat="51.833790000" lon="7.593615000">
        <ele>60.3</ele>
        <time>2017-04-29T04:30:08</time>
        <extensions><speed>1.45</speed></extensions>
      </trkpt>
      <trkpt lat="51.833805000" lon="7.593618000">
        <ele>60.4</ele>
        <time>2017-04-29T04:30:09</time>
        <extensions><speed>1.43</speed></extensions>
      </trkpt>
      <trkpt lat="51.833813000" lon="7.593620000">
        <ele>60.4</ele>
        <time>2017-04-29T04:30:10</time>
        <extensions><speed>1.41</speed></extensions>
      </trkpt>
      <trkpt lat="51.833824000" lon="7.593623000">
        <ele>60.4</ele>
        <time>2017-04-29T04:30:11</time>
        <extensions><speed>1.44</speed></extensions>
      </trkpt>
      <trkpt lat="51.833839000" lon="7.593626000">
        <ele>60.4</ele>
        <time>2017-04-29T04:30:12</time>
        <extensions><speed>1.47</speed></extensions>
      </trkpt>
      <trkpt lat="51.833855000" lon="7.593630000">
        <ele>60.4</ele>
        <time>2017-04-29T04:30:13</time>
        <extensions><speed>1.49</speed></extensions>
      </trkpt>
      <trkpt lat="51.833866000" lon="7.593635000">
        <ele>60.4</ele>
        <time>2017-04-29T04:30:14</time>
        <extensions><speed>1.50</speed></extensions>
      </trkpt>
      <trkpt lat="51.833878000" lon="7.593641000">
        <ele>60.5</ele>
        <time>2017-04-29T04:30:15</time>
        <extensions><speed>1.55</speed></extensions>
      </trkpt>
      <trkpt lat="51.833893000" lon="7.593648000">
        <ele>60.5</ele>
        <time>2017-04-29T04:30:16</time>
        <extensions><speed>1.56</speed></extensions>
      </trkpt>
      <trkpt lat="51.833904000" lon="7.593655000">
        <ele>60.5</ele>
        <time>2017-04-29T04:30:17</time>
        <extensions><speed>1.51</speed></extensions>
      </trkpt>
      <trkpt lat="51.833916000" lon="7.593660000">
        <ele>60.5</ele>
        <time>2017-04-29T04:30:18</time>
        <extensions><speed>1.47</speed></extensions>
      </trkpt>
      <trkpt lat="51.833931000" lon="7.593663000">
        <ele>60.5</ele>
        <time>2017-04-29T04:30:19</time>
        <extensions><speed>1.52</speed></extensions>
      </trkpt>
      <trkpt lat="51.833942000" lon="7.593668000">
        <ele>60.5</ele>
        <time>2017-04-29T04:30:20</time>
        <extensions><speed>1.52</speed></extensions>
      </trkpt>
      <trkpt lat="51.833958000" lon="7.593676000">
        <ele>60.6</ele>
        <time>2017-04-29T04:30:21</time>
        <extensions><speed>1.57</speed></extensions>
      </trkpt>
      <trkpt lat="51.833969000" lon="7.593681000">
        <ele>60.6</ele>
        <time>2017-04-29T04:30:22</time>
        <extensions><speed>1.61</speed></extensions>
      </trkpt>
      <trkpt lat="51.833981000" lon="7.593687000">
        <ele>60.6</ele>
        <time>2017-04-29T04:30:23</time>
        <extensions><speed>1.61</speed></extensions>
      </trkpt>
      <trkpt lat="51.833996000" lon="7.593690000">
        <ele>60.6</ele>
        <time>2017-04-29T04:30:24</time>
        <extensions><speed>1.55</speed></extensions>
      </trkpt>
      <trkpt lat="51.834003000" lon="7.593693000">
        <ele>60.6</ele>
        <time>2017-04-29T04:30:25</time>
        <extensions><speed>1.50</speed></extensions>
      </trkpt>
      <trkpt lat="51.834019000" lon="7.593699000">
        <ele>60.7</ele>
        <time>2017-04-29T04:30:26</time>
        <extensions><speed>1.44</speed></extensions>
      </trkpt>
      <trkpt lat="51.834034000" lon="7.593705000">
        <ele>60.7</ele>
        <time>2017-04-29T04:30:27</time>
        <extensions><speed>1.44</speed></extensions>
      </trkpt>
      <trkpt lat="51.834045000" lon="7.593711000">
        <ele>60.7</ele>
        <time>2017-04-29T04:30:28</time>
        <extensions><speed>1.48</speed></extensions>
      </trkpt>
      <trkpt lat="51.834057000" lon="7.593716000">
        <ele>60.7</ele>
        <time>2017-04-29T04:30:29</time>
        <extensions><speed>1.47</speed></extensions>
      </trkpt>
      <trkpt lat="51.834068000" lon="7.593723000">
        <ele>60.7</ele>
        <time>2017-04-29T04:30:30</time>
        <extensions><speed>1.49</speed></extensions>
      </trkpt>
      <trkpt lat="51.834080000" lon="7.593730000">
        <ele>60.8</ele>
        <time>2017-04-29T04:30:31</time>
        <extensions><speed>1.53</speed></extensions>
      </trkpt>
      <trkpt lat="51.834095000" lon="7.593737000">
        <ele>60.8</ele>
        <time>2017-04-29T04:30:32</time>
        <extensions><speed>1.50</speed></extensions>
      </trkpt>
      <trkpt lat="51.834106000" lon="7.593744000">
        <ele>60.8</ele>
        <time>2017-04-29T04:30:33</time>
        <extensions><speed>1.52</speed></extensions>
      </trkpt>
      <trkpt lat="51.834122000" lon="7.593750000">
        <ele>60.8</ele>
        <time>2017-04-29T04:30:34</time>
        <extensions><speed>1.53</speed></extensions>
      </trkpt>
      <trkpt lat="51.834133000" lon="7.593757000">
        <ele>60.8</ele>
        <time>2017-04-29T04:30:35</time>
        <extensions><speed>1.51</speed></extensions>
      </trkpt>
      <trkpt lat="51.834145000" lon="7.593760000">
        <ele>60.8</ele>
        <time>2017-04-29T04:30:36</time>
        <extensions><speed>1.49</speed></extensions>
      </trkpt>
      <trkpt lat="51.834160000" lon="7.593763000">
        <ele>60.9</ele>
        <time>2017-04-29T04:30:37</time>
        <extensions><speed>1.49</speed></extensions>
      </trkpt>
      <trkpt lat="51.834171000" lon="7.593769000">
        <ele>60.9</ele>
        <time>2017-04-29T04:30:38</time>
        <extensions><speed>1.49</speed></extensions>
      </trkpt>
      <trkpt lat="51.834187000" lon="7.593775000">
        <ele>60.9</ele>
        <time>2017-04-29T04:30:39</time>
        <extensions><speed>1.48</speed></extensions>
      </trkpt>
      <trkpt lat="51.834198000" lon="7.593781000">
        <ele>60.9</ele>
        <time>2017-04-29T04:30:40</time>
        <extensions><speed>1.48</speed></extensions>
      </trkpt>
      <trkpt lat="51.834213000" lon="7.593783000">
        <ele>60.9</ele>
        <time>2017-04-29T04:30:41</time>
        <extensions><speed>1.52</speed></extensions>
      </trkpt>
      <trkpt lat="51.834229000" lon="7.593786000">
        <ele>60.9</ele>
        <time>2017-04-29T04:30:42</time>
        <extensions><speed>1.55</speed></extensions>
      </trkpt>
      <trkpt lat="51.834240000" lon="7.593788000">
        <ele>61.0</ele>
        <time>2017-04-29T04:30:43</time>
        <extensions><speed>1.53</speed></extensions>
      </trkpt>
      <trkpt lat="51.834255000" lon="7.593793000">
        <ele>61.0</ele>
        <time>2017-04-29T04:30:44</time>
        <extensions><speed>1.53</speed></extensions>
      </trkpt>
      <trkpt lat="51.834263000" lon="7.593798000">
        <ele>61.0</ele>
        <time>2017-04-29T04:30:45</time>
        <extensions><speed>1.53</speed></extensions>
      </trkpt>
      <trkpt lat="51.834282000" lon="7.593805000">
        <ele>61.0</ele>
        <time>2017-04-29T04:30:46</time>
        <extensions><speed>1.53</speed></extensions>
      </trkpt>
      <trkpt lat="51.834293000" lon="7.593807000">
        <ele>61.0</ele>
        <time>2017-04-29T04:30:47</time>
        <extensions><speed>1.51</speed></extensions>
      </trkpt>
      <trkpt lat="51.834305000" lon="7.593810000">
        <ele>61.0</ele>
        <time>2017-04-29T04:30:48</time>
        <extensions><speed>1.48</speed></extensions>
      </trkpt>
      <trkpt lat="51.834316000" lon="7.593815000">
        <ele>61.0</ele>
        <time>2017-04-29T04:30:49</time>
        <extensions><speed>1.43</speed></extensions>
      </trkpt>
      <trkpt lat="51.834328000" lon="7.593820000">
        <ele>61.0</ele>
        <time>2017-04-29T04:30:50</time>
        <extensions><speed>1.38</speed></extensions>
      </trkpt>
      <trkpt lat="51.834339000" lon="7.593826000">
        <ele>61.0</ele>
        <time>2017-04-29T04:30:51</time>
        <extensions><speed>1.38</speed></extensions>
      </trkpt>
      <trkpt lat="51.834351000" lon="7.593832000">
        <ele>61.0</ele>
        <time>2017-04-29T04:30:52</time>
        <extensions><speed>1.38</speed></extensions>
      </trkpt>
      <trkpt lat="51.834362000" lon="7.593837000">
        <ele>61.0</ele>
        <time>2017-04-29T04:30:53</time>
        <extensions><speed>1.39</speed></extensions>
      </trkpt>
      <trkpt lat="51.834377000" lon="7.593845000">
        <ele>61.0</ele>
        <time>2017-04-29T04:30:54</time>
        <extensions><speed>1.46</speed></extensions>
      </trkpt>
      <trkpt lat="51.834393000" lon="7.593851000">
        <ele>61.0</ele>
        <time>2017-04-29T04:30:55</time>
        <extensions><speed>1.52</speed></extensions>
      </trkpt>
      <trkpt lat="51.834404000" lon="7.593860000">
        <ele>61.0</ele>
        <time>2017-04-29T04:30:56</time>
        <extensions><speed>1.54</speed></extensions>
      </trkpt>
      <trkpt lat="51.834419000" lon="7.593868000">
        <ele>61.0</ele>
        <time>2017-04-29T04:30:57</time>
        <extensions><speed>1.62</speed></extensions>
      </trkpt>
      <trkpt lat="51.834431000" lon="7.593877000">
        <ele>61.0</ele>
        <time>2017-04-29T04:30:58</time>
        <extensions><speed>1.58</speed></extensions>
      </trkpt>
      <trkpt lat="51.834446000" lon="7.593882000">
        <ele>61.0</ele>
        <time>2017-04-29T04:30:59</time>
        <extensions><speed>1.54</speed></extensions>
      </trkpt>
      <trkpt lat="51.834457000" lon="7.593884000">
        <ele>61.0</ele>
        <time>2017-04-29T04:31:00</time>
        <extensions><speed>1.50</speed></extensions>
      </trkpt>
      <trkpt lat="51.834469000" lon="7.593890000">
        <ele>61.0</ele>
        <time>2017-04-29T04:31:01</time>
        <extensions><speed>1.51</speed></extensions>
      </trkpt>
      <trkpt lat="51.834484000" lon="7.593895000">
        <ele>61.0</ele>
        <time>2017-04-29T04:31:02</time>
        <extensions><speed>1.49</speed></extensions>
      </trkpt>
      <trkpt lat="51.834496000" lon="7.593898000">
        <ele>61.0</ele>
        <time>2017-04-29T04:31:03</time>
        <extensions><speed>1.49</speed></extensions>
      </trkpt>
      <trkpt lat="51.834511000" lon="7.593902000">
        <ele>61.0</ele>
        <time>2017-04-29T04:31:04</time>
        <extensions><speed>1.50</speed></extensions>
      </trkpt>
      <trkpt lat="51.834522000" lon="7.593907000">
        <ele>61.0</ele>
        <time>2017-04-29T04:31:05</time>
        <extensions><speed>1.50</speed></extensions>
      </trkpt>
      <trkpt lat="51.834534000" lon="7.593910000">
        <ele>61.0</ele>
        <time>2017-04-29T04:31:06</time>
        <extensions><speed>1.54</speed></extensions>
      </trkpt>
      <trkpt lat="51.834553000" lon="7.593914000">
        <ele>61.0</ele>
        <time>2017-04-29T04:31:07</time>
        <extensions><speed>1.54</speed></extensions>
      </trkpt>
      <trkpt lat="51.834560000" lon="7.593917000">
        <ele>61.0</ele>
        <time>2017-04-29T04:31:08</time>
        <extensions><speed>1.55</speed></extensions>
      </trkpt>
      <trkpt lat="51.834576000" lon="7.593920000">
        <ele>61.0</ele>
        <time>2017-04-29T04:31:09</time>
        <extensions><speed>1.54</speed></extensions>
      </trkpt>
      <trkpt lat="51.834591000" lon="7.593923000">
        <ele>61.0</ele>
        <time>2017-04-29T04:31:10</time>
        <extensions><speed>1.58</speed></extensions>
      </trkpt>
      <trkpt lat="51.834606000" lon="7.593928000">
        <ele>61.0</ele>
        <time>2017-04-29T04:31:11</time>
        <extensions><speed>1.53</speed></extensions>
      </trkpt>
      <trkpt lat="51.834618000" lon="7.593928000">
        <ele>61.0</ele>
        <time>2017-04-29T04:31:12</time>
        <extensions><speed>1.51</speed></extensions>
      </trkpt>
      <trkpt lat="51.834629000" lon="7.593928000">
        <ele>61.0</ele>
        <time>2017-04-29T04:31:13</time>
        <extensions><speed>1.51</speed></extensions>
      </trkpt>
      <trkpt lat="51.834644000" lon="7.593930000">
        <ele>61.0</ele>
        <time>2017-04-29T04:31:14</time>
        <extensions><speed>1.46</speed></extensions>
      </trkpt>
      <trkpt lat="51.834656000" lon="7.593933000">
        <ele>61.0</ele>
        <time>2017-04-29T04:31:15</time>
        <extensions><speed>1.43</speed></extensions>
      </trkpt>
      <trkpt lat="51.834671000" lon="7.593936000">
        <ele>61.0</ele>
        <time>2017-04-29T04:31:16</time>
        <extensions><speed>1.49</speed></extensions>
      </trkpt>
      <trkpt lat="51.834686000" lon="7.593940000">
        <ele>61.0</ele>
        <time>2017-04-29T04:31:17</time>
        <extensions><speed>1.54</speed></extensions>
      </trkpt>
      <trkpt lat="51.834698000" lon="7.593944000">
        <ele>61.0</ele>
        <time>2017-04-29T04:31:18</time>
        <extensions><speed>1.52</speed></extensions>
      </trkpt>
      <trkpt lat="51.834709000" lon="7.593947000">
        <ele>61.0</ele>
        <time>2017-04-29T04:31:19</time>
        <extensions><speed>1.54</speed></extensions>
      </trkpt>
      <trkpt lat="51.834721000" lon="7.593950000">
        <ele>61.0</ele>
        <time>2017-04-29T04:31:20</time>
        <extensions><speed>1.51</speed></extensions>
      </trkpt>
      <trkpt lat="51.834736000" lon="7.593950000">
        <ele>61.0</ele>
        <time>2017-04-29T04:31:21</time>
        <extensions><speed>1.54</speed></extensions>
      </trkpt>
      <trkpt lat="51.834751000" lon="7.593952000">
        <ele>61.0</ele>
        <time>2017-04-29T04:31:22</time>
        <extensions><speed>1.53</speed></extensions>
      </trkpt>
      <trkpt lat="51.834763000" lon="7.593955000">
        <ele>61.0</ele>
        <time>2017-04-29T04:31:23</time>
        <extensions><speed>1.53</speed></extensions>
      </trkpt>
      <trkpt lat="51.834778000" lon="7.593956000">
        <ele>61.0</ele>
        <time>2017-04-29T04:31:24</time>
        <extensions><speed>1.50</speed></extensions>
      </trkpt>
      <trkpt lat="51.834789000" lon="7.593961000">
        <ele>61.0</ele>
        <time>2017-04-29T04:31:25</time>
        <extensions><speed>1.50</speed></extensions>
      </trkpt>
      <trkpt lat="51.834801000" lon="7.593963000">
        <ele>61.0</ele>
        <time>2017-04-29T04:31:26</time>
        <extensions><speed>1.52</speed></extensions>
      </trkpt>
      <trkpt lat="51.834816000" lon="7.593965000">
        <ele>61.0</ele>
        <time>2017-04-29T04:31:27</time>
        <extensions><speed>1.57</speed></extensions>
      </trkpt>
      <trkpt lat="51.834831000" lon="7.593968000">
        <ele>61.0</ele>
        <time>2017-04-29T04:31:28</time>
        <extensions><speed>1.49</speed></extensions>
      </trkpt>
      <trkpt lat="51.834843000" lon="7.593968000">
        <ele>61.0</ele>
        <time>2017-04-29T04:31:29</time>
        <extensions><speed>1.56</speed></extensions>
      </trkpt>
      <trkpt lat="51.834854000" lon="7.593968000">
        <ele>61.0</ele>
        <time>2017-04-29T04:31:30</time>
        <extensions><speed>1.62</speed></extensions>
      </trkpt>
      <trkpt lat="51.834873000" lon="7.593965000">
        <ele>61.0</ele>
        <time>2017-04-29T04:31:31</time>
        <extensions><speed>1.66</speed></extensions>
      </trkpt>
      <trkpt lat="51.834885000" lon="7.593963000">
        <ele>61.0</ele>
        <time>2017-04-29T04:31:32</time>
        <extensions><speed>1.59</speed></extensions>
      </trkpt>
      <trkpt lat="51.834896000" lon="7.593965000">
        <ele>61.0</ele>
        <time>2017-04-29T04:31:33</time>
        <extensions><speed>1.59</speed></extensions>
      </trkpt>
      <trkpt lat="51.834908000" lon="7.593965000">
        <ele>61.0</ele>
        <time>2017-04-29T04:31:34</time>
        <extensions><speed>1.47</speed></extensions>
      </trkpt>
      <trkpt lat="51.834915000" lon="7.593963000">
        <ele>61.0</ele>
        <time>2017-04-29T04:31:35</time>
        <extensions><speed>1.41</speed></extensions>
      </trkpt>
      <trkpt lat="51.834930000" lon="7.593963000">
        <ele>61.0</ele>
        <time>2017-04-29T04:31:36</time>
        <extensions><speed>1.41</speed></extensions>
      </trkpt>
      <trkpt lat="51.834946000" lon="7.593965000">
        <ele>61.0</ele>
        <time>2017-04-29T04:31:37</time>
        <extensions><speed>1.48</speed></extensions>
      </trkpt>
      <trkpt lat="51.834957000" lon="7.593966000">
        <ele>61.0</ele>
        <time>2017-04-29T04:31:38</time>
        <extensions><speed>1.45</speed></extensions>
      </trkpt>
      <trkpt lat="51.834969000" lon="7.593966000">
        <ele>61.0</ele>
        <time>2017-04-29T04:31:39</time>
        <extensions><speed>1.46</speed></extensions>
      </trkpt>
      <trkpt lat="51.834980000" lon="7.593968000">
        <ele>61.0</ele>
        <time>2017-04-29T04:31:40</time>
        <extensions><speed>1.42</speed></extensions>
      </trkpt>
      <trkpt lat="51.834988000" lon="7.593970000">
        <ele>61.0</ele>
        <time>2017-04-29T04:31:41</time>
        <extensions><speed>1.35</speed></extensions>
      </trkpt>
      <trkpt lat="51.835003000" lon="7.593975000">
        <ele>61.0</ele>
        <time>2017-04-29T04:31:42</time>
        <extensions><speed>1.28</speed></extensions>
      </trkpt>
      <trkpt lat="51.835014000" lon="7.593975000">
        <ele>61.1</ele>
        <time>2017-04-29T04:31:43</time>
        <extensions><speed>1.28</speed></extensions>
      </trkpt>
      <trkpt lat="51.835026000" lon="7.593977000">
        <ele>61.1</ele>
        <time>2017-04-29T04:31:44</time>
        <extensions><speed>1.27</speed></extensions>
      </trkpt>
      <trkpt lat="51.835041000" lon="7.593980000">
        <ele>61.1</ele>
        <time>2017-04-29T04:31:45</time>
        <extensions><speed>1.32</speed></extensions>
      </trkpt>
      <trkpt lat="51.835052000" lon="7.593984000">
        <ele>61.1</ele>
        <time>2017-04-29T04:31:46</time>
        <extensions><speed>1.45</speed></extensions>
      </trkpt>
      <trkpt lat="51.835068000" lon="7.593984000">
        <ele>61.1</ele>
        <time>2017-04-29T04:31:47</time>
        <extensions><speed>1.54</speed></extensions>
      </trkpt>
      <trkpt lat="51.835079000" lon="7.593984000">
        <ele>61.1</ele>
        <time>2017-04-29T04:31:48</time>
        <extensions><speed>1.55</speed></extensions>
      </trkpt>
      <trkpt lat="51.835094000" lon="7.593982000">
        <ele>61.1</ele>
        <time>2017-04-29T04:31:49</time>
        <extensions><speed>1.62</speed></extensions>
      </trkpt>
      <trkpt lat="51.835110000" lon="7.593982000">
        <ele>61.1</ele>
        <time>2017-04-29T04:31:50</time>
        <extensions><speed>1.58</speed></extensions>
      </trkpt>
      <trkpt lat="51.835121000" lon="7.593984000">
        <ele>61.1</ele>
        <time>2017-04-29T04:31:51</time>
        <extensions><speed>1.58</speed></extensions>
      </trkpt>
      <trkpt lat="51.835136000" lon="7.593989000">
        <ele>61.1</ele>
        <time>2017-04-29T04:31:52</time>
        <extensions><speed>1.59</speed></extensions>
      </trkpt>
      <trkpt lat="51.835148000" lon="7.593995000">
        <ele>61.2</ele>
        <time>2017-04-29T04:31:53</time>
        <extensions><speed>1.59</speed></extensions>
      </trkpt>
      <trkpt lat="51.835159000" lon="7.594005000">
        <ele>61.2</ele>
        <time>2017-04-29T04:31:54</time>
        <extensions><speed>1.51</speed></extensions>
      </trkpt>
      <trkpt lat="51.835171000" lon="7.594017000">
        <ele>61.2</ele>
        <time>2017-04-29T04:31:55</time>
        <extensions><speed>1.46</speed></extensions>
      </trkpt>
      <trkpt lat="51.835182000" lon="7.594024000">
        <ele>61.2</ele>
        <time>2017-04-29T04:31:56</time>
        <extensions><speed>1.46</speed></extensions>
      </trkpt>
      <trkpt lat="51.835197000" lon="7.594026000">
        <ele>61.2</ele>
        <time>2017-04-29T04:31:57</time>
        <extensions><speed>1.37</speed></extensions>
      </trkpt>
      <trkpt lat="51.835209000" lon="7.594035000">
        <ele>61.2</ele>
        <time>2017-04-29T04:31:58</time>
        <extensions><speed>1.42</speed></extensions>
      </trkpt>
      <trkpt lat="51.835220000" lon="7.594043000">
        <ele>61.2</ele>
        <time>2017-04-29T04:31:59</time>
        <extensions><speed>1.43</speed></extensions>
      </trkpt>
      <trkpt lat="51.835232000" lon="7.594052000">
        <ele>61.3</ele>
        <time>2017-04-29T04:32:00</time>
        <extensions><speed>1.41</speed></extensions>
      </trkpt>
      <trkpt lat="51.835243000" lon="7.594057000">
        <ele>61.3</ele>
        <time>2017-04-29T04:32:01</time>
        <extensions><speed>1.40</speed></extensions>
      </trkpt>
      <trkpt lat="51.835255000" lon="7.594063000">
        <ele>61.3</ele>
        <time>2017-04-29T04:32:02</time>
        <extensions><speed>1.39</speed></extensions>
      </trkpt>
      <trkpt lat="51.835266000" lon="7.594067000">
        <ele>61.3</ele>
        <time>2017-04-29T04:32:03</time>
        <extensions><speed>1.33</speed></extensions>
      </trkpt>
      <trkpt lat="51.835278000" lon="7.594070000">
        <ele>61.3</ele>
        <time>2017-04-29T04:32:04</time>
        <extensions><speed>1.34</speed></extensions>
      </trkpt>
      <trkpt lat="51.835293000" lon="7.594077000">
        <ele>61.3</ele>
        <time>2017-04-29T04:32:05</time>
        <extensions><speed>1.39</speed></extensions>
      </trkpt>
      <trkpt lat="51.835304000" lon="7.594085000">
        <ele>61.3</ele>
        <time>2017-04-29T04:32:06</time>
        <extensions><speed>1.39</speed></extensions>
      </trkpt>
      <trkpt lat="51.835316000" lon="7.594096000">
        <ele>61.4</ele>
        <time>2017-04-29T04:32:07</time>
        <extensions><speed>1.39</speed></extensions>
      </trkpt>
      <trkpt lat="51.835323000" lon="7.594110000">
        <ele>61.4</ele>
        <time>2017-04-29T04:32:08</time>
        <extensions><speed>1.44</speed></extensions>
      </trkpt>
      <trkpt lat="51.835335000" lon="7.594125000">
        <ele>61.4</ele>
        <time>2017-04-29T04:32:09</time>
        <extensions><speed>1.41</speed></extensions>
      </trkpt>
      <trkpt lat="51.835339000" lon="7.594138000">
        <ele>61.4</ele>
        <time>2017-04-29T04:32:10</time>
        <extensions><speed>1.33</speed></extensions>
      </trkpt>
      <trkpt lat="51.835339000" lon="7.594153000">
        <ele>61.4</ele>
        <time>2017-04-29T04:32:11</time>
        <extensions><speed>1.29</speed></extensions>
      </trkpt>
      <trkpt lat="51.835346000" lon="7.594170000">
        <ele>61.4</ele>
        <time>2017-04-29T04:32:12</time>
        <extensions><speed>1.26</speed></extensions>
      </trkpt>
      <trkpt lat="51.835350000" lon="7.594189000">
        <ele>61.5</ele>
        <time>2017-04-29T04:32:13</time>
        <extensions><speed>1.26</speed></extensions>
      </trkpt>
      <trkpt lat="51.835350000" lon="7.594206000">
        <ele>61.5</ele>
        <time>2017-04-29T04:32:14</time>
        <extensions><speed>1.30</speed></extensions>
      </trkpt>
      <trkpt lat="51.835354000" lon="7.594227000">
        <ele>61.5</ele>
        <time>2017-04-29T04:32:15</time>
        <extensions><speed>1.35</speed></extensions>
      </trkpt>
      <trkpt lat="51.835350000" lon="7.594246000">
        <ele>61.5</ele>
        <time>2017-04-29T04:32:16</time>
        <extensions><speed>1.36</speed></extensions>
      </trkpt>
      <trkpt lat="51.835350000" lon="7.594265000">
        <ele>61.6</ele>
        <time>2017-04-29T04:32:17</time>
        <extensions><speed>1.36</speed></extensions>
      </trkpt>
      <trkpt lat="51.835350000" lon="7.594285000">
        <ele>61.6</ele>
        <time>2017-04-29T04:32:18</time>
        <extensions><speed>1.40</speed></extensions>
      </trkpt>
      <trkpt lat="51.835346000" lon="7.594306000">
        <ele>61.6</ele>
        <time>2017-04-29T04:32:19</time>
        <extensions><speed>1.52</speed></extensions>
      </trkpt>
      <trkpt lat="51.835342000" lon="7.594324000">
        <ele>61.6</ele>
        <time>2017-04-29T04:32:20</time>
        <extensions><speed>1.43</speed></extensions>
      </trkpt>
      <trkpt lat="51.835339000" lon="7.594340000">
        <ele>61.6</ele>
        <time>2017-04-29T04:32:21</time>
        <extensions><speed>1.45</speed></extensions>
      </trkpt>
      <trkpt lat="51.835331000" lon="7.594358000">
        <ele>61.7</ele>
        <time>2017-04-29T04:32:22</time>
        <extensions><speed>1.50</speed></extensions>
      </trkpt>
      <trkpt lat="51.835327000" lon="7.594377000">
        <ele>61.7</ele>
        <time>2017-04-29T04:32:23</time>
        <extensions><speed>1.45</speed></extensions>
      </trkpt>
      <trkpt lat="51.835323000" lon="7.594397000">
        <ele>61.7</ele>
        <time>2017-04-29T04:32:24</time>
        <extensions><speed>1.44</speed></extensions>
      </trkpt>
      <trkpt lat="51.835316000" lon="7.594417000">
        <ele>61.7</ele>
        <time>2017-04-29T04:32:25</time>
        <extensions><speed>1.48</speed></extensions>
      </trkpt>
      <trkpt lat="51.835312000" lon="7.594439000">
        <ele>61.7</ele>
        <time>2017-04-29T04:32:26</time>
        <extensions><speed>1.50</speed></extensions>
      </trkpt>
      <trkpt lat="51.835308000" lon="7.594462000">
        <ele>61.8</ele>
        <time>2017-04-29T04:32:27</time>
        <extensions><speed>1.53</speed></extensions>
      </trkpt>
      <trkpt lat="51.835297000" lon="7.594480000">
        <ele>61.8</ele>
        <time>2017-04-29T04:32:28</time>
        <extensions><speed>1.52</speed></extensions>
      </trkpt>
      <trkpt lat="51.835289000" lon="7.594493000">
        <ele>61.8</ele>
        <time>2017-04-29T04:32:29</time>
        <extensions><speed>1.42</speed></extensions>
      </trkpt>
      <trkpt lat="51.835278000" lon="7.594502000">
        <ele>61.8</ele>
        <time>2017-04-29T04:32:30</time>
        <extensions><speed>1.37</speed></extensions>
      </trkpt>
      <trkpt lat="51.835270000" lon="7.594515000">
        <ele>61.8</ele>
        <time>2017-04-29T04:32:31</time>
        <extensions><speed>1.41</speed></extensions>
      </trkpt>
      <trkpt lat="51.835255000" lon="7.594530000">
        <ele>61.9</ele>
        <time>2017-04-29T04:32:32</time>
        <extensions><speed>1.33</speed></extensions>
      </trkpt>
      <trkpt lat="51.835251000" lon="7.594533000">
        <ele>61.9</ele>
        <time>2017-04-29T04:32:33</time>
      </trkpt>
      <trkpt lat="51.835243000" lon="7.594537000">
        <ele>61.9</ele>
        <time>2017-04-29T04:32:35</time>
        <extensions><speed>1.24</speed></extensions>
      </trkpt>
      <trkpt lat="51.835228000" lon="7.594539000">
        <ele>61.9</ele>
        <time>2017-04-29T04:32:36</time>
        <extensions><speed>1.21</speed></extensions>
      </trkpt>
      <trkpt lat="51.835213000" lon="7.594539000">
        <ele>61.9</ele>
        <time>2017-04-29T04:32:37</time>
        <extensions><speed>1.21</speed></extensions>
      </trkpt>
      <trkpt lat="51.835201000" lon="7.594535000">
        <ele>61.9</ele>
        <time>2017-04-29T04:32:38</time>
        <extensions><speed>1.30</speed></extensions>
      </trkpt>
      <trkpt lat="51.835190000" lon="7.594528000">
        <ele>61.9</ele>
        <time>2017-04-29T04:32:39</time>
        <extensions><speed>1.40</speed></extensions>
      </trkpt>
      <trkpt lat="51.835175000" lon="7.594522000">
        <ele>61.9</ele>
        <time>2017-04-29T04:32:40</time>
        <extensions><speed>1.40</speed></extensions>
      </trkpt>
      <trkpt lat="51.835167000" lon="7.594513000">
        <ele>61.9</ele>
        <time>2017-04-29T04:32:41</time>
        <extensions><speed>1.41</speed></extensions>
      </trkpt>
      <trkpt lat="51.835159000" lon="7.594503000">
        <ele>61.9</ele>
        <time>2017-04-29T04:32:42</time>
        <extensions><speed>1.36</speed></extensions>
      </trkpt>
      <trkpt lat="51.835148000" lon="7.594491000">
        <ele>61.8</ele>
        <time>2017-04-29T04:32:43</time>
        <extensions><speed>1.39</speed></extensions>
      </trkpt>
      <trkpt lat="51.835136000" lon="7.594485000">
        <ele>61.8</ele>
        <time>2017-04-29T04:32:44</time>
        <extensions><speed>1.31</speed></extensions>
      </trkpt>
      <trkpt lat="51.835125000" lon="7.594477000">
        <ele>61.8</ele>
        <time>2017-04-29T04:32:45</time>
        <extensions><speed>1.31</speed></extensions>
      </trkpt>
      <trkpt lat="51.835114000" lon="7.594463000">
        <ele>61.8</ele>
        <time>2017-04-29T04:32:46</time>
        <extensions><speed>1.24</speed></extensions>
      </trkpt>
      <trkpt lat="51.835110000" lon="7.594451000">
        <ele>61.7</ele>
        <time>2017-04-29T04:32:47</time>
        <extensions><speed>1.16</speed></extensions>
      </trkpt>
      <trkpt lat="51.835102000" lon="7.594445000">
        <ele>61.7</ele>
        <time>2017-04-29T04:32:48</time>
        <extensions><speed>1.15</speed></extensions>
      </trkpt>
      <trkpt lat="51.835091000" lon="7.594442000">
        <ele>61.7</ele>
        <time>2017-04-29T04:32:49</time>
        <extensions><speed>1.09</speed></extensions>
      </trkpt>
      <trkpt lat="51.835083000" lon="7.594437000">
        <ele>61.6</ele>
        <time>2017-04-29T04:32:50</time>
        <extensions><speed>1.04</speed></extensions>
      </trkpt>
      <trkpt lat="51.835075000" lon="7.594427000">
        <ele>61.6</ele>
        <time>2017-04-29T04:32:51</time>
        <extensions><speed>1.08</speed></extensions>
      </trkpt>
      <trkpt lat="51.835072000" lon="7.594408000">
        <ele>61.6</ele>
        <time>2017-04-29T04:32:52</time>
        <extensions><speed>1.13</speed></extensions>
      </trkpt>
      <trkpt lat="51.835072000" lon="7.594388000">
        <ele>61.6</ele>
        <time>2017-04-29T04:32:53</time>
        <extensions><speed>1.14</speed></extensions>
      </trkpt>
      <trkpt lat="51.835072000" lon="7.594370000">
        <ele>61.5</ele>
        <time>2017-04-29T04:32:54</time>
        <extensions><speed>1.21</speed></extensions>
      </trkpt>
      <trkpt lat="51.835068000" lon="7.594353000">
        <ele>61.5</ele>
        <time>2017-04-29T04:32:55</time>
        <extensions><speed>1.21</speed></extensions>
      </trkpt>
      <trkpt lat="51.835060000" lon="7.594340000">
        <ele>61.5</ele>
        <time>2017-04-29T04:32:56</time>
        <extensions><speed>1.23</speed></extensions>
      </trkpt>
      <trkpt lat="51.835052000" lon="7.594327000">
        <ele>61.5</ele>
        <time>2017-04-29T04:32:57</time>
        <extensions><speed>1.27</speed></extensions>
      </trkpt>
      <trkpt lat="51.835045000" lon="7.594308000">
        <ele>61.4</ele>
        <time>2017-04-29T04:32:58</time>
        <extensions><speed>1.27</speed></extensions>
      </trkpt>
      <trkpt lat="51.835041000" lon="7.594288000">
        <ele>61.4</ele>
        <time>2017-04-29T04:32:59</time>
        <extensions><speed>1.30</speed></extensions>
      </trkpt>
      <trkpt lat="51.835026000" lon="7.594268000">
        <ele>61.4</ele>
        <time>2017-04-29T04:33:00</time>
        <extensions><speed>1.30</speed></extensions>
      </trkpt>
      <trkpt lat="51.835014000" lon="7.594250000">
        <ele>61.4</ele>
        <time>2017-04-29T04:33:01</time>
        <extensions><speed>1.30</speed></extensions>
      </trkpt>
      <trkpt lat="51.835007000" lon="7.594238000">
        <ele>61.3</ele>
        <time>2017-04-29T04:33:02</time>
        <extensions><speed>1.28</speed></extensions>
      </trkpt>
      <trkpt lat="51.834995000" lon="7.594232000">
        <ele>61.3</ele>
        <time>2017-04-29T04:33:03</time>
        <extensions><speed>1.28</speed></extensions>
      </trkpt>
      <trkpt lat="51.834980000" lon="7.594225000">
        <ele>61.3</ele>
        <time>2017-04-29T04:33:04</time>
        <extensions><speed>1.28</speed></extensions>
      </trkpt>
      <trkpt lat="51.834972000" lon="7.594218000">
        <ele>61.3</ele>
        <time>2017-04-29T04:33:05</time>
        <extensions><speed>1.29</speed></extensions>
      </trkpt>
      <trkpt lat="51.834961000" lon="7.594213000">
        <ele>61.2</ele>
        <time>2017-04-29T04:33:06</time>
        <extensions><speed>1.23</speed></extensions>
      </trkpt>
      <trkpt lat="51.834949000" lon="7.594206000">
        <ele>61.2</ele>
        <time>2017-04-29T04:33:07</time>
        <extensions><speed>1.31</speed></extensions>
      </trkpt>
      <trkpt lat="51.834942000" lon="7.594206000">
        <ele>61.2</ele>
        <time>2017-04-29T04:33:08</time>
        <extensions><speed>1.18</speed></extensions>
      </trkpt>
      <trkpt lat="51.834927000" lon="7.594205000">
        <ele>61.2</ele>
        <time>2017-04-29T04:33:09</time>
        <extensions><speed>1.13</speed></extensions>
      </trkpt>
      <trkpt lat="51.834915000" lon="7.594200000">
        <ele>61.1</ele>
        <time>2017-04-29T04:33:10</time>
        <extensions><speed>1.09</speed></extensions>
      </trkpt>
      <trkpt lat="51.834904000" lon="7.594195000">
        <ele>61.1</ele>
        <time>2017-04-29T04:33:11</time>
        <extensions><speed>1.12</speed></extensions>
      </trkpt>
      <trkpt lat="51.834892000" lon="7.594195000">
        <ele>61.1</ele>
        <time>2017-04-29T04:33:12</time>
        <extensions><speed>1.10</speed></extensions>
      </trkpt>
      <trkpt lat="51.834881000" lon="7.594192000">
        <ele>61.1</ele>
        <time>2017-04-29T04:33:13</time>
        <extensions><speed>1.13</speed></extensions>
      </trkpt>
      <trkpt lat="51.834866000" lon="7.594192000">
        <ele>61.1</ele>
        <time>2017-04-29T04:33:14</time>
        <extensions><speed>1.16</speed></extensions>
      </trkpt>
      <trkpt lat="51.834854000" lon="7.594193000">
        <ele>61.1</ele>
        <time>2017-04-29T04:33:15</time>
      </trkpt>
      <trkpt lat="51.834846000" lon="7.594195000">
        <ele>61.0</ele>
        <time>2017-04-29T04:33:17</time>
        <extensions><speed>1.21</speed></extensions>
      </trkpt>
      <trkpt lat="51.834831000" lon="7.594195000">
        <ele>61.0</ele>
        <time>2017-04-29T04:33:18</time>
        <extensions><speed>1.27</speed></extensions>
      </trkpt>
      <trkpt lat="51.834816000" lon="7.594197000">
        <ele>61.0</ele>
        <time>2017-04-29T04:33:19</time>
        <extensions><speed>1.27</speed></extensions>
      </trkpt>
      <trkpt lat="51.834805000" lon="7.594197000">
        <ele>61.0</ele>
        <time>2017-04-29T04:33:20</time>
        <extensions><speed>1.30</speed></extensions>
      </trkpt>
      <trkpt lat="51.834789000" lon="7.594197000">
        <ele>61.0</ele>
        <time>2017-04-29T04:33:21</time>
        <extensions><speed>1.25</speed></extensions>
      </trkpt>
      <trkpt lat="51.834778000" lon="7.594198000">
        <ele>61.0</ele>
        <time>2017-04-29T04:33:22</time>
        <extensions><speed>1.27</speed></extensions>
      </trkpt>
      <trkpt lat="51.834766000" lon="7.594197000">
        <ele>61.0</ele>
        <time>2017-04-29T04:33:23</time>
        <extensions><speed>1.23</speed></extensions>
      </trkpt>
      <trkpt lat="51.834759000" lon="7.594195000">
        <ele>61.0</ele>
        <time>2017-04-29T04:33:24</time>
        <extensions><speed>1.13</speed></extensions>
      </trkpt>
      <trkpt lat="51.834751000" lon="7.594198000">
        <ele>61.0</ele>
        <time>2017-04-29T04:33:25</time>
        <extensions><speed>1.17</speed></extensions>
      </trkpt>
      <trkpt lat="51.834736000" lon="7.594203000">
        <ele>61.0</ele>
        <time>2017-04-29T04:33:26</time>
        <extensions><speed>1.12</speed></extensions>
      </trkpt>
      <trkpt lat="51.834721000" lon="7.594206000">
        <ele>61.0</ele>
        <time>2017-04-29T04:33:27</time>
        <extensions><speed>1.18</speed></extensions>
      </trkpt>
      <trkpt lat="51.834709000" lon="7.594208000">
        <ele>61.0</ele>
        <time>2017-04-29T04:33:28</time>
        <extensions><speed>1.30</speed></extensions>
      </trkpt>
      <trkpt lat="51.834698000" lon="7.594213000">
        <ele>61.0</ele>
        <time>2017-04-29T04:33:29</time>
        <extensions><speed>1.41</speed></extensions>
      </trkpt>
      <trkpt lat="51.834686000" lon="7.594223000">
        <ele>61.0</ele>
        <time>2017-04-29T04:33:30</time>
        <extensions><speed>1.34</speed></extensions>
      </trkpt>
      <trkpt lat="51.834671000" lon="7.594233000">
        <ele>61.0</ele>
        <time>2017-04-29T04:33:31</time>
        <extensions><speed>1.34</speed></extensions>
      </trkpt>
      <trkpt lat="51.834660000" lon="7.594243000">
        <ele>61.0</ele>
        <time>2017-04-29T04:33:32</time>
        <extensions><speed>1.26</speed></extensions>
      </trkpt>
      <trkpt lat="51.834652000" lon="7.594252000">
        <ele>61.0</ele>
        <time>2017-04-29T04:33:33</time>
        <extensions><speed>1.22</speed></extensions>
      </trkpt>
      <trkpt lat="51.834641000" lon="7.594264000">
        <ele>61.0</ele>
        <time>2017-04-29T04:33:34</time>
        <extensions><speed>1.22</speed></extensions>
      </trkpt>
      <trkpt lat="51.834629000" lon="7.594280000">
        <ele>61.0</ele>
        <time>2017-04-29T04:33:35</time>
        <extensions><speed>1.22</speed></extensions>
      </trkpt>
      <trkpt lat="51.834621000" lon="7.594300000">
        <ele>61.0</ele>
        <time>2017-04-29T04:33:36</time>
        <extensions><speed>1.26</speed></extensions>
      </trkpt>
      <trkpt lat="51.834614000" lon="7.594320000">
        <ele>61.0</ele>
        <time>2017-04-29T04:33:37</time>
        <extensions><speed>1.31</speed></extensions>
      </trkpt>
      <trkpt lat="51.834602000" lon="7.594336000">
        <ele>61.0</ele>
        <time>2017-04-29T04:33:38</time>
        <extensions><speed>1.31</speed></extensions>
      </trkpt>
      <trkpt lat="51.834595000" lon="7.594350000">
        <ele>61.0</ele>
        <time>2017-04-29T04:33:39</time>
        <extensions><speed>1.33</speed></extensions>
      </trkpt>
      <trkpt lat="51.834591000" lon="7.594368000">
        <ele>61.0</ele>
        <time>2017-04-29T04:33:40</time>
        <extensions><speed>1.34</speed></extensions>
      </trkpt>
      <trkpt lat="51.834583000" lon="7.594388000">
        <ele>61.0</ele>
        <time>2017-04-29T04:33:41</time>
        <extensions><speed>1.34</speed></extensions>
      </trkpt>
      <trkpt lat="51.834576000" lon="7.594407000">
        <ele>61.0</ele>
        <time>2017-04-29T04:33:42</time>
        <extensions><speed>1.30</speed></extensions>
      </trkpt>
      <trkpt lat="51.834572000" lon="7.594427000">
        <ele>61.0</ele>
        <time>2017-04-29T04:33:43</time>
        <extensions><speed>1.34</speed></extensions>
      </trkpt>
      <trkpt lat="51.834564000" lon="7.594450000">
        <ele>61.0</ele>
        <time>2017-04-29T04:33:44</time>
        <extensions><speed>1.39</speed></extensions>
      </trkpt>
      <trkpt lat="51.834560000" lon="7.594472000">
        <ele>61.0</ele>
        <time>2017-04-29T04:33:45</time>
        <extensions><speed>1.35</speed></extensions>
      </trkpt>
      <trkpt lat="51.834557000" lon="7.594495000">
        <ele>61.1</ele>
        <time>2017-04-29T04:33:46</time>
        <extensions><speed>1.41</speed></extensions>
      </trkpt>
      <trkpt lat="51.834557000" lon="7.594518000">
        <ele>61.1</ele>
        <time>2017-04-29T04:33:47</time>
        <extensions><speed>1.46</speed></extensions>
      </trkpt>
      <trkpt lat="51.834557000" lon="7.594539000">
        <ele>61.1</ele>
        <time>2017-04-29T04:33:48</time>
        <extensions><speed>1.46</speed></extensions>
      </trkpt>
      <trkpt lat="51.834553000" lon="7.594553000">
        <ele>61.1</ele>
        <time>2017-04-29T04:33:49</time>
        <extensions><speed>1.40</speed></extensions>
      </trkpt>
      <trkpt lat="51.834545000" lon="7.594573000">
        <ele>61.1</ele>
        <time>2017-04-29T04:33:50</time>
        <extensions><speed>1.45</speed></extensions>
      </trkpt>
      <trkpt lat="51.834541000" lon="7.594593000">
        <ele>61.1</ele>
        <time>2017-04-29T04:33:51</time>
        <extensions><speed>1.40</speed></extensions>
      </trkpt>
      <trkpt lat="51.834541000" lon="7.594610000">
        <ele>61.2</ele>
        <time>2017-04-29T04:33:52</time>
        <extensions><speed>1.37</speed></extensions>
      </trkpt>
      <trkpt lat="51.834541000" lon="7.594630000">
        <ele>61.2</ele>
        <time>2017-04-29T04:33:53</time>
        <extensions><speed>1.30</speed></extensions>
      </trkpt>
      <trkpt lat="51.834541000" lon="7.594650000">
        <ele>61.2</ele>
        <time>2017-04-29T04:33:54</time>
        <extensions><speed>1.27</speed></extensions>
      </trkpt>
      <trkpt lat="51.834538000" lon="7.594674000">
        <ele>61.2</ele>
        <time>2017-04-29T04:33:55</time>
        <extensions><speed>1.27</speed></extensions>
      </trkpt>
      <trkpt lat="51.834538000" lon="7.594691000">
        <ele>61.2</ele>
        <time>2017-04-29T04:33:56</time>
        <extensions><speed>1.26</speed></extensions>
      </trkpt>
      <trkpt lat="51.834534000" lon="7.594714000">
        <ele>61.2</ele>
        <time>2017-04-29T04:33:57</time>
        <extensions><speed>1.36</speed></extensions>
      </trkpt>
      <trkpt lat="51.834530000" lon="7.594735000">
        <ele>61.2</ele>
        <time>2017-04-29T04:33:58</time>
        <extensions><speed>1.40</speed></extensions>
      </trkpt>
      <trkpt lat="51.834530000" lon="7.594756000">
        <ele>61.3</ele>
        <time>2017-04-29T04:33:59</time>
        <extensions><speed>1.40</speed></extensions>
      </trkpt>
      <trkpt lat="51.834526000" lon="7.594775000">
        <ele>61.3</ele>
        <time>2017-04-29T04:34:00</time>
        <extensions><speed>1.40</speed></extensions>
      </trkpt>
      <trkpt lat="51.834526000" lon="7.594798000">
        <ele>61.3</ele>
        <time>2017-04-29T04:34:01</time>
        <extensions><speed>1.47</speed></extensions>
      </trkpt>
      <trkpt lat="51.834526000" lon="7.594817000">
        <ele>61.3</ele>
        <time>2017-04-29T04:34:02</time>
        <extensions><speed>1.44</speed></extensions>
      </trkpt>
      <trkpt lat="51.834526000" lon="7.594837000">
        <ele>61.3</ele>
        <time>2017-04-29T04:34:03</time>
        <extensions><speed>1.39</speed></extensions>
      </trkpt>
      <trkpt lat="51.834526000" lon="7.594855000">
        <ele>61.3</ele>
        <time>2017-04-29T04:34:04</time>
        <extensions><speed>1.39</speed></extensions>
      </trkpt>
      <trkpt lat="51.834526000" lon="7.594872000">
        <ele>61.3</ele>
        <time>2017-04-29T04:34:05</time>
        <extensions><speed>1.37</speed></extensions>
      </trkpt>
      <trkpt lat="51.834526000" lon="7.594892000">
        <ele>61.4</ele>
        <time>2017-04-29T04:34:06</time>
        <extensions><speed>1.37</speed></extensions>
      </trkpt>
      <trkpt lat="51.834526000" lon="7.594910000">
        <ele>61.4</ele>
        <time>2017-04-29T04:34:07</time>
        <extensions><speed>1.31</speed></extensions>
      </trkpt>
      <trkpt lat="51.834526000" lon="7.594927000">
        <ele>61.4</ele>
        <time>2017-04-29T04:34:08</time>
        <extensions><speed>1.31</speed></extensions>
      </trkpt>
      <trkpt lat="51.834522000" lon="7.594947000">
        <ele>61.4</ele>
        <time>2017-04-29T04:34:09</time>
        <extensions><speed>1.40</speed></extensions>
      </trkpt>
      <trkpt lat="51.834522000" lon="7.594965000">
        <ele>61.4</ele>
        <time>2017-04-29T04:34:10</time>
        <extensions><speed>1.31</speed></extensions>
      </trkpt>
      <trkpt lat="51.834522000" lon="7.594982000">
        <ele>61.4</ele>
        <time>2017-04-29T04:34:11</time>
        <extensions><speed>1.16</speed></extensions>
      </trkpt>
      <trkpt lat="51.834522000" lon="7.594997000">
        <ele>61.4</ele>
        <time>2017-04-29T04:34:12</time>
        <extensions><speed>1.20</speed></extensions>
      </trkpt>
      <trkpt lat="51.834518000" lon="7.595015000">
        <ele>61.4</ele>
        <time>2017-04-29T04:34:13</time>
        <extensions><speed>1.23</speed></extensions>
      </trkpt>
      <trkpt lat="51.834522000" lon="7.595030000">
        <ele>61.5</ele>
        <time>2017-04-29T04:34:14</time>
        <extensions><speed>1.23</speed></extensions>
      </trkpt>
      <trkpt lat="51.834522000" lon="7.595048000">
        <ele>61.5</ele>
        <time>2017-04-29T04:34:15</time>
        <extensions><speed>1.33</speed></extensions>
      </trkpt>
      <trkpt lat="51.834522000" lon="7.595069000">
        <ele>61.5</ele>
        <time>2017-04-29T04:34:16</time>
        <extensions><speed>1.41</speed></extensions>
      </trkpt>
      <trkpt lat="51.834522000" lon="7.595088000">
        <ele>61.5</ele>
        <time>2017-04-29T04:34:17</time>
        <extensions><speed>1.41</speed></extensions>
      </trkpt>
      <trkpt lat="51.834522000" lon="7.595106000">
        <ele>61.5</ele>
        <time>2017-04-29T04:34:18</time>
        <extensions><speed>1.37</speed></extensions>
      </trkpt>
      <trkpt lat="51.834526000" lon="7.595122000">
        <ele>61.5</ele>
        <time>2017-04-29T04:34:19</time>
        <extensions><speed>1.31</speed></extensions>
      </trkpt>
      <trkpt lat="51.834526000" lon="7.595138000">
        <ele>61.4</ele>
        <time>2017-04-29T04:34:20</time>
        <extensions><speed>1.31</speed></extensions>
      </trkpt>
      <trkpt lat="51.834526000" lon="7.595159000">
        <ele>61.4</ele>
        <time>2017-04-29T04:34:21</time>
        <extensions><speed>1.32</speed></extensions>
      </trkpt>
      <trkpt lat="51.834522000" lon="7.595176000">
        <ele>61.4</ele>
        <time>2017-04-29T04:34:22</time>
        <extensions><speed>1.32</speed></extensions>
      </trkpt>
      <trkpt lat="51.834522000" lon="7.595193000">
        <ele>61.4</ele>
        <time>2017-04-29T04:34:23</time>
        <extensions><speed>1.32</speed></extensions>
      </trkpt>
      <trkpt lat="51.834522000" lon="7.595208000">
        <ele>61.4</ele>
        <time>2017-04-29T04:34:24</time>
        <extensions><speed>1.33</speed></extensions>
      </trkpt>
      <trkpt lat="51.834518000" lon="7.595227000">
        <ele>61.4</ele>
        <time>2017-04-29T04:34:25</time>
        <extensions><speed>1.31</speed></extensions>
      </trkpt>
      <trkpt lat="51.834522000" lon="7.595248000">
        <ele>61.4</ele>
        <time>2017-04-29T04:34:26</time>
        <extensions><speed>1.31</speed></extensions>
      </trkpt>
      <trkpt lat="51.834522000" lon="7.595269000">
        <ele>61.4</ele>
        <time>2017-04-29T04:34:27</time>
        <extensions><speed>1.34</speed></extensions>
      </trkpt>
      <trkpt lat="51.834522000" lon="7.595288000">
        <ele>61.3</ele>
        <time>2017-04-29T04:34:28</time>
        <extensions><speed>1.37</speed></extensions>
      </trkpt>
      <trkpt lat="51.834522000" lon="7.595310000">
        <ele>61.3</ele>
        <time>2017-04-29T04:34:29</time>
        <extensions><speed>1.39</speed></extensions>
      </trkpt>
      <trkpt lat="51.834522000" lon="7.595330000">
        <ele>61.3</ele>
        <time>2017-04-29T04:34:30</time>
        <extensions><speed>1.38</speed></extensions>
      </trkpt>
      <trkpt lat="51.834522000" lon="7.595348000">
        <ele>61.3</ele>
        <time>2017-04-29T04:34:31</time>
        <extensions><speed>1.33</speed></extensions>
      </trkpt>
      <trkpt lat="51.834518000" lon="7.595368000">
        <ele>61.3</ele>
        <time>2017-04-29T04:34:32</time>
        <extensions><speed>1.29</speed></extensions>
      </trkpt>
      <trkpt lat="51.834518000" lon="7.595385000">
        <ele>61.3</ele>
        <time>2017-04-29T04:34:33</time>
        <extensions><speed>1.27</speed></extensions>
      </trkpt>
      <trkpt lat="51.834518000" lon="7.595402000">
        <ele>61.3</ele>
        <time>2017-04-29T04:34:34</time>
        <extensions><speed>1.27</speed></extensions>
      </trkpt>
      <trkpt lat="51.834518000" lon="7.595421000">
        <ele>61.2</ele>
        <time>2017-04-29T04:34:35</time>
        <extensions><speed>1.29</speed></extensions>
      </trkpt>
      <trkpt lat="51.834518000" lon="7.595442000">
        <ele>61.2</ele>
        <time>2017-04-29T04:34:36</time>
        <extensions><speed>1.38</speed></extensions>
      </trkpt>
      <trkpt lat="51.834522000" lon="7.595463000">
        <ele>61.2</ele>
        <time>2017-04-29T04:34:37</time>
        <extensions><speed>1.43</speed></extensions>
      </trkpt>
      <trkpt lat="51.834522000" lon="7.595484000">
        <ele>61.2</ele>
        <time>2017-04-29T04:34:38</time>
        <extensions><speed>1.49</speed></extensions>
      </trkpt>
      <trkpt lat="51.834518000" lon="7.595501000">
        <ele>61.2</ele>
        <time>2017-04-29T04:34:39</time>
        <extensions><speed>1.49</speed></extensions>
      </trkpt>
      <trkpt lat="51.834515000" lon="7.595517000">
        <ele>61.2</ele>
        <time>2017-04-29T04:34:40</time>
        <extensions><speed>1.38</speed></extensions>
      </trkpt>
      <trkpt lat="51.834515000" lon="7.595535000">
        <ele>61.2</ele>
        <time>2017-04-29T04:34:41</time>
        <extensions><speed>1.29</speed></extensions>
      </trkpt>
      <trkpt lat="51.834515000" lon="7.595555000">
        <ele>61.2</ele>
        <time>2017-04-29T04:34:42</time>
        <extensions><speed>1.26</speed></extensions>
      </trkpt>
      <trkpt lat="51.834515000" lon="7.595573000">
        <ele>61.1</ele>
        <time>2017-04-29T04:34:43</time>
        <extensions><speed>1.22</speed></extensions>
      </trkpt>
      <trkpt lat="51.834511000" lon="7.595591000">
        <ele>61.1</ele>
        <time>2017-04-29T04:34:44</time>
        <extensions><speed>1.24</speed></extensions>
      </trkpt>
      <trkpt lat="51.834511000" lon="7.595608000">
        <ele>61.1</ele>
        <time>2017-04-29T04:34:45</time>
        <extensions><speed>1.24</speed></extensions>
      </trkpt>
      <trkpt lat="51.834507000" lon="7.595625000">
        <ele>61.1</ele>
        <time>2017-04-29T04:34:46</time>
        <extensions><speed>1.21</speed></extensions>
      </trkpt>
      <trkpt lat="51.834503000" lon="7.595645000">
        <ele>61.1</ele>
        <time>2017-04-29T04:34:47</time>
        <extensions><speed>1.21</speed></extensions>
      </trkpt>
      <trkpt lat="51.834503000" lon="7.595666000">
        <ele>61.0</ele>
        <time>2017-04-29T04:34:48</time>
        <extensions><speed>1.24</speed></extensions>
      </trkpt>
      <trkpt lat="51.834503000" lon="7.595687000">
        <ele>61.0</ele>
        <time>2017-04-29T04:34:49</time>
        <extensions><speed>1.28</speed></extensions>
      </trkpt>
      <trkpt lat="51.834499000" lon="7.595706000">
        <ele>61.0</ele>
        <time>2017-04-29T04:34:50</time>
        <extensions><speed>1.35</speed></extensions>
      </trkpt>
      <trkpt lat="51.834496000" lon="7.595727000">
        <ele>61.0</ele>
        <time>2017-04-29T04:34:51</time>
        <extensions><speed>1.35</speed></extensions>
      </trkpt>
      <trkpt lat="51.834496000" lon="7.595743000">
        <ele>61.0</ele>
        <time>2017-04-29T04:34:52</time>
        <extensions><speed>1.34</speed></extensions>
      </trkpt>
      <trkpt lat="51.834492000" lon="7.595762000">
        <ele>61.0</ele>
        <time>2017-04-29T04:34:53</time>
        <extensions><speed>1.36</speed></extensions>
      </trkpt>
      <trkpt lat="51.834496000" lon="7.595780000">
        <ele>61.0</ele>
        <time>2017-04-29T04:34:54</time>
        <extensions><speed>1.33</speed></extensions>
      </trkpt>
      <trkpt lat="51.834496000" lon="7.595803000">
        <ele>61.0</ele>
        <time>2017-04-29T04:34:55</time>
        <extensions><speed>1.32</speed></extensions>
      </trkpt>
      <trkpt lat="51.834496000" lon="7.595827000">
        <ele>61.0</ele>
        <time>2017-04-29T04:34:56</time>
        <extensions><speed>1.36</speed></extensions>
      </trkpt>
      <trkpt lat="51.834496000" lon="7.595848000">
        <ele>61.0</ele>
        <time>2017-04-29T04:34:57</time>
        <extensions><speed>1.36</speed></extensions>
      </trkpt>
      <trkpt lat="51.834492000" lon="7.595867000">
        <ele>61.0</ele>
        <time>2017-04-29T04:34:58</time>
        <extensions><speed>1.26</speed></extensions>
      </trkpt>
      <trkpt lat="51.834492000" lon="7.595885000">
        <ele>61.0</ele>
        <time>2017-04-29T04:34:59</time>
        <extensions><speed>1.30</speed></extensions>
      </trkpt>
      <trkpt lat="51.834492000" lon="7.595905000">
        <ele>61.0</ele>
        <time>2017-04-29T04:35:00</time>
        <extensions><speed>1.28</speed></extensions>
      </trkpt>
      <trkpt lat="51.834492000" lon="7.595927000">
        <ele>61.0</ele>
        <time>2017-04-29T04:35:01</time>
        <extensions><speed>1.28</speed></extensions>
      </trkpt>
      <trkpt lat="51.834488000" lon="7.595953000">
        <ele>61.0</ele>
        <time>2017-04-29T04:35:02</time>
        <extensions><speed>1.49</speed></extensions>
      </trkpt>
      <trkpt lat="51.834488000" lon="7.595978000">
        <ele>61.0</ele>
        <time>2017-04-29T04:35:03</time>
        <extensions><speed>1.50</speed></extensions>
      </trkpt>
      <trkpt lat="51.834492000" lon="7.595995000">
        <ele>61.0</ele>
        <time>2017-04-29T04:35:04</time>
        <extensions><speed>1.47</speed></extensions>
      </trkpt>
      <trkpt lat="51.834492000" lon="7.596015000">
        <ele>61.0</ele>
        <time>2017-04-29T04:35:05</time>
        <extensions><speed>1.51</speed></extensions>
      </trkpt>
      <trkpt lat="51.834492000" lon="7.596034000">
        <ele>61.1</ele>
        <time>2017-04-29T04:35:06</time>
        <extensions><speed>1.32</speed></extensions>
      </trkpt>
      <trkpt lat="51.834488000" lon="7.596050000">
        <ele>61.1</ele>
        <time>2017-04-29T04:35:07</time>
        <extensions><speed>1.32</speed></extensions>
      </trkpt>
      <trkpt lat="51.834484000" lon="7.596067000">
        <ele>61.1</ele>
        <time>2017-04-29T04:35:08</time>
        <extensions><speed>1.34</speed></extensions>
      </trkpt>
      <trkpt lat="51.834484000" lon="7.596085000">
        <ele>61.1</ele>
        <time>2017-04-29T04:35:09</time>
        <extensions><speed>1.35</speed></extensions>
      </trkpt>
      <trkpt lat="51.834488000" lon="7.596105000">
        <ele>61.1</ele>
        <time>2017-04-29T04:35:10</time>
        <extensions><speed>1.28</speed></extensions>
      </trkpt>
      <trkpt lat="51.834484000" lon="7.596123000">
        <ele>61.1</ele>
        <time>2017-04-29T04:35:11</time>
        <extensions><speed>1.29</speed></extensions>
      </trkpt>
      <trkpt lat="51.834484000" lon="7.596142000">
        <ele>61.1</ele>
        <time>2017-04-29T04:35:12</time>
        <extensions><speed>1.27</speed></extensions>
      </trkpt>
      <trkpt lat="51.834480000" lon="7.596160000">
        <ele>61.1</ele>
        <time>2017-04-29T04:35:13</time>
        <extensions><speed>1.27</speed></extensions>
      </trkpt>
      <trkpt lat="51.834476000" lon="7.596177000">
        <ele>61.1</ele>
        <time>2017-04-29T04:35:14</time>
        <extensions><speed>1.26</speed></extensions>
      </trkpt>
      <trkpt lat="51.834473000" lon="7.596191000">
        <ele>61.1</ele>
        <time>2017-04-29T04:35:15</time>
        <extensions><speed>1.26</speed></extensions>
      </trkpt>
      <trkpt lat="51.834469000" lon="7.596212000">
        <ele>61.2</ele>
        <time>2017-04-29T04:35:16</time>
        <extensions><speed>1.29</speed></extensions>
      </trkpt>
      <trkpt lat="51.834465000" lon="7.596233000">
        <ele>61.2</ele>
        <time>2017-04-29T04:35:17</time>
        <extensions><speed>1.30</speed></extensions>
      </trkpt>
      <trkpt lat="51.834465000" lon="7.596253000">
        <ele>61.2</ele>
        <time>2017-04-29T04:35:18</time>
        <extensions><speed>1.32</speed></extensions>
      </trkpt>
      <trkpt lat="51.834469000" lon="7.596273000">
        <ele>61.2</ele>
        <time>2017-04-29T04:35:19</time>
        <extensions><speed>1.38</speed></extensions>
      </trkpt>
      <trkpt lat="51.834469000" lon="7.596292000">
        <ele>61.2</ele>
        <time>2017-04-29T04:35:20</time>
        <extensions><speed>1.38</speed></extensions>
      </trkpt>
      <trkpt lat="51.834465000" lon="7.596312000">
        <ele>61.2</ele>
        <time>2017-04-29T04:35:21</time>
        <extensions><speed>1.38</speed></extensions>
      </trkpt>
      <trkpt lat="51.834465000" lon="7.596335000">
        <ele>61.2</ele>
        <time>2017-04-29T04:35:22</time>
        <extensions><speed>1.45</speed></extensions>
      </trkpt>
      <trkpt lat="51.834461000" lon="7.596355000">
        <ele>61.2</ele>
        <time>2017-04-29T04:35:23</time>
        <extensions><speed>1.48</speed></extensions>
      </trkpt>
      <trkpt lat="51.834461000" lon="7.596377000">
        <ele>61.2</ele>
        <time>2017-04-29T04:35:24</time>
        <extensions><speed>1.48</speed></extensions>
      </trkpt>
      <trkpt lat="51.834461000" lon="7.596395000">
        <ele>61.2</ele>
        <time>2017-04-29T04:35:25</time>
        <extensions><speed>1.48</speed></extensions>
      </trkpt>
      <trkpt lat="51.834457000" lon="7.596410000">
        <ele>61.2</ele>
        <time>2017-04-29T04:35:26</time>
        <extensions><speed>1.38</speed></extensions>
      </trkpt>
      <trkpt lat="51.834457000" lon="7.596428000">
        <ele>61.2</ele>
        <time>2017-04-29T04:35:27</time>
        <extensions><speed>1.37</speed></extensions>
      </trkpt>
      <trkpt lat="51.834457000" lon="7.596445000">
        <ele>61.2</ele>
        <time>2017-04-29T04:35:28</time>
        <extensions><speed>1.29</speed></extensions>
      </trkpt>
      <trkpt lat="51.834457000" lon="7.596461000">
        <ele>61.2</ele>
        <time>2017-04-29T04:35:29</time>
        <extensions><speed>1.28</speed></extensions>
      </trkpt>
      <trkpt lat="51.834457000" lon="7.596482000">
        <ele>61.2</ele>
        <time>2017-04-29T04:35:30</time>
        <extensions><speed>1.34</speed></extensions>
      </trkpt>
      <trkpt lat="51.834457000" lon="7.596501000">
        <ele>61.2</ele>
        <time>2017-04-29T04:35:31</time>
        <extensions><speed>1.36</speed></extensions>
      </trkpt>
      <trkpt lat="51.834461000" lon="7.596522000">
        <ele>61.2</ele>
        <time>2017-04-29T04:35:32</time>
        <extensions><speed>1.31</speed></extensions>
      </trkpt>
      <trkpt lat="51.834457000" lon="7.596538000">
        <ele>61.2</ele>
        <time>2017-04-29T04:35:33</time>
        <extensions><speed>1.31</speed></extensions>
      </trkpt>
      <trkpt lat="51.834457000" lon="7.596557000">
        <ele>61.2</ele>
        <time>2017-04-29T04:35:34</time>
        <extensions><speed>1.36</speed></extensions>
      </trkpt>
      <trkpt lat="51.834457000" lon="7.596577000">
        <ele>61.2</ele>
        <time>2017-04-29T04:35:35</time>
        <extensions><speed>1.31</speed></extensions>
      </trkpt>
      <trkpt lat="51.834454000" lon="7.596595000">
        <ele>61.2</ele>
        <time>2017-04-29T04:35:36</time>
        <extensions><speed>1.26</speed></extensions>
      </trkpt>
      <trkpt lat="51.834454000" lon="7.596613000">
        <ele>61.2</ele>
        <time>2017-04-29T04:35:37</time>
        <extensions><speed>1.30</speed></extensions>
      </trkpt>
      <trkpt lat="51.834454000" lon="7.596634000">
        <ele>61.2</ele>
        <time>2017-04-29T04:35:38</time>
        <extensions><speed>1.33</speed></extensions>
      </trkpt>
      <trkpt lat="51.834457000" lon="7.596652000">
        <ele>61.2</ele>
        <time>2017-04-29T04:35:39</time>
        <extensions><speed>1.28</speed></extensions>
      </trkpt>
      <trkpt lat="51.834457000" lon="7.596670000">
        <ele>61.2</ele>
        <time>2017-04-29T04:35:40</time>
        <extensions><speed>1.29</speed></extensions>
      </trkpt>
      <trkpt lat="51.834454000" lon="7.596692000">
        <ele>61.2</ele>
        <time>2017-04-29T04:35:41</time>
        <extensions><speed>1.35</speed></extensions>
      </trkpt>
      <trkpt lat="51.834454000" lon="7.596713000">
        <ele>61.2</ele>
        <time>2017-04-29T04:35:42</time>
        <extensions><speed>1.34</speed></extensions>
      </trkpt>
      <trkpt lat="51.834454000" lon="7.596732000">
        <ele>61.2</ele>
        <time>2017-04-29T04:35:43</time>
        <extensions><speed>1.35</speed></extensions>
      </trkpt>
      <trkpt lat="51.834454000" lon="7.596748000">
        <ele>61.2</ele>
        <time>2017-04-29T04:35:44</time>
        <extensions><speed>1.38</speed></extensions>
      </trkpt>
      <trkpt lat="51.834454000" lon="7.596765000">
        <ele>61.2</ele>
        <time>2017-04-29T04:35:45</time>
        <extensions><speed>1.35</speed></extensions>
      </trkpt>
      <trkpt lat="51.834450000" lon="7.596780000">
        <ele>61.2</ele>
        <time>2017-04-29T04:35:46</time>
        <extensions><speed>1.34</speed></extensions>
      </trkpt>
      <trkpt lat="51.834450000" lon="7.596800000">
        <ele>61.2</ele>
        <time>2017-04-29T04:35:47</time>
        <extensions><speed>1.34</speed></extensions>
      </trkpt>
      <trkpt lat="51.834446000" lon="7.596818000">
        <ele>61.2</ele>
        <time>2017-04-29T04:35:48</time>
        <extensions><speed>1.30</speed></extensions>
      </trkpt>
      <trkpt lat="51.834446000" lon="7.596838000">
        <ele>61.2</ele>
        <time>2017-04-29T04:35:49</time>
        <extensions><speed>1.32</speed></extensions>
      </trkpt>
      <trkpt lat="51.834446000" lon="7.596857000">
        <ele>61.2</ele>
        <time>2017-04-29T04:35:50</time>
        <extensions><speed>1.34</speed></extensions>
      </trkpt>
      <trkpt lat="51.834446000" lon="7.596877000">
        <ele>61.2</ele>
        <time>2017-04-29T04:35:51</time>
        <extensions><speed>1.38</speed></extensions>
      </trkpt>
      <trkpt lat="51.834446000" lon="7.596895000">
        <ele>61.2</ele>
        <time>2017-04-29T04:35:52</time>
        <extensions><speed>1.39</speed></extensions>
      </trkpt>
      <trkpt lat="51.834446000" lon="7.596915000">
        <ele>61.2</ele>
        <time>2017-04-29T04:35:53</time>
        <extensions><speed>1.39</speed></extensions>
      </trkpt>
      <trkpt lat="51.834446000" lon="7.596933000">
        <ele>61.2</ele>
        <time>2017-04-29T04:35:54</time>
        <extensions><speed>1.40</speed></extensions>
      </trkpt>
      <trkpt lat="51.834446000" lon="7.596951000">
        <ele>61.2</ele>
        <time>2017-04-29T04:35:55</time>
        <extensions><speed>1.40</speed></extensions>
      </trkpt>
      <trkpt lat="51.834446000" lon="7.596972000">
        <ele>61.2</ele>
        <time>2017-04-29T04:35:56</time>
        <extensions><speed>1.39</speed></extensions>
      </trkpt>
      <trkpt lat="51.834442000" lon="7.596990000">
        <ele>61.2</ele>
        <time>2017-04-29T04:35:57</time>
        <extensions><speed>1.36</speed></extensions>
      </trkpt>
      <trkpt lat="51.834442000" lon="7.597009000">
        <ele>61.2</ele>
        <time>2017-04-29T04:35:58</time>
        <extensions><speed>1.38</speed></extensions>
      </trkpt>
      <trkpt lat="51.834438000" lon="7.597025000">
        <ele>61.2</ele>
        <time>2017-04-29T04:35:59</time>
        <extensions><speed>1.28</speed></extensions>
      </trkpt>
      <trkpt lat="51.834438000" lon="7.597042000">
        <ele>61.1</ele>
        <time>2017-04-29T04:36:00</time>
        <extensions><speed>1.28</speed></extensions>
      </trkpt>
      <trkpt lat="51.834435000" lon="7.597060000">
        <ele>61.1</ele>
        <time>2017-04-29T04:36:01</time>
        <extensions><speed>1.25</speed></extensions>
      </trkpt>
      <trkpt lat="51.834435000" lon="7.597080000">
        <ele>61.1</ele>
        <time>2017-04-29T04:36:02</time>
        <extensions><speed>1.25</speed></extensions>
      </trkpt>
      <trkpt lat="51.834431000" lon="7.597102000">
        <ele>61.1</ele>
        <time>2017-04-29T04:36:03</time>
        <extensions><speed>1.29</speed></extensions>
      </trkpt>
      <trkpt lat="51.834435000" lon="7.597123000">
        <ele>61.1</ele>
        <time>2017-04-29T04:36:04</time>
        <extensions><speed>1.37</speed></extensions>
      </trkpt>
      <trkpt lat="51.834435000" lon="7.597147000">
        <ele>61.1</ele>
        <time>2017-04-29T04:36:05</time>
        <extensions><speed>1.38</speed></extensions>
      </trkpt>
      <trkpt lat="51.834435000" lon="7.597170000">
        <ele>61.1</ele>
        <time>2017-04-29T04:36:06</time>
        <extensions><speed>1.44</speed></extensions>
      </trkpt>
      <trkpt lat="51.834438000" lon="7.597192000">
        <ele>61.1</ele>
        <time>2017-04-29T04:36:07</time>
        <extensions><speed>1.41</speed></extensions>
      </trkpt>
      <trkpt lat="51.834438000" lon="7.597212000">
        <ele>61.1</ele>
        <time>2017-04-29T04:36:08</time>
        <extensions><speed>1.39</speed></extensions>
      </trkpt>
      <trkpt lat="51.834438000" lon="7.597229000">
        <ele>61.1</ele>
        <time>2017-04-29T04:36:09</time>
        <extensions><speed>1.41</speed></extensions>
      </trkpt>
      <trkpt lat="51.834446000" lon="7.597254000">
        <ele>61.1</ele>
        <time>2017-04-29T04:36:10</time>
        <extensions><speed>1.45</speed></extensions>
      </trkpt>
      <trkpt lat="51.834450000" lon="7.597277000">
        <ele>61.1</ele>
        <time>2017-04-29T04:36:11</time>
        <extensions><speed>1.38</speed></extensions>
      </trkpt>
      <trkpt lat="51.834454000" lon="7.597298000">
        <ele>61.0</ele>
        <time>2017-04-29T04:36:12</time>
        <extensions><speed>1.38</speed></extensions>
      </trkpt>
      <trkpt lat="51.834457000" lon="7.597317000">
        <ele>61.0</ele>
        <time>2017-04-29T04:36:13</time>
        <extensions><speed>1.38</speed></extensions>
      </trkpt>
      <trkpt lat="51.834461000" lon="7.597336000">
        <ele>61.0</ele>
        <time>2017-04-29T04:36:14</time>
        <extensions><speed>1.38</speed></extensions>
      </trkpt>
      <trkpt lat="51.834465000" lon="7.597357000">
        <ele>61.0</ele>
        <time>2017-04-29T04:36:15</time>
        <extensions><speed>1.36</speed></extensions>
      </trkpt>
      <trkpt lat="51.834465000" lon="7.597373000">
        <ele>61.0</ele>
        <time>2017-04-29T04:36:16</time>
        <extensions><speed>1.35</speed></extensions>
      </trkpt>
      <trkpt lat="51.834473000" lon="7.597392000">
        <ele>61.0</ele>
        <time>2017-04-29T04:36:17</time>
        <extensions><speed>1.35</speed></extensions>
      </trkpt>
      <trkpt lat="51.834476000" lon="7.597410000">
        <ele>61.0</ele>
        <time>2017-04-29T04:36:18</time>
        <extensions><speed>1.35</speed></extensions>
      </trkpt>
      <trkpt lat="51.834484000" lon="7.597427000">
        <ele>61.0</ele>
        <time>2017-04-29T04:36:19</time>
        <extensions><speed>1.32</speed></extensions>
      </trkpt>
      <trkpt lat="51.834488000" lon="7.597446000">
        <ele>61.0</ele>
        <time>2017-04-29T04:36:20</time>
        <extensions><speed>1.27</speed></extensions>
      </trkpt>
      <trkpt lat="51.834492000" lon="7.597467000">
        <ele>61.0</ele>
        <time>2017-04-29T04:36:21</time>
        <extensions><speed>1.30</speed></extensions>
      </trkpt>
      <trkpt lat="51.834496000" lon="7.597486000">
        <ele>61.1</ele>
        <time>2017-04-29T04:36:22</time>
        <extensions><speed>1.30</speed></extensions>
      </trkpt>
      <trkpt lat="51.834503000" lon="7.597508000">
        <ele>61.1</ele>
        <time>2017-04-29T04:36:23</time>
        <extensions><speed>1.35</speed></extensions>
      </trkpt>
      <trkpt lat="51.834507000" lon="7.597528000">
        <ele>61.1</ele>
        <time>2017-04-29T04:36:24</time>
        <extensions><speed>1.34</speed></extensions>
      </trkpt>
      <trkpt lat="51.834511000" lon="7.597545000">
        <ele>61.1</ele>
        <time>2017-04-29T04:36:25</time>
        <extensions><speed>1.34</speed></extensions>
      </trkpt>
      <trkpt lat="51.834518000" lon="7.597562000">
        <ele>61.1</ele>
        <time>2017-04-29T04:36:26</time>
        <extensions><speed>1.36</speed></extensions>
      </trkpt>
      <trkpt lat="51.834522000" lon="7.597587000">
        <ele>61.1</ele>
        <time>2017-04-29T04:36:27</time>
        <extensions><speed>1.38</speed></extensions>
      </trkpt>
      <trkpt lat="51.834530000" lon="7.597609000">
        <ele>61.1</ele>
        <time>2017-04-29T04:36:28</time>
        <extensions><speed>1.39</speed></extensions>
      </trkpt>
      <trkpt lat="51.834538000" lon="7.597627000">
        <ele>61.1</ele>
        <time>2017-04-29T04:36:29</time>
        <extensions><speed>1.41</speed></extensions>
      </trkpt>
      <trkpt lat="51.834545000" lon="7.597644000">
        <ele>61.1</ele>
        <time>2017-04-29T04:36:30</time>
        <extensions><speed>1.41</speed></extensions>
      </trkpt>
      <trkpt lat="51.834549000" lon="7.597660000">
        <ele>61.1</ele>
        <time>2017-04-29T04:36:31</time>
        <extensions><speed>1.39</speed></extensions>
      </trkpt>
      <trkpt lat="51.834557000" lon="7.597677000">
        <ele>61.1</ele>
        <time>2017-04-29T04:36:32</time>
        <extensions><speed>1.39</speed></extensions>
      </trkpt>
      <trkpt lat="51.834560000" lon="7.597692000">
        <ele>61.1</ele>
        <time>2017-04-29T04:36:33</time>
        <extensions><speed>1.39</speed></extensions>
      </trkpt>
      <trkpt lat="51.834572000" lon="7.597705000">
        <ele>61.1</ele>
        <time>2017-04-29T04:36:34</time>
        <extensions><speed>1.41</speed></extensions>
      </trkpt>
      <trkpt lat="51.834576000" lon="7.597722000">
        <ele>61.1</ele>
        <time>2017-04-29T04:36:35</time>
        <extensions><speed>1.42</speed></extensions>
      </trkpt>
      <trkpt lat="51.834579000" lon="7.597740000">
        <ele>61.1</ele>
        <time>2017-04-29T04:36:36</time>
        <extensions><speed>1.42</speed></extensions>
      </trkpt>
      <trkpt lat="51.834583000" lon="7.597756000">
        <ele>61.1</ele>
        <time>2017-04-29T04:36:37</time>
        <extensions><speed>1.43</speed></extensions>
      </trkpt>
      <trkpt lat="51.834591000" lon="7.597774000">
        <ele>61.1</ele>
        <time>2017-04-29T04:36:38</time>
        <extensions><speed>1.35</speed></extensions>
      </trkpt>
      <trkpt lat="51.834591000" lon="7.597790000">
        <ele>61.1</ele>
        <time>2017-04-29T04:36:39</time>
        <extensions><speed>1.30</speed></extensions>
      </trkpt>
      <trkpt lat="51.834595000" lon="7.597808000">
        <ele>61.1</ele>
        <time>2017-04-29T04:36:40</time>
        <extensions><speed>1.29</speed></extensions>
      </trkpt>
      <trkpt lat="51.834602000" lon="7.597828000">
        <ele>61.1</ele>
        <time>2017-04-29T04:36:41</time>
        <extensions><speed>1.35</speed></extensions>
      </trkpt>
      <trkpt lat="51.834606000" lon="7.597847000">
        <ele>61.1</ele>
        <time>2017-04-29T04:36:42</time>
        <extensions><speed>1.31</speed></extensions>
      </trkpt>
      <trkpt lat="51.834614000" lon="7.597860000">
        <ele>61.1</ele>
        <time>2017-04-29T04:36:43</time>
        <extensions><speed>1.32</speed></extensions>
      </trkpt>
      <trkpt lat="51.834621000" lon="7.597875000">
        <ele>61.1</ele>
        <time>2017-04-29T04:36:44</time>
        <extensions><speed>1.36</speed></extensions>
      </trkpt>
      <trkpt lat="51.834625000" lon="7.597887000">
        <ele>61.1</ele>
        <time>2017-04-29T04:36:45</time>
        <extensions><speed>1.33</speed></extensions>
      </trkpt>
      <trkpt lat="51.834629000" lon="7.597905000">
        <ele>61.1</ele>
        <time>2017-04-29T04:36:46</time>
        <extensions><speed>1.33</speed></extensions>
      </trkpt>
      <trkpt lat="51.834637000" lon="7.597926000">
        <ele>61.1</ele>
        <time>2017-04-29T04:36:47</time>
        <extensions><speed>1.39</speed></extensions>
      </trkpt>
      <trkpt lat="51.834641000" lon="7.597950000">
        <ele>61.1</ele>
        <time>2017-04-29T04:36:48</time>
        <extensions><speed>1.38</speed></extensions>
      </trkpt>
      <trkpt lat="51.834644000" lon="7.597968000">
        <ele>61.1</ele>
        <time>2017-04-29T04:36:49</time>
        <extensions><speed>1.31</speed></extensions>
      </trkpt>
      <trkpt lat="51.834648000" lon="7.597985000">
        <ele>61.1</ele>
        <time>2017-04-29T04:36:50</time>
        <extensions><speed>1.37</speed></extensions>
      </trkpt>
      <trkpt lat="51.834656000" lon="7.598000000">
        <ele>61.1</ele>
        <time>2017-04-29T04:36:51</time>
        <extensions><speed>1.32</speed></extensions>
      </trkpt>
      <trkpt lat="51.834656000" lon="7.598013000">
        <ele>61.1</ele>
        <time>2017-04-29T04:36:52</time>
        <extensions><speed>1.22</speed></extensions>
      </trkpt>
      <trkpt lat="51.834663000" lon="7.598030000">
        <ele>61.1</ele>
        <time>2017-04-29T04:36:53</time>
        <extensions><speed>1.27</speed></extensions>
      </trkpt>
      <trkpt lat="51.834667000" lon="7.598048000">
        <ele>61.1</ele>
        <time>2017-04-29T04:36:54</time>
        <extensions><speed>1.27</speed></extensions>
      </trkpt>
      <trkpt lat="51.834675000" lon="7.598063000">
        <ele>61.1</ele>
        <time>2017-04-29T04:36:55</time>
        <extensions><speed>1.26</speed></extensions>
      </trkpt>
      <trkpt lat="51.834675000" lon="7.598080000">
        <ele>61.1</ele>
        <time>2017-04-29T04:36:56</time>
        <extensions><speed>1.27</speed></extensions>
      </trkpt>
      <trkpt lat="51.834682000" lon="7.598095000">
        <ele>61.1</ele>
        <time>2017-04-29T04:36:57</time>
        <extensions><speed>1.24</speed></extensions>
      </trkpt>
      <trkpt lat="51.834686000" lon="7.598110000">
        <ele>61.1</ele>
        <time>2017-04-29T04:36:58</time>
        <extensions><speed>1.20</speed></extensions>
      </trkpt>
      <trkpt lat="51.834686000" lon="7.598125000">
        <ele>61.1</ele>
        <time>2017-04-29T04:36:59</time>
        <extensions><speed>1.20</speed></extensions>
      </trkpt>
      <trkpt lat="51.834686000" lon="7.598140000">
        <ele>61.1</ele>
        <time>2017-04-29T04:37:00</time>
        <extensions><speed>1.11</speed></extensions>
      </trkpt>
      <trkpt lat="51.834686000" lon="7.598155000">
        <ele>61.1</ele>
        <time>2017-04-29T04:37:01</time>
        <extensions><speed>1.05</speed></extensions>
      </trkpt>
      <trkpt lat="51.834686000" lon="7.598166000">
        <ele>61.1</ele>
        <time>2017-04-29T04:37:02</time>
        <extensions><speed>1.00</speed></extensions>
      </trkpt>
      <trkpt lat="51.834686000" lon="7.598178000">
        <ele>61.1</ele>
        <time>2017-04-29T04:37:03</time>
        <extensions><speed>1.00</speed></extensions>
      </trkpt>
      <trkpt lat="51.834690000" lon="7.598190000">
        <ele>61.0</ele>
        <time>2017-04-29T04:37:04</time>
        <extensions><speed>1.00</speed></extensions>
      </trkpt>
      <trkpt lat="51.834690000" lon="7.598200000">
        <ele>61.0</ele>
        <time>2017-04-29T04:37:05</time>
        <extensions><speed>0.94</speed></extensions>
      </trkpt>
      <trkpt lat="51.834698000" lon="7.598192000">
        <ele>61.0</ele>
        <time>2017-04-29T04:37:07</time>
      </trkpt>
      <trkpt lat="51.834702000" lon="7.598197000">
        <ele>61.0</ele>
        <time>2017-04-29T04:37:09</time>
        <extensions><speed>0.52</speed></extensions>
      </trkpt>
      <trkpt lat="51.834713000" lon="7.598228000">
        <ele>61.0</ele>
        <time>2017-04-29T04:37:10</time>
        <extensions><speed>0.54</speed></extensions>
      </trkpt>
      <trkpt lat="51.834713000" lon="7.598250000">
        <ele>61.0</ele>
        <time>2017-04-29T04:37:11</time>
        <extensions><speed>0.96</speed></extensions>
      </trkpt>
      <trkpt lat="51.834709000" lon="7.598271000">
        <ele>61.0</ele>
        <time>2017-04-29T04:37:12</time>
        <extensions><speed>1.15</speed></extensions>
      </trkpt>
      <trkpt lat="51.834705000" lon="7.598289000">
        <ele>61.0</ele>
        <time>2017-04-29T04:37:13</time>
        <extensions><speed>1.15</speed></extensions>
      </trkpt>
      <trkpt lat="51.834717000" lon="7.598304000">
        <ele>61.0</ele>
        <time>2017-04-29T04:37:14</time>
        <extensions><speed>1.30</speed></extensions>
      </trkpt>
      <trkpt lat="51.834721000" lon="7.598310000">
        <ele>61.0</ele>
        <time>2017-04-29T04:37:15</time>
        <extensions><speed>1.21</speed></extensions>
      </trkpt>
      <trkpt lat="51.834732000" lon="7.598327000">
        <ele>61.0</ele>
        <time>2017-04-29T04:37:16</time>
        <extensions><speed>1.18</speed></extensions>
      </trkpt>
      <trkpt lat="51.834736000" lon="7.598358000">
        <ele>60.9</ele>
        <time>2017-04-29T04:37:17</time>
        <extensions><speed>1.11</speed></extensions>
      </trkpt>
      <trkpt lat="51.834743000" lon="7.598383000">
        <ele>60.9</ele>
        <time>2017-04-29T04:37:18</time>
        <extensions><speed>1.17</speed></extensions>
      </trkpt>
      <trkpt lat="51.834747000" lon="7.598407000">
        <ele>60.9</ele>
        <time>2017-04-29T04:37:19</time>
        <extensions><speed>1.16</speed></extensions>
      </trkpt>
      <trkpt lat="51.834747000" lon="7.598435000">
        <ele>60.9</ele>
        <time>2017-04-29T04:37:20</time>
        <extensions><speed>1.21</speed></extensions>
      </trkpt>
      <trkpt lat="51.834747000" lon="7.598465000">
        <ele>60.9</ele>
        <time>2017-04-29T04:37:21</time>
        <extensions><speed>1.21</speed></extensions>
      </trkpt>
      <trkpt lat="51.834747000" lon="7.598492000">
        <ele>60.9</ele>
        <time>2017-04-29T04:37:22</time>
        <extensions><speed>1.28</speed></extensions>
      </trkpt>
      <trkpt lat="51.834751000" lon="7.598518000">
        <ele>60.9</ele>
        <time>2017-04-29T04:37:23</time>
        <extensions><speed>1.34</speed></extensions>
      </trkpt>
      <trkpt lat="51.834747000" lon="7.598547000">
        <ele>60.8</ele>
        <time>2017-04-29T04:37:24</time>
        <extensions><speed>1.40</speed></extensions>
      </trkpt>
      <trkpt lat="51.834751000" lon="7.598574000">
        <ele>60.8</ele>
        <time>2017-04-29T04:37:25</time>
        <extensions><speed>1.38</speed></extensions>
      </trkpt>
      <trkpt lat="51.834751000" lon="7.598600000">
        <ele>60.8</ele>
        <time>2017-04-29T04:37:26</time>
        <extensions><speed>1.38</speed></extensions>
      </trkpt>
      <trkpt lat="51.834755000" lon="7.598627000">
        <ele>60.8</ele>
        <time>2017-04-29T04:37:27</time>
        <extensions><speed>1.36</speed></extensions>
      </trkpt>
      <trkpt lat="51.834759000" lon="7.598652000">
        <ele>60.7</ele>
        <time>2017-04-29T04:37:28</time>
        <extensions><speed>1.36</speed></extensions>
      </trkpt>
      <trkpt lat="51.834766000" lon="7.598673000">
        <ele>60.7</ele>
        <time>2017-04-29T04:37:29</time>
        <extensions><speed>1.36</speed></extensions>
      </trkpt>
      <trkpt lat="51.834766000" lon="7.598696000">
        <ele>60.7</ele>
        <time>2017-04-29T04:37:30</time>
        <extensions><speed>1.38</speed></extensions>
      </trkpt>
      <trkpt lat="51.834766000" lon="7.598715000">
        <ele>60.7</ele>
        <time>2017-04-29T04:37:31</time>
        <extensions><speed>1.38</speed></extensions>
      </trkpt>
      <trkpt lat="51.834766000" lon="7.598733000">
        <ele>60.6</ele>
        <time>2017-04-29T04:37:32</time>
        <extensions><speed>1.42</speed></extensions>
      </trkpt>
      <trkpt lat="51.834774000" lon="7.598753000">
        <ele>60.6</ele>
        <time>2017-04-29T04:37:33</time>
        <extensions><speed>1.45</speed></extensions>
      </trkpt>
      <trkpt lat="51.834782000" lon="7.598775000">
        <ele>60.6</ele>
        <time>2017-04-29T04:37:34</time>
        <extensions><speed>1.43</speed></extensions>
      </trkpt>
      <trkpt lat="51.834785000" lon="7.598798000">
        <ele>60.6</ele>
        <time>2017-04-29T04:37:35</time>
        <extensions><speed>1.49</speed></extensions>
      </trkpt>
      <trkpt lat="51.834789000" lon="7.598817000">
        <ele>60.6</ele>
        <time>2017-04-29T04:37:36</time>
        <extensions><speed>1.49</speed></extensions>
      </trkpt>
      <trkpt lat="51.834793000" lon="7.598836000">
        <ele>60.5</ele>
        <time>2017-04-29T04:37:37</time>
        <extensions><speed>1.47</speed></extensions>
      </trkpt>
      <trkpt lat="51.834797000" lon="7.598857000">
        <ele>60.5</ele>
        <time>2017-04-29T04:37:38</time>
        <extensions><speed>1.47</speed></extensions>
      </trkpt>
      <trkpt lat="51.834797000" lon="7.598876000">
        <ele>60.5</ele>
        <time>2017-04-29T04:37:39</time>
        <extensions><speed>1.49</speed></extensions>
      </trkpt>
      <trkpt lat="51.834801000" lon="7.598898000">
        <ele>60.5</ele>
        <time>2017-04-29T04:37:40</time>
        <extensions><speed>1.47</speed></extensions>
      </trkpt>
      <trkpt lat="51.834805000" lon="7.598918000">
        <ele>60.5</ele>
        <time>2017-04-29T04:37:41</time>
        <extensions><speed>1.47</speed></extensions>
      </trkpt>
      <trkpt lat="51.834808000" lon="7.598937000">
        <ele>60.5</ele>
        <time>2017-04-29T04:37:42</time>
        <extensions><speed>1.45</speed></extensions>
      </trkpt>
      <trkpt lat="51.834816000" lon="7.598952000">
        <ele>60.4</ele>
        <time>2017-04-29T04:37:43</time>
        <extensions><speed>1.45</speed></extensions>
      </trkpt>
      <trkpt lat="51.834820000" lon="7.598968000">
        <ele>60.4</ele>
        <time>2017-04-29T04:37:44</time>
        <extensions><speed>1.44</speed></extensions>
      </trkpt>
      <trkpt lat="51.834827000" lon="7.598985000">
        <ele>60.4</ele>
        <time>2017-04-29T04:37:45</time>
        <extensions><speed>1.43</speed></extensions>
      </trkpt>
      <trkpt lat="51.834835000" lon="7.599002000">
        <ele>60.3</ele>
        <time>2017-04-29T04:37:46</time>
        <extensions><speed>1.41</speed></extensions>
      </trkpt>
      <trkpt lat="51.834839000" lon="7.599020000">
        <ele>60.3</ele>
        <time>2017-04-29T04:37:47</time>
        <extensions><speed>1.43</speed></extensions>
      </trkpt>
      <trkpt lat="51.834846000" lon="7.599038000">
        <ele>60.3</ele>
        <time>2017-04-29T04:37:48</time>
        <extensions><speed>1.40</speed></extensions>
      </trkpt>
      <trkpt lat="51.834850000" lon="7.599055000">
        <ele>60.3</ele>
        <time>2017-04-29T04:37:49</time>
        <extensions><speed>1.37</speed></extensions>
      </trkpt>
      <trkpt lat="51.834858000" lon="7.599071000">
        <ele>60.2</ele>
        <time>2017-04-29T04:37:50</time>
        <extensions><speed>1.38</speed></extensions>
      </trkpt>
      <trkpt lat="51.834862000" lon="7.599093000">
        <ele>60.2</ele>
        <time>2017-04-29T04:37:51</time>
        <extensions><speed>1.41</speed></extensions>
      </trkpt>
      <trkpt lat="51.834869000" lon="7.599113000">
        <ele>60.2</ele>
        <time>2017-04-29T04:37:52</time>
        <extensions><speed>1.38</speed></extensions>
      </trkpt>
      <trkpt lat="51.834881000" lon="7.599130000">
        <ele>60.1</ele>
        <time>2017-04-29T04:37:53</time>
        <extensions><speed>1.38</speed></extensions>
      </trkpt>
      <trkpt lat="51.834885000" lon="7.599148000">
        <ele>60.1</ele>
        <time>2017-04-29T04:37:54</time>
        <extensions><speed>1.37</speed></extensions>
      </trkpt>
      <trkpt lat="51.834888000" lon="7.599165000">
        <ele>60.1</ele>
        <time>2017-04-29T04:37:55</time>
        <extensions><speed>1.36</speed></extensions>
      </trkpt>
      <trkpt lat="51.834892000" lon="7.599183000">
        <ele>60.0</ele>
        <time>2017-04-29T04:37:56</time>
        <extensions><speed>1.36</speed></extensions>
      </trkpt>
      <trkpt lat="51.834900000" lon="7.599202000">
        <ele>60.0</ele>
        <time>2017-04-29T04:37:57</time>
        <extensions><speed>1.36</speed></extensions>
      </trkpt>
      <trkpt lat="51.834904000" lon="7.599218000">
        <ele>60.0</ele>
        <time>2017-04-29T04:37:58</time>
        <extensions><speed>1.34</speed></extensions>
      </trkpt>
      <trkpt lat="51.834908000" lon="7.599237000">
        <ele>60.0</ele>
        <time>2017-04-29T04:37:59</time>
        <extensions><speed>1.33</speed></extensions>
      </trkpt>
      <trkpt lat="51.834915000" lon="7.599253000">
        <ele>59.9</ele>
        <time>2017-04-29T04:38:00</time>
        <extensions><speed>1.30</speed></extensions>
      </trkpt>
      <trkpt lat="51.834915000" lon="7.599272000">
        <ele>59.9</ele>
        <time>2017-04-29T04:38:01</time>
        <extensions><speed>1.26</speed></extensions>
      </trkpt>
      <trkpt lat="51.834923000" lon="7.599288000">
        <ele>59.9</ele>
        <time>2017-04-29T04:38:02</time>
        <extensions><speed>1.26</speed></extensions>
      </trkpt>
      <trkpt lat="51.834927000" lon="7.599308000">
        <ele>59.9</ele>
        <time>2017-04-29T04:38:03</time>
        <extensions><speed>1.30</speed></extensions>
      </trkpt>
      <trkpt lat="51.834934000" lon="7.599327000">
        <ele>59.9</ele>
        <time>2017-04-29T04:38:04</time>
        <extensions><speed>1.32</speed></extensions>
      </trkpt>
      <trkpt lat="51.834938000" lon="7.599344000">
        <ele>59.9</ele>
        <time>2017-04-29T04:38:05</time>
        <extensions><speed>1.34</speed></extensions>
      </trkpt>
      <trkpt lat="51.834946000" lon="7.599360000">
        <ele>59.8</ele>
        <time>2017-04-29T04:38:06</time>
        <extensions><speed>1.39</speed></extensions>
      </trkpt>
      <trkpt lat="51.834949000" lon="7.599382000">
        <ele>59.8</ele>
        <time>2017-04-29T04:38:07</time>
        <extensions><speed>1.39</speed></extensions>
      </trkpt>
      <trkpt lat="51.834957000" lon="7.599400000">
        <ele>59.8</ele>
        <time>2017-04-29T04:38:08</time>
        <extensions><speed>1.37</speed></extensions>
      </trkpt>
      <trkpt lat="51.834965000" lon="7.599415000">
        <ele>59.8</ele>
        <time>2017-04-29T04:38:09</time>
        <extensions><speed>1.39</speed></extensions>
      </trkpt>
      <trkpt lat="51.834976000" lon="7.599432000">
        <ele>59.8</ele>
        <time>2017-04-29T04:38:10</time>
        <extensions><speed>1.41</speed></extensions>
      </trkpt>
      <trkpt lat="51.834980000" lon="7.599450000">
        <ele>59.7</ele>
        <time>2017-04-29T04:38:11</time>
        <extensions><speed>1.43</speed></extensions>
      </trkpt>
      <trkpt lat="51.834984000" lon="7.599468000">
        <ele>59.7</ele>
        <time>2017-04-29T04:38:12</time>
        <extensions><speed>1.39</speed></extensions>
      </trkpt>
      <trkpt lat="51.834991000" lon="7.599487000">
        <ele>59.7</ele>
        <time>2017-04-29T04:38:13</time>
        <extensions><speed>1.41</speed></extensions>
      </trkpt>
      <trkpt lat="51.834999000" lon="7.599503000">
        <ele>59.7</ele>
        <time>2017-04-29T04:38:14</time>
        <extensions><speed>1.41</speed></extensions>
      </trkpt>
      <trkpt lat="51.835007000" lon="7.599522000">
        <ele>59.7</ele>
        <time>2017-04-29T04:38:15</time>
        <extensions><speed>1.44</speed></extensions>
      </trkpt>
      <trkpt lat="51.835014000" lon="7.599540000">
        <ele>59.7</ele>
        <time>2017-04-29T04:38:16</time>
        <extensions><speed>1.44</speed></extensions>
      </trkpt>
      <trkpt lat="51.835014000" lon="7.599557000">
        <ele>59.7</ele>
        <time>2017-04-29T04:38:17</time>
        <extensions><speed>1.41</speed></extensions>
      </trkpt>
      <trkpt lat="51.835022000" lon="7.599573000">
        <ele>59.6</ele>
        <time>2017-04-29T04:38:18</time>
        <extensions><speed>1.43</speed></extensions>
      </trkpt>
      <trkpt lat="51.835030000" lon="7.599590000">
        <ele>59.6</ele>
        <time>2017-04-29T04:38:19</time>
        <extensions><speed>1.41</speed></extensions>
      </trkpt>
      <trkpt lat="51.835037000" lon="7.599607000">
        <ele>59.6</ele>
        <time>2017-04-29T04:38:20</time>
        <extensions><speed>1.41</speed></extensions>
      </trkpt>
      <trkpt lat="51.835041000" lon="7.599625000">
        <ele>59.6</ele>
        <time>2017-04-29T04:38:21</time>
        <extensions><speed>1.39</speed></extensions>
      </trkpt>
      <trkpt lat="51.835045000" lon="7.599642000">
        <ele>59.6</ele>
        <time>2017-04-29T04:38:22</time>
        <extensions><speed>1.39</speed></extensions>
      </trkpt>
      <trkpt lat="51.835049000" lon="7.599660000">
        <ele>59.6</ele>
        <time>2017-04-29T04:38:23</time>
        <extensions><speed>1.33</speed></extensions>
      </trkpt>
      <trkpt lat="51.835052000" lon="7.599677000">
        <ele>59.5</ele>
        <time>2017-04-29T04:38:24</time>
        <extensions><speed>1.33</speed></extensions>
      </trkpt>
      <trkpt lat="51.835060000" lon="7.599694000">
        <ele>59.5</ele>
        <time>2017-04-29T04:38:25</time>
        <extensions><speed>1.30</speed></extensions>
      </trkpt>
      <trkpt lat="51.835068000" lon="7.599711000">
        <ele>59.5</ele>
        <time>2017-04-29T04:38:26</time>
        <extensions><speed>1.30</speed></extensions>
      </trkpt>
      <trkpt lat="51.835075000" lon="7.599729000">
        <ele>59.5</ele>
        <time>2017-04-29T04:38:27</time>
        <extensions><speed>1.33</speed></extensions>
      </trkpt>
      <trkpt lat="51.835079000" lon="7.599747000">
        <ele>59.5</ele>
        <time>2017-04-29T04:38:28</time>
        <extensions><speed>1.36</speed></extensions>
      </trkpt>
      <trkpt lat="51.835087000" lon="7.599765000">
        <ele>59.4</ele>
        <time>2017-04-29T04:38:29</time>
        <extensions><speed>1.37</speed></extensions>
      </trkpt>
      <trkpt lat="51.835091000" lon="7.599782000">
        <ele>59.4</ele>
        <time>2017-04-29T04:38:30</time>
        <extensions><speed>1.37</speed></extensions>
      </trkpt>
      <trkpt lat="51.835098000" lon="7.599801000">
        <ele>59.4</ele>
        <time>2017-04-29T04:38:31</time>
        <extensions><speed>1.36</speed></extensions>
      </trkpt>
      <trkpt lat="51.835102000" lon="7.599820000">
        <ele>59.4</ele>
        <time>2017-04-29T04:38:32</time>
        <extensions><speed>1.36</speed></extensions>
      </trkpt>
      <trkpt lat="51.835106000" lon="7.599838000">
        <ele>59.4</ele>
        <time>2017-04-29T04:38:33</time>
        <extensions><speed>1.36</speed></extensions>
      </trkpt>
      <trkpt lat="51.835110000" lon="7.599858000">
        <ele>59.4</ele>
        <time>2017-04-29T04:38:34</time>
        <extensions><speed>1.36</speed></extensions>
      </trkpt>
      <trkpt lat="51.835114000" lon="7.599876000">
        <ele>59.4</ele>
        <time>2017-04-29T04:38:35</time>
        <extensions><speed>1.39</speed></extensions>
      </trkpt>
      <trkpt lat="51.835114000" lon="7.599897000">
        <ele>59.4</ele>
        <time>2017-04-29T04:38:36</time>
        <extensions><speed>1.42</speed></extensions>
      </trkpt>
      <trkpt lat="51.835117000" lon="7.599918000">
        <ele>59.4</ele>
        <time>2017-04-29T04:38:37</time>
        <extensions><speed>1.42</speed></extensions>
      </trkpt>
      <trkpt lat="51.835121000" lon="7.599937000">
        <ele>59.4</ele>
        <time>2017-04-29T04:38:38</time>
        <extensions><speed>1.40</speed></extensions>
      </trkpt>
      <trkpt lat="51.835125000" lon="7.599957000">
        <ele>59.4</ele>
        <time>2017-04-29T04:38:39</time>
        <extensions><speed>1.44</speed></extensions>
      </trkpt>
      <trkpt lat="51.835125000" lon="7.599978000">
        <ele>59.4</ele>
        <time>2017-04-29T04:38:40</time>
        <extensions><speed>1.40</speed></extensions>
      </trkpt>
      <trkpt lat="51.835125000" lon="7.599998000">
        <ele>59.4</ele>
        <time>2017-04-29T04:38:41</time>
        <extensions><speed>1.41</speed></extensions>
      </trkpt>
      <trkpt lat="51.835125000" lon="7.600018000">
        <ele>59.4</ele>
        <time>2017-04-29T04:38:42</time>
        <extensions><speed>1.39</speed></extensions>
      </trkpt>
      <trkpt lat="51.835129000" lon="7.600037000">
        <ele>59.5</ele>
        <time>2017-04-29T04:38:43</time>
        <extensions><speed>1.39</speed></extensions>
      </trkpt>
      <trkpt lat="51.835129000" lon="7.600057000">
        <ele>59.5</ele>
        <time>2017-04-29T04:38:44</time>
        <extensions><speed>1.33</speed></extensions>
      </trkpt>
      <trkpt lat="51.835129000" lon="7.600075000">
        <ele>59.5</ele>
        <time>2017-04-29T04:38:45</time>
        <extensions><speed>1.31</speed></extensions>
      </trkpt>
      <trkpt lat="51.835125000" lon="7.600095000">
        <ele>59.5</ele>
        <time>2017-04-29T04:38:46</time>
        <extensions><speed>1.29</speed></extensions>
      </trkpt>
      <trkpt lat="51.835121000" lon="7.600112000">
        <ele>59.6</ele>
        <time>2017-04-29T04:38:47</time>
        <extensions><speed>1.29</speed></extensions>
      </trkpt>
      <trkpt lat="51.835114000" lon="7.600125000">
        <ele>59.6</ele>
        <time>2017-04-29T04:38:48</time>
        <extensions><speed>1.30</speed></extensions>
      </trkpt>
      <trkpt lat="51.835110000" lon="7.600140000">
        <ele>59.6</ele>
        <time>2017-04-29T04:38:49</time>
        <extensions><speed>1.30</speed></extensions>
      </trkpt>
      <trkpt lat="51.835102000" lon="7.600155000">
        <ele>59.6</ele>
        <time>2017-04-29T04:38:50</time>
        <extensions><speed>1.32</speed></extensions>
      </trkpt>
      <trkpt lat="51.835094000" lon="7.600168000">
        <ele>59.6</ele>
        <time>2017-04-29T04:38:51</time>
        <extensions><speed>1.32</speed></extensions>
      </trkpt>
      <trkpt lat="51.835087000" lon="7.600185000">
        <ele>59.7</ele>
        <time>2017-04-29T04:38:52</time>
        <extensions><speed>1.34</speed></extensions>
      </trkpt>
      <trkpt lat="51.835079000" lon="7.600204000">
        <ele>59.7</ele>
        <time>2017-04-29T04:38:53</time>
        <extensions><speed>1.37</speed></extensions>
      </trkpt>
      <trkpt lat="51.835068000" lon="7.600215000">
        <ele>59.7</ele>
        <time>2017-04-29T04:38:54</time>
        <extensions><speed>1.42</speed></extensions>
      </trkpt>
      <trkpt lat="51.835056000" lon="7.600226000">
        <ele>59.7</ele>
        <time>2017-04-29T04:38:55</time>
        <extensions><speed>1.41</speed></extensions>
      </trkpt>
      <trkpt lat="51.835045000" lon="7.600238000">
        <ele>59.7</ele>
        <time>2017-04-29T04:38:56</time>
        <extensions><speed>1.46</speed></extensions>
      </trkpt>
      <trkpt lat="51.835037000" lon="7.600252000">
        <ele>59.7</ele>
        <time>2017-04-29T04:38:57</time>
        <extensions><speed>1.41</speed></extensions>
      </trkpt>
      <trkpt lat="51.835026000" lon="7.600266000">
        <ele>59.7</ele>
        <time>2017-04-29T04:38:58</time>
        <extensions><speed>1.42</speed></extensions>
      </trkpt>
      <trkpt lat="51.835014000" lon="7.600284000">
        <ele>59.7</ele>
        <time>2017-04-29T04:38:59</time>
        <extensions><speed>1.41</speed></extensions>
      </trkpt>
      <trkpt lat="51.834999000" lon="7.600295000">
        <ele>59.7</ele>
        <time>2017-04-29T04:39:00</time>
        <extensions><speed>1.42</speed></extensions>
      </trkpt>
      <trkpt lat="51.834988000" lon="7.600307000">
        <ele>59.7</ele>
        <time>2017-04-29T04:39:01</time>
        <extensions><speed>1.42</speed></extensions>
      </trkpt>
      <trkpt lat="51.834980000" lon="7.600320000">
        <ele>59.7</ele>
        <time>2017-04-29T04:39:02</time>
        <extensions><speed>1.42</speed></extensions>
      </trkpt>
      <trkpt lat="51.834972000" lon="7.600331000">
        <ele>59.8</ele>
        <time>2017-04-29T04:39:03</time>
        <extensions><speed>1.38</speed></extensions>
      </trkpt>
      <trkpt lat="51.834961000" lon="7.600347000">
        <ele>59.8</ele>
        <time>2017-04-29T04:39:04</time>
        <extensions><speed>1.36</speed></extensions>
      </trkpt>
      <trkpt lat="51.834949000" lon="7.600357000">
        <ele>59.8</ele>
        <time>2017-04-29T04:39:05</time>
        <extensions><speed>1.34</speed></extensions>
      </trkpt>
      <trkpt lat="51.834938000" lon="7.600363000">
        <ele>59.8</ele>
        <time>2017-04-29T04:39:06</time>
        <extensions><speed>1.34</speed></extensions>
      </trkpt>
      <trkpt lat="51.834930000" lon="7.600373000">
        <ele>59.8</ele>
        <time>2017-04-29T04:39:07</time>
        <extensions><speed>1.33</speed></extensions>
      </trkpt>
      <trkpt lat="51.834919000" lon="7.600387000">
        <ele>59.8</ele>
        <time>2017-04-29T04:39:08</time>
        <extensions><speed>1.31</speed></extensions>
      </trkpt>
      <trkpt lat="51.834915000" lon="7.600396000">
        <ele>59.8</ele>
        <time>2017-04-29T04:39:09</time>
        <extensions><speed>1.26</speed></extensions>
      </trkpt>
      <trkpt lat="51.834904000" lon="7.600403000">
        <ele>59.8</ele>
        <time>2017-04-29T04:39:10</time>
        <extensions><speed>1.31</speed></extensions>
      </trkpt>
      <trkpt lat="51.834885000" lon="7.600405000">
        <ele>59.8</ele>
        <time>2017-04-29T04:39:11</time>
        <extensions><speed>1.24</speed></extensions>
      </trkpt>
      <trkpt lat="51.834873000" lon="7.600405000">
        <ele>59.9</ele>
        <time>2017-04-29T04:39:12</time>
        <extensions><speed>1.31</speed></extensions>
      </trkpt>
      <trkpt lat="51.834858000" lon="7.600403000">
        <ele>59.9</ele>
        <time>2017-04-29T04:39:13</time>
        <extensions><speed>1.35</speed></extensions>
      </trkpt>
      <trkpt lat="51.834846000" lon="7.600399000">
        <ele>59.9</ele>
        <time>2017-04-29T04:39:14</time>
        <extensions><speed>1.34</speed></extensions>
      </trkpt>
      <trkpt lat="51.834839000" lon="7.600398000">
        <ele>59.9</ele>
        <time>2017-04-29T04:39:15</time>
        <extensions><speed>1.27</speed></extensions>
      </trkpt>
      <trkpt lat="51.834831000" lon="7.600403000">
        <ele>59.9</ele>
        <time>2017-04-29T04:39:16</time>
        <extensions><speed>1.24</speed></extensions>
      </trkpt>
      <trkpt lat="51.834824000" lon="7.600410000">
        <ele>59.9</ele>
        <time>2017-04-29T04:39:17</time>
        <extensions><speed>0.99</speed></extensions>
      </trkpt>
      <trkpt lat="51.834820000" lon="7.600417000">
        <ele>59.9</ele>
        <time>2017-04-29T04:39:18</time>
        <extensions><speed>0.84</speed></extensions>
      </trkpt>
      <trkpt lat="51.834816000" lon="7.600427000">
        <ele>60.0</ele>
        <time>2017-04-29T04:39:19</time>
        <extensions><speed>0.74</speed></extensions>
      </trkpt>
      <trkpt lat="51.834808000" lon="7.600436000">
        <ele>60.0</ele>
        <time>2017-04-29T04:39:20</time>
        <extensions><speed>0.74</speed></extensions>
      </trkpt>
      <trkpt lat="51.834805000" lon="7.600449000">
        <ele>60.0</ele>
        <time>2017-04-29T04:39:21</time>
        <extensions><speed>0.82</speed></extensions>
      </trkpt>
      <trkpt lat="51.834805000" lon="7.600464000">
        <ele>60.1</ele>
        <time>2017-04-29T04:39:22</time>
        <extensions><speed>0.88</speed></extensions>
      </trkpt>
      <trkpt lat="51.834801000" lon="7.600480000">
        <ele>60.1</ele>
        <time>2017-04-29T04:39:23</time>
        <extensions><speed>0.99</speed></extensions>
      </trkpt>
      <trkpt lat="51.834793000" lon="7.600492000">
        <ele>60.1</ele>
        <time>2017-04-29T04:39:24</time>
        <extensions><speed>1.05</speed></extensions>
      </trkpt>
      <trkpt lat="51.834782000" lon="7.600497000">
        <ele>60.2</ele>
        <time>2017-04-29T04:39:25</time>
        <extensions><speed>1.16</speed></extensions>
      </trkpt>
      <trkpt lat="51.834770000" lon="7.600502000">
        <ele>60.2</ele>
        <time>2017-04-29T04:39:26</time>
        <extensions><speed>1.24</speed></extensions>
      </trkpt>
      <trkpt lat="51.834763000" lon="7.600515000">
        <ele>60.3</ele>
        <time>2017-04-29T04:39:27</time>
        <extensions><speed>1.24</speed></extensions>
      </trkpt>
      <trkpt lat="51.834759000" lon="7.600530000">
        <ele>60.3</ele>
        <time>2017-04-29T04:39:28</time>
        <extensions><speed>1.25</speed></extensions>
      </trkpt>
      <trkpt lat="51.834751000" lon="7.600545000">
        <ele>60.4</ele>
        <time>2017-04-29T04:39:29</time>
        <extensions><speed>1.25</speed></extensions>
      </trkpt>
      <trkpt lat="51.834743000" lon="7.600552000">
        <ele>60.4</ele>
        <time>2017-04-29T04:39:30</time>
        <extensions><speed>1.22</speed></extensions>
      </trkpt>
      <trkpt lat="51.834728000" lon="7.600557000">
        <ele>60.5</ele>
        <time>2017-04-29T04:39:31</time>
        <extensions><speed>1.16</speed></extensions>
      </trkpt>
      <trkpt lat="51.834721000" lon="7.600564000">
        <ele>60.5</ele>
        <time>2017-04-29T04:39:32</time>
        <extensions><speed>1.14</speed></extensions>
      </trkpt>
      <trkpt lat="51.834713000" lon="7.600573000">
        <ele>60.6</ele>
        <time>2017-04-29T04:39:33</time>
        <extensions><speed>1.14</speed></extensions>
      </trkpt>
      <trkpt lat="51.834705000" lon="7.600583000">
        <ele>60.7</ele>
        <time>2017-04-29T04:39:34</time>
        <extensions><speed>1.14</speed></extensions>
      </trkpt>
      <trkpt lat="51.834702000" lon="7.600597000">
        <ele>60.8</ele>
        <time>2017-04-29T04:39:35</time>
        <extensions><speed>1.14</speed></extensions>
      </trkpt>
      <trkpt lat="51.834698000" lon="7.600612000">
        <ele>60.8</ele>
        <time>2017-04-29T04:39:36</time>
        <extensions><speed>1.11</speed></extensions>
      </trkpt>
      <trkpt lat="51.834690000" lon="7.600624000">
        <ele>60.9</ele>
        <time>2017-04-29T04:39:37</time>
        <extensions><speed>1.10</speed></extensions>
      </trkpt>
      <trkpt lat="51.834682000" lon="7.600634000">
        <ele>61.0</ele>
        <time>2017-04-29T04:39:38</time>
        <extensions><speed>1.10</speed></extensions>
      </trkpt>
      <trkpt lat="51.834671000" lon="7.600646000">
        <ele>61.0</ele>
        <time>2017-04-29T04:39:39</time>
        <extensions><speed>1.06</speed></extensions>
      </trkpt>
      <trkpt lat="51.834667000" lon="7.600658000">
        <ele>61.1</ele>
        <time>2017-04-29T04:39:40</time>
        <extensions><speed>1.06</speed></extensions>
      </trkpt>
      <trkpt lat="51.834663000" lon="7.600667000">
        <ele>61.1</ele>
        <time>2017-04-29T04:39:41</time>
        <extensions><speed>0.95</speed></extensions>
      </trkpt>
      <trkpt lat="51.834663000" lon="7.600670000">
        <ele>61.3</ele>
        <time>2017-04-29T04:39:43</time>
      </trkpt>
      <trkpt lat="51.834557000" lon="7.600753000">
        <ele>61.9</ele>
        <time>2017-04-29T04:41:28</time>
      </trkpt>
      <trkpt lat="51.834553000" lon="7.600763000">
        <ele>62.0</ele>
        <time>2017-04-29T04:41:30</time>
        <extensions><speed>1.18</speed></extensions>
      </trkpt>
      <trkpt lat="51.834541000" lon="7.600772000">
        <ele>62.1</ele>
        <time>2017-04-29T04:41:31</time>
        <extensions><speed>1.18</speed></extensions>
      </trkpt>
      <trkpt lat="51.834526000" lon="7.600775000">
        <ele>62.1</ele>
        <time>2017-04-29T04:41:32</time>
        <extensions><speed>1.22</speed></extensions>
      </trkpt>
      <trkpt lat="51.834518000" lon="7.600780000">
        <ele>62.2</ele>
        <time>2017-04-29T04:41:33</time>
        <extensions><speed>1.21</speed></extensions>
      </trkpt>
      <trkpt lat="51.834507000" lon="7.600785000">
        <ele>62.3</ele>
        <time>2017-04-29T04:41:34</time>
        <extensions><speed>1.18</speed></extensions>
      </trkpt>
      <trkpt lat="51.834503000" lon="7.600783000">
        <ele>62.4</ele>
        <time>2017-04-29T04:41:35</time>
        <extensions><speed>0.98</speed></extensions>
      </trkpt>
      <trkpt lat="51.834496000" lon="7.600780000">
        <ele>62.4</ele>
        <time>2017-04-29T04:41:36</time>
        <extensions><speed>0.82</speed></extensions>
      </trkpt>
      <trkpt lat="51.834492000" lon="7.600783000">
        <ele>62.5</ele>
        <time>2017-04-29T04:41:37</time>
        <extensions><speed>0.82</speed></extensions>
      </trkpt>
      <trkpt lat="51.834484000" lon="7.600793000">
        <ele>62.6</ele>
        <time>2017-04-29T04:41:38</time>
        <extensions><speed>0.75</speed></extensions>
      </trkpt>
      <trkpt lat="51.834480000" lon="7.600807000">
        <ele>62.6</ele>
        <time>2017-04-29T04:41:39</time>
        <extensions><speed>0.86</speed></extensions>
      </trkpt>
      <trkpt lat="51.834480000" lon="7.600823000">
        <ele>62.7</ele>
        <time>2017-04-29T04:41:40</time>
        <extensions><speed>0.97</speed></extensions>
      </trkpt>
      <trkpt lat="51.834480000" lon="7.600839000">
        <ele>62.7</ele>
        <time>2017-04-29T04:41:41</time>
        <extensions><speed>1.05</speed></extensions>
      </trkpt>
      <trkpt lat="51.834473000" lon="7.600852000">
        <ele>62.8</ele>
        <time>2017-04-29T04:41:42</time>
        <extensions><speed>1.03</speed></extensions>
      </trkpt>
      <trkpt lat="51.834465000" lon="7.600865000">
        <ele>62.8</ele>
        <time>2017-04-29T04:41:43</time>
        <extensions><speed>1.03</speed></extensions>
      </trkpt>
      <trkpt lat="51.834461000" lon="7.600873000">
        <ele>62.9</ele>
        <time>2017-04-29T04:41:44</time>
        <extensions><speed>1.03</speed></extensions>
      </trkpt>
      <trkpt lat="51.834454000" lon="7.600879000">
        <ele>63.0</ele>
        <time>2017-04-29T04:41:45</time>
        <extensions><speed>1.04</speed></extensions>
      </trkpt>
      <trkpt lat="51.834442000" lon="7.600884000">
        <ele>63.0</ele>
        <time>2017-04-29T04:41:46</time>
        <extensions><speed>1.06</speed></extensions>
      </trkpt>
      <trkpt lat="51.834435000" lon="7.600892000">
        <ele>63.0</ele>
        <time>2017-04-29T04:41:47</time>
        <extensions><speed>1.05</speed></extensions>
      </trkpt>
      <trkpt lat="51.834427000" lon="7.600900000">
        <ele>63.1</ele>
        <time>2017-04-29T04:41:48</time>
        <extensions><speed>0.99</speed></extensions>
      </trkpt>
      <trkpt lat="51.834427000" lon="7.600912000">
        <ele>63.2</ele>
        <time>2017-04-29T04:41:49</time>
        <extensions><speed>1.04</speed></extensions>
      </trkpt>
      <trkpt lat="51.834415000" lon="7.600921000">
        <ele>63.3</ele>
        <time>2017-04-29T04:41:50</time>
        <extensions><speed>1.04</speed></extensions>
      </trkpt>
      <trkpt lat="51.834408000" lon="7.600932000">
        <ele>63.3</ele>
        <time>2017-04-29T04:41:51</time>
        <extensions><speed>0.99</speed></extensions>
      </trkpt>
      <trkpt lat="51.834396000" lon="7.600942000">
        <ele>63.4</ele>
        <time>2017-04-29T04:41:52</time>
        <extensions><speed>1.08</speed></extensions>
      </trkpt>
      <trkpt lat="51.834389000" lon="7.600951000">
        <ele>63.5</ele>
        <time>2017-04-29T04:41:53</time>
        <extensions><speed>1.18</speed></extensions>
      </trkpt>
      <trkpt lat="51.834377000" lon="7.600960000">
        <ele>63.6</ele>
        <time>2017-04-29T04:41:54</time>
        <extensions><speed>1.17</speed></extensions>
      </trkpt>
      <trkpt lat="51.834366000" lon="7.600966000">
        <ele>63.7</ele>
        <time>2017-04-29T04:41:55</time>
        <extensions><speed>1.17</speed></extensions>
      </trkpt>
      <trkpt lat="51.834358000" lon="7.600972000">
        <ele>63.7</ele>
        <time>2017-04-29T04:41:56</time>
        <extensions><speed>1.26</speed></extensions>
      </trkpt>
      <trkpt lat="51.834343000" lon="7.600977000">
        <ele>63.8</ele>
        <time>2017-04-29T04:41:57</time>
        <extensions><speed>1.38</speed></extensions>
      </trkpt>
      <trkpt lat="51.834328000" lon="7.600986000">
        <ele>63.9</ele>
        <time>2017-04-29T04:41:58</time>
        <extensions><speed>1.39</speed></extensions>
      </trkpt>
      <trkpt lat="51.834320000" lon="7.600995000">
        <ele>64.0</ele>
        <time>2017-04-29T04:41:59</time>
        <extensions><speed>1.40</speed></extensions>
      </trkpt>
      <trkpt lat="51.834309000" lon="7.601007000">
        <ele>64.1</ele>
        <time>2017-04-29T04:42:00</time>
        <extensions><speed>1.38</speed></extensions>
      </trkpt>
      <trkpt lat="51.834297000" lon="7.601015000">
        <ele>64.2</ele>
        <time>2017-04-29T04:42:01</time>
        <extensions><speed>1.31</speed></extensions>
      </trkpt>
      <trkpt lat="51.834293000" lon="7.601027000">
        <ele>64.3</ele>
        <time>2017-04-29T04:42:02</time>
        <extensions><speed>1.27</speed></extensions>
      </trkpt>
      <trkpt lat="51.834282000" lon="7.601038000">
        <ele>64.4</ele>
        <time>2017-04-29T04:42:03</time>
        <extensions><speed>1.22</speed></extensions>
      </trkpt>
      <trkpt lat="51.834270000" lon="7.601052000">
        <ele>64.5</ele>
        <time>2017-04-29T04:42:04</time>
        <extensions><speed>1.22</speed></extensions>
      </trkpt>
      <trkpt lat="51.834263000" lon="7.601063000">
        <ele>64.6</ele>
        <time>2017-04-29T04:42:05</time>
        <extensions><speed>1.23</speed></extensions>
      </trkpt>
      <trkpt lat="51.834251000" lon="7.601073000">
        <ele>64.6</ele>
        <time>2017-04-29T04:42:06</time>
        <extensions><speed>1.20</speed></extensions>
      </trkpt>
      <trkpt lat="51.834240000" lon="7.601087000">
        <ele>64.7</ele>
        <time>2017-04-29T04:42:07</time>
        <extensions><speed>1.24</speed></extensions>
      </trkpt>
      <trkpt lat="51.834232000" lon="7.601105000">
        <ele>64.8</ele>
        <time>2017-04-29T04:42:08</time>
        <extensions><speed>1.31</speed></extensions>
      </trkpt>
      <trkpt lat="51.834232000" lon="7.601125000">
        <ele>65.0</ele>
        <time>2017-04-29T04:42:09</time>
        <extensions><speed>1.35</speed></extensions>
      </trkpt>
      <trkpt lat="51.834232000" lon="7.601150000">
        <ele>65.1</ele>
        <time>2017-04-29T04:42:10</time>
        <extensions><speed>1.40</speed></extensions>
      </trkpt>
      <trkpt lat="51.834232000" lon="7.601171000">
        <ele>65.2</ele>
        <time>2017-04-29T04:42:11</time>
        <extensions><speed>1.46</speed></extensions>
      </trkpt>
      <trkpt lat="51.834232000" lon="7.601190000">
        <ele>65.3</ele>
        <time>2017-04-29T04:42:12</time>
        <extensions><speed>1.45</speed></extensions>
      </trkpt>
      <trkpt lat="51.834232000" lon="7.601212000">
        <ele>65.4</ele>
        <time>2017-04-29T04:42:13</time>
        <extensions><speed>1.47</speed></extensions>
      </trkpt>
      <trkpt lat="51.834229000" lon="7.601230000">
        <ele>65.5</ele>
        <time>2017-04-29T04:42:14</time>
        <extensions><speed>1.42</speed></extensions>
      </trkpt>
      <trkpt lat="51.834221000" lon="7.601243000">
        <ele>65.6</ele>
        <time>2017-04-29T04:42:15</time>
        <extensions><speed>1.32</speed></extensions>
      </trkpt>
      <trkpt lat="51.834213000" lon="7.601254000">
        <ele>65.7</ele>
        <time>2017-04-29T04:42:16</time>
        <extensions><speed>1.32</speed></extensions>
      </trkpt>
      <trkpt lat="51.834202000" lon="7.601264000">
        <ele>65.7</ele>
        <time>2017-04-29T04:42:17</time>
        <extensions><speed>1.38</speed></extensions>
      </trkpt>
      <trkpt lat="51.834190000" lon="7.601272000">
        <ele>65.8</ele>
        <time>2017-04-29T04:42:18</time>
        <extensions><speed>1.42</speed></extensions>
      </trkpt>
      <trkpt lat="51.834171000" lon="7.601276000">
        <ele>65.9</ele>
        <time>2017-04-29T04:42:19</time>
        <extensions><speed>1.51</speed></extensions>
      </trkpt>
      <trkpt lat="51.834160000" lon="7.601285000">
        <ele>66.0</ele>
        <time>2017-04-29T04:42:20</time>
        <extensions><speed>1.51</speed></extensions>
      </trkpt>
      <trkpt lat="51.834148000" lon="7.601292000">
        <ele>66.0</ele>
        <time>2017-04-29T04:42:21</time>
        <extensions><speed>1.50</speed></extensions>
      </trkpt>
      <trkpt lat="51.834137000" lon="7.601297000">
        <ele>66.1</ele>
        <time>2017-04-29T04:42:22</time>
        <extensions><speed>1.43</speed></extensions>
      </trkpt>
      <trkpt lat="51.834129000" lon="7.601300000">
        <ele>66.2</ele>
        <time>2017-04-29T04:42:23</time>
        <extensions><speed>1.32</speed></extensions>
      </trkpt>
      <trkpt lat="51.834118000" lon="7.601300000">
        <ele>66.3</ele>
        <time>2017-04-29T04:42:24</time>
        <extensions><speed>1.22</speed></extensions>
      </trkpt>
      <trkpt lat="51.834106000" lon="7.601306000">
        <ele>66.4</ele>
        <time>2017-04-29T04:42:25</time>
        <extensions><speed>1.22</speed></extensions>
      </trkpt>
      <trkpt lat="51.834099000" lon="7.601318000">
        <ele>66.5</ele>
        <time>2017-04-29T04:42:26</time>
        <extensions><speed>1.22</speed></extensions>
      </trkpt>
      <trkpt lat="51.834084000" lon="7.601329000">
        <ele>66.5</ele>
        <time>2017-04-29T04:42:27</time>
        <extensions><speed>1.26</speed></extensions>
      </trkpt>
      <trkpt lat="51.834068000" lon="7.601332000">
        <ele>66.6</ele>
        <time>2017-04-29T04:42:28</time>
        <extensions><speed>1.33</speed></extensions>
      </trkpt>
      <trkpt lat="51.834061000" lon="7.601334000">
        <ele>66.7</ele>
        <time>2017-04-29T04:42:29</time>
        <extensions><speed>1.33</speed></extensions>
      </trkpt>
      <trkpt lat="51.834049000" lon="7.601330000">
        <ele>66.7</ele>
        <time>2017-04-29T04:42:30</time>
        <extensions><speed>1.28</speed></extensions>
      </trkpt>
      <trkpt lat="51.834038000" lon="7.601325000">
        <ele>66.8</ele>
        <time>2017-04-29T04:42:31</time>
        <extensions><speed>1.23</speed></extensions>
      </trkpt>
      <trkpt lat="51.834026000" lon="7.601320000">
        <ele>66.9</ele>
        <time>2017-04-29T04:42:32</time>
        <extensions><speed>1.23</speed></extensions>
      </trkpt>
      <trkpt lat="51.834019000" lon="7.601313000">
        <ele>66.9</ele>
        <time>2017-04-29T04:42:33</time>
        <extensions><speed>1.16</speed></extensions>
      </trkpt>
      <trkpt lat="51.834007000" lon="7.601306000">
        <ele>67.0</ele>
        <time>2017-04-29T04:42:34</time>
        <extensions><speed>1.16</speed></extensions>
      </trkpt>
      <trkpt lat="51.834000000" lon="7.601300000">
        <ele>67.0</ele>
        <time>2017-04-29T04:42:35</time>
        <extensions><speed>1.21</speed></extensions>
      </trkpt>
      <trkpt lat="51.833992000" lon="7.601292000">
        <ele>67.1</ele>
        <time>2017-04-29T04:42:36</time>
        <extensions><speed>1.09</speed></extensions>
      </trkpt>
      <trkpt lat="51.833984000" lon="7.601280000">
        <ele>67.1</ele>
        <time>2017-04-29T04:42:37</time>
        <extensions><speed>1.06</speed></extensions>
      </trkpt>
      <trkpt lat="51.833973000" lon="7.601270000">
        <ele>67.1</ele>
        <time>2017-04-29T04:42:38</time>
        <extensions><speed>1.06</speed></extensions>
      </trkpt>
      <trkpt lat="51.833965000" lon="7.601264000">
        <ele>67.2</ele>
        <time>2017-04-29T04:42:39</time>
        <extensions><speed>1.12</speed></extensions>
      </trkpt>
      <trkpt lat="51.833954000" lon="7.601262000">
        <ele>67.2</ele>
        <time>2017-04-29T04:42:40</time>
        <extensions><speed>1.08</speed></extensions>
      </trkpt>
      <trkpt lat="51.833946000" lon="7.601252000">
        <ele>67.2</ele>
        <time>2017-04-29T04:42:41</time>
        <extensions><speed>1.11</speed></extensions>
      </trkpt>
      <trkpt lat="51.833939000" lon="7.601242000">
        <ele>67.2</ele>
        <time>2017-04-29T04:42:42</time>
        <extensions><speed>1.11</speed></extensions>
      </trkpt>
      <trkpt lat="51.833931000" lon="7.601230000">
        <ele>67.2</ele>
        <time>2017-04-29T04:42:43</time>
        <extensions><speed>1.12</speed></extensions>
      </trkpt>
      <trkpt lat="51.833920000" lon="7.601215000">
        <ele>67.2</ele>
        <time>2017-04-29T04:42:44</time>
        <extensions><speed>1.15</speed></extensions>
      </trkpt>
      <trkpt lat="51.833912000" lon="7.601203000">
        <ele>67.2</ele>
        <time>2017-04-29T04:42:45</time>
        <extensions><speed>1.15</speed></extensions>
      </trkpt>
      <trkpt lat="51.833904000" lon="7.601194000">
        <ele>67.2</ele>
        <time>2017-04-29T04:42:46</time>
        <extensions><speed>1.17</speed></extensions>
      </trkpt>
      <trkpt lat="51.833889000" lon="7.601180000">
        <ele>67.3</ele>
        <time>2017-04-29T04:42:47</time>
        <extensions><speed>1.24</speed></extensions>
      </trkpt>
      <trkpt lat="51.833878000" lon="7.601168000">
        <ele>67.3</ele>
        <time>2017-04-29T04:42:48</time>
        <extensions><speed>1.24</speed></extensions>
      </trkpt>
      <trkpt lat="51.833874000" lon="7.601157000">
        <ele>67.3</ele>
        <time>2017-04-29T04:42:49</time>
        <extensions><speed>1.22</speed></extensions>
      </trkpt>
      <trkpt lat="51.833870000" lon="7.601147000">
        <ele>67.3</ele>
        <time>2017-04-29T04:42:50</time>
        <extensions><speed>1.22</speed></extensions>
      </trkpt>
      <trkpt lat="51.833862000" lon="7.601135000">
        <ele>67.3</ele>
        <time>2017-04-29T04:42:51</time>
        <extensions><speed>1.16</speed></extensions>
      </trkpt>
      <trkpt lat="51.833851000" lon="7.601124000">
        <ele>67.3</ele>
        <time>2017-04-29T04:42:52</time>
        <extensions><speed>1.13</speed></extensions>
      </trkpt>
      <trkpt lat="51.833839000" lon="7.601119000">
        <ele>67.3</ele>
        <time>2017-04-29T04:42:53</time>
        <extensions><speed>1.14</speed></extensions>
      </trkpt>
      <trkpt lat="51.833832000" lon="7.601110000">
        <ele>67.3</ele>
        <time>2017-04-29T04:42:54</time>
        <extensions><speed>1.18</speed></extensions>
      </trkpt>
      <trkpt lat="51.833824000" lon="7.601100000">
        <ele>67.3</ele>
        <time>2017-04-29T04:42:55</time>
        <extensions><speed>1.18</speed></extensions>
      </trkpt>
      <trkpt lat="51.833809000" lon="7.601089000">
        <ele>67.3</ele>
        <time>2017-04-29T04:42:56</time>
        <extensions><speed>1.19</speed></extensions>
      </trkpt>
      <trkpt lat="51.833805000" lon="7.601077000">
        <ele>67.3</ele>
        <time>2017-04-29T04:42:57</time>
        <extensions><speed>1.18</speed></extensions>
      </trkpt>
      <trkpt lat="51.833797000" lon="7.601072000">
        <ele>67.3</ele>
        <time>2017-04-29T04:42:58</time>
        <extensions><speed>1.16</speed></extensions>
      </trkpt>
      <trkpt lat="51.833786000" lon="7.601061000">
        <ele>67.3</ele>
        <time>2017-04-29T04:42:59</time>
        <extensions><speed>1.13</speed></extensions>
      </trkpt>
      <trkpt lat="51.833775000" lon="7.601050000">
        <ele>67.3</ele>
        <time>2017-04-29T04:43:00</time>
        <extensions><speed>1.11</speed></extensions>
      </trkpt>
      <trkpt lat="51.833767000" lon="7.601037000">
        <ele>67.3</ele>
        <time>2017-04-29T04:43:01</time>
        <extensions><speed>1.10</speed></extensions>
      </trkpt>
      <trkpt lat="51.833759000" lon="7.601028000">
        <ele>67.3</ele>
        <time>2017-04-29T04:43:02</time>
        <extensions><speed>0.99</speed></extensions>
      </trkpt>
      <trkpt lat="51.833752000" lon="7.601028000">
        <ele>67.3</ele>
        <time>2017-04-29T04:43:03</time>
        <extensions><speed>1.04</speed></extensions>
      </trkpt>
      <trkpt lat="51.833740000" lon="7.601021000">
        <ele>67.4</ele>
        <time>2017-04-29T04:43:04</time>
        <extensions><speed>1.04</speed></extensions>
      </trkpt>
      <trkpt lat="51.833729000" lon="7.601014000">
        <ele>67.4</ele>
        <time>2017-04-29T04:43:05</time>
        <extensions><speed>1.14</speed></extensions>
      </trkpt>
      <trkpt lat="51.833721000" lon="7.601003000">
        <ele>67.4</ele>
        <time>2017-04-29T04:43:06</time>
        <extensions><speed>1.17</speed></extensions>
      </trkpt>
      <trkpt lat="51.833710000" lon="7.600988000">
        <ele>67.4</ele>
        <time>2017-04-29T04:43:07</time>
        <extensions><speed>1.30</speed></extensions>
      </trkpt>
      <trkpt lat="51.833698000" lon="7.600975000">
        <ele>67.4</ele>
        <time>2017-04-29T04:43:08</time>
        <extensions><speed>1.30</speed></extensions>
      </trkpt>
      <trkpt lat="51.833694000" lon="7.600965000">
        <ele>67.4</ele>
        <time>2017-04-29T04:43:09</time>
        <extensions><speed>1.22</speed></extensions>
      </trkpt>
      <trkpt lat="51.833683000" lon="7.600956000">
        <ele>67.4</ele>
        <time>2017-04-29T04:43:10</time>
        <extensions><speed>1.13</speed></extensions>
      </trkpt>
      <trkpt lat="51.833675000" lon="7.600947000">
        <ele>67.5</ele>
        <time>2017-04-29T04:43:11</time>
        <extensions><speed>1.08</speed></extensions>
      </trkpt>
      <trkpt lat="51.833664000" lon="7.600942000">
        <ele>67.5</ele>
        <time>2017-04-29T04:43:12</time>
        <extensions><speed>1.08</speed></extensions>
      </trkpt>
      <trkpt lat="51.833652000" lon="7.600938000">
        <ele>67.5</ele>
        <time>2017-04-29T04:43:13</time>
        <extensions><speed>1.09</speed></extensions>
      </trkpt>
      <trkpt lat="51.833645000" lon="7.600928000">
        <ele>67.5</ele>
        <time>2017-04-29T04:43:14</time>
        <extensions><speed>1.16</speed></extensions>
      </trkpt>
      <trkpt lat="51.833633000" lon="7.600916000">
        <ele>67.5</ele>
        <time>2017-04-29T04:43:15</time>
        <extensions><speed>1.19</speed></extensions>
      </trkpt>
      <trkpt lat="51.833618000" lon="7.600907000">
        <ele>67.5</ele>
        <time>2017-04-29T04:43:16</time>
        <extensions><speed>1.24</speed></extensions>
      </trkpt>
      <trkpt lat="51.833611000" lon="7.600904000">
        <ele>67.5</ele>
        <time>2017-04-29T04:43:17</time>
        <extensions><speed>1.24</speed></extensions>
      </trkpt>
      <trkpt lat="51.833599000" lon="7.600900000">
        <ele>67.5</ele>
        <time>2017-04-29T04:43:18</time>
        <extensions><speed>1.20</speed></extensions>
      </trkpt>
      <trkpt lat="51.833588000" lon="7.600890000">
        <ele>67.6</ele>
        <time>2017-04-29T04:43:19</time>
        <extensions><speed>1.19</speed></extensions>
      </trkpt>
      <trkpt lat="51.833580000" lon="7.600884000">
        <ele>67.6</ele>
        <time>2017-04-29T04:43:20</time>
        <extensions><speed>1.23</speed></extensions>
      </trkpt>
      <trkpt lat="51.833569000" lon="7.600883000">
        <ele>67.6</ele>
        <time>2017-04-29T04:43:21</time>
        <extensions><speed>1.18</speed></extensions>
      </trkpt>
      <trkpt lat="51.833557000" lon="7.600883000">
        <ele>67.7</ele>
        <time>2017-04-29T04:43:22</time>
        <extensions><speed>1.12</speed></extensions>
      </trkpt>
      <trkpt lat="51.833546000" lon="7.600881000">
        <ele>67.7</ele>
        <time>2017-04-29T04:43:23</time>
        <extensions><speed>1.21</speed></extensions>
      </trkpt>
      <trkpt lat="51.833527000" lon="7.600888000">
        <ele>67.7</ele>
        <time>2017-04-29T04:43:24</time>
        <extensions><speed>1.20</speed></extensions>
      </trkpt>
      <trkpt lat="51.833515000" lon="7.600895000">
        <ele>67.8</ele>
        <time>2017-04-29T04:43:25</time>
        <extensions><speed>1.19</speed></extensions>
      </trkpt>
      <trkpt lat="51.833504000" lon="7.600902000">
        <ele>67.8</ele>
        <time>2017-04-29T04:43:26</time>
        <extensions><speed>1.24</speed></extensions>
      </trkpt>
      <trkpt lat="51.833488000" lon="7.600909000">
        <ele>67.9</ele>
        <time>2017-04-29T04:43:27</time>
        <extensions><speed>1.24</speed></extensions>
      </trkpt>
      <trkpt lat="51.833481000" lon="7.600914000">
        <ele>67.9</ele>
        <time>2017-04-29T04:43:28</time>
        <extensions><speed>1.22</speed></extensions>
      </trkpt>
      <trkpt lat="51.833477000" lon="7.600915000">
        <ele>68.1</ele>
        <time>2017-04-29T04:43:29</time>
      </trkpt>
      <trkpt lat="51.833462000" lon="7.600916000">
        <ele>68.1</ele>
        <time>2017-04-29T04:43:31</time>
        <extensions><speed>1.01</speed></extensions>
      </trkpt>
      <trkpt lat="51.833454000" lon="7.600910000">
        <ele>68.2</ele>
        <time>2017-04-29T04:43:32</time>
        <extensions><speed>0.95</speed></extensions>
      </trkpt>
      <trkpt lat="51.833447000" lon="7.600910000">
        <ele>68.2</ele>
        <time>2017-04-29T04:43:33</time>
        <extensions><speed>0.93</speed></extensions>
      </trkpt>
      <trkpt lat="51.833435000" lon="7.600910000">
        <ele>68.3</ele>
        <time>2017-04-29T04:43:34</time>
        <extensions><speed>0.93</speed></extensions>
      </trkpt>
      <trkpt lat="51.833424000" lon="7.600907000">
        <ele>68.3</ele>
        <time>2017-04-29T04:43:35</time>
        <extensions><speed>0.93</speed></extensions>
      </trkpt>
      <trkpt lat="51.833416000" lon="7.600909000">
        <ele>68.3</ele>
        <time>2017-04-29T04:43:36</time>
      </trkpt>
      <trkpt lat="51.833408000" lon="7.600916000">
        <ele>68.4</ele>
        <time>2017-04-29T04:43:38</time>
        <extensions><speed>0.85</speed></extensions>
      </trkpt>
      <trkpt lat="51.833401000" lon="7.600926000">
        <ele>68.4</ele>
        <time>2017-04-29T04:43:39</time>
        <extensions><speed>0.96</speed></extensions>
      </trkpt>
      <trkpt lat="51.833389000" lon="7.600934000">
        <ele>68.4</ele>
        <time>2017-04-29T04:43:40</time>
        <extensions><speed>0.88</speed></extensions>
      </trkpt>
      <trkpt lat="51.833382000" lon="7.600947000">
        <ele>68.4</ele>
        <time>2017-04-29T04:43:41</time>
        <extensions><speed>0.99</speed></extensions>
      </trkpt>
      <trkpt lat="51.833374000" lon="7.600965000">
        <ele>68.4</ele>
        <time>2017-04-29T04:43:42</time>
        <extensions><speed>1.10</speed></extensions>
      </trkpt>
      <trkpt lat="51.833366000" lon="7.600984000">
        <ele>68.4</ele>
        <time>2017-04-29T04:43:43</time>
        <extensions><speed>1.19</speed></extensions>
      </trkpt>
      <trkpt lat="51.833359000" lon="7.601000000">
        <ele>68.4</ele>
        <time>2017-04-29T04:43:44</time>
        <extensions><speed>1.23</speed></extensions>
      </trkpt>
      <trkpt lat="51.833351000" lon="7.601015000">
        <ele>68.5</ele>
        <time>2017-04-29T04:43:45</time>
        <extensions><speed>1.23</speed></extensions>
      </trkpt>
      <trkpt lat="51.833344000" lon="7.601030000">
        <ele>68.5</ele>
        <time>2017-04-29T04:43:46</time>
        <extensions><speed>1.26</speed></extensions>
      </trkpt>
      <trkpt lat="51.833336000" lon="7.601050000">
        <ele>68.6</ele>
        <time>2017-04-29T04:43:47</time>
        <extensions><speed>1.34</speed></extensions>
      </trkpt>
      <trkpt lat="51.833324000" lon="7.601073000">
        <ele>68.6</ele>
        <time>2017-04-29T04:43:48</time>
        <extensions><speed>1.27</speed></extensions>
      </trkpt>
      <trkpt lat="51.833317000" lon="7.601093000">
        <ele>68.7</ele>
        <time>2017-04-29T04:43:49</time>
        <extensions><speed>1.29</speed></extensions>
      </trkpt>
      <trkpt lat="51.833313000" lon="7.601112000">
        <ele>68.8</ele>
        <time>2017-04-29T04:43:50</time>
        <extensions><speed>1.33</speed></extensions>
      </trkpt>
      <trkpt lat="51.833305000" lon="7.601130000">
        <ele>68.8</ele>
        <time>2017-04-29T04:43:51</time>
        <extensions><speed>1.36</speed></extensions>
      </trkpt>
      <trkpt lat="51.833302000" lon="7.601149000">
        <ele>68.9</ele>
        <time>2017-04-29T04:43:52</time>
        <extensions><speed>1.33</speed></extensions>
      </trkpt>
      <trkpt lat="51.833294000" lon="7.601165000">
        <ele>69.0</ele>
        <time>2017-04-29T04:43:53</time>
        <extensions><speed>1.29</speed></extensions>
      </trkpt>
      <trkpt lat="51.833286000" lon="7.601182000">
        <ele>69.0</ele>
        <time>2017-04-29T04:43:54</time>
        <extensions><speed>1.24</speed></extensions>
      </trkpt>
      <trkpt lat="51.833286000" lon="7.601196000">
        <ele>69.1</ele>
        <time>2017-04-29T04:43:55</time>
        <extensions><speed>1.17</speed></extensions>
      </trkpt>
      <trkpt lat="51.833279000" lon="7.601212000">
        <ele>69.2</ele>
        <time>2017-04-29T04:43:56</time>
        <extensions><speed>1.17</speed></extensions>
      </trkpt>
      <trkpt lat="51.833271000" lon="7.601231000">
        <ele>69.2</ele>
        <time>2017-04-29T04:43:57</time>
        <extensions><speed>1.19</speed></extensions>
      </trkpt>
      <trkpt lat="51.833267000" lon="7.601252000">
        <ele>69.3</ele>
        <time>2017-04-29T04:43:58</time>
        <extensions><speed>1.14</speed></extensions>
      </trkpt>
      <trkpt lat="51.833260000" lon="7.601266000">
        <ele>69.3</ele>
        <time>2017-04-29T04:43:59</time>
        <extensions><speed>1.11</speed></extensions>
      </trkpt>
      <trkpt lat="51.833252000" lon="7.601282000">
        <ele>69.4</ele>
        <time>2017-04-29T04:44:00</time>
        <extensions><speed>1.19</speed></extensions>
      </trkpt>
      <trkpt lat="51.833244000" lon="7.601300000">
        <ele>69.4</ele>
        <time>2017-04-29T04:44:01</time>
        <extensions><speed>1.21</speed></extensions>
      </trkpt>
      <trkpt lat="51.833237000" lon="7.601320000">
        <ele>69.5</ele>
        <time>2017-04-29T04:44:02</time>
        <extensions><speed>1.26</speed></extensions>
      </trkpt>
      <trkpt lat="51.833225000" lon="7.601336000">
        <ele>69.5</ele>
        <time>2017-04-29T04:44:03</time>
        <extensions><speed>1.37</speed></extensions>
      </trkpt>
      <trkpt lat="51.833221000" lon="7.601352000">
        <ele>69.6</ele>
        <time>2017-04-29T04:44:04</time>
        <extensions><speed>1.37</speed></extensions>
      </trkpt>
      <trkpt lat="51.833218000" lon="7.601369000">
        <ele>69.6</ele>
        <time>2017-04-29T04:44:05</time>
        <extensions><speed>1.37</speed></extensions>
      </trkpt>
      <trkpt lat="51.833214000" lon="7.601390000">
        <ele>69.7</ele>
        <time>2017-04-29T04:44:06</time>
        <extensions><speed>1.37</speed></extensions>
      </trkpt>
      <trkpt lat="51.833210000" lon="7.601413000">
        <ele>69.7</ele>
        <time>2017-04-29T04:44:07</time>
        <extensions><speed>1.37</speed></extensions>
      </trkpt>
      <trkpt lat="51.833202000" lon="7.601435000">
        <ele>69.8</ele>
        <time>2017-04-29T04:44:08</time>
        <extensions><speed>1.39</speed></extensions>
      </trkpt>
      <trkpt lat="51.833195000" lon="7.601451000">
        <ele>69.8</ele>
        <time>2017-04-29T04:44:09</time>
        <extensions><speed>1.44</speed></extensions>
      </trkpt>
      <trkpt lat="51.833187000" lon="7.601470000">
        <ele>69.9</ele>
        <time>2017-04-29T04:44:10</time>
        <extensions><speed>1.45</speed></extensions>
      </trkpt>
      <trkpt lat="51.833183000" lon="7.601488000">
        <ele>69.9</ele>
        <time>2017-04-29T04:44:11</time>
        <extensions><speed>1.43</speed></extensions>
      </trkpt>
      <trkpt lat="51.833172000" lon="7.601508000">
        <ele>70.0</ele>
        <time>2017-04-29T04:44:12</time>
        <extensions><speed>1.40</speed></extensions>
      </trkpt>
      <trkpt lat="51.833164000" lon="7.601527000">
        <ele>70.0</ele>
        <time>2017-04-29T04:44:13</time>
        <extensions><speed>1.38</speed></extensions>
      </trkpt>
      <trkpt lat="51.833164000" lon="7.601543000">
        <ele>70.1</ele>
        <time>2017-04-29T04:44:14</time>
        <extensions><speed>1.35</speed></extensions>
      </trkpt>
      <trkpt lat="51.833160000" lon="7.601560000">
        <ele>70.1</ele>
        <time>2017-04-29T04:44:15</time>
        <extensions><speed>1.35</speed></extensions>
      </trkpt>
      <trkpt lat="51.833157000" lon="7.601569000">
        <ele>70.2</ele>
        <time>2017-04-29T04:44:16</time>
      </trkpt>
      <trkpt lat="51.833149000" lon="7.601583000">
        <ele>70.3</ele>
        <time>2017-04-29T04:44:18</time>
        <extensions><speed>1.20</speed></extensions>
      </trkpt>
      <trkpt lat="51.833141000" lon="7.601598000">
        <ele>70.3</ele>
        <time>2017-04-29T04:44:19</time>
        <extensions><speed>1.20</speed></extensions>
      </trkpt>
      <trkpt lat="51.833134000" lon="7.601613000">
        <ele>70.3</ele>
        <time>2017-04-29T04:44:20</time>
        <extensions><speed>1.20</speed></extensions>
      </trkpt>
      <trkpt lat="51.833126000" lon="7.601630000">
        <ele>70.3</ele>
        <time>2017-04-29T04:44:21</time>
        <extensions><speed>1.26</speed></extensions>
      </trkpt>
      <trkpt lat="51.833118000" lon="7.601645000">
        <ele>70.4</ele>
        <time>2017-04-29T04:44:22</time>
        <extensions><speed>1.24</speed></extensions>
      </trkpt>
      <trkpt lat="51.833111000" lon="7.601662000">
        <ele>70.4</ele>
        <time>2017-04-29T04:44:23</time>
        <extensions><speed>1.24</speed></extensions>
      </trkpt>
      <trkpt lat="51.833103000" lon="7.601682000">
        <ele>70.4</ele>
        <time>2017-04-29T04:44:24</time>
        <extensions><speed>1.24</speed></extensions>
      </trkpt>
      <trkpt lat="51.833096000" lon="7.601702000">
        <ele>70.5</ele>
        <time>2017-04-29T04:44:25</time>
        <extensions><speed>1.20</speed></extensions>
      </trkpt>
      <trkpt lat="51.833092000" lon="7.601720000">
        <ele>70.5</ele>
        <time>2017-04-29T04:44:26</time>
        <extensions><speed>1.20</speed></extensions>
      </trkpt>
      <trkpt lat="51.833084000" lon="7.601737000">
        <ele>70.5</ele>
        <time>2017-04-29T04:44:27</time>
        <extensions><speed>1.25</speed></extensions>
      </trkpt>
      <trkpt lat="51.833076000" lon="7.601751000">
        <ele>70.6</ele>
        <time>2017-04-29T04:44:28</time>
        <extensions><speed>1.25</speed></extensions>
      </trkpt>
      <trkpt lat="51.833069000" lon="7.601765000">
        <ele>70.6</ele>
        <time>2017-04-29T04:44:29</time>
        <extensions><speed>1.23</speed></extensions>
      </trkpt>
      <trkpt lat="51.833061000" lon="7.601782000">
        <ele>70.7</ele>
        <time>2017-04-29T04:44:30</time>
        <extensions><speed>1.22</speed></extensions>
      </trkpt>
      <trkpt lat="51.833054000" lon="7.601800000">
        <ele>70.7</ele>
        <time>2017-04-29T04:44:31</time>
        <extensions><speed>1.20</speed></extensions>
      </trkpt>
      <trkpt lat="51.833046000" lon="7.601815000">
        <ele>70.7</ele>
        <time>2017-04-29T04:44:32</time>
        <extensions><speed>1.12</speed></extensions>
      </trkpt>
      <trkpt lat="51.833038000" lon="7.601830000">
        <ele>70.8</ele>
        <time>2017-04-29T04:44:33</time>
        <extensions><speed>1.15</speed></extensions>
      </trkpt>
      <trkpt lat="51.833027000" lon="7.601847000">
        <ele>70.8</ele>
        <time>2017-04-29T04:44:34</time>
        <extensions><speed>1.23</speed></extensions>
      </trkpt>
      <trkpt lat="51.833023000" lon="7.601863000">
        <ele>70.8</ele>
        <time>2017-04-29T04:44:35</time>
        <extensions><speed>1.28</speed></extensions>
      </trkpt>
      <trkpt lat="51.833015000" lon="7.601882000">
        <ele>70.9</ele>
        <time>2017-04-29T04:44:36</time>
        <extensions><speed>1.31</speed></extensions>
      </trkpt>
      <trkpt lat="51.833008000" lon="7.601902000">
        <ele>70.9</ele>
        <time>2017-04-29T04:44:37</time>
        <extensions><speed>1.33</speed></extensions>
      </trkpt>
      <trkpt lat="51.833000000" lon="7.601919000">
        <ele>70.9</ele>
        <time>2017-04-29T04:44:38</time>
        <extensions><speed>1.33</speed></extensions>
      </trkpt>
      <trkpt lat="51.832996000" lon="7.601932000">
        <ele>71.0</ele>
        <time>2017-04-29T04:44:39</time>
        <extensions><speed>1.33</speed></extensions>
      </trkpt>
      <trkpt lat="51.832993000" lon="7.601940000">
        <ele>71.0</ele>
        <time>2017-04-29T04:44:40</time>
      </trkpt>
      <trkpt lat="51.832981000" lon="7.601960000">
        <ele>71.0</ele>
        <time>2017-04-29T04:44:42</time>
        <extensions><speed>1.05</speed></extensions>
      </trkpt>
      <trkpt lat="51.832970000" lon="7.601978000">
        <ele>71.0</ele>
        <time>2017-04-29T04:44:43</time>
        <extensions><speed>1.06</speed></extensions>
      </trkpt>
      <trkpt lat="51.832966000" lon="7.601995000">
        <ele>71.0</ele>
        <time>2017-04-29T04:44:44</time>
        <extensions><speed>1.19</speed></extensions>
      </trkpt>
      <trkpt lat="51.832958000" lon="7.602015000">
        <ele>71.1</ele>
        <time>2017-04-29T04:44:45</time>
        <extensions><speed>1.31</speed></extensions>
      </trkpt>
      <trkpt lat="51.832958000" lon="7.602035000">
        <ele>71.1</ele>
        <time>2017-04-29T04:44:46</time>
        <extensions><speed>1.35</speed></extensions>
      </trkpt>
      <trkpt lat="51.832954000" lon="7.602057000">
        <ele>71.1</ele>
        <time>2017-04-29T04:44:47</time>
        <extensions><speed>1.35</speed></extensions>
      </trkpt>
      <trkpt lat="51.832947000" lon="7.602078000">
        <ele>71.1</ele>
        <time>2017-04-29T04:44:48</time>
        <extensions><speed>1.35</speed></extensions>
      </trkpt>
      <trkpt lat="51.832939000" lon="7.602095000">
        <ele>71.1</ele>
        <time>2017-04-29T04:44:49</time>
        <extensions><speed>1.40</speed></extensions>
      </trkpt>
      <trkpt lat="51.832928000" lon="7.602110000">
        <ele>71.1</ele>
        <time>2017-04-29T04:44:50</time>
        <extensions><speed>1.35</speed></extensions>
      </trkpt>
      <trkpt lat="51.832920000" lon="7.602123000">
        <ele>71.1</ele>
        <time>2017-04-29T04:44:51</time>
        <extensions><speed>1.35</speed></extensions>
      </trkpt>
      <trkpt lat="51.832912000" lon="7.602138000">
        <ele>71.1</ele>
        <time>2017-04-29T04:44:52</time>
        <extensions><speed>1.31</speed></extensions>
      </trkpt>
      <trkpt lat="51.832909000" lon="7.602159000">
        <ele>71.1</ele>
        <time>2017-04-29T04:44:53</time>
        <extensions><speed>1.26</speed></extensions>
      </trkpt>
      <trkpt lat="51.832901000" lon="7.602176000">
        <ele>71.1</ele>
        <time>2017-04-29T04:44:54</time>
        <extensions><speed>1.16</speed></extensions>
      </trkpt>
      <trkpt lat="51.832893000" lon="7.602192000">
        <ele>71.1</ele>
        <time>2017-04-29T04:44:55</time>
        <extensions><speed>1.17</speed></extensions>
      </trkpt>
      <trkpt lat="51.832890000" lon="7.602208000">
        <ele>71.1</ele>
        <time>2017-04-29T04:44:56</time>
        <extensions><speed>1.23</speed></extensions>
      </trkpt>
      <trkpt lat="51.832882000" lon="7.602223000">
        <ele>71.1</ele>
        <time>2017-04-29T04:44:57</time>
        <extensions><speed>1.12</speed></extensions>
      </trkpt>
      <trkpt lat="51.832878000" lon="7.602237000">
        <ele>71.1</ele>
        <time>2017-04-29T04:44:58</time>
        <extensions><speed>1.02</speed></extensions>
      </trkpt>
      <trkpt lat="51.832870000" lon="7.602255000">
        <ele>71.1</ele>
        <time>2017-04-29T04:44:59</time>
        <extensions><speed>1.15</speed></extensions>
      </trkpt>
      <trkpt lat="51.832863000" lon="7.602274000">
        <ele>71.1</ele>
        <time>2017-04-29T04:45:00</time>
        <extensions><speed>1.16</speed></extensions>
      </trkpt>
      <trkpt lat="51.832855000" lon="7.602290000">
        <ele>71.1</ele>
        <time>2017-04-29T04:45:01</time>
        <extensions><speed>1.21</speed></extensions>
      </trkpt>
      <trkpt lat="51.832848000" lon="7.602307000">
        <ele>71.1</ele>
        <time>2017-04-29T04:45:02</time>
        <extensions><speed>1.33</speed></extensions>
      </trkpt>
      <trkpt lat="51.832840000" lon="7.602318000">
        <ele>71.1</ele>
        <time>2017-04-29T04:45:03</time>
        <extensions><speed>1.33</speed></extensions>
      </trkpt>
      <trkpt lat="51.832829000" lon="7.602332000">
        <ele>71.1</ele>
        <time>2017-04-29T04:45:04</time>
        <extensions><speed>1.25</speed></extensions>
      </trkpt>
      <trkpt lat="51.832825000" lon="7.602350000">
        <ele>71.1</ele>
        <time>2017-04-29T04:45:05</time>
        <extensions><speed>1.25</speed></extensions>
      </trkpt>
      <trkpt lat="51.832817000" lon="7.602368000">
        <ele>71.1</ele>
        <time>2017-04-29T04:45:06</time>
        <extensions><speed>1.26</speed></extensions>
      </trkpt>
      <trkpt lat="51.832809000" lon="7.602388000">
        <ele>71.1</ele>
        <time>2017-04-29T04:45:07</time>
        <extensions><speed>1.31</speed></extensions>
      </trkpt>
      <trkpt lat="51.832802000" lon="7.602412000">
        <ele>71.1</ele>
        <time>2017-04-29T04:45:08</time>
        <extensions><speed>1.43</speed></extensions>
      </trkpt>
      <trkpt lat="51.832798000" lon="7.602433000">
        <ele>71.1</ele>
        <time>2017-04-29T04:45:09</time>
        <extensions><speed>1.43</speed></extensions>
      </trkpt>
      <trkpt lat="51.832794000" lon="7.602453000">
        <ele>71.0</ele>
        <time>2017-04-29T04:45:10</time>
        <extensions><speed>1.40</speed></extensions>
      </trkpt>
      <trkpt lat="51.832787000" lon="7.602472000">
        <ele>71.0</ele>
        <time>2017-04-29T04:45:11</time>
        <extensions><speed>1.45</speed></extensions>
      </trkpt>
      <trkpt lat="51.832779000" lon="7.602491000">
        <ele>71.0</ele>
        <time>2017-04-29T04:45:12</time>
        <extensions><speed>1.41</speed></extensions>
      </trkpt>
      <trkpt lat="51.832771000" lon="7.602499000">
        <ele>71.0</ele>
        <time>2017-04-29T04:45:13</time>
      </trkpt>
      <trkpt lat="51.832764000" lon="7.602517000">
        <ele>71.0</ele>
        <time>2017-04-29T04:45:15</time>
        <extensions><speed>1.29</speed></extensions>
      </trkpt>
      <trkpt lat="51.832756000" lon="7.602531000">
        <ele>70.9</ele>
        <time>2017-04-29T04:45:16</time>
        <extensions><speed>1.23</speed></extensions>
      </trkpt>
      <trkpt lat="51.832748000" lon="7.602547000">
        <ele>70.9</ele>
        <time>2017-04-29T04:45:17</time>
        <extensions><speed>1.23</speed></extensions>
      </trkpt>
      <trkpt lat="51.832741000" lon="7.602565000">
        <ele>70.9</ele>
        <time>2017-04-29T04:45:18</time>
        <extensions><speed>1.30</speed></extensions>
      </trkpt>
      <trkpt lat="51.832733000" lon="7.602584000">
        <ele>70.9</ele>
        <time>2017-04-29T04:45:19</time>
        <extensions><speed>1.25</speed></extensions>
      </trkpt>
      <trkpt lat="51.832726000" lon="7.602602000">
        <ele>70.9</ele>
        <time>2017-04-29T04:45:20</time>
        <extensions><speed>1.33</speed></extensions>
      </trkpt>
      <trkpt lat="51.832718000" lon="7.602619000">
        <ele>70.8</ele>
        <time>2017-04-29T04:45:21</time>
        <extensions><speed>1.34</speed></extensions>
      </trkpt>
      <trkpt lat="51.832706000" lon="7.602632000">
        <ele>70.8</ele>
        <time>2017-04-29T04:45:22</time>
        <extensions><speed>1.27</speed></extensions>
      </trkpt>
      <trkpt lat="51.832699000" lon="7.602649000">
        <ele>70.7</ele>
        <time>2017-04-29T04:45:23</time>
        <extensions><speed>1.26</speed></extensions>
      </trkpt>
      <trkpt lat="51.832695000" lon="7.602668000">
        <ele>70.7</ele>
        <time>2017-04-29T04:45:24</time>
        <extensions><speed>1.33</speed></extensions>
      </trkpt>
      <trkpt lat="51.832687000" lon="7.602687000">
        <ele>70.6</ele>
        <time>2017-04-29T04:45:25</time>
        <extensions><speed>1.30</speed></extensions>
      </trkpt>
      <trkpt lat="51.832680000" lon="7.602705000">
        <ele>70.5</ele>
        <time>2017-04-29T04:45:26</time>
        <extensions><speed>1.32</speed></extensions>
      </trkpt>
      <trkpt lat="51.832680000" lon="7.602726000">
        <ele>70.5</ele>
        <time>2017-04-29T04:45:27</time>
        <extensions><speed>1.35</speed></extensions>
      </trkpt>
      <trkpt lat="51.832676000" lon="7.602742000">
        <ele>70.4</ele>
        <time>2017-04-29T04:45:28</time>
        <extensions><speed>1.33</speed></extensions>
      </trkpt>
      <trkpt lat="51.832672000" lon="7.602755000">
        <ele>70.3</ele>
        <time>2017-04-29T04:45:29</time>
        <extensions><speed>1.18</speed></extensions>
      </trkpt>
      <trkpt lat="51.832664000" lon="7.602770000">
        <ele>70.3</ele>
        <time>2017-04-29T04:45:30</time>
        <extensions><speed>1.20</speed></extensions>
      </trkpt>
      <trkpt lat="51.832657000" lon="7.602787000">
        <ele>70.2</ele>
        <time>2017-04-29T04:45:31</time>
        <extensions><speed>1.23</speed></extensions>
      </trkpt>
      <trkpt lat="51.832649000" lon="7.602801000">
        <ele>70.1</ele>
        <time>2017-04-29T04:45:32</time>
        <extensions><speed>1.25</speed></extensions>
      </trkpt>
      <trkpt lat="51.832638000" lon="7.602817000">
        <ele>70.1</ele>
        <time>2017-04-29T04:45:33</time>
        <extensions><speed>1.35</speed></extensions>
      </trkpt>
      <trkpt lat="51.832630000" lon="7.602831000">
        <ele>70.0</ele>
        <time>2017-04-29T04:45:34</time>
        <extensions><speed>1.39</speed></extensions>
      </trkpt>
      <trkpt lat="51.832623000" lon="7.602845000">
        <ele>69.9</ele>
        <time>2017-04-29T04:45:35</time>
        <extensions><speed>1.32</speed></extensions>
      </trkpt>
      <trkpt lat="51.832615000" lon="7.602857000">
        <ele>69.8</ele>
        <time>2017-04-29T04:45:36</time>
      </trkpt>
      <trkpt lat="51.832607000" lon="7.602877000">
        <ele>69.7</ele>
        <time>2017-04-29T04:45:38</time>
        <extensions><speed>1.31</speed></extensions>
      </trkpt>
      <trkpt lat="51.832603000" lon="7.602897000">
        <ele>69.7</ele>
        <time>2017-04-29T04:45:39</time>
        <extensions><speed>1.32</speed></extensions>
      </trkpt>
      <trkpt lat="51.832600000" lon="7.602915000">
        <ele>69.6</ele>
        <time>2017-04-29T04:45:40</time>
        <extensions><speed>1.34</speed></extensions>
      </trkpt>
      <trkpt lat="51.832592000" lon="7.602934000">
        <ele>69.6</ele>
        <time>2017-04-29T04:45:41</time>
        <extensions><speed>1.34</speed></extensions>
      </trkpt>
      <trkpt lat="51.832584000" lon="7.602955000">
        <ele>69.5</ele>
        <time>2017-04-29T04:45:42</time>
        <extensions><speed>1.32</speed></extensions>
      </trkpt>
      <trkpt lat="51.832577000" lon="7.602973000">
        <ele>69.5</ele>
        <time>2017-04-29T04:45:43</time>
        <extensions><speed>1.34</speed></extensions>
      </trkpt>
      <trkpt lat="51.832569000" lon="7.602992000">
        <ele>69.4</ele>
        <time>2017-04-29T04:45:44</time>
        <extensions><speed>1.35</speed></extensions>
      </trkpt>
      <trkpt lat="51.832565000" lon="7.603010000">
        <ele>69.3</ele>
        <time>2017-04-29T04:45:45</time>
        <extensions><speed>1.37</speed></extensions>
      </trkpt>
      <trkpt lat="51.832554000" lon="7.603028000">
        <ele>69.3</ele>
        <time>2017-04-29T04:45:46</time>
        <extensions><speed>1.40</speed></extensions>
      </trkpt>
      <trkpt lat="51.832546000" lon="7.603046000">
        <ele>69.2</ele>
        <time>2017-04-29T04:45:47</time>
        <extensions><speed>1.43</speed></extensions>
      </trkpt>
      <trkpt lat="51.832539000" lon="7.603067000">
        <ele>69.2</ele>
        <time>2017-04-29T04:45:48</time>
        <extensions><speed>1.40</speed></extensions>
      </trkpt>
      <trkpt lat="51.832535000" lon="7.603086000">
        <ele>69.1</ele>
        <time>2017-04-29T04:45:49</time>
        <extensions><speed>1.40</speed></extensions>
      </trkpt>
      <trkpt lat="51.832527000" lon="7.603107000">
        <ele>69.0</ele>
        <time>2017-04-29T04:45:50</time>
        <extensions><speed>1.43</speed></extensions>
      </trkpt>
      <trkpt lat="51.832523000" lon="7.603128000">
        <ele>68.9</ele>
        <time>2017-04-29T04:45:51</time>
        <extensions><speed>1.46</speed></extensions>
      </trkpt>
      <trkpt lat="51.832516000" lon="7.603148000">
        <ele>68.8</ele>
        <time>2017-04-29T04:45:52</time>
        <extensions><speed>1.43</speed></extensions>
      </trkpt>
      <trkpt lat="51.832508000" lon="7.603165000">
        <ele>68.7</ele>
        <time>2017-04-29T04:45:53</time>
        <extensions><speed>1.43</speed></extensions>
      </trkpt>
      <trkpt lat="51.832504000" lon="7.603181000">
        <ele>68.6</ele>
        <time>2017-04-29T04:45:54</time>
        <extensions><speed>1.37</speed></extensions>
      </trkpt>
      <trkpt lat="51.832493000" lon="7.603202000">
        <ele>68.6</ele>
        <time>2017-04-29T04:45:55</time>
        <extensions><speed>1.32</speed></extensions>
      </trkpt>
      <trkpt lat="51.832485000" lon="7.603220000">
        <ele>68.5</ele>
        <time>2017-04-29T04:45:56</time>
        <extensions><speed>1.31</speed></extensions>
      </trkpt>
      <trkpt lat="51.832474000" lon="7.603237000">
        <ele>68.4</ele>
        <time>2017-04-29T04:45:57</time>
        <extensions><speed>1.30</speed></extensions>
      </trkpt>
      <trkpt lat="51.832470000" lon="7.603253000">
        <ele>68.3</ele>
        <time>2017-04-29T04:45:58</time>
        <extensions><speed>1.30</speed></extensions>
      </trkpt>
      <trkpt lat="51.832466000" lon="7.603272000">
        <ele>68.3</ele>
        <time>2017-04-29T04:45:59</time>
        <extensions><speed>1.31</speed></extensions>
      </trkpt>
      <trkpt lat="51.832458000" lon="7.603292000">
        <ele>68.2</ele>
        <time>2017-04-29T04:46:00</time>
        <extensions><speed>1.31</speed></extensions>
      </trkpt>
      <trkpt lat="51.832451000" lon="7.603310000">
        <ele>68.1</ele>
        <time>2017-04-29T04:46:01</time>
        <extensions><speed>1.32</speed></extensions>
      </trkpt>
      <trkpt lat="51.832447000" lon="7.603328000">
        <ele>68.0</ele>
        <time>2017-04-29T04:46:02</time>
        <extensions><speed>1.32</speed></extensions>
      </trkpt>
      <trkpt lat="51.832439000" lon="7.603345000">
        <ele>68.0</ele>
        <time>2017-04-29T04:46:03</time>
        <extensions><speed>1.37</speed></extensions>
      </trkpt>
      <trkpt lat="51.832436000" lon="7.603362000">
        <ele>67.9</ele>
        <time>2017-04-29T04:46:04</time>
        <extensions><speed>1.37</speed></extensions>
      </trkpt>
      <trkpt lat="51.832424000" lon="7.603375000">
        <ele>67.8</ele>
        <time>2017-04-29T04:46:05</time>
        <extensions><speed>1.32</speed></extensions>
      </trkpt>
      <trkpt lat="51.832413000" lon="7.603391000">
        <ele>67.7</ele>
        <time>2017-04-29T04:46:06</time>
        <extensions><speed>1.33</speed></extensions>
      </trkpt>
      <trkpt lat="51.832405000" lon="7.603408000">
        <ele>67.6</ele>
        <time>2017-04-29T04:46:07</time>
        <extensions><speed>1.34</speed></extensions>
      </trkpt>
      <trkpt lat="51.832401000" lon="7.603425000">
        <ele>67.5</ele>
        <time>2017-04-29T04:46:08</time>
        <extensions><speed>1.33</speed></extensions>
      </trkpt>
      <trkpt lat="51.832397000" lon="7.603444000">
        <ele>67.5</ele>
        <time>2017-04-29T04:46:09</time>
        <extensions><speed>1.34</speed></extensions>
      </trkpt>
      <trkpt lat="51.832390000" lon="7.603460000">
        <ele>67.4</ele>
        <time>2017-04-29T04:46:10</time>
        <extensions><speed>1.32</speed></extensions>
      </trkpt>
      <trkpt lat="51.832386000" lon="7.603477000">
        <ele>67.3</ele>
        <time>2017-04-29T04:46:11</time>
        <extensions><speed>1.33</speed></extensions>
      </trkpt>
      <trkpt lat="51.832382000" lon="7.603495000">
        <ele>67.2</ele>
        <time>2017-04-29T04:46:12</time>
        <extensions><speed>1.27</speed></extensions>
      </trkpt>
      <trkpt lat="51.832378000" lon="7.603510000">
        <ele>67.2</ele>
        <time>2017-04-29T04:46:13</time>
        <extensions><speed>1.31</speed></extensions>
      </trkpt>
      <trkpt lat="51.832375000" lon="7.603529000">
        <ele>67.1</ele>
        <time>2017-04-29T04:46:14</time>
        <extensions><speed>1.32</speed></extensions>
      </trkpt>
      <trkpt lat="51.832367000" lon="7.603545000">
        <ele>67.0</ele>
        <time>2017-04-29T04:46:15</time>
        <extensions><speed>1.39</speed></extensions>
      </trkpt>
      <trkpt lat="51.832359000" lon="7.603560000">
        <ele>66.9</ele>
        <time>2017-04-29T04:46:16</time>
        <extensions><speed>1.31</speed></extensions>
      </trkpt>
      <trkpt lat="51.832352000" lon="7.603575000">
        <ele>66.9</ele>
        <time>2017-04-29T04:46:17</time>
        <extensions><speed>1.35</speed></extensions>
      </trkpt>
      <trkpt lat="51.832344000" lon="7.603590000">
        <ele>66.8</ele>
        <time>2017-04-29T04:46:18</time>
        <extensions><speed>1.25</speed></extensions>
      </trkpt>
      <trkpt lat="51.832340000" lon="7.603607000">
        <ele>66.7</ele>
        <time>2017-04-29T04:46:19</time>
        <extensions><speed>1.24</speed></extensions>
      </trkpt>
      <trkpt lat="51.832333000" lon="7.603627000">
        <ele>66.7</ele>
        <time>2017-04-29T04:46:20</time>
        <extensions><speed>1.24</speed></extensions>
      </trkpt>
      <trkpt lat="51.832329000" lon="7.603645000">
        <ele>66.6</ele>
        <time>2017-04-29T04:46:21</time>
        <extensions><speed>1.26</speed></extensions>
      </trkpt>
      <trkpt lat="51.832321000" lon="7.603662000">
        <ele>66.5</ele>
        <time>2017-04-29T04:46:22</time>
        <extensions><speed>1.29</speed></extensions>
      </trkpt>
      <trkpt lat="51.832314000" lon="7.603670000">
        <ele>66.4</ele>
        <time>2017-04-29T04:46:23</time>
      </trkpt>
      <trkpt lat="51.832306000" lon="7.603688000">
        <ele>66.3</ele>
        <time>2017-04-29T04:46:25</time>
        <extensions><speed>1.31</speed></extensions>
      </trkpt>
      <trkpt lat="51.832302000" lon="7.603706000">
        <ele>66.2</ele>
        <time>2017-04-29T04:46:26</time>
        <extensions><speed>1.31</speed></extensions>
      </trkpt>
      <trkpt lat="51.832298000" lon="7.603724000">
        <ele>66.2</ele>
        <time>2017-04-29T04:46:27</time>
        <extensions><speed>1.23</speed></extensions>
      </trkpt>
      <trkpt lat="51.832294000" lon="7.603741000">
        <ele>66.1</ele>
        <time>2017-04-29T04:46:28</time>
        <extensions><speed>1.25</speed></extensions>
      </trkpt>
      <trkpt lat="51.832287000" lon="7.603764000">
        <ele>66.1</ele>
        <time>2017-04-29T04:46:29</time>
        <extensions><speed>1.20</speed></extensions>
      </trkpt>
      <trkpt lat="51.832279000" lon="7.603782000">
        <ele>66.0</ele>
        <time>2017-04-29T04:46:30</time>
        <extensions><speed>1.19</speed></extensions>
      </trkpt>
      <trkpt lat="51.832275000" lon="7.603798000">
        <ele>66.0</ele>
        <time>2017-04-29T04:46:31</time>
        <extensions><speed>1.22</speed></extensions>
      </trkpt>
      <trkpt lat="51.832268000" lon="7.603817000">
        <ele>65.9</ele>
        <time>2017-04-29T04:46:32</time>
        <extensions><speed>1.30</speed></extensions>
      </trkpt>
      <trkpt lat="51.832260000" lon="7.603835000">
        <ele>65.8</ele>
        <time>2017-04-29T04:46:33</time>
        <extensions><speed>1.30</speed></extensions>
      </trkpt>
      <trkpt lat="51.832256000" lon="7.603855000">
        <ele>65.8</ele>
        <time>2017-04-29T04:46:34</time>
        <extensions><speed>1.32</speed></extensions>
      </trkpt>
      <trkpt lat="51.832253000" lon="7.603876000">
        <ele>65.7</ele>
        <time>2017-04-29T04:46:35</time>
        <extensions><speed>1.33</speed></extensions>
      </trkpt>
      <trkpt lat="51.832253000" lon="7.603897000">
        <ele>65.6</ele>
        <time>2017-04-29T04:46:36</time>
        <extensions><speed>1.29</speed></extensions>
      </trkpt>
      <trkpt lat="51.832249000" lon="7.603915000">
        <ele>65.6</ele>
        <time>2017-04-29T04:46:37</time>
        <extensions><speed>1.26</speed></extensions>
      </trkpt>
      <trkpt lat="51.832245000" lon="7.603932000">
        <ele>65.5</ele>
        <time>2017-04-29T04:46:38</time>
        <extensions><speed>1.24</speed></extensions>
      </trkpt>
      <trkpt lat="51.832241000" lon="7.603948000">
        <ele>65.4</ele>
        <time>2017-04-29T04:46:39</time>
        <extensions><speed>1.18</speed></extensions>
      </trkpt>
      <trkpt lat="51.832241000" lon="7.603967000">
        <ele>65.3</ele>
        <time>2017-04-29T04:46:40</time>
        <extensions><speed>1.11</speed></extensions>
      </trkpt>
      <trkpt lat="51.832241000" lon="7.603981000">
        <ele>65.3</ele>
        <time>2017-04-29T04:46:41</time>
        <extensions><speed>1.04</speed></extensions>
      </trkpt>
      <trkpt lat="51.832340000" lon="7.604065000">
        <ele>64.9</ele>
        <time>2017-04-29T04:48:26</time>
      </trkpt>
      <trkpt lat="51.832352000" lon="7.604077000">
        <ele>64.9</ele>
        <time>2017-04-29T04:48:28</time>
        <extensions><speed>1.24</speed></extensions>
      </trkpt>
      <trkpt lat="51.832359000" lon="7.604088000">
        <ele>64.9</ele>
        <time>2017-04-29T04:48:29</time>
        <extensions><speed>1.23</speed></extensions>
      </trkpt>
      <trkpt lat="51.832371000" lon="7.604096000">
        <ele>64.9</ele>
        <time>2017-04-29T04:48:30</time>
        <extensions><speed>1.24</speed></extensions>
      </trkpt>
      <trkpt lat="51.832378000" lon="7.604104000">
        <ele>64.9</ele>
        <time>2017-04-29T04:48:31</time>
        <extensions><speed>1.29</speed></extensions>
      </trkpt>
      <trkpt lat="51.832390000" lon="7.604114000">
        <ele>64.9</ele>
        <time>2017-04-29T04:48:32</time>
        <extensions><speed>1.31</speed></extensions>
      </trkpt>
      <trkpt lat="51.832401000" lon="7.604125000">
        <ele>64.9</ele>
        <time>2017-04-29T04:48:33</time>
        <extensions><speed>1.29</speed></extensions>
      </trkpt>
      <trkpt lat="51.832409000" lon="7.604140000">
        <ele>64.8</ele>
        <time>2017-04-29T04:48:34</time>
        <extensions><speed>1.34</speed></extensions>
      </trkpt>
      <trkpt lat="51.832424000" lon="7.604150000">
        <ele>64.8</ele>
        <time>2017-04-29T04:48:35</time>
        <extensions><speed>1.37</speed></extensions>
      </trkpt>
      <trkpt lat="51.832436000" lon="7.604158000">
        <ele>64.8</ele>
        <time>2017-04-29T04:48:36</time>
        <extensions><speed>1.38</speed></extensions>
      </trkpt>
      <trkpt lat="51.832447000" lon="7.604168000">
        <ele>64.8</ele>
        <time>2017-04-29T04:48:37</time>
        <extensions><speed>1.42</speed></extensions>
      </trkpt>
      <trkpt lat="51.832458000" lon="7.604178000">
        <ele>64.8</ele>
        <time>2017-04-29T04:48:38</time>
        <extensions><speed>1.46</speed></extensions>
      </trkpt>
      <trkpt lat="51.832470000" lon="7.604188000">
        <ele>64.8</ele>
        <time>2017-04-29T04:48:39</time>
        <extensions><speed>1.48</speed></extensions>
      </trkpt>
      <trkpt lat="51.832474000" lon="7.604200000">
        <ele>64.8</ele>
        <time>2017-04-29T04:48:40</time>
        <extensions><speed>1.44</speed></extensions>
      </trkpt>
      <trkpt lat="51.832485000" lon="7.604212000">
        <ele>64.7</ele>
        <time>2017-04-29T04:48:41</time>
        <extensions><speed>1.42</speed></extensions>
      </trkpt>
      <trkpt lat="51.832500000" lon="7.604223000">
        <ele>64.7</ele>
        <time>2017-04-29T04:48:42</time>
        <extensions><speed>1.45</speed></extensions>
      </trkpt>
      <trkpt lat="51.832508000" lon="7.604233000">
        <ele>64.7</ele>
        <time>2017-04-29T04:48:43</time>
        <extensions><speed>1.43</speed></extensions>
      </trkpt>
      <trkpt lat="51.832523000" lon="7.604239000">
        <ele>64.7</ele>
        <time>2017-04-29T04:48:44</time>
        <extensions><speed>1.43</speed></extensions>
      </trkpt>
      <trkpt lat="51.832535000" lon="7.604245000">
        <ele>64.7</ele>
        <time>2017-04-29T04:48:45</time>
        <extensions><speed>1.44</speed></extensions>
      </trkpt>
      <trkpt lat="51.832542000" lon="7.604254000">
        <ele>64.7</ele>
        <time>2017-04-29T04:48:46</time>
        <extensions><speed>1.44</speed></extensions>
      </trkpt>
      <trkpt lat="51.832554000" lon="7.604263000">
        <ele>64.7</ele>
        <time>2017-04-29T04:48:47</time>
        <extensions><speed>1.41</speed></extensions>
      </trkpt>
      <trkpt lat="51.832565000" lon="7.604271000">
        <ele>64.7</ele>
        <time>2017-04-29T04:48:48</time>
        <extensions><speed>1.38</speed></extensions>
      </trkpt>
      <trkpt lat="51.832573000" lon="7.604282000">
        <ele>64.6</ele>
        <time>2017-04-29T04:48:49</time>
        <extensions><speed>1.37</speed></extensions>
      </trkpt>
      <trkpt lat="51.832584000" lon="7.604293000">
        <ele>64.6</ele>
        <time>2017-04-29T04:48:50</time>
        <extensions><speed>1.36</speed></extensions>
      </trkpt>
      <trkpt lat="51.832596000" lon="7.604305000">
        <ele>64.6</ele>
        <time>2017-04-29T04:48:51</time>
        <extensions><speed>1.35</speed></extensions>
      </trkpt>
      <trkpt lat="51.832603000" lon="7.604313000">
        <ele>64.6</ele>
        <time>2017-04-29T04:48:52</time>
        <extensions><speed>1.35</speed></extensions>
      </trkpt>
      <trkpt lat="51.832611000" lon="7.604325000">
        <ele>64.6</ele>
        <time>2017-04-29T04:48:53</time>
        <extensions><speed>1.35</speed></extensions>
      </trkpt>
      <trkpt lat="51.832623000" lon="7.604336000">
        <ele>64.6</ele>
        <time>2017-04-29T04:48:54</time>
        <extensions><speed>1.34</speed></extensions>
      </trkpt>
      <trkpt lat="51.832634000" lon="7.604347000">
        <ele>64.6</ele>
        <time>2017-04-29T04:48:55</time>
        <extensions><speed>1.34</speed></extensions>
      </trkpt>
      <trkpt lat="51.832649000" lon="7.604357000">
        <ele>64.6</ele>
        <time>2017-04-29T04:48:56</time>
        <extensions><speed>1.38</speed></extensions>
      </trkpt>
      <trkpt lat="51.832657000" lon="7.604361000">
        <ele>64.5</ele>
        <time>2017-04-29T04:48:57</time>
      </trkpt>
      <trkpt lat="51.832664000" lon="7.604370000">
        <ele>64.5</ele>
        <time>2017-04-29T04:48:59</time>
        <extensions><speed>1.39</speed></extensions>
      </trkpt>
      <trkpt lat="51.832680000" lon="7.604377000">
        <ele>64.5</ele>
        <time>2017-04-29T04:49:00</time>
        <extensions><speed>1.39</speed></extensions>
      </trkpt>
      <trkpt lat="51.832691000" lon="7.604385000">
        <ele>64.5</ele>
        <time>2017-04-29T04:49:01</time>
        <extensions><speed>1.40</speed></extensions>
      </trkpt>
      <trkpt lat="51.832699000" lon="7.604395000">
        <ele>64.5</ele>
        <time>2017-04-29T04:49:02</time>
        <extensions><speed>1.46</speed></extensions>
      </trkpt>
      <trkpt lat="51.832714000" lon="7.604405000">
        <ele>64.5</ele>
        <time>2017-04-29T04:49:03</time>
        <extensions><speed>1.45</speed></extensions>
      </trkpt>
      <trkpt lat="51.832726000" lon="7.604415000">
        <ele>64.5</ele>
        <time>2017-04-29T04:49:04</time>
        <extensions><speed>1.45</speed></extensions>
      </trkpt>
      <trkpt lat="51.832737000" lon="7.604425000">
        <ele>64.5</ele>
        <time>2017-04-29T04:49:05</time>
        <extensions><speed>1.45</speed></extensions>
      </trkpt>
      <trkpt lat="51.832748000" lon="7.604434000">
        <ele>64.5</ele>
        <time>2017-04-29T04:49:06</time>
        <extensions><speed>1.41</speed></extensions>
      </trkpt>
      <trkpt lat="51.832756000" lon="7.604445000">
        <ele>64.4</ele>
        <time>2017-04-29T04:49:07</time>
        <extensions><speed>1.30</speed></extensions>
      </trkpt>
      <trkpt lat="51.832764000" lon="7.604457000">
        <ele>64.4</ele>
        <time>2017-04-29T04:49:08</time>
        <extensions><speed>1.28</speed></extensions>
      </trkpt>
      <trkpt lat="51.832775000" lon="7.604468000">
        <ele>64.4</ele>
        <time>2017-04-29T04:49:09</time>
        <extensions><speed>1.36</speed></extensions>
      </trkpt>
      <trkpt lat="51.832787000" lon="7.604482000">
        <ele>64.4</ele>
        <time>2017-04-29T04:49:10</time>
        <extensions><speed>1.28</speed></extensions>
      </trkpt>
      <trkpt lat="51.832798000" lon="7.604495000">
        <ele>64.4</ele>
        <time>2017-04-29T04:49:11</time>
        <extensions><speed>1.29</speed></extensions>
      </trkpt>
      <trkpt lat="51.832809000" lon="7.604503000">
        <ele>64.4</ele>
        <time>2017-04-29T04:49:12</time>
        <extensions><speed>1.31</speed></extensions>
      </trkpt>
      <trkpt lat="51.832817000" lon="7.604511000">
        <ele>64.4</ele>
        <time>2017-04-29T04:49:13</time>
        <extensions><speed>1.27</speed></extensions>
      </trkpt>
      <trkpt lat="51.832829000" lon="7.604522000">
        <ele>64.3</ele>
        <time>2017-04-29T04:49:14</time>
        <extensions><speed>1.27</speed></extensions>
      </trkpt>
      <trkpt lat="51.832836000" lon="7.604530000">
        <ele>64.3</ele>
        <time>2017-04-29T04:49:15</time>
        <extensions><speed>1.34</speed></extensions>
      </trkpt>
      <trkpt lat="51.832851000" lon="7.604541000">
        <ele>64.3</ele>
        <time>2017-04-29T04:49:16</time>
        <extensions><speed>1.36</speed></extensions>
      </trkpt>
      <trkpt lat="51.832863000" lon="7.604552000">
        <ele>64.3</ele>
        <time>2017-04-29T04:49:17</time>
        <extensions><speed>1.34</speed></extensions>
      </trkpt>
      <trkpt lat="51.832870000" lon="7.604552000">
        <ele>64.3</ele>
        <time>2017-04-29T04:49:18</time>
        <extensions><speed>1.44</speed></extensions>
      </trkpt>
      <trkpt lat="51.832890000" lon="7.604555000">
        <ele>64.2</ele>
        <time>2017-04-29T04:49:19</time>
        <extensions><speed>1.46</speed></extensions>
      </trkpt>
      <trkpt lat="51.832897000" lon="7.604565000">
        <ele>64.2</ele>
        <time>2017-04-29T04:49:20</time>
        <extensions><speed>1.39</speed></extensions>
      </trkpt>
      <trkpt lat="51.832912000" lon="7.604578000">
        <ele>64.2</ele>
        <time>2017-04-29T04:49:21</time>
        <extensions><speed>1.39</speed></extensions>
      </trkpt>
      <trkpt lat="51.832928000" lon="7.604590000">
        <ele>64.2</ele>
        <time>2017-04-29T04:49:22</time>
        <extensions><speed>1.44</speed></extensions>
      </trkpt>
      <trkpt lat="51.832932000" lon="7.604602000">
        <ele>64.2</ele>
        <time>2017-04-29T04:49:23</time>
        <extensions><speed>1.37</speed></extensions>
      </trkpt>
      <trkpt lat="51.832943000" lon="7.604617000">
        <ele>64.1</ele>
        <time>2017-04-29T04:49:24</time>
        <extensions><speed>1.33</speed></extensions>
      </trkpt>
      <trkpt lat="51.832951000" lon="7.604627000">
        <ele>64.1</ele>
        <time>2017-04-29T04:49:25</time>
        <extensions><speed>1.33</speed></extensions>
      </trkpt>
      <trkpt lat="51.832958000" lon="7.604637000">
        <ele>64.1</ele>
        <time>2017-04-29T04:49:26</time>
        <extensions><speed>1.33</speed></extensions>
      </trkpt>
      <trkpt lat="51.832973000" lon="7.604648000">
        <ele>64.0</ele>
        <time>2017-04-29T04:49:27</time>
        <extensions><speed>1.29</speed></extensions>
      </trkpt>
      <trkpt lat="51.832985000" lon="7.604657000">
        <ele>64.0</ele>
        <time>2017-04-29T04:49:28</time>
        <extensions><speed>1.34</speed></extensions>
      </trkpt>
      <trkpt lat="51.832996000" lon="7.604663000">
        <ele>64.0</ele>
        <time>2017-04-29T04:49:29</time>
        <extensions><speed>1.38</speed></extensions>
      </trkpt>
      <trkpt lat="51.833012000" lon="7.604669000">
        <ele>63.9</ele>
        <time>2017-04-29T04:49:30</time>
        <extensions><speed>1.39</speed></extensions>
      </trkpt>
      <trkpt lat="51.833023000" lon="7.604675000">
        <ele>63.9</ele>
        <time>2017-04-29T04:49:31</time>
        <extensions><speed>1.36</speed></extensions>
      </trkpt>
      <trkpt lat="51.833031000" lon="7.604683000">
        <ele>63.8</ele>
        <time>2017-04-29T04:49:32</time>
        <extensions><speed>1.41</speed></extensions>
      </trkpt>
      <trkpt lat="51.833046000" lon="7.604690000">
        <ele>63.8</ele>
        <time>2017-04-29T04:49:33</time>
        <extensions><speed>1.39</speed></extensions>
      </trkpt>
      <trkpt lat="51.833057000" lon="7.604700000">
        <ele>63.8</ele>
        <time>2017-04-29T04:49:34</time>
        <extensions><speed>1.34</speed></extensions>
      </trkpt>
      <trkpt lat="51.833065000" lon="7.604711000">
        <ele>63.7</ele>
        <time>2017-04-29T04:49:35</time>
        <extensions><speed>1.37</speed></extensions>
      </trkpt>
      <trkpt lat="51.833080000" lon="7.604720000">
        <ele>63.7</ele>
        <time>2017-04-29T04:49:36</time>
        <extensions><speed>1.34</speed></extensions>
      </trkpt>
      <trkpt lat="51.833092000" lon="7.604730000">
        <ele>63.7</ele>
        <time>2017-04-29T04:49:37</time>
        <extensions><speed>1.33</speed></extensions>
      </trkpt>
      <trkpt lat="51.833099000" lon="7.604739000">
        <ele>63.7</ele>
        <time>2017-04-29T04:49:38</time>
        <extensions><speed>1.34</speed></extensions>
      </trkpt>
      <trkpt lat="51.833115000" lon="7.604746000">
        <ele>63.6</ele>
        <time>2017-04-29T04:49:39</time>
        <extensions><speed>1.37</speed></extensions>
      </trkpt>
      <trkpt lat="51.833122000" lon="7.604753000">
        <ele>63.6</ele>
        <time>2017-04-29T04:49:40</time>
        <extensions><speed>1.36</speed></extensions>
      </trkpt>
      <trkpt lat="51.833138000" lon="7.604760000">
        <ele>63.6</ele>
        <time>2017-04-29T04:49:41</time>
        <extensions><speed>1.37</speed></extensions>
      </trkpt>
      <trkpt lat="51.833157000" lon="7.604767000">
        <ele>63.5</ele>
        <time>2017-04-29T04:49:42</time>
        <extensions><speed>1.38</speed></extensions>
      </trkpt>
      <trkpt lat="51.833164000" lon="7.604775000">
        <ele>63.5</ele>
        <time>2017-04-29T04:49:43</time>
        <extensions><speed>1.39</speed></extensions>
      </trkpt>
      <trkpt lat="51.833179000" lon="7.604781000">
        <ele>63.5</ele>
        <time>2017-04-29T04:49:44</time>
        <extensions><speed>1.39</speed></extensions>
      </trkpt>
      <trkpt lat="51.833187000" lon="7.604790000">
        <ele>63.4</ele>
        <time>2017-04-29T04:49:45</time>
        <extensions><speed>1.38</speed></extensions>
      </trkpt>
      <trkpt lat="51.833199000" lon="7.604798000">
        <ele>63.4</ele>
        <time>2017-04-29T04:49:46</time>
        <extensions><speed>1.33</speed></extensions>
      </trkpt>
      <trkpt lat="51.833206000" lon="7.604810000">
        <ele>63.4</ele>
        <time>2017-04-29T04:49:47</time>
        <extensions><speed>1.30</speed></extensions>
      </trkpt>
      <trkpt lat="51.833221000" lon="7.604820000">
        <ele>63.4</ele>
        <time>2017-04-29T04:49:48</time>
        <extensions><speed>1.30</speed></extensions>
      </trkpt>
      <trkpt lat="51.833233000" lon="7.604826000">
        <ele>63.4</ele>
        <time>2017-04-29T04:49:49</time>
        <extensions><speed>1.31</speed></extensions>
      </trkpt>
      <trkpt lat="51.833244000" lon="7.604834000">
        <ele>63.4</ele>
        <time>2017-04-29T04:49:50</time>
        <extensions><speed>1.34</speed></extensions>
      </trkpt>
      <trkpt lat="51.833252000" lon="7.604842000">
        <ele>63.3</ele>
        <time>2017-04-29T04:49:51</time>
        <extensions><speed>1.35</speed></extensions>
      </trkpt>
      <trkpt lat="51.833263000" lon="7.604853000">
        <ele>63.3</ele>
        <time>2017-04-29T04:49:52</time>
        <extensions><speed>1.34</speed></extensions>
      </trkpt>
      <trkpt lat="51.833275000" lon="7.604862000">
        <ele>63.3</ele>
        <time>2017-04-29T04:49:53</time>
        <extensions><speed>1.34</speed></extensions>
      </trkpt>
      <trkpt lat="51.833286000" lon="7.604870000">
        <ele>63.2</ele>
        <time>2017-04-29T04:49:54</time>
        <extensions><speed>1.36</speed></extensions>
      </trkpt>
      <trkpt lat="51.833298000" lon="7.604877000">
        <ele>63.2</ele>
        <time>2017-04-29T04:49:55</time>
        <extensions><speed>1.37</speed></extensions>
      </trkpt>
      <trkpt lat="51.833309000" lon="7.604888000">
        <ele>63.2</ele>
        <time>2017-04-29T04:49:56</time>
        <extensions><speed>1.37</speed></extensions>
      </trkpt>
      <trkpt lat="51.833317000" lon="7.604897000">
        <ele>63.2</ele>
        <time>2017-04-29T04:49:57</time>
        <extensions><speed>1.37</speed></extensions>
      </trkpt>
      <trkpt lat="51.833332000" lon="7.604903000">
        <ele>63.1</ele>
        <time>2017-04-29T04:49:58</time>
        <extensions><speed>1.36</speed></extensions>
      </trkpt>
      <trkpt lat="51.833344000" lon="7.604908000">
        <ele>63.1</ele>
        <time>2017-04-29T04:49:59</time>
        <extensions><speed>1.33</speed></extensions>
      </trkpt>
      <trkpt lat="51.833351000" lon="7.604915000">
        <ele>63.1</ele>
        <time>2017-04-29T04:50:00</time>
        <extensions><speed>1.33</speed></extensions>
      </trkpt>
      <trkpt lat="51.833366000" lon="7.604919000">
        <ele>63.1</ele>
        <time>2017-04-29T04:50:01</time>
        <extensions><speed>1.35</speed></extensions>
      </trkpt>
      <trkpt lat="51.833382000" lon="7.604925000">
        <ele>63.0</ele>
        <time>2017-04-29T04:50:02</time>
        <extensions><speed>1.38</speed></extensions>
      </trkpt>
      <trkpt lat="51.833393000" lon="7.604928000">
        <ele>63.0</ele>
        <time>2017-04-29T04:50:03</time>
        <extensions><speed>1.41</speed></extensions>
      </trkpt>
      <trkpt lat="51.833408000" lon="7.604935000">
        <ele>63.0</ele>
        <time>2017-04-29T04:50:04</time>
        <extensions><speed>1.50</speed></extensions>
      </trkpt>
      <trkpt lat="51.833416000" lon="7.604947000">
        <ele>63.0</ele>
        <time>2017-04-29T04:50:05</time>
        <extensions><speed>1.52</speed></extensions>
      </trkpt>
      <trkpt lat="51.833427000" lon="7.604958000">
        <ele>63.0</ele>
        <time>2017-04-29T04:50:06</time>
        <extensions><speed>1.50</speed></extensions>
      </trkpt>
      <trkpt lat="51.833439000" lon="7.604965000">
        <ele>63.0</ele>
        <time>2017-04-29T04:50:07</time>
        <extensions><speed>1.40</speed></extensions>
      </trkpt>
      <trkpt lat="51.833447000" lon="7.604973000">
        <ele>63.0</ele>
        <time>2017-04-29T04:50:08</time>
        <extensions><speed>1.36</speed></extensions>
      </trkpt>
      <trkpt lat="51.833450000" lon="7.604980000">
        <ele>63.0</ele>
        <time>2017-04-29T04:50:09</time>
        <extensions><speed>1.25</speed></extensions>
      </trkpt>
      <trkpt lat="51.833462000" lon="7.604984000">
        <ele>62.9</ele>
        <time>2017-04-29T04:50:10</time>
        <extensions><speed>1.25</speed></extensions>
      </trkpt>
      <trkpt lat="51.833473000" lon="7.604991000">
        <ele>62.9</ele>
        <time>2017-04-29T04:50:11</time>
        <extensions><speed>1.21</speed></extensions>
      </trkpt>
      <trkpt lat="51.833481000" lon="7.605003000">
        <ele>62.9</ele>
        <time>2017-04-29T04:50:12</time>
        <extensions><speed>1.26</speed></extensions>
      </trkpt>
      <trkpt lat="51.833496000" lon="7.605012000">
        <ele>62.9</ele>
        <time>2017-04-29T04:50:13</time>
        <extensions><speed>1.34</speed></extensions>
      </trkpt>
      <trkpt lat="51.833508000" lon="7.605015000">
        <ele>62.9</ele>
        <time>2017-04-29T04:50:14</time>
        <extensions><speed>1.34</speed></extensions>
      </trkpt>
      <trkpt lat="51.833515000" lon="7.605025000">
        <ele>62.9</ele>
        <time>2017-04-29T04:50:15</time>
        <extensions><speed>1.28</speed></extensions>
      </trkpt>
      <trkpt lat="51.833527000" lon="7.605030000">
        <ele>62.9</ele>
        <time>2017-04-29T04:50:16</time>
        <extensions><speed>1.39</speed></extensions>
      </trkpt>
      <trkpt lat="51.833538000" lon="7.605038000">
        <ele>62.9</ele>
        <time>2017-04-29T04:50:17</time>
        <extensions><speed>1.34</speed></extensions>
      </trkpt>
      <trkpt lat="51.833549000" lon="7.605045000">
        <ele>62.9</ele>
        <time>2017-04-29T04:50:18</time>
        <extensions><speed>1.35</speed></extensions>
      </trkpt>
      <trkpt lat="51.833557000" lon="7.605053000">
        <ele>62.9</ele>
        <time>2017-04-29T04:50:19</time>
      </trkpt>
      <trkpt lat="51.833569000" lon="7.605065000">
        <ele>62.9</ele>
        <time>2017-04-29T04:50:21</time>
        <extensions><speed>1.38</speed></extensions>
      </trkpt>
      <trkpt lat="51.833576000" lon="7.605078000">
        <ele>62.9</ele>
        <time>2017-04-29T04:50:22</time>
        <extensions><speed>1.36</speed></extensions>
      </trkpt>
      <trkpt lat="51.833584000" lon="7.605089000">
        <ele>62.9</ele>
        <time>2017-04-29T04:50:23</time>
        <extensions><speed>1.28</speed></extensions>
      </trkpt>
      <trkpt lat="51.833595000" lon="7.605093000">
        <ele>63.0</ele>
        <time>2017-04-29T04:50:24</time>
        <extensions><speed>1.28</speed></extensions>
      </trkpt>
      <trkpt lat="51.833607000" lon="7.605103000">
        <ele>63.0</ele>
        <time>2017-04-29T04:50:25</time>
        <extensions><speed>1.28</speed></extensions>
      </trkpt>
      <trkpt lat="51.833618000" lon="7.605115000">
        <ele>63.0</ele>
        <time>2017-04-29T04:50:26</time>
        <extensions><speed>1.29</speed></extensions>
      </trkpt>
      <trkpt lat="51.833630000" lon="7.605128000">
        <ele>63.0</ele>
        <time>2017-04-29T04:50:27</time>
        <extensions><speed>1.29</speed></extensions>
      </trkpt>
      <trkpt lat="51.833641000" lon="7.605140000">
        <ele>63.1</ele>
        <time>2017-04-29T04:50:28</time>
        <extensions><speed>1.37</speed></extensions>
      </trkpt>
      <trkpt lat="51.833652000" lon="7.605155000">
        <ele>63.1</ele>
        <time>2017-04-29T04:50:29</time>
        <extensions><speed>1.44</speed></extensions>
      </trkpt>
      <trkpt lat="51.833664000" lon="7.605168000">
        <ele>63.1</ele>
        <time>2017-04-29T04:50:30</time>
        <extensions><speed>1.42</speed></extensions>
      </trkpt>
      <trkpt lat="51.833675000" lon="7.605180000">
        <ele>63.1</ele>
        <time>2017-04-29T04:50:31</time>
        <extensions><speed>1.41</speed></extensions>
      </trkpt>
      <trkpt lat="51.833683000" lon="7.605192000">
        <ele>63.2</ele>
        <time>2017-04-29T04:50:32</time>
        <extensions><speed>1.39</speed></extensions>
      </trkpt>
      <trkpt lat="51.833691000" lon="7.605198000">
        <ele>63.2</ele>
        <time>2017-04-29T04:50:33</time>
        <extensions><speed>1.33</speed></extensions>
      </trkpt>
      <trkpt lat="51.833706000" lon="7.605210000">
        <ele>63.2</ele>
        <time>2017-04-29T04:50:34</time>
        <extensions><speed>1.29</speed></extensions>
      </trkpt>
      <trkpt lat="51.833714000" lon="7.605220000">
        <ele>63.3</ele>
        <time>2017-04-29T04:50:35</time>
        <extensions><speed>1.22</speed></extensions>
      </trkpt>
      <trkpt lat="51.833725000" lon="7.605232000">
        <ele>63.3</ele>
        <time>2017-04-29T04:50:36</time>
        <extensions><speed>1.25</speed></extensions>
      </trkpt>
      <trkpt lat="51.833733000" lon="7.605243000">
        <ele>63.3</ele>
        <time>2017-04-29T04:50:37</time>
        <extensions><speed>1.32</speed></extensions>
      </trkpt>
      <trkpt lat="51.833740000" lon="7.605255000">
        <ele>63.3</ele>
        <time>2017-04-29T04:50:38</time>
        <extensions><speed>1.32</speed></extensions>
      </trkpt>
      <trkpt lat="51.833748000" lon="7.605268000">
        <ele>63.4</ele>
        <time>2017-04-29T04:50:39</time>
        <extensions><speed>1.34</speed></extensions>
      </trkpt>
      <trkpt lat="51.833759000" lon="7.605283000">
        <ele>63.4</ele>
        <time>2017-04-29T04:50:40</time>
        <extensions><speed>1.34</speed></extensions>
      </trkpt>
      <trkpt lat="51.833767000" lon="7.605300000">
        <ele>63.4</ele>
        <time>2017-04-29T04:50:41</time>
        <extensions><speed>1.33</speed></extensions>
      </trkpt>
      <trkpt lat="51.833775000" lon="7.605319000">
        <ele>63.5</ele>
        <time>2017-04-29T04:50:42</time>
        <extensions><speed>1.33</speed></extensions>
      </trkpt>
      <trkpt lat="51.833778000" lon="7.605336000">
        <ele>63.5</ele>
        <time>2017-04-29T04:50:43</time>
        <extensions><speed>1.39</speed></extensions>
      </trkpt>
      <trkpt lat="51.833786000" lon="7.605351000">
        <ele>63.5</ele>
        <time>2017-04-29T04:50:44</time>
        <extensions><speed>1.33</speed></extensions>
      </trkpt>
      <trkpt lat="51.833794000" lon="7.605360000">
        <ele>63.5</ele>
        <time>2017-04-29T04:50:45</time>
        <extensions><speed>1.37</speed></extensions>
      </trkpt>
      <trkpt lat="51.833801000" lon="7.605373000">
        <ele>63.6</ele>
        <time>2017-04-29T04:50:46</time>
        <extensions><speed>1.31</speed></extensions>
      </trkpt>
      <trkpt lat="51.833809000" lon="7.605387000">
        <ele>63.6</ele>
        <time>2017-04-29T04:50:47</time>
        <extensions><speed>1.28</speed></extensions>
      </trkpt>
      <trkpt lat="51.833820000" lon="7.605404000">
        <ele>63.6</ele>
        <time>2017-04-29T04:50:48</time>
        <extensions><speed>1.27</speed></extensions>
      </trkpt>
      <trkpt lat="51.833828000" lon="7.605418000">
        <ele>63.6</ele>
        <time>2017-04-29T04:50:49</time>
        <extensions><speed>1.30</speed></extensions>
      </trkpt>
      <trkpt lat="51.833836000" lon="7.605432000">
        <ele>63.6</ele>
        <time>2017-04-29T04:50:50</time>
        <extensions><speed>1.30</speed></extensions>
      </trkpt>
      <trkpt lat="51.833843000" lon="7.605446000">
        <ele>63.7</ele>
        <time>2017-04-29T04:50:51</time>
        <extensions><speed>1.33</speed></extensions>
      </trkpt>
      <trkpt lat="51.833851000" lon="7.605467000">
        <ele>63.7</ele>
        <time>2017-04-29T04:50:52</time>
        <extensions><speed>1.39</speed></extensions>
      </trkpt>
      <trkpt lat="51.833855000" lon="7.605480000">
        <ele>63.7</ele>
        <time>2017-04-29T04:50:53</time>
        <extensions><speed>1.38</speed></extensions>
      </trkpt>
      <trkpt lat="51.833862000" lon="7.605485000">
        <ele>63.8</ele>
        <time>2017-04-29T04:50:54</time>
        <extensions><speed>1.34</speed></extensions>
      </trkpt>
      <trkpt lat="51.833866000" lon="7.605494000">
        <ele>63.8</ele>
        <time>2017-04-29T04:50:55</time>
        <extensions><speed>1.27</speed></extensions>
      </trkpt>
      <trkpt lat="51.833874000" lon="7.605502000">
        <ele>63.9</ele>
        <time>2017-04-29T04:50:56</time>
        <extensions><speed>1.06</speed></extensions>
      </trkpt>
      <trkpt lat="51.833874000" lon="7.605515000">
        <ele>63.9</ele>
        <time>2017-04-29T04:50:57</time>
        <extensions><speed>1.06</speed></extensions>
      </trkpt>
      <trkpt lat="51.833881000" lon="7.605526000">
        <ele>63.9</ele>
        <time>2017-04-29T04:50:58</time>
        <extensions><speed>1.06</speed></extensions>
      </trkpt>
      <trkpt lat="51.833889000" lon="7.605542000">
        <ele>64.0</ele>
        <time>2017-04-29T04:50:59</time>
        <extensions><speed>1.20</speed></extensions>
      </trkpt>
      <trkpt lat="51.833904000" lon="7.605560000">
        <ele>64.0</ele>
        <time>2017-04-29T04:51:00</time>
        <extensions><speed>1.27</speed></extensions>
      </trkpt>
      <trkpt lat="51.833908000" lon="7.605577000">
        <ele>64.0</ele>
        <time>2017-04-29T04:51:01</time>
        <extensions><speed>1.29</speed></extensions>
      </trkpt>
      <trkpt lat="51.833916000" lon="7.605590000">
        <ele>64.1</ele>
        <time>2017-04-29T04:51:02</time>
        <extensions><speed>1.31</speed></extensions>
      </trkpt>
      <trkpt lat="51.833927000" lon="7.605607000">
        <ele>64.1</ele>
        <time>2017-04-29T04:51:03</time>
        <extensions><speed>1.34</speed></extensions>
      </trkpt>
      <trkpt lat="51.833935000" lon="7.605623000">
        <ele>64.1</ele>
        <time>2017-04-29T04:51:04</time>
        <extensions><speed>1.31</speed></extensions>
      </trkpt>
      <trkpt lat="51.833939000" lon="7.605637000">
        <ele>64.2</ele>
        <time>2017-04-29T04:51:05</time>
        <extensions><speed>1.26</speed></extensions>
      </trkpt>
      <trkpt lat="51.833939000" lon="7.605649000">
        <ele>64.2</ele>
        <time>2017-04-29T04:51:06</time>
        <extensions><speed>1.26</speed></extensions>
      </trkpt>
      <trkpt lat="51.833946000" lon="7.605660000">
        <ele>64.3</ele>
        <time>2017-04-29T04:51:07</time>
        <extensions><speed>1.21</speed></extensions>
      </trkpt>
      <trkpt lat="51.833958000" lon="7.605670000">
        <ele>64.3</ele>
        <time>2017-04-29T04:51:08</time>
        <extensions><speed>1.18</speed></extensions>
      </trkpt>
      <trkpt lat="51.833965000" lon="7.605686000">
        <ele>64.3</ele>
        <time>2017-04-29T04:51:09</time>
        <extensions><speed>1.20</speed></extensions>
      </trkpt>
      <trkpt lat="51.833973000" lon="7.605703000">
        <ele>64.4</ele>
        <time>2017-04-29T04:51:10</time>
        <extensions><speed>1.25</speed></extensions>
      </trkpt>
      <trkpt lat="51.833981000" lon="7.605719000">
        <ele>64.4</ele>
        <time>2017-04-29T04:51:11</time>
        <extensions><speed>1.26</speed></extensions>
      </trkpt>
      <trkpt lat="51.833988000" lon="7.605735000">
        <ele>64.4</ele>
        <time>2017-04-29T04:51:12</time>
        <extensions><speed>1.32</speed></extensions>
      </trkpt>
      <trkpt lat="51.834000000" lon="7.605754000">
        <ele>64.5</ele>
        <time>2017-04-29T04:51:13</time>
        <extensions><speed>1.36</speed></extensions>
      </trkpt>
      <trkpt lat="51.834003000" lon="7.605775000">
        <ele>64.5</ele>
        <time>2017-04-29T04:51:14</time>
        <extensions><speed>1.34</speed></extensions>
      </trkpt>
      <trkpt lat="51.834015000" lon="7.605793000">
        <ele>64.6</ele>
        <time>2017-04-29T04:51:15</time>
        <extensions><speed>1.38</speed></extensions>
      </trkpt>
      <trkpt lat="51.834026000" lon="7.605808000">
        <ele>64.6</ele>
        <time>2017-04-29T04:51:16</time>
        <extensions><speed>1.40</speed></extensions>
      </trkpt>
      <trkpt lat="51.834034000" lon="7.605826000">
        <ele>64.7</ele>
        <time>2017-04-29T04:51:17</time>
        <extensions><speed>1.40</speed></extensions>
      </trkpt>
      <trkpt lat="51.834042000" lon="7.605844000">
        <ele>64.7</ele>
        <time>2017-04-29T04:51:18</time>
        <extensions><speed>1.37</speed></extensions>
      </trkpt>
      <trkpt lat="51.834053000" lon="7.605861000">
        <ele>64.8</ele>
        <time>2017-04-29T04:51:19</time>
        <extensions><speed>1.40</speed></extensions>
      </trkpt>
      <trkpt lat="51.834064000" lon="7.605885000">
        <ele>64.8</ele>
        <time>2017-04-29T04:51:20</time>
        <extensions><speed>1.40</speed></extensions>
      </trkpt>
      <trkpt lat="51.834068000" lon="7.605908000">
        <ele>64.9</ele>
        <time>2017-04-29T04:51:21</time>
        <extensions><speed>1.39</speed></extensions>
      </trkpt>
      <trkpt lat="51.834076000" lon="7.605927000">
        <ele>64.9</ele>
        <time>2017-04-29T04:51:22</time>
        <extensions><speed>1.39</speed></extensions>
      </trkpt>
      <trkpt lat="51.834084000" lon="7.605943000">
        <ele>65.0</ele>
        <time>2017-04-29T04:51:23</time>
        <extensions><speed>1.39</speed></extensions>
      </trkpt>
      <trkpt lat="51.834091000" lon="7.605965000">
        <ele>65.1</ele>
        <time>2017-04-29T04:51:24</time>
        <extensions><speed>1.38</speed></extensions>
      </trkpt>
      <trkpt lat="51.834099000" lon="7.605985000">
        <ele>65.1</ele>
        <time>2017-04-29T04:51:25</time>
        <extensions><speed>1.36</speed></extensions>
      </trkpt>
      <trkpt lat="51.834103000" lon="7.606003000">
        <ele>65.2</ele>
        <time>2017-04-29T04:51:26</time>
        <extensions><speed>1.36</speed></extensions>
      </trkpt>
      <trkpt lat="51.834106000" lon="7.606017000">
        <ele>65.3</ele>
        <time>2017-04-29T04:51:27</time>
      </trkpt>
      <trkpt lat="51.834114000" lon="7.606036000">
        <ele>65.3</ele>
        <time>2017-04-29T04:51:29</time>
        <extensions><speed>1.19</speed></extensions>
      </trkpt>
      <trkpt lat="51.834122000" lon="7.606055000">
        <ele>65.3</ele>
        <time>2017-04-29T04:51:30</time>
        <extensions><speed>1.19</speed></extensions>
      </trkpt>
      <trkpt lat="51.834133000" lon="7.606070000">
        <ele>65.4</ele>
        <time>2017-04-29T04:51:31</time>
        <extensions><speed>1.22</speed></extensions>
      </trkpt>
      <trkpt lat="51.834137000" lon="7.606089000">
        <ele>65.4</ele>
        <time>2017-04-29T04:51:32</time>
        <extensions><speed>1.32</speed></extensions>
      </trkpt>
      <trkpt lat="51.834145000" lon="7.606105000">
        <ele>65.5</ele>
        <time>2017-04-29T04:51:33</time>
        <extensions><speed>1.32</speed></extensions>
      </trkpt>
      <trkpt lat="51.834156000" lon="7.606125000">
        <ele>65.5</ele>
        <time>2017-04-29T04:51:34</time>
        <extensions><speed>1.40</speed></extensions>
      </trkpt>
      <trkpt lat="51.834164000" lon="7.606142000">
        <ele>65.5</ele>
        <time>2017-04-29T04:51:35</time>
        <extensions><speed>1.37</speed></extensions>
      </trkpt>
      <trkpt lat="51.834167000" lon="7.606158000">
        <ele>65.6</ele>
        <time>2017-04-29T04:51:36</time>
        <extensions><speed>1.39</speed></extensions>
      </trkpt>
      <trkpt lat="51.834175000" lon="7.606176000">
        <ele>65.7</ele>
        <time>2017-04-29T04:51:37</time>
        <extensions><speed>1.33</speed></extensions>
      </trkpt>
      <trkpt lat="51.834187000" lon="7.606190000">
        <ele>65.7</ele>
        <time>2017-04-29T04:51:38</time>
        <extensions><speed>1.39</speed></extensions>
      </trkpt>
      <trkpt lat="51.834198000" lon="7.606204000">
        <ele>65.8</ele>
        <time>2017-04-29T04:51:39</time>
        <extensions><speed>1.34</speed></extensions>
      </trkpt>
      <trkpt lat="51.834206000" lon="7.606220000">
        <ele>65.8</ele>
        <time>2017-04-29T04:51:40</time>
        <extensions><speed>1.28</speed></extensions>
      </trkpt>
      <trkpt lat="51.834209000" lon="7.606235000">
        <ele>65.9</ele>
        <time>2017-04-29T04:51:41</time>
        <extensions><speed>1.32</speed></extensions>
      </trkpt>
      <trkpt lat="51.834221000" lon="7.606253000">
        <ele>65.9</ele>
        <time>2017-04-29T04:51:42</time>
        <extensions><speed>1.40</speed></extensions>
      </trkpt>
      <trkpt lat="51.834229000" lon="7.606272000">
        <ele>66.0</ele>
        <time>2017-04-29T04:51:43</time>
        <extensions><speed>1.40</speed></extensions>
      </trkpt>
      <trkpt lat="51.834232000" lon="7.606288000">
        <ele>66.0</ele>
        <time>2017-04-29T04:51:44</time>
        <extensions><speed>1.38</speed></extensions>
      </trkpt>
      <trkpt lat="51.834240000" lon="7.606304000">
        <ele>66.1</ele>
        <time>2017-04-29T04:51:45</time>
        <extensions><speed>1.44</speed></extensions>
      </trkpt>
      <trkpt lat="51.834248000" lon="7.606320000">
        <ele>66.1</ele>
        <time>2017-04-29T04:51:46</time>
        <extensions><speed>1.42</speed></extensions>
      </trkpt>
      <trkpt lat="51.834259000" lon="7.606337000">
        <ele>66.2</ele>
        <time>2017-04-29T04:51:47</time>
        <extensions><speed>1.34</speed></extensions>
      </trkpt>
      <trkpt lat="51.834263000" lon="7.606353000">
        <ele>66.2</ele>
        <time>2017-04-29T04:51:48</time>
        <extensions><speed>1.32</speed></extensions>
      </trkpt>
      <trkpt lat="51.834267000" lon="7.606375000">
        <ele>66.2</ele>
        <time>2017-04-29T04:51:49</time>
        <extensions><speed>1.32</speed></extensions>
      </trkpt>
      <trkpt lat="51.834278000" lon="7.606391000">
        <ele>66.2</ele>
        <time>2017-04-29T04:51:50</time>
        <extensions><speed>1.25</speed></extensions>
      </trkpt>
      <trkpt lat="51.834286000" lon="7.606411000">
        <ele>66.3</ele>
        <time>2017-04-29T04:51:51</time>
        <extensions><speed>1.25</speed></extensions>
      </trkpt>
      <trkpt lat="51.834297000" lon="7.606430000">
        <ele>66.3</ele>
        <time>2017-04-29T04:51:52</time>
        <extensions><speed>1.28</speed></extensions>
      </trkpt>
      <trkpt lat="51.834301000" lon="7.606449000">
        <ele>66.4</ele>
        <time>2017-04-29T04:51:53</time>
        <extensions><speed>1.28</speed></extensions>
      </trkpt>
      <trkpt lat="51.834305000" lon="7.606467000">
        <ele>66.4</ele>
        <time>2017-04-29T04:51:54</time>
        <extensions><speed>1.34</speed></extensions>
      </trkpt>
      <trkpt lat="51.834312000" lon="7.606485000">
        <ele>66.5</ele>
        <time>2017-04-29T04:51:55</time>
        <extensions><speed>1.37</speed></extensions>
      </trkpt>
      <trkpt lat="51.834320000" lon="7.606505000">
        <ele>66.5</ele>
        <time>2017-04-29T04:51:56</time>
        <extensions><speed>1.37</speed></extensions>
      </trkpt>
      <trkpt lat="51.834328000" lon="7.606526000">
        <ele>66.6</ele>
        <time>2017-04-29T04:51:57</time>
        <extensions><speed>1.42</speed></extensions>
      </trkpt>
      <trkpt lat="51.834335000" lon="7.606545000">
        <ele>66.6</ele>
        <time>2017-04-29T04:51:58</time>
        <extensions><speed>1.46</speed></extensions>
      </trkpt>
      <trkpt lat="51.834343000" lon="7.606563000">
        <ele>66.7</ele>
        <time>2017-04-29T04:51:59</time>
        <extensions><speed>1.49</speed></extensions>
      </trkpt>
      <trkpt lat="51.834351000" lon="7.606580000">
        <ele>66.7</ele>
        <time>2017-04-29T04:52:00</time>
        <extensions><speed>1.49</speed></extensions>
      </trkpt>
      <trkpt lat="51.834358000" lon="7.606593000">
        <ele>66.7</ele>
        <time>2017-04-29T04:52:01</time>
        <extensions><speed>1.41</speed></extensions>
      </trkpt>
      <trkpt lat="51.834362000" lon="7.606606000">
        <ele>66.8</ele>
        <time>2017-04-29T04:52:02</time>
        <extensions><speed>1.31</speed></extensions>
      </trkpt>
      <trkpt lat="51.834362000" lon="7.606624000">
        <ele>66.8</ele>
        <time>2017-04-29T04:52:03</time>
        <extensions><speed>1.25</speed></extensions>
      </trkpt>
      <trkpt lat="51.834370000" lon="7.606640000">
        <ele>66.9</ele>
        <time>2017-04-29T04:52:04</time>
        <extensions><speed>1.25</speed></extensions>
      </trkpt>
      <trkpt lat="51.834377000" lon="7.606652000">
        <ele>66.9</ele>
        <time>2017-04-29T04:52:05</time>
        <extensions><speed>1.21</speed></extensions>
      </trkpt>
      <trkpt lat="51.834385000" lon="7.606663000">
        <ele>67.0</ele>
        <time>2017-04-29T04:52:06</time>
        <extensions><speed>1.26</speed></extensions>
      </trkpt>
      <trkpt lat="51.834389000" lon="7.606677000">
        <ele>67.0</ele>
        <time>2017-04-29T04:52:07</time>
        <extensions><speed>1.22</speed></extensions>
      </trkpt>
      <trkpt lat="51.834393000" lon="7.606692000">
        <ele>67.0</ele>
        <time>2017-04-29T04:52:08</time>
        <extensions><speed>1.24</speed></extensions>
      </trkpt>
      <trkpt lat="51.834408000" lon="7.606705000">
        <ele>67.1</ele>
        <time>2017-04-29T04:52:09</time>
        <extensions><speed>1.24</speed></extensions>
      </trkpt>
      <trkpt lat="51.834419000" lon="7.606722000">
        <ele>67.1</ele>
        <time>2017-04-29T04:52:10</time>
        <extensions><speed>1.32</speed></extensions>
      </trkpt>
      <trkpt lat="51.834423000" lon="7.606740000">
        <ele>67.2</ele>
        <time>2017-04-29T04:52:11</time>
        <extensions><speed>1.36</speed></extensions>
      </trkpt>
      <trkpt lat="51.834431000" lon="7.606759000">
        <ele>67.2</ele>
        <time>2017-04-29T04:52:12</time>
        <extensions><speed>1.39</speed></extensions>
      </trkpt>
      <trkpt lat="51.834438000" lon="7.606773000">
        <ele>67.3</ele>
        <time>2017-04-29T04:52:13</time>
        <extensions><speed>1.39</speed></extensions>
      </trkpt>
      <trkpt lat="51.834446000" lon="7.606789000">
        <ele>67.3</ele>
        <time>2017-04-29T04:52:14</time>
        <extensions><speed>1.38</speed></extensions>
      </trkpt>
      <trkpt lat="51.834454000" lon="7.606803000">
        <ele>67.4</ele>
        <time>2017-04-29T04:52:15</time>
        <extensions><speed>1.40</speed></extensions>
      </trkpt>
      <trkpt lat="51.834461000" lon="7.606817000">
        <ele>67.5</ele>
        <time>2017-04-29T04:52:16</time>
        <extensions><speed>1.38</speed></extensions>
      </trkpt>
      <trkpt lat="51.834469000" lon="7.606827000">
        <ele>67.6</ele>
        <time>2017-04-29T04:52:17</time>
        <extensions><speed>1.35</speed></extensions>
      </trkpt>
      <trkpt lat="51.834480000" lon="7.606843000">
        <ele>67.6</ele>
        <time>2017-04-29T04:52:18</time>
        <extensions><speed>1.32</speed></extensions>
      </trkpt>
      <trkpt lat="51.834488000" lon="7.606860000">
        <ele>67.6</ele>
        <time>2017-04-29T04:52:19</time>
        <extensions><speed>1.29</speed></extensions>
      </trkpt>
      <trkpt lat="51.834492000" lon="7.606876000">
        <ele>67.7</ele>
        <time>2017-04-29T04:52:20</time>
        <extensions><speed>1.28</speed></extensions>
      </trkpt>
      <trkpt lat="51.834503000" lon="7.606892000">
        <ele>67.8</ele>
        <time>2017-04-29T04:52:21</time>
        <extensions><speed>1.28</speed></extensions>
      </trkpt>
      <trkpt lat="51.834511000" lon="7.606908000">
        <ele>67.8</ele>
        <time>2017-04-29T04:52:22</time>
        <extensions><speed>1.25</speed></extensions>
      </trkpt>
      <trkpt lat="51.834518000" lon="7.606924000">
        <ele>67.9</ele>
        <time>2017-04-29T04:52:23</time>
        <extensions><speed>1.27</speed></extensions>
      </trkpt>
      <trkpt lat="51.834526000" lon="7.606937000">
        <ele>68.0</ele>
        <time>2017-04-29T04:52:24</time>
        <extensions><speed>1.29</speed></extensions>
      </trkpt>
      <trkpt lat="51.834538000" lon="7.606958000">
        <ele>68.1</ele>
        <time>2017-04-29T04:52:25</time>
        <extensions><speed>1.41</speed></extensions>
      </trkpt>
      <trkpt lat="51.834545000" lon="7.606981000">
        <ele>68.2</ele>
        <time>2017-04-29T04:52:26</time>
        <extensions><speed>1.53</speed></extensions>
      </trkpt>
      <trkpt lat="51.834553000" lon="7.607002000">
        <ele>68.2</ele>
        <time>2017-04-29T04:52:27</time>
        <extensions><speed>1.53</speed></extensions>
      </trkpt>
      <trkpt lat="51.834557000" lon="7.607020000">
        <ele>68.3</ele>
        <time>2017-04-29T04:52:28</time>
        <extensions><speed>1.52</speed></extensions>
      </trkpt>
      <trkpt lat="51.834564000" lon="7.607037000">
        <ele>68.4</ele>
        <time>2017-04-29T04:52:29</time>
        <extensions><speed>1.38</speed></extensions>
      </trkpt>
      <trkpt lat="51.834572000" lon="7.607048000">
        <ele>68.5</ele>
        <time>2017-04-29T04:52:30</time>
        <extensions><speed>1.26</speed></extensions>
      </trkpt>
      <trkpt lat="51.834579000" lon="7.607059000">
        <ele>68.5</ele>
        <time>2017-04-29T04:52:31</time>
        <extensions><speed>1.19</speed></extensions>
      </trkpt>
      <trkpt lat="51.834583000" lon="7.607072000">
        <ele>68.6</ele>
        <time>2017-04-29T04:52:32</time>
        <extensions><speed>1.19</speed></extensions>
      </trkpt>
      <trkpt lat="51.834591000" lon="7.607090000">
        <ele>68.7</ele>
        <time>2017-04-29T04:52:33</time>
        <extensions><speed>1.18</speed></extensions>
      </trkpt>
      <trkpt lat="51.834595000" lon="7.607111000">
        <ele>68.7</ele>
        <time>2017-04-29T04:52:34</time>
        <extensions><speed>1.25</speed></extensions>
      </trkpt>
      <trkpt lat="51.834606000" lon="7.607130000">
        <ele>68.8</ele>
        <time>2017-04-29T04:52:35</time>
        <extensions><speed>1.29</speed></extensions>
      </trkpt>
      <trkpt lat="51.834614000" lon="7.607146000">
        <ele>68.9</ele>
        <time>2017-04-29T04:52:36</time>
        <extensions><speed>1.36</speed></extensions>
      </trkpt>
      <trkpt lat="51.834621000" lon="7.607163000">
        <ele>68.9</ele>
        <time>2017-04-29T04:52:37</time>
        <extensions><speed>1.33</speed></extensions>
      </trkpt>
      <trkpt lat="51.834621000" lon="7.607177000">
        <ele>69.0</ele>
        <time>2017-04-29T04:52:38</time>
        <extensions><speed>1.33</speed></extensions>
      </trkpt>
      <trkpt lat="51.834629000" lon="7.607192000">
        <ele>69.0</ele>
        <time>2017-04-29T04:52:39</time>
        <extensions><speed>1.36</speed></extensions>
      </trkpt>
      <trkpt lat="51.834637000" lon="7.607207000">
        <ele>69.1</ele>
        <time>2017-04-29T04:52:40</time>
        <extensions><speed>1.30</speed></extensions>
      </trkpt>
      <trkpt lat="51.834644000" lon="7.607223000">
        <ele>69.2</ele>
        <time>2017-04-29T04:52:41</time>
        <extensions><speed>1.29</speed></extensions>
      </trkpt>
      <trkpt lat="51.834652000" lon="7.607244000">
        <ele>69.2</ele>
        <time>2017-04-29T04:52:42</time>
        <extensions><speed>1.32</speed></extensions>
      </trkpt>
      <trkpt lat="51.834656000" lon="7.607265000">
        <ele>69.3</ele>
        <time>2017-04-29T04:52:43</time>
        <extensions><speed>1.41</speed></extensions>
      </trkpt>
      <trkpt lat="51.834667000" lon="7.607285000">
        <ele>69.4</ele>
        <time>2017-04-29T04:52:44</time>
        <extensions><speed>1.41</speed></extensions>
      </trkpt>
      <trkpt lat="51.834675000" lon="7.607300000">
        <ele>69.4</ele>
        <time>2017-04-29T04:52:45</time>
        <extensions><speed>1.41</speed></extensions>
      </trkpt>
      <trkpt lat="51.834679000" lon="7.607310000">
        <ele>69.5</ele>
        <time>2017-04-29T04:52:46</time>
        <extensions><speed>1.40</speed></extensions>
      </trkpt>
      <trkpt lat="51.834682000" lon="7.607319000">
        <ele>69.6</ele>
        <time>2017-04-29T04:52:47</time>
        <extensions><speed>1.30</speed></extensions>
      </trkpt>
      <trkpt lat="51.834686000" lon="7.607335000">
        <ele>69.6</ele>
        <time>2017-04-29T04:52:48</time>
        <extensions><speed>1.30</speed></extensions>
      </trkpt>
      <trkpt lat="51.834694000" lon="7.607354000">
        <ele>69.7</ele>
        <time>2017-04-29T04:52:49</time>
        <extensions><speed>1.33</speed></extensions>
      </trkpt>
      <trkpt lat="51.834702000" lon="7.607373000">
        <ele>69.7</ele>
        <time>2017-04-29T04:52:50</time>
        <extensions><speed>1.33</speed></extensions>
      </trkpt>
      <trkpt lat="51.834709000" lon="7.607391000">
        <ele>69.8</ele>
        <time>2017-04-29T04:52:51</time>
        <extensions><speed>1.41</speed></extensions>
      </trkpt>
      <trkpt lat="51.834717000" lon="7.607407000">
        <ele>69.8</ele>
        <time>2017-04-29T04:52:52</time>
        <extensions><speed>1.41</speed></extensions>
      </trkpt>
      <trkpt lat="51.834724000" lon="7.607422000">
        <ele>69.9</ele>
        <time>2017-04-29T04:52:53</time>
        <extensions><speed>1.41</speed></extensions>
      </trkpt>
      <trkpt lat="51.834736000" lon="7.607437000">
        <ele>69.9</ele>
        <time>2017-04-29T04:52:54</time>
        <extensions><speed>1.34</speed></extensions>
      </trkpt>
      <trkpt lat="51.834747000" lon="7.607454000">
        <ele>70.0</ele>
        <time>2017-04-29T04:52:55</time>
        <extensions><speed>1.33</speed></extensions>
      </trkpt>
      <trkpt lat="51.834751000" lon="7.607470000">
        <ele>70.0</ele>
        <time>2017-04-29T04:52:56</time>
        <extensions><speed>1.33</speed></extensions>
      </trkpt>
      <trkpt lat="51.834766000" lon="7.607487000">
        <ele>70.1</ele>
        <time>2017-04-29T04:52:57</time>
        <extensions><speed>1.35</speed></extensions>
      </trkpt>
      <trkpt lat="51.834774000" lon="7.607508000">
        <ele>70.2</ele>
        <time>2017-04-29T04:52:58</time>
        <extensions><speed>1.35</speed></extensions>
      </trkpt>
      <trkpt lat="51.834785000" lon="7.607525000">
        <ele>70.2</ele>
        <time>2017-04-29T04:52:59</time>
        <extensions><speed>1.40</speed></extensions>
      </trkpt>
      <trkpt lat="51.834789000" lon="7.607542000">
        <ele>70.3</ele>
        <time>2017-04-29T04:53:00</time>
        <extensions><speed>1.43</speed></extensions>
      </trkpt>
      <trkpt lat="51.834797000" lon="7.607560000">
        <ele>70.3</ele>
        <time>2017-04-29T04:53:01</time>
        <extensions><speed>1.43</speed></extensions>
      </trkpt>
      <trkpt lat="51.834801000" lon="7.607575000">
        <ele>70.4</ele>
        <time>2017-04-29T04:53:02</time>
        <extensions><speed>1.41</speed></extensions>
      </trkpt>
      <trkpt lat="51.834805000" lon="7.607590000">
        <ele>70.4</ele>
        <time>2017-04-29T04:53:03</time>
        <extensions><speed>1.33</speed></extensions>
      </trkpt>
      <trkpt lat="51.834812000" lon="7.607603000">
        <ele>70.5</ele>
        <time>2017-04-29T04:53:04</time>
        <extensions><speed>1.23</speed></extensions>
      </trkpt>
      <trkpt lat="51.834816000" lon="7.607618000">
        <ele>70.5</ele>
        <time>2017-04-29T04:53:05</time>
        <extensions><speed>1.21</speed></extensions>
      </trkpt>
      <trkpt lat="51.834820000" lon="7.607636000">
        <ele>70.6</ele>
        <time>2017-04-29T04:53:06</time>
        <extensions><speed>1.21</speed></extensions>
      </trkpt>
      <trkpt lat="51.834827000" lon="7.607657000">
        <ele>70.6</ele>
        <time>2017-04-29T04:53:07</time>
        <extensions><speed>1.23</speed></extensions>
      </trkpt>
      <trkpt lat="51.834831000" lon="7.607675000">
        <ele>70.6</ele>
        <time>2017-04-29T04:53:08</time>
        <extensions><speed>1.27</speed></extensions>
      </trkpt>
      <trkpt lat="51.834839000" lon="7.607692000">
        <ele>70.7</ele>
        <time>2017-04-29T04:53:09</time>
        <extensions><speed>1.30</speed></extensions>
      </trkpt>
      <trkpt lat="51.834846000" lon="7.607708000">
        <ele>70.7</ele>
        <time>2017-04-29T04:53:10</time>
        <extensions><speed>1.31</speed></extensions>
      </trkpt>
      <trkpt lat="51.834854000" lon="7.607722000">
        <ele>70.7</ele>
        <time>2017-04-29T04:53:11</time>
        <extensions><speed>1.26</speed></extensions>
      </trkpt>
      <trkpt lat="51.834866000" lon="7.607737000">
        <ele>70.8</ele>
        <time>2017-04-29T04:53:12</time>
        <extensions><speed>1.31</speed></extensions>
      </trkpt>
      <trkpt lat="51.834877000" lon="7.607751000">
        <ele>70.8</ele>
        <time>2017-04-29T04:53:13</time>
        <extensions><speed>1.29</speed></extensions>
      </trkpt>
      <trkpt lat="51.834885000" lon="7.607770000">
        <ele>70.8</ele>
        <time>2017-04-29T04:53:14</time>
        <extensions><speed>1.25</speed></extensions>
      </trkpt>
      <trkpt lat="51.834888000" lon="7.607787000">
        <ele>70.9</ele>
        <time>2017-04-29T04:53:15</time>
        <extensions><speed>1.19</speed></extensions>
      </trkpt>
      <trkpt lat="51.834896000" lon="7.607805000">
        <ele>70.9</ele>
        <time>2017-04-29T04:53:16</time>
        <extensions><speed>1.26</speed></extensions>
      </trkpt>
      <trkpt lat="51.834908000" lon="7.607825000">
        <ele>70.9</ele>
        <time>2017-04-29T04:53:17</time>
        <extensions><speed>1.26</speed></extensions>
      </trkpt>
      <trkpt lat="51.834915000" lon="7.607842000">
        <ele>71.0</ele>
        <time>2017-04-29T04:53:18</time>
        <extensions><speed>1.27</speed></extensions>
      </trkpt>
      <trkpt lat="51.834927000" lon="7.607857000">
        <ele>71.0</ele>
        <time>2017-04-29T04:53:19</time>
        <extensions><speed>1.32</speed></extensions>
      </trkpt>
      <trkpt lat="51.834938000" lon="7.607870000">
        <ele>71.0</ele>
        <time>2017-04-29T04:53:20</time>
        <extensions><speed>1.32</speed></extensions>
      </trkpt>
      <trkpt lat="51.834946000" lon="7.607880000">
        <ele>71.0</ele>
        <time>2017-04-29T04:53:21</time>
        <extensions><speed>1.23</speed></extensions>
      </trkpt>
      <trkpt lat="51.834946000" lon="7.607895000">
        <ele>71.0</ele>
        <time>2017-04-29T04:53:22</time>
        <extensions><speed>1.15</speed></extensions>
      </trkpt>
      <trkpt lat="51.834946000" lon="7.607912000">
        <ele>71.0</ele>
        <time>2017-04-29T04:53:23</time>
        <extensions><speed>1.15</speed></extensions>
      </trkpt>
      <trkpt lat="51.834942000" lon="7.607928000">
        <ele>71.0</ele>
        <time>2017-04-29T04:53:24</time>
        <extensions><speed>1.10</speed></extensions>
      </trkpt>
      <trkpt lat="51.834946000" lon="7.607950000">
        <ele>71.0</ele>
        <time>2017-04-29T04:53:25</time>
        <extensions><speed>1.16</speed></extensions>
      </trkpt>
      <trkpt lat="51.834949000" lon="7.607974000">
        <ele>71.0</ele>
        <time>2017-04-29T04:53:26</time>
        <extensions><speed>1.23</speed></extensions>
      </trkpt>
      <trkpt lat="51.834953000" lon="7.607993000">
        <ele>71.0</ele>
        <time>2017-04-29T04:53:27</time>
        <extensions><speed>1.31</speed></extensions>
      </trkpt>
      <trkpt lat="51.834957000" lon="7.608012000">
        <ele>71.0</ele>
        <time>2017-04-29T04:53:28</time>
        <extensions><speed>1.27</speed></extensions>
      </trkpt>
      <trkpt lat="51.834965000" lon="7.608021000">
        <ele>71.0</ele>
        <time>2017-04-29T04:53:29</time>
        <extensions><speed>1.30</speed></extensions>
      </trkpt>
      <trkpt lat="51.834976000" lon="7.608035000">
        <ele>71.0</ele>
        <time>2017-04-29T04:53:30</time>
        <extensions><speed>1.25</speed></extensions>
      </trkpt>
      <trkpt lat="51.834980000" lon="7.608049000">
        <ele>71.0</ele>
        <time>2017-04-29T04:53:31</time>
        <extensions><speed>1.21</speed></extensions>
      </trkpt>
      <trkpt lat="51.834991000" lon="7.608061000">
        <ele>71.0</ele>
        <time>2017-04-29T04:53:32</time>
        <extensions><speed>1.21</speed></extensions>
      </trkpt>
      <trkpt lat="51.835007000" lon="7.608070000">
        <ele>71.0</ele>
        <time>2017-04-29T04:53:33</time>
        <extensions><speed>1.20</speed></extensions>
      </trkpt>
      <trkpt lat="51.835014000" lon="7.608075000">
        <ele>71.0</ele>
        <time>2017-04-29T04:53:34</time>
        <extensions><speed>1.18</speed></extensions>
      </trkpt>
      <trkpt lat="51.835022000" lon="7.608080000">
        <ele>71.0</ele>
        <time>2017-04-29T04:53:35</time>
        <extensions><speed>1.18</speed></extensions>
      </trkpt>
      <trkpt lat="51.835030000" lon="7.608089000">
        <ele>71.0</ele>
        <time>2017-04-29T04:53:36</time>
        <extensions><speed>1.15</speed></extensions>
      </trkpt>
      <trkpt lat="51.835041000" lon="7.608102000">
        <ele>71.0</ele>
        <time>2017-04-29T04:53:37</time>
        <extensions><speed>1.15</speed></extensions>
      </trkpt>
      <trkpt lat="51.835045000" lon="7.608112000">
        <ele>71.0</ele>
        <time>2017-04-29T04:53:38</time>
        <extensions><speed>1.16</speed></extensions>
      </trkpt>
      <trkpt lat="51.835060000" lon="7.608117000">
        <ele>71.0</ele>
        <time>2017-04-29T04:53:39</time>
        <extensions><speed>1.20</speed></extensions>
      </trkpt>
      <trkpt lat="51.835075000" lon="7.608125000">
        <ele>71.0</ele>
        <time>2017-04-29T04:53:40</time>
        <extensions><speed>1.29</speed></extensions>
      </trkpt>
      <trkpt lat="51.835083000" lon="7.608137000">
        <ele>71.0</ele>
        <time>2017-04-29T04:53:41</time>
        <extensions><speed>1.36</speed></extensions>
      </trkpt>
      <trkpt lat="51.835094000" lon="7.608150000">
        <ele>71.0</ele>
        <time>2017-04-29T04:53:42</time>
        <extensions><speed>1.38</speed></extensions>
      </trkpt>
      <trkpt lat="51.835106000" lon="7.608161000">
        <ele>71.0</ele>
        <time>2017-04-29T04:53:43</time>
        <extensions><speed>1.44</speed></extensions>
      </trkpt>
      <trkpt lat="51.835114000" lon="7.608170000">
        <ele>71.0</ele>
        <time>2017-04-29T04:53:44</time>
        <extensions><speed>1.44</speed></extensions>
      </trkpt>
      <trkpt lat="51.835129000" lon="7.608180000">
        <ele>71.0</ele>
        <time>2017-04-29T04:53:45</time>
        <extensions><speed>1.36</speed></extensions>
      </trkpt>
      <trkpt lat="51.835140000" lon="7.608191000">
        <ele>71.0</ele>
        <time>2017-04-29T04:53:46</time>
        <extensions><speed>1.32</speed></extensions>
      </trkpt>
      <trkpt lat="51.835148000" lon="7.608202000">
        <ele>70.9</ele>
        <time>2017-04-29T04:53:47</time>
        <extensions><speed>1.33</speed></extensions>
      </trkpt>
      <trkpt lat="51.835163000" lon="7.608219000">
        <ele>70.9</ele>
        <time>2017-04-29T04:53:48</time>
        <extensions><speed>1.33</speed></extensions>
      </trkpt>
      <trkpt lat="51.835175000" lon="7.608235000">
        <ele>70.9</ele>
        <time>2017-04-29T04:53:49</time>
        <extensions><speed>1.34</speed></extensions>
      </trkpt>
      <trkpt lat="51.835182000" lon="7.608247000">
        <ele>70.9</ele>
        <time>2017-04-29T04:53:50</time>
        <extensions><speed>1.38</speed></extensions>
      </trkpt>
      <trkpt lat="51.835194000" lon="7.608257000">
        <ele>70.9</ele>
        <time>2017-04-29T04:53:51</time>
        <extensions><speed>1.37</speed></extensions>
      </trkpt>
      <trkpt lat="51.835205000" lon="7.608272000">
        <ele>70.9</ele>
        <time>2017-04-29T04:53:52</time>
        <extensions><speed>1.34</speed></extensions>
      </trkpt>
      <trkpt lat="51.835213000" lon="7.608284000">
        <ele>70.9</ele>
        <time>2017-04-29T04:53:53</time>
        <extensions><speed>1.32</speed></extensions>
      </trkpt>
      <trkpt lat="51.835228000" lon="7.608294000">
        <ele>70.9</ele>
        <time>2017-04-29T04:53:54</time>
        <extensions><speed>1.31</speed></extensions>
      </trkpt>
      <trkpt lat="51.835239000" lon="7.608300000">
        <ele>70.9</ele>
        <time>2017-04-29T04:53:55</time>
        <extensions><speed>1.25</speed></extensions>
      </trkpt>
      <trkpt lat="51.835251000" lon="7.608308000">
        <ele>70.9</ele>
        <time>2017-04-29T04:53:56</time>
        <extensions><speed>1.28</speed></extensions>
      </trkpt>
      <trkpt lat="51.835262000" lon="7.608318000">
        <ele>70.8</ele>
        <time>2017-04-29T04:53:57</time>
        <extensions><speed>1.28</speed></extensions>
      </trkpt>
      <trkpt lat="51.835274000" lon="7.608327000">
        <ele>70.8</ele>
        <time>2017-04-29T04:53:58</time>
        <extensions><speed>1.28</speed></extensions>
      </trkpt>
      <trkpt lat="51.835285000" lon="7.608335000">
        <ele>70.8</ele>
        <time>2017-04-29T04:53:59</time>
        <extensions><speed>1.25</speed></extensions>
      </trkpt>
      <trkpt lat="51.835300000" lon="7.608343000">
        <ele>70.8</ele>
        <time>2017-04-29T04:54:00</time>
        <extensions><speed>1.25</speed></extensions>
      </trkpt>
      <trkpt lat="51.835312000" lon="7.608352000">
        <ele>70.8</ele>
        <time>2017-04-29T04:54:01</time>
        <extensions><speed>1.32</speed></extensions>
      </trkpt>
      <trkpt lat="51.835327000" lon="7.608360000">
        <ele>70.8</ele>
        <time>2017-04-29T04:54:02</time>
        <extensions><speed>1.42</speed></extensions>
      </trkpt>
      <trkpt lat="51.835339000" lon="7.608365000">
        <ele>70.8</ele>
        <time>2017-04-29T04:54:03</time>
        <extensions><speed>1.36</speed></extensions>
      </trkpt>
      <trkpt lat="51.835350000" lon="7.608368000">
        <ele>70.7</ele>
        <time>2017-04-29T04:54:04</time>
        <extensions><speed>1.38</speed></extensions>
      </trkpt>
      <trkpt lat="51.835361000" lon="7.608373000">
        <ele>70.7</ele>
        <time>2017-04-29T04:54:05</time>
        <extensions><speed>1.39</speed></extensions>
      </trkpt>
      <trkpt lat="51.835373000" lon="7.608378000">
        <ele>70.7</ele>
        <time>2017-04-29T04:54:06</time>
        <extensions><speed>1.28</speed></extensions>
      </trkpt>
      <trkpt lat="51.835388000" lon="7.608387000">
        <ele>70.7</ele>
        <time>2017-04-29T04:54:07</time>
        <extensions><speed>1.28</speed></extensions>
      </trkpt>
      <trkpt lat="51.835400000" lon="7.608394000">
        <ele>70.7</ele>
        <time>2017-04-29T04:54:08</time>
        <extensions><speed>1.33</speed></extensions>
      </trkpt>
      <trkpt lat="51.835411000" lon="7.608397000">
        <ele>70.7</ele>
        <time>2017-04-29T04:54:09</time>
        <extensions><speed>1.40</speed></extensions>
      </trkpt>
      <trkpt lat="51.835426000" lon="7.608401000">
        <ele>70.6</ele>
        <time>2017-04-29T04:54:10</time>
        <extensions><speed>1.40</speed></extensions>
      </trkpt>
      <trkpt lat="51.835438000" lon="7.608407000">
        <ele>70.6</ele>
        <time>2017-04-29T04:54:11</time>
        <extensions><speed>1.41</speed></extensions>
      </trkpt>
      <trkpt lat="51.835449000" lon="7.608417000">
        <ele>70.6</ele>
        <time>2017-04-29T04:54:12</time>
        <extensions><speed>1.37</speed></extensions>
      </trkpt>
      <trkpt lat="51.835464000" lon="7.608422000">
        <ele>70.6</ele>
        <time>2017-04-29T04:54:13</time>
        <extensions><speed>1.39</speed></extensions>
      </trkpt>
      <trkpt lat="51.835480000" lon="7.608428000">
        <ele>70.6</ele>
        <time>2017-04-29T04:54:14</time>
        <extensions><speed>1.40</speed></extensions>
      </trkpt>
      <trkpt lat="51.835491000" lon="7.608438000">
        <ele>70.6</ele>
        <time>2017-04-29T04:54:15</time>
        <extensions><speed>1.40</speed></extensions>
      </trkpt>
      <trkpt lat="51.835499000" lon="7.608448000">
        <ele>70.6</ele>
        <time>2017-04-29T04:54:16</time>
        <extensions><speed>1.36</speed></extensions>
      </trkpt>
      <trkpt lat="51.835506000" lon="7.608457000">
        <ele>70.5</ele>
        <time>2017-04-29T04:54:17</time>
        <extensions><speed>1.39</speed></extensions>
      </trkpt>
      <trkpt lat="51.835522000" lon="7.608465000">
        <ele>70.5</ele>
        <time>2017-04-29T04:54:18</time>
        <extensions><speed>1.36</speed></extensions>
      </trkpt>
      <trkpt lat="51.835533000" lon="7.608475000">
        <ele>70.5</ele>
        <time>2017-04-29T04:54:19</time>
        <extensions><speed>1.32</speed></extensions>
      </trkpt>
      <trkpt lat="51.835541000" lon="7.608485000">
        <ele>70.5</ele>
        <time>2017-04-29T04:54:20</time>
        <extensions><speed>1.37</speed></extensions>
      </trkpt>
      <trkpt lat="51.835552000" lon="7.608493000">
        <ele>70.5</ele>
        <time>2017-04-29T04:54:21</time>
        <extensions><speed>1.39</speed></extensions>
      </trkpt>
      <trkpt lat="51.835567000" lon="7.608500000">
        <ele>70.4</ele>
        <time>2017-04-29T04:54:22</time>
        <extensions><speed>1.40</speed></extensions>
      </trkpt>
      <trkpt lat="51.835579000" lon="7.608508000">
        <ele>70.4</ele>
        <time>2017-04-29T04:54:23</time>
        <extensions><speed>1.41</speed></extensions>
      </trkpt>
      <trkpt lat="51.835594000" lon="7.608517000">
        <ele>70.4</ele>
        <time>2017-04-29T04:54:24</time>
        <extensions><speed>1.44</speed></extensions>
      </trkpt>
      <trkpt lat="51.835606000" lon="7.608525000">
        <ele>70.4</ele>
        <time>2017-04-29T04:54:25</time>
        <extensions><speed>1.44</speed></extensions>
      </trkpt>
      <trkpt lat="51.835621000" lon="7.608532000">
        <ele>70.3</ele>
        <time>2017-04-29T04:54:26</time>
        <extensions><speed>1.44</speed></extensions>
      </trkpt>
      <trkpt lat="51.835632000" lon="7.608537000">
        <ele>70.3</ele>
        <time>2017-04-29T04:54:27</time>
        <extensions><speed>1.47</speed></extensions>
      </trkpt>
      <trkpt lat="51.835648000" lon="7.608545000">
        <ele>70.3</ele>
        <time>2017-04-29T04:54:28</time>
        <extensions><speed>1.51</speed></extensions>
      </trkpt>
      <trkpt lat="51.835663000" lon="7.608552000">
        <ele>70.3</ele>
        <time>2017-04-29T04:54:29</time>
        <extensions><speed>1.52</speed></extensions>
      </trkpt>
      <trkpt lat="51.835670000" lon="7.608558000">
        <ele>70.2</ele>
        <time>2017-04-29T04:54:30</time>
        <extensions><speed>1.44</speed></extensions>
      </trkpt>
      <trkpt lat="51.835686000" lon="7.608565000">
        <ele>70.2</ele>
        <time>2017-04-29T04:54:31</time>
        <extensions><speed>1.50</speed></extensions>
      </trkpt>
      <trkpt lat="51.835697000" lon="7.608574000">
        <ele>70.2</ele>
        <time>2017-04-29T04:54:32</time>
        <extensions><speed>1.43</speed></extensions>
      </trkpt>
      <trkpt lat="51.835709000" lon="7.608587000">
        <ele>70.1</ele>
        <time>2017-04-29T04:54:33</time>
        <extensions><speed>1.40</speed></extensions>
      </trkpt>
      <trkpt lat="51.835724000" lon="7.608593000">
        <ele>70.1</ele>
        <time>2017-04-29T04:54:34</time>
        <extensions><speed>1.40</speed></extensions>
      </trkpt>
      <trkpt lat="51.835732000" lon="7.608600000">
        <ele>70.1</ele>
        <time>2017-04-29T04:54:35</time>
        <extensions><speed>1.43</speed></extensions>
      </trkpt>
      <trkpt lat="51.835747000" lon="7.608607000">
        <ele>70.0</ele>
        <time>2017-04-29T04:54:36</time>
        <extensions><speed>1.44</speed></extensions>
      </trkpt>
      <trkpt lat="51.835762000" lon="7.608611000">
        <ele>70.0</ele>
        <time>2017-04-29T04:54:37</time>
        <extensions><speed>1.45</speed></extensions>
      </trkpt>
      <trkpt lat="51.835773000" lon="7.608618000">
        <ele>70.0</ele>
        <time>2017-04-29T04:54:38</time>
        <extensions><speed>1.44</speed></extensions>
      </trkpt>
      <trkpt lat="51.835785000" lon="7.608627000">
        <ele>70.0</ele>
        <time>2017-04-29T04:54:39</time>
        <extensions><speed>1.42</speed></extensions>
      </trkpt>
      <trkpt lat="51.835796000" lon="7.608639000">
        <ele>69.9</ele>
        <time>2017-04-29T04:54:40</time>
        <extensions><speed>1.36</speed></extensions>
      </trkpt>
      <trkpt lat="51.835804000" lon="7.608646000">
        <ele>69.9</ele>
        <time>2017-04-29T04:54:41</time>
        <extensions><speed>1.32</speed></extensions>
      </trkpt>
      <trkpt lat="51.835815000" lon="7.608658000">
        <ele>69.9</ele>
        <time>2017-04-29T04:54:42</time>
        <extensions><speed>1.32</speed></extensions>
      </trkpt>
      <trkpt lat="51.835827000" lon="7.608670000">
        <ele>69.8</ele>
        <time>2017-04-29T04:54:43</time>
        <extensions><speed>1.35</speed></extensions>
      </trkpt>
      <trkpt lat="51.835842000" lon="7.608681000">
        <ele>69.8</ele>
        <time>2017-04-29T04:54:44</time>
        <extensions><speed>1.47</speed></extensions>
      </trkpt>
      <trkpt lat="51.835857000" lon="7.608693000">
        <ele>69.8</ele>
        <time>2017-04-29T04:54:45</time>
        <extensions><speed>1.49</speed></extensions>
      </trkpt>
      <trkpt lat="51.835865000" lon="7.608704000">
        <ele>69.8</ele>
        <time>2017-04-29T04:54:46</time>
        <extensions><speed>1.49</speed></extensions>
      </trkpt>
      <trkpt lat="51.835880000" lon="7.608712000">
        <ele>69.7</ele>
        <time>2017-04-29T04:54:47</time>
        <extensions><speed>1.42</speed></extensions>
      </trkpt>
      <trkpt lat="51.835888000" lon="7.608720000">
        <ele>69.7</ele>
        <time>2017-04-29T04:54:48</time>
        <extensions><speed>1.31</speed></extensions>
      </trkpt>
      <trkpt lat="51.835899000" lon="7.608728000">
        <ele>69.7</ele>
        <time>2017-04-29T04:54:49</time>
        <extensions><speed>1.31</speed></extensions>
      </trkpt>
      <trkpt lat="51.835915000" lon="7.608737000">
        <ele>69.7</ele>
        <time>2017-04-29T04:54:50</time>
        <extensions><speed>1.34</speed></extensions>
      </trkpt>
      <trkpt lat="51.835926000" lon="7.608746000">
        <ele>69.6</ele>
        <time>2017-04-29T04:54:51</time>
        <extensions><speed>1.41</speed></extensions>
      </trkpt>
      <trkpt lat="51.835941000" lon="7.608753000">
        <ele>69.6</ele>
        <time>2017-04-29T04:54:52</time>
        <extensions><speed>1.50</speed></extensions>
      </trkpt>
      <trkpt lat="51.835953000" lon="7.608762000">
        <ele>69.5</ele>
        <time>2017-04-29T04:54:53</time>
        <extensions><speed>1.50</speed></extensions>
      </trkpt>
      <trkpt lat="51.835960000" lon="7.608768000">
        <ele>69.5</ele>
        <time>2017-04-29T04:54:54</time>
        <extensions><speed>1.48</speed></extensions>
      </trkpt>
      <trkpt lat="51.835976000" lon="7.608778000">
        <ele>69.5</ele>
        <time>2017-04-29T04:54:55</time>
        <extensions><speed>1.43</speed></extensions>
      </trkpt>
      <trkpt lat="51.835987000" lon="7.608788000">
        <ele>69.5</ele>
        <time>2017-04-29T04:54:56</time>
        <extensions><speed>1.43</speed></extensions>
      </trkpt>
      <trkpt lat="51.835995000" lon="7.608797000">
        <ele>69.4</ele>
        <time>2017-04-29T04:54:57</time>
        <extensions><speed>1.43</speed></extensions>
      </trkpt>
      <trkpt lat="51.836010000" lon="7.608805000">
        <ele>69.4</ele>
        <time>2017-04-29T04:54:58</time>
        <extensions><speed>1.40</speed></extensions>
      </trkpt>
      <trkpt lat="51.836021000" lon="7.608810000">
        <ele>69.4</ele>
        <time>2017-04-29T04:54:59</time>
        <extensions><speed>1.36</speed></extensions>
      </trkpt>
      <trkpt lat="51.836033000" lon="7.608817000">
        <ele>69.4</ele>
        <time>2017-04-29T04:55:00</time>
        <extensions><speed>1.40</speed></extensions>
      </trkpt>
      <trkpt lat="51.836044000" lon="7.608823000">
        <ele>69.3</ele>
        <time>2017-04-29T04:55:01</time>
        <extensions><speed>1.41</speed></extensions>
      </trkpt>
      <trkpt lat="51.836056000" lon="7.608830000">
        <ele>69.3</ele>
        <time>2017-04-29T04:55:02</time>
        <extensions><speed>1.39</speed></extensions>
      </trkpt>
      <trkpt lat="51.836067000" lon="7.608840000">
        <ele>69.3</ele>
        <time>2017-04-29T04:55:03</time>
        <extensions><speed>1.39</speed></extensions>
      </trkpt>
      <trkpt lat="51.836079000" lon="7.608850000">
        <ele>69.2</ele>
        <time>2017-04-29T04:55:04</time>
        <extensions><speed>1.43</speed></extensions>
      </trkpt>
      <trkpt lat="51.836090000" lon="7.608858000">
        <ele>69.2</ele>
        <time>2017-04-29T04:55:05</time>
        <extensions><speed>1.41</speed></extensions>
      </trkpt>
      <trkpt lat="51.836102000" lon="7.608863000">
        <ele>69.2</ele>
        <time>2017-04-29T04:55:06</time>
        <extensions><speed>1.41</speed></extensions>
      </trkpt>
      <trkpt lat="51.836113000" lon="7.608872000">
        <ele>69.2</ele>
        <time>2017-04-29T04:55:07</time>
        <extensions><speed>1.35</speed></extensions>
      </trkpt>
      <trkpt lat="51.836121000" lon="7.608882000">
        <ele>69.1</ele>
        <time>2017-04-29T04:55:08</time>
        <extensions><speed>1.40</speed></extensions>
      </trkpt>
      <trkpt lat="51.836136000" lon="7.608891000">
        <ele>69.1</ele>
        <time>2017-04-29T04:55:09</time>
        <extensions><speed>1.39</speed></extensions>
      </trkpt>
      <trkpt lat="51.836151000" lon="7.608903000">
        <ele>69.1</ele>
        <time>2017-04-29T04:55:10</time>
        <extensions><speed>1.39</speed></extensions>
      </trkpt>
      <trkpt lat="51.836159000" lon="7.608910000">
        <ele>69.1</ele>
        <time>2017-04-29T04:55:11</time>
        <extensions><speed>1.32</speed></extensions>
      </trkpt>
      <trkpt lat="51.836166000" lon="7.608921000">
        <ele>69.0</ele>
        <time>2017-04-29T04:55:12</time>
        <extensions><speed>1.35</speed></extensions>
      </trkpt>
      <trkpt lat="51.836182000" lon="7.608930000">
        <ele>69.0</ele>
        <time>2017-04-29T04:55:13</time>
        <extensions><speed>1.37</speed></extensions>
      </trkpt>
      <trkpt lat="51.836193000" lon="7.608942000">
        <ele>69.0</ele>
        <time>2017-04-29T04:55:14</time>
        <extensions><speed>1.35</speed></extensions>
      </trkpt>
      <trkpt lat="51.836205000" lon="7.608949000">
        <ele>68.9</ele>
        <time>2017-04-29T04:55:15</time>
        <extensions><speed>1.40</speed></extensions>
      </trkpt>
      <trkpt lat="51.836220000" lon="7.608955000">
        <ele>68.9</ele>
        <time>2017-04-29T04:55:16</time>
        <extensions><speed>1.41</speed></extensions>
      </trkpt>
      <trkpt lat="51.836227000" lon="7.608963000">
        <ele>68.9</ele>
        <time>2017-04-29T04:55:17</time>
        <extensions><speed>1.46</speed></extensions>
      </trkpt>
      <trkpt lat="51.836243000" lon="7.608970000">
        <ele>68.8</ele>
        <time>2017-04-29T04:55:18</time>
        <extensions><speed>1.46</speed></extensions>
      </trkpt>
      <trkpt lat="51.836254000" lon="7.608975000">
        <ele>68.8</ele>
        <time>2017-04-29T04:55:19</time>
        <extensions><speed>1.46</speed></extensions>
      </trkpt>
      <trkpt lat="51.836269000" lon="7.608978000">
        <ele>68.8</ele>
        <time>2017-04-29T04:55:20</time>
        <extensions><speed>1.47</speed></extensions>
      </trkpt>
      <trkpt lat="51.836285000" lon="7.608984000">
        <ele>68.7</ele>
        <time>2017-04-29T04:55:21</time>
        <extensions><speed>1.47</speed></extensions>
      </trkpt>
      <trkpt lat="51.836296000" lon="7.608989000">
        <ele>68.7</ele>
        <time>2017-04-29T04:55:22</time>
        <extensions><speed>1.38</speed></extensions>
      </trkpt>
      <trkpt lat="51.836308000" lon="7.608994000">
        <ele>68.7</ele>
        <time>2017-04-29T04:55:23</time>
        <extensions><speed>1.33</speed></extensions>
      </trkpt>
      <trkpt lat="51.836319000" lon="7.609003000">
        <ele>68.7</ele>
        <time>2017-04-29T04:55:24</time>
        <extensions><speed>1.39</speed></extensions>
      </trkpt>
      <trkpt lat="51.836334000" lon="7.609012000">
        <ele>68.7</ele>
        <time>2017-04-29T04:55:25</time>
        <extensions><speed>1.39</speed></extensions>
      </trkpt>
      <trkpt lat="51.836349000" lon="7.609020000">
        <ele>68.7</ele>
        <time>2017-04-29T04:55:26</time>
        <extensions><speed>1.46</speed></extensions>
      </trkpt>
      <trkpt lat="51.836369000" lon="7.609026000">
        <ele>68.7</ele>
        <time>2017-04-29T04:55:27</time>
        <extensions><speed>1.48</speed></extensions>
      </trkpt>
      <trkpt lat="51.836380000" lon="7.609035000">
        <ele>68.7</ele>
        <time>2017-04-29T04:55:28</time>
        <extensions><speed>1.48</speed></extensions>
      </trkpt>
      <trkpt lat="51.836395000" lon="7.609042000">
        <ele>68.7</ele>
        <time>2017-04-29T04:55:29</time>
        <extensions><speed>1.56</speed></extensions>
      </trkpt>
      <trkpt lat="51.836411000" lon="7.609050000">
        <ele>68.7</ele>
        <time>2017-04-29T04:55:30</time>
        <extensions><speed>1.53</speed></extensions>
      </trkpt>
      <trkpt lat="51.836422000" lon="7.609059000">
        <ele>68.7</ele>
        <time>2017-04-29T04:55:31</time>
        <extensions><speed>1.45</speed></extensions>
      </trkpt>
      <trkpt lat="51.836433000" lon="7.609066000">
        <ele>68.7</ele>
        <time>2017-04-29T04:55:32</time>
        <extensions><speed>1.45</speed></extensions>
      </trkpt>
      <trkpt lat="51.836449000" lon="7.609072000">
        <ele>68.7</ele>
        <time>2017-04-29T04:55:33</time>
        <extensions><speed>1.45</speed></extensions>
      </trkpt>
      <trkpt lat="51.836456000" lon="7.609075000">
        <ele>68.7</ele>
        <time>2017-04-29T04:55:34</time>
        <extensions><speed>1.41</speed></extensions>
      </trkpt>
      <trkpt lat="51.836468000" lon="7.609084000">
        <ele>68.8</ele>
        <time>2017-04-29T04:55:35</time>
        <extensions><speed>1.36</speed></extensions>
      </trkpt>
      <trkpt lat="51.836479000" lon="7.609090000">
        <ele>68.8</ele>
        <time>2017-04-29T04:55:36</time>
        <extensions><speed>1.34</speed></extensions>
      </trkpt>
      <trkpt lat="51.836494000" lon="7.609098000">
        <ele>68.8</ele>
        <time>2017-04-29T04:55:37</time>
        <extensions><speed>1.34</speed></extensions>
      </trkpt>
      <trkpt lat="51.836506000" lon="7.609108000">
        <ele>68.8</ele>
        <time>2017-04-29T04:55:38</time>
        <extensions><speed>1.29</speed></extensions>
      </trkpt>
      <trkpt lat="51.836514000" lon="7.609120000">
        <ele>68.8</ele>
        <time>2017-04-29T04:55:39</time>
        <extensions><speed>1.40</speed></extensions>
      </trkpt>
      <trkpt lat="51.836525000" lon="7.609127000">
        <ele>68.8</ele>
        <time>2017-04-29T04:55:40</time>
        <extensions><speed>1.43</speed></extensions>
      </trkpt>
      <trkpt lat="51.836536000" lon="7.609131000">
        <ele>68.8</ele>
        <time>2017-04-29T04:55:41</time>
        <extensions><speed>1.44</speed></extensions>
      </trkpt>
      <trkpt lat="51.836548000" lon="7.609138000">
        <ele>68.8</ele>
        <time>2017-04-29T04:55:42</time>
        <extensions><speed>1.41</speed></extensions>
      </trkpt>
      <trkpt lat="51.836563000" lon="7.609147000">
        <ele>68.8</ele>
        <time>2017-04-29T04:55:43</time>
        <extensions><speed>1.45</speed></extensions>
      </trkpt>
      <trkpt lat="51.836578000" lon="7.609155000">
        <ele>68.8</ele>
        <time>2017-04-29T04:55:44</time>
        <extensions><speed>1.43</speed></extensions>
      </trkpt>
      <trkpt lat="51.836590000" lon="7.609162000">
        <ele>68.8</ele>
        <time>2017-04-29T04:55:45</time>
        <extensions><speed>1.47</speed></extensions>
      </trkpt>
      <trkpt lat="51.836605000" lon="7.609165000">
        <ele>68.8</ele>
        <time>2017-04-29T04:55:46</time>
        <extensions><speed>1.50</speed></extensions>
      </trkpt>
      <trkpt lat="51.836617000" lon="7.609169000">
        <ele>68.8</ele>
        <time>2017-04-29T04:55:47</time>
        <extensions><speed>1.49</speed></extensions>
      </trkpt>
      <trkpt lat="51.836632000" lon="7.609177000">
        <ele>68.8</ele>
        <time>2017-04-29T04:55:48</time>
        <extensions><speed>1.46</speed></extensions>
      </trkpt>
      <trkpt lat="51.836643000" lon="7.609183000">
        <ele>68.8</ele>
        <time>2017-04-29T04:55:49</time>
        <extensions><speed>1.44</speed></extensions>
      </trkpt>
      <trkpt lat="51.836658000" lon="7.609192000">
        <ele>68.9</ele>
        <time>2017-04-29T04:55:50</time>
        <extensions><speed>1.42</speed></extensions>
      </trkpt>
      <trkpt lat="51.836670000" lon="7.609203000">
        <ele>68.9</ele>
        <time>2017-04-29T04:55:51</time>
        <extensions><speed>1.37</speed></extensions>
      </trkpt>
      <trkpt lat="51.836678000" lon="7.609213000">
        <ele>68.9</ele>
        <time>2017-04-29T04:55:52</time>
        <extensions><speed>1.36</speed></extensions>
      </trkpt>
      <trkpt lat="51.836693000" lon="7.609220000">
        <ele>68.9</ele>
        <time>2017-04-29T04:55:53</time>
        <extensions><speed>1.40</speed></extensions>
      </trkpt>
      <trkpt lat="51.836708000" lon="7.609225000">
        <ele>68.9</ele>
        <time>2017-04-29T04:55:54</time>
        <extensions><speed>1.43</speed></extensions>
      </trkpt>
      <trkpt lat="51.836720000" lon="7.609234000">
        <ele>68.9</ele>
        <time>2017-04-29T04:55:55</time>
        <extensions><speed>1.43</speed></extensions>
      </trkpt>
      <trkpt lat="51.836731000" lon="7.609240000">
        <ele>68.9</ele>
        <time>2017-04-29T04:55:56</time>
        <extensions><speed>1.42</speed></extensions>
      </trkpt>
      <trkpt lat="51.836742000" lon="7.609245000">
        <ele>68.9</ele>
        <time>2017-04-29T04:55:57</time>
        <extensions><speed>1.42</speed></extensions>
      </trkpt>
      <trkpt lat="51.836754000" lon="7.609250000">
        <ele>68.9</ele>
        <time>2017-04-29T04:55:58</time>
        <extensions><speed>1.40</speed></extensions>
      </trkpt>
      <trkpt lat="51.836769000" lon="7.609255000">
        <ele>68.9</ele>
        <time>2017-04-29T04:55:59</time>
        <extensions><speed>1.39</speed></extensions>
      </trkpt>
      <trkpt lat="51.836781000" lon="7.609262000">
        <ele>68.9</ele>
        <time>2017-04-29T04:56:00</time>
        <extensions><speed>1.37</speed></extensions>
      </trkpt>
      <trkpt lat="51.836792000" lon="7.609270000">
        <ele>68.9</ele>
        <time>2017-04-29T04:56:01</time>
        <extensions><speed>1.41</speed></extensions>
      </trkpt>
      <trkpt lat="51.836803000" lon="7.609275000">
        <ele>69.0</ele>
        <time>2017-04-29T04:56:02</time>
        <extensions><speed>1.41</speed></extensions>
      </trkpt>
      <trkpt lat="51.836815000" lon="7.609276000">
        <ele>69.0</ele>
        <time>2017-04-29T04:56:03</time>
        <extensions><speed>1.36</speed></extensions>
      </trkpt>
      <trkpt lat="51.836826000" lon="7.609282000">
        <ele>69.0</ele>
        <time>2017-04-29T04:56:04</time>
        <extensions><speed>1.31</speed></extensions>
      </trkpt>
      <trkpt lat="51.836838000" lon="7.609292000">
        <ele>69.0</ele>
        <time>2017-04-29T04:56:05</time>
        <extensions><speed>1.38</speed></extensions>
      </trkpt>
      <trkpt lat="51.836849000" lon="7.609300000">
        <ele>69.0</ele>
        <time>2017-04-29T04:56:06</time>
        <extensions><speed>1.27</speed></extensions>
      </trkpt>
      <trkpt lat="51.836861000" lon="7.609306000">
        <ele>69.0</ele>
        <time>2017-04-29T04:56:07</time>
        <extensions><speed>1.27</speed></extensions>
      </trkpt>
      <trkpt lat="51.836872000" lon="7.609315000">
        <ele>69.0</ele>
        <time>2017-04-29T04:56:08</time>
        <extensions><speed>1.28</speed></extensions>
      </trkpt>
      <trkpt lat="51.836880000" lon="7.609325000">
        <ele>69.0</ele>
        <time>2017-04-29T04:56:09</time>
        <extensions><speed>1.30</speed></extensions>
      </trkpt>
      <trkpt lat="51.836891000" lon="7.609335000">
        <ele>69.0</ele>
        <time>2017-04-29T04:56:10</time>
        <extensions><speed>1.30</speed></extensions>
      </trkpt>
      <trkpt lat="51.836903000" lon="7.609340000">
        <ele>69.0</ele>
        <time>2017-04-29T04:56:11</time>
        <extensions><speed>1.34</speed></extensions>
      </trkpt>
      <trkpt lat="51.836918000" lon="7.609346000">
        <ele>69.0</ele>
        <time>2017-04-29T04:56:12</time>
        <extensions><speed>1.42</speed></extensions>
      </trkpt>
      <trkpt lat="51.836929000" lon="7.609350000">
        <ele>69.0</ele>
        <time>2017-04-29T04:56:13</time>
        <extensions><speed>1.42</speed></extensions>
      </trkpt>
      <trkpt lat="51.836941000" lon="7.609353000">
        <ele>69.0</ele>
        <time>2017-04-29T04:56:14</time>
        <extensions><speed>1.41</speed></extensions>
      </trkpt>
      <trkpt lat="51.836952000" lon="7.609360000">
        <ele>69.1</ele>
        <time>2017-04-29T04:56:15</time>
        <extensions><speed>1.33</speed></extensions>
      </trkpt>
      <trkpt lat="51.836964000" lon="7.609367000">
        <ele>69.1</ele>
        <time>2017-04-29T04:56:16</time>
        <extensions><speed>1.21</speed></extensions>
      </trkpt>
      <trkpt lat="51.836971000" lon="7.609374000">
        <ele>69.1</ele>
        <time>2017-04-29T04:56:17</time>
        <extensions><speed>1.14</speed></extensions>
      </trkpt>
      <trkpt lat="51.836983000" lon="7.609381000">
        <ele>69.1</ele>
        <time>2017-04-29T04:56:18</time>
        <extensions><speed>1.14</speed></extensions>
      </trkpt>
      <trkpt lat="51.836994000" lon="7.609392000">
        <ele>69.1</ele>
        <time>2017-04-29T04:56:19</time>
        <extensions><speed>1.20</speed></extensions>
      </trkpt>
      <trkpt lat="51.837002000" lon="7.609400000">
        <ele>69.1</ele>
        <time>2017-04-29T04:56:20</time>
        <extensions><speed>1.26</speed></extensions>
      </trkpt>
      <trkpt lat="51.837017000" lon="7.609409000">
        <ele>69.1</ele>
        <time>2017-04-29T04:56:21</time>
        <extensions><speed>1.32</speed></extensions>
      </trkpt>
      <trkpt lat="51.837032000" lon="7.609416000">
        <ele>69.0</ele>
        <time>2017-04-29T04:56:22</time>
        <extensions><speed>1.35</speed></extensions>
      </trkpt>
      <trkpt lat="51.837044000" lon="7.609423000">
        <ele>69.0</ele>
        <time>2017-04-29T04:56:23</time>
        <extensions><speed>1.38</speed></extensions>
      </trkpt>
      <trkpt lat="51.837055000" lon="7.609428000">
        <ele>69.0</ele>
        <time>2017-04-29T04:56:24</time>
        <extensions><speed>1.38</speed></extensions>
      </trkpt>
      <trkpt lat="51.837067000" lon="7.609435000">
        <ele>69.0</ele>
        <time>2017-04-29T04:56:25</time>
        <extensions><speed>1.46</speed></extensions>
      </trkpt>
      <trkpt lat="51.837074000" lon="7.609442000">
        <ele>69.0</ele>
        <time>2017-04-29T04:56:26</time>
        <extensions><speed>1.43</speed></extensions>
      </trkpt>
      <trkpt lat="51.837090000" lon="7.609448000">
        <ele>69.0</ele>
        <time>2017-04-29T04:56:27</time>
        <extensions><speed>1.43</speed></extensions>
      </trkpt>
      <trkpt lat="51.837101000" lon="7.609458000">
        <ele>69.0</ele>
        <time>2017-04-29T04:56:28</time>
        <extensions><speed>1.33</speed></extensions>
      </trkpt>
      <trkpt lat="51.837116000" lon="7.609467000">
        <ele>69.0</ele>
        <time>2017-04-29T04:56:29</time>
        <extensions><speed>1.35</speed></extensions>
      </trkpt>
      <trkpt lat="51.837128000" lon="7.609475000">
        <ele>69.0</ele>
        <time>2017-04-29T04:56:30</time>
        <extensions><speed>1.35</speed></extensions>
      </trkpt>
      <trkpt lat="51.837135000" lon="7.609481000">
        <ele>69.0</ele>
        <time>2017-04-29T04:56:31</time>
        <extensions><speed>1.40</speed></extensions>
      </trkpt>
      <trkpt lat="51.837147000" lon="7.609488000">
        <ele>68.9</ele>
        <time>2017-04-29T04:56:32</time>
        <extensions><speed>1.35</speed></extensions>
      </trkpt>
      <trkpt lat="51.837162000" lon="7.609495000">
        <ele>68.9</ele>
        <time>2017-04-29T04:56:33</time>
        <extensions><speed>1.40</speed></extensions>
      </trkpt>
      <trkpt lat="51.837173000" lon="7.609502000">
        <ele>68.9</ele>
        <time>2017-04-29T04:56:34</time>
        <extensions><speed>1.41</speed></extensions>
      </trkpt>
      <trkpt lat="51.837185000" lon="7.609512000">
        <ele>68.9</ele>
        <time>2017-04-29T04:56:35</time>
        <extensions><speed>1.36</speed></extensions>
      </trkpt>
      <trkpt lat="51.837196000" lon="7.609521000">
        <ele>68.9</ele>
        <time>2017-04-29T04:56:36</time>
        <extensions><speed>1.36</speed></extensions>
      </trkpt>
      <trkpt lat="51.837212000" lon="7.609530000">
        <ele>68.9</ele>
        <time>2017-04-29T04:56:37</time>
        <extensions><speed>1.39</speed></extensions>
      </trkpt>
      <trkpt lat="51.837227000" lon="7.609537000">
        <ele>68.9</ele>
        <time>2017-04-29T04:56:38</time>
        <extensions><speed>1.34</speed></extensions>
      </trkpt>
      <trkpt lat="51.837238000" lon="7.609544000">
        <ele>68.9</ele>
        <time>2017-04-29T04:56:39</time>
        <extensions><speed>1.29</speed></extensions>
      </trkpt>
      <trkpt lat="51.837250000" lon="7.609553000">
        <ele>68.9</ele>
        <time>2017-04-29T04:56:40</time>
        <extensions><speed>1.30</speed></extensions>
      </trkpt>
      <trkpt lat="51.837261000" lon="7.609565000">
        <ele>68.8</ele>
        <time>2017-04-29T04:56:41</time>
        <extensions><speed>1.30</speed></extensions>
      </trkpt>
      <trkpt lat="51.837273000" lon="7.609577000">
        <ele>68.8</ele>
        <time>2017-04-29T04:56:42</time>
        <extensions><speed>1.31</speed></extensions>
      </trkpt>
      <trkpt lat="51.837288000" lon="7.609583000">
        <ele>68.8</ele>
        <time>2017-04-29T04:56:43</time>
        <extensions><speed>1.37</speed></extensions>
      </trkpt>
      <trkpt lat="51.837296000" lon="7.609588000">
        <ele>68.8</ele>
        <time>2017-04-29T04:56:44</time>
        <extensions><speed>1.37</speed></extensions>
      </trkpt>
      <trkpt lat="51.837311000" lon="7.609591000">
        <ele>68.8</ele>
        <time>2017-04-29T04:56:45</time>
        <extensions><speed>1.36</speed></extensions>
      </trkpt>
      <trkpt lat="51.837326000" lon="7.609595000">
        <ele>68.8</ele>
        <time>2017-04-29T04:56:46</time>
        <extensions><speed>1.33</speed></extensions>
      </trkpt>
      <trkpt lat="51.837337000" lon="7.609598000">
        <ele>68.8</ele>
        <time>2017-04-29T04:56:47</time>
        <extensions><speed>1.33</speed></extensions>
      </trkpt>
      <trkpt lat="51.837353000" lon="7.609601000">
        <ele>68.8</ele>
        <time>2017-04-29T04:56:48</time>
        <extensions><speed>1.32</speed></extensions>
      </trkpt>
      <trkpt lat="51.837364000" lon="7.609607000">
        <ele>68.7</ele>
        <time>2017-04-29T04:56:49</time>
        <extensions><speed>1.34</speed></extensions>
      </trkpt>
      <trkpt lat="51.837379000" lon="7.609609000">
        <ele>68.7</ele>
        <time>2017-04-29T04:56:50</time>
        <extensions><speed>1.34</speed></extensions>
      </trkpt>
      <trkpt lat="51.837395000" lon="7.609612000">
        <ele>68.7</ele>
        <time>2017-04-29T04:56:51</time>
        <extensions><speed>1.38</speed></extensions>
      </trkpt>
      <trkpt lat="51.837406000" lon="7.609613000">
        <ele>68.7</ele>
        <time>2017-04-29T04:56:52</time>
        <extensions><speed>1.34</speed></extensions>
      </trkpt>
      <trkpt lat="51.837418000" lon="7.609615000">
        <ele>68.7</ele>
        <time>2017-04-29T04:56:53</time>
        <extensions><speed>1.27</speed></extensions>
      </trkpt>
      <trkpt lat="51.837425000" lon="7.609617000">
        <ele>68.7</ele>
        <time>2017-04-29T04:56:54</time>
        <extensions><speed>1.11</speed></extensions>
      </trkpt>
      <trkpt lat="51.837540000" lon="7.609703000">
        <ele>68.7</ele>
        <time>2017-04-29T04:57:14</time>
      </trkpt>
      <trkpt lat="51.837551000" lon="7.609710000">
        <ele>68.6</ele>
        <time>2017-04-29T04:57:16</time>
        <extensions><speed>1.39</speed></extensions>
      </trkpt>
      <trkpt lat="51.837559000" lon="7.609717000">
        <ele>68.6</ele>
        <time>2017-04-29T04:57:17</time>
        <extensions><speed>1.38</speed></extensions>
      </trkpt>
      <trkpt lat="51.837574000" lon="7.609723000">
        <ele>68.6</ele>
        <time>2017-04-29T04:57:18</time>
        <extensions><speed>1.38</speed></extensions>
      </trkpt>
      <trkpt lat="51.837589000" lon="7.609732000">
        <ele>68.6</ele>
        <time>2017-04-29T04:57:19</time>
        <extensions><speed>1.45</speed></extensions>
      </trkpt>
      <trkpt lat="51.837605000" lon="7.609738000">
        <ele>68.6</ele>
        <time>2017-04-29T04:57:20</time>
        <extensions><speed>1.48</speed></extensions>
      </trkpt>
      <trkpt lat="51.837620000" lon="7.609747000">
        <ele>68.6</ele>
        <time>2017-04-29T04:57:21</time>
        <extensions><speed>1.52</speed></extensions>
      </trkpt>
      <trkpt lat="51.837631000" lon="7.609757000">
        <ele>68.6</ele>
        <time>2017-04-29T04:57:22</time>
        <extensions><speed>1.52</speed></extensions>
      </trkpt>
      <trkpt lat="51.837643000" lon="7.609765000">
        <ele>68.5</ele>
        <time>2017-04-29T04:57:23</time>
        <extensions><speed>1.47</speed></extensions>
      </trkpt>
      <trkpt lat="51.837654000" lon="7.609776000">
        <ele>68.5</ele>
        <time>2017-04-29T04:57:24</time>
        <extensions><speed>1.45</speed></extensions>
      </trkpt>
      <trkpt lat="51.837666000" lon="7.609790000">
        <ele>68.5</ele>
        <time>2017-04-29T04:57:25</time>
        <extensions><speed>1.45</speed></extensions>
      </trkpt>
      <trkpt lat="51.837681000" lon="7.609798000">
        <ele>68.5</ele>
        <time>2017-04-29T04:57:26</time>
        <extensions><speed>1.45</speed></extensions>
      </trkpt>
      <trkpt lat="51.837692000" lon="7.609805000">
        <ele>68.4</ele>
        <time>2017-04-29T04:57:27</time>
        <extensions><speed>1.44</speed></extensions>
      </trkpt>
      <trkpt lat="51.837708000" lon="7.609815000">
        <ele>68.3</ele>
        <time>2017-04-29T04:57:28</time>
        <extensions><speed>1.47</speed></extensions>
      </trkpt>
      <trkpt lat="51.837719000" lon="7.609826000">
        <ele>68.3</ele>
        <time>2017-04-29T04:57:29</time>
        <extensions><speed>1.47</speed></extensions>
      </trkpt>
      <trkpt lat="51.837734000" lon="7.609835000">
        <ele>68.2</ele>
        <time>2017-04-29T04:57:30</time>
        <extensions><speed>1.46</speed></extensions>
      </trkpt>
      <trkpt lat="51.837749000" lon="7.609845000">
        <ele>68.1</ele>
        <time>2017-04-29T04:57:31</time>
        <extensions><speed>1.42</speed></extensions>
      </trkpt>
      <trkpt lat="51.837757000" lon="7.609854000">
        <ele>68.0</ele>
        <time>2017-04-29T04:57:32</time>
        <extensions><speed>1.42</speed></extensions>
      </trkpt>
      <trkpt lat="51.837772000" lon="7.609865000">
        <ele>67.9</ele>
        <time>2017-04-29T04:57:33</time>
        <extensions><speed>1.39</speed></extensions>
      </trkpt>
      <trkpt lat="51.837784000" lon="7.609873000">
        <ele>67.8</ele>
        <time>2017-04-29T04:57:34</time>
        <extensions><speed>1.39</speed></extensions>
      </trkpt>
      <trkpt lat="51.837799000" lon="7.609882000">
        <ele>67.7</ele>
        <time>2017-04-29T04:57:35</time>
        <extensions><speed>1.43</speed></extensions>
      </trkpt>
      <trkpt lat="51.837814000" lon="7.609889000">
        <ele>67.6</ele>
        <time>2017-04-29T04:57:36</time>
        <extensions><speed>1.48</speed></extensions>
      </trkpt>
      <trkpt lat="51.837830000" lon="7.609898000">
        <ele>67.5</ele>
        <time>2017-04-29T04:57:37</time>
        <extensions><speed>1.53</speed></extensions>
      </trkpt>
      <trkpt lat="51.837841000" lon="7.609908000">
        <ele>67.4</ele>
        <time>2017-04-29T04:57:38</time>
        <extensions><speed>1.53</speed></extensions>
      </trkpt>
      <trkpt lat="51.837852000" lon="7.609919000">
        <ele>67.3</ele>
        <time>2017-04-29T04:57:39</time>
        <extensions><speed>1.49</speed></extensions>
      </trkpt>
      <trkpt lat="51.837864000" lon="7.609925000">
        <ele>67.2</ele>
        <time>2017-04-29T04:57:40</time>
        <extensions><speed>1.45</speed></extensions>
      </trkpt>
      <trkpt lat="51.837879000" lon="7.609931000">
        <ele>67.1</ele>
        <time>2017-04-29T04:57:41</time>
        <extensions><speed>1.36</speed></extensions>
      </trkpt>
      <trkpt lat="51.837891000" lon="7.609938000">
        <ele>67.0</ele>
        <time>2017-04-29T04:57:42</time>
        <extensions><speed>1.36</speed></extensions>
      </trkpt>
      <trkpt lat="51.837906000" lon="7.609941000">
        <ele>66.9</ele>
        <time>2017-04-29T04:57:43</time>
        <extensions><speed>1.41</speed></extensions>
      </trkpt>
      <trkpt lat="51.837917000" lon="7.609948000">
        <ele>66.8</ele>
        <time>2017-04-29T04:57:44</time>
        <extensions><speed>1.45</speed></extensions>
      </trkpt>
      <trkpt lat="51.837936000" lon="7.609959000">
        <ele>66.7</ele>
        <time>2017-04-29T04:57:45</time>
        <extensions><speed>1.50</speed></extensions>
      </trkpt>
      <trkpt lat="51.837948000" lon="7.609970000">
        <ele>66.7</ele>
        <time>2017-04-29T04:57:46</time>
        <extensions><speed>1.54</speed></extensions>
      </trkpt>
      <trkpt lat="51.837963000" lon="7.609978000">
        <ele>66.6</ele>
        <time>2017-04-29T04:57:47</time>
        <extensions><speed>1.54</speed></extensions>
      </trkpt>
      <trkpt lat="51.837975000" lon="7.609987000">
        <ele>66.5</ele>
        <time>2017-04-29T04:57:48</time>
        <extensions><speed>1.54</speed></extensions>
      </trkpt>
      <trkpt lat="51.837990000" lon="7.609997000">
        <ele>66.4</ele>
        <time>2017-04-29T04:57:49</time>
        <extensions><speed>1.52</speed></extensions>
      </trkpt>
      <trkpt lat="51.838005000" lon="7.610003000">
        <ele>66.3</ele>
        <time>2017-04-29T04:57:50</time>
        <extensions><speed>1.51</speed></extensions>
      </trkpt>
      <trkpt lat="51.838013000" lon="7.610010000">
        <ele>66.2</ele>
        <time>2017-04-29T04:57:51</time>
        <extensions><speed>1.51</speed></extensions>
      </trkpt>
      <trkpt lat="51.838028000" lon="7.610015000">
        <ele>66.2</ele>
        <time>2017-04-29T04:57:52</time>
        <extensions><speed>1.53</speed></extensions>
      </trkpt>
      <trkpt lat="51.838043000" lon="7.610020000">
        <ele>66.1</ele>
        <time>2017-04-29T04:57:53</time>
        <extensions><speed>1.54</speed></extensions>
      </trkpt>
      <trkpt lat="51.838055000" lon="7.610025000">
        <ele>66.0</ele>
        <time>2017-04-29T04:57:54</time>
        <extensions><speed>1.51</speed></extensions>
      </trkpt>
      <trkpt lat="51.838070000" lon="7.610034000">
        <ele>65.9</ele>
        <time>2017-04-29T04:57:55</time>
        <extensions><speed>1.51</speed></extensions>
      </trkpt>
      <trkpt lat="51.838081000" lon="7.610042000">
        <ele>65.8</ele>
        <time>2017-04-29T04:57:56</time>
        <extensions><speed>1.48</speed></extensions>
      </trkpt>
      <trkpt lat="51.838097000" lon="7.610046000">
        <ele>65.7</ele>
        <time>2017-04-29T04:57:57</time>
        <extensions><speed>1.41</speed></extensions>
      </trkpt>
      <trkpt lat="51.838112000" lon="7.610055000">
        <ele>65.6</ele>
        <time>2017-04-29T04:57:58</time>
        <extensions><speed>1.41</speed></extensions>
      </trkpt>
      <trkpt lat="51.838120000" lon="7.610064000">
        <ele>65.5</ele>
        <time>2017-04-29T04:57:59</time>
        <extensions><speed>1.42</speed></extensions>
      </trkpt>
      <trkpt lat="51.838135000" lon="7.610071000">
        <ele>65.4</ele>
        <time>2017-04-29T04:58:00</time>
        <extensions><speed>1.44</speed></extensions>
      </trkpt>
      <trkpt lat="51.838146000" lon="7.610080000">
        <ele>65.3</ele>
        <time>2017-04-29T04:58:01</time>
        <extensions><speed>1.46</speed></extensions>
      </trkpt>
      <trkpt lat="51.838161000" lon="7.610088000">
        <ele>65.3</ele>
        <time>2017-04-29T04:58:02</time>
        <extensions><speed>1.49</speed></extensions>
      </trkpt>
      <trkpt lat="51.838177000" lon="7.610097000">
        <ele>65.2</ele>
        <time>2017-04-29T04:58:03</time>
        <extensions><speed>1.48</speed></extensions>
      </trkpt>
      <trkpt lat="51.838184000" lon="7.610106000">
        <ele>65.1</ele>
        <time>2017-04-29T04:58:04</time>
        <extensions><speed>1.47</speed></extensions>
      </trkpt>
      <trkpt lat="51.838200000" lon="7.610116000">
        <ele>65.0</ele>
        <time>2017-04-29T04:58:05</time>
        <extensions><speed>1.47</speed></extensions>
      </trkpt>
      <trkpt lat="51.838211000" lon="7.610125000">
        <ele>64.9</ele>
        <time>2017-04-29T04:58:06</time>
        <extensions><speed>1.45</speed></extensions>
      </trkpt>
      <trkpt lat="51.838226000" lon="7.610134000">
        <ele>64.9</ele>
        <time>2017-04-29T04:58:07</time>
        <extensions><speed>1.45</speed></extensions>
      </trkpt>
      <trkpt lat="51.838238000" lon="7.610145000">
        <ele>64.8</ele>
        <time>2017-04-29T04:58:08</time>
        <extensions><speed>1.43</speed></extensions>
      </trkpt>
      <trkpt lat="51.838245000" lon="7.610157000">
        <ele>64.7</ele>
        <time>2017-04-29T04:58:09</time>
        <extensions><speed>1.44</speed></extensions>
      </trkpt>
      <trkpt lat="51.838261000" lon="7.610172000">
        <ele>64.6</ele>
        <time>2017-04-29T04:58:10</time>
        <extensions><speed>1.48</speed></extensions>
      </trkpt>
      <trkpt lat="51.838272000" lon="7.610185000">
        <ele>64.5</ele>
        <time>2017-04-29T04:58:11</time>
        <extensions><speed>1.50</speed></extensions>
      </trkpt>
      <trkpt lat="51.838284000" lon="7.610198000">
        <ele>64.4</ele>
        <time>2017-04-29T04:58:12</time>
        <extensions><speed>1.50</speed></extensions>
      </trkpt>
      <trkpt lat="51.838295000" lon="7.610213000">
        <ele>64.3</ele>
        <time>2017-04-29T04:58:13</time>
        <extensions><speed>1.51</speed></extensions>
      </trkpt>
      <trkpt lat="51.838303000" lon="7.610233000">
        <ele>64.3</ele>
        <time>2017-04-29T04:58:14</time>
        <extensions><speed>1.50</speed></extensions>
      </trkpt>
      <trkpt lat="51.838306000" lon="7.610255000">
        <ele>64.2</ele>
        <time>2017-04-29T04:58:15</time>
        <extensions><speed>1.48</speed></extensions>
      </trkpt>
      <trkpt lat="51.838306000" lon="7.610279000">
        <ele>64.1</ele>
        <time>2017-04-29T04:58:16</time>
        <extensions><speed>1.44</speed></extensions>
      </trkpt>
      <trkpt lat="51.838306000" lon="7.610302000">
        <ele>64.0</ele>
        <time>2017-04-29T04:58:17</time>
        <extensions><speed>1.45</speed></extensions>
      </trkpt>
      <trkpt lat="51.838306000" lon="7.610328000">
        <ele>63.9</ele>
        <time>2017-04-29T04:58:18</time>
        <extensions><speed>1.45</speed></extensions>
      </trkpt>
      <trkpt lat="51.838299000" lon="7.610350000">
        <ele>63.9</ele>
        <time>2017-04-29T04:58:19</time>
        <extensions><speed>1.49</speed></extensions>
      </trkpt>
      <trkpt lat="51.838291000" lon="7.610370000">
        <ele>63.8</ele>
        <time>2017-04-29T04:58:20</time>
        <extensions><speed>1.49</speed></extensions>
      </trkpt>
      <trkpt lat="51.838284000" lon="7.610386000">
        <ele>63.8</ele>
        <time>2017-04-29T04:58:21</time>
        <extensions><speed>1.50</speed></extensions>
      </trkpt>
      <trkpt lat="51.838272000" lon="7.610405000">
        <ele>63.7</ele>
        <time>2017-04-29T04:58:22</time>
        <extensions><speed>1.49</speed></extensions>
      </trkpt>
      <trkpt lat="51.838272000" lon="7.610421000">
        <ele>63.7</ele>
        <time>2017-04-29T04:58:23</time>
        <extensions><speed>1.46</speed></extensions>
      </trkpt>
      <trkpt lat="51.838264000" lon="7.610440000">
        <ele>63.7</ele>
        <time>2017-04-29T04:58:24</time>
        <extensions><speed>1.44</speed></extensions>
      </trkpt>
      <trkpt lat="51.838253000" lon="7.610455000">
        <ele>63.7</ele>
        <time>2017-04-29T04:58:25</time>
        <extensions><speed>1.45</speed></extensions>
      </trkpt>
      <trkpt lat="51.838245000" lon="7.610472000">
        <ele>63.7</ele>
        <time>2017-04-29T04:58:26</time>
        <extensions><speed>1.42</speed></extensions>
      </trkpt>
      <trkpt lat="51.838242000" lon="7.610491000">
        <ele>63.7</ele>
        <time>2017-04-29T04:58:27</time>
        <extensions><speed>1.41</speed></extensions>
      </trkpt>
      <trkpt lat="51.838234000" lon="7.610508000">
        <ele>63.7</ele>
        <time>2017-04-29T04:58:28</time>
        <extensions><speed>1.41</speed></extensions>
      </trkpt>
      <trkpt lat="51.838226000" lon="7.610525000">
        <ele>63.7</ele>
        <time>2017-04-29T04:58:29</time>
        <extensions><speed>1.42</speed></extensions>
      </trkpt>
      <trkpt lat="51.838219000" lon="7.610542000">
        <ele>63.7</ele>
        <time>2017-04-29T04:58:30</time>
        <extensions><speed>1.42</speed></extensions>
      </trkpt>
      <trkpt lat="51.838207000" lon="7.610558000">
        <ele>63.7</ele>
        <time>2017-04-29T04:58:31</time>
        <extensions><speed>1.42</speed></extensions>
      </trkpt>
      <trkpt lat="51.838207000" lon="7.610577000">
        <ele>63.7</ele>
        <time>2017-04-29T04:58:32</time>
        <extensions><speed>1.39</speed></extensions>
      </trkpt>
      <trkpt lat="51.838200000" lon="7.610593000">
        <ele>63.7</ele>
        <time>2017-04-29T04:58:33</time>
        <extensions><speed>1.36</speed></extensions>
      </trkpt>
      <trkpt lat="51.838192000" lon="7.610608000">
        <ele>63.7</ele>
        <time>2017-04-29T04:58:34</time>
        <extensions><speed>1.36</speed></extensions>
      </trkpt>
      <trkpt lat="51.838181000" lon="7.610625000">
        <ele>63.8</ele>
        <time>2017-04-29T04:58:35</time>
        <extensions><speed>1.34</speed></extensions>
      </trkpt>
      <trkpt lat="51.838177000" lon="7.610638000">
        <ele>63.8</ele>
        <time>2017-04-29T04:58:36</time>
        <extensions><speed>1.37</speed></extensions>
      </trkpt>
      <trkpt lat="51.838169000" lon="7.610655000">
        <ele>63.8</ele>
        <time>2017-04-29T04:58:37</time>
        <extensions><speed>1.40</speed></extensions>
      </trkpt>
      <trkpt lat="51.838158000" lon="7.610673000">
        <ele>63.8</ele>
        <time>2017-04-29T04:58:38</time>
        <extensions><speed>1.41</speed></extensions>
      </trkpt>
      <trkpt lat="51.838150000" lon="7.610689000">
        <ele>63.8</ele>
        <time>2017-04-29T04:58:39</time>
        <extensions><speed>1.40</speed></extensions>
      </trkpt>
      <trkpt lat="51.838142000" lon="7.610705000">
        <ele>63.8</ele>
        <time>2017-04-29T04:58:40</time>
        <extensions><speed>1.41</speed></extensions>
      </trkpt>
      <trkpt lat="51.838139000" lon="7.610723000">
        <ele>63.8</ele>
        <time>2017-04-29T04:58:41</time>
        <extensions><speed>1.39</speed></extensions>
      </trkpt>
      <trkpt lat="51.838131000" lon="7.610740000">
        <ele>63.8</ele>
        <time>2017-04-29T04:58:42</time>
        <extensions><speed>1.36</speed></extensions>
      </trkpt>
      <trkpt lat="51.838123000" lon="7.610757000">
        <ele>63.8</ele>
        <time>2017-04-29T04:58:43</time>
        <extensions><speed>1.34</speed></extensions>
      </trkpt>
      <trkpt lat="51.838112000" lon="7.610771000">
        <ele>63.8</ele>
        <time>2017-04-29T04:58:44</time>
        <extensions><speed>1.35</speed></extensions>
      </trkpt>
      <trkpt lat="51.838108000" lon="7.610787000">
        <ele>63.8</ele>
        <time>2017-04-29T04:58:45</time>
        <extensions><speed>1.32</speed></extensions>
      </trkpt>
      <trkpt lat="51.838100000" lon="7.610803000">
        <ele>63.8</ele>
        <time>2017-04-29T04:58:46</time>
        <extensions><speed>1.35</speed></extensions>
      </trkpt>
      <trkpt lat="51.838089000" lon="7.610822000">
        <ele>63.8</ele>
        <time>2017-04-29T04:58:47</time>
        <extensions><speed>1.37</speed></extensions>
      </trkpt>
      <trkpt lat="51.838081000" lon="7.610838000">
        <ele>63.8</ele>
        <time>2017-04-29T04:58:48</time>
        <extensions><speed>1.41</speed></extensions>
      </trkpt>
      <trkpt lat="51.838074000" lon="7.610857000">
        <ele>63.8</ele>
        <time>2017-04-29T04:58:49</time>
        <extensions><speed>1.44</speed></extensions>
      </trkpt>
      <trkpt lat="51.838062000" lon="7.610870000">
        <ele>63.8</ele>
        <time>2017-04-29T04:58:50</time>
        <extensions><speed>1.44</speed></extensions>
      </trkpt>
      <trkpt lat="51.838055000" lon="7.610887000">
        <ele>63.8</ele>
        <time>2017-04-29T04:58:51</time>
        <extensions><speed>1.45</speed></extensions>
      </trkpt>
      <trkpt lat="51.838047000" lon="7.610904000">
        <ele>63.9</ele>
        <time>2017-04-29T04:58:52</time>
        <extensions><speed>1.43</speed></extensions>
      </trkpt>
      <trkpt lat="51.838039000" lon="7.610922000">
        <ele>63.9</ele>
        <time>2017-04-29T04:58:53</time>
        <extensions><speed>1.43</speed></extensions>
      </trkpt>
      <trkpt lat="51.838032000" lon="7.610943000">
        <ele>63.9</ele>
        <time>2017-04-29T04:58:54</time>
        <extensions><speed>1.43</speed></extensions>
      </trkpt>
      <trkpt lat="51.838024000" lon="7.610962000">
        <ele>63.9</ele>
        <time>2017-04-29T04:58:55</time>
        <extensions><speed>1.48</speed></extensions>
      </trkpt>
      <trkpt lat="51.838017000" lon="7.610978000">
        <ele>63.9</ele>
        <time>2017-04-29T04:58:56</time>
        <extensions><speed>1.47</speed></extensions>
      </trkpt>
      <trkpt lat="51.838009000" lon="7.610993000">
        <ele>63.9</ele>
        <time>2017-04-29T04:58:57</time>
        <extensions><speed>1.48</speed></extensions>
      </trkpt>
      <trkpt lat="51.837997000" lon="7.611009000">
        <ele>63.9</ele>
        <time>2017-04-29T04:58:58</time>
        <extensions><speed>1.48</speed></extensions>
      </trkpt>
      <trkpt lat="51.837986000" lon="7.611022000">
        <ele>63.9</ele>
        <time>2017-04-29T04:58:59</time>
        <extensions><speed>1.44</speed></extensions>
      </trkpt>
      <trkpt lat="51.837978000" lon="7.611035000">
        <ele>63.9</ele>
        <time>2017-04-29T04:59:00</time>
        <extensions><speed>1.42</speed></extensions>
      </trkpt>
      <trkpt lat="51.837975000" lon="7.611046000">
        <ele>64.0</ele>
        <time>2017-04-29T04:59:01</time>
        <extensions><speed>1.42</speed></extensions>
      </trkpt>
      <trkpt lat="51.837967000" lon="7.611063000">
        <ele>64.0</ele>
        <time>2017-04-29T04:59:02</time>
        <extensions><speed>1.42</speed></extensions>
      </trkpt>
      <trkpt lat="51.837955000" lon="7.611080000">
        <ele>64.0</ele>
        <time>2017-04-29T04:59:03</time>
        <extensions><speed>1.39</speed></extensions>
      </trkpt>
      <trkpt lat="51.837948000" lon="7.611093000">
        <ele>64.0</ele>
        <time>2017-04-29T04:59:04</time>
        <extensions><speed>1.39</speed></extensions>
      </trkpt>
      <trkpt lat="51.837940000" lon="7.611109000">
        <ele>64.0</ele>
        <time>2017-04-29T04:59:05</time>
        <extensions><speed>1.33</speed></extensions>
      </trkpt>
      <trkpt lat="51.837933000" lon="7.611126000">
        <ele>64.0</ele>
        <time>2017-04-29T04:59:06</time>
        <extensions><speed>1.38</speed></extensions>
      </trkpt>
      <trkpt lat="51.837925000" lon="7.611145000">
        <ele>64.1</ele>
        <time>2017-04-29T04:59:07</time>
        <extensions><speed>1.32</speed></extensions>
      </trkpt>
      <trkpt lat="51.837917000" lon="7.611158000">
        <ele>64.1</ele>
        <time>2017-04-29T04:59:08</time>
        <extensions><speed>1.39</speed></extensions>
      </trkpt>
      <trkpt lat="51.837910000" lon="7.611175000">
        <ele>64.1</ele>
        <time>2017-04-29T04:59:09</time>
        <extensions><speed>1.40</speed></extensions>
      </trkpt>
      <trkpt lat="51.837898000" lon="7.611190000">
        <ele>64.1</ele>
        <time>2017-04-29T04:59:10</time>
        <extensions><speed>1.40</speed></extensions>
      </trkpt>
      <trkpt lat="51.837891000" lon="7.611205000">
        <ele>64.1</ele>
        <time>2017-04-29T04:59:11</time>
        <extensions><speed>1.38</speed></extensions>
      </trkpt>
      <trkpt lat="51.837883000" lon="7.611223000">
        <ele>64.1</ele>
        <time>2017-04-29T04:59:12</time>
        <extensions><speed>1.43</speed></extensions>
      </trkpt>
      <trkpt lat="51.837872000" lon="7.611242000">
        <ele>64.1</ele>
        <time>2017-04-29T04:59:13</time>
        <extensions><speed>1.47</speed></extensions>
      </trkpt>
      <trkpt lat="51.837860000" lon="7.611256000">
        <ele>64.1</ele>
        <time>2017-04-29T04:59:14</time>
        <extensions><speed>1.43</speed></extensions>
      </trkpt>
      <trkpt lat="51.837849000" lon="7.611273000">
        <ele>64.2</ele>
        <time>2017-04-29T04:59:15</time>
        <extensions><speed>1.49</speed></extensions>
      </trkpt>
      <trkpt lat="51.837845000" lon="7.611290000">
        <ele>64.2</ele>
        <time>2017-04-29T04:59:16</time>
        <extensions><speed>1.55</speed></extensions>
      </trkpt>
      <trkpt lat="51.837833000" lon="7.611307000">
        <ele>64.2</ele>
        <time>2017-04-29T04:59:17</time>
        <extensions><speed>1.52</speed></extensions>
      </trkpt>
      <trkpt lat="51.837826000" lon="7.611324000">
        <ele>64.2</ele>
        <time>2017-04-29T04:59:18</time>
        <extensions><speed>1.49</speed></extensions>
      </trkpt>
      <trkpt lat="51.837818000" lon="7.611338000">
        <ele>64.2</ele>
        <time>2017-04-29T04:59:19</time>
        <extensions><speed>1.50</speed></extensions>
      </trkpt>
      <trkpt lat="51.837811000" lon="7.611355000">
        <ele>64.2</ele>
        <time>2017-04-29T04:59:20</time>
        <extensions><speed>1.50</speed></extensions>
      </trkpt>
      <trkpt lat="51.837803000" lon="7.611372000">
        <ele>64.3</ele>
        <time>2017-04-29T04:59:21</time>
        <extensions><speed>1.47</speed></extensions>
      </trkpt>
      <trkpt lat="51.837795000" lon="7.611387000">
        <ele>64.3</ele>
        <time>2017-04-29T04:59:22</time>
        <extensions><speed>1.47</speed></extensions>
      </trkpt>
      <trkpt lat="51.837784000" lon="7.611407000">
        <ele>64.3</ele>
        <time>2017-04-29T04:59:23</time>
        <extensions><speed>1.45</speed></extensions>
      </trkpt>
      <trkpt lat="51.837780000" lon="7.611425000">
        <ele>64.3</ele>
        <time>2017-04-29T04:59:24</time>
        <extensions><speed>1.46</speed></extensions>
      </trkpt>
      <trkpt lat="51.837769000" lon="7.611445000">
        <ele>64.3</ele>
        <time>2017-04-29T04:59:25</time>
        <extensions><speed>1.41</speed></extensions>
      </trkpt>
      <trkpt lat="51.837761000" lon="7.611462000">
        <ele>64.3</ele>
        <time>2017-04-29T04:59:26</time>
        <extensions><speed>1.42</speed></extensions>
      </trkpt>
      <trkpt lat="51.837757000" lon="7.611480000">
        <ele>64.3</ele>
        <time>2017-04-29T04:59:27</time>
        <extensions><speed>1.37</speed></extensions>
      </trkpt>
      <trkpt lat="51.837749000" lon="7.611497000">
        <ele>64.3</ele>
        <time>2017-04-29T04:59:28</time>
        <extensions><speed>1.39</speed></extensions>
      </trkpt>
      <trkpt lat="51.837742000" lon="7.611510000">
        <ele>64.3</ele>
        <time>2017-04-29T04:59:29</time>
        <extensions><speed>1.34</speed></extensions>
      </trkpt>
      <trkpt lat="51.837734000" lon="7.611527000">
        <ele>64.4</ele>
        <time>2017-04-29T04:59:30</time>
        <extensions><speed>1.39</speed></extensions>
      </trkpt>
      <trkpt lat="51.837723000" lon="7.611543000">
        <ele>64.4</ele>
        <time>2017-04-29T04:59:31</time>
        <extensions><speed>1.40</speed></extensions>
      </trkpt>
      <trkpt lat="51.837719000" lon="7.611560000">
        <ele>64.4</ele>
        <time>2017-04-29T04:59:32</time>
        <extensions><speed>1.43</speed></extensions>
      </trkpt>
      <trkpt lat="51.837708000" lon="7.611577000">
        <ele>64.4</ele>
        <time>2017-04-29T04:59:33</time>
        <extensions><speed>1.41</speed></extensions>
      </trkpt>
      <trkpt lat="51.837700000" lon="7.611592000">
        <ele>64.4</ele>
        <time>2017-04-29T04:59:34</time>
        <extensions><speed>1.44</speed></extensions>
      </trkpt>
      <trkpt lat="51.837688000" lon="7.611610000">
        <ele>64.4</ele>
        <time>2017-04-29T04:59:35</time>
        <extensions><speed>1.44</speed></extensions>
      </trkpt>
      <trkpt lat="51.837681000" lon="7.611629000">
        <ele>64.4</ele>
        <time>2017-04-29T04:59:36</time>
        <extensions><speed>1.43</speed></extensions>
      </trkpt>
      <trkpt lat="51.837673000" lon="7.611643000">
        <ele>64.4</ele>
        <time>2017-04-29T04:59:37</time>
        <extensions><speed>1.42</speed></extensions>
      </trkpt>
      <trkpt lat="51.837666000" lon="7.611660000">
        <ele>64.4</ele>
        <time>2017-04-29T04:59:38</time>
        <extensions><speed>1.41</speed></extensions>
      </trkpt>
      <trkpt lat="51.837658000" lon="7.611676000">
        <ele>64.4</ele>
        <time>2017-04-29T04:59:39</time>
        <extensions><speed>1.40</speed></extensions>
      </trkpt>
      <trkpt lat="51.837654000" lon="7.611690000">
        <ele>64.5</ele>
        <time>2017-04-29T04:59:40</time>
        <extensions><speed>1.35</speed></extensions>
      </trkpt>
      <trkpt lat="51.837646000" lon="7.611708000">
        <ele>64.5</ele>
        <time>2017-04-29T04:59:41</time>
        <extensions><speed>1.40</speed></extensions>
      </trkpt>
      <trkpt lat="51.837639000" lon="7.611730000">
        <ele>64.5</ele>
        <time>2017-04-29T04:59:42</time>
        <extensions><speed>1.38</speed></extensions>
      </trkpt>
      <trkpt lat="51.837635000" lon="7.611748000">
        <ele>64.5</ele>
        <time>2017-04-29T04:59:43</time>
        <extensions><speed>1.35</speed></extensions>
      </trkpt>
      <trkpt lat="51.837627000" lon="7.611769000">
        <ele>64.5</ele>
        <time>2017-04-29T04:59:44</time>
        <extensions><speed>1.34</speed></extensions>
      </trkpt>
      <trkpt lat="51.837620000" lon="7.611790000">
        <ele>64.5</ele>
        <time>2017-04-29T04:59:45</time>
        <extensions><speed>1.44</speed></extensions>
      </trkpt>
      <trkpt lat="51.837620000" lon="7.611809000">
        <ele>64.5</ele>
        <time>2017-04-29T04:59:46</time>
        <extensions><speed>1.38</speed></extensions>
      </trkpt>
      <trkpt lat="51.837608000" lon="7.611828000">
        <ele>64.5</ele>
        <time>2017-04-29T04:59:47</time>
        <extensions><speed>1.47</speed></extensions>
      </trkpt>
      <trkpt lat="51.837601000" lon="7.611846000">
        <ele>64.5</ele>
        <time>2017-04-29T04:59:48</time>
        <extensions><speed>1.53</speed></extensions>
      </trkpt>
      <trkpt lat="51.837593000" lon="7.611865000">
        <ele>64.5</ele>
        <time>2017-04-29T04:59:49</time>
        <extensions><speed>1.57</speed></extensions>
      </trkpt>
      <trkpt lat="51.837585000" lon="7.611883000">
        <ele>64.5</ele>
        <time>2017-04-29T04:59:50</time>
        <extensions><speed>1.52</speed></extensions>
      </trkpt>
      <trkpt lat="51.837578000" lon="7.611900000">
        <ele>64.5</ele>
        <time>2017-04-29T04:59:51</time>
        <extensions><speed>1.52</speed></extensions>
      </trkpt>
      <trkpt lat="51.837566000" lon="7.611918000">
        <ele>64.5</ele>
        <time>2017-04-29T04:59:52</time>
        <extensions><speed>1.53</speed></extensions>
      </trkpt>
      <trkpt lat="51.837555000" lon="7.611933000">
        <ele>64.5</ele>
        <time>2017-04-29T04:59:53</time>
        <extensions><speed>1.50</speed></extensions>
      </trkpt>
      <trkpt lat="51.837547000" lon="7.611948000">
        <ele>64.5</ele>
        <time>2017-04-29T04:59:54</time>
        <extensions><speed>1.50</speed></extensions>
      </trkpt>
      <trkpt lat="51.837536000" lon="7.611961000">
        <ele>64.5</ele>
        <time>2017-04-29T04:59:55</time>
        <extensions><speed>1.53</speed></extensions>
      </trkpt>
      <trkpt lat="51.837524000" lon="7.611975000">
        <ele>64.5</ele>
        <time>2017-04-29T04:59:56</time>
        <extensions><speed>1.56</speed></extensions>
      </trkpt>
      <trkpt lat="51.837509000" lon="7.611986000">
        <ele>64.5</ele>
        <time>2017-04-29T04:59:57</time>
        <extensions><speed>1.55</speed></extensions>
      </trkpt>
      <trkpt lat="51.837498000" lon="7.611997000">
        <ele>64.5</ele>
        <time>2017-04-29T04:59:58</time>
        <extensions><speed>1.55</speed></extensions>
      </trkpt>
      <trkpt lat="51.837486000" lon="7.612009000">
        <ele>64.5</ele>
        <time>2017-04-29T04:59:59</time>
        <extensions><speed>1.55</speed></extensions>
      </trkpt>
      <trkpt lat="51.837475000" lon="7.612021000">
        <ele>64.5</ele>
        <time>2017-04-29T05:00:00</time>
        <extensions><speed>1.53</speed></extensions>
      </trkpt>
      <trkpt lat="51.837460000" lon="7.612035000">
        <ele>64.5</ele>
        <time>2017-04-29T05:00:01</time>
        <extensions><speed>1.54</speed></extensions>
      </trkpt>
      <trkpt lat="51.837452000" lon="7.612049000">
        <ele>64.5</ele>
        <time>2017-04-29T05:00:02</time>
        <extensions><speed>1.51</speed></extensions>
      </trkpt>
      <trkpt lat="51.837440000" lon="7.612063000">
        <ele>64.5</ele>
        <time>2017-04-29T05:00:03</time>
        <extensions><speed>1.54</speed></extensions>
      </trkpt>
      <trkpt lat="51.837425000" lon="7.612079000">
        <ele>64.5</ele>
        <time>2017-04-29T05:00:04</time>
        <extensions><speed>1.54</speed></extensions>
      </trkpt>
      <trkpt lat="51.837418000" lon="7.612095000">
        <ele>64.6</ele>
        <time>2017-04-29T05:00:05</time>
        <extensions><speed>1.57</speed></extensions>
      </trkpt>
      <trkpt lat="51.837406000" lon="7.612112000">
        <ele>64.6</ele>
        <time>2017-04-29T05:00:06</time>
        <extensions><speed>1.57</speed></extensions>
      </trkpt>
      <trkpt lat="51.837395000" lon="7.612124000">
        <ele>64.6</ele>
        <time>2017-04-29T05:00:07</time>
        <extensions><speed>1.59</speed></extensions>
      </trkpt>
      <trkpt lat="51.837387000" lon="7.612138000">
        <ele>64.6</ele>
        <time>2017-04-29T05:00:08</time>
        <extensions><speed>1.59</speed></extensions>
      </trkpt>
      <trkpt lat="51.837372000" lon="7.612152000">
        <ele>64.6</ele>
        <time>2017-04-29T05:00:09</time>
        <extensions><speed>1.57</speed></extensions>
      </trkpt>
      <trkpt lat="51.837360000" lon="7.612164000">
        <ele>64.6</ele>
        <time>2017-04-29T05:00:10</time>
        <extensions><speed>1.52</speed></extensions>
      </trkpt>
      <trkpt lat="51.837353000" lon="7.612178000">
        <ele>64.6</ele>
        <time>2017-04-29T05:00:11</time>
        <extensions><speed>1.49</speed></extensions>
      </trkpt>
      <trkpt lat="51.837341000" lon="7.612192000">
        <ele>64.7</ele>
        <time>2017-04-29T05:00:12</time>
        <extensions><speed>1.42</speed></extensions>
      </trkpt>
      <trkpt lat="51.837330000" lon="7.612206000">
        <ele>64.7</ele>
        <time>2017-04-29T05:00:13</time>
        <extensions><speed>1.45</speed></extensions>
      </trkpt>
      <trkpt lat="51.837322000" lon="7.612224000">
        <ele>64.7</ele>
        <time>2017-04-29T05:00:14</time>
        <extensions><speed>1.49</speed></extensions>
      </trkpt>
      <trkpt lat="51.837311000" lon="7.612236000">
        <ele>64.7</ele>
        <time>2017-04-29T05:00:15</time>
        <extensions><speed>1.52</speed></extensions>
      </trkpt>
      <trkpt lat="51.837299000" lon="7.612250000">
        <ele>64.7</ele>
        <time>2017-04-29T05:00:16</time>
        <extensions><speed>1.52</speed></extensions>
      </trkpt>
      <trkpt lat="51.837292000" lon="7.612264000">
        <ele>64.8</ele>
        <time>2017-04-29T05:00:17</time>
        <extensions><speed>1.53</speed></extensions>
      </trkpt>
      <trkpt lat="51.837280000" lon="7.612275000">
        <ele>64.8</ele>
        <time>2017-04-29T05:00:18</time>
        <extensions><speed>1.53</speed></extensions>
      </trkpt>
      <trkpt lat="51.837269000" lon="7.612288000">
        <ele>64.8</ele>
        <time>2017-04-29T05:00:19</time>
        <extensions><speed>1.46</speed></extensions>
      </trkpt>
      <trkpt lat="51.837261000" lon="7.612303000">
        <ele>64.8</ele>
        <time>2017-04-29T05:00:20</time>
        <extensions><speed>1.49</speed></extensions>
      </trkpt>
      <trkpt lat="51.837250000" lon="7.612317000">
        <ele>64.8</ele>
        <time>2017-04-29T05:00:21</time>
        <extensions><speed>1.46</speed></extensions>
      </trkpt>
      <trkpt lat="51.837238000" lon="7.612327000">
        <ele>64.9</ele>
        <time>2017-04-29T05:00:22</time>
        <extensions><speed>1.48</speed></extensions>
      </trkpt>
      <trkpt lat="51.837227000" lon="7.612340000">
        <ele>64.9</ele>
        <time>2017-04-29T05:00:23</time>
        <extensions><speed>1.48</speed></extensions>
      </trkpt>
      <trkpt lat="51.837215000" lon="7.612353000">
        <ele>64.9</ele>
        <time>2017-04-29T05:00:24</time>
        <extensions><speed>1.49</speed></extensions>
      </trkpt>
      <trkpt lat="51.837208000" lon="7.612367000">
        <ele>64.9</ele>
        <time>2017-04-29T05:00:25</time>
        <extensions><speed>1.47</speed></extensions>
      </trkpt>
      <trkpt lat="51.837200000" lon="7.612381000">
        <ele>64.9</ele>
        <time>2017-04-29T05:00:26</time>
        <extensions><speed>1.48</speed></extensions>
      </trkpt>
      <trkpt lat="51.837193000" lon="7.612395000">
        <ele>65.0</ele>
        <time>2017-04-29T05:00:27</time>
        <extensions><speed>1.43</speed></extensions>
      </trkpt>
      <trkpt lat="51.837181000" lon="7.612410000">
        <ele>65.0</ele>
        <time>2017-04-29T05:00:28</time>
        <extensions><speed>1.43</speed></extensions>
      </trkpt>
      <trkpt lat="51.837173000" lon="7.612423000">
        <ele>65.0</ele>
        <time>2017-04-29T05:00:29</time>
        <extensions><speed>1.42</speed></extensions>
      </trkpt>
      <trkpt lat="51.837166000" lon="7.612437000">
        <ele>65.0</ele>
        <time>2017-04-29T05:00:30</time>
        <extensions><speed>1.46</speed></extensions>
      </trkpt>
      <trkpt lat="51.837151000" lon="7.612453000">
        <ele>65.1</ele>
        <time>2017-04-29T05:00:31</time>
        <extensions><speed>1.50</speed></extensions>
      </trkpt>
      <trkpt lat="51.837139000" lon="7.612470000">
        <ele>65.1</ele>
        <time>2017-04-29T05:00:32</time>
        <extensions><speed>1.50</speed></extensions>
      </trkpt>
      <trkpt lat="51.837132000" lon="7.612482000">
        <ele>65.1</ele>
        <time>2017-04-29T05:00:33</time>
        <extensions><speed>1.46</speed></extensions>
      </trkpt>
      <trkpt lat="51.837124000" lon="7.612495000">
        <ele>65.1</ele>
        <time>2017-04-29T05:00:34</time>
        <extensions><speed>1.46</speed></extensions>
      </trkpt>
      <trkpt lat="51.837112000" lon="7.612511000">
        <ele>65.2</ele>
        <time>2017-04-29T05:00:35</time>
        <extensions><speed>1.46</speed></extensions>
      </trkpt>
      <trkpt lat="51.837101000" lon="7.612525000">
        <ele>65.2</ele>
        <time>2017-04-29T05:00:36</time>
        <extensions><speed>1.42</speed></extensions>
      </trkpt>
      <trkpt lat="51.837093000" lon="7.612539000">
        <ele>65.2</ele>
        <time>2017-04-29T05:00:37</time>
        <extensions><speed>1.42</speed></extensions>
      </trkpt>
      <trkpt lat="51.837086000" lon="7.612553000">
        <ele>65.3</ele>
        <time>2017-04-29T05:00:38</time>
        <extensions><speed>1.45</speed></extensions>
      </trkpt>
      <trkpt lat="51.837078000" lon="7.612562000">
        <ele>65.3</ele>
        <time>2017-04-29T05:00:39</time>
      </trkpt>
      <trkpt lat="51.837067000" lon="7.612578000">
        <ele>65.3</ele>
        <time>2017-04-29T05:00:41</time>
        <extensions><speed>1.35</speed></extensions>
      </trkpt>
      <trkpt lat="51.837059000" lon="7.612593000">
        <ele>65.4</ele>
        <time>2017-04-29T05:00:42</time>
        <extensions><speed>1.43</speed></extensions>
      </trkpt>
      <trkpt lat="51.837048000" lon="7.612605000">
        <ele>65.4</ele>
        <time>2017-04-29T05:00:43</time>
        <extensions><speed>1.36</speed></extensions>
      </trkpt>
      <trkpt lat="51.837036000" lon="7.612618000">
        <ele>65.4</ele>
        <time>2017-04-29T05:00:44</time>
        <extensions><speed>1.48</speed></extensions>
      </trkpt>
      <trkpt lat="51.837021000" lon="7.612628000">
        <ele>65.4</ele>
        <time>2017-04-29T05:00:45</time>
        <extensions><speed>1.51</speed></extensions>
      </trkpt>
      <trkpt lat="51.837009000" lon="7.612640000">
        <ele>65.5</ele>
        <time>2017-04-29T05:00:46</time>
        <extensions><speed>1.53</speed></extensions>
      </trkpt>
      <trkpt lat="51.837002000" lon="7.612653000">
        <ele>65.5</ele>
        <time>2017-04-29T05:00:47</time>
        <extensions><speed>1.45</speed></extensions>
      </trkpt>
      <trkpt lat="51.836990000" lon="7.612667000">
        <ele>65.5</ele>
        <time>2017-04-29T05:00:48</time>
        <extensions><speed>1.45</speed></extensions>
      </trkpt>
      <trkpt lat="51.836979000" lon="7.612681000">
        <ele>65.6</ele>
        <time>2017-04-29T05:00:49</time>
        <extensions><speed>1.42</speed></extensions>
      </trkpt>
      <trkpt lat="51.836971000" lon="7.612693000">
        <ele>65.6</ele>
        <time>2017-04-29T05:00:50</time>
        <extensions><speed>1.42</speed></extensions>
      </trkpt>
      <trkpt lat="51.836960000" lon="7.612707000">
        <ele>65.7</ele>
        <time>2017-04-29T05:00:51</time>
        <extensions><speed>1.42</speed></extensions>
      </trkpt>
      <trkpt lat="51.836948000" lon="7.612720000">
        <ele>65.7</ele>
        <time>2017-04-29T05:00:52</time>
        <extensions><speed>1.42</speed></extensions>
      </trkpt>
      <trkpt lat="51.836937000" lon="7.612731000">
        <ele>65.7</ele>
        <time>2017-04-29T05:00:53</time>
        <extensions><speed>1.42</speed></extensions>
      </trkpt>
      <trkpt lat="51.836929000" lon="7.612747000">
        <ele>65.8</ele>
        <time>2017-04-29T05:00:54</time>
        <extensions><speed>1.39</speed></extensions>
      </trkpt>
      <trkpt lat="51.836922000" lon="7.612760000">
        <ele>65.8</ele>
        <time>2017-04-29T05:00:55</time>
        <extensions><speed>1.39</speed></extensions>
      </trkpt>
      <trkpt lat="51.836910000" lon="7.612773000">
        <ele>65.8</ele>
        <time>2017-04-29T05:00:56</time>
        <extensions><speed>1.35</speed></extensions>
      </trkpt>
      <trkpt lat="51.836903000" lon="7.612788000">
        <ele>65.9</ele>
        <time>2017-04-29T05:00:57</time>
        <extensions><speed>1.37</speed></extensions>
      </trkpt>
      <trkpt lat="51.836891000" lon="7.612802000">
        <ele>65.9</ele>
        <time>2017-04-29T05:00:58</time>
        <extensions><speed>1.38</speed></extensions>
      </trkpt>
      <trkpt lat="51.836880000" lon="7.612817000">
        <ele>65.9</ele>
        <time>2017-04-29T05:00:59</time>
        <extensions><speed>1.41</speed></extensions>
      </trkpt>
      <trkpt lat="51.836872000" lon="7.612830000">
        <ele>66.0</ele>
        <time>2017-04-29T05:01:00</time>
        <extensions><speed>1.39</speed></extensions>
      </trkpt>
      <trkpt lat="51.836861000" lon="7.612845000">
        <ele>66.0</ele>
        <time>2017-04-29T05:01:01</time>
        <extensions><speed>1.39</speed></extensions>
      </trkpt>
      <trkpt lat="51.836857000" lon="7.612855000">
        <ele>66.1</ele>
        <time>2017-04-29T05:01:02</time>
      </trkpt>
      <trkpt lat="51.836849000" lon="7.612870000">
        <ele>66.1</ele>
        <time>2017-04-29T05:01:04</time>
        <extensions><speed>1.36</speed></extensions>
      </trkpt>
      <trkpt lat="51.836838000" lon="7.612887000">
        <ele>66.1</ele>
        <time>2017-04-29T05:01:05</time>
        <extensions><speed>1.36</speed></extensions>
      </trkpt>
      <trkpt lat="51.836830000" lon="7.612900000">
        <ele>66.2</ele>
        <time>2017-04-29T05:01:06</time>
        <extensions><speed>1.39</speed></extensions>
      </trkpt>
      <trkpt lat="51.836819000" lon="7.612914000">
        <ele>66.2</ele>
        <time>2017-04-29T05:01:07</time>
        <extensions><speed>1.39</speed></extensions>
      </trkpt>
      <trkpt lat="51.836807000" lon="7.612926000">
        <ele>66.2</ele>
        <time>2017-04-29T05:01:08</time>
        <extensions><speed>1.36</speed></extensions>
      </trkpt>
      <trkpt lat="51.836803000" lon="7.612938000">
        <ele>66.2</ele>
        <time>2017-04-29T05:01:09</time>
        <extensions><speed>1.29</speed></extensions>
      </trkpt>
      <trkpt lat="51.836792000" lon="7.612950000">
        <ele>66.3</ele>
        <time>2017-04-29T05:01:10</time>
        <extensions><speed>1.31</speed></extensions>
      </trkpt>
      <trkpt lat="51.836781000" lon="7.612967000">
        <ele>66.3</ele>
        <time>2017-04-29T05:01:11</time>
        <extensions><speed>1.34</speed></extensions>
      </trkpt>
      <trkpt lat="51.836773000" lon="7.612980000">
        <ele>66.3</ele>
        <time>2017-04-29T05:01:12</time>
        <extensions><speed>1.33</speed></extensions>
      </trkpt>
      <trkpt lat="51.836761000" lon="7.612994000">
        <ele>66.3</ele>
        <time>2017-04-29T05:01:13</time>
        <extensions><speed>1.33</speed></extensions>
      </trkpt>
      <trkpt lat="51.836754000" lon="7.613013000">
        <ele>66.4</ele>
        <time>2017-04-29T05:01:14</time>
        <extensions><speed>1.40</speed></extensions>
      </trkpt>
      <trkpt lat="51.836746000" lon="7.613031000">
        <ele>66.4</ele>
        <time>2017-04-29T05:01:15</time>
        <extensions><speed>1.41</speed></extensions>
      </trkpt>
      <trkpt lat="51.836742000" lon="7.613052000">
        <ele>66.4</ele>
        <time>2017-04-29T05:01:16</time>
        <extensions><speed>1.32</speed></extensions>
      </trkpt>
      <trkpt lat="51.836739000" lon="7.613070000">
        <ele>66.4</ele>
        <time>2017-04-29T05:01:17</time>
        <extensions><speed>1.37</speed></extensions>
      </trkpt>
      <trkpt lat="51.836731000" lon="7.613090000">
        <ele>66.5</ele>
        <time>2017-04-29T05:01:18</time>
        <extensions><speed>1.38</speed></extensions>
      </trkpt>
      <trkpt lat="51.836723000" lon="7.613111000">
        <ele>66.5</ele>
        <time>2017-04-29T05:01:19</time>
        <extensions><speed>1.38</speed></extensions>
      </trkpt>
      <trkpt lat="51.836716000" lon="7.613134000">
        <ele>66.5</ele>
        <time>2017-04-29T05:01:20</time>
        <extensions><speed>1.36</speed></extensions>
      </trkpt>
      <trkpt lat="51.836712000" lon="7.613152000">
        <ele>66.5</ele>
        <time>2017-04-29T05:01:21</time>
        <extensions><speed>1.36</speed></extensions>
      </trkpt>
      <trkpt lat="51.836708000" lon="7.613169000">
        <ele>66.6</ele>
        <time>2017-04-29T05:01:22</time>
        <extensions><speed>1.30</speed></extensions>
      </trkpt>
      <trkpt lat="51.836704000" lon="7.613187000">
        <ele>66.6</ele>
        <time>2017-04-29T05:01:23</time>
        <extensions><speed>1.30</speed></extensions>
      </trkpt>
      <trkpt lat="51.836697000" lon="7.613206000">
        <ele>66.6</ele>
        <time>2017-04-29T05:01:24</time>
        <extensions><speed>1.30</speed></extensions>
      </trkpt>
      <trkpt lat="51.836693000" lon="7.613228000">
        <ele>66.6</ele>
        <time>2017-04-29T05:01:25</time>
        <extensions><speed>1.33</speed></extensions>
      </trkpt>
      <trkpt lat="51.836685000" lon="7.613250000">
        <ele>66.6</ele>
        <time>2017-04-29T05:01:26</time>
        <extensions><speed>1.39</speed></extensions>
      </trkpt>
      <trkpt lat="51.836678000" lon="7.613269000">
        <ele>66.6</ele>
        <time>2017-04-29T05:01:27</time>
        <extensions><speed>1.39</speed></extensions>
      </trkpt>
      <trkpt lat="51.836674000" lon="7.613283000">
        <ele>66.7</ele>
        <time>2017-04-29T05:01:28</time>
        <extensions><speed>1.38</speed></extensions>
      </trkpt>
      <trkpt lat="51.836670000" lon="7.613297000">
        <ele>66.7</ele>
        <time>2017-04-29T05:01:29</time>
        <extensions><speed>1.40</speed></extensions>
      </trkpt>
      <trkpt lat="51.836662000" lon="7.613313000">
        <ele>66.7</ele>
        <time>2017-04-29T05:01:30</time>
        <extensions><speed>1.40</speed></extensions>
      </trkpt>
      <trkpt lat="51.836658000" lon="7.613334000">
        <ele>66.7</ele>
        <time>2017-04-29T05:01:31</time>
        <extensions><speed>1.42</speed></extensions>
      </trkpt>
      <trkpt lat="51.836651000" lon="7.613353000">
        <ele>66.7</ele>
        <time>2017-04-29T05:01:32</time>
        <extensions><speed>1.42</speed></extensions>
      </trkpt>
      <trkpt lat="51.836647000" lon="7.613374000">
        <ele>66.7</ele>
        <time>2017-04-29T05:01:33</time>
        <extensions><speed>1.44</speed></extensions>
      </trkpt>
      <trkpt lat="51.836643000" lon="7.613393000">
        <ele>66.8</ele>
        <time>2017-04-29T05:01:34</time>
        <extensions><speed>1.44</speed></extensions>
      </trkpt>
      <trkpt lat="51.836636000" lon="7.613415000">
        <ele>66.8</ele>
        <time>2017-04-29T05:01:35</time>
        <extensions><speed>1.44</speed></extensions>
      </trkpt>
      <trkpt lat="51.836628000" lon="7.613437000">
        <ele>66.8</ele>
        <time>2017-04-29T05:01:36</time>
        <extensions><speed>1.43</speed></extensions>
      </trkpt>
      <trkpt lat="51.836624000" lon="7.613458000">
        <ele>66.8</ele>
        <time>2017-04-29T05:01:37</time>
        <extensions><speed>1.46</speed></extensions>
      </trkpt>
      <trkpt lat="51.836620000" lon="7.613481000">
        <ele>66.8</ele>
        <time>2017-04-29T05:01:38</time>
        <extensions><speed>1.43</speed></extensions>
      </trkpt>
      <trkpt lat="51.836617000" lon="7.613502000">
        <ele>66.8</ele>
        <time>2017-04-29T05:01:39</time>
        <extensions><speed>1.45</speed></extensions>
      </trkpt>
      <trkpt lat="51.836613000" lon="7.613522000">
        <ele>66.8</ele>
        <time>2017-04-29T05:01:40</time>
        <extensions><speed>1.44</speed></extensions>
      </trkpt>
      <trkpt lat="51.836605000" lon="7.613542000">
        <ele>66.9</ele>
        <time>2017-04-29T05:01:41</time>
        <extensions><speed>1.48</speed></extensions>
      </trkpt>
      <trkpt lat="51.836597000" lon="7.613562000">
        <ele>66.9</ele>
        <time>2017-04-29T05:01:42</time>
        <extensions><speed>1.48</speed></extensions>
      </trkpt>
      <trkpt lat="51.836586000" lon="7.613582000">
        <ele>66.9</ele>
        <time>2017-04-29T05:01:43</time>
        <extensions><speed>1.49</speed></extensions>
      </trkpt>
      <trkpt lat="51.836578000" lon="7.613598000">
        <ele>66.9</ele>
        <time>2017-04-29T05:01:44</time>
        <extensions><speed>1.48</speed></extensions>
      </trkpt>
      <trkpt lat="51.836578000" lon="7.613617000">
        <ele>66.9</ele>
        <time>2017-04-29T05:01:45</time>
        <extensions><speed>1.47</speed></extensions>
      </trkpt>
      <trkpt lat="51.836578000" lon="7.613638000">
        <ele>66.9</ele>
        <time>2017-04-29T05:01:46</time>
        <extensions><speed>1.47</speed></extensions>
      </trkpt>
      <trkpt lat="51.836571000" lon="7.613660000">
        <ele>66.9</ele>
        <time>2017-04-29T05:01:47</time>
        <extensions><speed>1.46</speed></extensions>
      </trkpt>
      <trkpt lat="51.836563000" lon="7.613680000">
        <ele>66.9</ele>
        <time>2017-04-29T05:01:48</time>
        <extensions><speed>1.47</speed></extensions>
      </trkpt>
      <trkpt lat="51.836559000" lon="7.613698000">
        <ele>66.9</ele>
        <time>2017-04-29T05:01:49</time>
        <extensions><speed>1.49</speed></extensions>
      </trkpt>
      <trkpt lat="51.836552000" lon="7.613717000">
        <ele>66.9</ele>
        <time>2017-04-29T05:01:50</time>
        <extensions><speed>1.50</speed></extensions>
      </trkpt>
      <trkpt lat="51.836544000" lon="7.613737000">
        <ele>66.9</ele>
        <time>2017-04-29T05:01:51</time>
        <extensions><speed>1.50</speed></extensions>
      </trkpt>
      <trkpt lat="51.836540000" lon="7.613759000">
        <ele>66.9</ele>
        <time>2017-04-29T05:01:52</time>
        <extensions><speed>1.50</speed></extensions>
      </trkpt>
      <trkpt lat="51.836533000" lon="7.613779000">
        <ele>66.9</ele>
        <time>2017-04-29T05:01:53</time>
        <extensions><speed>1.49</speed></extensions>
      </trkpt>
      <trkpt lat="51.836525000" lon="7.613800000">
        <ele>66.9</ele>
        <time>2017-04-29T05:01:54</time>
        <extensions><speed>1.54</speed></extensions>
      </trkpt>
      <trkpt lat="51.836517000" lon="7.613822000">
        <ele>66.9</ele>
        <time>2017-04-29T05:01:55</time>
        <extensions><speed>1.56</speed></extensions>
      </trkpt>
      <trkpt lat="51.836514000" lon="7.613843000">
        <ele>66.9</ele>
        <time>2017-04-29T05:01:56</time>
        <extensions><speed>1.54</speed></extensions>
      </trkpt>
      <trkpt lat="51.836506000" lon="7.613862000">
        <ele>66.9</ele>
        <time>2017-04-29T05:01:57</time>
        <extensions><speed>1.55</speed></extensions>
      </trkpt>
      <trkpt lat="51.836502000" lon="7.613883000">
        <ele>66.9</ele>
        <time>2017-04-29T05:01:58</time>
        <extensions><speed>1.55</speed></extensions>
      </trkpt>
      <trkpt lat="51.836494000" lon="7.613904000">
        <ele>66.9</ele>
        <time>2017-04-29T05:01:59</time>
        <extensions><speed>1.55</speed></extensions>
      </trkpt>
      <trkpt lat="51.836487000" lon="7.613925000">
        <ele>66.9</ele>
        <time>2017-04-29T05:02:00</time>
        <extensions><speed>1.54</speed></extensions>
      </trkpt>
      <trkpt lat="51.836479000" lon="7.613943000">
        <ele>66.9</ele>
        <time>2017-04-29T05:02:01</time>
        <extensions><speed>1.52</speed></extensions>
      </trkpt>
      <trkpt lat="51.836472000" lon="7.613962000">
        <ele>66.9</ele>
        <time>2017-04-29T05:02:02</time>
        <extensions><speed>1.50</speed></extensions>
      </trkpt>
      <trkpt lat="51.836464000" lon="7.613980000">
        <ele>66.9</ele>
        <time>2017-04-29T05:02:03</time>
        <extensions><speed>1.50</speed></extensions>
      </trkpt>
      <trkpt lat="51.836460000" lon="7.614000000">
        <ele>66.9</ele>
        <time>2017-04-29T05:02:04</time>
        <extensions><speed>1.49</speed></extensions>
      </trkpt>
      <trkpt lat="51.836449000" lon="7.614022000">
        <ele>66.9</ele>
        <time>2017-04-29T05:02:05</time>
        <extensions><speed>1.51</speed></extensions>
      </trkpt>
      <trkpt lat="51.836445000" lon="7.614039000">
        <ele>66.9</ele>
        <time>2017-04-29T05:02:06</time>
        <extensions><speed>1.49</speed></extensions>
      </trkpt>
      <trkpt lat="51.836441000" lon="7.614058000">
        <ele>66.9</ele>
        <time>2017-04-29T05:02:07</time>
        <extensions><speed>1.50</speed></extensions>
      </trkpt>
      <trkpt lat="51.836433000" lon="7.614080000">
        <ele>66.9</ele>
        <time>2017-04-29T05:02:08</time>
        <extensions><speed>1.46</speed></extensions>
      </trkpt>
      <trkpt lat="51.836430000" lon="7.614100000">
        <ele>66.9</ele>
        <time>2017-04-29T05:02:09</time>
        <extensions><speed>1.44</speed></extensions>
      </trkpt>
      <trkpt lat="51.836426000" lon="7.614120000">
        <ele>66.9</ele>
        <time>2017-04-29T05:02:10</time>
        <extensions><speed>1.44</speed></extensions>
      </trkpt>
      <trkpt lat="51.836418000" lon="7.614139000">
        <ele>66.9</ele>
        <time>2017-04-29T05:02:11</time>
        <extensions><speed>1.45</speed></extensions>
      </trkpt>
      <trkpt lat="51.836414000" lon="7.614158000">
        <ele>66.9</ele>
        <time>2017-04-29T05:02:12</time>
        <extensions><speed>1.45</speed></extensions>
      </trkpt>
      <trkpt lat="51.836407000" lon="7.614180000">
        <ele>66.9</ele>
        <time>2017-04-29T05:02:13</time>
        <extensions><speed>1.47</speed></extensions>
      </trkpt>
      <trkpt lat="51.836399000" lon="7.614202000">
        <ele>66.9</ele>
        <time>2017-04-29T05:02:14</time>
        <extensions><speed>1.47</speed></extensions>
      </trkpt>
      <trkpt lat="51.836391000" lon="7.614220000">
        <ele>66.8</ele>
        <time>2017-04-29T05:02:15</time>
        <extensions><speed>1.44</speed></extensions>
      </trkpt>
      <trkpt lat="51.836384000" lon="7.614235000">
        <ele>66.8</ele>
        <time>2017-04-29T05:02:16</time>
        <extensions><speed>1.41</speed></extensions>
      </trkpt>
      <trkpt lat="51.836380000" lon="7.614255000">
        <ele>66.8</ele>
        <time>2017-04-29T05:02:17</time>
        <extensions><speed>1.37</speed></extensions>
      </trkpt>
      <trkpt lat="51.836372000" lon="7.614275000">
        <ele>66.8</ele>
        <time>2017-04-29T05:02:18</time>
        <extensions><speed>1.37</speed></extensions>
      </trkpt>
      <trkpt lat="51.836365000" lon="7.614293000">
        <ele>66.8</ele>
        <time>2017-04-29T05:02:19</time>
        <extensions><speed>1.38</speed></extensions>
      </trkpt>
      <trkpt lat="51.836361000" lon="7.614312000">
        <ele>66.8</ele>
        <time>2017-04-29T05:02:20</time>
        <extensions><speed>1.41</speed></extensions>
      </trkpt>
      <trkpt lat="51.836353000" lon="7.614328000">
        <ele>66.8</ele>
        <time>2017-04-29T05:02:21</time>
        <extensions><speed>1.45</speed></extensions>
      </trkpt>
      <trkpt lat="51.836349000" lon="7.614344000">
        <ele>66.8</ele>
        <time>2017-04-29T05:02:22</time>
        <extensions><speed>1.45</speed></extensions>
      </trkpt>
      <trkpt lat="51.836342000" lon="7.614360000">
        <ele>66.7</ele>
        <time>2017-04-29T05:02:23</time>
        <extensions><speed>1.44</speed></extensions>
      </trkpt>
      <trkpt lat="51.836338000" lon="7.614384000">
        <ele>66.7</ele>
        <time>2017-04-29T05:02:24</time>
        <extensions><speed>1.46</speed></extensions>
      </trkpt>
      <trkpt lat="51.836334000" lon="7.614407000">
        <ele>66.7</ele>
        <time>2017-04-29T05:02:25</time>
        <extensions><speed>1.48</speed></extensions>
      </trkpt>
      <trkpt lat="51.836330000" lon="7.614430000">
        <ele>66.7</ele>
        <time>2017-04-29T05:02:26</time>
        <extensions><speed>1.46</speed></extensions>
      </trkpt>
      <trkpt lat="51.836327000" lon="7.614450000">
        <ele>66.7</ele>
        <time>2017-04-29T05:02:27</time>
        <extensions><speed>1.45</speed></extensions>
      </trkpt>
      <trkpt lat="51.836323000" lon="7.614458000">
        <ele>66.7</ele>
        <time>2017-04-29T05:02:28</time>
      </trkpt>
      <trkpt lat="51.836323000" lon="7.614479000">
        <ele>66.6</ele>
        <time>2017-04-29T05:02:30</time>
        <extensions><speed>1.28</speed></extensions>
      </trkpt>
      <trkpt lat="51.836323000" lon="7.614495000">
        <ele>66.6</ele>
        <time>2017-04-29T05:02:31</time>
        <extensions><speed>1.23</speed></extensions>
      </trkpt>
      <trkpt lat="51.836330000" lon="7.614513000">
        <ele>66.6</ele>
        <time>2017-04-29T05:02:32</time>
        <extensions><speed>1.24</speed></extensions>
      </trkpt>
      <trkpt lat="51.836334000" lon="7.614526000">
        <ele>66.6</ele>
        <time>2017-04-29T05:02:33</time>
        <extensions><speed>1.24</speed></extensions>
      </trkpt>
      <trkpt lat="51.836338000" lon="7.614535000">
        <ele>66.6</ele>
        <time>2017-04-29T05:02:34</time>
        <extensions><speed>1.08</speed></extensions>
      </trkpt>
      <trkpt lat="51.836342000" lon="7.614540000">
        <ele>66.5</ele>
        <time>2017-04-29T05:02:35</time>
        <extensions><speed>0.92</speed></extensions>
      </trkpt>
      <trkpt lat="51.836452000" lon="7.614633000">
        <ele>66.4</ele>
        <time>2017-04-29T05:05:15</time>
      </trkpt>
      <trkpt lat="51.836464000" lon="7.614636000">
        <ele>66.3</ele>
        <time>2017-04-29T05:05:17</time>
        <extensions><speed>1.30</speed></extensions>
      </trkpt>
      <trkpt lat="51.836479000" lon="7.614645000">
        <ele>66.3</ele>
        <time>2017-04-29T05:05:18</time>
        <extensions><speed>1.30</speed></extensions>
      </trkpt>
      <trkpt lat="51.836491000" lon="7.614650000">
        <ele>66.3</ele>
        <time>2017-04-29T05:05:19</time>
        <extensions><speed>1.33</speed></extensions>
      </trkpt>
      <trkpt lat="51.836502000" lon="7.614657000">
        <ele>66.3</ele>
        <time>2017-04-29T05:05:20</time>
        <extensions><speed>1.34</speed></extensions>
      </trkpt>
      <trkpt lat="51.836510000" lon="7.614666000">
        <ele>66.3</ele>
        <time>2017-04-29T05:05:21</time>
        <extensions><speed>1.34</speed></extensions>
      </trkpt>
      <trkpt lat="51.836517000" lon="7.614671000">
        <ele>66.3</ele>
        <time>2017-04-29T05:05:22</time>
        <extensions><speed>1.28</speed></extensions>
      </trkpt>
      <trkpt lat="51.836529000" lon="7.614685000">
        <ele>66.3</ele>
        <time>2017-04-29T05:05:23</time>
        <extensions><speed>1.28</speed></extensions>
      </trkpt>
      <trkpt lat="51.836544000" lon="7.614699000">
        <ele>66.2</ele>
        <time>2017-04-29T05:05:24</time>
        <extensions><speed>1.34</speed></extensions>
      </trkpt>
      <trkpt lat="51.836555000" lon="7.614707000">
        <ele>66.2</ele>
        <time>2017-04-29T05:05:25</time>
        <extensions><speed>1.35</speed></extensions>
      </trkpt>
      <trkpt lat="51.836567000" lon="7.614718000">
        <ele>66.2</ele>
        <time>2017-04-29T05:05:26</time>
        <extensions><speed>1.36</speed></extensions>
      </trkpt>
      <trkpt lat="51.836578000" lon="7.614732000">
        <ele>66.2</ele>
        <time>2017-04-29T05:05:27</time>
        <extensions><speed>1.39</speed></extensions>
      </trkpt>
      <trkpt lat="51.836586000" lon="7.614741000">
        <ele>66.2</ele>
        <time>2017-04-29T05:05:28</time>
        <extensions><speed>1.35</speed></extensions>
      </trkpt>
      <trkpt lat="51.836601000" lon="7.614757000">
        <ele>66.2</ele>
        <time>2017-04-29T05:05:29</time>
        <extensions><speed>1.35</speed></extensions>
      </trkpt>
      <trkpt lat="51.836613000" lon="7.614767000">
        <ele>66.2</ele>
        <time>2017-04-29T05:05:30</time>
        <extensions><speed>1.38</speed></extensions>
      </trkpt>
      <trkpt lat="51.836624000" lon="7.614777000">
        <ele>66.1</ele>
        <time>2017-04-29T05:05:31</time>
        <extensions><speed>1.38</speed></extensions>
      </trkpt>
      <trkpt lat="51.836636000" lon="7.614785000">
        <ele>66.1</ele>
        <time>2017-04-29T05:05:32</time>
        <extensions><speed>1.38</speed></extensions>
      </trkpt>
      <trkpt lat="51.836647000" lon="7.614793000">
        <ele>66.1</ele>
        <time>2017-04-29T05:05:33</time>
        <extensions><speed>1.42</speed></extensions>
      </trkpt>
      <trkpt lat="51.836658000" lon="7.614804000">
        <ele>66.1</ele>
        <time>2017-04-29T05:05:34</time>
        <extensions><speed>1.38</speed></extensions>
      </trkpt>
      <trkpt lat="51.836670000" lon="7.614813000">
        <ele>66.1</ele>
        <time>2017-04-29T05:05:35</time>
        <extensions><speed>1.32</speed></extensions>
      </trkpt>
      <trkpt lat="51.836678000" lon="7.614818000">
        <ele>66.1</ele>
        <time>2017-04-29T05:05:36</time>
        <extensions><speed>1.32</speed></extensions>
      </trkpt>
      <trkpt lat="51.836693000" lon="7.614823000">
        <ele>66.1</ele>
        <time>2017-04-29T05:05:37</time>
        <extensions><speed>1.33</speed></extensions>
      </trkpt>
      <trkpt lat="51.836704000" lon="7.614829000">
        <ele>66.1</ele>
        <time>2017-04-29T05:05:38</time>
        <extensions><speed>1.31</speed></extensions>
      </trkpt>
      <trkpt lat="51.836712000" lon="7.614832000">
        <ele>66.1</ele>
        <time>2017-04-29T05:05:39</time>
        <extensions><speed>1.30</speed></extensions>
      </trkpt>
      <trkpt lat="51.836723000" lon="7.614839000">
        <ele>66.1</ele>
        <time>2017-04-29T05:05:40</time>
        <extensions><speed>1.26</speed></extensions>
      </trkpt>
      <trkpt lat="51.836735000" lon="7.614845000">
        <ele>66.0</ele>
        <time>2017-04-29T05:05:41</time>
        <extensions><speed>1.25</speed></extensions>
      </trkpt>
      <trkpt lat="51.836742000" lon="7.614857000">
        <ele>66.0</ele>
        <time>2017-04-29T05:05:42</time>
        <extensions><speed>1.23</speed></extensions>
      </trkpt>
      <trkpt lat="51.836754000" lon="7.614867000">
        <ele>66.0</ele>
        <time>2017-04-29T05:05:43</time>
        <extensions><speed>1.24</speed></extensions>
      </trkpt>
      <trkpt lat="51.836765000" lon="7.614874000">
        <ele>66.0</ele>
        <time>2017-04-29T05:05:44</time>
        <extensions><speed>1.21</speed></extensions>
      </trkpt>
      <trkpt lat="51.836773000" lon="7.614882000">
        <ele>66.0</ele>
        <time>2017-04-29T05:05:45</time>
        <extensions><speed>1.24</speed></extensions>
      </trkpt>
      <trkpt lat="51.836784000" lon="7.614888000">
        <ele>66.0</ele>
        <time>2017-04-29T05:05:46</time>
        <extensions><speed>1.25</speed></extensions>
      </trkpt>
      <trkpt lat="51.836792000" lon="7.614897000">
        <ele>66.0</ele>
        <time>2017-04-29T05:05:47</time>
        <extensions><speed>1.23</speed></extensions>
      </trkpt>
      <trkpt lat="51.836803000" lon="7.614907000">
        <ele>66.0</ele>
        <time>2017-04-29T05:05:48</time>
        <extensions><speed>1.27</speed></extensions>
      </trkpt>
      <trkpt lat="51.836815000" lon="7.614918000">
        <ele>66.0</ele>
        <time>2017-04-29T05:05:49</time>
        <extensions><speed>1.32</speed></extensions>
      </trkpt>
      <trkpt lat="51.836826000" lon="7.614928000">
        <ele>66.0</ele>
        <time>2017-04-29T05:05:50</time>
        <extensions><speed>1.30</speed></extensions>
      </trkpt>
      <trkpt lat="51.836838000" lon="7.614939000">
        <ele>66.0</ele>
        <time>2017-04-29T05:05:51</time>
        <extensions><speed>1.28</speed></extensions>
      </trkpt>
      <trkpt lat="51.836849000" lon="7.614952000">
        <ele>66.0</ele>
        <time>2017-04-29T05:05:52</time>
        <extensions><speed>1.34</speed></extensions>
      </trkpt>
      <trkpt lat="51.836857000" lon="7.614964000">
        <ele>66.0</ele>
        <time>2017-04-29T05:05:53</time>
        <extensions><speed>1.34</speed></extensions>
      </trkpt>
      <trkpt lat="51.836872000" lon="7.614974000">
        <ele>66.0</ele>
        <time>2017-04-29T05:05:54</time>
        <extensions><speed>1.30</speed></extensions>
      </trkpt>
      <trkpt lat="51.836880000" lon="7.614979000">
        <ele>66.0</ele>
        <time>2017-04-29T05:05:55</time>
        <extensions><speed>1.30</speed></extensions>
      </trkpt>
      <trkpt lat="51.836891000" lon="7.614985000">
        <ele>66.0</ele>
        <time>2017-04-29T05:05:56</time>
        <extensions><speed>1.29</speed></extensions>
      </trkpt>
      <trkpt lat="51.836903000" lon="7.614997000">
        <ele>66.0</ele>
        <time>2017-04-29T05:05:57</time>
        <extensions><speed>1.29</speed></extensions>
      </trkpt>
      <trkpt lat="51.836910000" lon="7.615012000">
        <ele>66.1</ele>
        <time>2017-04-29T05:05:58</time>
        <extensions><speed>1.35</speed></extensions>
      </trkpt>
      <trkpt lat="51.836926000" lon="7.615021000">
        <ele>66.1</ele>
        <time>2017-04-29T05:05:59</time>
        <extensions><speed>1.40</speed></extensions>
      </trkpt>
      <trkpt lat="51.836933000" lon="7.615030000">
        <ele>66.1</ele>
        <time>2017-04-29T05:06:00</time>
        <extensions><speed>1.42</speed></extensions>
      </trkpt>
      <trkpt lat="51.836941000" lon="7.615040000">
        <ele>66.1</ele>
        <time>2017-04-29T05:06:01</time>
        <extensions><speed>1.42</speed></extensions>
      </trkpt>
      <trkpt lat="51.836952000" lon="7.615048000">
        <ele>66.1</ele>
        <time>2017-04-29T05:06:02</time>
        <extensions><speed>1.37</speed></extensions>
      </trkpt>
      <trkpt lat="51.836967000" lon="7.615055000">
        <ele>66.1</ele>
        <time>2017-04-29T05:06:03</time>
        <extensions><speed>1.33</speed></extensions>
      </trkpt>
      <trkpt lat="51.836979000" lon="7.615060000">
        <ele>66.1</ele>
        <time>2017-04-29T05:06:04</time>
        <extensions><speed>1.33</speed></extensions>
      </trkpt>
      <trkpt lat="51.836994000" lon="7.615067000">
        <ele>66.2</ele>
        <time>2017-04-29T05:06:05</time>
        <extensions><speed>1.34</speed></extensions>
      </trkpt>
      <trkpt lat="51.837002000" lon="7.615075000">
        <ele>66.2</ele>
        <time>2017-04-29T05:06:06</time>
        <extensions><speed>1.39</speed></extensions>
      </trkpt>
      <trkpt lat="51.837017000" lon="7.615083000">
        <ele>66.2</ele>
        <time>2017-04-29T05:06:07</time>
        <extensions><speed>1.44</speed></extensions>
      </trkpt>
      <trkpt lat="51.837029000" lon="7.615093000">
        <ele>66.3</ele>
        <time>2017-04-29T05:06:08</time>
        <extensions><speed>1.44</speed></extensions>
      </trkpt>
      <trkpt lat="51.837036000" lon="7.615105000">
        <ele>66.3</ele>
        <time>2017-04-29T05:06:09</time>
        <extensions><speed>1.38</speed></extensions>
      </trkpt>
      <trkpt lat="51.837048000" lon="7.615112000">
        <ele>66.3</ele>
        <time>2017-04-29T05:06:10</time>
        <extensions><speed>1.42</speed></extensions>
      </trkpt>
      <trkpt lat="51.837063000" lon="7.615115000">
        <ele>66.4</ele>
        <time>2017-04-29T05:06:11</time>
        <extensions><speed>1.35</speed></extensions>
      </trkpt>
      <trkpt lat="51.837070000" lon="7.615119000">
        <ele>66.4</ele>
        <time>2017-04-29T05:06:12</time>
        <extensions><speed>1.30</speed></extensions>
      </trkpt>
      <trkpt lat="51.837082000" lon="7.615127000">
        <ele>66.4</ele>
        <time>2017-04-29T05:06:13</time>
        <extensions><speed>1.31</speed></extensions>
      </trkpt>
      <trkpt lat="51.837097000" lon="7.615135000">
        <ele>66.5</ele>
        <time>2017-04-29T05:06:14</time>
        <extensions><speed>1.34</speed></extensions>
      </trkpt>
      <trkpt lat="51.837105000" lon="7.615145000">
        <ele>66.5</ele>
        <time>2017-04-29T05:06:15</time>
        <extensions><speed>1.32</speed></extensions>
      </trkpt>
      <trkpt lat="51.837116000" lon="7.615155000">
        <ele>66.6</ele>
        <time>2017-04-29T05:06:16</time>
        <extensions><speed>1.34</speed></extensions>
      </trkpt>
      <trkpt lat="51.837132000" lon="7.615163000">
        <ele>66.6</ele>
        <time>2017-04-29T05:06:17</time>
        <extensions><speed>1.34</speed></extensions>
      </trkpt>
      <trkpt lat="51.837135000" lon="7.615170000">
        <ele>66.6</ele>
        <time>2017-04-29T05:06:18</time>
        <extensions><speed>1.32</speed></extensions>
      </trkpt>
      <trkpt lat="51.837151000" lon="7.615179000">
        <ele>66.7</ele>
        <time>2017-04-29T05:06:19</time>
        <extensions><speed>1.27</speed></extensions>
      </trkpt>
      <trkpt lat="51.837158000" lon="7.615187000">
        <ele>66.7</ele>
        <time>2017-04-29T05:06:20</time>
        <extensions><speed>1.22</speed></extensions>
      </trkpt>
      <trkpt lat="51.837166000" lon="7.615195000">
        <ele>66.7</ele>
        <time>2017-04-29T05:06:21</time>
        <extensions><speed>1.22</speed></extensions>
      </trkpt>
      <trkpt lat="51.837177000" lon="7.615207000">
        <ele>66.8</ele>
        <time>2017-04-29T05:06:22</time>
        <extensions><speed>1.28</speed></extensions>
      </trkpt>
      <trkpt lat="51.837193000" lon="7.615217000">
        <ele>66.8</ele>
        <time>2017-04-29T05:06:23</time>
        <extensions><speed>1.30</speed></extensions>
      </trkpt>
      <trkpt lat="51.837200000" lon="7.615222000">
        <ele>66.8</ele>
        <time>2017-04-29T05:06:24</time>
        <extensions><speed>1.33</speed></extensions>
      </trkpt>
      <trkpt lat="51.837212000" lon="7.615225000">
        <ele>66.9</ele>
        <time>2017-04-29T05:06:25</time>
        <extensions><speed>1.33</speed></extensions>
      </trkpt>
      <trkpt lat="51.837219000" lon="7.615235000">
        <ele>66.9</ele>
        <time>2017-04-29T05:06:26</time>
        <extensions><speed>1.22</speed></extensions>
      </trkpt>
      <trkpt lat="51.837227000" lon="7.615247000">
        <ele>67.0</ele>
        <time>2017-04-29T05:06:27</time>
        <extensions><speed>1.10</speed></extensions>
      </trkpt>
      <trkpt lat="51.837231000" lon="7.615253000">
        <ele>67.0</ele>
        <time>2017-04-29T05:06:28</time>
        <extensions><speed>1.06</speed></extensions>
      </trkpt>
      <trkpt lat="51.837242000" lon="7.615260000">
        <ele>67.0</ele>
        <time>2017-04-29T05:06:29</time>
        <extensions><speed>1.06</speed></extensions>
      </trkpt>
      <trkpt lat="51.837254000" lon="7.615268000">
        <ele>67.1</ele>
        <time>2017-04-29T05:06:30</time>
        <extensions><speed>1.11</speed></extensions>
      </trkpt>
      <trkpt lat="51.837265000" lon="7.615278000">
        <ele>67.1</ele>
        <time>2017-04-29T05:06:31</time>
        <extensions><speed>1.23</speed></extensions>
      </trkpt>
      <trkpt lat="51.837276000" lon="7.615290000">
        <ele>67.1</ele>
        <time>2017-04-29T05:06:32</time>
        <extensions><speed>1.31</speed></extensions>
      </trkpt>
      <trkpt lat="51.837288000" lon="7.615302000">
        <ele>67.2</ele>
        <time>2017-04-29T05:06:33</time>
        <extensions><speed>1.36</speed></extensions>
      </trkpt>
      <trkpt lat="51.837296000" lon="7.615310000">
        <ele>67.2</ele>
        <time>2017-04-29T05:06:34</time>
        <extensions><speed>1.31</speed></extensions>
      </trkpt>
      <trkpt lat="51.837307000" lon="7.615317000">
        <ele>67.3</ele>
        <time>2017-04-29T05:06:35</time>
        <extensions><speed>1.27</speed></extensions>
      </trkpt>
      <trkpt lat="51.837315000" lon="7.615324000">
        <ele>67.3</ele>
        <time>2017-04-29T05:06:36</time>
        <extensions><speed>1.23</speed></extensions>
      </trkpt>
      <trkpt lat="51.837326000" lon="7.615330000">
        <ele>67.3</ele>
        <time>2017-04-29T05:06:37</time>
        <extensions><speed>1.23</speed></extensions>
      </trkpt>
      <trkpt lat="51.837337000" lon="7.615335000">
        <ele>67.4</ele>
        <time>2017-04-29T05:06:38</time>
        <extensions><speed>1.16</speed></extensions>
      </trkpt>
      <trkpt lat="51.837345000" lon="7.615343000">
        <ele>67.4</ele>
        <time>2017-04-29T05:06:39</time>
        <extensions><speed>1.21</speed></extensions>
      </trkpt>
      <trkpt lat="51.837357000" lon="7.615350000">
        <ele>67.5</ele>
        <time>2017-04-29T05:06:40</time>
        <extensions><speed>1.24</speed></extensions>
      </trkpt>
      <trkpt lat="51.837364000" lon="7.615359000">
        <ele>67.5</ele>
        <time>2017-04-29T05:06:41</time>
        <extensions><speed>1.29</speed></extensions>
      </trkpt>
      <trkpt lat="51.837376000" lon="7.615365000">
        <ele>67.5</ele>
        <time>2017-04-29T05:06:42</time>
        <extensions><speed>1.24</speed></extensions>
      </trkpt>
      <trkpt lat="51.837387000" lon="7.615370000">
        <ele>67.6</ele>
        <time>2017-04-29T05:06:43</time>
        <extensions><speed>1.18</speed></extensions>
      </trkpt>
      <trkpt lat="51.837395000" lon="7.615378000">
        <ele>67.6</ele>
        <time>2017-04-29T05:06:44</time>
        <extensions><speed>1.04</speed></extensions>
      </trkpt>
      <trkpt lat="51.837399000" lon="7.615380000">
        <ele>67.7</ele>
        <time>2017-04-29T05:06:45</time>
        <extensions><speed>0.88</speed></extensions>
      </trkpt>
      <trkpt lat="51.837406000" lon="7.615382000">
        <ele>67.7</ele>
        <time>2017-04-29T05:06:46</time>
        <extensions><speed>0.77</speed></extensions>
      </trkpt>
      <trkpt lat="51.837410000" lon="7.615382000">
        <ele>67.7</ele>
        <time>2017-04-29T05:06:47</time>
        <extensions><speed>0.67</speed></extensions>
      </trkpt>
      <trkpt lat="51.837521000" lon="7.615490000">
        <ele>68.2</ele>
        <time>2017-04-29T05:07:31</time>
      </trkpt>
      <trkpt lat="51.837528000" lon="7.615499000">
        <ele>68.2</ele>
        <time>2017-04-29T05:07:33</time>
        <extensions><speed>1.34</speed></extensions>
      </trkpt>
      <trkpt lat="51.837540000" lon="7.615510000">
        <ele>68.3</ele>
        <time>2017-04-29T05:07:34</time>
        <extensions><speed>1.36</speed></extensions>
      </trkpt>
      <trkpt lat="51.837551000" lon="7.615519000">
        <ele>68.3</ele>
        <time>2017-04-29T05:07:35</time>
        <extensions><speed>1.37</speed></extensions>
      </trkpt>
      <trkpt lat="51.837559000" lon="7.615529000">
        <ele>68.4</ele>
        <time>2017-04-29T05:07:36</time>
        <extensions><speed>1.36</speed></extensions>
      </trkpt>
      <trkpt lat="51.837570000" lon="7.615540000">
        <ele>68.4</ele>
        <time>2017-04-29T05:07:37</time>
        <extensions><speed>1.37</speed></extensions>
      </trkpt>
      <trkpt lat="51.837585000" lon="7.615547000">
        <ele>68.5</ele>
        <time>2017-04-29T05:07:38</time>
        <extensions><speed>1.37</speed></extensions>
      </trkpt>
      <trkpt lat="51.837593000" lon="7.615555000">
        <ele>68.5</ele>
        <time>2017-04-29T05:07:39</time>
        <extensions><speed>1.36</speed></extensions>
      </trkpt>
      <trkpt lat="51.837608000" lon="7.615563000">
        <ele>68.6</ele>
        <time>2017-04-29T05:07:40</time>
        <extensions><speed>1.35</speed></extensions>
      </trkpt>
      <trkpt lat="51.837616000" lon="7.615571000">
        <ele>68.7</ele>
        <time>2017-04-29T05:07:41</time>
        <extensions><speed>1.35</speed></extensions>
      </trkpt>
      <trkpt lat="51.837624000" lon="7.615578000">
        <ele>68.7</ele>
        <time>2017-04-29T05:07:42</time>
        <extensions><speed>1.37</speed></extensions>
      </trkpt>
      <trkpt lat="51.837639000" lon="7.615588000">
        <ele>68.8</ele>
        <time>2017-04-29T05:07:43</time>
        <extensions><speed>1.38</speed></extensions>
      </trkpt>
      <trkpt lat="51.837654000" lon="7.615599000">
        <ele>68.8</ele>
        <time>2017-04-29T05:07:44</time>
        <extensions><speed>1.36</speed></extensions>
      </trkpt>
      <trkpt lat="51.837662000" lon="7.615608000">
        <ele>68.8</ele>
        <time>2017-04-29T05:07:45</time>
        <extensions><speed>1.35</speed></extensions>
      </trkpt>
      <trkpt lat="51.837673000" lon="7.615616000">
        <ele>68.9</ele>
        <time>2017-04-29T05:07:46</time>
        <extensions><speed>1.36</speed></extensions>
      </trkpt>
      <trkpt lat="51.837685000" lon="7.615632000">
        <ele>68.9</ele>
        <time>2017-04-29T05:07:47</time>
        <extensions><speed>1.38</speed></extensions>
      </trkpt>
      <trkpt lat="51.837692000" lon="7.615641000">
        <ele>68.9</ele>
        <time>2017-04-29T05:07:48</time>
        <extensions><speed>1.36</speed></extensions>
      </trkpt>
      <trkpt lat="51.837708000" lon="7.615652000">
        <ele>68.9</ele>
        <time>2017-04-29T05:07:49</time>
        <extensions><speed>1.36</speed></extensions>
      </trkpt>
      <trkpt lat="51.837719000" lon="7.615662000">
        <ele>68.9</ele>
        <time>2017-04-29T05:07:50</time>
        <extensions><speed>1.39</speed></extensions>
      </trkpt>
      <trkpt lat="51.837730000" lon="7.615670000">
        <ele>68.9</ele>
        <time>2017-04-29T05:07:51</time>
        <extensions><speed>1.43</speed></extensions>
      </trkpt>
      <trkpt lat="51.837746000" lon="7.615676000">
        <ele>68.8</ele>
        <time>2017-04-29T05:07:52</time>
        <extensions><speed>1.41</speed></extensions>
      </trkpt>
      <trkpt lat="51.837753000" lon="7.615685000">
        <ele>68.8</ele>
        <time>2017-04-29T05:07:53</time>
        <extensions><speed>1.38</speed></extensions>
      </trkpt>
      <trkpt lat="51.837761000" lon="7.615694000">
        <ele>68.8</ele>
        <time>2017-04-29T05:07:54</time>
        <extensions><speed>1.41</speed></extensions>
      </trkpt>
      <trkpt lat="51.837772000" lon="7.615705000">
        <ele>68.8</ele>
        <time>2017-04-29T05:07:55</time>
        <extensions><speed>1.37</speed></extensions>
      </trkpt>
      <trkpt lat="51.837784000" lon="7.615715000">
        <ele>68.8</ele>
        <time>2017-04-29T05:07:56</time>
        <extensions><speed>1.33</speed></extensions>
      </trkpt>
      <trkpt lat="51.837795000" lon="7.615725000">
        <ele>68.7</ele>
        <time>2017-04-29T05:07:57</time>
        <extensions><speed>1.27</speed></extensions>
      </trkpt>
      <trkpt lat="51.837807000" lon="7.615737000">
        <ele>68.7</ele>
        <time>2017-04-29T05:07:58</time>
        <extensions><speed>1.34</speed></extensions>
      </trkpt>
      <trkpt lat="51.837818000" lon="7.615746000">
        <ele>68.7</ele>
        <time>2017-04-29T05:07:59</time>
        <extensions><speed>1.31</speed></extensions>
      </trkpt>
      <trkpt lat="51.837830000" lon="7.615758000">
        <ele>68.7</ele>
        <time>2017-04-29T05:08:00</time>
        <extensions><speed>1.36</speed></extensions>
      </trkpt>
      <trkpt lat="51.837841000" lon="7.615770000">
        <ele>68.7</ele>
        <time>2017-04-29T05:08:01</time>
        <extensions><speed>1.40</speed></extensions>
      </trkpt>
      <trkpt lat="51.837849000" lon="7.615781000">
        <ele>68.7</ele>
        <time>2017-04-29T05:08:02</time>
        <extensions><speed>1.41</speed></extensions>
      </trkpt>
      <trkpt lat="51.837860000" lon="7.615791000">
        <ele>68.6</ele>
        <time>2017-04-29T05:08:03</time>
        <extensions><speed>1.39</speed></extensions>
      </trkpt>
      <trkpt lat="51.837872000" lon="7.615802000">
        <ele>68.6</ele>
        <time>2017-04-29T05:08:04</time>
        <extensions><speed>1.41</speed></extensions>
      </trkpt>
      <trkpt lat="51.837883000" lon="7.615808000">
        <ele>68.6</ele>
        <time>2017-04-29T05:08:05</time>
        <extensions><speed>1.46</speed></extensions>
      </trkpt>
      <trkpt lat="51.837898000" lon="7.615820000">
        <ele>68.6</ele>
        <time>2017-04-29T05:08:06</time>
        <extensions><speed>1.50</speed></extensions>
      </trkpt>
      <trkpt lat="51.837910000" lon="7.615828000">
        <ele>68.6</ele>
        <time>2017-04-29T05:08:07</time>
        <extensions><speed>1.51</speed></extensions>
      </trkpt>
      <trkpt lat="51.837917000" lon="7.615837000">
        <ele>68.5</ele>
        <time>2017-04-29T05:08:08</time>
        <extensions><speed>1.51</speed></extensions>
      </trkpt>
      <trkpt lat="51.837929000" lon="7.615847000">
        <ele>68.5</ele>
        <time>2017-04-29T05:08:09</time>
        <extensions><speed>1.44</speed></extensions>
      </trkpt>
      <trkpt lat="51.837940000" lon="7.615857000">
        <ele>68.5</ele>
        <time>2017-04-29T05:08:10</time>
        <extensions><speed>1.41</speed></extensions>
      </trkpt>
      <trkpt lat="51.837952000" lon="7.615860000">
        <ele>68.5</ele>
        <time>2017-04-29T05:08:11</time>
        <extensions><speed>1.37</speed></extensions>
      </trkpt>
      <trkpt lat="51.837963000" lon="7.615867000">
        <ele>68.4</ele>
        <time>2017-04-29T05:08:12</time>
        <extensions><speed>1.33</speed></extensions>
      </trkpt>
      <trkpt lat="51.837975000" lon="7.615875000">
        <ele>68.4</ele>
        <time>2017-04-29T05:08:13</time>
        <extensions><speed>1.36</speed></extensions>
      </trkpt>
      <trkpt lat="51.837986000" lon="7.615882000">
        <ele>68.4</ele>
        <time>2017-04-29T05:08:14</time>
        <extensions><speed>1.39</speed></extensions>
      </trkpt>
      <trkpt lat="51.837997000" lon="7.615888000">
        <ele>68.4</ele>
        <time>2017-04-29T05:08:15</time>
        <extensions><speed>1.33</speed></extensions>
      </trkpt>
      <trkpt lat="51.838009000" lon="7.615897000">
        <ele>68.4</ele>
        <time>2017-04-29T05:08:16</time>
        <extensions><speed>1.33</speed></extensions>
      </trkpt>
      <trkpt lat="51.838017000" lon="7.615907000">
        <ele>68.3</ele>
        <time>2017-04-29T05:08:17</time>
        <extensions><speed>1.37</speed></extensions>
      </trkpt>
      <trkpt lat="51.838032000" lon="7.615918000">
        <ele>68.3</ele>
        <time>2017-04-29T05:08:18</time>
        <extensions><speed>1.37</speed></extensions>
      </trkpt>
      <trkpt lat="51.838043000" lon="7.615926000">
        <ele>68.3</ele>
        <time>2017-04-29T05:08:19</time>
        <extensions><speed>1.34</speed></extensions>
      </trkpt>
      <trkpt lat="51.838051000" lon="7.615933000">
        <ele>68.2</ele>
        <time>2017-04-29T05:08:20</time>
        <extensions><speed>1.38</speed></extensions>
      </trkpt>
      <trkpt lat="51.838062000" lon="7.615940000">
        <ele>68.2</ele>
        <time>2017-04-29T05:08:21</time>
        <extensions><speed>1.40</speed></extensions>
      </trkpt>
      <trkpt lat="51.838078000" lon="7.615949000">
        <ele>68.2</ele>
        <time>2017-04-29T05:08:22</time>
        <extensions><speed>1.38</speed></extensions>
      </trkpt>
      <trkpt lat="51.838085000" lon="7.615958000">
        <ele>68.2</ele>
        <time>2017-04-29T05:08:23</time>
        <extensions><speed>1.38</speed></extensions>
      </trkpt>
      <trkpt lat="51.838104000" lon="7.615968000">
        <ele>68.1</ele>
        <time>2017-04-29T05:08:24</time>
        <extensions><speed>1.37</speed></extensions>
      </trkpt>
      <trkpt lat="51.838112000" lon="7.615980000">
        <ele>68.1</ele>
        <time>2017-04-29T05:08:25</time>
        <extensions><speed>1.38</speed></extensions>
      </trkpt>
      <trkpt lat="51.838123000" lon="7.615990000">
        <ele>68.1</ele>
        <time>2017-04-29T05:08:26</time>
        <extensions><speed>1.38</speed></extensions>
      </trkpt>
      <trkpt lat="51.838135000" lon="7.616000000">
        <ele>68.1</ele>
        <time>2017-04-29T05:08:27</time>
        <extensions><speed>1.43</speed></extensions>
      </trkpt>
      <trkpt lat="51.838146000" lon="7.616010000">
        <ele>68.0</ele>
        <time>2017-04-29T05:08:28</time>
        <extensions><speed>1.43</speed></extensions>
      </trkpt>
      <trkpt lat="51.838161000" lon="7.616020000">
        <ele>68.0</ele>
        <time>2017-04-29T05:08:29</time>
        <extensions><speed>1.43</speed></extensions>
      </trkpt>
      <trkpt lat="51.838173000" lon="7.616032000">
        <ele>68.0</ele>
        <time>2017-04-29T05:08:30</time>
        <extensions><speed>1.41</speed></extensions>
      </trkpt>
      <trkpt lat="51.838177000" lon="7.616044000">
        <ele>68.0</ele>
        <time>2017-04-29T05:08:31</time>
        <extensions><speed>1.44</speed></extensions>
      </trkpt>
      <trkpt lat="51.838188000" lon="7.616057000">
        <ele>67.9</ele>
        <time>2017-04-29T05:08:32</time>
        <extensions><speed>1.46</speed></extensions>
      </trkpt>
      <trkpt lat="51.838203000" lon="7.616066000">
        <ele>67.9</ele>
        <time>2017-04-29T05:08:33</time>
        <extensions><speed>1.43</speed></extensions>
      </trkpt>
      <trkpt lat="51.838211000" lon="7.616080000">
        <ele>67.9</ele>
        <time>2017-04-29T05:08:34</time>
        <extensions><speed>1.41</speed></extensions>
      </trkpt>
      <trkpt lat="51.838223000" lon="7.616092000">
        <ele>67.9</ele>
        <time>2017-04-29T05:08:35</time>
        <extensions><speed>1.40</speed></extensions>
      </trkpt>
      <trkpt lat="51.838234000" lon="7.616101000">
        <ele>67.9</ele>
        <time>2017-04-29T05:08:36</time>
        <extensions><speed>1.40</speed></extensions>
      </trkpt>
      <trkpt lat="51.838245000" lon="7.616110000">
        <ele>67.9</ele>
        <time>2017-04-29T05:08:37</time>
        <extensions><speed>1.37</speed></extensions>
      </trkpt>
      <trkpt lat="51.838253000" lon="7.616118000">
        <ele>67.9</ele>
        <time>2017-04-29T05:08:38</time>
        <extensions><speed>1.37</speed></extensions>
      </trkpt>
      <trkpt lat="51.838268000" lon="7.616126000">
        <ele>67.8</ele>
        <time>2017-04-29T05:08:39</time>
        <extensions><speed>1.42</speed></extensions>
      </trkpt>
      <trkpt lat="51.838280000" lon="7.616135000">
        <ele>67.8</ele>
        <time>2017-04-29T05:08:40</time>
        <extensions><speed>1.45</speed></extensions>
      </trkpt>
      <trkpt lat="51.838291000" lon="7.616148000">
        <ele>67.8</ele>
        <time>2017-04-29T05:08:41</time>
        <extensions><speed>1.45</speed></extensions>
      </trkpt>
      <trkpt lat="51.838306000" lon="7.616158000">
        <ele>67.8</ele>
        <time>2017-04-29T05:08:42</time>
        <extensions><speed>1.47</speed></extensions>
      </trkpt>
      <trkpt lat="51.838314000" lon="7.616170000">
        <ele>67.8</ele>
        <time>2017-04-29T05:08:43</time>
        <extensions><speed>1.48</speed></extensions>
      </trkpt>
      <trkpt lat="51.838326000" lon="7.616183000">
        <ele>67.7</ele>
        <time>2017-04-29T05:08:44</time>
        <extensions><speed>1.47</speed></extensions>
      </trkpt>
      <trkpt lat="51.838337000" lon="7.616192000">
        <ele>67.7</ele>
        <time>2017-04-29T05:08:45</time>
        <extensions><speed>1.46</speed></extensions>
      </trkpt>
      <trkpt lat="51.838348000" lon="7.616198000">
        <ele>67.7</ele>
        <time>2017-04-29T05:08:46</time>
        <extensions><speed>1.42</speed></extensions>
      </trkpt>
      <trkpt lat="51.838364000" lon="7.616207000">
        <ele>67.7</ele>
        <time>2017-04-29T05:08:47</time>
        <extensions><speed>1.35</speed></extensions>
      </trkpt>
      <trkpt lat="51.838371000" lon="7.616217000">
        <ele>67.6</ele>
        <time>2017-04-29T05:08:48</time>
        <extensions><speed>1.35</speed></extensions>
      </trkpt>
      <trkpt lat="51.838387000" lon="7.616225000">
        <ele>67.6</ele>
        <time>2017-04-29T05:08:49</time>
        <extensions><speed>1.40</speed></extensions>
      </trkpt>
      <trkpt lat="51.838398000" lon="7.616231000">
        <ele>67.6</ele>
        <time>2017-04-29T05:08:50</time>
        <extensions><speed>1.40</speed></extensions>
      </trkpt>
      <trkpt lat="51.838406000" lon="7.616241000">
        <ele>67.5</ele>
        <time>2017-04-29T05:08:51</time>
        <extensions><speed>1.44</speed></extensions>
      </trkpt>
      <trkpt lat="51.838421000" lon="7.616250000">
        <ele>67.5</ele>
        <time>2017-04-29T05:08:52</time>
        <extensions><speed>1.45</speed></extensions>
      </trkpt>
      <trkpt lat="51.838436000" lon="7.616262000">
        <ele>67.4</ele>
        <time>2017-04-29T05:08:53</time>
        <extensions><speed>1.45</speed></extensions>
      </trkpt>
      <trkpt lat="51.838448000" lon="7.616271000">
        <ele>67.4</ele>
        <time>2017-04-29T05:08:54</time>
        <extensions><speed>1.45</speed></extensions>
      </trkpt>
      <trkpt lat="51.838459000" lon="7.616285000">
        <ele>67.4</ele>
        <time>2017-04-29T05:08:55</time>
        <extensions><speed>1.44</speed></extensions>
      </trkpt>
      <trkpt lat="51.838467000" lon="7.616297000">
        <ele>67.3</ele>
        <time>2017-04-29T05:08:56</time>
        <extensions><speed>1.42</speed></extensions>
      </trkpt>
      <trkpt lat="51.838478000" lon="7.616305000">
        <ele>67.3</ele>
        <time>2017-04-29T05:08:57</time>
        <extensions><speed>1.39</speed></extensions>
      </trkpt>
      <trkpt lat="51.838490000" lon="7.616312000">
        <ele>67.2</ele>
        <time>2017-04-29T05:08:58</time>
        <extensions><speed>1.39</speed></extensions>
      </trkpt>
      <trkpt lat="51.838501000" lon="7.616322000">
        <ele>67.2</ele>
        <time>2017-04-29T05:08:59</time>
        <extensions><speed>1.40</speed></extensions>
      </trkpt>
      <trkpt lat="51.838516000" lon="7.616330000">
        <ele>67.1</ele>
        <time>2017-04-29T05:09:00</time>
        <extensions><speed>1.46</speed></extensions>
      </trkpt>
      <trkpt lat="51.838528000" lon="7.616340000">
        <ele>67.1</ele>
        <time>2017-04-29T05:09:01</time>
        <extensions><speed>1.52</speed></extensions>
      </trkpt>
      <trkpt lat="51.838539000" lon="7.616348000">
        <ele>67.1</ele>
        <time>2017-04-29T05:09:02</time>
        <extensions><speed>1.52</speed></extensions>
      </trkpt>
      <trkpt lat="51.838551000" lon="7.616360000">
        <ele>67.0</ele>
        <time>2017-04-29T05:09:03</time>
        <extensions><speed>1.48</speed></extensions>
      </trkpt>
      <trkpt lat="51.838562000" lon="7.616370000">
        <ele>67.0</ele>
        <time>2017-04-29T05:09:04</time>
        <extensions><speed>1.48</speed></extensions>
      </trkpt>
      <trkpt lat="51.838570000" lon="7.616386000">
        <ele>66.9</ele>
        <time>2017-04-29T05:09:05</time>
        <extensions><speed>1.46</speed></extensions>
      </trkpt>
      <trkpt lat="51.838577000" lon="7.616400000">
        <ele>66.8</ele>
        <time>2017-04-29T05:09:06</time>
        <extensions><speed>1.40</speed></extensions>
      </trkpt>
      <trkpt lat="51.838589000" lon="7.616406000">
        <ele>66.8</ele>
        <time>2017-04-29T05:09:07</time>
        <extensions><speed>1.33</speed></extensions>
      </trkpt>
      <trkpt lat="51.838600000" lon="7.616413000">
        <ele>66.7</ele>
        <time>2017-04-29T05:09:08</time>
        <extensions><speed>1.23</speed></extensions>
      </trkpt>
      <trkpt lat="51.838604000" lon="7.616422000">
        <ele>66.6</ele>
        <time>2017-04-29T05:09:09</time>
        <extensions><speed>1.14</speed></extensions>
      </trkpt>
      <trkpt lat="51.838615000" lon="7.616430000">
        <ele>66.6</ele>
        <time>2017-04-29T05:09:10</time>
        <extensions><speed>1.14</speed></extensions>
      </trkpt>
      <trkpt lat="51.838627000" lon="7.616441000">
        <ele>66.6</ele>
        <time>2017-04-29T05:09:11</time>
        <extensions><speed>1.21</speed></extensions>
      </trkpt>
      <trkpt lat="51.838634000" lon="7.616452000">
        <ele>66.5</ele>
        <time>2017-04-29T05:09:12</time>
        <extensions><speed>1.23</speed></extensions>
      </trkpt>
      <trkpt lat="51.838646000" lon="7.616464000">
        <ele>66.5</ele>
        <time>2017-04-29T05:09:13</time>
        <extensions><speed>1.32</speed></extensions>
      </trkpt>
      <trkpt lat="51.838657000" lon="7.616474000">
        <ele>66.4</ele>
        <time>2017-04-29T05:09:14</time>
        <extensions><speed>1.36</speed></extensions>
      </trkpt>
      <trkpt lat="51.838669000" lon="7.616481000">
        <ele>66.4</ele>
        <time>2017-04-29T05:09:15</time>
        <extensions><speed>1.35</speed></extensions>
      </trkpt>
      <trkpt lat="51.838680000" lon="7.616488000">
        <ele>66.4</ele>
        <time>2017-04-29T05:09:16</time>
        <extensions><speed>1.36</speed></extensions>
      </trkpt>
      <trkpt lat="51.838696000" lon="7.616498000">
        <ele>66.3</ele>
        <time>2017-04-29T05:09:17</time>
        <extensions><speed>1.36</speed></extensions>
      </trkpt>
      <trkpt lat="51.838699000" lon="7.616508000">
        <ele>66.3</ele>
        <time>2017-04-29T05:09:18</time>
        <extensions><speed>1.31</speed></extensions>
      </trkpt>
      <trkpt lat="51.838715000" lon="7.616517000">
        <ele>66.3</ele>
        <time>2017-04-29T05:09:19</time>
        <extensions><speed>1.33</speed></extensions>
      </trkpt>
      <trkpt lat="51.838726000" lon="7.616527000">
        <ele>66.2</ele>
        <time>2017-04-29T05:09:20</time>
        <extensions><speed>1.38</speed></extensions>
      </trkpt>
      <trkpt lat="51.838734000" lon="7.616539000">
        <ele>66.2</ele>
        <time>2017-04-29T05:09:21</time>
        <extensions><speed>1.31</speed></extensions>
      </trkpt>
      <trkpt lat="51.838745000" lon="7.616548000">
        <ele>66.1</ele>
        <time>2017-04-29T05:09:22</time>
        <extensions><speed>1.30</speed></extensions>
      </trkpt>
      <trkpt lat="51.838757000" lon="7.616553000">
        <ele>66.1</ele>
        <time>2017-04-29T05:09:23</time>
        <extensions><speed>1.31</speed></extensions>
      </trkpt>
      <trkpt lat="51.838772000" lon="7.616560000">
        <ele>66.1</ele>
        <time>2017-04-29T05:09:24</time>
        <extensions><speed>1.34</speed></extensions>
      </trkpt>
      <trkpt lat="51.838787000" lon="7.616570000">
        <ele>66.0</ele>
        <time>2017-04-29T05:09:25</time>
        <extensions><speed>1.36</speed></extensions>
      </trkpt>
      <trkpt lat="51.838795000" lon="7.616581000">
        <ele>66.0</ele>
        <time>2017-04-29T05:09:26</time>
        <extensions><speed>1.37</speed></extensions>
      </trkpt>
      <trkpt lat="51.838806000" lon="7.616591000">
        <ele>65.9</ele>
        <time>2017-04-29T05:09:27</time>
        <extensions><speed>1.41</speed></extensions>
      </trkpt>
      <trkpt lat="51.838814000" lon="7.616602000">
        <ele>65.9</ele>
        <time>2017-04-29T05:09:28</time>
        <extensions><speed>1.43</speed></extensions>
      </trkpt>
      <trkpt lat="51.838829000" lon="7.616611000">
        <ele>65.9</ele>
        <time>2017-04-29T05:09:29</time>
        <extensions><speed>1.41</speed></extensions>
      </trkpt>
      <trkpt lat="51.838837000" lon="7.616618000">
        <ele>65.8</ele>
        <time>2017-04-29T05:09:30</time>
        <extensions><speed>1.33</speed></extensions>
      </trkpt>
      <trkpt lat="51.838852000" lon="7.616628000">
        <ele>65.8</ele>
        <time>2017-04-29T05:09:31</time>
        <extensions><speed>1.35</speed></extensions>
      </trkpt>
      <trkpt lat="51.838860000" lon="7.616637000">
        <ele>65.8</ele>
        <time>2017-04-29T05:09:32</time>
        <extensions><speed>1.33</speed></extensions>
      </trkpt>
      <trkpt lat="51.838867000" lon="7.616647000">
        <ele>65.7</ele>
        <time>2017-04-29T05:09:33</time>
        <extensions><speed>1.33</speed></extensions>
      </trkpt>
      <trkpt lat="51.838879000" lon="7.616655000">
        <ele>65.7</ele>
        <time>2017-04-29T05:09:34</time>
        <extensions><speed>1.33</speed></extensions>
      </trkpt>
      <trkpt lat="51.838890000" lon="7.616665000">
        <ele>65.7</ele>
        <time>2017-04-29T05:09:35</time>
        <extensions><speed>1.35</speed></extensions>
      </trkpt>
      <trkpt lat="51.838902000" lon="7.616675000">
        <ele>65.7</ele>
        <time>2017-04-29T05:09:36</time>
        <extensions><speed>1.34</speed></extensions>
      </trkpt>
      <trkpt lat="51.838913000" lon="7.616688000">
        <ele>65.6</ele>
        <time>2017-04-29T05:09:37</time>
        <extensions><speed>1.34</speed></extensions>
      </trkpt>
      <trkpt lat="51.838924000" lon="7.616696000">
        <ele>65.6</ele>
        <time>2017-04-29T05:09:38</time>
        <extensions><speed>1.41</speed></extensions>
      </trkpt>
      <trkpt lat="51.838940000" lon="7.616707000">
        <ele>65.6</ele>
        <time>2017-04-29T05:09:39</time>
        <extensions><speed>1.47</speed></extensions>
      </trkpt>
      <trkpt lat="51.838951000" lon="7.616717000">
        <ele>65.6</ele>
        <time>2017-04-29T05:09:40</time>
        <extensions><speed>1.43</speed></extensions>
      </trkpt>
      <trkpt lat="51.838963000" lon="7.616724000">
        <ele>65.5</ele>
        <time>2017-04-29T05:09:41</time>
        <extensions><speed>1.43</speed></extensions>
      </trkpt>
      <trkpt lat="51.838974000" lon="7.616737000">
        <ele>65.5</ele>
        <time>2017-04-29T05:09:42</time>
        <extensions><speed>1.43</speed></extensions>
      </trkpt>
      <trkpt lat="51.838985000" lon="7.616745000">
        <ele>65.5</ele>
        <time>2017-04-29T05:09:43</time>
        <extensions><speed>1.35</speed></extensions>
      </trkpt>
      <trkpt lat="51.838993000" lon="7.616754000">
        <ele>65.5</ele>
        <time>2017-04-29T05:09:44</time>
        <extensions><speed>1.33</speed></extensions>
      </trkpt>
      <trkpt lat="51.839008000" lon="7.616758000">
        <ele>65.5</ele>
        <time>2017-04-29T05:09:45</time>
        <extensions><speed>1.33</speed></extensions>
      </trkpt>
      <trkpt lat="51.839020000" lon="7.616765000">
        <ele>65.4</ele>
        <time>2017-04-29T05:09:46</time>
        <extensions><speed>1.33</speed></extensions>
      </trkpt>
      <trkpt lat="51.839027000" lon="7.616774000">
        <ele>65.4</ele>
        <time>2017-04-29T05:09:47</time>
        <extensions><speed>1.33</speed></extensions>
      </trkpt>
      <trkpt lat="51.839043000" lon="7.616782000">
        <ele>65.4</ele>
        <time>2017-04-29T05:09:48</time>
        <extensions><speed>1.36</speed></extensions>
      </trkpt>
      <trkpt lat="51.839054000" lon="7.616795000">
        <ele>65.4</ele>
        <time>2017-04-29T05:09:49</time>
        <extensions><speed>1.45</speed></extensions>
      </trkpt>
      <trkpt lat="51.839069000" lon="7.616807000">
        <ele>65.4</ele>
        <time>2017-04-29T05:09:50</time>
        <extensions><speed>1.42</speed></extensions>
      </trkpt>
      <trkpt lat="51.839081000" lon="7.616815000">
        <ele>65.3</ele>
        <time>2017-04-29T05:09:51</time>
        <extensions><speed>1.39</speed></extensions>
      </trkpt>
      <trkpt lat="51.839088000" lon="7.616823000">
        <ele>65.3</ele>
        <time>2017-04-29T05:09:52</time>
        <extensions><speed>1.41</speed></extensions>
      </trkpt>
      <trkpt lat="51.839100000" lon="7.616831000">
        <ele>65.3</ele>
        <time>2017-04-29T05:09:53</time>
        <extensions><speed>1.34</speed></extensions>
      </trkpt>
      <trkpt lat="51.839115000" lon="7.616838000">
        <ele>65.2</ele>
        <time>2017-04-29T05:09:54</time>
        <extensions><speed>1.34</speed></extensions>
      </trkpt>
      <trkpt lat="51.839127000" lon="7.616845000">
        <ele>65.2</ele>
        <time>2017-04-29T05:09:55</time>
        <extensions><speed>1.41</speed></extensions>
      </trkpt>
      <trkpt lat="51.839138000" lon="7.616854000">
        <ele>65.2</ele>
        <time>2017-04-29T05:09:56</time>
        <extensions><speed>1.42</speed></extensions>
      </trkpt>
      <trkpt lat="51.839149000" lon="7.616861000">
        <ele>65.2</ele>
        <time>2017-04-29T05:09:57</time>
        <extensions><speed>1.40</speed></extensions>
      </trkpt>
      <trkpt lat="51.839157000" lon="7.616873000">
        <ele>65.1</ele>
        <time>2017-04-29T05:09:58</time>
        <extensions><speed>1.45</speed></extensions>
      </trkpt>
      <trkpt lat="51.839172000" lon="7.616882000">
        <ele>65.1</ele>
        <time>2017-04-29T05:09:59</time>
        <extensions><speed>1.40</speed></extensions>
      </trkpt>
      <trkpt lat="51.839184000" lon="7.616890000">
        <ele>65.1</ele>
        <time>2017-04-29T05:10:00</time>
        <extensions><speed>1.37</speed></extensions>
      </trkpt>
      <trkpt lat="51.839191000" lon="7.616900000">
        <ele>65.1</ele>
        <time>2017-04-29T05:10:01</time>
        <extensions><speed>1.36</speed></extensions>
      </trkpt>
      <trkpt lat="51.839203000" lon="7.616910000">
        <ele>65.0</ele>
        <time>2017-04-29T05:10:02</time>
        <extensions><speed>1.36</speed></extensions>
      </trkpt>
      <trkpt lat="51.839214000" lon="7.616917000">
        <ele>65.0</ele>
        <time>2017-04-29T05:10:03</time>
        <extensions><speed>1.27</speed></extensions>
      </trkpt>
      <trkpt lat="51.839222000" lon="7.616924000">
        <ele>65.0</ele>
        <time>2017-04-29T05:10:04</time>
        <extensions><speed>1.30</speed></extensions>
      </trkpt>
      <trkpt lat="51.839233000" lon="7.616931000">
        <ele>65.0</ele>
        <time>2017-04-29T05:10:05</time>
        <extensions><speed>1.25</speed></extensions>
      </trkpt>
      <trkpt lat="51.839245000" lon="7.616940000">
        <ele>65.0</ele>
        <time>2017-04-29T05:10:06</time>
        <extensions><speed>1.23</speed></extensions>
      </trkpt>
      <trkpt lat="51.839252000" lon="7.616952000">
        <ele>64.9</ele>
        <time>2017-04-29T05:10:07</time>
        <extensions><speed>1.25</speed></extensions>
      </trkpt>
      <trkpt lat="51.839264000" lon="7.616962000">
        <ele>64.9</ele>
        <time>2017-04-29T05:10:08</time>
        <extensions><speed>1.30</speed></extensions>
      </trkpt>
      <trkpt lat="51.839275000" lon="7.616975000">
        <ele>64.9</ele>
        <time>2017-04-29T05:10:09</time>
        <extensions><speed>1.30</speed></extensions>
      </trkpt>
      <trkpt lat="51.839287000" lon="7.616987000">
        <ele>64.9</ele>
        <time>2017-04-29T05:10:10</time>
        <extensions><speed>1.29</speed></extensions>
      </trkpt>
      <trkpt lat="51.839294000" lon="7.616998000">
        <ele>64.9</ele>
        <time>2017-04-29T05:10:11</time>
        <extensions><speed>1.34</speed></extensions>
      </trkpt>
      <trkpt lat="51.839310000" lon="7.617010000">
        <ele>64.8</ele>
        <time>2017-04-29T05:10:12</time>
        <extensions><speed>1.38</speed></extensions>
      </trkpt>
      <trkpt lat="51.839317000" lon="7.617018000">
        <ele>64.8</ele>
        <time>2017-04-29T05:10:13</time>
        <extensions><speed>1.39</speed></extensions>
      </trkpt>
      <trkpt lat="51.839333000" lon="7.617025000">
        <ele>64.8</ele>
        <time>2017-04-29T05:10:14</time>
        <extensions><speed>1.36</speed></extensions>
      </trkpt>
      <trkpt lat="51.839344000" lon="7.617033000">
        <ele>64.8</ele>
        <time>2017-04-29T05:10:15</time>
        <extensions><speed>1.39</speed></extensions>
      </trkpt>
      <trkpt lat="51.839355000" lon="7.617043000">
        <ele>64.7</ele>
        <time>2017-04-29T05:10:16</time>
        <extensions><speed>1.41</speed></extensions>
      </trkpt>
      <trkpt lat="51.839367000" lon="7.617050000">
        <ele>64.7</ele>
        <time>2017-04-29T05:10:17</time>
        <extensions><speed>1.38</speed></extensions>
      </trkpt>
      <trkpt lat="51.839378000" lon="7.617060000">
        <ele>64.7</ele>
        <time>2017-04-29T05:10:18</time>
        <extensions><speed>1.37</speed></extensions>
      </trkpt>
      <trkpt lat="51.839390000" lon="7.617067000">
        <ele>64.7</ele>
        <time>2017-04-29T05:10:19</time>
        <extensions><speed>1.41</speed></extensions>
      </trkpt>
      <trkpt lat="51.839405000" lon="7.617076000">
        <ele>64.6</ele>
        <time>2017-04-29T05:10:20</time>
        <extensions><speed>1.41</speed></extensions>
      </trkpt>
      <trkpt lat="51.839417000" lon="7.617085000">
        <ele>64.6</ele>
        <time>2017-04-29T05:10:21</time>
        <extensions><speed>1.43</speed></extensions>
      </trkpt>
      <trkpt lat="51.839428000" lon="7.617094000">
        <ele>64.6</ele>
        <time>2017-04-29T05:10:22</time>
        <extensions><speed>1.44</speed></extensions>
      </trkpt>
      <trkpt lat="51.839439000" lon="7.617101000">
        <ele>64.5</ele>
        <time>2017-04-29T05:10:23</time>
        <extensions><speed>1.44</speed></extensions>
      </trkpt>
      <trkpt lat="51.839451000" lon="7.617108000">
        <ele>64.5</ele>
        <time>2017-04-29T05:10:24</time>
        <extensions><speed>1.44</speed></extensions>
      </trkpt>
      <trkpt lat="51.839462000" lon="7.617116000">
        <ele>64.5</ele>
        <time>2017-04-29T05:10:25</time>
        <extensions><speed>1.40</speed></extensions>
      </trkpt>
      <trkpt lat="51.839474000" lon="7.617128000">
        <ele>64.5</ele>
        <time>2017-04-29T05:10:26</time>
        <extensions><speed>1.40</speed></extensions>
      </trkpt>
      <trkpt lat="51.839485000" lon="7.617140000">
        <ele>64.4</ele>
        <time>2017-04-29T05:10:27</time>
        <extensions><speed>1.42</speed></extensions>
      </trkpt>
      <trkpt lat="51.839500000" lon="7.617148000">
        <ele>64.4</ele>
        <time>2017-04-29T05:10:28</time>
        <extensions><speed>1.46</speed></extensions>
      </trkpt>
      <trkpt lat="51.839512000" lon="7.617157000">
        <ele>64.4</ele>
        <time>2017-04-29T05:10:29</time>
        <extensions><speed>1.45</speed></extensions>
      </trkpt>
      <trkpt lat="51.839520000" lon="7.617164000">
        <ele>64.3</ele>
        <time>2017-04-29T05:10:30</time>
        <extensions><speed>1.45</speed></extensions>
      </trkpt>
      <trkpt lat="51.839535000" lon="7.617171000">
        <ele>64.3</ele>
        <time>2017-04-29T05:10:31</time>
        <extensions><speed>1.44</speed></extensions>
      </trkpt>
      <trkpt lat="51.839546000" lon="7.617183000">
        <ele>64.3</ele>
        <time>2017-04-29T05:10:32</time>
        <extensions><speed>1.40</speed></extensions>
      </trkpt>
      <trkpt lat="51.839558000" lon="7.617195000">
        <ele>64.3</ele>
        <time>2017-04-29T05:10:33</time>
        <extensions><speed>1.37</speed></extensions>
      </trkpt>
      <trkpt lat="51.839569000" lon="7.617206000">
        <ele>64.2</ele>
        <time>2017-04-29T05:10:34</time>
        <extensions><speed>1.37</speed></extensions>
      </trkpt>
      <trkpt lat="51.839577000" lon="7.617220000">
        <ele>64.2</ele>
        <time>2017-04-29T05:10:35</time>
        <extensions><speed>1.41</speed></extensions>
      </trkpt>
      <trkpt lat="51.839588000" lon="7.617232000">
        <ele>64.2</ele>
        <time>2017-04-29T05:10:36</time>
        <extensions><speed>1.37</speed></extensions>
      </trkpt>
      <trkpt lat="51.839600000" lon="7.617239000">
        <ele>64.2</ele>
        <time>2017-04-29T05:10:37</time>
        <extensions><speed>1.31</speed></extensions>
      </trkpt>
      <trkpt lat="51.839611000" lon="7.617248000">
        <ele>64.2</ele>
        <time>2017-04-29T05:10:38</time>
        <extensions><speed>1.31</speed></extensions>
      </trkpt>
      <trkpt lat="51.839626000" lon="7.617260000">
        <ele>64.1</ele>
        <time>2017-04-29T05:10:39</time>
        <extensions><speed>1.37</speed></extensions>
      </trkpt>
      <trkpt lat="51.839642000" lon="7.617269000">
        <ele>64.1</ele>
        <time>2017-04-29T05:10:40</time>
        <extensions><speed>1.32</speed></extensions>
      </trkpt>
      <trkpt lat="51.839645000" lon="7.617278000">
        <ele>64.1</ele>
        <time>2017-04-29T05:10:41</time>
        <extensions><speed>1.38</speed></extensions>
      </trkpt>
      <trkpt lat="51.839661000" lon="7.617287000">
        <ele>64.1</ele>
        <time>2017-04-29T05:10:42</time>
        <extensions><speed>1.43</speed></extensions>
      </trkpt>
      <trkpt lat="51.839672000" lon="7.617297000">
        <ele>64.1</ele>
        <time>2017-04-29T05:10:43</time>
        <extensions><speed>1.44</speed></extensions>
      </trkpt>
      <trkpt lat="51.839684000" lon="7.617303000">
        <ele>64.1</ele>
        <time>2017-04-29T05:10:44</time>
        <extensions><speed>1.40</speed></extensions>
      </trkpt>
      <trkpt lat="51.839695000" lon="7.617315000">
        <ele>64.1</ele>
        <time>2017-04-29T05:10:45</time>
        <extensions><speed>1.41</speed></extensions>
      </trkpt>
      <trkpt lat="51.839706000" lon="7.617325000">
        <ele>64.0</ele>
        <time>2017-04-29T05:10:46</time>
        <extensions><speed>1.38</speed></extensions>
      </trkpt>
      <trkpt lat="51.839714000" lon="7.617335000">
        <ele>64.0</ele>
        <time>2017-04-29T05:10:47</time>
        <extensions><speed>1.36</speed></extensions>
      </trkpt>
      <trkpt lat="51.839725000" lon="7.617344000">
        <ele>64.0</ele>
        <time>2017-04-29T05:10:48</time>
        <extensions><speed>1.36</speed></extensions>
      </trkpt>
      <trkpt lat="51.839741000" lon="7.617352000">
        <ele>64.0</ele>
        <time>2017-04-29T05:10:49</time>
        <extensions><speed>1.39</speed></extensions>
      </trkpt>
      <trkpt lat="51.839752000" lon="7.617358000">
        <ele>64.0</ele>
        <time>2017-04-29T05:10:50</time>
        <extensions><speed>1.43</speed></extensions>
      </trkpt>
      <trkpt lat="51.839764000" lon="7.617369000">
        <ele>64.0</ele>
        <time>2017-04-29T05:10:51</time>
        <extensions><speed>1.43</speed></extensions>
      </trkpt>
      <trkpt lat="51.839771000" lon="7.617381000">
        <ele>64.0</ele>
        <time>2017-04-29T05:10:52</time>
        <extensions><speed>1.47</speed></extensions>
      </trkpt>
      <trkpt lat="51.839787000" lon="7.617386000">
        <ele>64.0</ele>
        <time>2017-04-29T05:10:53</time>
        <extensions><speed>1.51</speed></extensions>
      </trkpt>
      <trkpt lat="51.839798000" lon="7.617395000">
        <ele>64.0</ele>
        <time>2017-04-29T05:10:54</time>
        <extensions><speed>1.43</speed></extensions>
      </trkpt>
      <trkpt lat="51.839806000" lon="7.617407000">
        <ele>64.1</ele>
        <time>2017-04-29T05:10:55</time>
        <extensions><speed>1.40</speed></extensions>
      </trkpt>
      <trkpt lat="51.839817000" lon="7.617418000">
        <ele>64.1</ele>
        <time>2017-04-29T05:10:56</time>
        <extensions><speed>1.48</speed></extensions>
      </trkpt>
      <trkpt lat="51.839828000" lon="7.617428000">
        <ele>64.1</ele>
        <time>2017-04-29T05:10:57</time>
        <extensions><speed>1.42</speed></extensions>
      </trkpt>
      <trkpt lat="51.839840000" lon="7.617438000">
        <ele>64.1</ele>
        <time>2017-04-29T05:10:58</time>
        <extensions><speed>1.39</speed></extensions>
      </trkpt>
      <trkpt lat="51.839848000" lon="7.617450000">
        <ele>64.1</ele>
        <time>2017-04-29T05:10:59</time>
        <extensions><speed>1.45</speed></extensions>
      </trkpt>
      <trkpt lat="51.839859000" lon="7.617460000">
        <ele>64.1</ele>
        <time>2017-04-29T05:11:00</time>
        <extensions><speed>1.39</speed></extensions>
      </trkpt>
      <trkpt lat="51.839870000" lon="7.617470000">
        <ele>64.1</ele>
        <time>2017-04-29T05:11:01</time>
        <extensions><speed>1.32</speed></extensions>
      </trkpt>
      <trkpt lat="51.839874000" lon="7.617480000">
        <ele>64.1</ele>
        <time>2017-04-29T05:11:02</time>
        <extensions><speed>1.33</speed></extensions>
      </trkpt>
      <trkpt lat="51.839890000" lon="7.617490000">
        <ele>64.1</ele>
        <time>2017-04-29T05:11:03</time>
        <extensions><speed>1.34</speed></extensions>
      </trkpt>
      <trkpt lat="51.839901000" lon="7.617498000">
        <ele>64.2</ele>
        <time>2017-04-29T05:11:04</time>
        <extensions><speed>1.28</speed></extensions>
      </trkpt>
      <trkpt lat="51.839909000" lon="7.617510000">
        <ele>64.2</ele>
        <time>2017-04-29T05:11:05</time>
        <extensions><speed>1.29</speed></extensions>
      </trkpt>
      <trkpt lat="51.839920000" lon="7.617519000">
        <ele>64.2</ele>
        <time>2017-04-29T05:11:06</time>
        <extensions><speed>1.33</speed></extensions>
      </trkpt>
      <trkpt lat="51.839931000" lon="7.617532000">
        <ele>64.2</ele>
        <time>2017-04-29T05:11:07</time>
        <extensions><speed>1.34</speed></extensions>
      </trkpt>
      <trkpt lat="51.839939000" lon="7.617545000">
        <ele>64.2</ele>
        <time>2017-04-29T05:11:08</time>
        <extensions><speed>1.30</speed></extensions>
      </trkpt>
      <trkpt lat="51.839947000" lon="7.617558000">
        <ele>64.2</ele>
        <time>2017-04-29T05:11:09</time>
        <extensions><speed>1.32</speed></extensions>
      </trkpt>
      <trkpt lat="51.839954000" lon="7.617572000">
        <ele>64.3</ele>
        <time>2017-04-29T05:11:10</time>
        <extensions><speed>1.32</speed></extensions>
      </trkpt>
      <trkpt lat="51.839966000" lon="7.617584000">
        <ele>64.3</ele>
        <time>2017-04-29T05:11:11</time>
        <extensions><speed>1.28</speed></extensions>
      </trkpt>
      <trkpt lat="51.839970000" lon="7.617600000">
        <ele>64.3</ele>
        <time>2017-04-29T05:11:12</time>
        <extensions><speed>1.22</speed></extensions>
      </trkpt>
      <trkpt lat="51.839973000" lon="7.617615000">
        <ele>64.3</ele>
        <time>2017-04-29T05:11:13</time>
        <extensions><speed>1.26</speed></extensions>
      </trkpt>
      <trkpt lat="51.839985000" lon="7.617628000">
        <ele>64.3</ele>
        <time>2017-04-29T05:11:14</time>
        <extensions><speed>1.24</speed></extensions>
      </trkpt>
      <trkpt lat="51.839993000" lon="7.617640000">
        <ele>64.4</ele>
        <time>2017-04-29T05:11:15</time>
        <extensions><speed>1.26</speed></extensions>
      </trkpt>
      <trkpt lat="51.840000000" lon="7.617654000">
        <ele>64.4</ele>
        <time>2017-04-29T05:11:16</time>
        <extensions><speed>1.31</speed></extensions>
      </trkpt>
      <trkpt lat="51.840008000" lon="7.617670000">
        <ele>64.4</ele>
        <time>2017-04-29T05:11:17</time>
        <extensions><speed>1.34</speed></extensions>
      </trkpt>
      <trkpt lat="51.840015000" lon="7.617687000">
        <ele>64.5</ele>
        <time>2017-04-29T05:11:18</time>
        <extensions><speed>1.31</speed></extensions>
      </trkpt>
      <trkpt lat="51.840027000" lon="7.617698000">
        <ele>64.5</ele>
        <time>2017-04-29T05:11:19</time>
        <extensions><speed>1.34</speed></extensions>
      </trkpt>
      <trkpt lat="51.840034000" lon="7.617712000">
        <ele>64.5</ele>
        <time>2017-04-29T05:11:20</time>
        <extensions><speed>1.33</speed></extensions>
      </trkpt>
      <trkpt lat="51.840042000" lon="7.617727000">
        <ele>64.6</ele>
        <time>2017-04-29T05:11:21</time>
        <extensions><speed>1.32</speed></extensions>
      </trkpt>
      <trkpt lat="51.840050000" lon="7.617742000">
        <ele>64.6</ele>
        <time>2017-04-29T05:11:22</time>
        <extensions><speed>1.34</speed></extensions>
      </trkpt>
      <trkpt lat="51.840061000" lon="7.617757000">
        <ele>64.6</ele>
        <time>2017-04-29T05:11:23</time>
        <extensions><speed>1.39</speed></extensions>
      </trkpt>
      <trkpt lat="51.840069000" lon="7.617775000">
        <ele>64.7</ele>
        <time>2017-04-29T05:11:24</time>
        <extensions><speed>1.39</speed></extensions>
      </trkpt>
      <trkpt lat="51.840076000" lon="7.617792000">
        <ele>64.7</ele>
        <time>2017-04-29T05:11:25</time>
        <extensions><speed>1.41</speed></extensions>
      </trkpt>
      <trkpt lat="51.840088000" lon="7.617805000">
        <ele>64.8</ele>
        <time>2017-04-29T05:11:26</time>
        <extensions><speed>1.41</speed></extensions>
      </trkpt>
      <trkpt lat="51.840099000" lon="7.617817000">
        <ele>64.8</ele>
        <time>2017-04-29T05:11:27</time>
        <extensions><speed>1.36</speed></extensions>
      </trkpt>
      <trkpt lat="51.840107000" lon="7.617829000">
        <ele>64.9</ele>
        <time>2017-04-29T05:11:28</time>
        <extensions><speed>1.36</speed></extensions>
      </trkpt>
      <trkpt lat="51.840118000" lon="7.617841000">
        <ele>65.0</ele>
        <time>2017-04-29T05:11:29</time>
        <extensions><speed>1.35</speed></extensions>
      </trkpt>
      <trkpt lat="51.840130000" lon="7.617854000">
        <ele>65.0</ele>
        <time>2017-04-29T05:11:30</time>
        <extensions><speed>1.37</speed></extensions>
      </trkpt>
      <trkpt lat="51.840134000" lon="7.617870000">
        <ele>65.1</ele>
        <time>2017-04-29T05:11:31</time>
        <extensions><speed>1.40</speed></extensions>
      </trkpt>
      <trkpt lat="51.840145000" lon="7.617883000">
        <ele>65.1</ele>
        <time>2017-04-29T05:11:32</time>
        <extensions><speed>1.40</speed></extensions>
      </trkpt>
      <trkpt lat="51.840153000" lon="7.617895000">
        <ele>65.2</ele>
        <time>2017-04-29T05:11:33</time>
        <extensions><speed>1.36</speed></extensions>
      </trkpt>
      <trkpt lat="51.840164000" lon="7.617910000">
        <ele>65.2</ele>
        <time>2017-04-29T05:11:34</time>
        <extensions><speed>1.38</speed></extensions>
      </trkpt>
      <trkpt lat="51.840172000" lon="7.617925000">
        <ele>65.2</ele>
        <time>2017-04-29T05:11:35</time>
        <extensions><speed>1.34</speed></extensions>
      </trkpt>
      <trkpt lat="51.840179000" lon="7.617941000">
        <ele>65.3</ele>
        <time>2017-04-29T05:11:36</time>
        <extensions><speed>1.35</speed></extensions>
      </trkpt>
      <trkpt lat="51.840187000" lon="7.617959000">
        <ele>65.3</ele>
        <time>2017-04-29T05:11:37</time>
        <extensions><speed>1.38</speed></extensions>
      </trkpt>
      <trkpt lat="51.840199000" lon="7.617972000">
        <ele>65.4</ele>
        <time>2017-04-29T05:11:38</time>
        <extensions><speed>1.37</speed></extensions>
      </trkpt>
      <trkpt lat="51.840199000" lon="7.617987000">
        <ele>65.4</ele>
        <time>2017-04-29T05:11:39</time>
        <extensions><speed>1.33</speed></extensions>
      </trkpt>
      <trkpt lat="51.840210000" lon="7.618002000">
        <ele>65.5</ele>
        <time>2017-04-29T05:11:40</time>
        <extensions><speed>1.37</speed></extensions>
      </trkpt>
      <trkpt lat="51.840218000" lon="7.618015000">
        <ele>65.5</ele>
        <time>2017-04-29T05:11:41</time>
        <extensions><speed>1.33</speed></extensions>
      </trkpt>
      <trkpt lat="51.840225000" lon="7.618029000">
        <ele>65.6</ele>
        <time>2017-04-29T05:11:42</time>
        <extensions><speed>1.34</speed></extensions>
      </trkpt>
      <trkpt lat="51.840233000" lon="7.618041000">
        <ele>65.6</ele>
        <time>2017-04-29T05:11:43</time>
        <extensions><speed>1.37</speed></extensions>
      </trkpt>
      <trkpt lat="51.840240000" lon="7.618057000">
        <ele>65.7</ele>
        <time>2017-04-29T05:11:44</time>
        <extensions><speed>1.33</speed></extensions>
      </trkpt>
      <trkpt lat="51.840248000" lon="7.618072000">
        <ele>65.7</ele>
        <time>2017-04-29T05:11:45</time>
        <extensions><speed>1.30</speed></extensions>
      </trkpt>
      <trkpt lat="51.840252000" lon="7.618088000">
        <ele>65.8</ele>
        <time>2017-04-29T05:11:46</time>
        <extensions><speed>1.32</speed></extensions>
      </trkpt>
      <trkpt lat="51.840256000" lon="7.618107000">
        <ele>65.8</ele>
        <time>2017-04-29T05:11:47</time>
        <extensions><speed>1.26</speed></extensions>
      </trkpt>
      <trkpt lat="51.840263000" lon="7.618118000">
        <ele>65.9</ele>
        <time>2017-04-29T05:11:48</time>
        <extensions><speed>1.21</speed></extensions>
      </trkpt>
      <trkpt lat="51.840263000" lon="7.618125000">
        <ele>66.0</ele>
        <time>2017-04-29T05:11:49</time>
        <extensions><speed>1.11</speed></extensions>
      </trkpt>
      <trkpt lat="51.840263000" lon="7.618125000">
        <ele>66.1</ele>
        <time>2017-04-29T05:11:50</time>
      </trkpt>
      <trkpt lat="51.840263000" lon="7.618123000">
        <ele>66.1</ele>
        <time>2017-04-29T05:11:52</time>
        <extensions><speed>0.25</speed></extensions>
      </trkpt>
      <trkpt lat="51.840336000" lon="7.618279000">
        <ele>66.5</ele>
        <time>2017-04-29T05:12:25</time>
      </trkpt>
      <trkpt lat="51.840340000" lon="7.618291000">
        <ele>66.5</ele>
        <time>2017-04-29T05:12:27</time>
        <extensions><speed>1.37</speed></extensions>
      </trkpt>
      <trkpt lat="51.840347000" lon="7.618305000">
        <ele>66.6</ele>
        <time>2017-04-29T05:12:28</time>
        <extensions><speed>1.33</speed></extensions>
      </trkpt>
      <trkpt lat="51.840355000" lon="7.618321000">
        <ele>66.6</ele>
        <time>2017-04-29T05:12:29</time>
        <extensions><speed>1.33</speed></extensions>
      </trkpt>
      <trkpt lat="51.840359000" lon="7.618340000">
        <ele>66.7</ele>
        <time>2017-04-29T05:12:30</time>
        <extensions><speed>1.33</speed></extensions>
      </trkpt>
      <trkpt lat="51.840366000" lon="7.618358000">
        <ele>66.8</ele>
        <time>2017-04-29T05:12:31</time>
        <extensions><speed>1.31</speed></extensions>
      </trkpt>
      <trkpt lat="51.840374000" lon="7.618377000">
        <ele>66.8</ele>
        <time>2017-04-29T05:12:32</time>
        <extensions><speed>1.31</speed></extensions>
      </trkpt>
      <trkpt lat="51.840378000" lon="7.618395000">
        <ele>66.9</ele>
        <time>2017-04-29T05:12:33</time>
        <extensions><speed>1.31</speed></extensions>
      </trkpt>
      <trkpt lat="51.840378000" lon="7.618412000">
        <ele>66.9</ele>
        <time>2017-04-29T05:12:34</time>
        <extensions><speed>1.30</speed></extensions>
      </trkpt>
      <trkpt lat="51.840385000" lon="7.618428000">
        <ele>67.0</ele>
        <time>2017-04-29T05:12:35</time>
        <extensions><speed>1.27</speed></extensions>
      </trkpt>
      <trkpt lat="51.840393000" lon="7.618445000">
        <ele>67.0</ele>
        <time>2017-04-29T05:12:36</time>
        <extensions><speed>1.27</speed></extensions>
      </trkpt>
      <trkpt lat="51.840393000" lon="7.618465000">
        <ele>67.1</ele>
        <time>2017-04-29T05:12:37</time>
        <extensions><speed>1.30</speed></extensions>
      </trkpt>
      <trkpt lat="51.840401000" lon="7.618482000">
        <ele>67.1</ele>
        <time>2017-04-29T05:12:38</time>
        <extensions><speed>1.32</speed></extensions>
      </trkpt>
      <trkpt lat="51.840408000" lon="7.618496000">
        <ele>67.1</ele>
        <time>2017-04-29T05:12:39</time>
        <extensions><speed>1.32</speed></extensions>
      </trkpt>
      <trkpt lat="51.840416000" lon="7.618508000">
        <ele>67.2</ele>
        <time>2017-04-29T05:12:40</time>
        <extensions><speed>1.29</speed></extensions>
      </trkpt>
      <trkpt lat="51.840424000" lon="7.618524000">
        <ele>67.2</ele>
        <time>2017-04-29T05:12:41</time>
        <extensions><speed>1.20</speed></extensions>
      </trkpt>
      <trkpt lat="51.840427000" lon="7.618538000">
        <ele>67.2</ele>
        <time>2017-04-29T05:12:42</time>
        <extensions><speed>1.17</speed></extensions>
      </trkpt>
      <trkpt lat="51.840431000" lon="7.618555000">
        <ele>67.3</ele>
        <time>2017-04-29T05:12:43</time>
        <extensions><speed>1.17</speed></extensions>
      </trkpt>
      <trkpt lat="51.840443000" lon="7.618573000">
        <ele>67.3</ele>
        <time>2017-04-29T05:12:44</time>
        <extensions><speed>1.25</speed></extensions>
      </trkpt>
      <trkpt lat="51.840454000" lon="7.618594000">
        <ele>67.3</ele>
        <time>2017-04-29T05:12:45</time>
        <extensions><speed>1.35</speed></extensions>
      </trkpt>
      <trkpt lat="51.840458000" lon="7.618613000">
        <ele>67.4</ele>
        <time>2017-04-29T05:12:46</time>
        <extensions><speed>1.41</speed></extensions>
      </trkpt>
      <trkpt lat="51.840466000" lon="7.618632000">
        <ele>67.4</ele>
        <time>2017-04-29T05:12:47</time>
        <extensions><speed>1.41</speed></extensions>
      </trkpt>
      <trkpt lat="51.840469000" lon="7.618647000">
        <ele>67.4</ele>
        <time>2017-04-29T05:12:48</time>
        <extensions><speed>1.40</speed></extensions>
      </trkpt>
      <trkpt lat="51.840477000" lon="7.618664000">
        <ele>67.5</ele>
        <time>2017-04-29T05:12:49</time>
        <extensions><speed>1.38</speed></extensions>
      </trkpt>
      <trkpt lat="51.840477000" lon="7.618681000">
        <ele>67.5</ele>
        <time>2017-04-29T05:12:50</time>
        <extensions><speed>1.35</speed></extensions>
      </trkpt>
      <trkpt lat="51.840481000" lon="7.618702000">
        <ele>67.5</ele>
        <time>2017-04-29T05:12:51</time>
        <extensions><speed>1.33</speed></extensions>
      </trkpt>
      <trkpt lat="51.840485000" lon="7.618723000">
        <ele>67.6</ele>
        <time>2017-04-29T05:12:52</time>
        <extensions><speed>1.34</speed></extensions>
      </trkpt>
      <trkpt lat="51.840492000" lon="7.618745000">
        <ele>67.6</ele>
        <time>2017-04-29T05:12:53</time>
        <extensions><speed>1.36</speed></extensions>
      </trkpt>
      <trkpt lat="51.840500000" lon="7.618762000">
        <ele>67.6</ele>
        <time>2017-04-29T05:12:54</time>
        <extensions><speed>1.36</speed></extensions>
      </trkpt>
      <trkpt lat="51.840508000" lon="7.618783000">
        <ele>67.7</ele>
        <time>2017-04-29T05:12:55</time>
        <extensions><speed>1.40</speed></extensions>
      </trkpt>
      <trkpt lat="51.840515000" lon="7.618802000">
        <ele>67.7</ele>
        <time>2017-04-29T05:12:56</time>
        <extensions><speed>1.44</speed></extensions>
      </trkpt>
      <trkpt lat="51.840523000" lon="7.618818000">
        <ele>67.7</ele>
        <time>2017-04-29T05:12:57</time>
        <extensions><speed>1.43</speed></extensions>
      </trkpt>
      <trkpt lat="51.840523000" lon="7.618837000">
        <ele>67.8</ele>
        <time>2017-04-29T05:12:58</time>
        <extensions><speed>1.43</speed></extensions>
      </trkpt>
      <trkpt lat="51.840530000" lon="7.618856000">
        <ele>67.8</ele>
        <time>2017-04-29T05:12:59</time>
        <extensions><speed>1.44</speed></extensions>
      </trkpt>
      <trkpt lat="51.840534000" lon="7.618880000">
        <ele>67.8</ele>
        <time>2017-04-29T05:13:00</time>
        <extensions><speed>1.41</speed></extensions>
      </trkpt>
      <trkpt lat="51.840538000" lon="7.618902000">
        <ele>67.9</ele>
        <time>2017-04-29T05:13:01</time>
        <extensions><speed>1.39</speed></extensions>
      </trkpt>
      <trkpt lat="51.840546000" lon="7.618918000">
        <ele>67.9</ele>
        <time>2017-04-29T05:13:02</time>
        <extensions><speed>1.38</speed></extensions>
      </trkpt>
      <trkpt lat="51.840549000" lon="7.618935000">
        <ele>68.0</ele>
        <time>2017-04-29T05:13:03</time>
        <extensions><speed>1.39</speed></extensions>
      </trkpt>
      <trkpt lat="51.840557000" lon="7.618953000">
        <ele>68.0</ele>
        <time>2017-04-29T05:13:04</time>
        <extensions><speed>1.42</speed></extensions>
      </trkpt>
      <trkpt lat="51.840561000" lon="7.618975000">
        <ele>68.0</ele>
        <time>2017-04-29T05:13:05</time>
        <extensions><speed>1.40</speed></extensions>
      </trkpt>
      <trkpt lat="51.840565000" lon="7.618995000">
        <ele>68.0</ele>
        <time>2017-04-29T05:13:06</time>
        <extensions><speed>1.42</speed></extensions>
      </trkpt>
      <trkpt lat="51.840576000" lon="7.619014000">
        <ele>68.1</ele>
        <time>2017-04-29T05:13:07</time>
        <extensions><speed>1.46</speed></extensions>
      </trkpt>
      <trkpt lat="51.840584000" lon="7.619030000">
        <ele>68.1</ele>
        <time>2017-04-29T05:13:08</time>
        <extensions><speed>1.41</speed></extensions>
      </trkpt>
      <trkpt lat="51.840588000" lon="7.619051000">
        <ele>68.1</ele>
        <time>2017-04-29T05:13:09</time>
        <extensions><speed>1.39</speed></extensions>
      </trkpt>
      <trkpt lat="51.840591000" lon="7.619068000">
        <ele>68.2</ele>
        <time>2017-04-29T05:13:10</time>
        <extensions><speed>1.39</speed></extensions>
      </trkpt>
      <trkpt lat="51.840599000" lon="7.619085000">
        <ele>68.2</ele>
        <time>2017-04-29T05:13:11</time>
        <extensions><speed>1.33</speed></extensions>
      </trkpt>
      <trkpt lat="51.840607000" lon="7.619102000">
        <ele>68.3</ele>
        <time>2017-04-29T05:13:12</time>
        <extensions><speed>1.29</speed></extensions>
      </trkpt>
      <trkpt lat="51.840614000" lon="7.619121000">
        <ele>68.3</ele>
        <time>2017-04-29T05:13:13</time>
        <extensions><speed>1.28</speed></extensions>
      </trkpt>
      <trkpt lat="51.840618000" lon="7.619137000">
        <ele>68.3</ele>
        <time>2017-04-29T05:13:14</time>
        <extensions><speed>1.28</speed></extensions>
      </trkpt>
      <trkpt lat="51.840622000" lon="7.619155000">
        <ele>68.3</ele>
        <time>2017-04-29T05:13:15</time>
        <extensions><speed>1.33</speed></extensions>
      </trkpt>
      <trkpt lat="51.840630000" lon="7.619172000">
        <ele>68.3</ele>
        <time>2017-04-29T05:13:16</time>
        <extensions><speed>1.33</speed></extensions>
      </trkpt>
      <trkpt lat="51.840637000" lon="7.619190000">
        <ele>68.3</ele>
        <time>2017-04-29T05:13:17</time>
        <extensions><speed>1.33</speed></extensions>
      </trkpt>
      <trkpt lat="51.840645000" lon="7.619208000">
        <ele>68.3</ele>
        <time>2017-04-29T05:13:18</time>
        <extensions><speed>1.36</speed></extensions>
      </trkpt>
      <trkpt lat="51.840649000" lon="7.619228000">
        <ele>68.3</ele>
        <time>2017-04-29T05:13:19</time>
        <extensions><speed>1.30</speed></extensions>
      </trkpt>
      <trkpt lat="51.840652000" lon="7.619243000">
        <ele>68.3</ele>
        <time>2017-04-29T05:13:20</time>
        <extensions><speed>1.24</speed></extensions>
      </trkpt>
      <trkpt lat="51.840664000" lon="7.619256000">
        <ele>68.3</ele>
        <time>2017-04-29T05:13:21</time>
        <extensions><speed>1.29</speed></extensions>
      </trkpt>
      <trkpt lat="51.840672000" lon="7.619270000">
        <ele>68.3</ele>
        <time>2017-04-29T05:13:22</time>
        <extensions><speed>1.33</speed></extensions>
      </trkpt>
      <trkpt lat="51.840679000" lon="7.619292000">
        <ele>68.3</ele>
        <time>2017-04-29T05:13:23</time>
        <extensions><speed>1.34</speed></extensions>
      </trkpt>
      <trkpt lat="51.840683000" lon="7.619310000">
        <ele>68.3</ele>
        <time>2017-04-29T05:13:24</time>
        <extensions><speed>1.34</speed></extensions>
      </trkpt>
      <trkpt lat="51.840687000" lon="7.619327000">
        <ele>68.3</ele>
        <time>2017-04-29T05:13:25</time>
        <extensions><speed>1.43</speed></extensions>
      </trkpt>
      <trkpt lat="51.840691000" lon="7.619347000">
        <ele>68.3</ele>
        <time>2017-04-29T05:13:26</time>
        <extensions><speed>1.40</speed></extensions>
      </trkpt>
      <trkpt lat="51.840702000" lon="7.619365000">
        <ele>68.3</ele>
        <time>2017-04-29T05:13:27</time>
        <extensions><speed>1.34</speed></extensions>
      </trkpt>
      <trkpt lat="51.840710000" lon="7.619383000">
        <ele>68.3</ele>
        <time>2017-04-29T05:13:28</time>
        <extensions><speed>1.35</speed></extensions>
      </trkpt>
      <trkpt lat="51.840717000" lon="7.619401000">
        <ele>68.3</ele>
        <time>2017-04-29T05:13:29</time>
        <extensions><speed>1.35</speed></extensions>
      </trkpt>
      <trkpt lat="51.840717000" lon="7.619420000">
        <ele>68.3</ele>
        <time>2017-04-29T05:13:30</time>
        <extensions><speed>1.33</speed></extensions>
      </trkpt>
      <trkpt lat="51.840725000" lon="7.619438000">
        <ele>68.3</ele>
        <time>2017-04-29T05:13:31</time>
        <extensions><speed>1.34</speed></extensions>
      </trkpt>
      <trkpt lat="51.840733000" lon="7.619457000">
        <ele>68.2</ele>
        <time>2017-04-29T05:13:32</time>
        <extensions><speed>1.35</speed></extensions>
      </trkpt>
      <trkpt lat="51.840740000" lon="7.619473000">
        <ele>68.2</ele>
        <time>2017-04-29T05:13:33</time>
        <extensions><speed>1.29</speed></extensions>
      </trkpt>
      <trkpt lat="51.840748000" lon="7.619487000">
        <ele>68.2</ele>
        <time>2017-04-29T05:13:34</time>
        <extensions><speed>1.31</speed></extensions>
      </trkpt>
      <trkpt lat="51.840752000" lon="7.619500000">
        <ele>68.2</ele>
        <time>2017-04-29T05:13:35</time>
        <extensions><speed>1.27</speed></extensions>
      </trkpt>
      <trkpt lat="51.840755000" lon="7.619515000">
        <ele>68.2</ele>
        <time>2017-04-29T05:13:36</time>
        <extensions><speed>1.26</speed></extensions>
      </trkpt>
      <trkpt lat="51.840759000" lon="7.619535000">
        <ele>68.2</ele>
        <time>2017-04-29T05:13:37</time>
        <extensions><speed>1.26</speed></extensions>
      </trkpt>
      <trkpt lat="51.840763000" lon="7.619557000">
        <ele>68.2</ele>
        <time>2017-04-29T05:13:38</time>
        <extensions><speed>1.30</speed></extensions>
      </trkpt>
      <trkpt lat="51.840767000" lon="7.619576000">
        <ele>68.2</ele>
        <time>2017-04-29T05:13:39</time>
        <extensions><speed>1.30</speed></extensions>
      </trkpt>
      <trkpt lat="51.840775000" lon="7.619594000">
        <ele>68.2</ele>
        <time>2017-04-29T05:13:40</time>
        <extensions><speed>1.33</speed></extensions>
      </trkpt>
      <trkpt lat="51.840782000" lon="7.619613000">
        <ele>68.2</ele>
        <time>2017-04-29T05:13:41</time>
        <extensions><speed>1.37</speed></extensions>
      </trkpt>
      <trkpt lat="51.840786000" lon="7.619635000">
        <ele>68.1</ele>
        <time>2017-04-29T05:13:42</time>
        <extensions><speed>1.33</speed></extensions>
      </trkpt>
      <trkpt lat="51.840794000" lon="7.619651000">
        <ele>68.1</ele>
        <time>2017-04-29T05:13:43</time>
        <extensions><speed>1.31</speed></extensions>
      </trkpt>
      <trkpt lat="51.840801000" lon="7.619672000">
        <ele>68.1</ele>
        <time>2017-04-29T05:13:44</time>
        <extensions><speed>1.35</speed></extensions>
      </trkpt>
      <trkpt lat="51.840805000" lon="7.619691000">
        <ele>68.1</ele>
        <time>2017-04-29T05:13:45</time>
        <extensions><speed>1.31</speed></extensions>
      </trkpt>
      <trkpt lat="51.840816000" lon="7.619707000">
        <ele>68.1</ele>
        <time>2017-04-29T05:13:46</time>
        <extensions><speed>1.31</speed></extensions>
      </trkpt>
      <trkpt lat="51.840820000" lon="7.619725000">
        <ele>68.1</ele>
        <time>2017-04-29T05:13:47</time>
        <extensions><speed>1.31</speed></extensions>
      </trkpt>
      <trkpt lat="51.840824000" lon="7.619744000">
        <ele>68.1</ele>
        <time>2017-04-29T05:13:48</time>
        <extensions><speed>1.32</speed></extensions>
      </trkpt>
      <trkpt lat="51.840828000" lon="7.619767000">
        <ele>68.0</ele>
        <time>2017-04-29T05:13:49</time>
        <extensions><speed>1.33</speed></extensions>
      </trkpt>
      <trkpt lat="51.840832000" lon="7.619786000">
        <ele>68.0</ele>
        <time>2017-04-29T05:13:50</time>
        <extensions><speed>1.34</speed></extensions>
      </trkpt>
      <trkpt lat="51.840836000" lon="7.619803000">
        <ele>68.0</ele>
        <time>2017-04-29T05:13:51</time>
        <extensions><speed>1.29</speed></extensions>
      </trkpt>
      <trkpt lat="51.840843000" lon="7.619820000">
        <ele>67.9</ele>
        <time>2017-04-29T05:13:52</time>
        <extensions><speed>1.35</speed></extensions>
      </trkpt>
      <trkpt lat="51.840847000" lon="7.619838000">
        <ele>67.9</ele>
        <time>2017-04-29T05:13:53</time>
        <extensions><speed>1.37</speed></extensions>
      </trkpt>
      <trkpt lat="51.840851000" lon="7.619854000">
        <ele>67.9</ele>
        <time>2017-04-29T05:13:54</time>
        <extensions><speed>1.34</speed></extensions>
      </trkpt>
      <trkpt lat="51.840858000" lon="7.619870000">
        <ele>67.8</ele>
        <time>2017-04-29T05:13:55</time>
        <extensions><speed>1.32</speed></extensions>
      </trkpt>
      <trkpt lat="51.840862000" lon="7.619888000">
        <ele>67.7</ele>
        <time>2017-04-29T05:13:56</time>
        <extensions><speed>1.39</speed></extensions>
      </trkpt>
      <trkpt lat="51.840870000" lon="7.619903000">
        <ele>67.7</ele>
        <time>2017-04-29T05:13:57</time>
        <extensions><speed>1.33</speed></extensions>
      </trkpt>
      <trkpt lat="51.840878000" lon="7.619923000">
        <ele>67.6</ele>
        <time>2017-04-29T05:13:58</time>
        <extensions><speed>1.36</speed></extensions>
      </trkpt>
      <trkpt lat="51.840881000" lon="7.619942000">
        <ele>67.6</ele>
        <time>2017-04-29T05:13:59</time>
        <extensions><speed>1.34</speed></extensions>
      </trkpt>
      <trkpt lat="51.840885000" lon="7.619958000">
        <ele>67.5</ele>
        <time>2017-04-29T05:14:00</time>
        <extensions><speed>1.38</speed></extensions>
      </trkpt>
      <trkpt lat="51.840889000" lon="7.619975000">
        <ele>67.5</ele>
        <time>2017-04-29T05:14:01</time>
        <extensions><speed>1.34</speed></extensions>
      </trkpt>
      <trkpt lat="51.840893000" lon="7.619993000">
        <ele>67.4</ele>
        <time>2017-04-29T05:14:02</time>
        <extensions><speed>1.36</speed></extensions>
      </trkpt>
      <trkpt lat="51.840900000" lon="7.620012000">
        <ele>67.4</ele>
        <time>2017-04-29T05:14:03</time>
        <extensions><speed>1.35</speed></extensions>
      </trkpt>
      <trkpt lat="51.840908000" lon="7.620028000">
        <ele>67.3</ele>
        <time>2017-04-29T05:14:04</time>
        <extensions><speed>1.34</speed></extensions>
      </trkpt>
      <trkpt lat="51.840912000" lon="7.620047000">
        <ele>67.3</ele>
        <time>2017-04-29T05:14:05</time>
        <extensions><speed>1.34</speed></extensions>
      </trkpt>
      <trkpt lat="51.840916000" lon="7.620065000">
        <ele>67.3</ele>
        <time>2017-04-29T05:14:06</time>
        <extensions><speed>1.38</speed></extensions>
      </trkpt>
      <trkpt lat="51.840923000" lon="7.620083000">
        <ele>67.2</ele>
        <time>2017-04-29T05:14:07</time>
        <extensions><speed>1.38</speed></extensions>
      </trkpt>
      <trkpt lat="51.840931000" lon="7.620101000">
        <ele>67.2</ele>
        <time>2017-04-29T05:14:08</time>
        <extensions><speed>1.41</speed></extensions>
      </trkpt>
      <trkpt lat="51.840939000" lon="7.620119000">
        <ele>67.1</ele>
        <time>2017-04-29T05:14:09</time>
        <extensions><speed>1.42</speed></extensions>
      </trkpt>
      <trkpt lat="51.840946000" lon="7.620135000">
        <ele>67.1</ele>
        <time>2017-04-29T05:14:10</time>
        <extensions><speed>1.43</speed></extensions>
      </trkpt>
      <trkpt lat="51.840946000" lon="7.620157000">
        <ele>67.0</ele>
        <time>2017-04-29T05:14:11</time>
        <extensions><speed>1.43</speed></extensions>
      </trkpt>
      <trkpt lat="51.840954000" lon="7.620176000">
        <ele>66.9</ele>
        <time>2017-04-29T05:14:12</time>
        <extensions><speed>1.43</speed></extensions>
      </trkpt>
      <trkpt lat="51.840961000" lon="7.620193000">
        <ele>66.9</ele>
        <time>2017-04-29T05:14:13</time>
        <extensions><speed>1.41</speed></extensions>
      </trkpt>
      <trkpt lat="51.840969000" lon="7.620208000">
        <ele>66.8</ele>
        <time>2017-04-29T05:14:14</time>
        <extensions><speed>1.46</speed></extensions>
      </trkpt>
      <trkpt lat="51.840977000" lon="7.620225000">
        <ele>66.8</ele>
        <time>2017-04-29T05:14:15</time>
        <extensions><speed>1.41</speed></extensions>
      </trkpt>
      <trkpt lat="51.840981000" lon="7.620242000">
        <ele>66.7</ele>
        <time>2017-04-29T05:14:16</time>
        <extensions><speed>1.38</speed></extensions>
      </trkpt>
      <trkpt lat="51.840984000" lon="7.620260000">
        <ele>66.7</ele>
        <time>2017-04-29T05:14:17</time>
        <extensions><speed>1.36</speed></extensions>
      </trkpt>
      <trkpt lat="51.840992000" lon="7.620278000">
        <ele>66.6</ele>
        <time>2017-04-29T05:14:18</time>
        <extensions><speed>1.36</speed></extensions>
      </trkpt>
      <trkpt lat="51.841000000" lon="7.620295000">
        <ele>66.6</ele>
        <time>2017-04-29T05:14:19</time>
        <extensions><speed>1.34</speed></extensions>
      </trkpt>
      <trkpt lat="51.841007000" lon="7.620313000">
        <ele>66.5</ele>
        <time>2017-04-29T05:14:20</time>
        <extensions><speed>1.32</speed></extensions>
      </trkpt>
      <trkpt lat="51.841011000" lon="7.620330000">
        <ele>66.5</ele>
        <time>2017-04-29T05:14:21</time>
        <extensions><speed>1.35</speed></extensions>
      </trkpt>
      <trkpt lat="51.841019000" lon="7.620350000">
        <ele>66.4</ele>
        <time>2017-04-29T05:14:22</time>
        <extensions><speed>1.38</speed></extensions>
      </trkpt>
      <trkpt lat="51.841022000" lon="7.620370000">
        <ele>66.4</ele>
        <time>2017-04-29T05:14:23</time>
        <extensions><speed>1.36</speed></extensions>
      </trkpt>
      <trkpt lat="51.841030000" lon="7.620388000">
        <ele>66.3</ele>
        <time>2017-04-29T05:14:24</time>
        <extensions><speed>1.43</speed></extensions>
      </trkpt>
      <trkpt lat="51.841034000" lon="7.620405000">
        <ele>66.3</ele>
        <time>2017-04-29T05:14:25</time>
        <extensions><speed>1.44</speed></extensions>
      </trkpt>
      <trkpt lat="51.841042000" lon="7.620423000">
        <ele>66.2</ele>
        <time>2017-04-29T05:14:26</time>
        <extensions><speed>1.37</speed></extensions>
      </trkpt>
      <trkpt lat="51.841045000" lon="7.620442000">
        <ele>66.1</ele>
        <time>2017-04-29T05:14:27</time>
        <extensions><speed>1.36</speed></extensions>
      </trkpt>
      <trkpt lat="51.841053000" lon="7.620460000">
        <ele>66.1</ele>
        <time>2017-04-29T05:14:28</time>
        <extensions><speed>1.36</speed></extensions>
      </trkpt>
      <trkpt lat="51.841057000" lon="7.620480000">
        <ele>66.1</ele>
        <time>2017-04-29T05:14:29</time>
        <extensions><speed>1.33</speed></extensions>
      </trkpt>
      <trkpt lat="51.841061000" lon="7.620500000">
        <ele>66.0</ele>
        <time>2017-04-29T05:14:30</time>
        <extensions><speed>1.35</speed></extensions>
      </trkpt>
      <trkpt lat="51.841068000" lon="7.620518000">
        <ele>66.0</ele>
        <time>2017-04-29T05:14:31</time>
        <extensions><speed>1.33</speed></extensions>
      </trkpt>
      <trkpt lat="51.841076000" lon="7.620535000">
        <ele>65.9</ele>
        <time>2017-04-29T05:14:32</time>
        <extensions><speed>1.34</speed></extensions>
      </trkpt>
      <trkpt lat="51.841080000" lon="7.620551000">
        <ele>65.9</ele>
        <time>2017-04-29T05:14:33</time>
        <extensions><speed>1.33</speed></extensions>
      </trkpt>
      <trkpt lat="51.841087000" lon="7.620567000">
        <ele>65.9</ele>
        <time>2017-04-29T05:14:34</time>
        <extensions><speed>1.35</speed></extensions>
      </trkpt>
      <trkpt lat="51.841095000" lon="7.620584000">
        <ele>65.9</ele>
        <time>2017-04-29T05:14:35</time>
        <extensions><speed>1.35</speed></extensions>
      </trkpt>
      <trkpt lat="51.841099000" lon="7.620605000">
        <ele>65.9</ele>
        <time>2017-04-29T05:14:36</time>
        <extensions><speed>1.41</speed></extensions>
      </trkpt>
      <trkpt lat="51.841103000" lon="7.620620000">
        <ele>65.8</ele>
        <time>2017-04-29T05:14:37</time>
        <extensions><speed>1.36</speed></extensions>
      </trkpt>
      <trkpt lat="51.841110000" lon="7.620635000">
        <ele>65.8</ele>
        <time>2017-04-29T05:14:38</time>
        <extensions><speed>1.37</speed></extensions>
      </trkpt>
      <trkpt lat="51.841114000" lon="7.620653000">
        <ele>65.8</ele>
        <time>2017-04-29T05:14:39</time>
        <extensions><speed>1.42</speed></extensions>
      </trkpt>
      <trkpt lat="51.841122000" lon="7.620672000">
        <ele>65.8</ele>
        <time>2017-04-29T05:14:40</time>
        <extensions><speed>1.35</speed></extensions>
      </trkpt>
      <trkpt lat="51.841125000" lon="7.620687000">
        <ele>65.8</ele>
        <time>2017-04-29T05:14:41</time>
        <extensions><speed>1.31</speed></extensions>
      </trkpt>
      <trkpt lat="51.841133000" lon="7.620703000">
        <ele>65.8</ele>
        <time>2017-04-29T05:14:42</time>
        <extensions><speed>1.32</speed></extensions>
      </trkpt>
      <trkpt lat="51.841141000" lon="7.620721000">
        <ele>65.7</ele>
        <time>2017-04-29T05:14:43</time>
        <extensions><speed>1.36</speed></extensions>
      </trkpt>
      <trkpt lat="51.841145000" lon="7.620740000">
        <ele>65.7</ele>
        <time>2017-04-29T05:14:44</time>
        <extensions><speed>1.36</speed></extensions>
      </trkpt>
      <trkpt lat="51.841152000" lon="7.620761000">
        <ele>65.7</ele>
        <time>2017-04-29T05:14:45</time>
        <extensions><speed>1.40</speed></extensions>
      </trkpt>
      <trkpt lat="51.841156000" lon="7.620782000">
        <ele>65.7</ele>
        <time>2017-04-29T05:14:46</time>
        <extensions><speed>1.40</speed></extensions>
      </trkpt>
      <trkpt lat="51.841156000" lon="7.620796000">
        <ele>65.7</ele>
        <time>2017-04-29T05:14:47</time>
        <extensions><speed>1.40</speed></extensions>
      </trkpt>
      <trkpt lat="51.841164000" lon="7.620812000">
        <ele>65.7</ele>
        <time>2017-04-29T05:14:48</time>
        <extensions><speed>1.32</speed></extensions>
      </trkpt>
      <trkpt lat="51.841171000" lon="7.620826000">
        <ele>65.6</ele>
        <time>2017-04-29T05:14:49</time>
        <extensions><speed>1.32</speed></extensions>
      </trkpt>
      <trkpt lat="51.841175000" lon="7.620843000">
        <ele>65.6</ele>
        <time>2017-04-29T05:14:50</time>
        <extensions><speed>1.31</speed></extensions>
      </trkpt>
      <trkpt lat="51.841183000" lon="7.620861000">
        <ele>65.6</ele>
        <time>2017-04-29T05:14:51</time>
        <extensions><speed>1.29</speed></extensions>
      </trkpt>
      <trkpt lat="51.841190000" lon="7.620873000">
        <ele>65.6</ele>
        <time>2017-04-29T05:14:52</time>
        <extensions><speed>1.32</speed></extensions>
      </trkpt>
      <trkpt lat="51.841194000" lon="7.620892000">
        <ele>65.6</ele>
        <time>2017-04-29T05:14:53</time>
        <extensions><speed>1.36</speed></extensions>
      </trkpt>
      <trkpt lat="51.841202000" lon="7.620910000">
        <ele>65.5</ele>
        <time>2017-04-29T05:14:54</time>
        <extensions><speed>1.36</speed></extensions>
      </trkpt>
      <trkpt lat="51.841209000" lon="7.620929000">
        <ele>65.5</ele>
        <time>2017-04-29T05:14:55</time>
        <extensions><speed>1.37</speed></extensions>
      </trkpt>
      <trkpt lat="51.841209000" lon="7.620948000">
        <ele>65.5</ele>
        <time>2017-04-29T05:14:56</time>
        <extensions><speed>1.41</speed></extensions>
      </trkpt>
      <trkpt lat="51.841213000" lon="7.620970000">
        <ele>65.5</ele>
        <time>2017-04-29T05:14:57</time>
        <extensions><speed>1.41</speed></extensions>
      </trkpt>
      <trkpt lat="51.841217000" lon="7.620988000">
        <ele>65.5</ele>
        <time>2017-04-29T05:14:58</time>
        <extensions><speed>1.39</speed></extensions>
      </trkpt>
      <trkpt lat="51.841228000" lon="7.621008000">
        <ele>65.5</ele>
        <time>2017-04-29T05:14:59</time>
        <extensions><speed>1.39</speed></extensions>
      </trkpt>
      <trkpt lat="51.841236000" lon="7.621027000">
        <ele>65.5</ele>
        <time>2017-04-29T05:15:00</time>
        <extensions><speed>1.38</speed></extensions>
      </trkpt>
      <trkpt lat="51.841240000" lon="7.621040000">
        <ele>65.4</ele>
        <time>2017-04-29T05:15:01</time>
        <extensions><speed>1.33</speed></extensions>
      </trkpt>
      <trkpt lat="51.841248000" lon="7.621055000">
        <ele>65.4</ele>
        <time>2017-04-29T05:15:02</time>
        <extensions><speed>1.32</speed></extensions>
      </trkpt>
      <trkpt lat="51.841251000" lon="7.621065000">
        <ele>65.4</ele>
        <time>2017-04-29T05:15:03</time>
        <extensions><speed>1.28</speed></extensions>
      </trkpt>
      <trkpt lat="51.841305000" lon="7.621256000">
        <ele>65.2</ele>
        <time>2017-04-29T05:16:30</time>
      </trkpt>
      <trkpt lat="51.841309000" lon="7.621275000">
        <ele>65.2</ele>
        <time>2017-04-29T05:16:32</time>
        <extensions><speed>1.42</speed></extensions>
      </trkpt>
      <trkpt lat="51.841312000" lon="7.621295000">
        <ele>65.2</ele>
        <time>2017-04-29T05:16:33</time>
        <extensions><speed>1.43</speed></extensions>
      </trkpt>
      <trkpt lat="51.841320000" lon="7.621312000">
        <ele>65.2</ele>
        <time>2017-04-29T05:16:34</time>
        <extensions><speed>1.38</speed></extensions>
      </trkpt>
      <trkpt lat="51.841328000" lon="7.621328000">
        <ele>65.1</ele>
        <time>2017-04-29T05:16:35</time>
        <extensions><speed>1.35</speed></extensions>
      </trkpt>
      <trkpt lat="51.841335000" lon="7.621347000">
        <ele>65.1</ele>
        <time>2017-04-29T05:16:36</time>
        <extensions><speed>1.34</speed></extensions>
      </trkpt>
      <trkpt lat="51.841339000" lon="7.621367000">
        <ele>65.1</ele>
        <time>2017-04-29T05:16:37</time>
        <extensions><speed>1.30</speed></extensions>
      </trkpt>
      <trkpt lat="51.841339000" lon="7.621383000">
        <ele>65.1</ele>
        <time>2017-04-29T05:16:38</time>
        <extensions><speed>1.26</speed></extensions>
      </trkpt>
      <trkpt lat="51.841347000" lon="7.621400000">
        <ele>65.1</ele>
        <time>2017-04-29T05:16:39</time>
        <extensions><speed>1.30</speed></extensions>
      </trkpt>
      <trkpt lat="51.841354000" lon="7.621418000">
        <ele>65.0</ele>
        <time>2017-04-29T05:16:40</time>
        <extensions><speed>1.31</speed></extensions>
      </trkpt>
      <trkpt lat="51.841362000" lon="7.621437000">
        <ele>65.0</ele>
        <time>2017-04-29T05:16:41</time>
        <extensions><speed>1.34</speed></extensions>
      </trkpt>
      <trkpt lat="51.841370000" lon="7.621453000">
        <ele>65.0</ele>
        <time>2017-04-29T05:16:42</time>
        <extensions><speed>1.40</speed></extensions>
      </trkpt>
      <trkpt lat="51.841377000" lon="7.621467000">
        <ele>65.0</ele>
        <time>2017-04-29T05:16:43</time>
        <extensions><speed>1.40</speed></extensions>
      </trkpt>
      <trkpt lat="51.841381000" lon="7.621485000">
        <ele>65.0</ele>
        <time>2017-04-29T05:16:44</time>
        <extensions><speed>1.38</speed></extensions>
      </trkpt>
      <trkpt lat="51.841385000" lon="7.621505000">
        <ele>65.0</ele>
        <time>2017-04-29T05:16:45</time>
        <extensions><speed>1.42</speed></extensions>
      </trkpt>
      <trkpt lat="51.841389000" lon="7.621525000">
        <ele>64.9</ele>
        <time>2017-04-29T05:16:46</time>
        <extensions><speed>1.37</speed></extensions>
      </trkpt>
      <trkpt lat="51.841396000" lon="7.621543000">
        <ele>64.9</ele>
        <time>2017-04-29T05:16:47</time>
        <extensions><speed>1.35</speed></extensions>
      </trkpt>
      <trkpt lat="51.841400000" lon="7.621565000">
        <ele>64.9</ele>
        <time>2017-04-29T05:16:48</time>
        <extensions><speed>1.41</speed></extensions>
      </trkpt>
      <trkpt lat="51.841404000" lon="7.621583000">
        <ele>64.9</ele>
        <time>2017-04-29T05:16:49</time>
        <extensions><speed>1.40</speed></extensions>
      </trkpt>
      <trkpt lat="51.841404000" lon="7.621602000">
        <ele>64.9</ele>
        <time>2017-04-29T05:16:50</time>
        <extensions><speed>1.37</speed></extensions>
      </trkpt>
      <trkpt lat="51.841408000" lon="7.621622000">
        <ele>64.9</ele>
        <time>2017-04-29T05:16:51</time>
        <extensions><speed>1.39</speed></extensions>
      </trkpt>
      <trkpt lat="51.841415000" lon="7.621640000">
        <ele>64.8</ele>
        <time>2017-04-29T05:16:52</time>
        <extensions><speed>1.43</speed></extensions>
      </trkpt>
      <trkpt lat="51.841423000" lon="7.621659000">
        <ele>64.8</ele>
        <time>2017-04-29T05:16:53</time>
        <extensions><speed>1.41</speed></extensions>
      </trkpt>
      <trkpt lat="51.841431000" lon="7.621678000">
        <ele>64.8</ele>
        <time>2017-04-29T05:16:54</time>
        <extensions><speed>1.44</speed></extensions>
      </trkpt>
      <trkpt lat="51.841438000" lon="7.621696000">
        <ele>64.8</ele>
        <time>2017-04-29T05:16:55</time>
        <extensions><speed>1.47</speed></extensions>
      </trkpt>
      <trkpt lat="51.841446000" lon="7.621713000">
        <ele>64.7</ele>
        <time>2017-04-29T05:16:56</time>
        <extensions><speed>1.49</speed></extensions>
      </trkpt>
      <trkpt lat="51.841454000" lon="7.621731000">
        <ele>64.7</ele>
        <time>2017-04-29T05:16:57</time>
        <extensions><speed>1.47</speed></extensions>
      </trkpt>
      <trkpt lat="51.841457000" lon="7.621753000">
        <ele>64.7</ele>
        <time>2017-04-29T05:16:58</time>
        <extensions><speed>1.48</speed></extensions>
      </trkpt>
      <trkpt lat="51.841461000" lon="7.621771000">
        <ele>64.7</ele>
        <time>2017-04-29T05:16:59</time>
        <extensions><speed>1.47</speed></extensions>
      </trkpt>
      <trkpt lat="51.841469000" lon="7.621790000">
        <ele>64.7</ele>
        <time>2017-04-29T05:17:00</time>
        <extensions><speed>1.43</speed></extensions>
      </trkpt>
      <trkpt lat="51.841469000" lon="7.621810000">
        <ele>64.7</ele>
        <time>2017-04-29T05:17:01</time>
        <extensions><speed>1.43</speed></extensions>
      </trkpt>
      <trkpt lat="51.841476000" lon="7.621830000">
        <ele>64.7</ele>
        <time>2017-04-29T05:17:02</time>
        <extensions><speed>1.45</speed></extensions>
      </trkpt>
      <trkpt lat="51.841484000" lon="7.621845000">
        <ele>64.7</ele>
        <time>2017-04-29T05:17:03</time>
        <extensions><speed>1.43</speed></extensions>
      </trkpt>
      <trkpt lat="51.841488000" lon="7.621862000">
        <ele>64.7</ele>
        <time>2017-04-29T05:17:04</time>
        <extensions><speed>1.45</speed></extensions>
      </trkpt>
      <trkpt lat="51.841496000" lon="7.621878000">
        <ele>64.7</ele>
        <time>2017-04-29T05:17:05</time>
        <extensions><speed>1.43</speed></extensions>
      </trkpt>
      <trkpt lat="51.841499000" lon="7.621895000">
        <ele>64.7</ele>
        <time>2017-04-29T05:17:06</time>
        <extensions><speed>1.35</speed></extensions>
      </trkpt>
      <trkpt lat="51.841499000" lon="7.621913000">
        <ele>64.8</ele>
        <time>2017-04-29T05:17:07</time>
        <extensions><speed>1.32</speed></extensions>
      </trkpt>
      <trkpt lat="51.841503000" lon="7.621930000">
        <ele>64.8</ele>
        <time>2017-04-29T05:17:08</time>
        <extensions><speed>1.35</speed></extensions>
      </trkpt>
      <trkpt lat="51.841511000" lon="7.621948000">
        <ele>64.9</ele>
        <time>2017-04-29T05:17:09</time>
        <extensions><speed>1.35</speed></extensions>
      </trkpt>
      <trkpt lat="51.841518000" lon="7.621969000">
        <ele>64.9</ele>
        <time>2017-04-29T05:17:10</time>
        <extensions><speed>1.39</speed></extensions>
      </trkpt>
      <trkpt lat="51.841522000" lon="7.621985000">
        <ele>64.9</ele>
        <time>2017-04-29T05:17:11</time>
        <extensions><speed>1.39</speed></extensions>
      </trkpt>
      <trkpt lat="51.841530000" lon="7.622004000">
        <ele>65.0</ele>
        <time>2017-04-29T05:17:12</time>
        <extensions><speed>1.39</speed></extensions>
      </trkpt>
      <trkpt lat="51.841534000" lon="7.622022000">
        <ele>65.1</ele>
        <time>2017-04-29T05:17:13</time>
        <extensions><speed>1.39</speed></extensions>
      </trkpt>
      <trkpt lat="51.841537000" lon="7.622039000">
        <ele>65.1</ele>
        <time>2017-04-29T05:17:14</time>
        <extensions><speed>1.35</speed></extensions>
      </trkpt>
      <trkpt lat="51.841541000" lon="7.622058000">
        <ele>65.2</ele>
        <time>2017-04-29T05:17:15</time>
        <extensions><speed>1.35</speed></extensions>
      </trkpt>
      <trkpt lat="51.841549000" lon="7.622079000">
        <ele>65.3</ele>
        <time>2017-04-29T05:17:16</time>
        <extensions><speed>1.39</speed></extensions>
      </trkpt>
      <trkpt lat="51.841553000" lon="7.622098000">
        <ele>65.3</ele>
        <time>2017-04-29T05:17:17</time>
        <extensions><speed>1.39</speed></extensions>
      </trkpt>
      <trkpt lat="51.841557000" lon="7.622114000">
        <ele>65.4</ele>
        <time>2017-04-29T05:17:18</time>
        <extensions><speed>1.39</speed></extensions>
      </trkpt>
      <trkpt lat="51.841564000" lon="7.622133000">
        <ele>65.5</ele>
        <time>2017-04-29T05:17:19</time>
        <extensions><speed>1.41</speed></extensions>
      </trkpt>
      <trkpt lat="51.841572000" lon="7.622151000">
        <ele>65.5</ele>
        <time>2017-04-29T05:17:20</time>
        <extensions><speed>1.37</speed></extensions>
      </trkpt>
      <trkpt lat="51.841579000" lon="7.622170000">
        <ele>65.6</ele>
        <time>2017-04-29T05:17:21</time>
        <extensions><speed>1.33</speed></extensions>
      </trkpt>
      <trkpt lat="51.841583000" lon="7.622186000">
        <ele>65.7</ele>
        <time>2017-04-29T05:17:22</time>
        <extensions><speed>1.30</speed></extensions>
      </trkpt>
      <trkpt lat="51.841591000" lon="7.622205000">
        <ele>65.7</ele>
        <time>2017-04-29T05:17:23</time>
        <extensions><speed>1.32</speed></extensions>
      </trkpt>
      <trkpt lat="51.841595000" lon="7.622225000">
        <ele>65.8</ele>
        <time>2017-04-29T05:17:24</time>
        <extensions><speed>1.31</speed></extensions>
      </trkpt>
      <trkpt lat="51.841599000" lon="7.622243000">
        <ele>65.9</ele>
        <time>2017-04-29T05:17:25</time>
        <extensions><speed>1.29</speed></extensions>
      </trkpt>
      <trkpt lat="51.841599000" lon="7.622262000">
        <ele>65.9</ele>
        <time>2017-04-29T05:17:26</time>
        <extensions><speed>1.33</speed></extensions>
      </trkpt>
      <trkpt lat="51.841606000" lon="7.622280000">
        <ele>66.0</ele>
        <time>2017-04-29T05:17:27</time>
        <extensions><speed>1.39</speed></extensions>
      </trkpt>
      <trkpt lat="51.841614000" lon="7.622300000">
        <ele>66.0</ele>
        <time>2017-04-29T05:17:28</time>
        <extensions><speed>1.36</speed></extensions>
      </trkpt>
      <trkpt lat="51.841618000" lon="7.622315000">
        <ele>66.1</ele>
        <time>2017-04-29T05:17:29</time>
        <extensions><speed>1.34</speed></extensions>
      </trkpt>
      <trkpt lat="51.841625000" lon="7.622333000">
        <ele>66.2</ele>
        <time>2017-04-29T05:17:30</time>
        <extensions><speed>1.34</speed></extensions>
      </trkpt>
      <trkpt lat="51.841633000" lon="7.622350000">
        <ele>66.2</ele>
        <time>2017-04-29T05:17:31</time>
        <extensions><speed>1.30</speed></extensions>
      </trkpt>
      <trkpt lat="51.841637000" lon="7.622365000">
        <ele>66.3</ele>
        <time>2017-04-29T05:17:32</time>
        <extensions><speed>1.26</speed></extensions>
      </trkpt>
      <trkpt lat="51.841644000" lon="7.622384000">
        <ele>66.3</ele>
        <time>2017-04-29T05:17:33</time>
        <extensions><speed>1.26</speed></extensions>
      </trkpt>
      <trkpt lat="51.841648000" lon="7.622405000">
        <ele>66.4</ele>
        <time>2017-04-29T05:17:34</time>
        <extensions><speed>1.22</speed></extensions>
      </trkpt>
      <trkpt lat="51.841648000" lon="7.622422000">
        <ele>66.5</ele>
        <time>2017-04-29T05:17:35</time>
        <extensions><speed>1.22</speed></extensions>
      </trkpt>
      <trkpt lat="51.841652000" lon="7.622440000">
        <ele>66.5</ele>
        <time>2017-04-29T05:17:36</time>
        <extensions><speed>1.23</speed></extensions>
      </trkpt>
      <trkpt lat="51.841660000" lon="7.622457000">
        <ele>66.6</ele>
        <time>2017-04-29T05:17:37</time>
        <extensions><speed>1.34</speed></extensions>
      </trkpt>
      <trkpt lat="51.841663000" lon="7.622471000">
        <ele>66.6</ele>
        <time>2017-04-29T05:17:38</time>
        <extensions><speed>1.31</speed></extensions>
      </trkpt>
      <trkpt lat="51.841667000" lon="7.622490000">
        <ele>66.7</ele>
        <time>2017-04-29T05:17:39</time>
        <extensions><speed>1.33</speed></extensions>
      </trkpt>
      <trkpt lat="51.841675000" lon="7.622510000">
        <ele>66.8</ele>
        <time>2017-04-29T05:17:40</time>
        <extensions><speed>1.32</speed></extensions>
      </trkpt>
      <trkpt lat="51.841679000" lon="7.622530000">
        <ele>66.8</ele>
        <time>2017-04-29T05:17:41</time>
        <extensions><speed>1.34</speed></extensions>
      </trkpt>
      <trkpt lat="51.841686000" lon="7.622548000">
        <ele>66.9</ele>
        <time>2017-04-29T05:17:42</time>
        <extensions><speed>1.32</speed></extensions>
      </trkpt>
      <trkpt lat="51.841690000" lon="7.622568000">
        <ele>66.9</ele>
        <time>2017-04-29T05:17:43</time>
        <extensions><speed>1.32</speed></extensions>
      </trkpt>
      <trkpt lat="51.841698000" lon="7.622583000">
        <ele>67.0</ele>
        <time>2017-04-29T05:17:44</time>
        <extensions><speed>1.34</speed></extensions>
      </trkpt>
      <trkpt lat="51.841702000" lon="7.622599000">
        <ele>67.1</ele>
        <time>2017-04-29T05:17:45</time>
        <extensions><speed>1.34</speed></extensions>
      </trkpt>
      <trkpt lat="51.841702000" lon="7.622617000">
        <ele>67.1</ele>
        <time>2017-04-29T05:17:46</time>
        <extensions><speed>1.33</speed></extensions>
      </trkpt>
      <trkpt lat="51.841705000" lon="7.622633000">
        <ele>67.2</ele>
        <time>2017-04-29T05:17:47</time>
        <extensions><speed>1.31</speed></extensions>
      </trkpt>
      <trkpt lat="51.841709000" lon="7.622655000">
        <ele>67.2</ele>
        <time>2017-04-29T05:17:48</time>
        <extensions><speed>1.31</speed></extensions>
      </trkpt>
      <trkpt lat="51.841713000" lon="7.622674000">
        <ele>67.3</ele>
        <time>2017-04-29T05:17:49</time>
        <extensions><speed>1.27</speed></extensions>
      </trkpt>
      <trkpt lat="51.841717000" lon="7.622690000">
        <ele>67.3</ele>
        <time>2017-04-29T05:17:50</time>
        <extensions><speed>1.29</speed></extensions>
      </trkpt>
      <trkpt lat="51.841728000" lon="7.622706000">
        <ele>67.4</ele>
        <time>2017-04-29T05:17:51</time>
        <extensions><speed>1.35</speed></extensions>
      </trkpt>
      <trkpt lat="51.841728000" lon="7.622722000">
        <ele>67.5</ele>
        <time>2017-04-29T05:17:52</time>
        <extensions><speed>1.32</speed></extensions>
      </trkpt>
      <trkpt lat="51.841740000" lon="7.622739000">
        <ele>67.5</ele>
        <time>2017-04-29T05:17:53</time>
        <extensions><speed>1.30</speed></extensions>
      </trkpt>
      <trkpt lat="51.841747000" lon="7.622758000">
        <ele>67.6</ele>
        <time>2017-04-29T05:17:54</time>
        <extensions><speed>1.39</speed></extensions>
      </trkpt>
      <trkpt lat="51.841751000" lon="7.622778000">
        <ele>67.6</ele>
        <time>2017-04-29T05:17:55</time>
        <extensions><speed>1.40</speed></extensions>
      </trkpt>
      <trkpt lat="51.841759000" lon="7.622793000">
        <ele>67.7</ele>
        <time>2017-04-29T05:17:56</time>
        <extensions><speed>1.31</speed></extensions>
      </trkpt>
      <trkpt lat="51.841763000" lon="7.622810000">
        <ele>67.8</ele>
        <time>2017-04-29T05:17:57</time>
        <extensions><speed>1.35</speed></extensions>
      </trkpt>
      <trkpt lat="51.841763000" lon="7.622828000">
        <ele>67.8</ele>
        <time>2017-04-29T05:17:58</time>
        <extensions><speed>1.31</speed></extensions>
      </trkpt>
      <trkpt lat="51.841770000" lon="7.622848000">
        <ele>67.9</ele>
        <time>2017-04-29T05:17:59</time>
        <extensions><speed>1.31</speed></extensions>
      </trkpt>
      <trkpt lat="51.841778000" lon="7.622870000">
        <ele>67.9</ele>
        <time>2017-04-29T05:18:00</time>
        <extensions><speed>1.33</speed></extensions>
      </trkpt>
      <trkpt lat="51.841782000" lon="7.622886000">
        <ele>68.0</ele>
        <time>2017-04-29T05:18:01</time>
        <extensions><speed>1.33</speed></extensions>
      </trkpt>
      <trkpt lat="51.841785000" lon="7.622903000">
        <ele>68.0</ele>
        <time>2017-04-29T05:18:02</time>
        <extensions><speed>1.31</speed></extensions>
      </trkpt>
      <trkpt lat="51.841785000" lon="7.622920000">
        <ele>68.1</ele>
        <time>2017-04-29T05:18:03</time>
        <extensions><speed>1.28</speed></extensions>
      </trkpt>
      <trkpt lat="51.841785000" lon="7.622939000">
        <ele>68.1</ele>
        <time>2017-04-29T05:18:04</time>
        <extensions><speed>1.24</speed></extensions>
      </trkpt>
      <trkpt lat="51.841789000" lon="7.622958000">
        <ele>68.2</ele>
        <time>2017-04-29T05:18:05</time>
        <extensions><speed>1.22</speed></extensions>
      </trkpt>
      <trkpt lat="51.841793000" lon="7.622979000">
        <ele>68.3</ele>
        <time>2017-04-29T05:18:06</time>
        <extensions><speed>1.24</speed></extensions>
      </trkpt>
      <trkpt lat="51.841793000" lon="7.622995000">
        <ele>68.3</ele>
        <time>2017-04-29T05:18:07</time>
        <extensions><speed>1.28</speed></extensions>
      </trkpt>
      <trkpt lat="51.841801000" lon="7.623013000">
        <ele>68.3</ele>
        <time>2017-04-29T05:18:08</time>
        <extensions><speed>1.30</speed></extensions>
      </trkpt>
      <trkpt lat="51.841808000" lon="7.623032000">
        <ele>68.4</ele>
        <time>2017-04-29T05:18:09</time>
        <extensions><speed>1.35</speed></extensions>
      </trkpt>
      <trkpt lat="51.841816000" lon="7.623049000">
        <ele>68.4</ele>
        <time>2017-04-29T05:18:10</time>
        <extensions><speed>1.39</speed></extensions>
      </trkpt>
      <trkpt lat="51.841820000" lon="7.623066000">
        <ele>68.5</ele>
        <time>2017-04-29T05:18:11</time>
        <extensions><speed>1.39</speed></extensions>
      </trkpt>
      <trkpt lat="51.841824000" lon="7.623084000">
        <ele>68.5</ele>
        <time>2017-04-29T05:18:12</time>
        <extensions><speed>1.48</speed></extensions>
      </trkpt>
      <trkpt lat="51.841827000" lon="7.623102000">
        <ele>68.6</ele>
        <time>2017-04-29T05:18:13</time>
        <extensions><speed>1.35</speed></extensions>
      </trkpt>
      <trkpt lat="51.841831000" lon="7.623122000">
        <ele>68.7</ele>
        <time>2017-04-29T05:18:14</time>
        <extensions><speed>1.32</speed></extensions>
      </trkpt>
      <trkpt lat="51.841835000" lon="7.623140000">
        <ele>68.7</ele>
        <time>2017-04-29T05:18:15</time>
        <extensions><speed>1.26</speed></extensions>
      </trkpt>
      <trkpt lat="51.841839000" lon="7.623157000">
        <ele>68.8</ele>
        <time>2017-04-29T05:18:16</time>
        <extensions><speed>1.27</speed></extensions>
      </trkpt>
      <trkpt lat="51.841846000" lon="7.623173000">
        <ele>68.8</ele>
        <time>2017-04-29T05:18:17</time>
        <extensions><speed>1.25</speed></extensions>
      </trkpt>
      <trkpt lat="51.841850000" lon="7.623188000">
        <ele>68.9</ele>
        <time>2017-04-29T05:18:18</time>
        <extensions><speed>1.25</speed></extensions>
      </trkpt>
      <trkpt lat="51.841858000" lon="7.623200000">
        <ele>68.9</ele>
        <time>2017-04-29T05:18:19</time>
        <extensions><speed>1.25</speed></extensions>
      </trkpt>
      <trkpt lat="51.841866000" lon="7.623213000">
        <ele>69.0</ele>
        <time>2017-04-29T05:18:20</time>
        <extensions><speed>1.23</speed></extensions>
      </trkpt>
      <trkpt lat="51.841877000" lon="7.623228000">
        <ele>69.0</ele>
        <time>2017-04-29T05:18:21</time>
        <extensions><speed>1.28</speed></extensions>
      </trkpt>
      <trkpt lat="51.841881000" lon="7.623247000">
        <ele>69.1</ele>
        <time>2017-04-29T05:18:22</time>
        <extensions><speed>1.21</speed></extensions>
      </trkpt>
      <trkpt lat="51.841888000" lon="7.623263000">
        <ele>69.1</ele>
        <time>2017-04-29T05:18:23</time>
        <extensions><speed>1.27</speed></extensions>
      </trkpt>
      <trkpt lat="51.841896000" lon="7.623277000">
        <ele>69.2</ele>
        <time>2017-04-29T05:18:24</time>
        <extensions><speed>1.18</speed></extensions>
      </trkpt>
      <trkpt lat="51.841904000" lon="7.623290000">
        <ele>69.2</ele>
        <time>2017-04-29T05:18:25</time>
        <extensions><speed>1.27</speed></extensions>
      </trkpt>
      <trkpt lat="51.841915000" lon="7.623305000">
        <ele>69.2</ele>
        <time>2017-04-29T05:18:26</time>
        <extensions><speed>1.25</speed></extensions>
      </trkpt>
      <trkpt lat="51.841927000" lon="7.623318000">
        <ele>69.3</ele>
        <time>2017-04-29T05:18:27</time>
        <extensions><speed>1.32</speed></extensions>
      </trkpt>
      <trkpt lat="51.841934000" lon="7.623329000">
        <ele>69.3</ele>
        <time>2017-04-29T05:18:28</time>
        <extensions><speed>1.37</speed></extensions>
      </trkpt>
      <trkpt lat="51.841946000" lon="7.623343000">
        <ele>69.4</ele>
        <time>2017-04-29T05:18:29</time>
        <extensions><speed>1.40</speed></extensions>
      </trkpt>
      <trkpt lat="51.841957000" lon="7.623359000">
        <ele>69.4</ele>
        <time>2017-04-29T05:18:30</time>
        <extensions><speed>1.38</speed></extensions>
      </trkpt>
      <trkpt lat="51.841969000" lon="7.623376000">
        <ele>69.5</ele>
        <time>2017-04-29T05:18:31</time>
        <extensions><speed>1.44</speed></extensions>
      </trkpt>
      <trkpt lat="51.841980000" lon="7.623390000">
        <ele>69.5</ele>
        <time>2017-04-29T05:18:32</time>
        <extensions><speed>1.44</speed></extensions>
      </trkpt>
      <trkpt lat="51.841991000" lon="7.623397000">
        <ele>69.5</ele>
        <time>2017-04-29T05:18:33</time>
        <extensions><speed>1.36</speed></extensions>
      </trkpt>
      <trkpt lat="51.841995000" lon="7.623406000">
        <ele>69.6</ele>
        <time>2017-04-29T05:18:34</time>
        <extensions><speed>1.38</speed></extensions>
      </trkpt>
      <trkpt lat="51.842007000" lon="7.623418000">
        <ele>69.6</ele>
        <time>2017-04-29T05:18:35</time>
        <extensions><speed>1.38</speed></extensions>
      </trkpt>
      <trkpt lat="51.842018000" lon="7.623430000">
        <ele>69.7</ele>
        <time>2017-04-29T05:18:36</time>
        <extensions><speed>1.33</speed></extensions>
      </trkpt>
      <trkpt lat="51.842030000" lon="7.623441000">
        <ele>69.7</ele>
        <time>2017-04-29T05:18:37</time>
        <extensions><speed>1.33</speed></extensions>
      </trkpt>
      <trkpt lat="51.842037000" lon="7.623452000">
        <ele>69.7</ele>
        <time>2017-04-29T05:18:38</time>
        <extensions><speed>1.32</speed></extensions>
      </trkpt>
      <trkpt lat="51.842049000" lon="7.623464000">
        <ele>69.8</ele>
        <time>2017-04-29T05:18:39</time>
        <extensions><speed>1.32</speed></extensions>
      </trkpt>
      <trkpt lat="51.842056000" lon="7.623477000">
        <ele>69.8</ele>
        <time>2017-04-29T05:18:40</time>
        <extensions><speed>1.30</speed></extensions>
      </trkpt>
      <trkpt lat="51.842068000" lon="7.623488000">
        <ele>69.8</ele>
        <time>2017-04-29T05:18:41</time>
        <extensions><speed>1.32</speed></extensions>
      </trkpt>
      <trkpt lat="51.842079000" lon="7.623500000">
        <ele>69.9</ele>
        <time>2017-04-29T05:18:42</time>
        <extensions><speed>1.37</speed></extensions>
      </trkpt>
      <trkpt lat="51.842091000" lon="7.623511000">
        <ele>69.9</ele>
        <time>2017-04-29T05:18:43</time>
        <extensions><speed>1.44</speed></extensions>
      </trkpt>
      <trkpt lat="51.842106000" lon="7.623522000">
        <ele>69.9</ele>
        <time>2017-04-29T05:18:44</time>
        <extensions><speed>1.44</speed></extensions>
      </trkpt>
      <trkpt lat="51.842117000" lon="7.623535000">
        <ele>70.0</ele>
        <time>2017-04-29T05:18:45</time>
        <extensions><speed>1.46</speed></extensions>
      </trkpt>
      <trkpt lat="51.842125000" lon="7.623551000">
        <ele>70.0</ele>
        <time>2017-04-29T05:18:46</time>
        <extensions><speed>1.46</speed></extensions>
      </trkpt>
      <trkpt lat="51.842136000" lon="7.623565000">
        <ele>70.0</ele>
        <time>2017-04-29T05:18:47</time>
        <extensions><speed>1.40</speed></extensions>
      </trkpt>
      <trkpt lat="51.842144000" lon="7.623576000">
        <ele>70.1</ele>
        <time>2017-04-29T05:18:48</time>
        <extensions><speed>1.35</speed></extensions>
      </trkpt>
      <trkpt lat="51.842152000" lon="7.623590000">
        <ele>70.1</ele>
        <time>2017-04-29T05:18:49</time>
        <extensions><speed>1.29</speed></extensions>
      </trkpt>
      <trkpt lat="51.842159000" lon="7.623605000">
        <ele>70.1</ele>
        <time>2017-04-29T05:18:50</time>
        <extensions><speed>1.29</speed></extensions>
      </trkpt>
      <trkpt lat="51.842171000" lon="7.623620000">
        <ele>70.2</ele>
        <time>2017-04-29T05:18:51</time>
        <extensions><speed>1.38</speed></extensions>
      </trkpt>
      <trkpt lat="51.842186000" lon="7.623632000">
        <ele>70.2</ele>
        <time>2017-04-29T05:18:52</time>
        <extensions><speed>1.48</speed></extensions>
      </trkpt>
      <trkpt lat="51.842197000" lon="7.623642000">
        <ele>70.3</ele>
        <time>2017-04-29T05:18:53</time>
        <extensions><speed>1.51</speed></extensions>
      </trkpt>
      <trkpt lat="51.842209000" lon="7.623648000">
        <ele>70.3</ele>
        <time>2017-04-29T05:18:54</time>
        <extensions><speed>1.51</speed></extensions>
      </trkpt>
      <trkpt lat="51.842216000" lon="7.623658000">
        <ele>70.3</ele>
        <time>2017-04-29T05:18:55</time>
        <extensions><speed>1.49</speed></extensions>
      </trkpt>
      <trkpt lat="51.842228000" lon="7.623669000">
        <ele>70.4</ele>
        <time>2017-04-29T05:18:56</time>
        <extensions><speed>1.43</speed></extensions>
      </trkpt>
      <trkpt lat="51.842239000" lon="7.623679000">
        <ele>70.4</ele>
        <time>2017-04-29T05:18:57</time>
        <extensions><speed>1.38</speed></extensions>
      </trkpt>
      <trkpt lat="51.842251000" lon="7.623690000">
        <ele>70.4</ele>
        <time>2017-04-29T05:18:58</time>
        <extensions><speed>1.37</speed></extensions>
      </trkpt>
      <trkpt lat="51.842262000" lon="7.623702000">
        <ele>70.5</ele>
        <time>2017-04-29T05:18:59</time>
        <extensions><speed>1.38</speed></extensions>
      </trkpt>
      <trkpt lat="51.842278000" lon="7.623712000">
        <ele>70.5</ele>
        <time>2017-04-29T05:19:00</time>
        <extensions><speed>1.36</speed></extensions>
      </trkpt>
      <trkpt lat="51.842285000" lon="7.623720000">
        <ele>70.5</ele>
        <time>2017-04-29T05:19:01</time>
        <extensions><speed>1.40</speed></extensions>
      </trkpt>
      <trkpt lat="51.842300000" lon="7.623732000">
        <ele>70.6</ele>
        <time>2017-04-29T05:19:02</time>
        <extensions><speed>1.45</speed></extensions>
      </trkpt>
      <trkpt lat="51.842312000" lon="7.623749000">
        <ele>70.6</ele>
        <time>2017-04-29T05:19:03</time>
        <extensions><speed>1.46</speed></extensions>
      </trkpt>
      <trkpt lat="51.842319000" lon="7.623760000">
        <ele>70.6</ele>
        <time>2017-04-29T05:19:04</time>
        <extensions><speed>1.42</speed></extensions>
      </trkpt>
      <trkpt lat="51.842331000" lon="7.623770000">
        <ele>70.7</ele>
        <time>2017-04-29T05:19:05</time>
        <extensions><speed>1.46</speed></extensions>
      </trkpt>
      <trkpt lat="51.842346000" lon="7.623780000">
        <ele>70.7</ele>
        <time>2017-04-29T05:19:06</time>
        <extensions><speed>1.48</speed></extensions>
      </trkpt>
      <trkpt lat="51.842354000" lon="7.623791000">
        <ele>70.7</ele>
        <time>2017-04-29T05:19:07</time>
        <extensions><speed>1.48</speed></extensions>
      </trkpt>
      <trkpt lat="51.842365000" lon="7.623805000">
        <ele>70.8</ele>
        <time>2017-04-29T05:19:08</time>
        <extensions><speed>1.48</speed></extensions>
      </trkpt>
      <trkpt lat="51.842381000" lon="7.623816000">
        <ele>70.8</ele>
        <time>2017-04-29T05:19:09</time>
        <extensions><speed>1.49</speed></extensions>
      </trkpt>
      <trkpt lat="51.842388000" lon="7.623821000">
        <ele>70.8</ele>
        <time>2017-04-29T05:19:10</time>
        <extensions><speed>1.46</speed></extensions>
      </trkpt>
      <trkpt lat="51.842403000" lon="7.623830000">
        <ele>70.8</ele>
        <time>2017-04-29T05:19:11</time>
        <extensions><speed>1.44</speed></extensions>
      </trkpt>
      <trkpt lat="51.842415000" lon="7.623840000">
        <ele>70.9</ele>
        <time>2017-04-29T05:19:12</time>
        <extensions><speed>1.44</speed></extensions>
      </trkpt>
      <trkpt lat="51.842422000" lon="7.623852000">
        <ele>70.9</ele>
        <time>2017-04-29T05:19:13</time>
        <extensions><speed>1.44</speed></extensions>
      </trkpt>
      <trkpt lat="51.842430000" lon="7.623865000">
        <ele>70.9</ele>
        <time>2017-04-29T05:19:14</time>
        <extensions><speed>1.39</speed></extensions>
      </trkpt>
      <trkpt lat="51.842445000" lon="7.623873000">
        <ele>71.0</ele>
        <time>2017-04-29T05:19:15</time>
        <extensions><speed>1.44</speed></extensions>
      </trkpt>
      <trkpt lat="51.842453000" lon="7.623884000">
        <ele>71.0</ele>
        <time>2017-04-29T05:19:16</time>
        <extensions><speed>1.44</speed></extensions>
      </trkpt>
      <trkpt lat="51.842461000" lon="7.623897000">
        <ele>71.0</ele>
        <time>2017-04-29T05:19:17</time>
        <extensions><speed>1.45</speed></extensions>
      </trkpt>
      <trkpt lat="51.842472000" lon="7.623910000">
        <ele>71.0</ele>
        <time>2017-04-29T05:19:18</time>
        <extensions><speed>1.46</speed></extensions>
      </trkpt>
      <trkpt lat="51.842480000" lon="7.623919000">
        <ele>71.0</ele>
        <time>2017-04-29T05:19:19</time>
        <extensions><speed>1.47</speed></extensions>
      </trkpt>
      <trkpt lat="51.842491000" lon="7.623931000">
        <ele>71.0</ele>
        <time>2017-04-29T05:19:20</time>
        <extensions><speed>1.48</speed></extensions>
      </trkpt>
      <trkpt lat="51.842499000" lon="7.623947000">
        <ele>71.0</ele>
        <time>2017-04-29T05:19:21</time>
        <extensions><speed>1.48</speed></extensions>
      </trkpt>
      <trkpt lat="51.842510000" lon="7.623960000">
        <ele>71.0</ele>
        <time>2017-04-29T05:19:22</time>
        <extensions><speed>1.42</speed></extensions>
      </trkpt>
      <trkpt lat="51.842518000" lon="7.623970000">
        <ele>71.0</ele>
        <time>2017-04-29T05:19:23</time>
        <extensions><speed>1.36</speed></extensions>
      </trkpt>
      <trkpt lat="51.842529000" lon="7.623975000">
        <ele>71.1</ele>
        <time>2017-04-29T05:19:24</time>
        <extensions><speed>1.33</speed></extensions>
      </trkpt>
      <trkpt lat="51.842545000" lon="7.623980000">
        <ele>71.1</ele>
        <time>2017-04-29T05:19:25</time>
        <extensions><speed>1.32</speed></extensions>
      </trkpt>
      <trkpt lat="51.842552000" lon="7.623992000">
        <ele>71.1</ele>
        <time>2017-04-29T05:19:26</time>
        <extensions><speed>1.32</speed></extensions>
      </trkpt>
      <trkpt lat="51.842564000" lon="7.624008000">
        <ele>71.1</ele>
        <time>2017-04-29T05:19:27</time>
        <extensions><speed>1.36</speed></extensions>
      </trkpt>
      <trkpt lat="51.842571000" lon="7.624020000">
        <ele>71.1</ele>
        <time>2017-04-29T05:19:28</time>
        <extensions><speed>1.34</speed></extensions>
      </trkpt>
      <trkpt lat="51.842579000" lon="7.624032000">
        <ele>71.1</ele>
        <time>2017-04-29T05:19:29</time>
        <extensions><speed>1.34</speed></extensions>
      </trkpt>
      <trkpt lat="51.842587000" lon="7.624048000">
        <ele>71.1</ele>
        <time>2017-04-29T05:19:30</time>
        <extensions><speed>1.37</speed></extensions>
      </trkpt>
      <trkpt lat="51.842598000" lon="7.624062000">
        <ele>71.1</ele>
        <time>2017-04-29T05:19:31</time>
        <extensions><speed>1.37</speed></extensions>
      </trkpt>
      <trkpt lat="51.842609000" lon="7.624070000">
        <ele>71.1</ele>
        <time>2017-04-29T05:19:32</time>
        <extensions><speed>1.33</speed></extensions>
      </trkpt>
      <trkpt lat="51.842617000" lon="7.624082000">
        <ele>71.1</ele>
        <time>2017-04-29T05:19:33</time>
        <extensions><speed>1.39</speed></extensions>
      </trkpt>
      <trkpt lat="51.842628000" lon="7.624090000">
        <ele>71.1</ele>
        <time>2017-04-29T05:19:34</time>
        <extensions><speed>1.43</speed></extensions>
      </trkpt>
      <trkpt lat="51.842640000" lon="7.624098000">
        <ele>71.1</ele>
        <time>2017-04-29T05:19:35</time>
        <extensions><speed>1.44</speed></extensions>
      </trkpt>
      <trkpt lat="51.842651000" lon="7.624105000">
        <ele>71.1</ele>
        <time>2017-04-29T05:19:36</time>
        <extensions><speed>1.39</speed></extensions>
      </trkpt>
      <trkpt lat="51.842663000" lon="7.624115000">
        <ele>71.1</ele>
        <time>2017-04-29T05:19:37</time>
        <extensions><speed>1.38</speed></extensions>
      </trkpt>
      <trkpt lat="51.842674000" lon="7.624122000">
        <ele>71.1</ele>
        <time>2017-04-29T05:19:38</time>
        <extensions><speed>1.39</speed></extensions>
      </trkpt>
      <trkpt lat="51.842690000" lon="7.624133000">
        <ele>71.1</ele>
        <time>2017-04-29T05:19:39</time>
        <extensions><speed>1.41</speed></extensions>
      </trkpt>
      <trkpt lat="51.842697000" lon="7.624146000">
        <ele>71.1</ele>
        <time>2017-04-29T05:19:40</time>
        <extensions><speed>1.37</speed></extensions>
      </trkpt>
      <trkpt lat="51.842705000" lon="7.624162000">
        <ele>71.1</ele>
        <time>2017-04-29T05:19:41</time>
        <extensions><speed>1.40</speed></extensions>
      </trkpt>
      <trkpt lat="51.842716000" lon="7.624175000">
        <ele>71.1</ele>
        <time>2017-04-29T05:19:42</time>
        <extensions><speed>1.40</speed></extensions>
      </trkpt>
      <trkpt lat="51.842724000" lon="7.624187000">
        <ele>71.1</ele>
        <time>2017-04-29T05:19:43</time>
        <extensions><speed>1.35</speed></extensions>
      </trkpt>
      <trkpt lat="51.842735000" lon="7.624200000">
        <ele>71.1</ele>
        <time>2017-04-29T05:19:44</time>
        <extensions><speed>1.34</speed></extensions>
      </trkpt>
      <trkpt lat="51.842747000" lon="7.624208000">
        <ele>71.1</ele>
        <time>2017-04-29T05:19:45</time>
        <extensions><speed>1.34</speed></extensions>
      </trkpt>
      <trkpt lat="51.842758000" lon="7.624217000">
        <ele>71.1</ele>
        <time>2017-04-29T05:19:46</time>
        <extensions><speed>1.33</speed></extensions>
      </trkpt>
      <trkpt lat="51.842770000" lon="7.624225000">
        <ele>71.1</ele>
        <time>2017-04-29T05:19:47</time>
        <extensions><speed>1.36</speed></extensions>
      </trkpt>
      <trkpt lat="51.842773000" lon="7.624235000">
        <ele>71.1</ele>
        <time>2017-04-29T05:19:48</time>
        <extensions><speed>1.37</speed></extensions>
      </trkpt>
      <trkpt lat="51.842785000" lon="7.624248000">
        <ele>71.1</ele>
        <time>2017-04-29T05:19:49</time>
        <extensions><speed>1.40</speed></extensions>
      </trkpt>
      <trkpt lat="51.842796000" lon="7.624260000">
        <ele>71.1</ele>
        <time>2017-04-29T05:19:50</time>
        <extensions><speed>1.36</speed></extensions>
      </trkpt>
      <trkpt lat="51.842804000" lon="7.624267000">
        <ele>71.1</ele>
        <time>2017-04-29T05:19:51</time>
        <extensions><speed>1.36</speed></extensions>
      </trkpt>
      <trkpt lat="51.842815000" lon="7.624275000">
        <ele>71.1</ele>
        <time>2017-04-29T05:19:52</time>
        <extensions><speed>1.37</speed></extensions>
      </trkpt>
      <trkpt lat="51.842827000" lon="7.624285000">
        <ele>71.1</ele>
        <time>2017-04-29T05:19:53</time>
        <extensions><speed>1.36</speed></extensions>
      </trkpt>
      <trkpt lat="51.842838000" lon="7.624300000">
        <ele>71.1</ele>
        <time>2017-04-29T05:19:54</time>
        <extensions><speed>1.35</speed></extensions>
      </trkpt>
      <trkpt lat="51.842846000" lon="7.624313000">
        <ele>71.1</ele>
        <time>2017-04-29T05:19:55</time>
        <extensions><speed>1.39</speed></extensions>
      </trkpt>
      <trkpt lat="51.842861000" lon="7.624325000">
        <ele>71.1</ele>
        <time>2017-04-29T05:19:56</time>
        <extensions><speed>1.39</speed></extensions>
      </trkpt>
      <trkpt lat="51.842869000" lon="7.624333000">
        <ele>71.1</ele>
        <time>2017-04-29T05:19:57</time>
        <extensions><speed>1.37</speed></extensions>
      </trkpt>
      <trkpt lat="51.842876000" lon="7.624345000">
        <ele>71.1</ele>
        <time>2017-04-29T05:19:58</time>
        <extensions><speed>1.35</speed></extensions>
      </trkpt>
      <trkpt lat="51.842888000" lon="7.624357000">
        <ele>71.1</ele>
        <time>2017-04-29T05:19:59</time>
        <extensions><speed>1.32</speed></extensions>
      </trkpt>
      <trkpt lat="51.842899000" lon="7.624365000">
        <ele>71.1</ele>
        <time>2017-04-29T05:20:00</time>
        <extensions><speed>1.32</speed></extensions>
      </trkpt>
      <trkpt lat="51.842911000" lon="7.624376000">
        <ele>71.1</ele>
        <time>2017-04-29T05:20:01</time>
        <extensions><speed>1.38</speed></extensions>
      </trkpt>
      <trkpt lat="51.842922000" lon="7.624395000">
        <ele>71.1</ele>
        <time>2017-04-29T05:20:02</time>
        <extensions><speed>1.47</speed></extensions>
      </trkpt>
      <trkpt lat="51.842934000" lon="7.624411000">
        <ele>71.1</ele>
        <time>2017-04-29T05:20:03</time>
        <extensions><speed>1.57</speed></extensions>
      </trkpt>
      <trkpt lat="51.842941000" lon="7.624430000">
        <ele>71.1</ele>
        <time>2017-04-29T05:20:04</time>
        <extensions><speed>1.61</speed></extensions>
      </trkpt>
      <trkpt lat="51.842953000" lon="7.624445000">
        <ele>71.1</ele>
        <time>2017-04-29T05:20:05</time>
        <extensions><speed>1.53</speed></extensions>
      </trkpt>
      <trkpt lat="51.842960000" lon="7.624456000">
        <ele>71.1</ele>
        <time>2017-04-29T05:20:06</time>
        <extensions><speed>1.53</speed></extensions>
      </trkpt>
      <trkpt lat="51.842972000" lon="7.624468000">
        <ele>71.1</ele>
        <time>2017-04-29T05:20:07</time>
        <extensions><speed>1.47</speed></extensions>
      </trkpt>
      <trkpt lat="51.842983000" lon="7.624477000">
        <ele>71.1</ele>
        <time>2017-04-29T05:20:08</time>
        <extensions><speed>1.44</speed></extensions>
      </trkpt>
      <trkpt lat="51.842995000" lon="7.624486000">
        <ele>71.1</ele>
        <time>2017-04-29T05:20:09</time>
        <extensions><speed>1.41</speed></extensions>
      </trkpt>
      <trkpt lat="51.843002000" lon="7.624496000">
        <ele>71.1</ele>
        <time>2017-04-29T05:20:10</time>
        <extensions><speed>1.41</speed></extensions>
      </trkpt>
      <trkpt lat="51.843014000" lon="7.624507000">
        <ele>71.1</ele>
        <time>2017-04-29T05:20:11</time>
        <extensions><speed>1.40</speed></extensions>
      </trkpt>
      <trkpt lat="51.843029000" lon="7.624516000">
        <ele>71.1</ele>
        <time>2017-04-29T05:20:12</time>
        <extensions><speed>1.40</speed></extensions>
      </trkpt>
      <trkpt lat="51.843040000" lon="7.624527000">
        <ele>71.1</ele>
        <time>2017-04-29T05:20:13</time>
        <extensions><speed>1.37</speed></extensions>
      </trkpt>
      <trkpt lat="51.843052000" lon="7.624533000">
        <ele>71.1</ele>
        <time>2017-04-29T05:20:14</time>
        <extensions><speed>1.34</speed></extensions>
      </trkpt>
      <trkpt lat="51.843063000" lon="7.624542000">
        <ele>71.1</ele>
        <time>2017-04-29T05:20:15</time>
        <extensions><speed>1.35</speed></extensions>
      </trkpt>
      <trkpt lat="51.843067000" lon="7.624555000">
        <ele>71.1</ele>
        <time>2017-04-29T05:20:16</time>
        <extensions><speed>1.35</speed></extensions>
      </trkpt>
      <trkpt lat="51.843079000" lon="7.624572000">
        <ele>71.1</ele>
        <time>2017-04-29T05:20:17</time>
        <extensions><speed>1.35</speed></extensions>
      </trkpt>
      <trkpt lat="51.843090000" lon="7.624586000">
        <ele>71.1</ele>
        <time>2017-04-29T05:20:18</time>
        <extensions><speed>1.38</speed></extensions>
      </trkpt>
      <trkpt lat="51.843098000" lon="7.624595000">
        <ele>71.1</ele>
        <time>2017-04-29T05:20:19</time>
        <extensions><speed>1.38</speed></extensions>
      </trkpt>
      <trkpt lat="51.843113000" lon="7.624605000">
        <ele>71.1</ele>
        <time>2017-04-29T05:20:20</time>
        <extensions><speed>1.42</speed></extensions>
      </trkpt>
      <trkpt lat="51.843121000" lon="7.624617000">
        <ele>71.1</ele>
        <time>2017-04-29T05:20:21</time>
        <extensions><speed>1.37</speed></extensions>
      </trkpt>
      <trkpt lat="51.843132000" lon="7.624628000">
        <ele>71.1</ele>
        <time>2017-04-29T05:20:22</time>
        <extensions><speed>1.35</speed></extensions>
      </trkpt>
      <trkpt lat="51.843143000" lon="7.624639000">
        <ele>71.1</ele>
        <time>2017-04-29T05:20:23</time>
        <extensions><speed>1.35</speed></extensions>
      </trkpt>
      <trkpt lat="51.843155000" lon="7.624650000">
        <ele>71.1</ele>
        <time>2017-04-29T05:20:24</time>
        <extensions><speed>1.35</speed></extensions>
      </trkpt>
      <trkpt lat="51.843163000" lon="7.624660000">
        <ele>71.1</ele>
        <time>2017-04-29T05:20:25</time>
        <extensions><speed>1.33</speed></extensions>
      </trkpt>
      <trkpt lat="51.843178000" lon="7.624670000">
        <ele>71.1</ele>
        <time>2017-04-29T05:20:26</time>
        <extensions><speed>1.37</speed></extensions>
      </trkpt>
      <trkpt lat="51.843193000" lon="7.624677000">
        <ele>71.2</ele>
        <time>2017-04-29T05:20:27</time>
        <extensions><speed>1.43</speed></extensions>
      </trkpt>
      <trkpt lat="51.843204000" lon="7.624687000">
        <ele>71.2</ele>
        <time>2017-04-29T05:20:28</time>
        <extensions><speed>1.45</speed></extensions>
      </trkpt>
      <trkpt lat="51.843212000" lon="7.624698000">
        <ele>71.2</ele>
        <time>2017-04-29T05:20:29</time>
        <extensions><speed>1.45</speed></extensions>
      </trkpt>
      <trkpt lat="51.843224000" lon="7.624713000">
        <ele>71.2</ele>
        <time>2017-04-29T05:20:30</time>
        <extensions><speed>1.45</speed></extensions>
      </trkpt>
      <trkpt lat="51.843227000" lon="7.624726000">
        <ele>71.2</ele>
        <time>2017-04-29T05:20:31</time>
        <extensions><speed>1.44</speed></extensions>
      </trkpt>
      <trkpt lat="51.843243000" lon="7.624738000">
        <ele>71.2</ele>
        <time>2017-04-29T05:20:32</time>
        <extensions><speed>1.41</speed></extensions>
      </trkpt>
      <trkpt lat="51.843254000" lon="7.624750000">
        <ele>71.2</ele>
        <time>2017-04-29T05:20:33</time>
        <extensions><speed>1.36</speed></extensions>
      </trkpt>
      <trkpt lat="51.843262000" lon="7.624761000">
        <ele>71.2</ele>
        <time>2017-04-29T05:20:34</time>
        <extensions><speed>1.34</speed></extensions>
      </trkpt>
      <trkpt lat="51.843269000" lon="7.624775000">
        <ele>71.2</ele>
        <time>2017-04-29T05:20:35</time>
        <extensions><speed>1.35</speed></extensions>
      </trkpt>
      <trkpt lat="51.843277000" lon="7.624789000">
        <ele>71.2</ele>
        <time>2017-04-29T05:20:36</time>
        <extensions><speed>1.35</speed></extensions>
      </trkpt>
      <trkpt lat="51.843288000" lon="7.624800000">
        <ele>71.3</ele>
        <time>2017-04-29T05:20:37</time>
        <extensions><speed>1.31</speed></extensions>
      </trkpt>
      <trkpt lat="51.843300000" lon="7.624810000">
        <ele>71.3</ele>
        <time>2017-04-29T05:20:38</time>
        <extensions><speed>1.36</speed></extensions>
      </trkpt>
      <trkpt lat="51.843315000" lon="7.624820000">
        <ele>71.3</ele>
        <time>2017-04-29T05:20:39</time>
        <extensions><speed>1.41</speed></extensions>
      </trkpt>
      <trkpt lat="51.843327000" lon="7.624829000">
        <ele>71.3</ele>
        <time>2017-04-29T05:20:40</time>
        <extensions><speed>1.37</speed></extensions>
      </trkpt>
      <trkpt lat="51.843330000" lon="7.624838000">
        <ele>71.3</ele>
        <time>2017-04-29T05:20:41</time>
        <extensions><speed>1.36</speed></extensions>
      </trkpt>
      <trkpt lat="51.843342000" lon="7.624852000">
        <ele>71.3</ele>
        <time>2017-04-29T05:20:42</time>
        <extensions><speed>1.37</speed></extensions>
      </trkpt>
      <trkpt lat="51.843349000" lon="7.624862000">
        <ele>71.3</ele>
        <time>2017-04-29T05:20:43</time>
        <extensions><speed>1.27</speed></extensions>
      </trkpt>
      <trkpt lat="51.843361000" lon="7.624873000">
        <ele>71.3</ele>
        <time>2017-04-29T05:20:44</time>
        <extensions><speed>1.25</speed></extensions>
      </trkpt>
      <trkpt lat="51.843369000" lon="7.624887000">
        <ele>71.3</ele>
        <time>2017-04-29T05:20:45</time>
        <extensions><speed>1.28</speed></extensions>
      </trkpt>
      <trkpt lat="51.843380000" lon="7.624899000">
        <ele>71.3</ele>
        <time>2017-04-29T05:20:46</time>
        <extensions><speed>1.34</speed></extensions>
      </trkpt>
      <trkpt lat="51.843391000" lon="7.624910000">
        <ele>71.3</ele>
        <time>2017-04-29T05:20:47</time>
        <extensions><speed>1.35</speed></extensions>
      </trkpt>
      <trkpt lat="51.843399000" lon="7.624920000">
        <ele>71.3</ele>
        <time>2017-04-29T05:20:48</time>
        <extensions><speed>1.37</speed></extensions>
      </trkpt>
      <trkpt lat="51.843407000" lon="7.624928000">
        <ele>71.3</ele>
        <time>2017-04-29T05:20:49</time>
        <extensions><speed>1.37</speed></extensions>
      </trkpt>
      <trkpt lat="51.843418000" lon="7.624940000">
        <ele>71.3</ele>
        <time>2017-04-29T05:20:50</time>
        <extensions><speed>1.38</speed></extensions>
      </trkpt>
      <trkpt lat="51.843430000" lon="7.624950000">
        <ele>71.3</ele>
        <time>2017-04-29T05:20:51</time>
        <extensions><speed>1.42</speed></extensions>
      </trkpt>
      <trkpt lat="51.843441000" lon="7.624960000">
        <ele>71.3</ele>
        <time>2017-04-29T05:20:52</time>
        <extensions><speed>1.36</speed></extensions>
      </trkpt>
      <trkpt lat="51.843456000" lon="7.624967000">
        <ele>71.3</ele>
        <time>2017-04-29T05:20:53</time>
        <extensions><speed>1.37</speed></extensions>
      </trkpt>
      <trkpt lat="51.843464000" lon="7.624977000">
        <ele>71.3</ele>
        <time>2017-04-29T05:20:54</time>
        <extensions><speed>1.43</speed></extensions>
      </trkpt>
      <trkpt lat="51.843475000" lon="7.624985000">
        <ele>71.3</ele>
        <time>2017-04-29T05:20:55</time>
        <extensions><speed>1.43</speed></extensions>
      </trkpt>
      <trkpt lat="51.843491000" lon="7.624995000">
        <ele>71.3</ele>
        <time>2017-04-29T05:20:56</time>
        <extensions><speed>1.40</speed></extensions>
      </trkpt>
      <trkpt lat="51.843502000" lon="7.625003000">
        <ele>71.3</ele>
        <time>2017-04-29T05:20:57</time>
        <extensions><speed>1.44</speed></extensions>
      </trkpt>
      <trkpt lat="51.843506000" lon="7.625011000">
        <ele>71.3</ele>
        <time>2017-04-29T05:20:58</time>
      </trkpt>
      <trkpt lat="51.843517000" lon="7.625022000">
        <ele>71.3</ele>
        <time>2017-04-29T05:21:00</time>
        <extensions><speed>1.33</speed></extensions>
      </trkpt>
      <trkpt lat="51.843525000" lon="7.625032000">
        <ele>71.3</ele>
        <time>2017-04-29T05:21:01</time>
        <extensions><speed>1.31</speed></extensions>
      </trkpt>
      <trkpt lat="51.843536000" lon="7.625041000">
        <ele>71.3</ele>
        <time>2017-04-29T05:21:02</time>
        <extensions><speed>1.15</speed></extensions>
      </trkpt>
      <trkpt lat="51.843544000" lon="7.625050000">
        <ele>71.3</ele>
        <time>2017-04-29T05:21:03</time>
        <extensions><speed>1.19</speed></extensions>
      </trkpt>
      <trkpt lat="51.843555000" lon="7.625060000">
        <ele>71.3</ele>
        <time>2017-04-29T05:21:04</time>
        <extensions><speed>1.19</speed></extensions>
      </trkpt>
      <trkpt lat="51.843563000" lon="7.625072000">
        <ele>71.3</ele>
        <time>2017-04-29T05:21:05</time>
        <extensions><speed>1.25</speed></extensions>
      </trkpt>
      <trkpt lat="51.843575000" lon="7.625082000">
        <ele>71.3</ele>
        <time>2017-04-29T05:21:06</time>
        <extensions><speed>1.25</speed></extensions>
      </trkpt>
      <trkpt lat="51.843586000" lon="7.625090000">
        <ele>71.3</ele>
        <time>2017-04-29T05:21:07</time>
        <extensions><speed>1.28</speed></extensions>
      </trkpt>
      <trkpt lat="51.843597000" lon="7.625099000">
        <ele>71.3</ele>
        <time>2017-04-29T05:21:08</time>
        <extensions><speed>1.36</speed></extensions>
      </trkpt>
      <trkpt lat="51.843609000" lon="7.625110000">
        <ele>71.3</ele>
        <time>2017-04-29T05:21:09</time>
        <extensions><speed>1.42</speed></extensions>
      </trkpt>
      <trkpt lat="51.843620000" lon="7.625125000">
        <ele>71.3</ele>
        <time>2017-04-29T05:21:10</time>
        <extensions><speed>1.46</speed></extensions>
      </trkpt>
      <trkpt lat="51.843632000" lon="7.625140000">
        <ele>71.3</ele>
        <time>2017-04-29T05:21:11</time>
        <extensions><speed>1.38</speed></extensions>
      </trkpt>
      <trkpt lat="51.843639000" lon="7.625152000">
        <ele>71.3</ele>
        <time>2017-04-29T05:21:12</time>
        <extensions><speed>1.38</speed></extensions>
      </trkpt>
      <trkpt lat="51.843647000" lon="7.625165000">
        <ele>71.3</ele>
        <time>2017-04-29T05:21:13</time>
        <extensions><speed>1.32</speed></extensions>
      </trkpt>
      <trkpt lat="51.843651000" lon="7.625178000">
        <ele>71.2</ele>
        <time>2017-04-29T05:21:14</time>
        <extensions><speed>1.19</speed></extensions>
      </trkpt>
      <trkpt lat="51.843658000" lon="7.625186000">
        <ele>71.2</ele>
        <time>2017-04-29T05:21:15</time>
        <extensions><speed>1.09</speed></extensions>
      </trkpt>
      <trkpt lat="51.843670000" lon="7.625193000">
        <ele>71.2</ele>
        <time>2017-04-29T05:21:16</time>
        <extensions><speed>1.09</speed></extensions>
      </trkpt>
      <trkpt lat="51.843681000" lon="7.625204000">
        <ele>71.2</ele>
        <time>2017-04-29T05:21:17</time>
        <extensions><speed>1.21</speed></extensions>
      </trkpt>
      <trkpt lat="51.843689000" lon="7.625210000">
        <ele>71.2</ele>
        <time>2017-04-29T05:21:18</time>
        <extensions><speed>1.21</speed></extensions>
      </trkpt>
      <trkpt lat="51.843704000" lon="7.625220000">
        <ele>71.2</ele>
        <time>2017-04-29T05:21:19</time>
        <extensions><speed>1.32</speed></extensions>
      </trkpt>
      <trkpt lat="51.843716000" lon="7.625228000">
        <ele>71.2</ele>
        <time>2017-04-29T05:21:20</time>
        <extensions><speed>1.32</speed></extensions>
      </trkpt>
      <trkpt lat="51.843719000" lon="7.625240000">
        <ele>71.2</ele>
        <time>2017-04-29T05:21:21</time>
        <extensions><speed>1.27</speed></extensions>
      </trkpt>
      <trkpt lat="51.843727000" lon="7.625255000">
        <ele>71.2</ele>
        <time>2017-04-29T05:21:22</time>
        <extensions><speed>1.17</speed></extensions>
      </trkpt>
      <trkpt lat="51.843731000" lon="7.625277000">
        <ele>71.2</ele>
        <time>2017-04-29T05:21:23</time>
        <extensions><speed>1.22</speed></extensions>
      </trkpt>
      <trkpt lat="51.843735000" lon="7.625288000">
        <ele>71.1</ele>
        <time>2017-04-29T05:21:24</time>
        <extensions><speed>1.09</speed></extensions>
      </trkpt>
      <trkpt lat="51.843746000" lon="7.625299000">
        <ele>71.1</ele>
        <time>2017-04-29T05:21:25</time>
        <extensions><speed>1.22</speed></extensions>
      </trkpt>
      <trkpt lat="51.843822000" lon="7.625432000">
        <ele>71.0</ele>
        <time>2017-04-29T05:22:34</time>
      </trkpt>
      <trkpt lat="51.843834000" lon="7.625438000">
        <ele>71.0</ele>
        <time>2017-04-29T05:22:36</time>
        <extensions><speed>1.16</speed></extensions>
      </trkpt>
      <trkpt lat="51.843842000" lon="7.625449000">
        <ele>71.0</ele>
        <time>2017-04-29T05:22:37</time>
        <extensions><speed>1.20</speed></extensions>
      </trkpt>
      <trkpt lat="51.843849000" lon="7.625453000">
        <ele>71.0</ele>
        <time>2017-04-29T05:22:38</time>
      </trkpt>
      <trkpt lat="51.843861000" lon="7.625460000">
        <ele>71.0</ele>
        <time>2017-04-29T05:22:40</time>
        <extensions><speed>1.19</speed></extensions>
      </trkpt>
      <trkpt lat="51.843876000" lon="7.625466000">
        <ele>71.0</ele>
        <time>2017-04-29T05:22:41</time>
        <extensions><speed>1.22</speed></extensions>
      </trkpt>
      <trkpt lat="51.843887000" lon="7.625477000">
        <ele>70.9</ele>
        <time>2017-04-29T05:22:42</time>
        <extensions><speed>1.18</speed></extensions>
      </trkpt>
      <trkpt lat="51.843899000" lon="7.625487000">
        <ele>70.9</ele>
        <time>2017-04-29T05:22:43</time>
        <extensions><speed>1.20</speed></extensions>
      </trkpt>
      <trkpt lat="51.843906000" lon="7.625494000">
        <ele>70.9</ele>
        <time>2017-04-29T05:22:44</time>
        <extensions><speed>1.13</speed></extensions>
      </trkpt>
      <trkpt lat="51.843914000" lon="7.625502000">
        <ele>70.9</ele>
        <time>2017-04-29T05:22:45</time>
        <extensions><speed>1.10</speed></extensions>
      </trkpt>
      <trkpt lat="51.843925000" lon="7.625512000">
        <ele>70.9</ele>
        <time>2017-04-29T05:22:46</time>
        <extensions><speed>1.09</speed></extensions>
      </trkpt>
      <trkpt lat="51.843937000" lon="7.625519000">
        <ele>70.9</ele>
        <time>2017-04-29T05:22:47</time>
        <extensions><speed>1.10</speed></extensions>
      </trkpt>
      <trkpt lat="51.843945000" lon="7.625528000">
        <ele>70.9</ele>
        <time>2017-04-29T05:22:48</time>
        <extensions><speed>1.04</speed></extensions>
      </trkpt>
      <trkpt lat="51.843948000" lon="7.625538000">
        <ele>70.8</ele>
        <time>2017-04-29T05:22:49</time>
        <extensions><speed>1.03</speed></extensions>
      </trkpt>
      <trkpt lat="51.843960000" lon="7.625545000">
        <ele>70.8</ele>
        <time>2017-04-29T05:22:50</time>
        <extensions><speed>1.05</speed></extensions>
      </trkpt>
      <trkpt lat="51.843971000" lon="7.625550000">
        <ele>70.8</ele>
        <time>2017-04-29T05:22:51</time>
        <extensions><speed>0.96</speed></extensions>
      </trkpt>
      <trkpt lat="51.843983000" lon="7.625554000">
        <ele>70.8</ele>
        <time>2017-04-29T05:22:52</time>
        <extensions><speed>0.96</speed></extensions>
      </trkpt>
      <trkpt lat="51.843998000" lon="7.625559000">
        <ele>70.8</ele>
        <time>2017-04-29T05:22:53</time>
        <extensions><speed>1.10</speed></extensions>
      </trkpt>
      <trkpt lat="51.844013000" lon="7.625570000">
        <ele>70.8</ele>
        <time>2017-04-29T05:22:54</time>
        <extensions><speed>1.25</speed></extensions>
      </trkpt>
      <trkpt lat="51.844017000" lon="7.625584000">
        <ele>70.8</ele>
        <time>2017-04-29T05:22:55</time>
        <extensions><speed>1.17</speed></extensions>
      </trkpt>
      <trkpt lat="51.844025000" lon="7.625597000">
        <ele>70.8</ele>
        <time>2017-04-29T05:22:56</time>
        <extensions><speed>1.27</speed></extensions>
      </trkpt>
      <trkpt lat="51.844032000" lon="7.625610000">
        <ele>70.7</ele>
        <time>2017-04-29T05:22:57</time>
        <extensions><speed>1.17</speed></extensions>
      </trkpt>
      <trkpt lat="51.844040000" lon="7.625622000">
        <ele>70.7</ele>
        <time>2017-04-29T05:22:58</time>
        <extensions><speed>1.04</speed></extensions>
      </trkpt>
      <trkpt lat="51.844051000" lon="7.625629000">
        <ele>70.7</ele>
        <time>2017-04-29T05:22:59</time>
        <extensions><speed>1.04</speed></extensions>
      </trkpt>
      <trkpt lat="51.844063000" lon="7.625645000">
        <ele>70.7</ele>
        <time>2017-04-29T05:23:00</time>
        <extensions><speed>1.16</speed></extensions>
      </trkpt>
      <trkpt lat="51.844070000" lon="7.625659000">
        <ele>70.7</ele>
        <time>2017-04-29T05:23:01</time>
        <extensions><speed>1.12</speed></extensions>
      </trkpt>
      <trkpt lat="51.844078000" lon="7.625665000">
        <ele>70.7</ele>
        <time>2017-04-29T05:23:02</time>
        <extensions><speed>1.13</speed></extensions>
      </trkpt>
      <trkpt lat="51.844090000" lon="7.625675000">
        <ele>70.6</ele>
        <time>2017-04-29T05:23:03</time>
        <extensions><speed>1.18</speed></extensions>
      </trkpt>
      <trkpt lat="51.844105000" lon="7.625683000">
        <ele>70.6</ele>
        <time>2017-04-29T05:23:04</time>
        <extensions><speed>1.22</speed></extensions>
      </trkpt>
      <trkpt lat="51.844116000" lon="7.625689000">
        <ele>70.6</ele>
        <time>2017-04-29T05:23:05</time>
        <extensions><speed>1.18</speed></extensions>
      </trkpt>
      <trkpt lat="51.844131000" lon="7.625695000">
        <ele>70.6</ele>
        <time>2017-04-29T05:23:06</time>
        <extensions><speed>1.18</speed></extensions>
      </trkpt>
      <trkpt lat="51.844143000" lon="7.625703000">
        <ele>70.6</ele>
        <time>2017-04-29T05:23:07</time>
        <extensions><speed>1.17</speed></extensions>
      </trkpt>
      <trkpt lat="51.844154000" lon="7.625711000">
        <ele>70.6</ele>
        <time>2017-04-29T05:23:08</time>
        <extensions><speed>1.15</speed></extensions>
      </trkpt>
      <trkpt lat="51.844166000" lon="7.625720000">
        <ele>70.6</ele>
        <time>2017-04-29T05:23:09</time>
        <extensions><speed>1.15</speed></extensions>
      </trkpt>
      <trkpt lat="51.844166000" lon="7.625729000">
        <ele>70.5</ele>
        <time>2017-04-29T05:23:11</time>
      </trkpt>
      <trkpt lat="51.844173000" lon="7.625735000">
        <ele>70.5</ele>
        <time>2017-04-29T05:23:13</time>
      </trkpt>
      <trkpt lat="51.844173000" lon="7.625738000">
        <ele>70.5</ele>
        <time>2017-04-29T05:23:15</time>
      </trkpt>
      <trkpt lat="51.844181000" lon="7.625743000">
        <ele>70.5</ele>
        <time>2017-04-29T05:23:17</time>
        <extensions><speed>0.50</speed></extensions>
      </trkpt>
      <trkpt lat="51.844196000" lon="7.625753000">
        <ele>70.5</ele>
        <time>2017-04-29T05:23:18</time>
        <extensions><speed>0.81</speed></extensions>
      </trkpt>
      <trkpt lat="51.844212000" lon="7.625760000">
        <ele>70.5</ele>
        <time>2017-04-29T05:23:19</time>
        <extensions><speed>0.94</speed></extensions>
      </trkpt>
      <trkpt lat="51.844227000" lon="7.625765000">
        <ele>70.5</ele>
        <time>2017-04-29T05:23:20</time>
        <extensions><speed>1.17</speed></extensions>
      </trkpt>
      <trkpt lat="51.844231000" lon="7.625769000">
        <ele>70.4</ele>
        <time>2017-04-29T05:23:21</time>
      </trkpt>
      <trkpt lat="51.844234000" lon="7.625780000">
        <ele>70.4</ele>
        <time>2017-04-29T05:23:23</time>
        <extensions><speed>0.84</speed></extensions>
      </trkpt>
      <trkpt lat="51.844238000" lon="7.625800000">
        <ele>70.4</ele>
        <time>2017-04-29T05:23:24</time>
        <extensions><speed>0.79</speed></extensions>
      </trkpt>
      <trkpt lat="51.844250000" lon="7.625813000">
        <ele>70.4</ele>
        <time>2017-04-29T05:23:25</time>
        <extensions><speed>0.52</speed></extensions>
      </trkpt>
      <trkpt lat="51.844257000" lon="7.625827000">
        <ele>70.4</ele>
        <time>2017-04-29T05:23:26</time>
        <extensions><speed>0.70</speed></extensions>
      </trkpt>
      <trkpt lat="51.844265000" lon="7.625840000">
        <ele>70.4</ele>
        <time>2017-04-29T05:23:27</time>
        <extensions><speed>0.86</speed></extensions>
      </trkpt>
      <trkpt lat="51.844273000" lon="7.625846000">
        <ele>70.4</ele>
        <time>2017-04-29T05:23:28</time>
        <extensions><speed>0.85</speed></extensions>
      </trkpt>
      <trkpt lat="51.844284000" lon="7.625848000">
        <ele>70.4</ele>
        <time>2017-04-29T05:23:29</time>
        <extensions><speed>0.83</speed></extensions>
      </trkpt>
      <trkpt lat="51.844299000" lon="7.625853000">
        <ele>70.3</ele>
        <time>2017-04-29T05:23:30</time>
        <extensions><speed>0.86</speed></extensions>
      </trkpt>
      <trkpt lat="51.844307000" lon="7.625860000">
        <ele>70.3</ele>
        <time>2017-04-29T05:23:31</time>
        <extensions><speed>0.90</speed></extensions>
      </trkpt>
      <trkpt lat="51.844315000" lon="7.625865000">
        <ele>70.3</ele>
        <time>2017-04-29T05:23:32</time>
        <extensions><speed>0.90</speed></extensions>
      </trkpt>
      <trkpt lat="51.844318000" lon="7.625870000">
        <ele>70.3</ele>
        <time>2017-04-29T05:23:33</time>
      </trkpt>
      <trkpt lat="51.844330000" lon="7.625876000">
        <ele>70.3</ele>
        <time>2017-04-29T05:23:35</time>
      </trkpt>
      <trkpt lat="51.844345000" lon="7.625886000">
        <ele>70.3</ele>
        <time>2017-04-29T05:23:37</time>
        <extensions><speed>0.67</speed></extensions>
      </trkpt>
      <trkpt lat="51.844368000" lon="7.625897000">
        <ele>70.2</ele>
        <time>2017-04-29T05:23:38</time>
        <extensions><speed>1.13</speed></extensions>
      </trkpt>
      <trkpt lat="51.844379000" lon="7.625902000">
        <ele>70.2</ele>
        <time>2017-04-29T05:23:39</time>
        <extensions><speed>1.22</speed></extensions>
      </trkpt>
      <trkpt lat="51.844387000" lon="7.625910000">
        <ele>70.2</ele>
        <time>2017-04-29T05:23:40</time>
        <extensions><speed>1.22</speed></extensions>
      </trkpt>
      <trkpt lat="51.844398000" lon="7.625918000">
        <ele>70.2</ele>
        <time>2017-04-29T05:23:41</time>
        <extensions><speed>1.05</speed></extensions>
      </trkpt>
      <trkpt lat="51.844402000" lon="7.625932000">
        <ele>70.2</ele>
        <time>2017-04-29T05:23:42</time>
        <extensions><speed>0.84</speed></extensions>
      </trkpt>
      <trkpt lat="51.844402000" lon="7.625943000">
        <ele>70.2</ele>
        <time>2017-04-29T05:23:43</time>
        <extensions><speed>0.75</speed></extensions>
      </trkpt>
      <trkpt lat="51.844410000" lon="7.625953000">
        <ele>70.1</ele>
        <time>2017-04-29T05:23:44</time>
        <extensions><speed>0.75</speed></extensions>
      </trkpt>
      <trkpt lat="51.844421000" lon="7.625963000">
        <ele>70.1</ele>
        <time>2017-04-29T05:23:45</time>
        <extensions><speed>0.73</speed></extensions>
      </trkpt>
      <trkpt lat="51.844433000" lon="7.625975000">
        <ele>70.1</ele>
        <time>2017-04-29T05:23:46</time>
        <extensions><speed>0.77</speed></extensions>
      </trkpt>
      <trkpt lat="51.844440000" lon="7.625988000">
        <ele>70.1</ele>
        <time>2017-04-29T05:23:47</time>
        <extensions><speed>0.85</speed></extensions>
      </trkpt>
      <trkpt lat="51.844448000" lon="7.626002000">
        <ele>70.0</ele>
        <time>2017-04-29T05:23:48</time>
        <extensions><speed>0.97</speed></extensions>
      </trkpt>
      <trkpt lat="51.844463000" lon="7.626013000">
        <ele>70.0</ele>
        <time>2017-04-29T05:23:49</time>
        <extensions><speed>1.05</speed></extensions>
      </trkpt>
      <trkpt lat="51.844467000" lon="7.626027000">
        <ele>70.0</ele>
        <time>2017-04-29T05:23:50</time>
        <extensions><speed>1.06</speed></extensions>
      </trkpt>
      <trkpt lat="51.844479000" lon="7.626035000">
        <ele>70.0</ele>
        <time>2017-04-29T05:23:51</time>
        <extensions><speed>1.08</speed></extensions>
      </trkpt>
      <trkpt lat="51.844494000" lon="7.626044000">
        <ele>69.9</ele>
        <time>2017-04-29T05:23:52</time>
        <extensions><speed>1.10</speed></extensions>
      </trkpt>
      <trkpt lat="51.844501000" lon="7.626051000">
        <ele>69.9</ele>
        <time>2017-04-29T05:23:53</time>
        <extensions><speed>1.02</speed></extensions>
      </trkpt>
      <trkpt lat="51.844509000" lon="7.626069000">
        <ele>69.9</ele>
        <time>2017-04-29T05:23:54</time>
        <extensions><speed>1.04</speed></extensions>
      </trkpt>
      <trkpt lat="51.844524000" lon="7.626079000">
        <ele>69.8</ele>
        <time>2017-04-29T05:23:55</time>
        <extensions><speed>1.12</speed></extensions>
      </trkpt>
      <trkpt lat="51.844536000" lon="7.626091000">
        <ele>69.8</ele>
        <time>2017-04-29T05:23:56</time>
        <extensions><speed>1.18</speed></extensions>
      </trkpt>
      <trkpt lat="51.844555000" lon="7.626100000">
        <ele>69.8</ele>
        <time>2017-04-29T05:23:57</time>
        <extensions><speed>1.23</speed></extensions>
      </trkpt>
      <trkpt lat="51.844566000" lon="7.626109000">
        <ele>69.7</ele>
        <time>2017-04-29T05:23:58</time>
        <extensions><speed>1.23</speed></extensions>
      </trkpt>
      <trkpt lat="51.844574000" lon="7.626120000">
        <ele>69.7</ele>
        <time>2017-04-29T05:23:59</time>
        <extensions><speed>1.26</speed></extensions>
      </trkpt>
      <trkpt lat="51.844585000" lon="7.626135000">
        <ele>69.6</ele>
        <time>2017-04-29T05:24:00</time>
        <extensions><speed>1.15</speed></extensions>
      </trkpt>
      <trkpt lat="51.844597000" lon="7.626147000">
        <ele>69.6</ele>
        <time>2017-04-29T05:24:01</time>
        <extensions><speed>1.20</speed></extensions>
      </trkpt>
      <trkpt lat="51.844608000" lon="7.626158000">
        <ele>69.5</ele>
        <time>2017-04-29T05:24:02</time>
        <extensions><speed>1.05</speed></extensions>
      </trkpt>
      <trkpt lat="51.844620000" lon="7.626172000">
        <ele>69.5</ele>
        <time>2017-04-29T05:24:03</time>
        <extensions><speed>1.12</speed></extensions>
      </trkpt>
      <trkpt lat="51.844631000" lon="7.626186000">
        <ele>69.4</ele>
        <time>2017-04-29T05:24:04</time>
        <extensions><speed>0.97</speed></extensions>
      </trkpt>
      <trkpt lat="51.844639000" lon="7.626198000">
        <ele>69.4</ele>
        <time>2017-04-29T05:24:05</time>
        <extensions><speed>0.99</speed></extensions>
      </trkpt>
      <trkpt lat="51.844646000" lon="7.626208000">
        <ele>69.3</ele>
        <time>2017-04-29T05:24:06</time>
        <extensions><speed>0.90</speed></extensions>
      </trkpt>
      <trkpt lat="51.844654000" lon="7.626221000">
        <ele>69.3</ele>
        <time>2017-04-29T05:24:07</time>
        <extensions><speed>0.92</speed></extensions>
      </trkpt>
      <trkpt lat="51.844662000" lon="7.626232000">
        <ele>69.2</ele>
        <time>2017-04-29T05:24:08</time>
        <extensions><speed>0.92</speed></extensions>
      </trkpt>
      <trkpt lat="51.844669000" lon="7.626240000">
        <ele>69.2</ele>
        <time>2017-04-29T05:24:09</time>
        <extensions><speed>0.98</speed></extensions>
      </trkpt>
      <trkpt lat="51.844681000" lon="7.626256000">
        <ele>69.1</ele>
        <time>2017-04-29T05:24:10</time>
        <extensions><speed>0.98</speed></extensions>
      </trkpt>
      <trkpt lat="51.844688000" lon="7.626272000">
        <ele>69.1</ele>
        <time>2017-04-29T05:24:11</time>
        <extensions><speed>1.04</speed></extensions>
      </trkpt>
      <trkpt lat="51.844700000" lon="7.626284000">
        <ele>69.1</ele>
        <time>2017-04-29T05:24:12</time>
        <extensions><speed>1.07</speed></extensions>
      </trkpt>
      <trkpt lat="51.844715000" lon="7.626290000">
        <ele>69.0</ele>
        <time>2017-04-29T05:24:13</time>
        <extensions><speed>1.08</speed></extensions>
      </trkpt>
      <trkpt lat="51.844727000" lon="7.626297000">
        <ele>69.0</ele>
        <time>2017-04-29T05:24:14</time>
        <extensions><speed>1.08</speed></extensions>
      </trkpt>
      <trkpt lat="51.844734000" lon="7.626305000">
        <ele>68.9</ele>
        <time>2017-04-29T05:24:15</time>
        <extensions><speed>1.01</speed></extensions>
      </trkpt>
      <trkpt lat="51.844749000" lon="7.626314000">
        <ele>68.9</ele>
        <time>2017-04-29T05:24:16</time>
        <extensions><speed>1.04</speed></extensions>
      </trkpt>
      <trkpt lat="51.844761000" lon="7.626320000">
        <ele>68.8</ele>
        <time>2017-04-29T05:24:17</time>
        <extensions><speed>1.04</speed></extensions>
      </trkpt>
      <trkpt lat="51.844776000" lon="7.626326000">
        <ele>68.8</ele>
        <time>2017-04-29T05:24:18</time>
        <extensions><speed>0.94</speed></extensions>
      </trkpt>
      <trkpt lat="51.844791000" lon="7.626330000">
        <ele>68.7</ele>
        <time>2017-04-29T05:24:19</time>
        <extensions><speed>1.08</speed></extensions>
      </trkpt>
      <trkpt lat="51.844803000" lon="7.626340000">
        <ele>68.7</ele>
        <time>2017-04-29T05:24:20</time>
        <extensions><speed>1.20</speed></extensions>
      </trkpt>
      <trkpt lat="51.844814000" lon="7.626350000">
        <ele>68.6</ele>
        <time>2017-04-29T05:24:21</time>
        <extensions><speed>1.22</speed></extensions>
      </trkpt>
      <trkpt lat="51.844822000" lon="7.626361000">
        <ele>68.6</ele>
        <time>2017-04-29T05:24:22</time>
        <extensions><speed>1.08</speed></extensions>
      </trkpt>
      <trkpt lat="51.844826000" lon="7.626365000">
        <ele>68.5</ele>
        <time>2017-04-29T05:24:23</time>
        <extensions><speed>1.08</speed></extensions>
      </trkpt>
      <trkpt lat="51.844833000" lon="7.626367000">
        <ele>68.5</ele>
        <time>2017-04-29T05:24:24</time>
        <extensions><speed>0.99</speed></extensions>
      </trkpt>
      <trkpt lat="51.844849000" lon="7.626373000">
        <ele>68.4</ele>
        <time>2017-04-29T05:24:25</time>
        <extensions><speed>0.99</speed></extensions>
      </trkpt>
      <trkpt lat="51.844860000" lon="7.626379000">
        <ele>68.4</ele>
        <time>2017-04-29T05:24:26</time>
        <extensions><speed>1.01</speed></extensions>
      </trkpt>
      <trkpt lat="51.844875000" lon="7.626383000">
        <ele>68.4</ele>
        <time>2017-04-29T05:24:27</time>
        <extensions><speed>1.05</speed></extensions>
      </trkpt>
      <trkpt lat="51.844887000" lon="7.626389000">
        <ele>68.3</ele>
        <time>2017-04-29T05:24:28</time>
        <extensions><speed>1.07</speed></extensions>
      </trkpt>
      <trkpt lat="51.844894000" lon="7.626394000">
        <ele>68.3</ele>
        <time>2017-04-29T05:24:29</time>
        <extensions><speed>1.07</speed></extensions>
      </trkpt>
      <trkpt lat="51.844906000" lon="7.626403000">
        <ele>68.2</ele>
        <time>2017-04-29T05:24:30</time>
        <extensions><speed>1.07</speed></extensions>
      </trkpt>
      <trkpt lat="51.844921000" lon="7.626415000">
        <ele>68.2</ele>
        <time>2017-04-29T05:24:31</time>
        <extensions><speed>1.02</speed></extensions>
      </trkpt>
      <trkpt lat="51.844929000" lon="7.626429000">
        <ele>68.2</ele>
        <time>2017-04-29T05:24:32</time>
        <extensions><speed>1.12</speed></extensions>
      </trkpt>
      <trkpt lat="51.844940000" lon="7.626441000">
        <ele>68.1</ele>
        <time>2017-04-29T05:24:33</time>
        <extensions><speed>1.15</speed></extensions>
      </trkpt>
      <trkpt lat="51.844948000" lon="7.626455000">
        <ele>68.1</ele>
        <time>2017-04-29T05:24:34</time>
        <extensions><speed>1.15</speed></extensions>
      </trkpt>
      <trkpt lat="51.844955000" lon="7.626462000">
        <ele>68.0</ele>
        <time>2017-04-29T05:24:35</time>
      </trkpt>
      <trkpt lat="51.844967000" lon="7.626468000">
        <ele>67.9</ele>
        <time>2017-04-29T05:24:37</time>
        <extensions><speed>0.96</speed></extensions>
      </trkpt>
      <trkpt lat="51.844982000" lon="7.626472000">
        <ele>67.9</ele>
        <time>2017-04-29T05:24:38</time>
        <extensions><speed>0.84</speed></extensions>
      </trkpt>
      <trkpt lat="51.844990000" lon="7.626482000">
        <ele>67.9</ele>
        <time>2017-04-29T05:24:39</time>
        <extensions><speed>0.82</speed></extensions>
      </trkpt>
      <trkpt lat="51.844994000" lon="7.626492000">
        <ele>67.8</ele>
        <time>2017-04-29T05:24:40</time>
        <extensions><speed>0.90</speed></extensions>
      </trkpt>
      <trkpt lat="51.845001000" lon="7.626501000">
        <ele>67.8</ele>
        <time>2017-04-29T05:24:41</time>
        <extensions><speed>0.82</speed></extensions>
      </trkpt>
      <trkpt lat="51.845013000" lon="7.626506000">
        <ele>67.7</ele>
        <time>2017-04-29T05:24:42</time>
        <extensions><speed>0.87</speed></extensions>
      </trkpt>
      <trkpt lat="51.845024000" lon="7.626515000">
        <ele>67.7</ele>
        <time>2017-04-29T05:24:43</time>
        <extensions><speed>0.95</speed></extensions>
      </trkpt>
      <trkpt lat="51.845039000" lon="7.626522000">
        <ele>67.7</ele>
        <time>2017-04-29T05:24:44</time>
        <extensions><speed>0.97</speed></extensions>
      </trkpt>
      <trkpt lat="51.845051000" lon="7.626529000">
        <ele>67.6</ele>
        <time>2017-04-29T05:24:45</time>
        <extensions><speed>0.97</speed></extensions>
      </trkpt>
      <trkpt lat="51.845058000" lon="7.626538000">
        <ele>67.6</ele>
        <time>2017-04-29T05:24:46</time>
        <extensions><speed>0.97</speed></extensions>
      </trkpt>
      <trkpt lat="51.845066000" lon="7.626546000">
        <ele>67.6</ele>
        <time>2017-04-29T05:24:47</time>
        <extensions><speed>0.98</speed></extensions>
      </trkpt>
      <trkpt lat="51.845070000" lon="7.626555000">
        <ele>67.5</ele>
        <time>2017-04-29T05:24:48</time>
        <extensions><speed>0.92</speed></extensions>
      </trkpt>
      <trkpt lat="51.845078000" lon="7.626564000">
        <ele>67.5</ele>
        <time>2017-04-29T05:24:49</time>
        <extensions><speed>0.96</speed></extensions>
      </trkpt>
      <trkpt lat="51.845089000" lon="7.626575000">
        <ele>67.4</ele>
        <time>2017-04-29T05:24:50</time>
        <extensions><speed>0.83</speed></extensions>
      </trkpt>
      <trkpt lat="51.845097000" lon="7.626583000">
        <ele>67.4</ele>
        <time>2017-04-29T05:24:51</time>
        <extensions><speed>0.81</speed></extensions>
      </trkpt>
      <trkpt lat="51.845108000" lon="7.626594000">
        <ele>67.4</ele>
        <time>2017-04-29T05:24:52</time>
        <extensions><speed>0.82</speed></extensions>
      </trkpt>
      <trkpt lat="51.845119000" lon="7.626605000">
        <ele>67.3</ele>
        <time>2017-04-29T05:24:53</time>
        <extensions><speed>0.98</speed></extensions>
      </trkpt>
      <trkpt lat="51.845123000" lon="7.626611000">
        <ele>67.3</ele>
        <time>2017-04-29T05:24:54</time>
        <extensions><speed>0.82</speed></extensions>
      </trkpt>
      <trkpt lat="51.845139000" lon="7.626616000">
        <ele>67.3</ele>
        <time>2017-04-29T05:24:55</time>
        <extensions><speed>1.01</speed></extensions>
      </trkpt>
      <trkpt lat="51.845150000" lon="7.626627000">
        <ele>67.2</ele>
        <time>2017-04-29T05:24:56</time>
        <extensions><speed>1.01</speed></extensions>
      </trkpt>
      <trkpt lat="51.845158000" lon="7.626632000">
        <ele>67.2</ele>
        <time>2017-04-29T05:24:57</time>
        <extensions><speed>0.88</speed></extensions>
      </trkpt>
      <trkpt lat="51.845173000" lon="7.626630000">
        <ele>67.2</ele>
        <time>2017-04-29T05:24:58</time>
        <extensions><speed>0.81</speed></extensions>
      </trkpt>
      <trkpt lat="51.845184000" lon="7.626628000">
        <ele>67.1</ele>
        <time>2017-04-29T05:24:59</time>
        <extensions><speed>0.87</speed></extensions>
      </trkpt>
      <trkpt lat="51.845200000" lon="7.626628000">
        <ele>67.1</ele>
        <time>2017-04-29T05:25:00</time>
        <extensions><speed>0.87</speed></extensions>
      </trkpt>
      <trkpt lat="51.845211000" lon="7.626627000">
        <ele>67.1</ele>
        <time>2017-04-29T05:25:01</time>
        <extensions><speed>0.83</speed></extensions>
      </trkpt>
      <trkpt lat="51.845215000" lon="7.626636000">
        <ele>67.0</ele>
        <time>2017-04-29T05:25:02</time>
        <extensions><speed>0.82</speed></extensions>
      </trkpt>
      <trkpt lat="51.845222000" lon="7.626652000">
        <ele>67.0</ele>
        <time>2017-04-29T05:25:03</time>
        <extensions><speed>0.86</speed></extensions>
      </trkpt>
      <trkpt lat="51.845230000" lon="7.626665000">
        <ele>67.0</ele>
        <time>2017-04-29T05:25:04</time>
        <extensions><speed>0.78</speed></extensions>
      </trkpt>
      <trkpt lat="51.845234000" lon="7.626674000">
        <ele>67.0</ele>
        <time>2017-04-29T05:25:05</time>
        <extensions><speed>0.67</speed></extensions>
      </trkpt>
      <trkpt lat="51.845245000" lon="7.626681000">
        <ele>67.0</ele>
        <time>2017-04-29T05:25:06</time>
        <extensions><speed>0.74</speed></extensions>
      </trkpt>
      <trkpt lat="51.845253000" lon="7.626692000">
        <ele>66.9</ele>
        <time>2017-04-29T05:25:07</time>
        <extensions><speed>0.87</speed></extensions>
      </trkpt>
      <trkpt lat="51.845264000" lon="7.626702000">
        <ele>66.9</ele>
        <time>2017-04-29T05:25:08</time>
        <extensions><speed>0.84</speed></extensions>
      </trkpt>
      <trkpt lat="51.845272000" lon="7.626717000">
        <ele>66.9</ele>
        <time>2017-04-29T05:25:09</time>
        <extensions><speed>0.84</speed></extensions>
      </trkpt>
      <trkpt lat="51.845276000" lon="7.626732000">
        <ele>66.9</ele>
        <time>2017-04-29T05:25:10</time>
        <extensions><speed>0.91</speed></extensions>
      </trkpt>
      <trkpt lat="51.845280000" lon="7.626750000">
        <ele>66.9</ele>
        <time>2017-04-29T05:25:11</time>
        <extensions><speed>0.93</speed></extensions>
      </trkpt>
      <trkpt lat="51.845284000" lon="7.626765000">
        <ele>66.9</ele>
        <time>2017-04-29T05:25:12</time>
        <extensions><speed>0.89</speed></extensions>
      </trkpt>
      <trkpt lat="51.845287000" lon="7.626780000">
        <ele>66.9</ele>
        <time>2017-04-29T05:25:13</time>
        <extensions><speed>0.89</speed></extensions>
      </trkpt>
      <trkpt lat="51.845295000" lon="7.626795000">
        <ele>66.9</ele>
        <time>2017-04-29T05:25:14</time>
        <extensions><speed>0.91</speed></extensions>
      </trkpt>
      <trkpt lat="51.845310000" lon="7.626807000">
        <ele>66.9</ele>
        <time>2017-04-29T05:25:15</time>
        <extensions><speed>0.95</speed></extensions>
      </trkpt>
      <trkpt lat="51.845322000" lon="7.626816000">
        <ele>66.9</ele>
        <time>2017-04-29T05:25:16</time>
        <extensions><speed>1.05</speed></extensions>
      </trkpt>
      <trkpt lat="51.845333000" lon="7.626832000">
        <ele>66.8</ele>
        <time>2017-04-29T05:25:17</time>
        <extensions><speed>1.12</speed></extensions>
      </trkpt>
      <trkpt lat="51.845337000" lon="7.626843000">
        <ele>66.8</ele>
        <time>2017-04-29T05:25:18</time>
        <extensions><speed>1.06</speed></extensions>
      </trkpt>
      <trkpt lat="51.845345000" lon="7.626852000">
        <ele>66.8</ele>
        <time>2017-04-29T05:25:19</time>
        <extensions><speed>0.98</speed></extensions>
      </trkpt>
      <trkpt lat="51.845356000" lon="7.626858000">
        <ele>66.8</ele>
        <time>2017-04-29T05:25:20</time>
        <extensions><speed>0.89</speed></extensions>
      </trkpt>
      <trkpt lat="51.845367000" lon="7.626868000">
        <ele>66.8</ele>
        <time>2017-04-29T05:25:21</time>
        <extensions><speed>0.77</speed></extensions>
      </trkpt>
      <trkpt lat="51.845375000" lon="7.626883000">
        <ele>66.8</ele>
        <time>2017-04-29T05:25:22</time>
        <extensions><speed>0.76</speed></extensions>
      </trkpt>
      <trkpt lat="51.845387000" lon="7.626890000">
        <ele>66.8</ele>
        <time>2017-04-29T05:25:23</time>
        <extensions><speed>0.85</speed></extensions>
      </trkpt>
      <trkpt lat="51.845390000" lon="7.626895000">
        <ele>66.7</ele>
        <time>2017-04-29T05:25:24</time>
      </trkpt>
      <trkpt lat="51.845402000" lon="7.626904000">
        <ele>66.7</ele>
        <time>2017-04-29T05:25:26</time>
        <extensions><speed>0.81</speed></extensions>
      </trkpt>
      <trkpt lat="51.845413000" lon="7.626908000">
        <ele>66.7</ele>
        <time>2017-04-29T05:25:27</time>
        <extensions><speed>0.86</speed></extensions>
      </trkpt>
      <trkpt lat="51.845432000" lon="7.626915000">
        <ele>66.7</ele>
        <time>2017-04-29T05:25:28</time>
        <extensions><speed>0.83</speed></extensions>
      </trkpt>
      <trkpt lat="51.845448000" lon="7.626925000">
        <ele>66.7</ele>
        <time>2017-04-29T05:25:29</time>
        <extensions><speed>0.96</speed></extensions>
      </trkpt>
      <trkpt lat="51.845455000" lon="7.626932000">
        <ele>66.7</ele>
        <time>2017-04-29T05:25:30</time>
        <extensions><speed>1.01</speed></extensions>
      </trkpt>
      <trkpt lat="51.845467000" lon="7.626938000">
        <ele>66.7</ele>
        <time>2017-04-29T05:25:31</time>
        <extensions><speed>1.01</speed></extensions>
      </trkpt>
      <trkpt lat="51.845474000" lon="7.626952000">
        <ele>66.6</ele>
        <time>2017-04-29T05:25:32</time>
        <extensions><speed>0.95</speed></extensions>
      </trkpt>
      <trkpt lat="51.845482000" lon="7.626965000">
        <ele>66.6</ele>
        <time>2017-04-29T05:25:33</time>
        <extensions><speed>0.93</speed></extensions>
      </trkpt>
      <trkpt lat="51.845490000" lon="7.626977000">
        <ele>66.6</ele>
        <time>2017-04-29T05:25:34</time>
        <extensions><speed>0.87</speed></extensions>
      </trkpt>
      <trkpt lat="51.845505000" lon="7.626984000">
        <ele>66.6</ele>
        <time>2017-04-29T05:25:35</time>
        <extensions><speed>0.87</speed></extensions>
      </trkpt>
      <trkpt lat="51.845512000" lon="7.626993000">
        <ele>66.6</ele>
        <time>2017-04-29T05:25:36</time>
        <extensions><speed>0.90</speed></extensions>
      </trkpt>
      <trkpt lat="51.845524000" lon="7.627008000">
        <ele>66.6</ele>
        <time>2017-04-29T05:25:37</time>
        <extensions><speed>0.92</speed></extensions>
      </trkpt>
      <trkpt lat="51.845531000" lon="7.627012000">
        <ele>66.5</ele>
        <time>2017-04-29T05:25:38</time>
      </trkpt>
      <trkpt lat="51.845543000" lon="7.627015000">
        <ele>66.5</ele>
        <time>2017-04-29T05:25:40</time>
        <extensions><speed>0.84</speed></extensions>
      </trkpt>
      <trkpt lat="51.845551000" lon="7.627027000">
        <ele>66.5</ele>
        <time>2017-04-29T05:25:41</time>
        <extensions><speed>0.83</speed></extensions>
      </trkpt>
      <trkpt lat="51.845558000" lon="7.627035000">
        <ele>66.5</ele>
        <time>2017-04-29T05:25:42</time>
        <extensions><speed>0.91</speed></extensions>
      </trkpt>
      <trkpt lat="51.845573000" lon="7.627043000">
        <ele>66.5</ele>
        <time>2017-04-29T05:25:43</time>
        <extensions><speed>0.99</speed></extensions>
      </trkpt>
      <trkpt lat="51.845581000" lon="7.627055000">
        <ele>66.5</ele>
        <time>2017-04-29T05:25:44</time>
        <extensions><speed>1.07</speed></extensions>
      </trkpt>
      <trkpt lat="51.845592000" lon="7.627067000">
        <ele>66.5</ele>
        <time>2017-04-29T05:25:45</time>
        <extensions><speed>1.05</speed></extensions>
      </trkpt>
      <trkpt lat="51.845604000" lon="7.627071000">
        <ele>66.5</ele>
        <time>2017-04-29T05:25:46</time>
        <extensions><speed>1.10</speed></extensions>
      </trkpt>
      <trkpt lat="51.845615000" lon="7.627079000">
        <ele>66.4</ele>
        <time>2017-04-29T05:25:47</time>
        <extensions><speed>1.03</speed></extensions>
      </trkpt>
      <trkpt lat="51.845627000" lon="7.627087000">
        <ele>66.4</ele>
        <time>2017-04-29T05:25:48</time>
        <extensions><speed>1.10</speed></extensions>
      </trkpt>
      <trkpt lat="51.845638000" lon="7.627090000">
        <ele>66.4</ele>
        <time>2017-04-29T05:25:49</time>
        <extensions><speed>1.03</speed></extensions>
      </trkpt>
      <trkpt lat="51.845642000" lon="7.627095000">
        <ele>66.4</ele>
        <time>2017-04-29T05:25:50</time>
        <extensions><speed>1.09</speed></extensions>
      </trkpt>
      <trkpt lat="51.845650000" lon="7.627107000">
        <ele>66.4</ele>
        <time>2017-04-29T05:25:51</time>
        <extensions><speed>0.95</speed></extensions>
      </trkpt>
      <trkpt lat="51.845661000" lon="7.627119000">
        <ele>66.4</ele>
        <time>2017-04-29T05:25:52</time>
        <extensions><speed>1.06</speed></extensions>
      </trkpt>
      <trkpt lat="51.845673000" lon="7.627130000">
        <ele>66.3</ele>
        <time>2017-04-29T05:25:53</time>
        <extensions><speed>0.97</speed></extensions>
      </trkpt>
      <trkpt lat="51.845680000" lon="7.627135000">
        <ele>66.3</ele>
        <time>2017-04-29T05:25:54</time>
        <extensions><speed>1.04</speed></extensions>
      </trkpt>
      <trkpt lat="51.845688000" lon="7.627141000">
        <ele>66.3</ele>
        <time>2017-04-29T05:25:55</time>
        <extensions><speed>0.89</speed></extensions>
      </trkpt>
      <trkpt lat="51.845699000" lon="7.627152000">
        <ele>66.3</ele>
        <time>2017-04-29T05:25:56</time>
        <extensions><speed>0.95</speed></extensions>
      </trkpt>
      <trkpt lat="51.845711000" lon="7.627161000">
        <ele>66.3</ele>
        <time>2017-04-29T05:25:57</time>
        <extensions><speed>0.95</speed></extensions>
      </trkpt>
      <trkpt lat="51.845722000" lon="7.627170000">
        <ele>66.3</ele>
        <time>2017-04-29T05:25:58</time>
        <extensions><speed>0.89</speed></extensions>
      </trkpt>
      <trkpt lat="51.845730000" lon="7.627172000">
        <ele>66.3</ele>
        <time>2017-04-29T05:25:59</time>
        <extensions><speed>0.86</speed></extensions>
      </trkpt>
      <trkpt lat="51.845741000" lon="7.627166000">
        <ele>66.2</ele>
        <time>2017-04-29T05:26:00</time>
        <extensions><speed>1.03</speed></extensions>
      </trkpt>
      <trkpt lat="51.845745000" lon="7.627166000">
        <ele>66.2</ele>
        <time>2017-04-29T05:26:01</time>
      </trkpt>
      <trkpt lat="51.845760000" lon="7.627170000">
        <ele>66.2</ele>
        <time>2017-04-29T05:26:03</time>
        <extensions><speed>0.67</speed></extensions>
      </trkpt>
      <trkpt lat="51.845772000" lon="7.627177000">
        <ele>66.2</ele>
        <time>2017-04-29T05:26:04</time>
        <extensions><speed>0.83</speed></extensions>
      </trkpt>
      <trkpt lat="51.845783000" lon="7.627185000">
        <ele>66.2</ele>
        <time>2017-04-29T05:26:05</time>
        <extensions><speed>0.83</speed></extensions>
      </trkpt>
      <trkpt lat="51.845798000" lon="7.627190000">
        <ele>66.2</ele>
        <time>2017-04-29T05:26:06</time>
        <extensions><speed>1.10</speed></extensions>
      </trkpt>
      <trkpt lat="51.845810000" lon="7.627195000">
        <ele>66.2</ele>
        <time>2017-04-29T05:26:07</time>
        <extensions><speed>1.17</speed></extensions>
      </trkpt>
      <trkpt lat="51.845825000" lon="7.627202000">
        <ele>66.1</ele>
        <time>2017-04-29T05:26:08</time>
        <extensions><speed>1.22</speed></extensions>
      </trkpt>
      <trkpt lat="51.845837000" lon="7.627212000">
        <ele>66.1</ele>
        <time>2017-04-29T05:26:09</time>
        <extensions><speed>1.22</speed></extensions>
      </trkpt>
      <trkpt lat="51.845840000" lon="7.627222000">
        <ele>66.1</ele>
        <time>2017-04-29T05:26:10</time>
        <extensions><speed>1.13</speed></extensions>
      </trkpt>
      <trkpt lat="51.845852000" lon="7.627229000">
        <ele>66.1</ele>
        <time>2017-04-29T05:26:11</time>
        <extensions><speed>1.04</speed></extensions>
      </trkpt>
      <trkpt lat="51.845856000" lon="7.627234000">
        <ele>66.1</ele>
        <time>2017-04-29T05:26:12</time>
      </trkpt>
      <trkpt lat="51.845860000" lon="7.627245000">
        <ele>66.0</ele>
        <time>2017-04-29T05:26:14</time>
      </trkpt>
      <trkpt lat="51.845863000" lon="7.627257000">
        <ele>66.0</ele>
        <time>2017-04-29T05:26:16</time>
        <extensions><speed>0.29</speed></extensions>
      </trkpt>
      <trkpt lat="51.845871000" lon="7.627265000">
        <ele>66.0</ele>
        <time>2017-04-29T05:26:17</time>
        <extensions><speed>0.59</speed></extensions>
      </trkpt>
      <trkpt lat="51.845882000" lon="7.627278000">
        <ele>66.0</ele>
        <time>2017-04-29T05:26:18</time>
        <extensions><speed>0.61</speed></extensions>
      </trkpt>
      <trkpt lat="51.845890000" lon="7.627288000">
        <ele>66.0</ele>
        <time>2017-04-29T05:26:19</time>
        <extensions><speed>0.83</speed></extensions>
      </trkpt>
      <trkpt lat="51.845901000" lon="7.627292000">
        <ele>66.0</ele>
        <time>2017-04-29T05:26:20</time>
        <extensions><speed>1.01</speed></extensions>
      </trkpt>
      <trkpt lat="51.845909000" lon="7.627295000">
        <ele>66.0</ele>
        <time>2017-04-29T05:26:21</time>
        <extensions><speed>1.01</speed></extensions>
      </trkpt>
      <trkpt lat="51.845924000" lon="7.627300000">
        <ele>66.0</ele>
        <time>2017-04-29T05:26:22</time>
        <extensions><speed>1.06</speed></extensions>
      </trkpt>
      <trkpt lat="51.845936000" lon="7.627308000">
        <ele>66.0</ele>
        <time>2017-04-29T05:26:23</time>
        <extensions><speed>1.14</speed></extensions>
      </trkpt>
      <trkpt lat="51.845947000" lon="7.627316000">
        <ele>66.0</ele>
        <time>2017-04-29T05:26:24</time>
        <extensions><speed>1.11</speed></extensions>
      </trkpt>
      <trkpt lat="51.845959000" lon="7.627316000">
        <ele>66.1</ele>
        <time>2017-04-29T05:26:25</time>
        <extensions><speed>1.09</speed></extensions>
      </trkpt>
      <trkpt lat="51.845966000" lon="7.627313000">
        <ele>66.1</ele>
        <time>2017-04-29T05:26:26</time>
        <extensions><speed>1.09</speed></extensions>
      </trkpt>
      <trkpt lat="51.845978000" lon="7.627316000">
        <ele>66.1</ele>
        <time>2017-04-29T05:26:27</time>
        <extensions><speed>1.06</speed></extensions>
      </trkpt>
      <trkpt lat="51.845993000" lon="7.627327000">
        <ele>66.1</ele>
        <time>2017-04-29T05:26:28</time>
        <extensions><speed>0.99</speed></extensions>
      </trkpt>
      <trkpt lat="51.846004000" lon="7.627332000">
        <ele>66.1</ele>
        <time>2017-04-29T05:26:29</time>
        <extensions><speed>0.98</speed></extensions>
      </trkpt>
      <trkpt lat="51.846020000" lon="7.627330000">
        <ele>66.2</ele>
        <time>2017-04-29T05:26:30</time>
        <extensions><speed>0.98</speed></extensions>
      </trkpt>
      <trkpt lat="51.846031000" lon="7.627328000">
        <ele>66.2</ele>
        <time>2017-04-29T05:26:31</time>
        <extensions><speed>0.98</speed></extensions>
      </trkpt>
      <trkpt lat="51.846066000" lon="7.627520000">
        <ele>66.3</ele>
        <time>2017-04-29T05:27:43</time>
      </trkpt>
      <trkpt lat="51.846069000" lon="7.627542000">
        <ele>66.3</ele>
        <time>2017-04-29T05:27:45</time>
        <extensions><speed>1.40</speed></extensions>
      </trkpt>
      <trkpt lat="51.846073000" lon="7.627563000">
        <ele>66.4</ele>
        <time>2017-04-29T05:27:46</time>
        <extensions><speed>1.35</speed></extensions>
      </trkpt>
      <trkpt lat="51.846081000" lon="7.627585000">
        <ele>66.4</ele>
        <time>2017-04-29T05:27:47</time>
        <extensions><speed>1.33</speed></extensions>
      </trkpt>
      <trkpt lat="51.846085000" lon="7.627605000">
        <ele>66.4</ele>
        <time>2017-04-29T05:27:48</time>
        <extensions><speed>1.37</speed></extensions>
      </trkpt>
      <trkpt lat="51.846092000" lon="7.627623000">
        <ele>66.4</ele>
        <time>2017-04-29T05:27:49</time>
        <extensions><speed>1.39</speed></extensions>
      </trkpt>
      <trkpt lat="51.846096000" lon="7.627645000">
        <ele>66.4</ele>
        <time>2017-04-29T05:27:50</time>
        <extensions><speed>1.35</speed></extensions>
      </trkpt>
      <trkpt lat="51.846104000" lon="7.627666000">
        <ele>66.5</ele>
        <time>2017-04-29T05:27:51</time>
        <extensions><speed>1.37</speed></extensions>
      </trkpt>
      <trkpt lat="51.846111000" lon="7.627688000">
        <ele>66.5</ele>
        <time>2017-04-29T05:27:52</time>
        <extensions><speed>1.36</speed></extensions>
      </trkpt>
      <trkpt lat="51.846115000" lon="7.627712000">
        <ele>66.5</ele>
        <time>2017-04-29T05:27:53</time>
        <extensions><speed>1.36</speed></extensions>
      </trkpt>
      <trkpt lat="51.846123000" lon="7.627730000">
        <ele>66.5</ele>
        <time>2017-04-29T05:27:54</time>
        <extensions><speed>1.38</speed></extensions>
      </trkpt>
      <trkpt lat="51.846127000" lon="7.627745000">
        <ele>66.5</ele>
        <time>2017-04-29T05:27:55</time>
        <extensions><speed>1.40</speed></extensions>
      </trkpt>
      <trkpt lat="51.846130000" lon="7.627763000">
        <ele>66.6</ele>
        <time>2017-04-29T05:27:56</time>
        <extensions><speed>1.36</speed></extensions>
      </trkpt>
      <trkpt lat="51.846134000" lon="7.627785000">
        <ele>66.6</ele>
        <time>2017-04-29T05:27:57</time>
        <extensions><speed>1.36</speed></extensions>
      </trkpt>
      <trkpt lat="51.846134000" lon="7.627801000">
        <ele>66.6</ele>
        <time>2017-04-29T05:27:58</time>
        <extensions><speed>1.33</speed></extensions>
      </trkpt>
      <trkpt lat="51.846142000" lon="7.627817000">
        <ele>66.6</ele>
        <time>2017-04-29T05:27:59</time>
        <extensions><speed>1.31</speed></extensions>
      </trkpt>
      <trkpt lat="51.846146000" lon="7.627831000">
        <ele>66.7</ele>
        <time>2017-04-29T05:28:00</time>
        <extensions><speed>1.31</speed></extensions>
      </trkpt>
      <trkpt lat="51.846153000" lon="7.627854000">
        <ele>66.7</ele>
        <time>2017-04-29T05:28:01</time>
        <extensions><speed>1.35</speed></extensions>
      </trkpt>
      <trkpt lat="51.846161000" lon="7.627875000">
        <ele>66.7</ele>
        <time>2017-04-29T05:28:02</time>
        <extensions><speed>1.39</speed></extensions>
      </trkpt>
      <trkpt lat="51.846165000" lon="7.627900000">
        <ele>66.7</ele>
        <time>2017-04-29T05:28:03</time>
        <extensions><speed>1.42</speed></extensions>
      </trkpt>
      <trkpt lat="51.846165000" lon="7.627920000">
        <ele>66.7</ele>
        <time>2017-04-29T05:28:04</time>
        <extensions><speed>1.44</speed></extensions>
      </trkpt>
      <trkpt lat="51.846172000" lon="7.627938000">
        <ele>66.8</ele>
        <time>2017-04-29T05:28:05</time>
        <extensions><speed>1.46</speed></extensions>
      </trkpt>
      <trkpt lat="51.846180000" lon="7.627954000">
        <ele>66.8</ele>
        <time>2017-04-29T05:28:06</time>
        <extensions><speed>1.45</speed></extensions>
      </trkpt>
      <trkpt lat="51.846184000" lon="7.627972000">
        <ele>66.8</ele>
        <time>2017-04-29T05:28:07</time>
        <extensions><speed>1.44</speed></extensions>
      </trkpt>
      <trkpt lat="51.846184000" lon="7.627992000">
        <ele>66.8</ele>
        <time>2017-04-29T05:28:08</time>
        <extensions><speed>1.41</speed></extensions>
      </trkpt>
      <trkpt lat="51.846184000" lon="7.628015000">
        <ele>66.9</ele>
        <time>2017-04-29T05:28:09</time>
        <extensions><speed>1.38</speed></extensions>
      </trkpt>
      <trkpt lat="51.846184000" lon="7.628041000">
        <ele>66.9</ele>
        <time>2017-04-29T05:28:10</time>
        <extensions><speed>1.38</speed></extensions>
      </trkpt>
      <trkpt lat="51.846188000" lon="7.628066000">
        <ele>66.9</ele>
        <time>2017-04-29T05:28:11</time>
        <extensions><speed>1.36</speed></extensions>
      </trkpt>
      <trkpt lat="51.846191000" lon="7.628087000">
        <ele>67.0</ele>
        <time>2017-04-29T05:28:12</time>
        <extensions><speed>1.39</speed></extensions>
      </trkpt>
      <trkpt lat="51.846191000" lon="7.628107000">
        <ele>67.0</ele>
        <time>2017-04-29T05:28:13</time>
        <extensions><speed>1.41</speed></extensions>
      </trkpt>
      <trkpt lat="51.846191000" lon="7.628123000">
        <ele>67.0</ele>
        <time>2017-04-29T05:28:14</time>
        <extensions><speed>1.40</speed></extensions>
      </trkpt>
      <trkpt lat="51.846191000" lon="7.628141000">
        <ele>67.0</ele>
        <time>2017-04-29T05:28:15</time>
        <extensions><speed>1.36</speed></extensions>
      </trkpt>
      <trkpt lat="51.846195000" lon="7.628160000">
        <ele>67.0</ele>
        <time>2017-04-29T05:28:16</time>
        <extensions><speed>1.32</speed></extensions>
      </trkpt>
      <trkpt lat="51.846199000" lon="7.628176000">
        <ele>67.0</ele>
        <time>2017-04-29T05:28:17</time>
        <extensions><speed>1.32</speed></extensions>
      </trkpt>
      <trkpt lat="51.846199000" lon="7.628197000">
        <ele>67.1</ele>
        <time>2017-04-29T05:28:18</time>
        <extensions><speed>1.29</speed></extensions>
      </trkpt>
      <trkpt lat="51.846203000" lon="7.628213000">
        <ele>67.1</ele>
        <time>2017-04-29T05:28:19</time>
        <extensions><speed>1.29</speed></extensions>
      </trkpt>
      <trkpt lat="51.846210000" lon="7.628227000">
        <ele>67.1</ele>
        <time>2017-04-29T05:28:20</time>
        <extensions><speed>1.29</speed></extensions>
      </trkpt>
      <trkpt lat="51.846214000" lon="7.628241000">
        <ele>67.1</ele>
        <time>2017-04-29T05:28:21</time>
        <extensions><speed>1.28</speed></extensions>
      </trkpt>
      <trkpt lat="51.846218000" lon="7.628260000">
        <ele>67.2</ele>
        <time>2017-04-29T05:28:22</time>
        <extensions><speed>1.28</speed></extensions>
      </trkpt>
      <trkpt lat="51.846226000" lon="7.628276000">
        <ele>67.2</ele>
        <time>2017-04-29T05:28:23</time>
        <extensions><speed>1.24</speed></extensions>
      </trkpt>
      <trkpt lat="51.846230000" lon="7.628294000">
        <ele>67.2</ele>
        <time>2017-04-29T05:28:24</time>
        <extensions><speed>1.28</speed></extensions>
      </trkpt>
      <trkpt lat="51.846230000" lon="7.628314000">
        <ele>67.2</ele>
        <time>2017-04-29T05:28:25</time>
        <extensions><speed>1.33</speed></extensions>
      </trkpt>
      <trkpt lat="51.846222000" lon="7.628334000">
        <ele>67.2</ele>
        <time>2017-04-29T05:28:26</time>
        <extensions><speed>1.40</speed></extensions>
      </trkpt>
      <trkpt lat="51.846222000" lon="7.628351000">
        <ele>67.3</ele>
        <time>2017-04-29T05:28:27</time>
        <extensions><speed>1.38</speed></extensions>
      </trkpt>
      <trkpt lat="51.846226000" lon="7.628372000">
        <ele>67.3</ele>
        <time>2017-04-29T05:28:28</time>
        <extensions><speed>1.38</speed></extensions>
      </trkpt>
      <trkpt lat="51.846230000" lon="7.628388000">
        <ele>67.3</ele>
        <time>2017-04-29T05:28:29</time>
        <extensions><speed>1.32</speed></extensions>
      </trkpt>
      <trkpt lat="51.846237000" lon="7.628402000">
        <ele>67.3</ele>
        <time>2017-04-29T05:28:30</time>
        <extensions><speed>1.28</speed></extensions>
      </trkpt>
      <trkpt lat="51.846245000" lon="7.628414000">
        <ele>67.3</ele>
        <time>2017-04-29T05:28:31</time>
        <extensions><speed>1.28</speed></extensions>
      </trkpt>
      <trkpt lat="51.846245000" lon="7.628430000">
        <ele>67.3</ele>
        <time>2017-04-29T05:28:32</time>
        <extensions><speed>1.28</speed></extensions>
      </trkpt>
      <trkpt lat="51.846245000" lon="7.628449000">
        <ele>67.4</ele>
        <time>2017-04-29T05:28:33</time>
        <extensions><speed>1.30</speed></extensions>
      </trkpt>
      <trkpt lat="51.846245000" lon="7.628467000">
        <ele>67.4</ele>
        <time>2017-04-29T05:28:34</time>
        <extensions><speed>1.33</speed></extensions>
      </trkpt>
      <trkpt lat="51.846245000" lon="7.628485000">
        <ele>67.4</ele>
        <time>2017-04-29T05:28:35</time>
        <extensions><speed>1.39</speed></extensions>
      </trkpt>
      <trkpt lat="51.846249000" lon="7.628502000">
        <ele>67.4</ele>
        <time>2017-04-29T05:28:36</time>
        <extensions><speed>1.36</speed></extensions>
      </trkpt>
      <trkpt lat="51.846249000" lon="7.628519000">
        <ele>67.4</ele>
        <time>2017-04-29T05:28:37</time>
        <extensions><speed>1.37</speed></extensions>
      </trkpt>
      <trkpt lat="51.846249000" lon="7.628539000">
        <ele>67.4</ele>
        <time>2017-04-29T05:28:38</time>
        <extensions><speed>1.32</speed></extensions>
      </trkpt>
      <trkpt lat="51.846252000" lon="7.628558000">
        <ele>67.5</ele>
        <time>2017-04-29T05:28:39</time>
        <extensions><speed>1.34</speed></extensions>
      </trkpt>
      <trkpt lat="51.846252000" lon="7.628577000">
        <ele>67.5</ele>
        <time>2017-04-29T05:28:40</time>
        <extensions><speed>1.25</speed></extensions>
      </trkpt>
      <trkpt lat="51.846256000" lon="7.628598000">
        <ele>67.5</ele>
        <time>2017-04-29T05:28:41</time>
        <extensions><speed>1.33</speed></extensions>
      </trkpt>
      <trkpt lat="51.846260000" lon="7.628623000">
        <ele>67.5</ele>
        <time>2017-04-29T05:28:42</time>
        <extensions><speed>1.32</speed></extensions>
      </trkpt>
      <trkpt lat="51.846260000" lon="7.628647000">
        <ele>67.5</ele>
        <time>2017-04-29T05:28:43</time>
        <extensions><speed>1.34</speed></extensions>
      </trkpt>
      <trkpt lat="51.846268000" lon="7.628666000">
        <ele>67.5</ele>
        <time>2017-04-29T05:28:44</time>
        <extensions><speed>1.32</speed></extensions>
      </trkpt>
      <trkpt lat="51.846275000" lon="7.628687000">
        <ele>67.5</ele>
        <time>2017-04-29T05:28:45</time>
        <extensions><speed>1.36</speed></extensions>
      </trkpt>
      <trkpt lat="51.846279000" lon="7.628710000">
        <ele>67.6</ele>
        <time>2017-04-29T05:28:46</time>
        <extensions><speed>1.36</speed></extensions>
      </trkpt>
      <trkpt lat="51.846283000" lon="7.628733000">
        <ele>67.6</ele>
        <time>2017-04-29T05:28:47</time>
        <extensions><speed>1.38</speed></extensions>
      </trkpt>
      <trkpt lat="51.846291000" lon="7.628754000">
        <ele>67.6</ele>
        <time>2017-04-29T05:28:48</time>
        <extensions><speed>1.37</speed></extensions>
      </trkpt>
      <trkpt lat="51.846294000" lon="7.628773000">
        <ele>67.6</ele>
        <time>2017-04-29T05:28:49</time>
        <extensions><speed>1.36</speed></extensions>
      </trkpt>
      <trkpt lat="51.846298000" lon="7.628792000">
        <ele>67.7</ele>
        <time>2017-04-29T05:28:50</time>
        <extensions><speed>1.33</speed></extensions>
      </trkpt>
      <trkpt lat="51.846306000" lon="7.628813000">
        <ele>67.7</ele>
        <time>2017-04-29T05:28:51</time>
        <extensions><speed>1.29</speed></extensions>
      </trkpt>
      <trkpt lat="51.846310000" lon="7.628838000">
        <ele>67.8</ele>
        <time>2017-04-29T05:28:52</time>
        <extensions><speed>1.29</speed></extensions>
      </trkpt>
      <trkpt lat="51.846313000" lon="7.628864000">
        <ele>67.8</ele>
        <time>2017-04-29T05:28:53</time>
        <extensions><speed>1.32</speed></extensions>
      </trkpt>
      <trkpt lat="51.846317000" lon="7.628885000">
        <ele>67.8</ele>
        <time>2017-04-29T05:28:54</time>
        <extensions><speed>1.33</speed></extensions>
      </trkpt>
      <trkpt lat="51.846317000" lon="7.628905000">
        <ele>67.9</ele>
        <time>2017-04-29T05:28:55</time>
        <extensions><speed>1.33</speed></extensions>
      </trkpt>
      <trkpt lat="51.846321000" lon="7.628923000">
        <ele>67.9</ele>
        <time>2017-04-29T05:28:56</time>
        <extensions><speed>1.36</speed></extensions>
      </trkpt>
      <trkpt lat="51.846325000" lon="7.628943000">
        <ele>67.9</ele>
        <time>2017-04-29T05:28:57</time>
        <extensions><speed>1.36</speed></extensions>
      </trkpt>
      <trkpt lat="51.846325000" lon="7.628967000">
        <ele>68.0</ele>
        <time>2017-04-29T05:28:58</time>
        <extensions><speed>1.39</speed></extensions>
      </trkpt>
      <trkpt lat="51.846325000" lon="7.628990000">
        <ele>68.0</ele>
        <time>2017-04-29T05:28:59</time>
        <extensions><speed>1.43</speed></extensions>
      </trkpt>
      <trkpt lat="51.846321000" lon="7.629013000">
        <ele>68.1</ele>
        <time>2017-04-29T05:29:00</time>
        <extensions><speed>1.45</speed></extensions>
      </trkpt>
      <trkpt lat="51.846325000" lon="7.629032000">
        <ele>68.1</ele>
        <time>2017-04-29T05:29:01</time>
        <extensions><speed>1.45</speed></extensions>
      </trkpt>
      <trkpt lat="51.846325000" lon="7.629048000">
        <ele>68.1</ele>
        <time>2017-04-29T05:29:02</time>
        <extensions><speed>1.39</speed></extensions>
      </trkpt>
      <trkpt lat="51.846325000" lon="7.629067000">
        <ele>68.2</ele>
        <time>2017-04-29T05:29:03</time>
        <extensions><speed>1.32</speed></extensions>
      </trkpt>
      <trkpt lat="51.846333000" lon="7.629085000">
        <ele>68.2</ele>
        <time>2017-04-29T05:29:04</time>
        <extensions><speed>1.28</speed></extensions>
      </trkpt>
      <trkpt lat="51.846340000" lon="7.629104000">
        <ele>68.2</ele>
        <time>2017-04-29T05:29:05</time>
        <extensions><speed>1.28</speed></extensions>
      </trkpt>
      <trkpt lat="51.846348000" lon="7.629120000">
        <ele>68.2</ele>
        <time>2017-04-29T05:29:06</time>
        <extensions><speed>1.31</speed></extensions>
      </trkpt>
      <trkpt lat="51.846352000" lon="7.629138000">
        <ele>68.3</ele>
        <time>2017-04-29T05:29:07</time>
        <extensions><speed>1.36</speed></extensions>
      </trkpt>
      <trkpt lat="51.846355000" lon="7.629157000">
        <ele>68.3</ele>
        <time>2017-04-29T05:29:08</time>
        <extensions><speed>1.36</speed></extensions>
      </trkpt>
      <trkpt lat="51.846359000" lon="7.629179000">
        <ele>68.3</ele>
        <time>2017-04-29T05:29:09</time>
        <extensions><speed>1.39</speed></extensions>
      </trkpt>
      <trkpt lat="51.846359000" lon="7.629202000">
        <ele>68.4</ele>
        <time>2017-04-29T05:29:10</time>
        <extensions><speed>1.37</speed></extensions>
      </trkpt>
      <trkpt lat="51.846359000" lon="7.629221000">
        <ele>68.4</ele>
        <time>2017-04-29T05:29:11</time>
        <extensions><speed>1.37</speed></extensions>
      </trkpt>
      <trkpt lat="51.846367000" lon="7.629242000">
        <ele>68.4</ele>
        <time>2017-04-29T05:29:12</time>
        <extensions><speed>1.33</speed></extensions>
      </trkpt>
      <trkpt lat="51.846371000" lon="7.629260000">
        <ele>68.5</ele>
        <time>2017-04-29T05:29:13</time>
        <extensions><speed>1.34</speed></extensions>
      </trkpt>
      <trkpt lat="51.846375000" lon="7.629284000">
        <ele>68.5</ele>
        <time>2017-04-29T05:29:14</time>
        <extensions><speed>1.34</speed></extensions>
      </trkpt>
      <trkpt lat="51.846378000" lon="7.629305000">
        <ele>68.5</ele>
        <time>2017-04-29T05:29:15</time>
        <extensions><speed>1.34</speed></extensions>
      </trkpt>
      <trkpt lat="51.846382000" lon="7.629323000">
        <ele>68.5</ele>
        <time>2017-04-29T05:29:16</time>
        <extensions><speed>1.32</speed></extensions>
      </trkpt>
      <trkpt lat="51.846386000" lon="7.629340000">
        <ele>68.6</ele>
        <time>2017-04-29T05:29:17</time>
        <extensions><speed>1.31</speed></extensions>
      </trkpt>
      <trkpt lat="51.846390000" lon="7.629358000">
        <ele>68.6</ele>
        <time>2017-04-29T05:29:18</time>
        <extensions><speed>1.34</speed></extensions>
      </trkpt>
      <trkpt lat="51.846390000" lon="7.629377000">
        <ele>68.7</ele>
        <time>2017-04-29T05:29:19</time>
        <extensions><speed>1.31</speed></extensions>
      </trkpt>
      <trkpt lat="51.846397000" lon="7.629390000">
        <ele>68.7</ele>
        <time>2017-04-29T05:29:20</time>
        <extensions><speed>1.24</speed></extensions>
      </trkpt>
      <trkpt lat="51.846405000" lon="7.629405000">
        <ele>68.7</ele>
        <time>2017-04-29T05:29:21</time>
        <extensions><speed>1.24</speed></extensions>
      </trkpt>
      <trkpt lat="51.846409000" lon="7.629419000">
        <ele>68.8</ele>
        <time>2017-04-29T05:29:22</time>
        <extensions><speed>1.29</speed></extensions>
      </trkpt>
      <trkpt lat="51.846413000" lon="7.629436000">
        <ele>68.8</ele>
        <time>2017-04-29T05:29:23</time>
        <extensions><speed>1.26</speed></extensions>
      </trkpt>
      <trkpt lat="51.846416000" lon="7.629457000">
        <ele>68.8</ele>
        <time>2017-04-29T05:29:24</time>
        <extensions><speed>1.26</speed></extensions>
      </trkpt>
      <trkpt lat="51.846424000" lon="7.629478000">
        <ele>68.8</ele>
        <time>2017-04-29T05:29:25</time>
        <extensions><speed>1.28</speed></extensions>
      </trkpt>
      <trkpt lat="51.846428000" lon="7.629500000">
        <ele>68.8</ele>
        <time>2017-04-29T05:29:26</time>
        <extensions><speed>1.30</speed></extensions>
      </trkpt>
      <trkpt lat="51.846432000" lon="7.629519000">
        <ele>68.8</ele>
        <time>2017-04-29T05:29:27</time>
        <extensions><speed>1.33</speed></extensions>
      </trkpt>
      <trkpt lat="51.846432000" lon="7.629538000">
        <ele>68.8</ele>
        <time>2017-04-29T05:29:28</time>
        <extensions><speed>1.34</speed></extensions>
      </trkpt>
      <trkpt lat="51.846432000" lon="7.629553000">
        <ele>68.9</ele>
        <time>2017-04-29T05:29:29</time>
        <extensions><speed>1.36</speed></extensions>
      </trkpt>
      <trkpt lat="51.846436000" lon="7.629570000">
        <ele>68.9</ele>
        <time>2017-04-29T05:29:30</time>
        <extensions><speed>1.35</speed></extensions>
      </trkpt>
      <trkpt lat="51.846443000" lon="7.629587000">
        <ele>68.9</ele>
        <time>2017-04-29T05:29:31</time>
        <extensions><speed>1.35</speed></extensions>
      </trkpt>
      <trkpt lat="51.846451000" lon="7.629608000">
        <ele>68.9</ele>
        <time>2017-04-29T05:29:32</time>
        <extensions><speed>1.37</speed></extensions>
      </trkpt>
      <trkpt lat="51.846455000" lon="7.629632000">
        <ele>68.9</ele>
        <time>2017-04-29T05:29:33</time>
        <extensions><speed>1.36</speed></extensions>
      </trkpt>
      <trkpt lat="51.846458000" lon="7.629652000">
        <ele>68.9</ele>
        <time>2017-04-29T05:29:34</time>
        <extensions><speed>1.32</speed></extensions>
      </trkpt>
      <trkpt lat="51.846458000" lon="7.629668000">
        <ele>68.9</ele>
        <time>2017-04-29T05:29:35</time>
        <extensions><speed>1.35</speed></extensions>
      </trkpt>
      <trkpt lat="51.846458000" lon="7.629687000">
        <ele>68.9</ele>
        <time>2017-04-29T05:29:36</time>
        <extensions><speed>1.35</speed></extensions>
      </trkpt>
      <trkpt lat="51.846458000" lon="7.629706000">
        <ele>68.9</ele>
        <time>2017-04-29T05:29:37</time>
        <extensions><speed>1.28</speed></extensions>
      </trkpt>
      <trkpt lat="51.846462000" lon="7.629724000">
        <ele>68.9</ele>
        <time>2017-04-29T05:29:38</time>
        <extensions><speed>1.27</speed></extensions>
      </trkpt>
      <trkpt lat="51.846466000" lon="7.629743000">
        <ele>68.9</ele>
        <time>2017-04-29T05:29:39</time>
        <extensions><speed>1.34</speed></extensions>
      </trkpt>
      <trkpt lat="51.846470000" lon="7.629764000">
        <ele>68.9</ele>
        <time>2017-04-29T05:29:40</time>
        <extensions><speed>1.32</speed></extensions>
      </trkpt>
      <trkpt lat="51.846470000" lon="7.629778000">
        <ele>68.9</ele>
        <time>2017-04-29T05:29:41</time>
        <extensions><speed>1.24</speed></extensions>
      </trkpt>
      <trkpt lat="51.846474000" lon="7.629792000">
        <ele>68.9</ele>
        <time>2017-04-29T05:29:42</time>
        <extensions><speed>1.25</speed></extensions>
      </trkpt>
      <trkpt lat="51.846474000" lon="7.629810000">
        <ele>69.0</ele>
        <time>2017-04-29T05:29:43</time>
        <extensions><speed>1.23</speed></extensions>
      </trkpt>
      <trkpt lat="51.846474000" lon="7.629830000">
        <ele>69.0</ele>
        <time>2017-04-29T05:29:44</time>
        <extensions><speed>1.23</speed></extensions>
      </trkpt>
      <trkpt lat="51.846478000" lon="7.629848000">
        <ele>69.0</ele>
        <time>2017-04-29T05:29:45</time>
        <extensions><speed>1.26</speed></extensions>
      </trkpt>
      <trkpt lat="51.846485000" lon="7.629867000">
        <ele>69.0</ele>
        <time>2017-04-29T05:29:46</time>
        <extensions><speed>1.32</speed></extensions>
      </trkpt>
      <trkpt lat="51.846489000" lon="7.629883000">
        <ele>69.0</ele>
        <time>2017-04-29T05:29:47</time>
        <extensions><speed>1.37</speed></extensions>
      </trkpt>
      <trkpt lat="51.846489000" lon="7.629904000">
        <ele>69.0</ele>
        <time>2017-04-29T05:29:48</time>
        <extensions><speed>1.37</speed></extensions>
      </trkpt>
      <trkpt lat="51.846489000" lon="7.629921000">
        <ele>69.0</ele>
        <time>2017-04-29T05:29:49</time>
        <extensions><speed>1.36</speed></extensions>
      </trkpt>
      <trkpt lat="51.846493000" lon="7.629942000">
        <ele>69.0</ele>
        <time>2017-04-29T05:29:50</time>
        <extensions><speed>1.34</speed></extensions>
      </trkpt>
      <trkpt lat="51.846497000" lon="7.629961000">
        <ele>69.0</ele>
        <time>2017-04-29T05:29:51</time>
        <extensions><speed>1.34</speed></extensions>
      </trkpt>
      <trkpt lat="51.846500000" lon="7.629981000">
        <ele>69.0</ele>
        <time>2017-04-29T05:29:52</time>
        <extensions><speed>1.30</speed></extensions>
      </trkpt>
      <trkpt lat="51.846508000" lon="7.629998000">
        <ele>69.0</ele>
        <time>2017-04-29T05:29:53</time>
        <extensions><speed>1.25</speed></extensions>
      </trkpt>
      <trkpt lat="51.846512000" lon="7.630020000">
        <ele>69.0</ele>
        <time>2017-04-29T05:29:54</time>
        <extensions><speed>1.31</speed></extensions>
      </trkpt>
      <trkpt lat="51.846512000" lon="7.630042000">
        <ele>69.0</ele>
        <time>2017-04-29T05:29:55</time>
        <extensions><speed>1.34</speed></extensions>
      </trkpt>
      <trkpt lat="51.846516000" lon="7.630065000">
        <ele>69.0</ele>
        <time>2017-04-29T05:29:56</time>
        <extensions><speed>1.34</speed></extensions>
      </trkpt>
      <trkpt lat="51.846516000" lon="7.630088000">
        <ele>69.0</ele>
        <time>2017-04-29T05:29:57</time>
        <extensions><speed>1.40</speed></extensions>
      </trkpt>
      <trkpt lat="51.846516000" lon="7.630108000">
        <ele>69.0</ele>
        <time>2017-04-29T05:29:58</time>
        <extensions><speed>1.43</speed></extensions>
      </trkpt>
      <trkpt lat="51.846519000" lon="7.630128000">
        <ele>69.0</ele>
        <time>2017-04-29T05:29:59</time>
        <extensions><speed>1.43</speed></extensions>
      </trkpt>
      <trkpt lat="51.846523000" lon="7.630145000">
        <ele>69.0</ele>
        <time>2017-04-29T05:30:00</time>
        <extensions><speed>1.40</speed></extensions>
      </trkpt>
      <trkpt lat="51.846523000" lon="7.630168000">
        <ele>69.1</ele>
        <time>2017-04-29T05:30:01</time>
        <extensions><speed>1.39</speed></extensions>
      </trkpt>
      <trkpt lat="51.846527000" lon="7.630187000">
        <ele>69.1</ele>
        <time>2017-04-29T05:30:02</time>
        <extensions><speed>1.34</speed></extensions>
      </trkpt>
      <trkpt lat="51.846531000" lon="7.630207000">
        <ele>69.1</ele>
        <time>2017-04-29T05:30:03</time>
        <extensions><speed>1.34</speed></extensions>
      </trkpt>
      <trkpt lat="51.846531000" lon="7.630225000">
        <ele>69.2</ele>
        <time>2017-04-29T05:30:04</time>
        <extensions><speed>1.33</speed></extensions>
      </trkpt>
      <trkpt lat="51.846539000" lon="7.630242000">
        <ele>69.2</ele>
        <time>2017-04-29T05:30:05</time>
        <extensions><speed>1.30</speed></extensions>
      </trkpt>
      <trkpt lat="51.846539000" lon="7.630261000">
        <ele>69.2</ele>
        <time>2017-04-29T05:30:06</time>
        <extensions><speed>1.34</speed></extensions>
      </trkpt>
      <trkpt lat="51.846542000" lon="7.630283000">
        <ele>69.2</ele>
        <time>2017-04-29T05:30:07</time>
        <extensions><speed>1.37</speed></extensions>
      </trkpt>
      <trkpt lat="51.846546000" lon="7.630307000">
        <ele>69.3</ele>
        <time>2017-04-29T05:30:08</time>
        <extensions><speed>1.36</speed></extensions>
      </trkpt>
      <trkpt lat="51.846550000" lon="7.630327000">
        <ele>69.3</ele>
        <time>2017-04-29T05:30:09</time>
        <extensions><speed>1.40</speed></extensions>
      </trkpt>
      <trkpt lat="51.846554000" lon="7.630350000">
        <ele>69.3</ele>
        <time>2017-04-29T05:30:10</time>
        <extensions><speed>1.46</speed></extensions>
      </trkpt>
      <trkpt lat="51.846554000" lon="7.630372000">
        <ele>69.4</ele>
        <time>2017-04-29T05:30:11</time>
        <extensions><speed>1.40</speed></extensions>
      </trkpt>
      <trkpt lat="51.846558000" lon="7.630392000">
        <ele>69.4</ele>
        <time>2017-04-29T05:30:12</time>
        <extensions><speed>1.41</speed></extensions>
      </trkpt>
      <trkpt lat="51.846561000" lon="7.630412000">
        <ele>69.4</ele>
        <time>2017-04-29T05:30:13</time>
        <extensions><speed>1.39</speed></extensions>
      </trkpt>
      <trkpt lat="51.846573000" lon="7.630430000">
        <ele>69.5</ele>
        <time>2017-04-29T05:30:14</time>
        <extensions><speed>1.38</speed></extensions>
      </trkpt>
      <trkpt lat="51.846577000" lon="7.630450000">
        <ele>69.5</ele>
        <time>2017-04-29T05:30:15</time>
        <extensions><speed>1.34</speed></extensions>
      </trkpt>
      <trkpt lat="51.846581000" lon="7.630473000">
        <ele>69.5</ele>
        <time>2017-04-29T05:30:16</time>
        <extensions><speed>1.38</speed></extensions>
      </trkpt>
      <trkpt lat="51.846584000" lon="7.630495000">
        <ele>69.6</ele>
        <time>2017-04-29T05:30:17</time>
        <extensions><speed>1.38</speed></extensions>
      </trkpt>
      <trkpt lat="51.846588000" lon="7.630515000">
        <ele>69.6</ele>
        <time>2017-04-29T05:30:18</time>
        <extensions><speed>1.39</speed></extensions>
      </trkpt>
      <trkpt lat="51.846588000" lon="7.630534000">
        <ele>69.6</ele>
        <time>2017-04-29T05:30:19</time>
        <extensions><speed>1.38</speed></extensions>
      </trkpt>
      <trkpt lat="51.846592000" lon="7.630553000">
        <ele>69.6</ele>
        <time>2017-04-29T05:30:20</time>
        <extensions><speed>1.40</speed></extensions>
      </trkpt>
      <trkpt lat="51.846592000" lon="7.630573000">
        <ele>69.7</ele>
        <time>2017-04-29T05:30:21</time>
        <extensions><speed>1.39</speed></extensions>
      </trkpt>
      <trkpt lat="51.846592000" lon="7.630597000">
        <ele>69.7</ele>
        <time>2017-04-29T05:30:22</time>
        <extensions><speed>1.39</speed></extensions>
      </trkpt>
      <trkpt lat="51.846592000" lon="7.630617000">
        <ele>69.7</ele>
        <time>2017-04-29T05:30:23</time>
        <extensions><speed>1.39</speed></extensions>
      </trkpt>
      <trkpt lat="51.846592000" lon="7.630639000">
        <ele>69.8</ele>
        <time>2017-04-29T05:30:24</time>
        <extensions><speed>1.40</speed></extensions>
      </trkpt>
      <trkpt lat="51.846600000" lon="7.630657000">
        <ele>69.8</ele>
        <time>2017-04-29T05:30:25</time>
        <extensions><speed>1.41</speed></extensions>
      </trkpt>
      <trkpt lat="51.846603000" lon="7.630675000">
        <ele>69.8</ele>
        <time>2017-04-29T05:30:26</time>
        <extensions><speed>1.37</speed></extensions>
      </trkpt>
      <trkpt lat="51.846603000" lon="7.630692000">
        <ele>69.9</ele>
        <time>2017-04-29T05:30:27</time>
        <extensions><speed>1.32</speed></extensions>
      </trkpt>
      <trkpt lat="51.846603000" lon="7.630711000">
        <ele>69.9</ele>
        <time>2017-04-29T05:30:28</time>
        <extensions><speed>1.36</speed></extensions>
      </trkpt>
      <trkpt lat="51.846607000" lon="7.630733000">
        <ele>69.9</ele>
        <time>2017-04-29T05:30:29</time>
        <extensions><speed>1.38</speed></extensions>
      </trkpt>
      <trkpt lat="51.846607000" lon="7.630755000">
        <ele>69.9</ele>
        <time>2017-04-29T05:30:30</time>
        <extensions><speed>1.31</speed></extensions>
      </trkpt>
      <trkpt lat="51.846611000" lon="7.630770000">
        <ele>70.0</ele>
        <time>2017-04-29T05:30:31</time>
        <extensions><speed>1.34</speed></extensions>
      </trkpt>
      <trkpt lat="51.846615000" lon="7.630786000">
        <ele>70.0</ele>
        <time>2017-04-29T05:30:32</time>
        <extensions><speed>1.35</speed></extensions>
      </trkpt>
      <trkpt lat="51.846615000" lon="7.630807000">
        <ele>70.0</ele>
        <time>2017-04-29T05:30:33</time>
        <extensions><speed>1.37</speed></extensions>
      </trkpt>
      <trkpt lat="51.846615000" lon="7.630823000">
        <ele>70.0</ele>
        <time>2017-04-29T05:30:34</time>
        <extensions><speed>1.31</speed></extensions>
      </trkpt>
      <trkpt lat="51.846615000" lon="7.630842000">
        <ele>70.0</ele>
        <time>2017-04-29T05:30:35</time>
        <extensions><speed>1.31</speed></extensions>
      </trkpt>
      <trkpt lat="51.846619000" lon="7.630860000">
        <ele>70.0</ele>
        <time>2017-04-29T05:30:36</time>
        <extensions><speed>1.30</speed></extensions>
      </trkpt>
      <trkpt lat="51.846622000" lon="7.630878000">
        <ele>70.0</ele>
        <time>2017-04-29T05:30:37</time>
        <extensions><speed>1.31</speed></extensions>
      </trkpt>
      <trkpt lat="51.846622000" lon="7.630898000">
        <ele>70.0</ele>
        <time>2017-04-29T05:30:38</time>
        <extensions><speed>1.21</speed></extensions>
      </trkpt>
      <trkpt lat="51.846626000" lon="7.630915000">
        <ele>70.0</ele>
        <time>2017-04-29T05:30:39</time>
        <extensions><speed>1.21</speed></extensions>
      </trkpt>
      <trkpt lat="51.846634000" lon="7.630933000">
        <ele>70.0</ele>
        <time>2017-04-29T05:30:40</time>
        <extensions><speed>1.24</speed></extensions>
      </trkpt>
      <trkpt lat="51.846638000" lon="7.630954000">
        <ele>70.0</ele>
        <time>2017-04-29T05:30:41</time>
        <extensions><speed>1.27</speed></extensions>
      </trkpt>
      <trkpt lat="51.846642000" lon="7.630973000">
        <ele>70.0</ele>
        <time>2017-04-29T05:30:42</time>
        <extensions><speed>1.28</speed></extensions>
      </trkpt>
      <trkpt lat="51.846642000" lon="7.630993000">
        <ele>70.0</ele>
        <time>2017-04-29T05:30:43</time>
        <extensions><speed>1.34</speed></extensions>
      </trkpt>
      <trkpt lat="51.846642000" lon="7.631013000">
        <ele>70.0</ele>
        <time>2017-04-29T05:30:44</time>
        <extensions><speed>1.34</speed></extensions>
      </trkpt>
      <trkpt lat="51.846645000" lon="7.631028000">
        <ele>70.0</ele>
        <time>2017-04-29T05:30:45</time>
        <extensions><speed>1.28</speed></extensions>
      </trkpt>
      <trkpt lat="51.846645000" lon="7.631047000">
        <ele>70.0</ele>
        <time>2017-04-29T05:30:46</time>
        <extensions><speed>1.26</speed></extensions>
      </trkpt>
      <trkpt lat="51.846649000" lon="7.631065000">
        <ele>70.0</ele>
        <time>2017-04-29T05:30:47</time>
        <extensions><speed>1.24</speed></extensions>
      </trkpt>
      <trkpt lat="51.846653000" lon="7.631083000">
        <ele>70.0</ele>
        <time>2017-04-29T05:30:48</time>
        <extensions><speed>1.24</speed></extensions>
      </trkpt>
      <trkpt lat="51.846653000" lon="7.631102000">
        <ele>70.0</ele>
        <time>2017-04-29T05:30:49</time>
        <extensions><speed>1.29</speed></extensions>
      </trkpt>
      <trkpt lat="51.846661000" lon="7.631122000">
        <ele>70.0</ele>
        <time>2017-04-29T05:30:50</time>
        <extensions><speed>1.31</speed></extensions>
      </trkpt>
      <trkpt lat="51.846664000" lon="7.631143000">
        <ele>70.0</ele>
        <time>2017-04-29T05:30:51</time>
        <extensions><speed>1.30</speed></extensions>
      </trkpt>
      <trkpt lat="51.846668000" lon="7.631165000">
        <ele>70.0</ele>
        <time>2017-04-29T05:30:52</time>
        <extensions><speed>1.32</speed></extensions>
      </trkpt>
      <trkpt lat="51.846672000" lon="7.631182000">
        <ele>70.0</ele>
        <time>2017-04-29T05:30:53</time>
        <extensions><speed>1.32</speed></extensions>
      </trkpt>
      <trkpt lat="51.846680000" lon="7.631194000">
        <ele>70.0</ele>
        <time>2017-04-29T05:30:54</time>
        <extensions><speed>1.31</speed></extensions>
      </trkpt>
      <trkpt lat="51.846684000" lon="7.631208000">
        <ele>70.0</ele>
        <time>2017-04-29T05:30:55</time>
        <extensions><speed>1.31</speed></extensions>
      </trkpt>
      <trkpt lat="51.846687000" lon="7.631228000">
        <ele>70.0</ele>
        <time>2017-04-29T05:30:56</time>
        <extensions><speed>1.30</speed></extensions>
      </trkpt>
      <trkpt lat="51.846691000" lon="7.631250000">
        <ele>70.0</ele>
        <time>2017-04-29T05:30:57</time>
        <extensions><speed>1.31</speed></extensions>
      </trkpt>
      <trkpt lat="51.846691000" lon="7.631269000">
        <ele>70.0</ele>
        <time>2017-04-29T05:30:58</time>
        <extensions><speed>1.32</speed></extensions>
      </trkpt>
      <trkpt lat="51.846695000" lon="7.631290000">
        <ele>70.0</ele>
        <time>2017-04-29T05:30:59</time>
        <extensions><speed>1.36</speed></extensions>
      </trkpt>
      <trkpt lat="51.846699000" lon="7.631310000">
        <ele>70.0</ele>
        <time>2017-04-29T05:31:00</time>
        <extensions><speed>1.38</speed></extensions>
      </trkpt>
      <trkpt lat="51.846703000" lon="7.631327000">
        <ele>70.0</ele>
        <time>2017-04-29T05:31:01</time>
        <extensions><speed>1.39</speed></extensions>
      </trkpt>
      <trkpt lat="51.846706000" lon="7.631346000">
        <ele>70.0</ele>
        <time>2017-04-29T05:31:02</time>
        <extensions><speed>1.38</speed></extensions>
      </trkpt>
      <trkpt lat="51.846710000" lon="7.631365000">
        <ele>70.0</ele>
        <time>2017-04-29T05:31:03</time>
        <extensions><speed>1.36</speed></extensions>
      </trkpt>
      <trkpt lat="51.846718000" lon="7.631383000">
        <ele>70.0</ele>
        <time>2017-04-29T05:31:04</time>
        <extensions><speed>1.34</speed></extensions>
      </trkpt>
      <trkpt lat="51.846718000" lon="7.631403000">
        <ele>70.0</ele>
        <time>2017-04-29T05:31:05</time>
        <extensions><speed>1.33</speed></extensions>
      </trkpt>
      <trkpt lat="51.846718000" lon="7.631423000">
        <ele>70.0</ele>
        <time>2017-04-29T05:31:06</time>
        <extensions><speed>1.34</speed></extensions>
      </trkpt>
      <trkpt lat="51.846722000" lon="7.631442000">
        <ele>70.0</ele>
        <time>2017-04-29T05:31:07</time>
        <extensions><speed>1.40</speed></extensions>
      </trkpt>
      <trkpt lat="51.846729000" lon="7.631460000">
        <ele>70.0</ele>
        <time>2017-04-29T05:31:08</time>
        <extensions><speed>1.40</speed></extensions>
      </trkpt>
      <trkpt lat="51.846733000" lon="7.631475000">
        <ele>70.0</ele>
        <time>2017-04-29T05:31:09</time>
        <extensions><speed>1.36</speed></extensions>
      </trkpt>
      <trkpt lat="51.846741000" lon="7.631492000">
        <ele>70.0</ele>
        <time>2017-04-29T05:31:10</time>
        <extensions><speed>1.36</speed></extensions>
      </trkpt>
      <trkpt lat="51.846741000" lon="7.631512000">
        <ele>70.0</ele>
        <time>2017-04-29T05:31:11</time>
        <extensions><speed>1.31</speed></extensions>
      </trkpt>
      <trkpt lat="51.846745000" lon="7.631528000">
        <ele>70.0</ele>
        <time>2017-04-29T05:31:12</time>
        <extensions><speed>1.29</speed></extensions>
      </trkpt>
      <trkpt lat="51.846748000" lon="7.631546000">
        <ele>70.0</ele>
        <time>2017-04-29T05:31:13</time>
        <extensions><speed>1.33</speed></extensions>
      </trkpt>
      <trkpt lat="51.846752000" lon="7.631562000">
        <ele>70.0</ele>
        <time>2017-04-29T05:31:14</time>
        <extensions><speed>1.34</speed></extensions>
      </trkpt>
      <trkpt lat="51.846756000" lon="7.631581000">
        <ele>70.0</ele>
        <time>2017-04-29T05:31:15</time>
        <extensions><speed>1.31</speed></extensions>
      </trkpt>
      <trkpt lat="51.846760000" lon="7.631602000">
        <ele>70.0</ele>
        <time>2017-04-29T05:31:16</time>
        <extensions><speed>1.33</speed></extensions>
      </trkpt>
      <trkpt lat="51.846764000" lon="7.631621000">
        <ele>70.0</ele>
        <time>2017-04-29T05:31:17</time>
        <extensions><speed>1.30</speed></extensions>
      </trkpt>
      <trkpt lat="51.846767000" lon="7.631640000">
        <ele>70.0</ele>
        <time>2017-04-29T05:31:18</time>
        <extensions><speed>1.29</speed></extensions>
      </trkpt>
      <trkpt lat="51.846771000" lon="7.631656000">
        <ele>70.0</ele>
        <time>2017-04-29T05:31:19</time>
        <extensions><speed>1.30</speed></extensions>
      </trkpt>
      <trkpt lat="51.846775000" lon="7.631675000">
        <ele>70.0</ele>
        <time>2017-04-29T05:31:20</time>
        <extensions><speed>1.30</speed></extensions>
      </trkpt>
      <trkpt lat="51.846783000" lon="7.631697000">
        <ele>70.0</ele>
        <time>2017-04-29T05:31:21</time>
        <extensions><speed>1.31</speed></extensions>
      </trkpt>
      <trkpt lat="51.846786000" lon="7.631717000">
        <ele>70.0</ele>
        <time>2017-04-29T05:31:22</time>
        <extensions><speed>1.33</speed></extensions>
      </trkpt>
      <trkpt lat="51.846794000" lon="7.631737000">
        <ele>70.0</ele>
        <time>2017-04-29T05:31:23</time>
        <extensions><speed>1.34</speed></extensions>
      </trkpt>
      <trkpt lat="51.846798000" lon="7.631756000">
        <ele>70.0</ele>
        <time>2017-04-29T05:31:24</time>
        <extensions><speed>1.37</speed></extensions>
      </trkpt>
      <trkpt lat="51.846802000" lon="7.631775000">
        <ele>70.0</ele>
        <time>2017-04-29T05:31:25</time>
        <extensions><speed>1.37</speed></extensions>
      </trkpt>
      <trkpt lat="51.846806000" lon="7.631791000">
        <ele>70.0</ele>
        <time>2017-04-29T05:31:26</time>
        <extensions><speed>1.32</speed></extensions>
      </trkpt>
      <trkpt lat="51.846813000" lon="7.631812000">
        <ele>70.0</ele>
        <time>2017-04-29T05:31:27</time>
        <extensions><speed>1.34</speed></extensions>
      </trkpt>
      <trkpt lat="51.846813000" lon="7.631828000">
        <ele>70.0</ele>
        <time>2017-04-29T05:31:28</time>
        <extensions><speed>1.31</speed></extensions>
      </trkpt>
      <trkpt lat="51.846813000" lon="7.631848000">
        <ele>70.0</ele>
        <time>2017-04-29T05:31:29</time>
        <extensions><speed>1.27</speed></extensions>
      </trkpt>
      <trkpt lat="51.846813000" lon="7.631873000">
        <ele>70.0</ele>
        <time>2017-04-29T05:31:30</time>
        <extensions><speed>1.32</speed></extensions>
      </trkpt>
      <trkpt lat="51.846817000" lon="7.631896000">
        <ele>70.0</ele>
        <time>2017-04-29T05:31:31</time>
        <extensions><speed>1.37</speed></extensions>
      </trkpt>
      <trkpt lat="51.846825000" lon="7.631922000">
        <ele>70.0</ele>
        <time>2017-04-29T05:31:32</time>
        <extensions><speed>1.38</speed></extensions>
      </trkpt>
      <trkpt lat="51.846828000" lon="7.631941000">
        <ele>70.0</ele>
        <time>2017-04-29T05:31:33</time>
        <extensions><speed>1.46</speed></extensions>
      </trkpt>
      <trkpt lat="51.846828000" lon="7.631964000">
        <ele>70.0</ele>
        <time>2017-04-29T05:31:34</time>
        <extensions><speed>1.46</speed></extensions>
      </trkpt>
      <trkpt lat="51.846836000" lon="7.631983000">
        <ele>70.0</ele>
        <time>2017-04-29T05:31:35</time>
        <extensions><speed>1.46</speed></extensions>
      </trkpt>
      <trkpt lat="51.846840000" lon="7.632003000">
        <ele>70.0</ele>
        <time>2017-04-29T05:31:36</time>
        <extensions><speed>1.42</speed></extensions>
      </trkpt>
      <trkpt lat="51.846844000" lon="7.632023000">
        <ele>70.0</ele>
        <time>2017-04-29T05:31:37</time>
        <extensions><speed>1.40</speed></extensions>
      </trkpt>
      <trkpt lat="51.846848000" lon="7.632045000">
        <ele>70.0</ele>
        <time>2017-04-29T05:31:38</time>
        <extensions><speed>1.40</speed></extensions>
      </trkpt>
      <trkpt lat="51.846848000" lon="7.632067000">
        <ele>70.0</ele>
        <time>2017-04-29T05:31:39</time>
        <extensions><speed>1.38</speed></extensions>
      </trkpt>
      <trkpt lat="51.846848000" lon="7.632088000">
        <ele>70.0</ele>
        <time>2017-04-29T05:31:40</time>
        <extensions><speed>1.33</speed></extensions>
      </trkpt>
      <trkpt lat="51.846848000" lon="7.632110000">
        <ele>70.0</ele>
        <time>2017-04-29T05:31:41</time>
        <extensions><speed>1.35</speed></extensions>
      </trkpt>
      <trkpt lat="51.846855000" lon="7.632130000">
        <ele>70.0</ele>
        <time>2017-04-29T05:31:42</time>
        <extensions><speed>1.40</speed></extensions>
      </trkpt>
      <trkpt lat="51.846859000" lon="7.632148000">
        <ele>70.0</ele>
        <time>2017-04-29T05:31:43</time>
        <extensions><speed>1.38</speed></extensions>
      </trkpt>
      <trkpt lat="51.846859000" lon="7.632169000">
        <ele>70.0</ele>
        <time>2017-04-29T05:31:44</time>
        <extensions><speed>1.43</speed></extensions>
      </trkpt>
      <trkpt lat="51.846863000" lon="7.632188000">
        <ele>70.0</ele>
        <time>2017-04-29T05:31:45</time>
        <extensions><speed>1.43</speed></extensions>
      </trkpt>
      <trkpt lat="51.846874000" lon="7.632207000">
        <ele>70.0</ele>
        <time>2017-04-29T05:31:46</time>
        <extensions><speed>1.42</speed></extensions>
      </trkpt>
      <trkpt lat="51.846882000" lon="7.632222000">
        <ele>70.0</ele>
        <time>2017-04-29T05:31:47</time>
        <extensions><speed>1.41</speed></extensions>
      </trkpt>
      <trkpt lat="51.846889000" lon="7.632237000">
        <ele>70.0</ele>
        <time>2017-04-29T05:31:48</time>
        <extensions><speed>1.46</speed></extensions>
      </trkpt>
      <trkpt lat="51.846893000" lon="7.632255000">
        <ele>70.0</ele>
        <time>2017-04-29T05:31:49</time>
        <extensions><speed>1.43</speed></extensions>
      </trkpt>
      <trkpt lat="51.846897000" lon="7.632276000">
        <ele>70.0</ele>
        <time>2017-04-29T05:31:50</time>
        <extensions><speed>1.40</speed></extensions>
      </trkpt>
      <trkpt lat="51.846901000" lon="7.632295000">
        <ele>70.0</ele>
        <time>2017-04-29T05:31:51</time>
        <extensions><speed>1.35</speed></extensions>
      </trkpt>
      <trkpt lat="51.846905000" lon="7.632312000">
        <ele>70.0</ele>
        <time>2017-04-29T05:31:52</time>
        <extensions><speed>1.37</speed></extensions>
      </trkpt>
      <trkpt lat="51.846912000" lon="7.632330000">
        <ele>70.0</ele>
        <time>2017-04-29T05:31:53</time>
        <extensions><speed>1.31</speed></extensions>
      </trkpt>
      <trkpt lat="51.846912000" lon="7.632347000">
        <ele>70.0</ele>
        <time>2017-04-29T05:31:54</time>
        <extensions><speed>1.30</speed></extensions>
      </trkpt>
      <trkpt lat="51.846916000" lon="7.632361000">
        <ele>70.0</ele>
        <time>2017-04-29T05:31:55</time>
        <extensions><speed>1.33</speed></extensions>
      </trkpt>
      <trkpt lat="51.846920000" lon="7.632380000">
        <ele>70.0</ele>
        <time>2017-04-29T05:31:56</time>
        <extensions><speed>1.34</speed></extensions>
      </trkpt>
      <trkpt lat="51.846920000" lon="7.632403000">
        <ele>70.0</ele>
        <time>2017-04-29T05:31:57</time>
        <extensions><speed>1.36</speed></extensions>
      </trkpt>
      <trkpt lat="51.846924000" lon="7.632425000">
        <ele>70.0</ele>
        <time>2017-04-29T05:31:58</time>
        <extensions><speed>1.36</speed></extensions>
      </trkpt>
      <trkpt lat="51.846924000" lon="7.632449000">
        <ele>70.0</ele>
        <time>2017-04-29T05:31:59</time>
        <extensions><speed>1.36</speed></extensions>
      </trkpt>
      <trkpt lat="51.846924000" lon="7.632472000">
        <ele>70.0</ele>
        <time>2017-04-29T05:32:00</time>
        <extensions><speed>1.35</speed></extensions>
      </trkpt>
      <trkpt lat="51.846928000" lon="7.632490000">
        <ele>70.0</ele>
        <time>2017-04-29T05:32:01</time>
        <extensions><speed>1.36</speed></extensions>
      </trkpt>
      <trkpt lat="51.846931000" lon="7.632507000">
        <ele>70.0</ele>
        <time>2017-04-29T05:32:02</time>
        <extensions><speed>1.33</speed></extensions>
      </trkpt>
      <trkpt lat="51.846931000" lon="7.632524000">
        <ele>70.0</ele>
        <time>2017-04-29T05:32:03</time>
        <extensions><speed>1.31</speed></extensions>
      </trkpt>
      <trkpt lat="51.846935000" lon="7.632540000">
        <ele>70.0</ele>
        <time>2017-04-29T05:32:04</time>
        <extensions><speed>1.29</speed></extensions>
      </trkpt>
      <trkpt lat="51.846935000" lon="7.632560000">
        <ele>70.0</ele>
        <time>2017-04-29T05:32:05</time>
        <extensions><speed>1.32</speed></extensions>
      </trkpt>
      <trkpt lat="51.846935000" lon="7.632582000">
        <ele>70.0</ele>
        <time>2017-04-29T05:32:06</time>
        <extensions><speed>1.32</speed></extensions>
      </trkpt>
      <trkpt lat="51.846935000" lon="7.632605000">
        <ele>70.0</ele>
        <time>2017-04-29T05:32:07</time>
        <extensions><speed>1.31</speed></extensions>
      </trkpt>
      <trkpt lat="51.846935000" lon="7.632628000">
        <ele>70.0</ele>
        <time>2017-04-29T05:32:08</time>
        <extensions><speed>1.35</speed></extensions>
      </trkpt>
      <trkpt lat="51.846935000" lon="7.632650000">
        <ele>70.0</ele>
        <time>2017-04-29T05:32:09</time>
        <extensions><speed>1.37</speed></extensions>
      </trkpt>
      <trkpt lat="51.846939000" lon="7.632668000">
        <ele>70.0</ele>
        <time>2017-04-29T05:32:10</time>
        <extensions><speed>1.41</speed></extensions>
      </trkpt>
      <trkpt lat="51.846939000" lon="7.632687000">
        <ele>70.0</ele>
        <time>2017-04-29T05:32:11</time>
        <extensions><speed>1.39</speed></extensions>
      </trkpt>
      <trkpt lat="51.846939000" lon="7.632705000">
        <ele>70.0</ele>
        <time>2017-04-29T05:32:12</time>
        <extensions><speed>1.37</speed></extensions>
      </trkpt>
      <trkpt lat="51.846939000" lon="7.632725000">
        <ele>70.0</ele>
        <time>2017-04-29T05:32:13</time>
        <extensions><speed>1.40</speed></extensions>
      </trkpt>
      <trkpt lat="51.846943000" lon="7.632741000">
        <ele>70.0</ele>
        <time>2017-04-29T05:32:14</time>
        <extensions><speed>1.36</speed></extensions>
      </trkpt>
      <trkpt lat="51.846947000" lon="7.632762000">
        <ele>70.0</ele>
        <time>2017-04-29T05:32:15</time>
        <extensions><speed>1.32</speed></extensions>
      </trkpt>
      <trkpt lat="51.846947000" lon="7.632785000">
        <ele>70.0</ele>
        <time>2017-04-29T05:32:16</time>
        <extensions><speed>1.37</speed></extensions>
      </trkpt>
      <trkpt lat="51.846954000" lon="7.632803000">
        <ele>70.0</ele>
        <time>2017-04-29T05:32:17</time>
        <extensions><speed>1.37</speed></extensions>
      </trkpt>
      <trkpt lat="51.846954000" lon="7.632823000">
        <ele>70.0</ele>
        <time>2017-04-29T05:32:18</time>
        <extensions><speed>1.36</speed></extensions>
      </trkpt>
      <trkpt lat="51.846958000" lon="7.632840000">
        <ele>70.0</ele>
        <time>2017-04-29T05:32:19</time>
        <extensions><speed>1.34</speed></extensions>
      </trkpt>
      <trkpt lat="51.846962000" lon="7.632855000">
        <ele>70.0</ele>
        <time>2017-04-29T05:32:20</time>
        <extensions><speed>1.30</speed></extensions>
      </trkpt>
      <trkpt lat="51.846962000" lon="7.632873000">
        <ele>70.0</ele>
        <time>2017-04-29T05:32:21</time>
        <extensions><speed>1.30</speed></extensions>
      </trkpt>
      <trkpt lat="51.846966000" lon="7.632894000">
        <ele>70.0</ele>
        <time>2017-04-29T05:32:22</time>
        <extensions><speed>1.26</speed></extensions>
      </trkpt>
      <trkpt lat="51.846966000" lon="7.632911000">
        <ele>70.0</ele>
        <time>2017-04-29T05:32:23</time>
        <extensions><speed>1.24</speed></extensions>
      </trkpt>
      <trkpt lat="51.846962000" lon="7.632932000">
        <ele>70.0</ele>
        <time>2017-04-29T05:32:24</time>
        <extensions><speed>1.26</speed></extensions>
      </trkpt>
      <trkpt lat="51.846962000" lon="7.632953000">
        <ele>70.0</ele>
        <time>2017-04-29T05:32:25</time>
        <extensions><speed>1.26</speed></extensions>
      </trkpt>
      <trkpt lat="51.846970000" lon="7.632970000">
        <ele>70.0</ele>
        <time>2017-04-29T05:32:26</time>
        <extensions><speed>1.26</speed></extensions>
      </trkpt>
      <trkpt lat="51.846977000" lon="7.632987000">
        <ele>70.0</ele>
        <time>2017-04-29T05:32:27</time>
        <extensions><speed>1.29</speed></extensions>
      </trkpt>
      <trkpt lat="51.846981000" lon="7.633000000">
        <ele>70.0</ele>
        <time>2017-04-29T05:32:28</time>
        <extensions><speed>1.31</speed></extensions>
      </trkpt>
      <trkpt lat="51.846985000" lon="7.633021000">
        <ele>70.0</ele>
        <time>2017-04-29T05:32:29</time>
        <extensions><speed>1.33</speed></extensions>
      </trkpt>
      <trkpt lat="51.846989000" lon="7.633040000">
        <ele>70.0</ele>
        <time>2017-04-29T05:32:30</time>
        <extensions><speed>1.34</speed></extensions>
      </trkpt>
      <trkpt lat="51.846992000" lon="7.633060000">
        <ele>70.0</ele>
        <time>2017-04-29T05:32:31</time>
        <extensions><speed>1.32</speed></extensions>
      </trkpt>
      <trkpt lat="51.847000000" lon="7.633080000">
        <ele>70.0</ele>
        <time>2017-04-29T05:32:32</time>
        <extensions><speed>1.32</speed></extensions>
      </trkpt>
      <trkpt lat="51.847004000" lon="7.633100000">
        <ele>70.0</ele>
        <time>2017-04-29T05:32:33</time>
        <extensions><speed>1.34</speed></extensions>
      </trkpt>
      <trkpt lat="51.847004000" lon="7.633121000">
        <ele>70.0</ele>
        <time>2017-04-29T05:32:34</time>
        <extensions><speed>1.34</speed></extensions>
      </trkpt>
      <trkpt lat="51.847008000" lon="7.633143000">
        <ele>70.0</ele>
        <time>2017-04-29T05:32:35</time>
        <extensions><speed>1.38</speed></extensions>
      </trkpt>
      <trkpt lat="51.847012000" lon="7.633163000">
        <ele>70.0</ele>
        <time>2017-04-29T05:32:36</time>
        <extensions><speed>1.42</speed></extensions>
      </trkpt>
      <trkpt lat="51.847023000" lon="7.633179000">
        <ele>70.0</ele>
        <time>2017-04-29T05:32:37</time>
        <extensions><speed>1.43</speed></extensions>
      </trkpt>
      <trkpt lat="51.847019000" lon="7.633182000">
        <ele>70.0</ele>
        <time>2017-04-29T05:32:38</time>
      </trkpt>
      <trkpt lat="51.847065000" lon="7.633368000">
        <ele>70.0</ele>
        <time>2017-04-29T05:33:44</time>
      </trkpt>
      <trkpt lat="51.847061000" lon="7.633391000">
        <ele>70.0</ele>
        <time>2017-04-29T05:33:46</time>
        <extensions><speed>1.46</speed></extensions>
      </trkpt>
      <trkpt lat="51.847061000" lon="7.633413000">
        <ele>70.0</ele>
        <time>2017-04-29T05:33:47</time>
        <extensions><speed>1.46</speed></extensions>
      </trkpt>
      <trkpt lat="51.847065000" lon="7.633431000">
        <ele>70.0</ele>
        <time>2017-04-29T05:33:48</time>
        <extensions><speed>1.44</speed></extensions>
      </trkpt>
      <trkpt lat="51.847069000" lon="7.633452000">
        <ele>70.0</ele>
        <time>2017-04-29T05:33:49</time>
        <extensions><speed>1.44</speed></extensions>
      </trkpt>
      <trkpt lat="51.847073000" lon="7.633475000">
        <ele>70.0</ele>
        <time>2017-04-29T05:33:50</time>
        <extensions><speed>1.44</speed></extensions>
      </trkpt>
      <trkpt lat="51.847076000" lon="7.633496000">
        <ele>70.0</ele>
        <time>2017-04-29T05:33:51</time>
        <extensions><speed>1.42</speed></extensions>
      </trkpt>
      <trkpt lat="51.847076000" lon="7.633518000">
        <ele>70.0</ele>
        <time>2017-04-29T05:33:52</time>
        <extensions><speed>1.38</speed></extensions>
      </trkpt>
      <trkpt lat="51.847080000" lon="7.633536000">
        <ele>70.0</ele>
        <time>2017-04-29T05:33:53</time>
        <extensions><speed>1.34</speed></extensions>
      </trkpt>
      <trkpt lat="51.847084000" lon="7.633555000">
        <ele>70.0</ele>
        <time>2017-04-29T05:33:54</time>
        <extensions><speed>1.34</speed></extensions>
      </trkpt>
      <trkpt lat="51.847088000" lon="7.633576000">
        <ele>70.0</ele>
        <time>2017-04-29T05:33:55</time>
        <extensions><speed>1.40</speed></extensions>
      </trkpt>
      <trkpt lat="51.847092000" lon="7.633597000">
        <ele>70.0</ele>
        <time>2017-04-29T05:33:56</time>
        <extensions><speed>1.36</speed></extensions>
      </trkpt>
      <trkpt lat="51.847095000" lon="7.633615000">
        <ele>70.0</ele>
        <time>2017-04-29T05:33:57</time>
        <extensions><speed>1.43</speed></extensions>
      </trkpt>
      <trkpt lat="51.847095000" lon="7.633636000">
        <ele>70.0</ele>
        <time>2017-04-29T05:33:58</time>
        <extensions><speed>1.45</speed></extensions>
      </trkpt>
      <trkpt lat="51.847099000" lon="7.633655000">
        <ele>70.0</ele>
        <time>2017-04-29T05:33:59</time>
        <extensions><speed>1.39</speed></extensions>
      </trkpt>
      <trkpt lat="51.847103000" lon="7.633671000">
        <ele>70.0</ele>
        <time>2017-04-29T05:34:00</time>
        <extensions><speed>1.35</speed></extensions>
      </trkpt>
      <trkpt lat="51.847107000" lon="7.633690000">
        <ele>70.0</ele>
        <time>2017-04-29T05:34:01</time>
        <extensions><speed>1.40</speed></extensions>
      </trkpt>
      <trkpt lat="51.847107000" lon="7.633711000">
        <ele>70.0</ele>
        <time>2017-04-29T05:34:02</time>
        <extensions><speed>1.38</speed></extensions>
      </trkpt>
      <trkpt lat="51.847107000" lon="7.633734000">
        <ele>70.0</ele>
        <time>2017-04-29T05:34:03</time>
        <extensions><speed>1.36</speed></extensions>
      </trkpt>
      <trkpt lat="51.847111000" lon="7.633753000">
        <ele>70.0</ele>
        <time>2017-04-29T05:34:04</time>
        <extensions><speed>1.38</speed></extensions>
      </trkpt>
      <trkpt lat="51.847107000" lon="7.633770000">
        <ele>70.0</ele>
        <time>2017-04-29T05:34:05</time>
        <extensions><speed>1.42</speed></extensions>
      </trkpt>
      <trkpt lat="51.847107000" lon="7.633790000">
        <ele>70.0</ele>
        <time>2017-04-29T05:34:06</time>
        <extensions><speed>1.39</speed></extensions>
      </trkpt>
      <trkpt lat="51.847111000" lon="7.633805000">
        <ele>70.0</ele>
        <time>2017-04-29T05:34:07</time>
        <extensions><speed>1.33</speed></extensions>
      </trkpt>
      <trkpt lat="51.847118000" lon="7.633818000">
        <ele>70.0</ele>
        <time>2017-04-29T05:34:08</time>
        <extensions><speed>1.35</speed></extensions>
      </trkpt>
      <trkpt lat="51.847126000" lon="7.633837000">
        <ele>70.0</ele>
        <time>2017-04-29T05:34:09</time>
        <extensions><speed>1.38</speed></extensions>
      </trkpt>
      <trkpt lat="51.847130000" lon="7.633857000">
        <ele>70.0</ele>
        <time>2017-04-29T05:34:10</time>
        <extensions><speed>1.35</speed></extensions>
      </trkpt>
      <trkpt lat="51.847130000" lon="7.633880000">
        <ele>70.0</ele>
        <time>2017-04-29T05:34:11</time>
        <extensions><speed>1.38</speed></extensions>
      </trkpt>
      <trkpt lat="51.847134000" lon="7.633900000">
        <ele>70.0</ele>
        <time>2017-04-29T05:34:12</time>
        <extensions><speed>1.45</speed></extensions>
      </trkpt>
      <trkpt lat="51.847134000" lon="7.633922000">
        <ele>70.0</ele>
        <time>2017-04-29T05:34:13</time>
        <extensions><speed>1.50</speed></extensions>
      </trkpt>
      <trkpt lat="51.847137000" lon="7.633938000">
        <ele>70.0</ele>
        <time>2017-04-29T05:34:14</time>
        <extensions><speed>1.46</speed></extensions>
      </trkpt>
      <trkpt lat="51.847141000" lon="7.633955000">
        <ele>70.0</ele>
        <time>2017-04-29T05:34:15</time>
        <extensions><speed>1.44</speed></extensions>
      </trkpt>
      <trkpt lat="51.847141000" lon="7.633975000">
        <ele>70.0</ele>
        <time>2017-04-29T05:34:16</time>
        <extensions><speed>1.40</speed></extensions>
      </trkpt>
      <trkpt lat="51.847141000" lon="7.633998000">
        <ele>70.0</ele>
        <time>2017-04-29T05:34:17</time>
        <extensions><speed>1.33</speed></extensions>
      </trkpt>
      <trkpt lat="51.847149000" lon="7.634020000">
        <ele>70.0</ele>
        <time>2017-04-29T05:34:18</time>
        <extensions><speed>1.33</speed></extensions>
      </trkpt>
      <trkpt lat="51.847157000" lon="7.634042000">
        <ele>70.0</ele>
        <time>2017-04-29T05:34:19</time>
        <extensions><speed>1.37</speed></extensions>
      </trkpt>
      <trkpt lat="51.847160000" lon="7.634060000">
        <ele>70.0</ele>
        <time>2017-04-29T05:34:20</time>
        <extensions><speed>1.39</speed></extensions>
      </trkpt>
      <trkpt lat="51.847164000" lon="7.634080000">
        <ele>70.0</ele>
        <time>2017-04-29T05:34:21</time>
        <extensions><speed>1.39</speed></extensions>
      </trkpt>
      <trkpt lat="51.847164000" lon="7.634097000">
        <ele>70.0</ele>
        <time>2017-04-29T05:34:22</time>
        <extensions><speed>1.35</speed></extensions>
      </trkpt>
      <trkpt lat="51.847168000" lon="7.634115000">
        <ele>70.0</ele>
        <time>2017-04-29T05:34:23</time>
        <extensions><speed>1.28</speed></extensions>
      </trkpt>
      <trkpt lat="51.847168000" lon="7.634137000">
        <ele>70.0</ele>
        <time>2017-04-29T05:34:24</time>
        <extensions><speed>1.27</speed></extensions>
      </trkpt>
      <trkpt lat="51.847172000" lon="7.634157000">
        <ele>70.0</ele>
        <time>2017-04-29T05:34:25</time>
        <extensions><speed>1.27</speed></extensions>
      </trkpt>
      <trkpt lat="51.847176000" lon="7.634173000">
        <ele>70.0</ele>
        <time>2017-04-29T05:34:26</time>
        <extensions><speed>1.27</speed></extensions>
      </trkpt>
      <trkpt lat="51.847176000" lon="7.634191000">
        <ele>70.0</ele>
        <time>2017-04-29T05:34:27</time>
        <extensions><speed>1.26</speed></extensions>
      </trkpt>
      <trkpt lat="51.847183000" lon="7.634210000">
        <ele>70.0</ele>
        <time>2017-04-29T05:34:28</time>
        <extensions><speed>1.30</speed></extensions>
      </trkpt>
      <trkpt lat="51.847187000" lon="7.634230000">
        <ele>70.0</ele>
        <time>2017-04-29T05:34:29</time>
        <extensions><speed>1.28</speed></extensions>
      </trkpt>
      <trkpt lat="51.847195000" lon="7.634247000">
        <ele>70.0</ele>
        <time>2017-04-29T05:34:30</time>
        <extensions><speed>1.26</speed></extensions>
      </trkpt>
      <trkpt lat="51.847198000" lon="7.634264000">
        <ele>70.0</ele>
        <time>2017-04-29T05:34:31</time>
        <extensions><speed>1.28</speed></extensions>
      </trkpt>
      <trkpt lat="51.847206000" lon="7.634284000">
        <ele>70.0</ele>
        <time>2017-04-29T05:34:32</time>
        <extensions><speed>1.35</speed></extensions>
      </trkpt>
      <trkpt lat="51.847206000" lon="7.634298000">
        <ele>70.0</ele>
        <time>2017-04-29T05:34:33</time>
        <extensions><speed>1.30</speed></extensions>
      </trkpt>
      <trkpt lat="51.847214000" lon="7.634315000">
        <ele>70.0</ele>
        <time>2017-04-29T05:34:34</time>
        <extensions><speed>1.31</speed></extensions>
      </trkpt>
      <trkpt lat="51.847218000" lon="7.634333000">
        <ele>70.0</ele>
        <time>2017-04-29T05:34:35</time>
        <extensions><speed>1.34</speed></extensions>
      </trkpt>
      <trkpt lat="51.847221000" lon="7.634354000">
        <ele>70.0</ele>
        <time>2017-04-29T05:34:36</time>
        <extensions><speed>1.35</speed></extensions>
      </trkpt>
      <trkpt lat="51.847225000" lon="7.634373000">
        <ele>70.0</ele>
        <time>2017-04-29T05:34:37</time>
        <extensions><speed>1.35</speed></extensions>
      </trkpt>
      <trkpt lat="51.847229000" lon="7.634394000">
        <ele>70.0</ele>
        <time>2017-04-29T05:34:38</time>
        <extensions><speed>1.36</speed></extensions>
      </trkpt>
      <trkpt lat="51.847233000" lon="7.634411000">
        <ele>70.0</ele>
        <time>2017-04-29T05:34:39</time>
        <extensions><speed>1.36</speed></extensions>
      </trkpt>
      <trkpt lat="51.847237000" lon="7.634430000">
        <ele>70.0</ele>
        <time>2017-04-29T05:34:40</time>
        <extensions><speed>1.34</speed></extensions>
      </trkpt>
      <trkpt lat="51.847240000" lon="7.634447000">
        <ele>70.0</ele>
        <time>2017-04-29T05:34:41</time>
        <extensions><speed>1.33</speed></extensions>
      </trkpt>
      <trkpt lat="51.847244000" lon="7.634467000">
        <ele>70.0</ele>
        <time>2017-04-29T05:34:42</time>
        <extensions><speed>1.33</speed></extensions>
      </trkpt>
      <trkpt lat="51.847248000" lon="7.634483000">
        <ele>70.0</ele>
        <time>2017-04-29T05:34:43</time>
        <extensions><speed>1.29</speed></extensions>
      </trkpt>
      <trkpt lat="51.847256000" lon="7.634501000">
        <ele>70.0</ele>
        <time>2017-04-29T05:34:44</time>
        <extensions><speed>1.25</speed></extensions>
      </trkpt>
      <trkpt lat="51.847263000" lon="7.634517000">
        <ele>70.0</ele>
        <time>2017-04-29T05:34:45</time>
        <extensions><speed>1.30</speed></extensions>
      </trkpt>
      <trkpt lat="51.847271000" lon="7.634533000">
        <ele>70.0</ele>
        <time>2017-04-29T05:34:46</time>
        <extensions><speed>1.35</speed></extensions>
      </trkpt>
      <trkpt lat="51.847275000" lon="7.634550000">
        <ele>70.0</ele>
        <time>2017-04-29T05:34:47</time>
        <extensions><speed>1.30</speed></extensions>
      </trkpt>
      <trkpt lat="51.847279000" lon="7.634569000">
        <ele>70.0</ele>
        <time>2017-04-29T05:34:48</time>
        <extensions><speed>1.33</speed></extensions>
      </trkpt>
      <trkpt lat="51.847286000" lon="7.634588000">
        <ele>70.0</ele>
        <time>2017-04-29T05:34:49</time>
        <extensions><speed>1.33</speed></extensions>
      </trkpt>
      <trkpt lat="51.847294000" lon="7.634610000">
        <ele>70.0</ele>
        <time>2017-04-29T05:34:50</time>
        <extensions><speed>1.33</speed></extensions>
      </trkpt>
      <trkpt lat="51.847298000" lon="7.634630000">
        <ele>70.0</ele>
        <time>2017-04-29T05:34:51</time>
        <extensions><speed>1.32</speed></extensions>
      </trkpt>
      <trkpt lat="51.847301000" lon="7.634650000">
        <ele>70.0</ele>
        <time>2017-04-29T05:34:52</time>
        <extensions><speed>1.35</speed></extensions>
      </trkpt>
      <trkpt lat="51.847305000" lon="7.634668000">
        <ele>70.0</ele>
        <time>2017-04-29T05:34:53</time>
        <extensions><speed>1.38</speed></extensions>
      </trkpt>
      <trkpt lat="51.847309000" lon="7.634690000">
        <ele>70.0</ele>
        <time>2017-04-29T05:34:54</time>
        <extensions><speed>1.41</speed></extensions>
      </trkpt>
      <trkpt lat="51.847317000" lon="7.634710000">
        <ele>70.0</ele>
        <time>2017-04-29T05:34:55</time>
        <extensions><speed>1.40</speed></extensions>
      </trkpt>
      <trkpt lat="51.847324000" lon="7.634728000">
        <ele>70.0</ele>
        <time>2017-04-29T05:34:56</time>
        <extensions><speed>1.40</speed></extensions>
      </trkpt>
      <trkpt lat="51.847328000" lon="7.634749000">
        <ele>70.0</ele>
        <time>2017-04-29T05:34:57</time>
        <extensions><speed>1.38</speed></extensions>
      </trkpt>
      <trkpt lat="51.847328000" lon="7.634768000">
        <ele>70.0</ele>
        <time>2017-04-29T05:34:58</time>
        <extensions><speed>1.37</speed></extensions>
      </trkpt>
      <trkpt lat="51.847332000" lon="7.634786000">
        <ele>70.0</ele>
        <time>2017-04-29T05:34:59</time>
        <extensions><speed>1.37</speed></extensions>
      </trkpt>
      <trkpt lat="51.847336000" lon="7.634807000">
        <ele>70.0</ele>
        <time>2017-04-29T05:35:00</time>
        <extensions><speed>1.38</speed></extensions>
      </trkpt>
      <trkpt lat="51.847340000" lon="7.634827000">
        <ele>70.0</ele>
        <time>2017-04-29T05:35:01</time>
        <extensions><speed>1.40</speed></extensions>
      </trkpt>
      <trkpt lat="51.847347000" lon="7.634847000">
        <ele>70.0</ele>
        <time>2017-04-29T05:35:02</time>
        <extensions><speed>1.42</speed></extensions>
      </trkpt>
      <trkpt lat="51.847351000" lon="7.634865000">
        <ele>70.0</ele>
        <time>2017-04-29T05:35:03</time>
        <extensions><speed>1.42</speed></extensions>
      </trkpt>
      <trkpt lat="51.847355000" lon="7.634885000">
        <ele>70.0</ele>
        <time>2017-04-29T05:35:04</time>
        <extensions><speed>1.41</speed></extensions>
      </trkpt>
      <trkpt lat="51.847359000" lon="7.634903000">
        <ele>70.0</ele>
        <time>2017-04-29T05:35:05</time>
        <extensions><speed>1.37</speed></extensions>
      </trkpt>
      <trkpt lat="51.847366000" lon="7.634922000">
        <ele>70.0</ele>
        <time>2017-04-29T05:35:06</time>
        <extensions><speed>1.37</speed></extensions>
      </trkpt>
      <trkpt lat="51.847370000" lon="7.634940000">
        <ele>70.0</ele>
        <time>2017-04-29T05:35:07</time>
        <extensions><speed>1.35</speed></extensions>
      </trkpt>
      <trkpt lat="51.847378000" lon="7.634957000">
        <ele>70.0</ele>
        <time>2017-04-29T05:35:08</time>
        <extensions><speed>1.39</speed></extensions>
      </trkpt>
      <trkpt lat="51.847385000" lon="7.634975000">
        <ele>70.0</ele>
        <time>2017-04-29T05:35:09</time>
        <extensions><speed>1.36</speed></extensions>
      </trkpt>
      <trkpt lat="51.847389000" lon="7.634995000">
        <ele>70.0</ele>
        <time>2017-04-29T05:35:10</time>
        <extensions><speed>1.36</speed></extensions>
      </trkpt>
      <trkpt lat="51.847393000" lon="7.635015000">
        <ele>70.0</ele>
        <time>2017-04-29T05:35:11</time>
        <extensions><speed>1.36</speed></extensions>
      </trkpt>
      <trkpt lat="51.847401000" lon="7.635035000">
        <ele>70.0</ele>
        <time>2017-04-29T05:35:12</time>
        <extensions><speed>1.37</speed></extensions>
      </trkpt>
      <trkpt lat="51.847401000" lon="7.635055000">
        <ele>70.0</ele>
        <time>2017-04-29T05:35:13</time>
        <extensions><speed>1.38</speed></extensions>
      </trkpt>
      <trkpt lat="51.847404000" lon="7.635070000">
        <ele>70.0</ele>
        <time>2017-04-29T05:35:14</time>
        <extensions><speed>1.37</speed></extensions>
      </trkpt>
      <trkpt lat="51.847412000" lon="7.635083000">
        <ele>70.0</ele>
        <time>2017-04-29T05:35:15</time>
        <extensions><speed>1.40</speed></extensions>
      </trkpt>
      <trkpt lat="51.847416000" lon="7.635101000">
        <ele>70.0</ele>
        <time>2017-04-29T05:35:16</time>
        <extensions><speed>1.40</speed></extensions>
      </trkpt>
      <trkpt lat="51.847420000" lon="7.635124000">
        <ele>70.0</ele>
        <time>2017-04-29T05:35:17</time>
        <extensions><speed>1.39</speed></extensions>
      </trkpt>
      <trkpt lat="51.847427000" lon="7.635143000">
        <ele>70.0</ele>
        <time>2017-04-29T05:35:18</time>
        <extensions><speed>1.39</speed></extensions>
      </trkpt>
      <trkpt lat="51.847435000" lon="7.635162000">
        <ele>70.0</ele>
        <time>2017-04-29T05:35:19</time>
        <extensions><speed>1.40</speed></extensions>
      </trkpt>
      <trkpt lat="51.847435000" lon="7.635181000">
        <ele>70.0</ele>
        <time>2017-04-29T05:35:20</time>
        <extensions><speed>1.40</speed></extensions>
      </trkpt>
      <trkpt lat="51.847439000" lon="7.635199000">
        <ele>70.0</ele>
        <time>2017-04-29T05:35:21</time>
        <extensions><speed>1.38</speed></extensions>
      </trkpt>
      <trkpt lat="51.847439000" lon="7.635218000">
        <ele>70.0</ele>
        <time>2017-04-29T05:35:22</time>
        <extensions><speed>1.33</speed></extensions>
      </trkpt>
      <trkpt lat="51.847443000" lon="7.635238000">
        <ele>70.0</ele>
        <time>2017-04-29T05:35:23</time>
        <extensions><speed>1.31</speed></extensions>
      </trkpt>
      <trkpt lat="51.847450000" lon="7.635257000">
        <ele>70.0</ele>
        <time>2017-04-29T05:35:24</time>
        <extensions><speed>1.30</speed></extensions>
      </trkpt>
      <trkpt lat="51.847454000" lon="7.635275000">
        <ele>70.0</ele>
        <time>2017-04-29T05:35:25</time>
        <extensions><speed>1.31</speed></extensions>
      </trkpt>
      <trkpt lat="51.847462000" lon="7.635295000">
        <ele>70.0</ele>
        <time>2017-04-29T05:35:26</time>
        <extensions><speed>1.30</speed></extensions>
      </trkpt>
      <trkpt lat="51.847462000" lon="7.635315000">
        <ele>70.0</ele>
        <time>2017-04-29T05:35:27</time>
        <extensions><speed>1.31</speed></extensions>
      </trkpt>
      <trkpt lat="51.847466000" lon="7.635335000">
        <ele>70.0</ele>
        <time>2017-04-29T05:35:28</time>
        <extensions><speed>1.31</speed></extensions>
      </trkpt>
      <trkpt lat="51.847473000" lon="7.635353000">
        <ele>70.0</ele>
        <time>2017-04-29T05:35:29</time>
        <extensions><speed>1.32</speed></extensions>
      </trkpt>
      <trkpt lat="51.847481000" lon="7.635374000">
        <ele>70.0</ele>
        <time>2017-04-29T05:35:30</time>
        <extensions><speed>1.34</speed></extensions>
      </trkpt>
      <trkpt lat="51.847485000" lon="7.635392000">
        <ele>70.0</ele>
        <time>2017-04-29T05:35:31</time>
        <extensions><speed>1.35</speed></extensions>
      </trkpt>
      <trkpt lat="51.847492000" lon="7.635410000">
        <ele>70.0</ele>
        <time>2017-04-29T05:35:32</time>
        <extensions><speed>1.35</speed></extensions>
      </trkpt>
      <trkpt lat="51.847496000" lon="7.635428000">
        <ele>70.0</ele>
        <time>2017-04-29T05:35:33</time>
        <extensions><speed>1.35</speed></extensions>
      </trkpt>
      <trkpt lat="51.847500000" lon="7.635448000">
        <ele>70.0</ele>
        <time>2017-04-29T05:35:34</time>
        <extensions><speed>1.33</speed></extensions>
      </trkpt>
      <trkpt lat="51.847500000" lon="7.635468000">
        <ele>70.0</ele>
        <time>2017-04-29T05:35:35</time>
        <extensions><speed>1.31</speed></extensions>
      </trkpt>
      <trkpt lat="51.847504000" lon="7.635487000">
        <ele>70.0</ele>
        <time>2017-04-29T05:35:36</time>
        <extensions><speed>1.29</speed></extensions>
      </trkpt>
      <trkpt lat="51.847507000" lon="7.635502000">
        <ele>70.0</ele>
        <time>2017-04-29T05:35:37</time>
        <extensions><speed>1.27</speed></extensions>
      </trkpt>
      <trkpt lat="51.847511000" lon="7.635518000">
        <ele>70.0</ele>
        <time>2017-04-29T05:35:38</time>
        <extensions><speed>1.27</speed></extensions>
      </trkpt>
      <trkpt lat="51.847511000" lon="7.635540000">
        <ele>70.0</ele>
        <time>2017-04-29T05:35:39</time>
        <extensions><speed>1.31</speed></extensions>
      </trkpt>
      <trkpt lat="51.847515000" lon="7.635561000">
        <ele>70.0</ele>
        <time>2017-04-29T05:35:40</time>
        <extensions><speed>1.37</speed></extensions>
      </trkpt>
      <trkpt lat="51.847523000" lon="7.635584000">
        <ele>70.0</ele>
        <time>2017-04-29T05:35:41</time>
        <extensions><speed>1.41</speed></extensions>
      </trkpt>
      <trkpt lat="51.847530000" lon="7.635602000">
        <ele>70.0</ele>
        <time>2017-04-29T05:35:42</time>
        <extensions><speed>1.41</speed></extensions>
      </trkpt>
      <trkpt lat="51.847534000" lon="7.635621000">
        <ele>70.0</ele>
        <time>2017-04-29T05:35:43</time>
        <extensions><speed>1.43</speed></extensions>
      </trkpt>
      <trkpt lat="51.847542000" lon="7.635642000">
        <ele>70.0</ele>
        <time>2017-04-29T05:35:44</time>
        <extensions><speed>1.41</speed></extensions>
      </trkpt>
      <trkpt lat="51.847546000" lon="7.635658000">
        <ele>70.0</ele>
        <time>2017-04-29T05:35:45</time>
        <extensions><speed>1.36</speed></extensions>
      </trkpt>
      <trkpt lat="51.847553000" lon="7.635682000">
        <ele>70.0</ele>
        <time>2017-04-29T05:35:46</time>
        <extensions><speed>1.36</speed></extensions>
      </trkpt>
      <trkpt lat="51.847561000" lon="7.635705000">
        <ele>70.0</ele>
        <time>2017-04-29T05:35:47</time>
        <extensions><speed>1.43</speed></extensions>
      </trkpt>
      <trkpt lat="51.847565000" lon="7.635725000">
        <ele>70.0</ele>
        <time>2017-04-29T05:35:48</time>
        <extensions><speed>1.44</speed></extensions>
      </trkpt>
      <trkpt lat="51.847565000" lon="7.635747000">
        <ele>70.0</ele>
        <time>2017-04-29T05:35:49</time>
        <extensions><speed>1.48</speed></extensions>
      </trkpt>
      <trkpt lat="51.847572000" lon="7.635761000">
        <ele>70.0</ele>
        <time>2017-04-29T05:35:50</time>
        <extensions><speed>1.48</speed></extensions>
      </trkpt>
      <trkpt lat="51.847580000" lon="7.635780000">
        <ele>70.0</ele>
        <time>2017-04-29T05:35:51</time>
        <extensions><speed>1.48</speed></extensions>
      </trkpt>
      <trkpt lat="51.847588000" lon="7.635798000">
        <ele>70.0</ele>
        <time>2017-04-29T05:35:52</time>
        <extensions><speed>1.45</speed></extensions>
      </trkpt>
      <trkpt lat="51.847595000" lon="7.635815000">
        <ele>70.0</ele>
        <time>2017-04-29T05:35:53</time>
        <extensions><speed>1.40</speed></extensions>
      </trkpt>
      <trkpt lat="51.847603000" lon="7.635829000">
        <ele>70.0</ele>
        <time>2017-04-29T05:35:54</time>
        <extensions><speed>1.31</speed></extensions>
      </trkpt>
      <trkpt lat="51.847607000" lon="7.635845000">
        <ele>70.0</ele>
        <time>2017-04-29T05:35:55</time>
        <extensions><speed>1.22</speed></extensions>
      </trkpt>
      <trkpt lat="51.847614000" lon="7.635862000">
        <ele>70.0</ele>
        <time>2017-04-29T05:35:56</time>
        <extensions><speed>1.22</speed></extensions>
      </trkpt>
      <trkpt lat="51.847622000" lon="7.635880000">
        <ele>70.0</ele>
        <time>2017-04-29T05:35:57</time>
        <extensions><speed>1.23</speed></extensions>
      </trkpt>
      <trkpt lat="51.847626000" lon="7.635900000">
        <ele>70.0</ele>
        <time>2017-04-29T05:35:58</time>
        <extensions><speed>1.28</speed></extensions>
      </trkpt>
      <trkpt lat="51.847630000" lon="7.635920000">
        <ele>70.0</ele>
        <time>2017-04-29T05:35:59</time>
        <extensions><speed>1.35</speed></extensions>
      </trkpt>
      <trkpt lat="51.847630000" lon="7.635940000">
        <ele>70.0</ele>
        <time>2017-04-29T05:36:00</time>
        <extensions><speed>1.35</speed></extensions>
      </trkpt>
      <trkpt lat="51.847630000" lon="7.635959000">
        <ele>70.0</ele>
        <time>2017-04-29T05:36:01</time>
        <extensions><speed>1.29</speed></extensions>
      </trkpt>
      <trkpt lat="51.847633000" lon="7.635975000">
        <ele>70.0</ele>
        <time>2017-04-29T05:36:02</time>
        <extensions><speed>1.23</speed></extensions>
      </trkpt>
      <trkpt lat="51.847641000" lon="7.635993000">
        <ele>70.0</ele>
        <time>2017-04-29T05:36:03</time>
        <extensions><speed>1.19</speed></extensions>
      </trkpt>
      <trkpt lat="51.847645000" lon="7.636012000">
        <ele>70.0</ele>
        <time>2017-04-29T05:36:04</time>
        <extensions><speed>1.19</speed></extensions>
      </trkpt>
      <trkpt lat="51.847652000" lon="7.636029000">
        <ele>70.0</ele>
        <time>2017-04-29T05:36:05</time>
        <extensions><speed>1.23</speed></extensions>
      </trkpt>
      <trkpt lat="51.847656000" lon="7.636043000">
        <ele>70.0</ele>
        <time>2017-04-29T05:36:06</time>
        <extensions><speed>1.23</speed></extensions>
      </trkpt>
      <trkpt lat="51.847664000" lon="7.636058000">
        <ele>70.0</ele>
        <time>2017-04-29T05:36:07</time>
        <extensions><speed>1.27</speed></extensions>
      </trkpt>
      <trkpt lat="51.847672000" lon="7.636073000">
        <ele>70.0</ele>
        <time>2017-04-29T05:36:08</time>
        <extensions><speed>1.24</speed></extensions>
      </trkpt>
      <trkpt lat="51.847675000" lon="7.636088000">
        <ele>70.0</ele>
        <time>2017-04-29T05:36:09</time>
        <extensions><speed>1.19</speed></extensions>
      </trkpt>
      <trkpt lat="51.847679000" lon="7.636106000">
        <ele>70.0</ele>
        <time>2017-04-29T05:36:10</time>
        <extensions><speed>1.20</speed></extensions>
      </trkpt>
      <trkpt lat="51.847683000" lon="7.636123000">
        <ele>70.0</ele>
        <time>2017-04-29T05:36:11</time>
        <extensions><speed>1.22</speed></extensions>
      </trkpt>
      <trkpt lat="51.847691000" lon="7.636143000">
        <ele>70.0</ele>
        <time>2017-04-29T05:36:12</time>
        <extensions><speed>1.22</speed></extensions>
      </trkpt>
      <trkpt lat="51.847694000" lon="7.636168000">
        <ele>70.0</ele>
        <time>2017-04-29T05:36:13</time>
        <extensions><speed>1.26</speed></extensions>
      </trkpt>
      <trkpt lat="51.847698000" lon="7.636190000">
        <ele>70.0</ele>
        <time>2017-04-29T05:36:14</time>
        <extensions><speed>1.33</speed></extensions>
      </trkpt>
      <trkpt lat="51.847702000" lon="7.636210000">
        <ele>70.0</ele>
        <time>2017-04-29T05:36:15</time>
        <extensions><speed>1.39</speed></extensions>
      </trkpt>
      <trkpt lat="51.847710000" lon="7.636227000">
        <ele>70.0</ele>
        <time>2017-04-29T05:36:16</time>
        <extensions><speed>1.39</speed></extensions>
      </trkpt>
      <trkpt lat="51.847717000" lon="7.636242000">
        <ele>70.0</ele>
        <time>2017-04-29T05:36:17</time>
        <extensions><speed>1.45</speed></extensions>
      </trkpt>
      <trkpt lat="51.847729000" lon="7.636265000">
        <ele>70.0</ele>
        <time>2017-04-29T05:36:18</time>
        <extensions><speed>1.49</speed></extensions>
      </trkpt>
      <trkpt lat="51.847733000" lon="7.636283000">
        <ele>70.0</ele>
        <time>2017-04-29T05:36:19</time>
        <extensions><speed>1.52</speed></extensions>
      </trkpt>
      <trkpt lat="51.847740000" lon="7.636298000">
        <ele>70.0</ele>
        <time>2017-04-29T05:36:20</time>
        <extensions><speed>1.49</speed></extensions>
      </trkpt>
      <trkpt lat="51.847752000" lon="7.636316000">
        <ele>70.0</ele>
        <time>2017-04-29T05:36:21</time>
        <extensions><speed>1.54</speed></extensions>
      </trkpt>
      <trkpt lat="51.847759000" lon="7.636337000">
        <ele>70.0</ele>
        <time>2017-04-29T05:36:22</time>
        <extensions><speed>1.53</speed></extensions>
      </trkpt>
      <trkpt lat="51.847759000" lon="7.636356000">
        <ele>70.0</ele>
        <time>2017-04-29T05:36:23</time>
        <extensions><speed>1.48</speed></extensions>
      </trkpt>
      <trkpt lat="51.847763000" lon="7.636377000">
        <ele>70.0</ele>
        <time>2017-04-29T05:36:24</time>
        <extensions><speed>1.50</speed></extensions>
      </trkpt>
      <trkpt lat="51.847767000" lon="7.636396000">
        <ele>70.0</ele>
        <time>2017-04-29T05:36:25</time>
        <extensions><speed>1.48</speed></extensions>
      </trkpt>
      <trkpt lat="51.847775000" lon="7.636415000">
        <ele>70.0</ele>
        <time>2017-04-29T05:36:26</time>
        <extensions><speed>1.46</speed></extensions>
      </trkpt>
      <trkpt lat="51.847782000" lon="7.636433000">
        <ele>70.0</ele>
        <time>2017-04-29T05:36:27</time>
        <extensions><speed>1.46</speed></extensions>
      </trkpt>
      <trkpt lat="51.847790000" lon="7.636452000">
        <ele>70.0</ele>
        <time>2017-04-29T05:36:28</time>
        <extensions><speed>1.50</speed></extensions>
      </trkpt>
      <trkpt lat="51.847794000" lon="7.636468000">
        <ele>70.0</ele>
        <time>2017-04-29T05:36:29</time>
        <extensions><speed>1.44</speed></extensions>
      </trkpt>
      <trkpt lat="51.847797000" lon="7.636489000">
        <ele>70.0</ele>
        <time>2017-04-29T05:36:30</time>
        <extensions><speed>1.47</speed></extensions>
      </trkpt>
      <trkpt lat="51.847805000" lon="7.636512000">
        <ele>70.0</ele>
        <time>2017-04-29T05:36:31</time>
        <extensions><speed>1.47</speed></extensions>
      </trkpt>
      <trkpt lat="51.847809000" lon="7.636530000">
        <ele>70.0</ele>
        <time>2017-04-29T05:36:32</time>
        <extensions><speed>1.43</speed></extensions>
      </trkpt>
      <trkpt lat="51.847820000" lon="7.636543000">
        <ele>70.0</ele>
        <time>2017-04-29T05:36:33</time>
        <extensions><speed>1.44</speed></extensions>
      </trkpt>
      <trkpt lat="51.847828000" lon="7.636557000">
        <ele>70.0</ele>
        <time>2017-04-29T05:36:34</time>
        <extensions><speed>1.50</speed></extensions>
      </trkpt>
      <trkpt lat="51.847836000" lon="7.636571000">
        <ele>70.0</ele>
        <time>2017-04-29T05:36:35</time>
        <extensions><speed>1.47</speed></extensions>
      </trkpt>
      <trkpt lat="51.847839000" lon="7.636592000">
        <ele>70.0</ele>
        <time>2017-04-29T05:36:36</time>
        <extensions><speed>1.44</speed></extensions>
      </trkpt>
      <trkpt lat="51.847843000" lon="7.636611000">
        <ele>70.0</ele>
        <time>2017-04-29T05:36:37</time>
        <extensions><speed>1.45</speed></extensions>
      </trkpt>
      <trkpt lat="51.847843000" lon="7.636631000">
        <ele>70.0</ele>
        <time>2017-04-29T05:36:38</time>
        <extensions><speed>1.40</speed></extensions>
      </trkpt>
      <trkpt lat="51.847851000" lon="7.636650000">
        <ele>70.0</ele>
        <time>2017-04-29T05:36:39</time>
        <extensions><speed>1.40</speed></extensions>
      </trkpt>
      <trkpt lat="51.847858000" lon="7.636670000">
        <ele>70.0</ele>
        <time>2017-04-29T05:36:40</time>
        <extensions><speed>1.43</speed></extensions>
      </trkpt>
      <trkpt lat="51.847858000" lon="7.636687000">
        <ele>70.0</ele>
        <time>2017-04-29T05:36:41</time>
        <extensions><speed>1.42</speed></extensions>
      </trkpt>
      <trkpt lat="51.847862000" lon="7.636701000">
        <ele>70.0</ele>
        <time>2017-04-29T05:36:42</time>
        <extensions><speed>1.41</speed></extensions>
      </trkpt>
      <trkpt lat="51.847866000" lon="7.636718000">
        <ele>70.0</ele>
        <time>2017-04-29T05:36:43</time>
        <extensions><speed>1.41</speed></extensions>
      </trkpt>
      <trkpt lat="51.847874000" lon="7.636732000">
        <ele>70.0</ele>
        <time>2017-04-29T05:36:44</time>
        <extensions><speed>1.34</speed></extensions>
      </trkpt>
      <trkpt lat="51.847878000" lon="7.636748000">
        <ele>70.0</ele>
        <time>2017-04-29T05:36:45</time>
        <extensions><speed>1.33</speed></extensions>
      </trkpt>
      <trkpt lat="51.847881000" lon="7.636768000">
        <ele>70.0</ele>
        <time>2017-04-29T05:36:46</time>
        <extensions><speed>1.38</speed></extensions>
      </trkpt>
      <trkpt lat="51.847885000" lon="7.636788000">
        <ele>70.0</ele>
        <time>2017-04-29T05:36:47</time>
        <extensions><speed>1.38</speed></extensions>
      </trkpt>
      <trkpt lat="51.847889000" lon="7.636803000">
        <ele>70.0</ele>
        <time>2017-04-29T05:36:48</time>
        <extensions><speed>1.33</speed></extensions>
      </trkpt>
      <trkpt lat="51.847897000" lon="7.636811000">
        <ele>70.0</ele>
        <time>2017-04-29T05:36:49</time>
        <extensions><speed>1.31</speed></extensions>
      </trkpt>
      <trkpt lat="51.847908000" lon="7.636825000">
        <ele>70.0</ele>
        <time>2017-04-29T05:36:50</time>
        <extensions><speed>1.32</speed></extensions>
      </trkpt>
      <trkpt lat="51.847912000" lon="7.636838000">
        <ele>70.0</ele>
        <time>2017-04-29T05:36:51</time>
        <extensions><speed>1.26</speed></extensions>
      </trkpt>
      <trkpt lat="51.847916000" lon="7.636858000">
        <ele>70.0</ele>
        <time>2017-04-29T05:36:52</time>
        <extensions><speed>1.27</speed></extensions>
      </trkpt>
      <trkpt lat="51.847919000" lon="7.636881000">
        <ele>70.0</ele>
        <time>2017-04-29T05:36:53</time>
        <extensions><speed>1.34</speed></extensions>
      </trkpt>
      <trkpt lat="51.847923000" lon="7.636902000">
        <ele>70.0</ele>
        <time>2017-04-29T05:36:54</time>
        <extensions><speed>1.38</speed></extensions>
      </trkpt>
      <trkpt lat="51.847923000" lon="7.636918000">
        <ele>70.0</ele>
        <time>2017-04-29T05:36:55</time>
        <extensions><speed>1.36</speed></extensions>
      </trkpt>
      <trkpt lat="51.847927000" lon="7.636935000">
        <ele>70.0</ele>
        <time>2017-04-29T05:36:56</time>
        <extensions><speed>1.36</speed></extensions>
      </trkpt>
      <trkpt lat="51.847931000" lon="7.636950000">
        <ele>70.0</ele>
        <time>2017-04-29T05:36:57</time>
        <extensions><speed>1.35</speed></extensions>
      </trkpt>
      <trkpt lat="51.847939000" lon="7.636969000">
        <ele>70.0</ele>
        <time>2017-04-29T05:36:58</time>
        <extensions><speed>1.35</speed></extensions>
      </trkpt>
      <trkpt lat="51.847942000" lon="7.636992000">
        <ele>70.0</ele>
        <time>2017-04-29T05:36:59</time>
        <extensions><speed>1.32</speed></extensions>
      </trkpt>
      <trkpt lat="51.847942000" lon="7.637015000">
        <ele>70.0</ele>
        <time>2017-04-29T05:37:00</time>
        <extensions><speed>1.29</speed></extensions>
      </trkpt>
      <trkpt lat="51.847946000" lon="7.637039000">
        <ele>70.0</ele>
        <time>2017-04-29T05:37:01</time>
        <extensions><speed>1.29</speed></extensions>
      </trkpt>
      <trkpt lat="51.847954000" lon="7.637058000">
        <ele>70.0</ele>
        <time>2017-04-29T05:37:02</time>
        <extensions><speed>1.24</speed></extensions>
      </trkpt>
      <trkpt lat="51.847958000" lon="7.637077000">
        <ele>70.0</ele>
        <time>2017-04-29T05:37:03</time>
        <extensions><speed>1.24</speed></extensions>
      </trkpt>
      <trkpt lat="51.847958000" lon="7.637096000">
        <ele>70.0</ele>
        <time>2017-04-29T05:37:04</time>
        <extensions><speed>1.27</speed></extensions>
      </trkpt>
      <trkpt lat="51.847961000" lon="7.637114000">
        <ele>70.0</ele>
        <time>2017-04-29T05:37:05</time>
        <extensions><speed>1.20</speed></extensions>
      </trkpt>
      <trkpt lat="51.847965000" lon="7.637128000">
        <ele>70.0</ele>
        <time>2017-04-29T05:37:06</time>
        <extensions><speed>1.18</speed></extensions>
      </trkpt>
      <trkpt lat="51.847973000" lon="7.637146000">
        <ele>69.9</ele>
        <time>2017-04-29T05:37:07</time>
        <extensions><speed>1.26</speed></extensions>
      </trkpt>
      <trkpt lat="51.847977000" lon="7.637163000">
        <ele>69.9</ele>
        <time>2017-04-29T05:37:08</time>
        <extensions><speed>1.18</speed></extensions>
      </trkpt>
      <trkpt lat="51.847977000" lon="7.637184000">
        <ele>69.9</ele>
        <time>2017-04-29T05:37:09</time>
        <extensions><speed>1.17</speed></extensions>
      </trkpt>
      <trkpt lat="51.847980000" lon="7.637200000">
        <ele>69.9</ele>
        <time>2017-04-29T05:37:10</time>
        <extensions><speed>1.23</speed></extensions>
      </trkpt>
      <trkpt lat="51.847984000" lon="7.637221000">
        <ele>69.9</ele>
        <time>2017-04-29T05:37:11</time>
        <extensions><speed>1.32</speed></extensions>
      </trkpt>
      <trkpt lat="51.847988000" lon="7.637245000">
        <ele>69.9</ele>
        <time>2017-04-29T05:37:12</time>
        <extensions><speed>1.29</speed></extensions>
      </trkpt>
      <trkpt lat="51.847992000" lon="7.637261000">
        <ele>69.9</ele>
        <time>2017-04-29T05:37:13</time>
        <extensions><speed>1.29</speed></extensions>
      </trkpt>
      <trkpt lat="51.847992000" lon="7.637280000">
        <ele>69.9</ele>
        <time>2017-04-29T05:37:14</time>
        <extensions><speed>1.20</speed></extensions>
      </trkpt>
      <trkpt lat="51.848011000" lon="7.637298000">
        <ele>69.9</ele>
        <time>2017-04-29T05:37:15</time>
        <extensions><speed>1.25</speed></extensions>
      </trkpt>
      <trkpt lat="51.848022000" lon="7.637317000">
        <ele>69.9</ele>
        <time>2017-04-29T05:37:16</time>
        <extensions><speed>1.25</speed></extensions>
      </trkpt>
      <trkpt lat="51.848022000" lon="7.637340000">
        <ele>69.9</ele>
        <time>2017-04-29T05:37:17</time>
        <extensions><speed>1.27</speed></extensions>
      </trkpt>
      <trkpt lat="51.848026000" lon="7.637363000">
        <ele>69.9</ele>
        <time>2017-04-29T05:37:18</time>
        <extensions><speed>1.31</speed></extensions>
      </trkpt>
      <trkpt lat="51.848034000" lon="7.637383000">
        <ele>69.9</ele>
        <time>2017-04-29T05:37:19</time>
        <extensions><speed>1.31</speed></extensions>
      </trkpt>
      <trkpt lat="51.848042000" lon="7.637402000">
        <ele>69.9</ele>
        <time>2017-04-29T05:37:20</time>
        <extensions><speed>1.26</speed></extensions>
      </trkpt>
      <trkpt lat="51.848045000" lon="7.637420000">
        <ele>69.9</ele>
        <time>2017-04-29T05:37:21</time>
        <extensions><speed>1.24</speed></extensions>
      </trkpt>
      <trkpt lat="51.848053000" lon="7.637436000">
        <ele>69.9</ele>
        <time>2017-04-29T05:37:22</time>
        <extensions><speed>1.24</speed></extensions>
      </trkpt>
      <trkpt lat="51.848053000" lon="7.637452000">
        <ele>69.8</ele>
        <time>2017-04-29T05:37:23</time>
        <extensions><speed>1.23</speed></extensions>
      </trkpt>
      <trkpt lat="51.848057000" lon="7.637468000">
        <ele>69.8</ele>
        <time>2017-04-29T05:37:24</time>
        <extensions><speed>1.26</speed></extensions>
      </trkpt>
      <trkpt lat="51.848064000" lon="7.637488000">
        <ele>69.8</ele>
        <time>2017-04-29T05:37:25</time>
        <extensions><speed>1.29</speed></extensions>
      </trkpt>
      <trkpt lat="51.848064000" lon="7.637506000">
        <ele>69.8</ele>
        <time>2017-04-29T05:37:26</time>
        <extensions><speed>1.27</speed></extensions>
      </trkpt>
      <trkpt lat="51.848072000" lon="7.637522000">
        <ele>69.8</ele>
        <time>2017-04-29T05:37:27</time>
        <extensions><speed>1.27</speed></extensions>
      </trkpt>
      <trkpt lat="51.848080000" lon="7.637540000">
        <ele>69.8</ele>
        <time>2017-04-29T05:37:28</time>
        <extensions><speed>1.27</speed></extensions>
      </trkpt>
      <trkpt lat="51.848083000" lon="7.637557000">
        <ele>69.8</ele>
        <time>2017-04-29T05:37:29</time>
        <extensions><speed>1.27</speed></extensions>
      </trkpt>
      <trkpt lat="51.848087000" lon="7.637573000">
        <ele>69.8</ele>
        <time>2017-04-29T05:37:30</time>
        <extensions><speed>1.24</speed></extensions>
      </trkpt>
      <trkpt lat="51.848095000" lon="7.637590000">
        <ele>69.8</ele>
        <time>2017-04-29T05:37:31</time>
        <extensions><speed>1.29</speed></extensions>
      </trkpt>
      <trkpt lat="51.848103000" lon="7.637610000">
        <ele>69.8</ele>
        <time>2017-04-29T05:37:32</time>
        <extensions><speed>1.34</speed></extensions>
      </trkpt>
      <trkpt lat="51.848110000" lon="7.637629000">
        <ele>69.8</ele>
        <time>2017-04-29T05:37:33</time>
        <extensions><speed>1.40</speed></extensions>
      </trkpt>
      <trkpt lat="51.848110000" lon="7.637643000">
        <ele>69.8</ele>
        <time>2017-04-29T05:37:34</time>
        <extensions><speed>1.30</speed></extensions>
      </trkpt>
      <trkpt lat="51.848110000" lon="7.637657000">
        <ele>69.7</ele>
        <time>2017-04-29T05:37:35</time>
        <extensions><speed>1.32</speed></extensions>
      </trkpt>
      <trkpt lat="51.848114000" lon="7.637676000">
        <ele>69.7</ele>
        <time>2017-04-29T05:37:36</time>
        <extensions><speed>1.36</speed></extensions>
      </trkpt>
      <trkpt lat="51.848118000" lon="7.637697000">
        <ele>69.7</ele>
        <time>2017-04-29T05:37:37</time>
        <extensions><speed>1.29</speed></extensions>
      </trkpt>
      <trkpt lat="51.848125000" lon="7.637716000">
        <ele>69.7</ele>
        <time>2017-04-29T05:37:38</time>
        <extensions><speed>1.30</speed></extensions>
      </trkpt>
      <trkpt lat="51.848133000" lon="7.637732000">
        <ele>69.7</ele>
        <time>2017-04-29T05:37:39</time>
        <extensions><speed>1.30</speed></extensions>
      </trkpt>
      <trkpt lat="51.848133000" lon="7.637744000">
        <ele>69.7</ele>
        <time>2017-04-29T05:37:40</time>
        <extensions><speed>1.29</speed></extensions>
      </trkpt>
      <trkpt lat="51.848137000" lon="7.637762000">
        <ele>69.7</ele>
        <time>2017-04-29T05:37:41</time>
        <extensions><speed>1.21</speed></extensions>
      </trkpt>
      <trkpt lat="51.848141000" lon="7.637783000">
        <ele>69.7</ele>
        <time>2017-04-29T05:37:42</time>
        <extensions><speed>1.17</speed></extensions>
      </trkpt>
      <trkpt lat="51.848148000" lon="7.637805000">
        <ele>69.7</ele>
        <time>2017-04-29T05:37:43</time>
        <extensions><speed>1.17</speed></extensions>
      </trkpt>
      <trkpt lat="51.848152000" lon="7.637822000">
        <ele>69.7</ele>
        <time>2017-04-29T05:37:44</time>
        <extensions><speed>1.24</speed></extensions>
      </trkpt>
      <trkpt lat="51.848156000" lon="7.637838000">
        <ele>69.7</ele>
        <time>2017-04-29T05:37:45</time>
        <extensions><speed>1.24</speed></extensions>
      </trkpt>
      <trkpt lat="51.848156000" lon="7.637860000">
        <ele>69.7</ele>
        <time>2017-04-29T05:37:46</time>
        <extensions><speed>1.31</speed></extensions>
      </trkpt>
      <trkpt lat="51.848160000" lon="7.637883000">
        <ele>69.7</ele>
        <time>2017-04-29T05:37:47</time>
        <extensions><speed>1.35</speed></extensions>
      </trkpt>
      <trkpt lat="51.848167000" lon="7.637907000">
        <ele>69.7</ele>
        <time>2017-04-29T05:37:48</time>
        <extensions><speed>1.35</speed></extensions>
      </trkpt>
      <trkpt lat="51.848179000" lon="7.637928000">
        <ele>69.7</ele>
        <time>2017-04-29T05:37:49</time>
        <extensions><speed>1.39</speed></extensions>
      </trkpt>
      <trkpt lat="51.848186000" lon="7.637949000">
        <ele>69.7</ele>
        <time>2017-04-29T05:37:50</time>
        <extensions><speed>1.39</speed></extensions>
      </trkpt>
      <trkpt lat="51.848194000" lon="7.637972000">
        <ele>69.6</ele>
        <time>2017-04-29T05:37:51</time>
        <extensions><speed>1.39</speed></extensions>
      </trkpt>
      <trkpt lat="51.848202000" lon="7.637995000">
        <ele>69.6</ele>
        <time>2017-04-29T05:37:52</time>
        <extensions><speed>1.44</speed></extensions>
      </trkpt>
      <trkpt lat="51.848209000" lon="7.638013000">
        <ele>69.6</ele>
        <time>2017-04-29T05:37:53</time>
        <extensions><speed>1.49</speed></extensions>
      </trkpt>
      <trkpt lat="51.848217000" lon="7.638031000">
        <ele>69.6</ele>
        <time>2017-04-29T05:37:54</time>
        <extensions><speed>1.55</speed></extensions>
      </trkpt>
      <trkpt lat="51.848225000" lon="7.638050000">
        <ele>69.6</ele>
        <time>2017-04-29T05:37:55</time>
        <extensions><speed>1.55</speed></extensions>
      </trkpt>
      <trkpt lat="51.848228000" lon="7.638068000">
        <ele>69.6</ele>
        <time>2017-04-29T05:37:56</time>
        <extensions><speed>1.42</speed></extensions>
      </trkpt>
      <trkpt lat="51.848236000" lon="7.638085000">
        <ele>69.6</ele>
        <time>2017-04-29T05:37:57</time>
        <extensions><speed>1.36</speed></extensions>
      </trkpt>
      <trkpt lat="51.848244000" lon="7.638100000">
        <ele>69.6</ele>
        <time>2017-04-29T05:37:58</time>
        <extensions><speed>1.24</speed></extensions>
      </trkpt>
      <trkpt lat="51.848251000" lon="7.638119000">
        <ele>69.6</ele>
        <time>2017-04-29T05:37:59</time>
        <extensions><speed>1.24</speed></extensions>
      </trkpt>
      <trkpt lat="51.848259000" lon="7.638138000">
        <ele>69.6</ele>
        <time>2017-04-29T05:38:00</time>
        <extensions><speed>1.30</speed></extensions>
      </trkpt>
      <trkpt lat="51.848263000" lon="7.638159000">
        <ele>69.5</ele>
        <time>2017-04-29T05:38:01</time>
        <extensions><speed>1.29</speed></extensions>
      </trkpt>
      <trkpt lat="51.848267000" lon="7.638178000">
        <ele>69.5</ele>
        <time>2017-04-29T05:38:02</time>
        <extensions><speed>1.33</speed></extensions>
      </trkpt>
      <trkpt lat="51.848274000" lon="7.638200000">
        <ele>69.5</ele>
        <time>2017-04-29T05:38:03</time>
        <extensions><speed>1.40</speed></extensions>
      </trkpt>
      <trkpt lat="51.848274000" lon="7.638222000">
        <ele>69.5</ele>
        <time>2017-04-29T05:38:04</time>
        <extensions><speed>1.45</speed></extensions>
      </trkpt>
      <trkpt lat="51.848282000" lon="7.638240000">
        <ele>69.5</ele>
        <time>2017-04-29T05:38:05</time>
        <extensions><speed>1.45</speed></extensions>
      </trkpt>
      <trkpt lat="51.848289000" lon="7.638257000">
        <ele>69.5</ele>
        <time>2017-04-29T05:38:06</time>
        <extensions><speed>1.45</speed></extensions>
      </trkpt>
      <trkpt lat="51.848293000" lon="7.638273000">
        <ele>69.5</ele>
        <time>2017-04-29T05:38:07</time>
        <extensions><speed>1.43</speed></extensions>
      </trkpt>
      <trkpt lat="51.848293000" lon="7.638294000">
        <ele>69.5</ele>
        <time>2017-04-29T05:38:08</time>
        <extensions><speed>1.41</speed></extensions>
      </trkpt>
      <trkpt lat="51.848301000" lon="7.638313000">
        <ele>69.5</ele>
        <time>2017-04-29T05:38:09</time>
        <extensions><speed>1.34</speed></extensions>
      </trkpt>
      <trkpt lat="51.848305000" lon="7.638334000">
        <ele>69.5</ele>
        <time>2017-04-29T05:38:10</time>
        <extensions><speed>1.31</speed></extensions>
      </trkpt>
      <trkpt lat="51.848312000" lon="7.638347000">
        <ele>69.5</ele>
        <time>2017-04-29T05:38:11</time>
        <extensions><speed>1.29</speed></extensions>
      </trkpt>
      <trkpt lat="51.848316000" lon="7.638364000">
        <ele>69.5</ele>
        <time>2017-04-29T05:38:12</time>
        <extensions><speed>1.25</speed></extensions>
      </trkpt>
      <trkpt lat="51.848324000" lon="7.638381000">
        <ele>69.4</ele>
        <time>2017-04-29T05:38:13</time>
        <extensions><speed>1.25</speed></extensions>
      </trkpt>
      <trkpt lat="51.848335000" lon="7.638402000">
        <ele>69.4</ele>
        <time>2017-04-29T05:38:14</time>
        <extensions><speed>1.28</speed></extensions>
      </trkpt>
      <trkpt lat="51.848335000" lon="7.638408000">
        <ele>69.4</ele>
        <time>2017-04-29T05:38:15</time>
      </trkpt>
      <trkpt lat="51.848343000" lon="7.638422000">
        <ele>69.4</ele>
        <time>2017-04-29T05:38:17</time>
        <extensions><speed>1.01</speed></extensions>
      </trkpt>
      <trkpt lat="51.848347000" lon="7.638430000">
        <ele>69.4</ele>
        <time>2017-04-29T05:38:18</time>
        <extensions><speed>1.02</speed></extensions>
      </trkpt>
      <trkpt lat="51.848358000" lon="7.638439000">
        <ele>69.4</ele>
        <time>2017-04-29T05:38:19</time>
        <extensions><speed>0.86</speed></extensions>
      </trkpt>
      <trkpt lat="51.848370000" lon="7.638446000">
        <ele>69.4</ele>
        <time>2017-04-29T05:38:20</time>
        <extensions><speed>1.12</speed></extensions>
      </trkpt>
      <trkpt lat="51.848381000" lon="7.638446000">
        <ele>69.4</ele>
        <time>2017-04-29T05:38:21</time>
        <extensions><speed>1.32</speed></extensions>
      </trkpt>
      <trkpt lat="51.848389000" lon="7.638446000">
        <ele>69.4</ele>
        <time>2017-04-29T05:38:22</time>
      </trkpt>
      <trkpt lat="51.848400000" lon="7.638439000">
        <ele>69.4</ele>
        <time>2017-04-29T05:38:24</time>
        <extensions><speed>1.16</speed></extensions>
      </trkpt>
      <trkpt lat="51.848412000" lon="7.638439000">
        <ele>69.3</ele>
        <time>2017-04-29T05:38:25</time>
        <extensions><speed>1.10</speed></extensions>
      </trkpt>
      <trkpt lat="51.848434000" lon="7.638443000">
        <ele>69.3</ele>
        <time>2017-04-29T05:38:26</time>
        <extensions><speed>1.10</speed></extensions>
      </trkpt>
      <trkpt lat="51.848450000" lon="7.638440000">
        <ele>69.3</ele>
        <time>2017-04-29T05:38:27</time>
        <extensions><speed>1.41</speed></extensions>
      </trkpt>
      <trkpt lat="51.848469000" lon="7.638429000">
        <ele>69.3</ele>
        <time>2017-04-29T05:38:28</time>
        <extensions><speed>1.51</speed></extensions>
      </trkpt>
      <trkpt lat="51.848476000" lon="7.638422000">
        <ele>69.3</ele>
        <time>2017-04-29T05:38:29</time>
        <extensions><speed>1.49</speed></extensions>
      </trkpt>
      <trkpt lat="51.848484000" lon="7.638415000">
        <ele>69.3</ele>
        <time>2017-04-29T05:38:30</time>
        <extensions><speed>1.47</speed></extensions>
      </trkpt>
      <trkpt lat="51.848499000" lon="7.638406000">
        <ele>69.3</ele>
        <time>2017-04-29T05:38:31</time>
        <extensions><speed>1.38</speed></extensions>
      </trkpt>
      <trkpt lat="51.848507000" lon="7.638401000">
        <ele>69.2</ele>
        <time>2017-04-29T05:38:32</time>
        <extensions><speed>1.25</speed></extensions>
      </trkpt>
      <trkpt lat="51.848515000" lon="7.638390000">
        <ele>69.2</ele>
        <time>2017-04-29T05:38:33</time>
        <extensions><speed>1.13</speed></extensions>
      </trkpt>
      <trkpt lat="51.848526000" lon="7.638381000">
        <ele>69.2</ele>
        <time>2017-04-29T05:38:34</time>
        <extensions><speed>1.08</speed></extensions>
      </trkpt>
      <trkpt lat="51.848534000" lon="7.638371000">
        <ele>69.2</ele>
        <time>2017-04-29T05:38:35</time>
        <extensions><speed>1.00</speed></extensions>
      </trkpt>
      <trkpt lat="51.848541000" lon="7.638365000">
        <ele>69.2</ele>
        <time>2017-04-29T05:38:36</time>
        <extensions><speed>1.00</speed></extensions>
      </trkpt>
      <trkpt lat="51.848549000" lon="7.638355000">
        <ele>69.1</ele>
        <time>2017-04-29T05:38:37</time>
        <extensions><speed>1.08</speed></extensions>
      </trkpt>
      <trkpt lat="51.848560000" lon="7.638347000">
        <ele>69.1</ele>
        <time>2017-04-29T05:38:38</time>
        <extensions><speed>1.17</speed></extensions>
      </trkpt>
      <trkpt lat="51.848576000" lon="7.638341000">
        <ele>69.1</ele>
        <time>2017-04-29T05:38:39</time>
        <extensions><speed>1.28</speed></extensions>
      </trkpt>
      <trkpt lat="51.848591000" lon="7.638335000">
        <ele>69.1</ele>
        <time>2017-04-29T05:38:40</time>
        <extensions><speed>1.37</speed></extensions>
      </trkpt>
      <trkpt lat="51.848602000" lon="7.638329000">
        <ele>69.1</ele>
        <time>2017-04-29T05:38:41</time>
        <extensions><speed>1.27</speed></extensions>
      </trkpt>
      <trkpt lat="51.848614000" lon="7.638323000">
        <ele>69.1</ele>
        <time>2017-04-29T05:38:42</time>
        <extensions><speed>1.26</speed></extensions>
      </trkpt>
      <trkpt lat="51.848629000" lon="7.638319000">
        <ele>69.1</ele>
        <time>2017-04-29T05:38:43</time>
        <extensions><speed>1.22</speed></extensions>
      </trkpt>
      <trkpt lat="51.848640000" lon="7.638305000">
        <ele>69.0</ele>
        <time>2017-04-29T05:38:44</time>
        <extensions><speed>1.22</speed></extensions>
      </trkpt>
      <trkpt lat="51.848652000" lon="7.638294000">
        <ele>69.0</ele>
        <time>2017-04-29T05:38:45</time>
        <extensions><speed>1.16</speed></extensions>
      </trkpt>
      <trkpt lat="51.848667000" lon="7.638287000">
        <ele>69.0</ele>
        <time>2017-04-29T05:38:46</time>
        <extensions><speed>1.22</speed></extensions>
      </trkpt>
      <trkpt lat="51.848675000" lon="7.638278000">
        <ele>69.0</ele>
        <time>2017-04-29T05:38:47</time>
        <extensions><speed>1.23</speed></extensions>
      </trkpt>
      <trkpt lat="51.848682000" lon="7.638271000">
        <ele>69.0</ele>
        <time>2017-04-29T05:38:48</time>
        <extensions><speed>1.25</speed></extensions>
      </trkpt>
      <trkpt lat="51.848694000" lon="7.638262000">
        <ele>69.0</ele>
        <time>2017-04-29T05:38:49</time>
        <extensions><speed>1.25</speed></extensions>
      </trkpt>
      <trkpt lat="51.848705000" lon="7.638250000">
        <ele>69.0</ele>
        <time>2017-04-29T05:38:50</time>
        <extensions><speed>1.34</speed></extensions>
      </trkpt>
      <trkpt lat="51.848721000" lon="7.638242000">
        <ele>69.0</ele>
        <time>2017-04-29T05:38:51</time>
        <extensions><speed>1.44</speed></extensions>
      </trkpt>
      <trkpt lat="51.848736000" lon="7.638233000">
        <ele>69.0</ele>
        <time>2017-04-29T05:38:52</time>
        <extensions><speed>1.49</speed></extensions>
      </trkpt>
      <trkpt lat="51.848747000" lon="7.638225000">
        <ele>69.0</ele>
        <time>2017-04-29T05:38:53</time>
        <extensions><speed>1.49</speed></extensions>
      </trkpt>
      <trkpt lat="51.848763000" lon="7.638222000">
        <ele>69.0</ele>
        <time>2017-04-29T05:38:54</time>
        <extensions><speed>1.41</speed></extensions>
      </trkpt>
      <trkpt lat="51.848774000" lon="7.638215000">
        <ele>69.0</ele>
        <time>2017-04-29T05:38:55</time>
        <extensions><speed>1.29</speed></extensions>
      </trkpt>
      <trkpt lat="51.848785000" lon="7.638205000">
        <ele>69.0</ele>
        <time>2017-04-29T05:38:56</time>
        <extensions><speed>1.27</speed></extensions>
      </trkpt>
      <trkpt lat="51.848797000" lon="7.638198000">
        <ele>69.0</ele>
        <time>2017-04-29T05:38:57</time>
        <extensions><speed>1.19</speed></extensions>
      </trkpt>
      <trkpt lat="51.848808000" lon="7.638188000">
        <ele>69.0</ele>
        <time>2017-04-29T05:38:58</time>
        <extensions><speed>1.20</speed></extensions>
      </trkpt>
      <trkpt lat="51.848820000" lon="7.638178000">
        <ele>69.0</ele>
        <time>2017-04-29T05:38:59</time>
        <extensions><speed>1.22</speed></extensions>
      </trkpt>
      <trkpt lat="51.848831000" lon="7.638166000">
        <ele>69.0</ele>
        <time>2017-04-29T05:39:00</time>
        <extensions><speed>1.26</speed></extensions>
      </trkpt>
      <trkpt lat="51.848835000" lon="7.638159000">
        <ele>69.0</ele>
        <time>2017-04-29T05:39:01</time>
        <extensions><speed>1.18</speed></extensions>
      </trkpt>
      <trkpt lat="51.848846000" lon="7.638148000">
        <ele>69.0</ele>
        <time>2017-04-29T05:39:02</time>
        <extensions><speed>1.17</speed></extensions>
      </trkpt>
      <trkpt lat="51.848854000" lon="7.638142000">
        <ele>69.0</ele>
        <time>2017-04-29T05:39:03</time>
        <extensions><speed>1.13</speed></extensions>
      </trkpt>
      <trkpt lat="51.848862000" lon="7.638136000">
        <ele>69.0</ele>
        <time>2017-04-29T05:39:04</time>
        <extensions><speed>1.01</speed></extensions>
      </trkpt>
      <trkpt lat="51.848869000" lon="7.638126000">
        <ele>69.0</ele>
        <time>2017-04-29T05:39:05</time>
        <extensions><speed>1.01</speed></extensions>
      </trkpt>
      <trkpt lat="51.848881000" lon="7.638108000">
        <ele>69.0</ele>
        <time>2017-04-29T05:39:06</time>
        <extensions><speed>1.17</speed></extensions>
      </trkpt>
      <trkpt lat="51.848896000" lon="7.638093000">
        <ele>69.0</ele>
        <time>2017-04-29T05:39:07</time>
        <extensions><speed>1.29</speed></extensions>
      </trkpt>
      <trkpt lat="51.848911000" lon="7.638085000">
        <ele>68.9</ele>
        <time>2017-04-29T05:39:08</time>
        <extensions><speed>1.48</speed></extensions>
      </trkpt>
      <trkpt lat="51.848930000" lon="7.638080000">
        <ele>68.9</ele>
        <time>2017-04-29T05:39:09</time>
        <extensions><speed>1.48</speed></extensions>
      </trkpt>
      <trkpt lat="51.848942000" lon="7.638075000">
        <ele>68.9</ele>
        <time>2017-04-29T05:39:10</time>
        <extensions><speed>1.46</speed></extensions>
      </trkpt>
      <trkpt lat="51.848949000" lon="7.638070000">
        <ele>68.9</ele>
        <time>2017-04-29T05:39:11</time>
      </trkpt>
      <trkpt lat="51.848965000" lon="7.638062000">
        <ele>68.9</ele>
        <time>2017-04-29T05:39:13</time>
        <extensions><speed>1.18</speed></extensions>
      </trkpt>
      <trkpt lat="51.848976000" lon="7.638054000">
        <ele>68.9</ele>
        <time>2017-04-29T05:39:14</time>
        <extensions><speed>1.18</speed></extensions>
      </trkpt>
      <trkpt lat="51.848984000" lon="7.638045000">
        <ele>68.9</ele>
        <time>2017-04-29T05:39:15</time>
        <extensions><speed>0.95</speed></extensions>
      </trkpt>
      <trkpt lat="51.848995000" lon="7.638035000">
        <ele>68.9</ele>
        <time>2017-04-29T05:39:16</time>
        <extensions><speed>1.21</speed></extensions>
      </trkpt>
      <trkpt lat="51.849010000" lon="7.638021000">
        <ele>68.9</ele>
        <time>2017-04-29T05:39:17</time>
        <extensions><speed>1.41</speed></extensions>
      </trkpt>
      <trkpt lat="51.849022000" lon="7.638009000">
        <ele>68.9</ele>
        <time>2017-04-29T05:39:18</time>
        <extensions><speed>1.46</speed></extensions>
      </trkpt>
      <trkpt lat="51.849033000" lon="7.638000000">
        <ele>68.9</ele>
        <time>2017-04-29T05:39:19</time>
        <extensions><speed>1.45</speed></extensions>
      </trkpt>
      <trkpt lat="51.849045000" lon="7.637995000">
        <ele>68.9</ele>
        <time>2017-04-29T05:39:20</time>
        <extensions><speed>1.45</speed></extensions>
      </trkpt>
      <trkpt lat="51.849056000" lon="7.637988000">
        <ele>68.8</ele>
        <time>2017-04-29T05:39:21</time>
        <extensions><speed>1.33</speed></extensions>
      </trkpt>
      <trkpt lat="51.849068000" lon="7.637980000">
        <ele>68.8</ele>
        <time>2017-04-29T05:39:22</time>
        <extensions><speed>1.33</speed></extensions>
      </trkpt>
      <trkpt lat="51.849083000" lon="7.637970000">
        <ele>68.8</ele>
        <time>2017-04-29T05:39:23</time>
        <extensions><speed>1.28</speed></extensions>
      </trkpt>
      <trkpt lat="51.849094000" lon="7.637961000">
        <ele>68.8</ele>
        <time>2017-04-29T05:39:24</time>
        <extensions><speed>1.21</speed></extensions>
      </trkpt>
      <trkpt lat="51.849102000" lon="7.637951000">
        <ele>68.8</ele>
        <time>2017-04-29T05:39:25</time>
        <extensions><speed>1.19</speed></extensions>
      </trkpt>
      <trkpt lat="51.849110000" lon="7.637938000">
        <ele>68.8</ele>
        <time>2017-04-29T05:39:26</time>
        <extensions><speed>1.12</speed></extensions>
      </trkpt>
      <trkpt lat="51.849121000" lon="7.637927000">
        <ele>68.7</ele>
        <time>2017-04-29T05:39:27</time>
        <extensions><speed>1.12</speed></extensions>
      </trkpt>
      <trkpt lat="51.849133000" lon="7.637916000">
        <ele>68.7</ele>
        <time>2017-04-29T05:39:28</time>
        <extensions><speed>1.17</speed></extensions>
      </trkpt>
      <trkpt lat="51.849152000" lon="7.637903000">
        <ele>68.7</ele>
        <time>2017-04-29T05:39:29</time>
        <extensions><speed>1.22</speed></extensions>
      </trkpt>
      <trkpt lat="51.849163000" lon="7.637891000">
        <ele>68.7</ele>
        <time>2017-04-29T05:39:30</time>
        <extensions><speed>1.32</speed></extensions>
      </trkpt>
      <trkpt lat="51.849182000" lon="7.637883000">
        <ele>68.7</ele>
        <time>2017-04-29T05:39:31</time>
        <extensions><speed>1.47</speed></extensions>
      </trkpt>
      <trkpt lat="51.849197000" lon="7.637874000">
        <ele>68.7</ele>
        <time>2017-04-29T05:39:32</time>
        <extensions><speed>1.61</speed></extensions>
      </trkpt>
      <trkpt lat="51.849213000" lon="7.637863000">
        <ele>68.6</ele>
        <time>2017-04-29T05:39:33</time>
        <extensions><speed>1.63</speed></extensions>
      </trkpt>
      <trkpt lat="51.849228000" lon="7.637853000">
        <ele>68.6</ele>
        <time>2017-04-29T05:39:34</time>
        <extensions><speed>1.63</speed></extensions>
      </trkpt>
      <trkpt lat="51.849236000" lon="7.637844000">
        <ele>68.6</ele>
        <time>2017-04-29T05:39:35</time>
        <extensions><speed>1.47</speed></extensions>
      </trkpt>
      <trkpt lat="51.849247000" lon="7.637835000">
        <ele>68.6</ele>
        <time>2017-04-29T05:39:36</time>
        <extensions><speed>1.32</speed></extensions>
      </trkpt>
      <trkpt lat="51.849258000" lon="7.637826000">
        <ele>68.5</ele>
        <time>2017-04-29T05:39:37</time>
        <extensions><speed>1.23</speed></extensions>
      </trkpt>
      <trkpt lat="51.849266000" lon="7.637815000">
        <ele>68.5</ele>
        <time>2017-04-29T05:39:38</time>
        <extensions><speed>1.20</speed></extensions>
      </trkpt>
      <trkpt lat="51.849277000" lon="7.637805000">
        <ele>68.5</ele>
        <time>2017-04-29T05:39:39</time>
        <extensions><speed>1.16</speed></extensions>
      </trkpt>
      <trkpt lat="51.849281000" lon="7.637802000">
        <ele>68.5</ele>
        <time>2017-04-29T05:39:40</time>
        <extensions><speed>1.05</speed></extensions>
      </trkpt>
      <trkpt lat="51.849293000" lon="7.637793000">
        <ele>68.4</ele>
        <time>2017-04-29T05:39:41</time>
        <extensions><speed>1.05</speed></extensions>
      </trkpt>
      <trkpt lat="51.849308000" lon="7.637783000">
        <ele>68.4</ele>
        <time>2017-04-29T05:39:42</time>
        <extensions><speed>1.13</speed></extensions>
      </trkpt>
      <trkpt lat="51.849327000" lon="7.637774000">
        <ele>68.4</ele>
        <time>2017-04-29T05:39:43</time>
        <extensions><speed>1.17</speed></extensions>
      </trkpt>
      <trkpt lat="51.849335000" lon="7.637764000">
        <ele>68.4</ele>
        <time>2017-04-29T05:39:44</time>
        <extensions><speed>1.35</speed></extensions>
      </trkpt>
      <trkpt lat="51.849346000" lon="7.637755000">
        <ele>68.4</ele>
        <time>2017-04-29T05:39:45</time>
        <extensions><speed>1.47</speed></extensions>
      </trkpt>
      <trkpt lat="51.849358000" lon="7.637750000">
        <ele>68.3</ele>
        <time>2017-04-29T05:39:46</time>
        <extensions><speed>1.44</speed></extensions>
      </trkpt>
      <trkpt lat="51.849369000" lon="7.637740000">
        <ele>68.3</ele>
        <time>2017-04-29T05:39:47</time>
        <extensions><speed>1.34</speed></extensions>
      </trkpt>
      <trkpt lat="51.849384000" lon="7.637728000">
        <ele>68.3</ele>
        <time>2017-04-29T05:39:48</time>
        <extensions><speed>1.44</speed></extensions>
      </trkpt>
      <trkpt lat="51.849396000" lon="7.637722000">
        <ele>68.3</ele>
        <time>2017-04-29T05:39:49</time>
        <extensions><speed>1.46</speed></extensions>
      </trkpt>
      <trkpt lat="51.849411000" lon="7.637715000">
        <ele>68.2</ele>
        <time>2017-04-29T05:39:50</time>
        <extensions><speed>1.36</speed></extensions>
      </trkpt>
      <trkpt lat="51.849422000" lon="7.637705000">
        <ele>68.2</ele>
        <time>2017-04-29T05:39:51</time>
        <extensions><speed>1.46</speed></extensions>
      </trkpt>
      <trkpt lat="51.849438000" lon="7.637693000">
        <ele>68.2</ele>
        <time>2017-04-29T05:39:52</time>
        <extensions><speed>1.55</speed></extensions>
      </trkpt>
      <trkpt lat="51.849453000" lon="7.637681000">
        <ele>68.2</ele>
        <time>2017-04-29T05:39:53</time>
        <extensions><speed>1.51</speed></extensions>
      </trkpt>
      <trkpt lat="51.849464000" lon="7.637669000">
        <ele>68.1</ele>
        <time>2017-04-29T05:39:54</time>
        <extensions><speed>1.57</speed></extensions>
      </trkpt>
      <trkpt lat="51.849476000" lon="7.637659000">
        <ele>68.1</ele>
        <time>2017-04-29T05:39:55</time>
        <extensions><speed>1.57</speed></extensions>
      </trkpt>
      <trkpt lat="51.849487000" lon="7.637648000">
        <ele>68.1</ele>
        <time>2017-04-29T05:39:56</time>
        <extensions><speed>1.57</speed></extensions>
      </trkpt>
      <trkpt lat="51.849503000" lon="7.637641000">
        <ele>68.0</ele>
        <time>2017-04-29T05:39:57</time>
        <extensions><speed>1.46</speed></extensions>
      </trkpt>
      <trkpt lat="51.849514000" lon="7.637632000">
        <ele>68.0</ele>
        <time>2017-04-29T05:39:58</time>
        <extensions><speed>1.41</speed></extensions>
      </trkpt>
      <trkpt lat="51.849525000" lon="7.637622000">
        <ele>68.0</ele>
        <time>2017-04-29T05:39:59</time>
        <extensions><speed>1.35</speed></extensions>
      </trkpt>
      <trkpt lat="51.849533000" lon="7.637613000">
        <ele>67.9</ele>
        <time>2017-04-29T05:40:00</time>
        <extensions><speed>1.35</speed></extensions>
      </trkpt>
      <trkpt lat="51.849545000" lon="7.637606000">
        <ele>67.9</ele>
        <time>2017-04-29T05:40:01</time>
        <extensions><speed>1.35</speed></extensions>
      </trkpt>
      <trkpt lat="51.849552000" lon="7.637599000">
        <ele>67.9</ele>
        <time>2017-04-29T05:40:02</time>
        <extensions><speed>1.39</speed></extensions>
      </trkpt>
      <trkpt lat="51.849564000" lon="7.637592000">
        <ele>67.8</ele>
        <time>2017-04-29T05:40:03</time>
        <extensions><speed>1.34</speed></extensions>
      </trkpt>
      <trkpt lat="51.849575000" lon="7.637581000">
        <ele>67.8</ele>
        <time>2017-04-29T05:40:04</time>
        <extensions><speed>1.24</speed></extensions>
      </trkpt>
      <trkpt lat="51.849579000" lon="7.637578000">
        <ele>67.7</ele>
        <time>2017-04-29T05:40:05</time>
      </trkpt>
      <trkpt lat="51.849590000" lon="7.637571000">
        <ele>67.7</ele>
        <time>2017-04-29T05:40:07</time>
        <extensions><speed>1.16</speed></extensions>
      </trkpt>
      <trkpt lat="51.849606000" lon="7.637565000">
        <ele>67.7</ele>
        <time>2017-04-29T05:40:08</time>
        <extensions><speed>1.18</speed></extensions>
      </trkpt>
      <trkpt lat="51.849617000" lon="7.637560000">
        <ele>67.6</ele>
        <time>2017-04-29T05:40:09</time>
      </trkpt>
      <trkpt lat="51.849628000" lon="7.637552000">
        <ele>67.6</ele>
        <time>2017-04-29T05:40:11</time>
        <extensions><speed>1.36</speed></extensions>
      </trkpt>
      <trkpt lat="51.849640000" lon="7.637543000">
        <ele>67.6</ele>
        <time>2017-04-29T05:40:12</time>
        <extensions><speed>1.30</speed></extensions>
      </trkpt>
      <trkpt lat="51.849651000" lon="7.637534000">
        <ele>67.6</ele>
        <time>2017-04-29T05:40:13</time>
        <extensions><speed>1.32</speed></extensions>
      </trkpt>
      <trkpt lat="51.849663000" lon="7.637524000">
        <ele>67.6</ele>
        <time>2017-04-29T05:40:14</time>
        <extensions><speed>1.42</speed></extensions>
      </trkpt>
      <trkpt lat="51.849674000" lon="7.637512000">
        <ele>67.5</ele>
        <time>2017-04-29T05:40:15</time>
        <extensions><speed>1.35</speed></extensions>
      </trkpt>
      <trkpt lat="51.849686000" lon="7.637501000">
        <ele>67.5</ele>
        <time>2017-04-29T05:40:16</time>
        <extensions><speed>1.28</speed></extensions>
      </trkpt>
      <trkpt lat="51.849701000" lon="7.637490000">
        <ele>67.5</ele>
        <time>2017-04-29T05:40:17</time>
        <extensions><speed>1.31</speed></extensions>
      </trkpt>
      <trkpt lat="51.849716000" lon="7.637482000">
        <ele>67.4</ele>
        <time>2017-04-29T05:40:18</time>
        <extensions><speed>1.37</speed></extensions>
      </trkpt>
      <trkpt lat="51.849731000" lon="7.637471000">
        <ele>67.4</ele>
        <time>2017-04-29T05:40:19</time>
        <extensions><speed>1.40</speed></extensions>
      </trkpt>
      <trkpt lat="51.849743000" lon="7.637462000">
        <ele>67.4</ele>
        <time>2017-04-29T05:40:20</time>
        <extensions><speed>1.36</speed></extensions>
      </trkpt>
      <trkpt lat="51.849751000" lon="7.637455000">
        <ele>67.3</ele>
        <time>2017-04-29T05:40:21</time>
        <extensions><speed>1.34</speed></extensions>
      </trkpt>
      <trkpt lat="51.849758000" lon="7.637452000">
        <ele>67.3</ele>
        <time>2017-04-29T05:40:22</time>
        <extensions><speed>1.28</speed></extensions>
      </trkpt>
      <trkpt lat="51.849766000" lon="7.637445000">
        <ele>67.2</ele>
        <time>2017-04-29T05:40:23</time>
        <extensions><speed>1.15</speed></extensions>
      </trkpt>
      <trkpt lat="51.849781000" lon="7.637434000">
        <ele>67.2</ele>
        <time>2017-04-29T05:40:24</time>
        <extensions><speed>1.15</speed></extensions>
      </trkpt>
      <trkpt lat="51.849792000" lon="7.637424000">
        <ele>67.2</ele>
        <time>2017-04-29T05:40:25</time>
        <extensions><speed>1.22</speed></extensions>
      </trkpt>
      <trkpt lat="51.849808000" lon="7.637410000">
        <ele>67.1</ele>
        <time>2017-04-29T05:40:26</time>
        <extensions><speed>1.37</speed></extensions>
      </trkpt>
      <trkpt lat="51.849819000" lon="7.637394000">
        <ele>67.1</ele>
        <time>2017-04-29T05:40:27</time>
        <extensions><speed>1.45</speed></extensions>
      </trkpt>
      <trkpt lat="51.849831000" lon="7.637382000">
        <ele>67.0</ele>
        <time>2017-04-29T05:40:28</time>
        <extensions><speed>1.46</speed></extensions>
      </trkpt>
      <trkpt lat="51.849846000" lon="7.637368000">
        <ele>67.0</ele>
        <time>2017-04-29T05:40:29</time>
        <extensions><speed>1.46</speed></extensions>
      </trkpt>
      <trkpt lat="51.849857000" lon="7.637357000">
        <ele>66.9</ele>
        <time>2017-04-29T05:40:30</time>
        <extensions><speed>1.42</speed></extensions>
      </trkpt>
      <trkpt lat="51.849869000" lon="7.637349000">
        <ele>66.9</ele>
        <time>2017-04-29T05:40:31</time>
        <extensions><speed>1.38</speed></extensions>
      </trkpt>
      <trkpt lat="51.849876000" lon="7.637333000">
        <ele>66.8</ele>
        <time>2017-04-29T05:40:32</time>
        <extensions><speed>1.29</speed></extensions>
      </trkpt>
      <trkpt lat="51.849888000" lon="7.637319000">
        <ele>66.8</ele>
        <time>2017-04-29T05:40:33</time>
        <extensions><speed>1.29</speed></extensions>
      </trkpt>
      <trkpt lat="51.849903000" lon="7.637307000">
        <ele>66.7</ele>
        <time>2017-04-29T05:40:34</time>
        <extensions><speed>1.31</speed></extensions>
      </trkpt>
      <trkpt lat="51.849918000" lon="7.637293000">
        <ele>66.7</ele>
        <time>2017-04-29T05:40:35</time>
        <extensions><speed>1.25</speed></extensions>
      </trkpt>
      <trkpt lat="51.849934000" lon="7.637284000">
        <ele>66.6</ele>
        <time>2017-04-29T05:40:36</time>
        <extensions><speed>1.27</speed></extensions>
      </trkpt>
      <trkpt lat="51.849945000" lon="7.637275000">
        <ele>66.6</ele>
        <time>2017-04-29T05:40:37</time>
        <extensions><speed>1.31</speed></extensions>
      </trkpt>
      <trkpt lat="51.849957000" lon="7.637261000">
        <ele>66.5</ele>
        <time>2017-04-29T05:40:38</time>
        <extensions><speed>1.39</speed></extensions>
      </trkpt>
      <trkpt lat="51.849968000" lon="7.637250000">
        <ele>66.4</ele>
        <time>2017-04-29T05:40:39</time>
        <extensions><speed>1.22</speed></extensions>
      </trkpt>
      <trkpt lat="51.849976000" lon="7.637243000">
        <ele>66.4</ele>
        <time>2017-04-29T05:40:40</time>
        <extensions><speed>1.06</speed></extensions>
      </trkpt>
      <trkpt lat="51.849979000" lon="7.637235000">
        <ele>66.3</ele>
        <time>2017-04-29T05:40:41</time>
        <extensions><speed>1.05</speed></extensions>
      </trkpt>
      <trkpt lat="51.849991000" lon="7.637225000">
        <ele>66.3</ele>
        <time>2017-04-29T05:40:42</time>
        <extensions><speed>0.99</speed></extensions>
      </trkpt>
      <trkpt lat="51.850002000" lon="7.637210000">
        <ele>66.2</ele>
        <time>2017-04-29T05:40:43</time>
        <extensions><speed>0.99</speed></extensions>
      </trkpt>
      <trkpt lat="51.850010000" lon="7.637197000">
        <ele>66.2</ele>
        <time>2017-04-29T05:40:44</time>
        <extensions><speed>1.21</speed></extensions>
      </trkpt>
      <trkpt lat="51.850025000" lon="7.637186000">
        <ele>66.1</ele>
        <time>2017-04-29T05:40:45</time>
        <extensions><speed>1.30</speed></extensions>
      </trkpt>
      <trkpt lat="51.850037000" lon="7.637175000">
        <ele>66.1</ele>
        <time>2017-04-29T05:40:46</time>
        <extensions><speed>1.27</speed></extensions>
      </trkpt>
      <trkpt lat="51.850044000" lon="7.637165000">
        <ele>66.0</ele>
        <time>2017-04-29T05:40:47</time>
        <extensions><speed>1.37</speed></extensions>
      </trkpt>
      <trkpt lat="51.850063000" lon="7.637153000">
        <ele>66.0</ele>
        <time>2017-04-29T05:40:48</time>
        <extensions><speed>1.47</speed></extensions>
      </trkpt>
      <trkpt lat="51.850079000" lon="7.637146000">
        <ele>66.0</ele>
        <time>2017-04-29T05:40:49</time>
        <extensions><speed>1.45</speed></extensions>
      </trkpt>
      <trkpt lat="51.850090000" lon="7.637140000">
        <ele>65.9</ele>
        <time>2017-04-29T05:40:50</time>
        <extensions><speed>1.46</speed></extensions>
      </trkpt>
      <trkpt lat="51.850105000" lon="7.637132000">
        <ele>65.9</ele>
        <time>2017-04-29T05:40:51</time>
        <extensions><speed>1.51</speed></extensions>
      </trkpt>
      <trkpt lat="51.850117000" lon="7.637121000">
        <ele>65.9</ele>
        <time>2017-04-29T05:40:52</time>
        <extensions><speed>1.53</speed></extensions>
      </trkpt>
      <trkpt lat="51.850132000" lon="7.637116000">
        <ele>65.8</ele>
        <time>2017-04-29T05:40:53</time>
        <extensions><speed>1.38</speed></extensions>
      </trkpt>
      <trkpt lat="51.850140000" lon="7.637110000">
        <ele>65.8</ele>
        <time>2017-04-29T05:40:54</time>
        <extensions><speed>1.32</speed></extensions>
      </trkpt>
      <trkpt lat="51.850147000" lon="7.637098000">
        <ele>65.8</ele>
        <time>2017-04-29T05:40:55</time>
        <extensions><speed>1.20</speed></extensions>
      </trkpt>
      <trkpt lat="51.850159000" lon="7.637090000">
        <ele>65.8</ele>
        <time>2017-04-29T05:40:56</time>
        <extensions><speed>1.15</speed></extensions>
      </trkpt>
      <trkpt lat="51.850170000" lon="7.637077000">
        <ele>65.7</ele>
        <time>2017-04-29T05:40:57</time>
        <extensions><speed>1.07</speed></extensions>
      </trkpt>
      <trkpt lat="51.850178000" lon="7.637065000">
        <ele>65.7</ele>
        <time>2017-04-29T05:40:58</time>
        <extensions><speed>1.15</speed></extensions>
      </trkpt>
      <trkpt lat="51.850189000" lon="7.637056000">
        <ele>65.7</ele>
        <time>2017-04-29T05:40:59</time>
        <extensions><speed>1.16</speed></extensions>
      </trkpt>
      <trkpt lat="51.850201000" lon="7.637046000">
        <ele>65.7</ele>
        <time>2017-04-29T05:41:00</time>
        <extensions><speed>1.24</speed></extensions>
      </trkpt>
      <trkpt lat="51.850208000" lon="7.637035000">
        <ele>65.6</ele>
        <time>2017-04-29T05:41:01</time>
        <extensions><speed>1.24</speed></extensions>
      </trkpt>
      <trkpt lat="51.850224000" lon="7.637020000">
        <ele>65.6</ele>
        <time>2017-04-29T05:41:02</time>
        <extensions><speed>1.30</speed></extensions>
      </trkpt>
      <trkpt lat="51.850235000" lon="7.637009000">
        <ele>65.6</ele>
        <time>2017-04-29T05:41:03</time>
        <extensions><speed>1.29</speed></extensions>
      </trkpt>
      <trkpt lat="51.850246000" lon="7.636995000">
        <ele>65.6</ele>
        <time>2017-04-29T05:41:04</time>
        <extensions><speed>1.35</speed></extensions>
      </trkpt>
      <trkpt lat="51.850262000" lon="7.636981000">
        <ele>65.5</ele>
        <time>2017-04-29T05:41:05</time>
        <extensions><speed>1.42</speed></extensions>
      </trkpt>
      <trkpt lat="51.850273000" lon="7.636970000">
        <ele>65.5</ele>
        <time>2017-04-29T05:41:06</time>
        <extensions><speed>1.40</speed></extensions>
      </trkpt>
      <trkpt lat="51.850288000" lon="7.636963000">
        <ele>65.5</ele>
        <time>2017-04-29T05:41:07</time>
        <extensions><speed>1.36</speed></extensions>
      </trkpt>
      <trkpt lat="51.850300000" lon="7.636951000">
        <ele>65.4</ele>
        <time>2017-04-29T05:41:08</time>
        <extensions><speed>1.36</speed></extensions>
      </trkpt>
      <trkpt lat="51.850304000" lon="7.636939000">
        <ele>65.4</ele>
        <time>2017-04-29T05:41:09</time>
        <extensions><speed>1.31</speed></extensions>
      </trkpt>
      <trkpt lat="51.850315000" lon="7.636925000">
        <ele>65.3</ele>
        <time>2017-04-29T05:41:10</time>
        <extensions><speed>1.27</speed></extensions>
      </trkpt>
      <trkpt lat="51.850327000" lon="7.636915000">
        <ele>65.3</ele>
        <time>2017-04-29T05:41:11</time>
        <extensions><speed>1.33</speed></extensions>
      </trkpt>
      <trkpt lat="51.850338000" lon="7.636902000">
        <ele>65.3</ele>
        <time>2017-04-29T05:41:12</time>
        <extensions><speed>1.33</speed></extensions>
      </trkpt>
      <trkpt lat="51.850353000" lon="7.636889000">
        <ele>65.2</ele>
        <time>2017-04-29T05:41:13</time>
        <extensions><speed>1.39</speed></extensions>
      </trkpt>
      <trkpt lat="51.850361000" lon="7.636873000">
        <ele>65.2</ele>
        <time>2017-04-29T05:41:14</time>
        <extensions><speed>1.44</speed></extensions>
      </trkpt>
      <trkpt lat="51.850368000" lon="7.636858000">
        <ele>65.2</ele>
        <time>2017-04-29T05:41:15</time>
        <extensions><speed>1.44</speed></extensions>
      </trkpt>
      <trkpt lat="51.850380000" lon="7.636847000">
        <ele>65.1</ele>
        <time>2017-04-29T05:41:16</time>
        <extensions><speed>1.45</speed></extensions>
      </trkpt>
      <trkpt lat="51.850391000" lon="7.636840000">
        <ele>65.1</ele>
        <time>2017-04-29T05:41:17</time>
        <extensions><speed>1.41</speed></extensions>
      </trkpt>
      <trkpt lat="51.850403000" lon="7.636834000">
        <ele>65.1</ele>
        <time>2017-04-29T05:41:18</time>
        <extensions><speed>1.29</speed></extensions>
      </trkpt>
      <trkpt lat="51.850410000" lon="7.636823000">
        <ele>65.0</ele>
        <time>2017-04-29T05:41:19</time>
        <extensions><speed>1.19</speed></extensions>
      </trkpt>
      <trkpt lat="51.850422000" lon="7.636813000">
        <ele>65.0</ele>
        <time>2017-04-29T05:41:20</time>
        <extensions><speed>1.24</speed></extensions>
      </trkpt>
      <trkpt lat="51.850433000" lon="7.636802000">
        <ele>65.0</ele>
        <time>2017-04-29T05:41:21</time>
        <extensions><speed>1.28</speed></extensions>
      </trkpt>
      <trkpt lat="51.850445000" lon="7.636794000">
        <ele>65.0</ele>
        <time>2017-04-29T05:41:22</time>
        <extensions><speed>1.28</speed></extensions>
      </trkpt>
      <trkpt lat="51.850460000" lon="7.636787000">
        <ele>64.9</ele>
        <time>2017-04-29T05:41:23</time>
        <extensions><speed>1.44</speed></extensions>
      </trkpt>
      <trkpt lat="51.850468000" lon="7.636775000">
        <ele>64.9</ele>
        <time>2017-04-29T05:41:24</time>
        <extensions><speed>1.53</speed></extensions>
      </trkpt>
      <trkpt lat="51.850483000" lon="7.636762000">
        <ele>64.9</ele>
        <time>2017-04-29T05:41:25</time>
        <extensions><speed>1.48</speed></extensions>
      </trkpt>
      <trkpt lat="51.850498000" lon="7.636752000">
        <ele>64.9</ele>
        <time>2017-04-29T05:41:26</time>
        <extensions><speed>1.45</speed></extensions>
      </trkpt>
      <trkpt lat="51.850502000" lon="7.636742000">
        <ele>64.8</ele>
        <time>2017-04-29T05:41:27</time>
        <extensions><speed>1.45</speed></extensions>
      </trkpt>
      <trkpt lat="51.850513000" lon="7.636734000">
        <ele>64.8</ele>
        <time>2017-04-29T05:41:28</time>
        <extensions><speed>1.41</speed></extensions>
      </trkpt>
      <trkpt lat="51.850529000" lon="7.636725000">
        <ele>64.8</ele>
        <time>2017-04-29T05:41:29</time>
        <extensions><speed>1.41</speed></extensions>
      </trkpt>
      <trkpt lat="51.850536000" lon="7.636715000">
        <ele>64.7</ele>
        <time>2017-04-29T05:41:30</time>
        <extensions><speed>1.36</speed></extensions>
      </trkpt>
      <trkpt lat="51.850544000" lon="7.636701000">
        <ele>64.7</ele>
        <time>2017-04-29T05:41:31</time>
        <extensions><speed>1.29</speed></extensions>
      </trkpt>
      <trkpt lat="51.850555000" lon="7.636687000">
        <ele>64.7</ele>
        <time>2017-04-29T05:41:32</time>
        <extensions><speed>1.39</speed></extensions>
      </trkpt>
      <trkpt lat="51.850567000" lon="7.636672000">
        <ele>64.7</ele>
        <time>2017-04-29T05:41:33</time>
        <extensions><speed>1.51</speed></extensions>
      </trkpt>
      <trkpt lat="51.850574000" lon="7.636661000">
        <ele>64.6</ele>
        <time>2017-04-29T05:41:34</time>
        <extensions><speed>1.42</speed></extensions>
      </trkpt>
      <trkpt lat="51.850582000" lon="7.636650000">
        <ele>64.6</ele>
        <time>2017-04-29T05:41:35</time>
        <extensions><speed>1.39</speed></extensions>
      </trkpt>
      <trkpt lat="51.850590000" lon="7.636636000">
        <ele>64.6</ele>
        <time>2017-04-29T05:41:36</time>
        <extensions><speed>1.43</speed></extensions>
      </trkpt>
      <trkpt lat="51.850597000" lon="7.636619000">
        <ele>64.5</ele>
        <time>2017-04-29T05:41:37</time>
        <extensions><speed>1.34</speed></extensions>
      </trkpt>
      <trkpt lat="51.850609000" lon="7.636600000">
        <ele>64.5</ele>
        <time>2017-04-29T05:41:38</time>
        <extensions><speed>1.34</speed></extensions>
      </trkpt>
      <trkpt lat="51.850620000" lon="7.636587000">
        <ele>64.4</ele>
        <time>2017-04-29T05:41:39</time>
        <extensions><speed>1.35</speed></extensions>
      </trkpt>
      <trkpt lat="51.850632000" lon="7.636571000">
        <ele>64.4</ele>
        <time>2017-04-29T05:41:40</time>
        <extensions><speed>1.41</speed></extensions>
      </trkpt>
      <trkpt lat="51.850643000" lon="7.636559000">
        <ele>64.4</ele>
        <time>2017-04-29T05:41:41</time>
        <extensions><speed>1.45</speed></extensions>
      </trkpt>
      <trkpt lat="51.850658000" lon="7.636543000">
        <ele>64.3</ele>
        <time>2017-04-29T05:41:42</time>
        <extensions><speed>1.49</speed></extensions>
      </trkpt>
      <trkpt lat="51.850666000" lon="7.636533000">
        <ele>64.3</ele>
        <time>2017-04-29T05:41:43</time>
        <extensions><speed>1.41</speed></extensions>
      </trkpt>
      <trkpt lat="51.850674000" lon="7.636524000">
        <ele>64.2</ele>
        <time>2017-04-29T05:41:44</time>
        <extensions><speed>1.43</speed></extensions>
      </trkpt>
      <trkpt lat="51.850681000" lon="7.636507000">
        <ele>64.2</ele>
        <time>2017-04-29T05:41:45</time>
        <extensions><speed>1.37</speed></extensions>
      </trkpt>
      <trkpt lat="51.850689000" lon="7.636489000">
        <ele>64.1</ele>
        <time>2017-04-29T05:41:46</time>
        <extensions><speed>1.30</speed></extensions>
      </trkpt>
      <trkpt lat="51.850693000" lon="7.636473000">
        <ele>64.1</ele>
        <time>2017-04-29T05:41:47</time>
        <extensions><speed>1.30</speed></extensions>
      </trkpt>
      <trkpt lat="51.850704000" lon="7.636456000">
        <ele>64.0</ele>
        <time>2017-04-29T05:41:48</time>
        <extensions><speed>1.29</speed></extensions>
      </trkpt>
      <trkpt lat="51.850712000" lon="7.636444000">
        <ele>64.0</ele>
        <time>2017-04-29T05:41:49</time>
        <extensions><speed>1.28</speed></extensions>
      </trkpt>
      <trkpt lat="51.850719000" lon="7.636430000">
        <ele>64.0</ele>
        <time>2017-04-29T05:41:50</time>
        <extensions><speed>1.29</speed></extensions>
      </trkpt>
      <trkpt lat="51.850727000" lon="7.636417000">
        <ele>63.9</ele>
        <time>2017-04-29T05:41:51</time>
        <extensions><speed>1.33</speed></extensions>
      </trkpt>
      <trkpt lat="51.850735000" lon="7.636402000">
        <ele>63.9</ele>
        <time>2017-04-29T05:41:52</time>
        <extensions><speed>1.33</speed></extensions>
      </trkpt>
      <trkpt lat="51.850750000" lon="7.636385000">
        <ele>63.8</ele>
        <time>2017-04-29T05:41:53</time>
        <extensions><speed>1.53</speed></extensions>
      </trkpt>
      <trkpt lat="51.850761000" lon="7.636370000">
        <ele>63.8</ele>
        <time>2017-04-29T05:41:54</time>
        <extensions><speed>1.53</speed></extensions>
      </trkpt>
      <trkpt lat="51.850765000" lon="7.636355000">
        <ele>63.7</ele>
        <time>2017-04-29T05:41:55</time>
        <extensions><speed>1.54</speed></extensions>
      </trkpt>
      <trkpt lat="51.850773000" lon="7.636340000">
        <ele>63.7</ele>
        <time>2017-04-29T05:41:56</time>
        <extensions><speed>1.52</speed></extensions>
      </trkpt>
      <trkpt lat="51.850780000" lon="7.636326000">
        <ele>63.6</ele>
        <time>2017-04-29T05:41:57</time>
        <extensions><speed>1.39</speed></extensions>
      </trkpt>
      <trkpt lat="51.850788000" lon="7.636309000">
        <ele>63.6</ele>
        <time>2017-04-29T05:41:58</time>
        <extensions><speed>1.39</speed></extensions>
      </trkpt>
      <trkpt lat="51.850796000" lon="7.636295000">
        <ele>63.6</ele>
        <time>2017-04-29T05:41:59</time>
        <extensions><speed>1.43</speed></extensions>
      </trkpt>
      <trkpt lat="51.850807000" lon="7.636286000">
        <ele>63.5</ele>
        <time>2017-04-29T05:42:00</time>
        <extensions><speed>1.42</speed></extensions>
      </trkpt>
      <trkpt lat="51.850815000" lon="7.636273000">
        <ele>63.5</ele>
        <time>2017-04-29T05:42:01</time>
        <extensions><speed>1.44</speed></extensions>
      </trkpt>
      <trkpt lat="51.850826000" lon="7.636258000">
        <ele>63.4</ele>
        <time>2017-04-29T05:42:02</time>
        <extensions><speed>1.42</speed></extensions>
      </trkpt>
      <trkpt lat="51.850834000" lon="7.636245000">
        <ele>63.4</ele>
        <time>2017-04-29T05:42:03</time>
        <extensions><speed>1.39</speed></extensions>
      </trkpt>
      <trkpt lat="51.850845000" lon="7.636233000">
        <ele>63.4</ele>
        <time>2017-04-29T05:42:04</time>
        <extensions><speed>1.37</speed></extensions>
      </trkpt>
      <trkpt lat="51.850853000" lon="7.636216000">
        <ele>63.3</ele>
        <time>2017-04-29T05:42:05</time>
        <extensions><speed>1.39</speed></extensions>
      </trkpt>
      <trkpt lat="51.850861000" lon="7.636200000">
        <ele>63.3</ele>
        <time>2017-04-29T05:42:06</time>
        <extensions><speed>1.37</speed></extensions>
      </trkpt>
      <trkpt lat="51.850868000" lon="7.636183000">
        <ele>63.2</ele>
        <time>2017-04-29T05:42:07</time>
        <extensions><speed>1.41</speed></extensions>
      </trkpt>
      <trkpt lat="51.850880000" lon="7.636168000">
        <ele>63.2</ele>
        <time>2017-04-29T05:42:08</time>
        <extensions><speed>1.39</speed></extensions>
      </trkpt>
      <trkpt lat="51.850887000" lon="7.636153000">
        <ele>63.2</ele>
        <time>2017-04-29T05:42:09</time>
        <extensions><speed>1.42</speed></extensions>
      </trkpt>
      <trkpt lat="51.850891000" lon="7.636140000">
        <ele>63.1</ele>
        <time>2017-04-29T05:42:10</time>
        <extensions><speed>1.40</speed></extensions>
      </trkpt>
      <trkpt lat="51.850899000" lon="7.636123000">
        <ele>63.1</ele>
        <time>2017-04-29T05:42:11</time>
        <extensions><speed>1.37</speed></extensions>
      </trkpt>
      <trkpt lat="51.850906000" lon="7.636106000">
        <ele>63.0</ele>
        <time>2017-04-29T05:42:12</time>
        <extensions><speed>1.37</speed></extensions>
      </trkpt>
      <trkpt lat="51.850914000" lon="7.636086000">
        <ele>63.0</ele>
        <time>2017-04-29T05:42:13</time>
        <extensions><speed>1.41</speed></extensions>
      </trkpt>
      <trkpt lat="51.850922000" lon="7.636070000">
        <ele>62.9</ele>
        <time>2017-04-29T05:42:14</time>
        <extensions><speed>1.38</speed></extensions>
      </trkpt>
      <trkpt lat="51.850929000" lon="7.636060000">
        <ele>62.9</ele>
        <time>2017-04-29T05:42:15</time>
        <extensions><speed>1.39</speed></extensions>
      </trkpt>
      <trkpt lat="51.850945000" lon="7.636048000">
        <ele>62.9</ele>
        <time>2017-04-29T05:42:16</time>
        <extensions><speed>1.42</speed></extensions>
      </trkpt>
      <trkpt lat="51.850956000" lon="7.636037000">
        <ele>62.8</ele>
        <time>2017-04-29T05:42:17</time>
        <extensions><speed>1.44</speed></extensions>
      </trkpt>
      <trkpt lat="51.850967000" lon="7.636018000">
        <ele>62.8</ele>
        <time>2017-04-29T05:42:18</time>
        <extensions><speed>1.51</speed></extensions>
      </trkpt>
      <trkpt lat="51.850975000" lon="7.636002000">
        <ele>62.8</ele>
        <time>2017-04-29T05:42:19</time>
        <extensions><speed>1.51</speed></extensions>
      </trkpt>
      <trkpt lat="51.850979000" lon="7.635987000">
        <ele>62.7</ele>
        <time>2017-04-29T05:42:20</time>
        <extensions><speed>1.45</speed></extensions>
      </trkpt>
      <trkpt lat="51.850986000" lon="7.635976000">
        <ele>62.7</ele>
        <time>2017-04-29T05:42:21</time>
        <extensions><speed>1.32</speed></extensions>
      </trkpt>
      <trkpt lat="51.850990000" lon="7.635962000">
        <ele>62.7</ele>
        <time>2017-04-29T05:42:22</time>
        <extensions><speed>1.36</speed></extensions>
      </trkpt>
      <trkpt lat="51.850998000" lon="7.635943000">
        <ele>62.7</ele>
        <time>2017-04-29T05:42:23</time>
        <extensions><speed>1.29</speed></extensions>
      </trkpt>
      <trkpt lat="51.851009000" lon="7.635929000">
        <ele>62.6</ele>
        <time>2017-04-29T05:42:24</time>
        <extensions><speed>1.28</speed></extensions>
      </trkpt>
      <trkpt lat="51.851021000" lon="7.635920000">
        <ele>62.6</ele>
        <time>2017-04-29T05:42:25</time>
        <extensions><speed>1.41</speed></extensions>
      </trkpt>
      <trkpt lat="51.851028000" lon="7.635907000">
        <ele>62.6</ele>
        <time>2017-04-29T05:42:26</time>
        <extensions><speed>1.49</speed></extensions>
      </trkpt>
      <trkpt lat="51.851040000" lon="7.635892000">
        <ele>62.5</ele>
        <time>2017-04-29T05:42:27</time>
        <extensions><speed>1.50</speed></extensions>
      </trkpt>
      <trkpt lat="51.851051000" lon="7.635877000">
        <ele>62.5</ele>
        <time>2017-04-29T05:42:28</time>
        <extensions><speed>1.52</speed></extensions>
      </trkpt>
      <trkpt lat="51.851059000" lon="7.635863000">
        <ele>62.5</ele>
        <time>2017-04-29T05:42:29</time>
        <extensions><speed>1.52</speed></extensions>
      </trkpt>
      <trkpt lat="51.851070000" lon="7.635849000">
        <ele>62.4</ele>
        <time>2017-04-29T05:42:30</time>
        <extensions><speed>1.46</speed></extensions>
      </trkpt>
      <trkpt lat="51.851082000" lon="7.635831000">
        <ele>62.4</ele>
        <time>2017-04-29T05:42:31</time>
        <extensions><speed>1.50</speed></extensions>
      </trkpt>
      <trkpt lat="51.851089000" lon="7.635812000">
        <ele>62.4</ele>
        <time>2017-04-29T05:42:32</time>
        <extensions><speed>1.43</speed></extensions>
      </trkpt>
      <trkpt lat="51.851097000" lon="7.635795000">
        <ele>62.4</ele>
        <time>2017-04-29T05:42:33</time>
        <extensions><speed>1.39</speed></extensions>
      </trkpt>
      <trkpt lat="51.851109000" lon="7.635780000">
        <ele>62.3</ele>
        <time>2017-04-29T05:42:34</time>
        <extensions><speed>1.39</speed></extensions>
      </trkpt>
      <trkpt lat="51.851116000" lon="7.635765000">
        <ele>62.3</ele>
        <time>2017-04-29T05:42:35</time>
        <extensions><speed>1.33</speed></extensions>
      </trkpt>
      <trkpt lat="51.851120000" lon="7.635752000">
        <ele>62.3</ele>
        <time>2017-04-29T05:42:36</time>
        <extensions><speed>1.26</speed></extensions>
      </trkpt>
      <trkpt lat="51.851131000" lon="7.635736000">
        <ele>62.3</ele>
        <time>2017-04-29T05:42:37</time>
        <extensions><speed>1.26</speed></extensions>
      </trkpt>
      <trkpt lat="51.851135000" lon="7.635730000">
        <ele>62.2</ele>
        <time>2017-04-29T05:42:38</time>
      </trkpt>
      <trkpt lat="51.851151000" lon="7.635719000">
        <ele>62.2</ele>
        <time>2017-04-29T05:42:40</time>
        <extensions><speed>1.28</speed></extensions>
      </trkpt>
      <trkpt lat="51.851154000" lon="7.635703000">
        <ele>62.2</ele>
        <time>2017-04-29T05:42:41</time>
        <extensions><speed>1.42</speed></extensions>
      </trkpt>
      <trkpt lat="51.851166000" lon="7.635689000">
        <ele>62.2</ele>
        <time>2017-04-29T05:42:42</time>
        <extensions><speed>1.33</speed></extensions>
      </trkpt>
      <trkpt lat="51.851177000" lon="7.635672000">
        <ele>62.1</ele>
        <time>2017-04-29T05:42:43</time>
        <extensions><speed>1.42</speed></extensions>
      </trkpt>
      <trkpt lat="51.851185000" lon="7.635654000">
        <ele>62.1</ele>
        <time>2017-04-29T05:42:44</time>
        <extensions><speed>1.46</speed></extensions>
      </trkpt>
      <trkpt lat="51.851192000" lon="7.635637000">
        <ele>62.1</ele>
        <time>2017-04-29T05:42:45</time>
        <extensions><speed>1.43</speed></extensions>
      </trkpt>
      <trkpt lat="51.851200000" lon="7.635620000">
        <ele>62.1</ele>
        <time>2017-04-29T05:42:46</time>
        <extensions><speed>1.38</speed></extensions>
      </trkpt>
      <trkpt lat="51.851208000" lon="7.635603000">
        <ele>62.1</ele>
        <time>2017-04-29T05:42:47</time>
        <extensions><speed>1.40</speed></extensions>
      </trkpt>
      <trkpt lat="51.851219000" lon="7.635586000">
        <ele>62.1</ele>
        <time>2017-04-29T05:42:48</time>
        <extensions><speed>1.40</speed></extensions>
      </trkpt>
      <trkpt lat="51.851227000" lon="7.635568000">
        <ele>62.1</ele>
        <time>2017-04-29T05:42:49</time>
        <extensions><speed>1.36</speed></extensions>
      </trkpt>
      <trkpt lat="51.851238000" lon="7.635551000">
        <ele>62.0</ele>
        <time>2017-04-29T05:42:50</time>
        <extensions><speed>1.40</speed></extensions>
      </trkpt>
      <trkpt lat="51.851250000" lon="7.635537000">
        <ele>62.0</ele>
        <time>2017-04-29T05:42:51</time>
        <extensions><speed>1.40</speed></extensions>
      </trkpt>
      <trkpt lat="51.851257000" lon="7.635520000">
        <ele>62.0</ele>
        <time>2017-04-29T05:42:52</time>
        <extensions><speed>1.42</speed></extensions>
      </trkpt>
      <trkpt lat="51.851265000" lon="7.635507000">
        <ele>62.0</ele>
        <time>2017-04-29T05:42:53</time>
        <extensions><speed>1.38</speed></extensions>
      </trkpt>
      <trkpt lat="51.851276000" lon="7.635490000">
        <ele>62.0</ele>
        <time>2017-04-29T05:42:54</time>
        <extensions><speed>1.39</speed></extensions>
      </trkpt>
      <trkpt lat="51.851284000" lon="7.635474000">
        <ele>61.9</ele>
        <time>2017-04-29T05:42:55</time>
        <extensions><speed>1.35</speed></extensions>
      </trkpt>
      <trkpt lat="51.851292000" lon="7.635457000">
        <ele>61.9</ele>
        <time>2017-04-29T05:42:56</time>
        <extensions><speed>1.37</speed></extensions>
      </trkpt>
      <trkpt lat="51.851299000" lon="7.635442000">
        <ele>61.9</ele>
        <time>2017-04-29T05:42:57</time>
        <extensions><speed>1.35</speed></extensions>
      </trkpt>
      <trkpt lat="51.851311000" lon="7.635428000">
        <ele>61.9</ele>
        <time>2017-04-29T05:42:58</time>
        <extensions><speed>1.41</speed></extensions>
      </trkpt>
      <trkpt lat="51.851318000" lon="7.635413000">
        <ele>61.9</ele>
        <time>2017-04-29T05:42:59</time>
        <extensions><speed>1.34</speed></extensions>
      </trkpt>
      <trkpt lat="51.851322000" lon="7.635395000">
        <ele>61.9</ele>
        <time>2017-04-29T05:43:00</time>
        <extensions><speed>1.33</speed></extensions>
      </trkpt>
      <trkpt lat="51.851330000" lon="7.635380000">
        <ele>61.9</ele>
        <time>2017-04-29T05:43:01</time>
        <extensions><speed>1.29</speed></extensions>
      </trkpt>
      <trkpt lat="51.851337000" lon="7.635364000">
        <ele>61.9</ele>
        <time>2017-04-29T05:43:02</time>
        <extensions><speed>1.32</speed></extensions>
      </trkpt>
      <trkpt lat="51.851345000" lon="7.635350000">
        <ele>61.9</ele>
        <time>2017-04-29T05:43:03</time>
        <extensions><speed>1.23</speed></extensions>
      </trkpt>
      <trkpt lat="51.851349000" lon="7.635335000">
        <ele>61.9</ele>
        <time>2017-04-29T05:43:04</time>
        <extensions><speed>1.25</speed></extensions>
      </trkpt>
      <trkpt lat="51.851357000" lon="7.635318000">
        <ele>62.0</ele>
        <time>2017-04-29T05:43:05</time>
        <extensions><speed>1.25</speed></extensions>
      </trkpt>
      <trkpt lat="51.851368000" lon="7.635303000">
        <ele>62.0</ele>
        <time>2017-04-29T05:43:06</time>
        <extensions><speed>1.21</speed></extensions>
      </trkpt>
      <trkpt lat="51.851376000" lon="7.635290000">
        <ele>62.0</ele>
        <time>2017-04-29T05:43:07</time>
        <extensions><speed>1.21</speed></extensions>
      </trkpt>
      <trkpt lat="51.851383000" lon="7.635278000">
        <ele>62.0</ele>
        <time>2017-04-29T05:43:08</time>
        <extensions><speed>1.29</speed></extensions>
      </trkpt>
      <trkpt lat="51.851395000" lon="7.635267000">
        <ele>62.0</ele>
        <time>2017-04-29T05:43:09</time>
        <extensions><speed>1.21</speed></extensions>
      </trkpt>
      <trkpt lat="51.851406000" lon="7.635259000">
        <ele>62.0</ele>
        <time>2017-04-29T05:43:10</time>
        <extensions><speed>1.21</speed></extensions>
      </trkpt>
      <trkpt lat="51.851402000" lon="7.635257000">
        <ele>62.1</ele>
        <time>2017-04-29T05:43:11</time>
      </trkpt>
      <trkpt lat="51.851402000" lon="7.635253000">
        <ele>62.1</ele>
        <time>2017-04-29T05:43:13</time>
        <extensions><speed>0.32</speed></extensions>
      </trkpt>
      <trkpt lat="51.851460000" lon="7.635110000">
        <ele>62.4</ele>
        <time>2017-04-29T05:43:36</time>
      </trkpt>
      <trkpt lat="51.851463000" lon="7.635097000">
        <ele>62.4</ele>
        <time>2017-04-29T05:43:38</time>
        <extensions><speed>1.05</speed></extensions>
      </trkpt>
      <trkpt lat="51.851471000" lon="7.635083000">
        <ele>62.4</ele>
        <time>2017-04-29T05:43:39</time>
        <extensions><speed>1.06</speed></extensions>
      </trkpt>
      <trkpt lat="51.851479000" lon="7.635067000">
        <ele>62.4</ele>
        <time>2017-04-29T05:43:40</time>
        <extensions><speed>1.06</speed></extensions>
      </trkpt>
      <trkpt lat="51.851486000" lon="7.635050000">
        <ele>62.5</ele>
        <time>2017-04-29T05:43:41</time>
        <extensions><speed>1.17</speed></extensions>
      </trkpt>
      <trkpt lat="51.851494000" lon="7.635033000">
        <ele>62.5</ele>
        <time>2017-04-29T05:43:42</time>
        <extensions><speed>1.23</speed></extensions>
      </trkpt>
      <trkpt lat="51.851501000" lon="7.635015000">
        <ele>62.5</ele>
        <time>2017-04-29T05:43:43</time>
        <extensions><speed>1.27</speed></extensions>
      </trkpt>
      <trkpt lat="51.851509000" lon="7.634996000">
        <ele>62.5</ele>
        <time>2017-04-29T05:43:44</time>
        <extensions><speed>1.32</speed></extensions>
      </trkpt>
      <trkpt lat="51.851509000" lon="7.634982000">
        <ele>62.6</ele>
        <time>2017-04-29T05:43:45</time>
        <extensions><speed>1.29</speed></extensions>
      </trkpt>
      <trkpt lat="51.851521000" lon="7.634966000">
        <ele>62.6</ele>
        <time>2017-04-29T05:43:46</time>
        <extensions><speed>1.29</speed></extensions>
      </trkpt>
      <trkpt lat="51.851532000" lon="7.634950000">
        <ele>62.6</ele>
        <time>2017-04-29T05:43:47</time>
        <extensions><speed>1.31</speed></extensions>
      </trkpt>
      <trkpt lat="51.851540000" lon="7.634935000">
        <ele>62.6</ele>
        <time>2017-04-29T05:43:48</time>
        <extensions><speed>1.35</speed></extensions>
      </trkpt>
      <trkpt lat="51.851543000" lon="7.634917000">
        <ele>62.7</ele>
        <time>2017-04-29T05:43:49</time>
        <extensions><speed>1.38</speed></extensions>
      </trkpt>
      <trkpt lat="51.851551000" lon="7.634893000">
        <ele>62.7</ele>
        <time>2017-04-29T05:43:50</time>
        <extensions><speed>1.43</speed></extensions>
      </trkpt>
      <trkpt lat="51.851559000" lon="7.634875000">
        <ele>62.7</ele>
        <time>2017-04-29T05:43:51</time>
        <extensions><speed>1.38</speed></extensions>
      </trkpt>
      <trkpt lat="51.851574000" lon="7.634858000">
        <ele>62.8</ele>
        <time>2017-04-29T05:43:52</time>
        <extensions><speed>1.45</speed></extensions>
      </trkpt>
      <trkpt lat="51.851582000" lon="7.634842000">
        <ele>62.8</ele>
        <time>2017-04-29T05:43:53</time>
        <extensions><speed>1.51</speed></extensions>
      </trkpt>
      <trkpt lat="51.851593000" lon="7.634825000">
        <ele>62.8</ele>
        <time>2017-04-29T05:43:54</time>
        <extensions><speed>1.45</speed></extensions>
      </trkpt>
      <trkpt lat="51.851601000" lon="7.634809000">
        <ele>62.9</ele>
        <time>2017-04-29T05:43:55</time>
        <extensions><speed>1.41</speed></extensions>
      </trkpt>
      <trkpt lat="51.851608000" lon="7.634791000">
        <ele>62.9</ele>
        <time>2017-04-29T05:43:56</time>
        <extensions><speed>1.41</speed></extensions>
      </trkpt>
      <trkpt lat="51.851612000" lon="7.634777000">
        <ele>63.0</ele>
        <time>2017-04-29T05:43:57</time>
        <extensions><speed>1.33</speed></extensions>
      </trkpt>
      <trkpt lat="51.851620000" lon="7.634760000">
        <ele>63.0</ele>
        <time>2017-04-29T05:43:58</time>
        <extensions><speed>1.33</speed></extensions>
      </trkpt>
      <trkpt lat="51.851627000" lon="7.634740000">
        <ele>63.0</ele>
        <time>2017-04-29T05:43:59</time>
        <extensions><speed>1.34</speed></extensions>
      </trkpt>
      <trkpt lat="51.851639000" lon="7.634725000">
        <ele>63.1</ele>
        <time>2017-04-29T05:44:00</time>
        <extensions><speed>1.38</speed></extensions>
      </trkpt>
      <trkpt lat="51.851654000" lon="7.634710000">
        <ele>63.1</ele>
        <time>2017-04-29T05:44:01</time>
        <extensions><speed>1.40</speed></extensions>
      </trkpt>
      <trkpt lat="51.851662000" lon="7.634693000">
        <ele>63.2</ele>
        <time>2017-04-29T05:44:02</time>
        <extensions><speed>1.38</speed></extensions>
      </trkpt>
      <trkpt lat="51.851673000" lon="7.634677000">
        <ele>63.2</ele>
        <time>2017-04-29T05:44:03</time>
        <extensions><speed>1.29</speed></extensions>
      </trkpt>
      <trkpt lat="51.851681000" lon="7.634656000">
        <ele>63.3</ele>
        <time>2017-04-29T05:44:04</time>
        <extensions><speed>1.34</speed></extensions>
      </trkpt>
      <trkpt lat="51.851688000" lon="7.634639000">
        <ele>63.3</ele>
        <time>2017-04-29T05:44:05</time>
        <extensions><speed>1.28</speed></extensions>
      </trkpt>
      <trkpt lat="51.851700000" lon="7.634620000">
        <ele>63.4</ele>
        <time>2017-04-29T05:44:06</time>
        <extensions><speed>1.32</speed></extensions>
      </trkpt>
      <trkpt lat="51.851707000" lon="7.634605000">
        <ele>63.4</ele>
        <time>2017-04-29T05:44:07</time>
        <extensions><speed>1.33</speed></extensions>
      </trkpt>
      <trkpt lat="51.851715000" lon="7.634593000">
        <ele>63.5</ele>
        <time>2017-04-29T05:44:08</time>
        <extensions><speed>1.31</speed></extensions>
      </trkpt>
      <trkpt lat="51.851727000" lon="7.634576000">
        <ele>63.5</ele>
        <time>2017-04-29T05:44:09</time>
        <extensions><speed>1.31</speed></extensions>
      </trkpt>
      <trkpt lat="51.851734000" lon="7.634569000">
        <ele>63.6</ele>
        <time>2017-04-29T05:44:10</time>
      </trkpt>
      <trkpt lat="51.851746000" lon="7.634552000">
        <ele>63.7</ele>
        <time>2017-04-29T05:44:12</time>
        <extensions><speed>1.29</speed></extensions>
      </trkpt>
      <trkpt lat="51.851753000" lon="7.634535000">
        <ele>63.7</ele>
        <time>2017-04-29T05:44:13</time>
        <extensions><speed>1.46</speed></extensions>
      </trkpt>
      <trkpt lat="51.851765000" lon="7.634520000">
        <ele>63.8</ele>
        <time>2017-04-29T05:44:14</time>
        <extensions><speed>1.45</speed></extensions>
      </trkpt>
      <trkpt lat="51.851776000" lon="7.634504000">
        <ele>63.8</ele>
        <time>2017-04-29T05:44:15</time>
        <extensions><speed>1.51</speed></extensions>
      </trkpt>
      <trkpt lat="51.851788000" lon="7.634483000">
        <ele>63.8</ele>
        <time>2017-04-29T05:44:16</time>
        <extensions><speed>1.45</speed></extensions>
      </trkpt>
      <trkpt lat="51.851795000" lon="7.634464000">
        <ele>63.9</ele>
        <time>2017-04-29T05:44:17</time>
        <extensions><speed>1.37</speed></extensions>
      </trkpt>
      <trkpt lat="51.851803000" lon="7.634445000">
        <ele>63.9</ele>
        <time>2017-04-29T05:44:18</time>
        <extensions><speed>1.39</speed></extensions>
      </trkpt>
      <trkpt lat="51.851807000" lon="7.634432000">
        <ele>64.0</ele>
        <time>2017-04-29T05:44:19</time>
        <extensions><speed>1.35</speed></extensions>
      </trkpt>
      <trkpt lat="51.851814000" lon="7.634417000">
        <ele>64.0</ele>
        <time>2017-04-29T05:44:20</time>
        <extensions><speed>1.34</speed></extensions>
      </trkpt>
      <trkpt lat="51.851826000" lon="7.634401000">
        <ele>64.1</ele>
        <time>2017-04-29T05:44:21</time>
        <extensions><speed>1.38</speed></extensions>
      </trkpt>
      <trkpt lat="51.851837000" lon="7.634382000">
        <ele>64.1</ele>
        <time>2017-04-29T05:44:22</time>
        <extensions><speed>1.42</speed></extensions>
      </trkpt>
      <trkpt lat="51.851841000" lon="7.634364000">
        <ele>64.1</ele>
        <time>2017-04-29T05:44:23</time>
        <extensions><speed>1.40</speed></extensions>
      </trkpt>
      <trkpt lat="51.851849000" lon="7.634343000">
        <ele>64.2</ele>
        <time>2017-04-29T05:44:24</time>
        <extensions><speed>1.42</speed></extensions>
      </trkpt>
      <trkpt lat="51.851864000" lon="7.634326000">
        <ele>64.2</ele>
        <time>2017-04-29T05:44:25</time>
        <extensions><speed>1.45</speed></extensions>
      </trkpt>
      <trkpt lat="51.851871000" lon="7.634306000">
        <ele>64.2</ele>
        <time>2017-04-29T05:44:26</time>
        <extensions><speed>1.50</speed></extensions>
      </trkpt>
      <trkpt lat="51.851883000" lon="7.634292000">
        <ele>64.3</ele>
        <time>2017-04-29T05:44:27</time>
        <extensions><speed>1.51</speed></extensions>
      </trkpt>
      <trkpt lat="51.851894000" lon="7.634276000">
        <ele>64.3</ele>
        <time>2017-04-29T05:44:28</time>
        <extensions><speed>1.57</speed></extensions>
      </trkpt>
      <trkpt lat="51.851906000" lon="7.634259000">
        <ele>64.3</ele>
        <time>2017-04-29T05:44:29</time>
        <extensions><speed>1.57</speed></extensions>
      </trkpt>
      <trkpt lat="51.851917000" lon="7.634242000">
        <ele>64.4</ele>
        <time>2017-04-29T05:44:30</time>
        <extensions><speed>1.49</speed></extensions>
      </trkpt>
      <trkpt lat="51.851929000" lon="7.634225000">
        <ele>64.4</ele>
        <time>2017-04-29T05:44:31</time>
        <extensions><speed>1.45</speed></extensions>
      </trkpt>
      <trkpt lat="51.851936000" lon="7.634208000">
        <ele>64.5</ele>
        <time>2017-04-29T05:44:32</time>
        <extensions><speed>1.44</speed></extensions>
      </trkpt>
      <trkpt lat="51.851940000" lon="7.634192000">
        <ele>64.5</ele>
        <time>2017-04-29T05:44:33</time>
        <extensions><speed>1.37</speed></extensions>
      </trkpt>
      <trkpt lat="51.851948000" lon="7.634171000">
        <ele>64.6</ele>
        <time>2017-04-29T05:44:34</time>
        <extensions><speed>1.44</speed></extensions>
      </trkpt>
      <trkpt lat="51.851959000" lon="7.634152000">
        <ele>64.6</ele>
        <time>2017-04-29T05:44:35</time>
        <extensions><speed>1.52</speed></extensions>
      </trkpt>
      <trkpt lat="51.851967000" lon="7.634133000">
        <ele>64.6</ele>
        <time>2017-04-29T05:44:36</time>
        <extensions><speed>1.51</speed></extensions>
      </trkpt>
      <trkpt lat="51.851974000" lon="7.634117000">
        <ele>64.7</ele>
        <time>2017-04-29T05:44:37</time>
        <extensions><speed>1.52</speed></extensions>
      </trkpt>
      <trkpt lat="51.851982000" lon="7.634101000">
        <ele>64.7</ele>
        <time>2017-04-29T05:44:38</time>
        <extensions><speed>1.52</speed></extensions>
      </trkpt>
      <trkpt lat="51.851990000" lon="7.634087000">
        <ele>64.7</ele>
        <time>2017-04-29T05:44:39</time>
        <extensions><speed>1.52</speed></extensions>
      </trkpt>
      <trkpt lat="51.851997000" lon="7.634068000">
        <ele>64.8</ele>
        <time>2017-04-29T05:44:40</time>
        <extensions><speed>1.52</speed></extensions>
      </trkpt>
      <trkpt lat="51.852009000" lon="7.634052000">
        <ele>64.8</ele>
        <time>2017-04-29T05:44:41</time>
        <extensions><speed>1.50</speed></extensions>
      </trkpt>
      <trkpt lat="51.852016000" lon="7.634035000">
        <ele>64.8</ele>
        <time>2017-04-29T05:44:42</time>
        <extensions><speed>1.43</speed></extensions>
      </trkpt>
      <trkpt lat="51.852024000" lon="7.634020000">
        <ele>64.8</ele>
        <time>2017-04-29T05:44:43</time>
        <extensions><speed>1.43</speed></extensions>
      </trkpt>
      <trkpt lat="51.852032000" lon="7.634007000">
        <ele>64.9</ele>
        <time>2017-04-29T05:44:44</time>
        <extensions><speed>1.32</speed></extensions>
      </trkpt>
      <trkpt lat="51.852036000" lon="7.633991000">
        <ele>64.9</ele>
        <time>2017-04-29T05:44:45</time>
        <extensions><speed>1.24</speed></extensions>
      </trkpt>
      <trkpt lat="51.852051000" lon="7.633977000">
        <ele>64.9</ele>
        <time>2017-04-29T05:44:46</time>
        <extensions><speed>1.24</speed></extensions>
      </trkpt>
      <trkpt lat="51.852058000" lon="7.633960000">
        <ele>64.9</ele>
        <time>2017-04-29T05:44:47</time>
        <extensions><speed>1.26</speed></extensions>
      </trkpt>
      <trkpt lat="51.852062000" lon="7.633945000">
        <ele>65.0</ele>
        <time>2017-04-29T05:44:48</time>
        <extensions><speed>1.28</speed></extensions>
      </trkpt>
      <trkpt lat="51.852070000" lon="7.633930000">
        <ele>65.0</ele>
        <time>2017-04-29T05:44:49</time>
        <extensions><speed>1.28</speed></extensions>
      </trkpt>
      <trkpt lat="51.852077000" lon="7.633916000">
        <ele>65.0</ele>
        <time>2017-04-29T05:44:50</time>
        <extensions><speed>1.28</speed></extensions>
      </trkpt>
      <trkpt lat="51.852089000" lon="7.633905000">
        <ele>65.0</ele>
        <time>2017-04-29T05:44:51</time>
        <extensions><speed>1.26</speed></extensions>
      </trkpt>
      <trkpt lat="51.852097000" lon="7.633890000">
        <ele>65.0</ele>
        <time>2017-04-29T05:44:52</time>
        <extensions><speed>1.20</speed></extensions>
      </trkpt>
      <trkpt lat="51.852104000" lon="7.633879000">
        <ele>65.1</ele>
        <time>2017-04-29T05:44:53</time>
        <extensions><speed>1.22</speed></extensions>
      </trkpt>
      <trkpt lat="51.852112000" lon="7.633862000">
        <ele>65.1</ele>
        <time>2017-04-29T05:44:54</time>
        <extensions><speed>1.26</speed></extensions>
      </trkpt>
      <trkpt lat="51.852119000" lon="7.633844000">
        <ele>65.1</ele>
        <time>2017-04-29T05:44:55</time>
        <extensions><speed>1.26</speed></extensions>
      </trkpt>
      <trkpt lat="51.852131000" lon="7.633828000">
        <ele>65.1</ele>
        <time>2017-04-29T05:44:56</time>
        <extensions><speed>1.28</speed></extensions>
      </trkpt>
      <trkpt lat="51.852139000" lon="7.633813000">
        <ele>65.2</ele>
        <time>2017-04-29T05:44:57</time>
        <extensions><speed>1.35</speed></extensions>
      </trkpt>
      <trkpt lat="51.852146000" lon="7.633799000">
        <ele>65.2</ele>
        <time>2017-04-29T05:44:58</time>
        <extensions><speed>1.30</speed></extensions>
      </trkpt>
      <trkpt lat="51.852158000" lon="7.633783000">
        <ele>65.2</ele>
        <time>2017-04-29T05:44:59</time>
        <extensions><speed>1.30</speed></extensions>
      </trkpt>
      <trkpt lat="51.852161000" lon="7.633767000">
        <ele>65.2</ele>
        <time>2017-04-29T05:45:00</time>
        <extensions><speed>1.30</speed></extensions>
      </trkpt>
      <trkpt lat="51.852169000" lon="7.633751000">
        <ele>65.3</ele>
        <time>2017-04-29T05:45:01</time>
        <extensions><speed>1.32</speed></extensions>
      </trkpt>
      <trkpt lat="51.852180000" lon="7.633737000">
        <ele>65.3</ele>
        <time>2017-04-29T05:45:02</time>
        <extensions><speed>1.30</speed></extensions>
      </trkpt>
      <trkpt lat="51.852188000" lon="7.633720000">
        <ele>65.3</ele>
        <time>2017-04-29T05:45:03</time>
        <extensions><speed>1.35</speed></extensions>
      </trkpt>
      <trkpt lat="51.852196000" lon="7.633705000">
        <ele>65.3</ele>
        <time>2017-04-29T05:45:04</time>
        <extensions><speed>1.35</speed></extensions>
      </trkpt>
      <trkpt lat="51.852203000" lon="7.633688000">
        <ele>65.4</ele>
        <time>2017-04-29T05:45:05</time>
        <extensions><speed>1.41</speed></extensions>
      </trkpt>
      <trkpt lat="51.852215000" lon="7.633671000">
        <ele>65.4</ele>
        <time>2017-04-29T05:45:06</time>
        <extensions><speed>1.35</speed></extensions>
      </trkpt>
      <trkpt lat="51.852222000" lon="7.633657000">
        <ele>65.4</ele>
        <time>2017-04-29T05:45:07</time>
        <extensions><speed>1.36</speed></extensions>
      </trkpt>
      <trkpt lat="51.852230000" lon="7.633641000">
        <ele>65.4</ele>
        <time>2017-04-29T05:45:08</time>
        <extensions><speed>1.40</speed></extensions>
      </trkpt>
      <trkpt lat="51.852242000" lon="7.633625000">
        <ele>65.5</ele>
        <time>2017-04-29T05:45:09</time>
        <extensions><speed>1.45</speed></extensions>
      </trkpt>
      <trkpt lat="51.852253000" lon="7.633606000">
        <ele>65.5</ele>
        <time>2017-04-29T05:45:10</time>
        <extensions><speed>1.45</speed></extensions>
      </trkpt>
      <trkpt lat="51.852261000" lon="7.633590000">
        <ele>65.5</ele>
        <time>2017-04-29T05:45:11</time>
        <extensions><speed>1.45</speed></extensions>
      </trkpt>
      <trkpt lat="51.852272000" lon="7.633576000">
        <ele>65.5</ele>
        <time>2017-04-29T05:45:12</time>
        <extensions><speed>1.42</speed></extensions>
      </trkpt>
      <trkpt lat="51.852283000" lon="7.633564000">
        <ele>65.6</ele>
        <time>2017-04-29T05:45:13</time>
        <extensions><speed>1.46</speed></extensions>
      </trkpt>
      <trkpt lat="51.852291000" lon="7.633547000">
        <ele>65.6</ele>
        <time>2017-04-29T05:45:14</time>
        <extensions><speed>1.43</speed></extensions>
      </trkpt>
      <trkpt lat="51.852303000" lon="7.633531000">
        <ele>65.6</ele>
        <time>2017-04-29T05:45:15</time>
        <extensions><speed>1.39</speed></extensions>
      </trkpt>
      <trkpt lat="51.852310000" lon="7.633512000">
        <ele>65.6</ele>
        <time>2017-04-29T05:45:16</time>
        <extensions><speed>1.48</speed></extensions>
      </trkpt>
      <trkpt lat="51.852322000" lon="7.633492000">
        <ele>65.7</ele>
        <time>2017-04-29T05:45:17</time>
        <extensions><speed>1.54</speed></extensions>
      </trkpt>
      <trkpt lat="51.852329000" lon="7.633477000">
        <ele>65.7</ele>
        <time>2017-04-29T05:45:18</time>
        <extensions><speed>1.41</speed></extensions>
      </trkpt>
      <trkpt lat="51.852337000" lon="7.633461000">
        <ele>65.7</ele>
        <time>2017-04-29T05:45:19</time>
        <extensions><speed>1.49</speed></extensions>
      </trkpt>
      <trkpt lat="51.852345000" lon="7.633443000">
        <ele>65.8</ele>
        <time>2017-04-29T05:45:20</time>
        <extensions><speed>1.51</speed></extensions>
      </trkpt>
      <trkpt lat="51.852356000" lon="7.633426000">
        <ele>65.8</ele>
        <time>2017-04-29T05:45:21</time>
        <extensions><speed>1.45</speed></extensions>
      </trkpt>
      <trkpt lat="51.852360000" lon="7.633410000">
        <ele>65.8</ele>
        <time>2017-04-29T05:45:22</time>
        <extensions><speed>1.35</speed></extensions>
      </trkpt>
      <trkpt lat="51.852367000" lon="7.633395000">
        <ele>65.8</ele>
        <time>2017-04-29T05:45:23</time>
        <extensions><speed>1.36</speed></extensions>
      </trkpt>
      <trkpt lat="51.852379000" lon="7.633377000">
        <ele>65.8</ele>
        <time>2017-04-29T05:45:24</time>
        <extensions><speed>1.36</speed></extensions>
      </trkpt>
      <trkpt lat="51.852386000" lon="7.633359000">
        <ele>65.9</ele>
        <time>2017-04-29T05:45:25</time>
        <extensions><speed>1.26</speed></extensions>
      </trkpt>
      <trkpt lat="51.852390000" lon="7.633345000">
        <ele>65.9</ele>
        <time>2017-04-29T05:45:26</time>
        <extensions><speed>1.19</speed></extensions>
      </trkpt>
      <trkpt lat="51.852398000" lon="7.633328000">
        <ele>65.9</ele>
        <time>2017-04-29T05:45:27</time>
        <extensions><speed>1.29</speed></extensions>
      </trkpt>
      <trkpt lat="51.852413000" lon="7.633314000">
        <ele>65.9</ele>
        <time>2017-04-29T05:45:28</time>
        <extensions><speed>1.38</speed></extensions>
      </trkpt>
      <trkpt lat="51.852421000" lon="7.633300000">
        <ele>65.9</ele>
        <time>2017-04-29T05:45:29</time>
        <extensions><speed>1.37</speed></extensions>
      </trkpt>
      <trkpt lat="51.852428000" lon="7.633284000">
        <ele>65.9</ele>
        <time>2017-04-29T05:45:30</time>
        <extensions><speed>1.48</speed></extensions>
      </trkpt>
      <trkpt lat="51.852440000" lon="7.633265000">
        <ele>66.0</ele>
        <time>2017-04-29T05:45:31</time>
        <extensions><speed>1.48</speed></extensions>
      </trkpt>
      <trkpt lat="51.852448000" lon="7.633250000">
        <ele>66.0</ele>
        <time>2017-04-29T05:45:32</time>
        <extensions><speed>1.47</speed></extensions>
      </trkpt>
      <trkpt lat="51.852455000" lon="7.633233000">
        <ele>66.0</ele>
        <time>2017-04-29T05:45:33</time>
        <extensions><speed>1.47</speed></extensions>
      </trkpt>
      <trkpt lat="51.852467000" lon="7.633215000">
        <ele>66.0</ele>
        <time>2017-04-29T05:45:34</time>
        <extensions><speed>1.42</speed></extensions>
      </trkpt>
      <trkpt lat="51.852478000" lon="7.633200000">
        <ele>66.0</ele>
        <time>2017-04-29T05:45:35</time>
        <extensions><speed>1.41</speed></extensions>
      </trkpt>
      <trkpt lat="51.852489000" lon="7.633184000">
        <ele>66.0</ele>
        <time>2017-04-29T05:45:36</time>
        <extensions><speed>1.40</speed></extensions>
      </trkpt>
      <trkpt lat="51.852501000" lon="7.633170000">
        <ele>66.0</ele>
        <time>2017-04-29T05:45:37</time>
        <extensions><speed>1.43</speed></extensions>
      </trkpt>
      <trkpt lat="51.852509000" lon="7.633153000">
        <ele>66.0</ele>
        <time>2017-04-29T05:45:38</time>
        <extensions><speed>1.41</speed></extensions>
      </trkpt>
      <trkpt lat="51.852520000" lon="7.633140000">
        <ele>66.1</ele>
        <time>2017-04-29T05:45:39</time>
        <extensions><speed>1.41</speed></extensions>
      </trkpt>
      <trkpt lat="51.852520000" lon="7.633125000">
        <ele>66.1</ele>
        <time>2017-04-29T05:45:40</time>
        <extensions><speed>1.40</speed></extensions>
      </trkpt>
      <trkpt lat="51.852531000" lon="7.633109000">
        <ele>66.1</ele>
        <time>2017-04-29T05:45:41</time>
        <extensions><speed>1.34</speed></extensions>
      </trkpt>
      <trkpt lat="51.852543000" lon="7.633091000">
        <ele>66.1</ele>
        <time>2017-04-29T05:45:42</time>
        <extensions><speed>1.32</speed></extensions>
      </trkpt>
      <trkpt lat="51.852551000" lon="7.633075000">
        <ele>66.1</ele>
        <time>2017-04-29T05:45:43</time>
        <extensions><speed>1.21</speed></extensions>
      </trkpt>
      <trkpt lat="51.852558000" lon="7.633062000">
        <ele>66.1</ele>
        <time>2017-04-29T05:45:44</time>
        <extensions><speed>1.33</speed></extensions>
      </trkpt>
      <trkpt lat="51.852566000" lon="7.633046000">
        <ele>66.1</ele>
        <time>2017-04-29T05:45:45</time>
        <extensions><speed>1.35</speed></extensions>
      </trkpt>
      <trkpt lat="51.852577000" lon="7.633030000">
        <ele>66.1</ele>
        <time>2017-04-29T05:45:46</time>
        <extensions><speed>1.34</speed></extensions>
      </trkpt>
      <trkpt lat="51.852585000" lon="7.633017000">
        <ele>66.1</ele>
        <time>2017-04-29T05:45:47</time>
        <extensions><speed>1.39</speed></extensions>
      </trkpt>
      <trkpt lat="51.852592000" lon="7.632998000">
        <ele>66.1</ele>
        <time>2017-04-29T05:45:48</time>
        <extensions><speed>1.50</speed></extensions>
      </trkpt>
      <trkpt lat="51.852604000" lon="7.632978000">
        <ele>66.1</ele>
        <time>2017-04-29T05:45:49</time>
        <extensions><speed>1.48</speed></extensions>
      </trkpt>
      <trkpt lat="51.852615000" lon="7.632960000">
        <ele>66.1</ele>
        <time>2017-04-29T05:45:50</time>
        <extensions><speed>1.51</speed></extensions>
      </trkpt>
      <trkpt lat="51.852619000" lon="7.632943000">
        <ele>66.1</ele>
        <time>2017-04-29T05:45:51</time>
        <extensions><speed>1.51</speed></extensions>
      </trkpt>
      <trkpt lat="51.852631000" lon="7.632930000">
        <ele>66.1</ele>
        <time>2017-04-29T05:45:52</time>
        <extensions><speed>1.46</speed></extensions>
      </trkpt>
      <trkpt lat="51.852642000" lon="7.632913000">
        <ele>66.1</ele>
        <time>2017-04-29T05:45:53</time>
        <extensions><speed>1.44</speed></extensions>
      </trkpt>
      <trkpt lat="51.852650000" lon="7.632894000">
        <ele>66.1</ele>
        <time>2017-04-29T05:45:54</time>
        <extensions><speed>1.46</speed></extensions>
      </trkpt>
      <trkpt lat="51.852657000" lon="7.632874000">
        <ele>66.1</ele>
        <time>2017-04-29T05:45:55</time>
        <extensions><speed>1.41</speed></extensions>
      </trkpt>
      <trkpt lat="51.852669000" lon="7.632858000">
        <ele>66.1</ele>
        <time>2017-04-29T05:45:56</time>
        <extensions><speed>1.46</speed></extensions>
      </trkpt>
      <trkpt lat="51.852680000" lon="7.632842000">
        <ele>66.1</ele>
        <time>2017-04-29T05:45:57</time>
        <extensions><speed>1.44</speed></extensions>
      </trkpt>
      <trkpt lat="51.852684000" lon="7.632830000">
        <ele>66.1</ele>
        <time>2017-04-29T05:45:58</time>
        <extensions><speed>1.36</speed></extensions>
      </trkpt>
      <trkpt lat="51.852688000" lon="7.632817000">
        <ele>66.1</ele>
        <time>2017-04-29T05:45:59</time>
        <extensions><speed>1.36</speed></extensions>
      </trkpt>
      <trkpt lat="51.852699000" lon="7.632800000">
        <ele>66.1</ele>
        <time>2017-04-29T05:46:00</time>
        <extensions><speed>1.44</speed></extensions>
      </trkpt>
      <trkpt lat="51.852707000" lon="7.632783000">
        <ele>66.1</ele>
        <time>2017-04-29T05:46:01</time>
        <extensions><speed>1.36</speed></extensions>
      </trkpt>
      <trkpt lat="51.852715000" lon="7.632768000">
        <ele>66.1</ele>
        <time>2017-04-29T05:46:02</time>
        <extensions><speed>1.34</speed></extensions>
      </trkpt>
      <trkpt lat="51.852726000" lon="7.632753000">
        <ele>66.1</ele>
        <time>2017-04-29T05:46:03</time>
        <extensions><speed>1.34</speed></extensions>
      </trkpt>
      <trkpt lat="51.852734000" lon="7.632736000">
        <ele>66.0</ele>
        <time>2017-04-29T05:46:04</time>
        <extensions><speed>1.25</speed></extensions>
      </trkpt>
      <trkpt lat="51.852741000" lon="7.632724000">
        <ele>66.0</ele>
        <time>2017-04-29T05:46:05</time>
        <extensions><speed>1.25</speed></extensions>
      </trkpt>
      <trkpt lat="51.852753000" lon="7.632710000">
        <ele>66.0</ele>
        <time>2017-04-29T05:46:06</time>
        <extensions><speed>1.25</speed></extensions>
      </trkpt>
      <trkpt lat="51.852760000" lon="7.632696000">
        <ele>66.0</ele>
        <time>2017-04-29T05:46:07</time>
        <extensions><speed>1.20</speed></extensions>
      </trkpt>
      <trkpt lat="51.852764000" lon="7.632680000">
        <ele>66.0</ele>
        <time>2017-04-29T05:46:08</time>
        <extensions><speed>1.23</speed></extensions>
      </trkpt>
      <trkpt lat="51.852776000" lon="7.632665000">
        <ele>66.0</ele>
        <time>2017-04-29T05:46:09</time>
        <extensions><speed>1.35</speed></extensions>
      </trkpt>
      <trkpt lat="51.852787000" lon="7.632650000">
        <ele>66.0</ele>
        <time>2017-04-29T05:46:10</time>
        <extensions><speed>1.32</speed></extensions>
      </trkpt>
      <trkpt lat="51.852798000" lon="7.632633000">
        <ele>66.0</ele>
        <time>2017-04-29T05:46:11</time>
        <extensions><speed>1.27</speed></extensions>
      </trkpt>
      <trkpt lat="51.852806000" lon="7.632618000">
        <ele>66.0</ele>
        <time>2017-04-29T05:46:12</time>
        <extensions><speed>1.35</speed></extensions>
      </trkpt>
      <trkpt lat="51.852814000" lon="7.632603000">
        <ele>66.0</ele>
        <time>2017-04-29T05:46:13</time>
        <extensions><speed>1.41</speed></extensions>
      </trkpt>
      <trkpt lat="51.852821000" lon="7.632589000">
        <ele>66.0</ele>
        <time>2017-04-29T05:46:14</time>
        <extensions><speed>1.41</speed></extensions>
      </trkpt>
      <trkpt lat="51.852829000" lon="7.632573000">
        <ele>65.9</ele>
        <time>2017-04-29T05:46:15</time>
        <extensions><speed>1.44</speed></extensions>
      </trkpt>
      <trkpt lat="51.852840000" lon="7.632556000">
        <ele>65.9</ele>
        <time>2017-04-29T05:46:16</time>
        <extensions><speed>1.52</speed></extensions>
      </trkpt>
      <trkpt lat="51.852848000" lon="7.632544000">
        <ele>65.9</ele>
        <time>2017-04-29T05:46:17</time>
        <extensions><speed>1.44</speed></extensions>
      </trkpt>
      <trkpt lat="51.852856000" lon="7.632528000">
        <ele>65.9</ele>
        <time>2017-04-29T05:46:18</time>
        <extensions><speed>1.40</speed></extensions>
      </trkpt>
      <trkpt lat="51.852867000" lon="7.632515000">
        <ele>65.9</ele>
        <time>2017-04-29T05:46:19</time>
        <extensions><speed>1.38</speed></extensions>
      </trkpt>
      <trkpt lat="51.852875000" lon="7.632502000">
        <ele>65.9</ele>
        <time>2017-04-29T05:46:20</time>
        <extensions><speed>1.34</speed></extensions>
      </trkpt>
      <trkpt lat="51.852879000" lon="7.632492000">
        <ele>65.9</ele>
        <time>2017-04-29T05:46:21</time>
        <extensions><speed>1.29</speed></extensions>
      </trkpt>
      <trkpt lat="51.852886000" lon="7.632480000">
        <ele>65.9</ele>
        <time>2017-04-29T05:46:22</time>
        <extensions><speed>1.18</speed></extensions>
      </trkpt>
      <trkpt lat="51.852894000" lon="7.632465000">
        <ele>65.9</ele>
        <time>2017-04-29T05:46:23</time>
        <extensions><speed>1.20</speed></extensions>
      </trkpt>
      <trkpt lat="51.852901000" lon="7.632451000">
        <ele>65.9</ele>
        <time>2017-04-29T05:46:24</time>
        <extensions><speed>1.14</speed></extensions>
      </trkpt>
      <trkpt lat="51.852913000" lon="7.632433000">
        <ele>65.9</ele>
        <time>2017-04-29T05:46:25</time>
        <extensions><speed>1.20</speed></extensions>
      </trkpt>
      <trkpt lat="51.852917000" lon="7.632418000">
        <ele>65.9</ele>
        <time>2017-04-29T05:46:26</time>
        <extensions><speed>1.33</speed></extensions>
      </trkpt>
      <trkpt lat="51.852924000" lon="7.632405000">
        <ele>65.9</ele>
        <time>2017-04-29T05:46:27</time>
        <extensions><speed>1.37</speed></extensions>
      </trkpt>
      <trkpt lat="51.852932000" lon="7.632388000">
        <ele>65.8</ele>
        <time>2017-04-29T05:46:28</time>
        <extensions><speed>1.35</speed></extensions>
      </trkpt>
      <trkpt lat="51.852943000" lon="7.632373000">
        <ele>65.8</ele>
        <time>2017-04-29T05:46:29</time>
        <extensions><speed>1.39</speed></extensions>
      </trkpt>
      <trkpt lat="51.852955000" lon="7.632357000">
        <ele>65.8</ele>
        <time>2017-04-29T05:46:30</time>
        <extensions><speed>1.44</speed></extensions>
      </trkpt>
      <trkpt lat="51.852970000" lon="7.632342000">
        <ele>65.8</ele>
        <time>2017-04-29T05:46:31</time>
        <extensions><speed>1.42</speed></extensions>
      </trkpt>
      <trkpt lat="51.852974000" lon="7.632330000">
        <ele>65.8</ele>
        <time>2017-04-29T05:46:32</time>
        <extensions><speed>1.40</speed></extensions>
      </trkpt>
      <trkpt lat="51.852982000" lon="7.632316000">
        <ele>65.8</ele>
        <time>2017-04-29T05:46:33</time>
        <extensions><speed>1.41</speed></extensions>
      </trkpt>
      <trkpt lat="51.852989000" lon="7.632302000">
        <ele>65.8</ele>
        <time>2017-04-29T05:46:34</time>
        <extensions><speed>1.29</speed></extensions>
      </trkpt>
      <trkpt lat="51.853001000" lon="7.632285000">
        <ele>65.8</ele>
        <time>2017-04-29T05:46:35</time>
        <extensions><speed>1.27</speed></extensions>
      </trkpt>
      <trkpt lat="51.853008000" lon="7.632270000">
        <ele>65.8</ele>
        <time>2017-04-29T05:46:36</time>
        <extensions><speed>1.33</speed></extensions>
      </trkpt>
      <trkpt lat="51.853012000" lon="7.632253000">
        <ele>65.8</ele>
        <time>2017-04-29T05:46:37</time>
        <extensions><speed>1.33</speed></extensions>
      </trkpt>
      <trkpt lat="51.853020000" lon="7.632239000">
        <ele>65.7</ele>
        <time>2017-04-29T05:46:38</time>
        <extensions><speed>1.34</speed></extensions>
      </trkpt>
      <trkpt lat="51.853031000" lon="7.632220000">
        <ele>65.7</ele>
        <time>2017-04-29T05:46:39</time>
        <extensions><speed>1.46</speed></extensions>
      </trkpt>
      <trkpt lat="51.853039000" lon="7.632205000">
        <ele>65.7</ele>
        <time>2017-04-29T05:46:40</time>
        <extensions><speed>1.31</speed></extensions>
      </trkpt>
      <trkpt lat="51.853043000" lon="7.632194000">
        <ele>65.7</ele>
        <time>2017-04-29T05:46:41</time>
        <extensions><speed>1.32</speed></extensions>
      </trkpt>
      <trkpt lat="51.853046000" lon="7.632178000">
        <ele>65.7</ele>
        <time>2017-04-29T05:46:42</time>
        <extensions><speed>1.50</speed></extensions>
      </trkpt>
      <trkpt lat="51.853054000" lon="7.632164000">
        <ele>65.7</ele>
        <time>2017-04-29T05:46:43</time>
        <extensions><speed>1.43</speed></extensions>
      </trkpt>
      <trkpt lat="51.853069000" lon="7.632145000">
        <ele>65.7</ele>
        <time>2017-04-29T05:46:44</time>
        <extensions><speed>1.43</speed></extensions>
      </trkpt>
      <trkpt lat="51.853081000" lon="7.632127000">
        <ele>65.7</ele>
        <time>2017-04-29T05:46:45</time>
        <extensions><speed>1.51</speed></extensions>
      </trkpt>
      <trkpt lat="51.853092000" lon="7.632110000">
        <ele>65.7</ele>
        <time>2017-04-29T05:46:46</time>
        <extensions><speed>1.47</speed></extensions>
      </trkpt>
      <trkpt lat="51.853104000" lon="7.632095000">
        <ele>65.6</ele>
        <time>2017-04-29T05:46:47</time>
        <extensions><speed>1.42</speed></extensions>
      </trkpt>
      <trkpt lat="51.853107000" lon="7.632078000">
        <ele>65.6</ele>
        <time>2017-04-29T05:46:48</time>
        <extensions><speed>1.51</speed></extensions>
      </trkpt>
      <trkpt lat="51.853115000" lon="7.632060000">
        <ele>65.6</ele>
        <time>2017-04-29T05:46:49</time>
        <extensions><speed>1.50</speed></extensions>
      </trkpt>
      <trkpt lat="51.853127000" lon="7.632043000">
        <ele>65.6</ele>
        <time>2017-04-29T05:46:50</time>
        <extensions><speed>1.38</speed></extensions>
      </trkpt>
      <trkpt lat="51.853134000" lon="7.632032000">
        <ele>65.6</ele>
        <time>2017-04-29T05:46:51</time>
        <extensions><speed>1.36</speed></extensions>
      </trkpt>
      <trkpt lat="51.853142000" lon="7.632020000">
        <ele>65.6</ele>
        <time>2017-04-29T05:46:52</time>
        <extensions><speed>1.37</speed></extensions>
      </trkpt>
      <trkpt lat="51.853149000" lon="7.632001000">
        <ele>65.6</ele>
        <time>2017-04-29T05:46:53</time>
        <extensions><speed>1.37</speed></extensions>
      </trkpt>
      <trkpt lat="51.853157000" lon="7.631985000">
        <ele>65.6</ele>
        <time>2017-04-29T05:46:54</time>
        <extensions><speed>1.28</speed></extensions>
      </trkpt>
      <trkpt lat="51.853165000" lon="7.631966000">
        <ele>65.6</ele>
        <time>2017-04-29T05:46:55</time>
        <extensions><speed>1.35</speed></extensions>
      </trkpt>
      <trkpt lat="51.853172000" lon="7.631948000">
        <ele>65.6</ele>
        <time>2017-04-29T05:46:56</time>
        <extensions><speed>1.44</speed></extensions>
      </trkpt>
      <trkpt lat="51.853180000" lon="7.631935000">
        <ele>65.6</ele>
        <time>2017-04-29T05:46:57</time>
        <extensions><speed>1.44</speed></extensions>
      </trkpt>
      <trkpt lat="51.853191000" lon="7.631924000">
        <ele>65.6</ele>
        <time>2017-04-29T05:46:58</time>
        <extensions><speed>1.35</speed></extensions>
      </trkpt>
      <trkpt lat="51.853199000" lon="7.631907000">
        <ele>65.6</ele>
        <time>2017-04-29T05:46:59</time>
        <extensions><speed>1.43</speed></extensions>
      </trkpt>
      <trkpt lat="51.853207000" lon="7.631887000">
        <ele>65.6</ele>
        <time>2017-04-29T05:47:00</time>
        <extensions><speed>1.42</speed></extensions>
      </trkpt>
      <trkpt lat="51.853214000" lon="7.631872000">
        <ele>65.6</ele>
        <time>2017-04-29T05:47:01</time>
        <extensions><speed>1.42</speed></extensions>
      </trkpt>
      <trkpt lat="51.853226000" lon="7.631855000">
        <ele>65.6</ele>
        <time>2017-04-29T05:47:02</time>
        <extensions><speed>1.50</speed></extensions>
      </trkpt>
      <trkpt lat="51.853237000" lon="7.631842000">
        <ele>65.6</ele>
        <time>2017-04-29T05:47:03</time>
        <extensions><speed>1.50</speed></extensions>
      </trkpt>
      <trkpt lat="51.853245000" lon="7.631825000">
        <ele>65.6</ele>
        <time>2017-04-29T05:47:04</time>
        <extensions><speed>1.48</speed></extensions>
      </trkpt>
      <trkpt lat="51.853252000" lon="7.631807000">
        <ele>65.6</ele>
        <time>2017-04-29T05:47:05</time>
        <extensions><speed>1.44</speed></extensions>
      </trkpt>
      <trkpt lat="51.853260000" lon="7.631791000">
        <ele>65.6</ele>
        <time>2017-04-29T05:47:06</time>
        <extensions><speed>1.43</speed></extensions>
      </trkpt>
      <trkpt lat="51.853271000" lon="7.631772000">
        <ele>65.6</ele>
        <time>2017-04-29T05:47:07</time>
        <extensions><speed>1.43</speed></extensions>
      </trkpt>
      <trkpt lat="51.853283000" lon="7.631755000">
        <ele>65.7</ele>
        <time>2017-04-29T05:47:08</time>
        <extensions><speed>1.43</speed></extensions>
      </trkpt>
      <trkpt lat="51.853291000" lon="7.631742000">
        <ele>65.7</ele>
        <time>2017-04-29T05:47:09</time>
        <extensions><speed>1.38</speed></extensions>
      </trkpt>
      <trkpt lat="51.853302000" lon="7.631728000">
        <ele>65.7</ele>
        <time>2017-04-29T05:47:10</time>
        <extensions><speed>1.42</speed></extensions>
      </trkpt>
      <trkpt lat="51.853306000" lon="7.631717000">
        <ele>65.7</ele>
        <time>2017-04-29T05:47:11</time>
        <extensions><speed>1.34</speed></extensions>
      </trkpt>
      <trkpt lat="51.853313000" lon="7.631698000">
        <ele>65.7</ele>
        <time>2017-04-29T05:47:12</time>
        <extensions><speed>1.34</speed></extensions>
      </trkpt>
      <trkpt lat="51.853325000" lon="7.631680000">
        <ele>65.7</ele>
        <time>2017-04-29T05:47:13</time>
        <extensions><speed>1.35</speed></extensions>
      </trkpt>
      <trkpt lat="51.853336000" lon="7.631665000">
        <ele>65.7</ele>
        <time>2017-04-29T05:47:14</time>
        <extensions><speed>1.41</speed></extensions>
      </trkpt>
      <trkpt lat="51.853344000" lon="7.631650000">
        <ele>65.8</ele>
        <time>2017-04-29T05:47:15</time>
        <extensions><speed>1.42</speed></extensions>
      </trkpt>
      <trkpt lat="51.853352000" lon="7.631633000">
        <ele>65.8</ele>
        <time>2017-04-29T05:47:16</time>
        <extensions><speed>1.42</speed></extensions>
      </trkpt>
      <trkpt lat="51.853363000" lon="7.631618000">
        <ele>65.8</ele>
        <time>2017-04-29T05:47:17</time>
        <extensions><speed>1.42</speed></extensions>
      </trkpt>
      <trkpt lat="51.853367000" lon="7.631600000">
        <ele>65.8</ele>
        <time>2017-04-29T05:47:18</time>
        <extensions><speed>1.50</speed></extensions>
      </trkpt>
      <trkpt lat="51.853378000" lon="7.631583000">
        <ele>65.8</ele>
        <time>2017-04-29T05:47:19</time>
        <extensions><speed>1.54</speed></extensions>
      </trkpt>
      <trkpt lat="51.853386000" lon="7.631568000">
        <ele>65.8</ele>
        <time>2017-04-29T05:47:20</time>
        <extensions><speed>1.49</speed></extensions>
      </trkpt>
      <trkpt lat="51.853390000" lon="7.631553000">
        <ele>65.9</ele>
        <time>2017-04-29T05:47:21</time>
        <extensions><speed>1.48</speed></extensions>
      </trkpt>
      <trkpt lat="51.853397000" lon="7.631538000">
        <ele>65.9</ele>
        <time>2017-04-29T05:47:22</time>
        <extensions><speed>1.38</speed></extensions>
      </trkpt>
      <trkpt lat="51.853405000" lon="7.631523000">
        <ele>65.9</ele>
        <time>2017-04-29T05:47:23</time>
        <extensions><speed>1.28</speed></extensions>
      </trkpt>
      <trkpt lat="51.853416000" lon="7.631509000">
        <ele>65.9</ele>
        <time>2017-04-29T05:47:24</time>
        <extensions><speed>1.26</speed></extensions>
      </trkpt>
      <trkpt lat="51.853428000" lon="7.631493000">
        <ele>65.9</ele>
        <time>2017-04-29T05:47:25</time>
        <extensions><speed>1.28</speed></extensions>
      </trkpt>
      <trkpt lat="51.853436000" lon="7.631478000">
        <ele>65.9</ele>
        <time>2017-04-29T05:47:26</time>
        <extensions><speed>1.34</speed></extensions>
      </trkpt>
      <trkpt lat="51.853443000" lon="7.631465000">
        <ele>66.0</ele>
        <time>2017-04-29T05:47:27</time>
        <extensions><speed>1.38</speed></extensions>
      </trkpt>
      <trkpt lat="51.853455000" lon="7.631450000">
        <ele>66.0</ele>
        <time>2017-04-29T05:47:28</time>
        <extensions><speed>1.46</speed></extensions>
      </trkpt>
      <trkpt lat="51.853462000" lon="7.631435000">
        <ele>66.0</ele>
        <time>2017-04-29T05:47:29</time>
        <extensions><speed>1.48</speed></extensions>
      </trkpt>
      <trkpt lat="51.853474000" lon="7.631422000">
        <ele>66.0</ele>
        <time>2017-04-29T05:47:30</time>
        <extensions><speed>1.51</speed></extensions>
      </trkpt>
      <trkpt lat="51.853481000" lon="7.631405000">
        <ele>66.1</ele>
        <time>2017-04-29T05:47:31</time>
        <extensions><speed>1.44</speed></extensions>
      </trkpt>
      <trkpt lat="51.853489000" lon="7.631388000">
        <ele>66.1</ele>
        <time>2017-04-29T05:47:32</time>
        <extensions><speed>1.46</speed></extensions>
      </trkpt>
      <trkpt lat="51.853497000" lon="7.631372000">
        <ele>66.2</ele>
        <time>2017-04-29T05:47:33</time>
        <extensions><speed>1.48</speed></extensions>
      </trkpt>
      <trkpt lat="51.853500000" lon="7.631360000">
        <ele>66.2</ele>
        <time>2017-04-29T05:47:34</time>
        <extensions><speed>1.38</speed></extensions>
      </trkpt>
      <trkpt lat="51.853500000" lon="7.631348000">
        <ele>66.2</ele>
        <time>2017-04-29T05:47:35</time>
        <extensions><speed>1.20</speed></extensions>
      </trkpt>
      <trkpt lat="51.853508000" lon="7.631335000">
        <ele>66.3</ele>
        <time>2017-04-29T05:47:36</time>
        <extensions><speed>1.21</speed></extensions>
      </trkpt>
      <trkpt lat="51.853516000" lon="7.631322000">
        <ele>66.3</ele>
        <time>2017-04-29T05:47:37</time>
        <extensions><speed>1.17</speed></extensions>
      </trkpt>
      <trkpt lat="51.853523000" lon="7.631308000">
        <ele>66.4</ele>
        <time>2017-04-29T05:47:38</time>
        <extensions><speed>1.17</speed></extensions>
      </trkpt>
      <trkpt lat="51.853531000" lon="7.631293000">
        <ele>66.4</ele>
        <time>2017-04-29T05:47:39</time>
        <extensions><speed>1.30</speed></extensions>
      </trkpt>
      <trkpt lat="51.853535000" lon="7.631278000">
        <ele>66.4</ele>
        <time>2017-04-29T05:47:40</time>
        <extensions><speed>1.30</speed></extensions>
      </trkpt>
      <trkpt lat="51.853539000" lon="7.631264000">
        <ele>66.4</ele>
        <time>2017-04-29T05:47:41</time>
        <extensions><speed>1.37</speed></extensions>
      </trkpt>
      <trkpt lat="51.853546000" lon="7.631250000">
        <ele>66.5</ele>
        <time>2017-04-29T05:47:42</time>
        <extensions><speed>1.35</speed></extensions>
      </trkpt>
      <trkpt lat="51.853554000" lon="7.631238000">
        <ele>66.5</ele>
        <time>2017-04-29T05:47:43</time>
        <extensions><speed>1.29</speed></extensions>
      </trkpt>
      <trkpt lat="51.853558000" lon="7.631224000">
        <ele>66.5</ele>
        <time>2017-04-29T05:47:44</time>
        <extensions><speed>1.23</speed></extensions>
      </trkpt>
      <trkpt lat="51.853565000" lon="7.631207000">
        <ele>66.5</ele>
        <time>2017-04-29T05:47:45</time>
        <extensions><speed>1.31</speed></extensions>
      </trkpt>
      <trkpt lat="51.853565000" lon="7.631190000">
        <ele>66.6</ele>
        <time>2017-04-29T05:47:46</time>
        <extensions><speed>1.28</speed></extensions>
      </trkpt>
      <trkpt lat="51.853573000" lon="7.631176000">
        <ele>66.6</ele>
        <time>2017-04-29T05:47:47</time>
        <extensions><speed>1.24</speed></extensions>
      </trkpt>
      <trkpt lat="51.853580000" lon="7.631170000">
        <ele>66.6</ele>
        <time>2017-04-29T05:47:48</time>
        <extensions><speed>1.24</speed></extensions>
      </trkpt>
      <trkpt lat="51.853588000" lon="7.631168000">
        <ele>66.6</ele>
        <time>2017-04-29T05:47:49</time>
        <extensions><speed>1.13</speed></extensions>
      </trkpt>
      <trkpt lat="51.853596000" lon="7.631162000">
        <ele>66.7</ele>
        <time>2017-04-29T05:47:50</time>
        <extensions><speed>1.13</speed></extensions>
      </trkpt>
      <trkpt lat="51.853603000" lon="7.631152000">
        <ele>66.7</ele>
        <time>2017-04-29T05:47:51</time>
        <extensions><speed>0.96</speed></extensions>
      </trkpt>
      <trkpt lat="51.853611000" lon="7.631145000">
        <ele>66.7</ele>
        <time>2017-04-29T05:47:52</time>
        <extensions><speed>0.97</speed></extensions>
      </trkpt>
      <trkpt lat="51.853622000" lon="7.631135000">
        <ele>66.7</ele>
        <time>2017-04-29T05:47:53</time>
        <extensions><speed>1.14</speed></extensions>
      </trkpt>
      <trkpt lat="51.853630000" lon="7.631120000">
        <ele>66.8</ele>
        <time>2017-04-29T05:47:54</time>
        <extensions><speed>1.27</speed></extensions>
      </trkpt>
      <trkpt lat="51.853634000" lon="7.631105000">
        <ele>66.8</ele>
        <time>2017-04-29T05:47:55</time>
        <extensions><speed>1.25</speed></extensions>
      </trkpt>
      <trkpt lat="51.853642000" lon="7.631089000">
        <ele>66.8</ele>
        <time>2017-04-29T05:47:56</time>
        <extensions><speed>1.31</speed></extensions>
      </trkpt>
      <trkpt lat="51.853653000" lon="7.631072000">
        <ele>66.9</ele>
        <time>2017-04-29T05:47:57</time>
        <extensions><speed>1.36</speed></extensions>
      </trkpt>
      <trkpt lat="51.853661000" lon="7.631055000">
        <ele>66.9</ele>
        <time>2017-04-29T05:47:58</time>
        <extensions><speed>1.36</speed></extensions>
      </trkpt>
      <trkpt lat="51.853668000" lon="7.631035000">
        <ele>66.9</ele>
        <time>2017-04-29T05:47:59</time>
        <extensions><speed>1.44</speed></extensions>
      </trkpt>
      <trkpt lat="51.853680000" lon="7.631017000">
        <ele>67.0</ele>
        <time>2017-04-29T05:48:00</time>
        <extensions><speed>1.51</speed></extensions>
      </trkpt>
      <trkpt lat="51.853691000" lon="7.631003000">
        <ele>67.0</ele>
        <time>2017-04-29T05:48:01</time>
        <extensions><speed>1.55</speed></extensions>
      </trkpt>
      <trkpt lat="51.853695000" lon="7.630989000">
        <ele>67.0</ele>
        <time>2017-04-29T05:48:02</time>
        <extensions><speed>1.55</speed></extensions>
      </trkpt>
      <trkpt lat="51.853703000" lon="7.630973000">
        <ele>67.1</ele>
        <time>2017-04-29T05:48:03</time>
        <extensions><speed>1.46</speed></extensions>
      </trkpt>
      <trkpt lat="51.853714000" lon="7.630958000">
        <ele>67.1</ele>
        <time>2017-04-29T05:48:04</time>
        <extensions><speed>1.44</speed></extensions>
      </trkpt>
      <trkpt lat="51.853722000" lon="7.630945000">
        <ele>67.2</ele>
        <time>2017-04-29T05:48:05</time>
        <extensions><speed>1.33</speed></extensions>
      </trkpt>
      <trkpt lat="51.853725000" lon="7.630933000">
        <ele>67.2</ele>
        <time>2017-04-29T05:48:06</time>
        <extensions><speed>1.22</speed></extensions>
      </trkpt>
      <trkpt lat="51.853733000" lon="7.630919000">
        <ele>67.2</ele>
        <time>2017-04-29T05:48:07</time>
        <extensions><speed>1.18</speed></extensions>
      </trkpt>
      <trkpt lat="51.853745000" lon="7.630903000">
        <ele>67.3</ele>
        <time>2017-04-29T05:48:08</time>
        <extensions><speed>1.19</speed></extensions>
      </trkpt>
      <trkpt lat="51.853760000" lon="7.630886000">
        <ele>67.3</ele>
        <time>2017-04-29T05:48:09</time>
        <extensions><speed>1.19</speed></extensions>
      </trkpt>
      <trkpt lat="51.853764000" lon="7.630868000">
        <ele>67.3</ele>
        <time>2017-04-29T05:48:10</time>
        <extensions><speed>1.26</speed></extensions>
      </trkpt>
      <trkpt lat="51.853771000" lon="7.630853000">
        <ele>67.4</ele>
        <time>2017-04-29T05:48:11</time>
        <extensions><speed>1.30</speed></extensions>
      </trkpt>
      <trkpt lat="51.853779000" lon="7.630842000">
        <ele>67.4</ele>
        <time>2017-04-29T05:48:12</time>
        <extensions><speed>1.37</speed></extensions>
      </trkpt>
      <trkpt lat="51.853790000" lon="7.630828000">
        <ele>67.5</ele>
        <time>2017-04-29T05:48:13</time>
        <extensions><speed>1.40</speed></extensions>
      </trkpt>
      <trkpt lat="51.853794000" lon="7.630814000">
        <ele>67.5</ele>
        <time>2017-04-29T05:48:14</time>
        <extensions><speed>1.33</speed></extensions>
      </trkpt>
      <trkpt lat="51.853802000" lon="7.630795000">
        <ele>67.5</ele>
        <time>2017-04-29T05:48:15</time>
        <extensions><speed>1.33</speed></extensions>
      </trkpt>
      <trkpt lat="51.853809000" lon="7.630779000">
        <ele>67.6</ele>
        <time>2017-04-29T05:48:16</time>
        <extensions><speed>1.39</speed></extensions>
      </trkpt>
      <trkpt lat="51.853825000" lon="7.630764000">
        <ele>67.6</ele>
        <time>2017-04-29T05:48:17</time>
        <extensions><speed>1.39</speed></extensions>
      </trkpt>
      <trkpt lat="51.853825000" lon="7.630756000">
        <ele>67.7</ele>
        <time>2017-04-29T05:48:18</time>
      </trkpt>
      <trkpt lat="51.853836000" lon="7.630744000">
        <ele>67.7</ele>
        <time>2017-04-29T05:48:20</time>
        <extensions><speed>1.32</speed></extensions>
      </trkpt>
      <trkpt lat="51.853844000" lon="7.630727000">
        <ele>67.7</ele>
        <time>2017-04-29T05:48:21</time>
        <extensions><speed>1.33</speed></extensions>
      </trkpt>
      <trkpt lat="51.853851000" lon="7.630711000">
        <ele>67.8</ele>
        <time>2017-04-29T05:48:22</time>
        <extensions><speed>1.28</speed></extensions>
      </trkpt>
      <trkpt lat="51.853855000" lon="7.630693000">
        <ele>67.8</ele>
        <time>2017-04-29T05:48:23</time>
        <extensions><speed>1.38</speed></extensions>
      </trkpt>
      <trkpt lat="51.853863000" lon="7.630674000">
        <ele>67.8</ele>
        <time>2017-04-29T05:48:24</time>
        <extensions><speed>1.39</speed></extensions>
      </trkpt>
      <trkpt lat="51.853867000" lon="7.630653000">
        <ele>67.9</ele>
        <time>2017-04-29T05:48:25</time>
        <extensions><speed>1.36</speed></extensions>
      </trkpt>
      <trkpt lat="51.853878000" lon="7.630635000">
        <ele>67.9</ele>
        <time>2017-04-29T05:48:26</time>
        <extensions><speed>1.36</speed></extensions>
      </trkpt>
      <trkpt lat="51.853889000" lon="7.630620000">
        <ele>67.9</ele>
        <time>2017-04-29T05:48:27</time>
        <extensions><speed>1.36</speed></extensions>
      </trkpt>
      <trkpt lat="51.853897000" lon="7.630607000">
        <ele>67.9</ele>
        <time>2017-04-29T05:48:28</time>
        <extensions><speed>1.32</speed></extensions>
      </trkpt>
      <trkpt lat="51.853905000" lon="7.630593000">
        <ele>67.9</ele>
        <time>2017-04-29T05:48:29</time>
        <extensions><speed>1.30</speed></extensions>
      </trkpt>
      <trkpt lat="51.853912000" lon="7.630575000">
        <ele>68.0</ele>
        <time>2017-04-29T05:48:30</time>
        <extensions><speed>1.35</speed></extensions>
      </trkpt>
      <trkpt lat="51.853920000" lon="7.630553000">
        <ele>68.0</ele>
        <time>2017-04-29T05:48:31</time>
        <extensions><speed>1.38</speed></extensions>
      </trkpt>
      <trkpt lat="51.853928000" lon="7.630534000">
        <ele>68.1</ele>
        <time>2017-04-29T05:48:32</time>
        <extensions><speed>1.47</speed></extensions>
      </trkpt>
      <trkpt lat="51.853939000" lon="7.630513000">
        <ele>68.1</ele>
        <time>2017-04-29T05:48:33</time>
        <extensions><speed>1.56</speed></extensions>
      </trkpt>
      <trkpt lat="51.853947000" lon="7.630495000">
        <ele>68.1</ele>
        <time>2017-04-29T05:48:34</time>
        <extensions><speed>1.56</speed></extensions>
      </trkpt>
      <trkpt lat="51.853951000" lon="7.630478000">
        <ele>68.2</ele>
        <time>2017-04-29T05:48:35</time>
        <extensions><speed>1.45</speed></extensions>
      </trkpt>
      <trkpt lat="51.853954000" lon="7.630460000">
        <ele>68.2</ele>
        <time>2017-04-29T05:48:36</time>
        <extensions><speed>1.36</speed></extensions>
      </trkpt>
      <trkpt lat="51.853954000" lon="7.630438000">
        <ele>68.3</ele>
        <time>2017-04-29T05:48:37</time>
        <extensions><speed>1.27</speed></extensions>
      </trkpt>
      <trkpt lat="51.853958000" lon="7.630417000">
        <ele>68.3</ele>
        <time>2017-04-29T05:48:38</time>
        <extensions><speed>1.27</speed></extensions>
      </trkpt>
      <trkpt lat="51.853958000" lon="7.630394000">
        <ele>68.3</ele>
        <time>2017-04-29T05:48:39</time>
        <extensions><speed>1.30</speed></extensions>
      </trkpt>
      <trkpt lat="51.853962000" lon="7.630372000">
        <ele>68.3</ele>
        <time>2017-04-29T05:48:40</time>
        <extensions><speed>1.38</speed></extensions>
      </trkpt>
      <trkpt lat="51.853966000" lon="7.630352000">
        <ele>68.4</ele>
        <time>2017-04-29T05:48:41</time>
        <extensions><speed>1.38</speed></extensions>
      </trkpt>
      <trkpt lat="51.853970000" lon="7.630333000">
        <ele>68.4</ele>
        <time>2017-04-29T05:48:42</time>
        <extensions><speed>1.40</speed></extensions>
      </trkpt>
      <trkpt lat="51.853973000" lon="7.630315000">
        <ele>68.4</ele>
        <time>2017-04-29T05:48:43</time>
        <extensions><speed>1.37</speed></extensions>
      </trkpt>
      <trkpt lat="51.853973000" lon="7.630300000">
        <ele>68.4</ele>
        <time>2017-04-29T05:48:44</time>
        <extensions><speed>1.28</speed></extensions>
      </trkpt>
      <trkpt lat="51.853977000" lon="7.630282000">
        <ele>68.4</ele>
        <time>2017-04-29T05:48:45</time>
        <extensions><speed>1.25</speed></extensions>
      </trkpt>
      <trkpt lat="51.853981000" lon="7.630259000">
        <ele>68.4</ele>
        <time>2017-04-29T05:48:46</time>
        <extensions><speed>1.29</speed></extensions>
      </trkpt>
      <trkpt lat="51.853985000" lon="7.630235000">
        <ele>68.4</ele>
        <time>2017-04-29T05:48:47</time>
        <extensions><speed>1.33</speed></extensions>
      </trkpt>
      <trkpt lat="51.853989000" lon="7.630213000">
        <ele>68.5</ele>
        <time>2017-04-29T05:48:48</time>
        <extensions><speed>1.33</speed></extensions>
      </trkpt>
      <trkpt lat="51.853989000" lon="7.630197000">
        <ele>68.5</ele>
        <time>2017-04-29T05:48:49</time>
        <extensions><speed>1.33</speed></extensions>
      </trkpt>
      <trkpt lat="51.853996000" lon="7.630182000">
        <ele>68.5</ele>
        <time>2017-04-29T05:48:50</time>
        <extensions><speed>1.39</speed></extensions>
      </trkpt>
      <trkpt lat="51.854008000" lon="7.630168000">
        <ele>68.5</ele>
        <time>2017-04-29T05:48:51</time>
        <extensions><speed>1.24</speed></extensions>
      </trkpt>
      <trkpt lat="51.854012000" lon="7.630152000">
        <ele>68.5</ele>
        <time>2017-04-29T05:48:52</time>
        <extensions><speed>1.18</speed></extensions>
      </trkpt>
      <trkpt lat="51.854019000" lon="7.630133000">
        <ele>68.5</ele>
        <time>2017-04-29T05:48:53</time>
        <extensions><speed>1.17</speed></extensions>
      </trkpt>
      <trkpt lat="51.854019000" lon="7.630116000">
        <ele>68.5</ele>
        <time>2017-04-29T05:48:54</time>
        <extensions><speed>1.23</speed></extensions>
      </trkpt>
      <trkpt lat="51.854023000" lon="7.630095000">
        <ele>68.6</ele>
        <time>2017-04-29T05:48:55</time>
        <extensions><speed>1.23</speed></extensions>
      </trkpt>
      <trkpt lat="51.854034000" lon="7.630075000">
        <ele>68.6</ele>
        <time>2017-04-29T05:48:56</time>
        <extensions><speed>1.31</speed></extensions>
      </trkpt>
      <trkpt lat="51.854038000" lon="7.630058000">
        <ele>68.6</ele>
        <time>2017-04-29T05:48:57</time>
        <extensions><speed>1.29</speed></extensions>
      </trkpt>
      <trkpt lat="51.854042000" lon="7.630040000">
        <ele>68.6</ele>
        <time>2017-04-29T05:48:58</time>
        <extensions><speed>1.39</speed></extensions>
      </trkpt>
      <trkpt lat="51.854050000" lon="7.630020000">
        <ele>68.7</ele>
        <time>2017-04-29T05:48:59</time>
        <extensions><speed>1.43</speed></extensions>
      </trkpt>
      <trkpt lat="51.854053000" lon="7.630003000">
        <ele>68.7</ele>
        <time>2017-04-29T05:49:00</time>
        <extensions><speed>1.50</speed></extensions>
      </trkpt>
      <trkpt lat="51.854069000" lon="7.629990000">
        <ele>68.7</ele>
        <time>2017-04-29T05:49:01</time>
        <extensions><speed>1.38</speed></extensions>
      </trkpt>
      <trkpt lat="51.854076000" lon="7.629977000">
        <ele>68.7</ele>
        <time>2017-04-29T05:49:02</time>
        <extensions><speed>1.38</speed></extensions>
      </trkpt>
      <trkpt lat="51.854080000" lon="7.629957000">
        <ele>68.8</ele>
        <time>2017-04-29T05:49:03</time>
        <extensions><speed>1.32</speed></extensions>
      </trkpt>
      <trkpt lat="51.854084000" lon="7.629939000">
        <ele>68.8</ele>
        <time>2017-04-29T05:49:04</time>
        <extensions><speed>1.30</speed></extensions>
      </trkpt>
      <trkpt lat="51.854092000" lon="7.629918000">
        <ele>68.8</ele>
        <time>2017-04-29T05:49:05</time>
        <extensions><speed>1.30</speed></extensions>
      </trkpt>
      <trkpt lat="51.854095000" lon="7.629900000">
        <ele>68.9</ele>
        <time>2017-04-29T05:49:06</time>
        <extensions><speed>1.25</speed></extensions>
      </trkpt>
      <trkpt lat="51.854099000" lon="7.629890000">
        <ele>68.9</ele>
        <time>2017-04-29T05:49:07</time>
        <extensions><speed>1.25</speed></extensions>
      </trkpt>
      <trkpt lat="51.854099000" lon="7.629878000">
        <ele>68.9</ele>
        <time>2017-04-29T05:49:08</time>
        <extensions><speed>1.21</speed></extensions>
      </trkpt>
      <trkpt lat="51.854103000" lon="7.629865000">
        <ele>68.9</ele>
        <time>2017-04-29T05:49:09</time>
        <extensions><speed>1.08</speed></extensions>
      </trkpt>
      <trkpt lat="51.854111000" lon="7.629850000">
        <ele>69.0</ele>
        <time>2017-04-29T05:49:10</time>
        <extensions><speed>1.06</speed></extensions>
      </trkpt>
      <trkpt lat="51.854115000" lon="7.629834000">
        <ele>69.0</ele>
        <time>2017-04-29T05:49:11</time>
        <extensions><speed>1.02</speed></extensions>
      </trkpt>
      <trkpt lat="51.854115000" lon="7.629823000">
        <ele>69.0</ele>
        <time>2017-04-29T05:49:12</time>
      </trkpt>
      <trkpt lat="51.854115000" lon="7.629804000">
        <ele>69.0</ele>
        <time>2017-04-29T05:49:14</time>
        <extensions><speed>1.09</speed></extensions>
      </trkpt>
      <trkpt lat="51.854118000" lon="7.629780000">
        <ele>69.0</ele>
        <time>2017-04-29T05:49:15</time>
        <extensions><speed>1.19</speed></extensions>
      </trkpt>
      <trkpt lat="51.854130000" lon="7.629753000">
        <ele>68.9</ele>
        <time>2017-04-29T05:49:16</time>
        <extensions><speed>1.42</speed></extensions>
      </trkpt>
      <trkpt lat="51.854134000" lon="7.629732000">
        <ele>68.9</ele>
        <time>2017-04-29T05:49:17</time>
        <extensions><speed>1.46</speed></extensions>
      </trkpt>
      <trkpt lat="51.854141000" lon="7.629720000">
        <ele>68.9</ele>
        <time>2017-04-29T05:49:18</time>
        <extensions><speed>1.46</speed></extensions>
      </trkpt>
      <trkpt lat="51.854145000" lon="7.629704000">
        <ele>68.9</ele>
        <time>2017-04-29T05:49:19</time>
        <extensions><speed>1.37</speed></extensions>
      </trkpt>
      <trkpt lat="51.854149000" lon="7.629687000">
        <ele>68.9</ele>
        <time>2017-04-29T05:49:20</time>
        <extensions><speed>1.23</speed></extensions>
      </trkpt>
      <trkpt lat="51.854156000" lon="7.629665000">
        <ele>68.9</ele>
        <time>2017-04-29T05:49:21</time>
        <extensions><speed>1.23</speed></extensions>
      </trkpt>
      <trkpt lat="51.854164000" lon="7.629643000">
        <ele>68.9</ele>
        <time>2017-04-29T05:49:22</time>
        <extensions><speed>1.25</speed></extensions>
      </trkpt>
      <trkpt lat="51.854168000" lon="7.629620000">
        <ele>68.8</ele>
        <time>2017-04-29T05:49:23</time>
        <extensions><speed>1.28</speed></extensions>
      </trkpt>
      <trkpt lat="51.854168000" lon="7.629606000">
        <ele>68.8</ele>
        <time>2017-04-29T05:49:24</time>
        <extensions><speed>1.28</speed></extensions>
      </trkpt>
      <trkpt lat="51.854214000" lon="7.629426000">
        <ele>68.7</ele>
        <time>2017-04-29T05:51:22</time>
      </trkpt>
      <trkpt lat="51.854218000" lon="7.629406000">
        <ele>68.7</ele>
        <time>2017-04-29T05:51:24</time>
        <extensions><speed>1.43</speed></extensions>
      </trkpt>
      <trkpt lat="51.854225000" lon="7.629387000">
        <ele>68.7</ele>
        <time>2017-04-29T05:51:25</time>
        <extensions><speed>1.43</speed></extensions>
      </trkpt>
      <trkpt lat="51.854225000" lon="7.629366000">
        <ele>68.7</ele>
        <time>2017-04-29T05:51:26</time>
        <extensions><speed>1.41</speed></extensions>
      </trkpt>
      <trkpt lat="51.854229000" lon="7.629350000">
        <ele>68.6</ele>
        <time>2017-04-29T05:51:27</time>
        <extensions><speed>1.32</speed></extensions>
      </trkpt>
      <trkpt lat="51.854233000" lon="7.629333000">
        <ele>68.6</ele>
        <time>2017-04-29T05:51:28</time>
        <extensions><speed>1.20</speed></extensions>
      </trkpt>
      <trkpt lat="51.854237000" lon="7.629321000">
        <ele>68.6</ele>
        <time>2017-04-29T05:51:29</time>
        <extensions><speed>1.13</speed></extensions>
      </trkpt>
      <trkpt lat="51.854244000" lon="7.629305000">
        <ele>68.6</ele>
        <time>2017-04-29T05:51:30</time>
        <extensions><speed>1.11</speed></extensions>
      </trkpt>
      <trkpt lat="51.854248000" lon="7.629290000">
        <ele>68.6</ele>
        <time>2017-04-29T05:51:31</time>
        <extensions><speed>1.10</speed></extensions>
      </trkpt>
      <trkpt lat="51.854252000" lon="7.629275000">
        <ele>68.6</ele>
        <time>2017-04-29T05:51:32</time>
        <extensions><speed>1.10</speed></extensions>
      </trkpt>
      <trkpt lat="51.854256000" lon="7.629258000">
        <ele>68.6</ele>
        <time>2017-04-29T05:51:33</time>
        <extensions><speed>1.11</speed></extensions>
      </trkpt>
      <trkpt lat="51.854259000" lon="7.629240000">
        <ele>68.6</ele>
        <time>2017-04-29T05:51:34</time>
        <extensions><speed>1.17</speed></extensions>
      </trkpt>
      <trkpt lat="51.854267000" lon="7.629221000">
        <ele>68.6</ele>
        <time>2017-04-29T05:51:35</time>
        <extensions><speed>1.23</speed></extensions>
      </trkpt>
      <trkpt lat="51.854275000" lon="7.629207000">
        <ele>68.6</ele>
        <time>2017-04-29T05:51:36</time>
        <extensions><speed>1.28</speed></extensions>
      </trkpt>
      <trkpt lat="51.854279000" lon="7.629193000">
        <ele>68.6</ele>
        <time>2017-04-29T05:51:37</time>
        <extensions><speed>1.24</speed></extensions>
      </trkpt>
      <trkpt lat="51.854282000" lon="7.629175000">
        <ele>68.5</ele>
        <time>2017-04-29T05:51:38</time>
        <extensions><speed>1.29</speed></extensions>
      </trkpt>
      <trkpt lat="51.854290000" lon="7.629153000">
        <ele>68.5</ele>
        <time>2017-04-29T05:51:39</time>
        <extensions><speed>1.35</speed></extensions>
      </trkpt>
      <trkpt lat="51.854298000" lon="7.629132000">
        <ele>68.5</ele>
        <time>2017-04-29T05:51:40</time>
        <extensions><speed>1.31</speed></extensions>
      </trkpt>
      <trkpt lat="51.854301000" lon="7.629113000">
        <ele>68.5</ele>
        <time>2017-04-29T05:51:41</time>
        <extensions><speed>1.27</speed></extensions>
      </trkpt>
      <trkpt lat="51.854309000" lon="7.629095000">
        <ele>68.5</ele>
        <time>2017-04-29T05:51:42</time>
        <extensions><speed>1.34</speed></extensions>
      </trkpt>
      <trkpt lat="51.854313000" lon="7.629081000">
        <ele>68.5</ele>
        <time>2017-04-29T05:51:43</time>
        <extensions><speed>1.25</speed></extensions>
      </trkpt>
      <trkpt lat="51.854317000" lon="7.629067000">
        <ele>68.4</ele>
        <time>2017-04-29T05:51:44</time>
        <extensions><speed>1.25</speed></extensions>
      </trkpt>
      <trkpt lat="51.854321000" lon="7.629045000">
        <ele>68.4</ele>
        <time>2017-04-29T05:51:45</time>
        <extensions><speed>1.32</speed></extensions>
      </trkpt>
      <trkpt lat="51.854324000" lon="7.629024000">
        <ele>68.4</ele>
        <time>2017-04-29T05:51:46</time>
        <extensions><speed>1.41</speed></extensions>
      </trkpt>
      <trkpt lat="51.854328000" lon="7.629002000">
        <ele>68.4</ele>
        <time>2017-04-29T05:51:47</time>
        <extensions><speed>1.42</speed></extensions>
      </trkpt>
      <trkpt lat="51.854328000" lon="7.628983000">
        <ele>68.4</ele>
        <time>2017-04-29T05:51:48</time>
        <extensions><speed>1.42</speed></extensions>
      </trkpt>
      <trkpt lat="51.854328000" lon="7.628969000">
        <ele>68.4</ele>
        <time>2017-04-29T05:51:49</time>
        <extensions><speed>1.29</speed></extensions>
      </trkpt>
      <trkpt lat="51.854332000" lon="7.628950000">
        <ele>68.4</ele>
        <time>2017-04-29T05:51:50</time>
        <extensions><speed>1.21</speed></extensions>
      </trkpt>
      <trkpt lat="51.854336000" lon="7.628932000">
        <ele>68.3</ele>
        <time>2017-04-29T05:51:51</time>
        <extensions><speed>1.21</speed></extensions>
      </trkpt>
      <trkpt lat="51.854340000" lon="7.628917000">
        <ele>68.3</ele>
        <time>2017-04-29T05:51:52</time>
        <extensions><speed>1.05</speed></extensions>
      </trkpt>
      <trkpt lat="51.854343000" lon="7.628905000">
        <ele>68.3</ele>
        <time>2017-04-29T05:51:53</time>
        <extensions><speed>1.05</speed></extensions>
      </trkpt>
      <trkpt lat="51.854347000" lon="7.628889000">
        <ele>68.3</ele>
        <time>2017-04-29T05:51:54</time>
        <extensions><speed>1.21</speed></extensions>
      </trkpt>
      <trkpt lat="51.854351000" lon="7.628868000">
        <ele>68.3</ele>
        <time>2017-04-29T05:51:55</time>
        <extensions><speed>1.25</speed></extensions>
      </trkpt>
      <trkpt lat="51.854355000" lon="7.628852000">
        <ele>68.3</ele>
        <time>2017-04-29T05:51:56</time>
        <extensions><speed>1.15</speed></extensions>
      </trkpt>
      <trkpt lat="51.854355000" lon="7.628836000">
        <ele>68.3</ele>
        <time>2017-04-29T05:51:57</time>
        <extensions><speed>1.20</speed></extensions>
      </trkpt>
      <trkpt lat="51.854355000" lon="7.628824000">
        <ele>68.3</ele>
        <time>2017-04-29T05:51:58</time>
        <extensions><speed>1.20</speed></extensions>
      </trkpt>
      <trkpt lat="51.854359000" lon="7.628807000">
        <ele>68.3</ele>
        <time>2017-04-29T05:51:59</time>
        <extensions><speed>1.14</speed></extensions>
      </trkpt>
      <trkpt lat="51.854362000" lon="7.628788000">
        <ele>68.3</ele>
        <time>2017-04-29T05:52:00</time>
        <extensions><speed>1.14</speed></extensions>
      </trkpt>
      <trkpt lat="51.854370000" lon="7.628771000">
        <ele>68.3</ele>
        <time>2017-04-29T05:52:01</time>
        <extensions><speed>1.15</speed></extensions>
      </trkpt>
      <trkpt lat="51.854378000" lon="7.628755000">
        <ele>68.2</ele>
        <time>2017-04-29T05:52:02</time>
        <extensions><speed>1.19</speed></extensions>
      </trkpt>
      <trkpt lat="51.854385000" lon="7.628731000">
        <ele>68.2</ele>
        <time>2017-04-29T05:52:03</time>
        <extensions><speed>1.33</speed></extensions>
      </trkpt>
      <trkpt lat="51.854393000" lon="7.628714000">
        <ele>68.2</ele>
        <time>2017-04-29T05:52:04</time>
        <extensions><speed>1.31</speed></extensions>
      </trkpt>
      <trkpt lat="51.854393000" lon="7.628696000">
        <ele>68.2</ele>
        <time>2017-04-29T05:52:05</time>
        <extensions><speed>1.35</speed></extensions>
      </trkpt>
      <trkpt lat="51.854397000" lon="7.628675000">
        <ele>68.2</ele>
        <time>2017-04-29T05:52:06</time>
        <extensions><speed>1.46</speed></extensions>
      </trkpt>
      <trkpt lat="51.854401000" lon="7.628657000">
        <ele>68.2</ele>
        <time>2017-04-29T05:52:07</time>
        <extensions><speed>1.38</speed></extensions>
      </trkpt>
      <trkpt lat="51.854401000" lon="7.628642000">
        <ele>68.2</ele>
        <time>2017-04-29T05:52:08</time>
        <extensions><speed>1.25</speed></extensions>
      </trkpt>
      <trkpt lat="51.854401000" lon="7.628624000">
        <ele>68.2</ele>
        <time>2017-04-29T05:52:09</time>
        <extensions><speed>1.37</speed></extensions>
      </trkpt>
      <trkpt lat="51.854408000" lon="7.628607000">
        <ele>68.1</ele>
        <time>2017-04-29T05:52:10</time>
        <extensions><speed>1.30</speed></extensions>
      </trkpt>
      <trkpt lat="51.854412000" lon="7.628590000">
        <ele>68.1</ele>
        <time>2017-04-29T05:52:11</time>
        <extensions><speed>1.28</speed></extensions>
      </trkpt>
      <trkpt lat="51.854416000" lon="7.628570000">
        <ele>68.1</ele>
        <time>2017-04-29T05:52:12</time>
        <extensions><speed>1.33</speed></extensions>
      </trkpt>
      <trkpt lat="51.854420000" lon="7.628549000">
        <ele>68.1</ele>
        <time>2017-04-29T05:52:13</time>
        <extensions><speed>1.38</speed></extensions>
      </trkpt>
      <trkpt lat="51.854424000" lon="7.628528000">
        <ele>68.1</ele>
        <time>2017-04-29T05:52:14</time>
        <extensions><speed>1.30</speed></extensions>
      </trkpt>
      <trkpt lat="51.854427000" lon="7.628510000">
        <ele>68.0</ele>
        <time>2017-04-29T05:52:15</time>
        <extensions><speed>1.30</speed></extensions>
      </trkpt>
      <trkpt lat="51.854431000" lon="7.628491000">
        <ele>68.0</ele>
        <time>2017-04-29T05:52:16</time>
        <extensions><speed>1.24</speed></extensions>
      </trkpt>
      <trkpt lat="51.854431000" lon="7.628475000">
        <ele>67.9</ele>
        <time>2017-04-29T05:52:17</time>
        <extensions><speed>1.24</speed></extensions>
      </trkpt>
      <trkpt lat="51.854439000" lon="7.628455000">
        <ele>67.8</ele>
        <time>2017-04-29T05:52:18</time>
        <extensions><speed>1.25</speed></extensions>
      </trkpt>
      <trkpt lat="51.854443000" lon="7.628433000">
        <ele>67.8</ele>
        <time>2017-04-29T05:52:19</time>
        <extensions><speed>1.33</speed></extensions>
      </trkpt>
      <trkpt lat="51.854443000" lon="7.628414000">
        <ele>67.7</ele>
        <time>2017-04-29T05:52:20</time>
        <extensions><speed>1.32</speed></extensions>
      </trkpt>
      <trkpt lat="51.854446000" lon="7.628397000">
        <ele>67.7</ele>
        <time>2017-04-29T05:52:21</time>
        <extensions><speed>1.34</speed></extensions>
      </trkpt>
      <trkpt lat="51.854450000" lon="7.628376000">
        <ele>67.6</ele>
        <time>2017-04-29T05:52:22</time>
        <extensions><speed>1.37</speed></extensions>
      </trkpt>
      <trkpt lat="51.854454000" lon="7.628351000">
        <ele>67.5</ele>
        <time>2017-04-29T05:52:23</time>
        <extensions><speed>1.32</speed></extensions>
      </trkpt>
      <trkpt lat="51.854462000" lon="7.628328000">
        <ele>67.5</ele>
        <time>2017-04-29T05:52:24</time>
        <extensions><speed>1.32</speed></extensions>
      </trkpt>
      <trkpt lat="51.854465000" lon="7.628307000">
        <ele>67.4</ele>
        <time>2017-04-29T05:52:25</time>
        <extensions><speed>1.32</speed></extensions>
      </trkpt>
      <trkpt lat="51.854465000" lon="7.628286000">
        <ele>67.3</ele>
        <time>2017-04-29T05:52:26</time>
        <extensions><speed>1.33</speed></extensions>
      </trkpt>
      <trkpt lat="51.854465000" lon="7.628263000">
        <ele>67.2</ele>
        <time>2017-04-29T05:52:27</time>
        <extensions><speed>1.33</speed></extensions>
      </trkpt>
      <trkpt lat="51.854469000" lon="7.628241000">
        <ele>67.2</ele>
        <time>2017-04-29T05:52:28</time>
        <extensions><speed>1.36</speed></extensions>
      </trkpt>
      <trkpt lat="51.854473000" lon="7.628220000">
        <ele>67.1</ele>
        <time>2017-04-29T05:52:29</time>
        <extensions><speed>1.36</speed></extensions>
      </trkpt>
      <trkpt lat="51.854477000" lon="7.628202000">
        <ele>67.0</ele>
        <time>2017-04-29T05:52:30</time>
        <extensions><speed>1.36</speed></extensions>
      </trkpt>
      <trkpt lat="51.854477000" lon="7.628181000">
        <ele>67.0</ele>
        <time>2017-04-29T05:52:31</time>
        <extensions><speed>1.39</speed></extensions>
      </trkpt>
      <trkpt lat="51.854477000" lon="7.628165000">
        <ele>66.9</ele>
        <time>2017-04-29T05:52:32</time>
        <extensions><speed>1.34</speed></extensions>
      </trkpt>
      <trkpt lat="51.854481000" lon="7.628150000">
        <ele>66.8</ele>
        <time>2017-04-29T05:52:33</time>
        <extensions><speed>1.21</speed></extensions>
      </trkpt>
      <trkpt lat="51.854488000" lon="7.628134000">
        <ele>66.8</ele>
        <time>2017-04-29T05:52:34</time>
        <extensions><speed>1.21</speed></extensions>
      </trkpt>
      <trkpt lat="51.854496000" lon="7.628117000">
        <ele>66.7</ele>
        <time>2017-04-29T05:52:35</time>
        <extensions><speed>1.25</speed></extensions>
      </trkpt>
      <trkpt lat="51.854507000" lon="7.628097000">
        <ele>66.7</ele>
        <time>2017-04-29T05:52:36</time>
        <extensions><speed>1.26</speed></extensions>
      </trkpt>
      <trkpt lat="51.854511000" lon="7.628073000">
        <ele>66.6</ele>
        <time>2017-04-29T05:52:37</time>
        <extensions><speed>1.38</speed></extensions>
      </trkpt>
      <trkpt lat="51.854515000" lon="7.628050000">
        <ele>66.5</ele>
        <time>2017-04-29T05:52:38</time>
        <extensions><speed>1.43</speed></extensions>
      </trkpt>
      <trkpt lat="51.854519000" lon="7.628030000">
        <ele>66.5</ele>
        <time>2017-04-29T05:52:39</time>
        <extensions><speed>1.40</speed></extensions>
      </trkpt>
      <trkpt lat="51.854527000" lon="7.628010000">
        <ele>66.4</ele>
        <time>2017-04-29T05:52:40</time>
        <extensions><speed>1.44</speed></extensions>
      </trkpt>
      <trkpt lat="51.854534000" lon="7.627990000">
        <ele>66.3</ele>
        <time>2017-04-29T05:52:41</time>
        <extensions><speed>1.41</speed></extensions>
      </trkpt>
      <trkpt lat="51.854542000" lon="7.627968000">
        <ele>66.2</ele>
        <time>2017-04-29T05:52:42</time>
        <extensions><speed>1.46</speed></extensions>
      </trkpt>
      <trkpt lat="51.854546000" lon="7.627945000">
        <ele>66.1</ele>
        <time>2017-04-29T05:52:43</time>
        <extensions><speed>1.49</speed></extensions>
      </trkpt>
      <trkpt lat="51.854549000" lon="7.627925000">
        <ele>66.0</ele>
        <time>2017-04-29T05:52:44</time>
        <extensions><speed>1.51</speed></extensions>
      </trkpt>
      <trkpt lat="51.854553000" lon="7.627905000">
        <ele>66.0</ele>
        <time>2017-04-29T05:52:45</time>
        <extensions><speed>1.52</speed></extensions>
      </trkpt>
      <trkpt lat="51.854557000" lon="7.627885000">
        <ele>65.9</ele>
        <time>2017-04-29T05:52:46</time>
        <extensions><speed>1.52</speed></extensions>
      </trkpt>
      <trkpt lat="51.854561000" lon="7.627868000">
        <ele>65.8</ele>
        <time>2017-04-29T05:52:47</time>
        <extensions><speed>1.45</speed></extensions>
      </trkpt>
      <trkpt lat="51.854565000" lon="7.627850000">
        <ele>65.7</ele>
        <time>2017-04-29T05:52:48</time>
        <extensions><speed>1.44</speed></extensions>
      </trkpt>
      <trkpt lat="51.854572000" lon="7.627831000">
        <ele>65.6</ele>
        <time>2017-04-29T05:52:49</time>
        <extensions><speed>1.41</speed></extensions>
      </trkpt>
      <trkpt lat="51.854572000" lon="7.627812000">
        <ele>65.6</ele>
        <time>2017-04-29T05:52:50</time>
        <extensions><speed>1.34</speed></extensions>
      </trkpt>
      <trkpt lat="51.854576000" lon="7.627793000">
        <ele>65.5</ele>
        <time>2017-04-29T05:52:51</time>
        <extensions><speed>1.30</speed></extensions>
      </trkpt>
      <trkpt lat="51.854576000" lon="7.627773000">
        <ele>65.4</ele>
        <time>2017-04-29T05:52:52</time>
        <extensions><speed>1.28</speed></extensions>
      </trkpt>
      <trkpt lat="51.854580000" lon="7.627756000">
        <ele>65.3</ele>
        <time>2017-04-29T05:52:53</time>
        <extensions><speed>1.21</speed></extensions>
      </trkpt>
      <trkpt lat="51.854584000" lon="7.627740000">
        <ele>65.3</ele>
        <time>2017-04-29T05:52:54</time>
        <extensions><speed>1.19</speed></extensions>
      </trkpt>
      <trkpt lat="51.854591000" lon="7.627719000">
        <ele>65.2</ele>
        <time>2017-04-29T05:52:55</time>
        <extensions><speed>1.19</speed></extensions>
      </trkpt>
      <trkpt lat="51.854595000" lon="7.627703000">
        <ele>65.1</ele>
        <time>2017-04-29T05:52:56</time>
        <extensions><speed>1.15</speed></extensions>
      </trkpt>
      <trkpt lat="51.854595000" lon="7.627688000">
        <ele>65.1</ele>
        <time>2017-04-29T05:52:57</time>
        <extensions><speed>1.18</speed></extensions>
      </trkpt>
      <trkpt lat="51.854595000" lon="7.627670000">
        <ele>65.0</ele>
        <time>2017-04-29T05:52:58</time>
        <extensions><speed>1.27</speed></extensions>
      </trkpt>
      <trkpt lat="51.854599000" lon="7.627650000">
        <ele>64.9</ele>
        <time>2017-04-29T05:52:59</time>
        <extensions><speed>1.37</speed></extensions>
      </trkpt>
      <trkpt lat="51.854603000" lon="7.627630000">
        <ele>64.9</ele>
        <time>2017-04-29T05:53:00</time>
        <extensions><speed>1.32</speed></extensions>
      </trkpt>
      <trkpt lat="51.854607000" lon="7.627620000">
        <ele>64.7</ele>
        <time>2017-04-29T05:53:01</time>
      </trkpt>
      <trkpt lat="51.854607000" lon="7.627605000">
        <ele>64.7</ele>
        <time>2017-04-29T05:53:03</time>
        <extensions><speed>1.21</speed></extensions>
      </trkpt>
      <trkpt lat="51.854610000" lon="7.627588000">
        <ele>64.6</ele>
        <time>2017-04-29T05:53:04</time>
        <extensions><speed>1.21</speed></extensions>
      </trkpt>
      <trkpt lat="51.854614000" lon="7.627563000">
        <ele>64.6</ele>
        <time>2017-04-29T05:53:05</time>
        <extensions><speed>1.23</speed></extensions>
      </trkpt>
      <trkpt lat="51.854614000" lon="7.627539000">
        <ele>64.5</ele>
        <time>2017-04-29T05:53:06</time>
        <extensions><speed>1.37</speed></extensions>
      </trkpt>
      <trkpt lat="51.854618000" lon="7.627520000">
        <ele>64.4</ele>
        <time>2017-04-29T05:53:07</time>
        <extensions><speed>1.45</speed></extensions>
      </trkpt>
      <trkpt lat="51.854622000" lon="7.627500000">
        <ele>64.4</ele>
        <time>2017-04-29T05:53:08</time>
        <extensions><speed>1.47</speed></extensions>
      </trkpt>
      <trkpt lat="51.854622000" lon="7.627478000">
        <ele>64.3</ele>
        <time>2017-04-29T05:53:09</time>
        <extensions><speed>1.42</speed></extensions>
      </trkpt>
      <trkpt lat="51.854626000" lon="7.627459000">
        <ele>64.3</ele>
        <time>2017-04-29T05:53:10</time>
        <extensions><speed>1.34</speed></extensions>
      </trkpt>
      <trkpt lat="51.854630000" lon="7.627439000">
        <ele>64.2</ele>
        <time>2017-04-29T05:53:11</time>
        <extensions><speed>1.34</speed></extensions>
      </trkpt>
      <trkpt lat="51.854633000" lon="7.627420000">
        <ele>64.1</ele>
        <time>2017-04-29T05:53:12</time>
        <extensions><speed>1.30</speed></extensions>
      </trkpt>
      <trkpt lat="51.854641000" lon="7.627402000">
        <ele>64.1</ele>
        <time>2017-04-29T05:53:13</time>
        <extensions><speed>1.30</speed></extensions>
      </trkpt>
      <trkpt lat="51.854649000" lon="7.627385000">
        <ele>64.0</ele>
        <time>2017-04-29T05:53:14</time>
        <extensions><speed>1.28</speed></extensions>
      </trkpt>
      <trkpt lat="51.854652000" lon="7.627369000">
        <ele>63.9</ele>
        <time>2017-04-29T05:53:15</time>
        <extensions><speed>1.26</speed></extensions>
      </trkpt>
      <trkpt lat="51.854660000" lon="7.627353000">
        <ele>63.8</ele>
        <time>2017-04-29T05:53:16</time>
        <extensions><speed>1.30</speed></extensions>
      </trkpt>
      <trkpt lat="51.854668000" lon="7.627338000">
        <ele>63.8</ele>
        <time>2017-04-29T05:53:17</time>
        <extensions><speed>1.34</speed></extensions>
      </trkpt>
      <trkpt lat="51.854675000" lon="7.627320000">
        <ele>63.7</ele>
        <time>2017-04-29T05:53:18</time>
        <extensions><speed>1.36</speed></extensions>
      </trkpt>
      <trkpt lat="51.854683000" lon="7.627300000">
        <ele>63.6</ele>
        <time>2017-04-29T05:53:19</time>
        <extensions><speed>1.53</speed></extensions>
      </trkpt>
      <trkpt lat="51.854691000" lon="7.627278000">
        <ele>63.6</ele>
        <time>2017-04-29T05:53:20</time>
        <extensions><speed>1.57</speed></extensions>
      </trkpt>
      <trkpt lat="51.854694000" lon="7.627259000">
        <ele>63.5</ele>
        <time>2017-04-29T05:53:21</time>
        <extensions><speed>1.50</speed></extensions>
      </trkpt>
      <trkpt lat="51.854698000" lon="7.627240000">
        <ele>63.4</ele>
        <time>2017-04-29T05:53:22</time>
        <extensions><speed>1.45</speed></extensions>
      </trkpt>
      <trkpt lat="51.854702000" lon="7.627223000">
        <ele>63.4</ele>
        <time>2017-04-29T05:53:23</time>
        <extensions><speed>1.28</speed></extensions>
      </trkpt>
      <trkpt lat="51.854706000" lon="7.627210000">
        <ele>63.3</ele>
        <time>2017-04-29T05:53:24</time>
        <extensions><speed>1.17</speed></extensions>
      </trkpt>
      <trkpt lat="51.854710000" lon="7.627200000">
        <ele>63.2</ele>
        <time>2017-04-29T05:53:25</time>
        <extensions><speed>1.11</speed></extensions>
      </trkpt>
      <trkpt lat="51.854721000" lon="7.627187000">
        <ele>63.2</ele>
        <time>2017-04-29T05:53:26</time>
        <extensions><speed>1.15</speed></extensions>
      </trkpt>
      <trkpt lat="51.854733000" lon="7.627173000">
        <ele>63.1</ele>
        <time>2017-04-29T05:53:27</time>
        <extensions><speed>1.17</speed></extensions>
      </trkpt>
      <trkpt lat="51.854736000" lon="7.627161000">
        <ele>63.1</ele>
        <time>2017-04-29T05:53:28</time>
        <extensions><speed>1.17</speed></extensions>
      </trkpt>
      <trkpt lat="51.854748000" lon="7.627141000">
        <ele>63.1</ele>
        <time>2017-04-29T05:53:29</time>
        <extensions><speed>1.35</speed></extensions>
      </trkpt>
      <trkpt lat="51.854752000" lon="7.627126000">
        <ele>63.0</ele>
        <time>2017-04-29T05:53:30</time>
        <extensions><speed>1.35</speed></extensions>
      </trkpt>
      <trkpt lat="51.854755000" lon="7.627113000">
        <ele>63.0</ele>
        <time>2017-04-29T05:53:31</time>
        <extensions><speed>1.23</speed></extensions>
      </trkpt>
      <trkpt lat="51.854767000" lon="7.627095000">
        <ele>63.0</ele>
        <time>2017-04-29T05:53:32</time>
        <extensions><speed>1.25</speed></extensions>
      </trkpt>
      <trkpt lat="51.854774000" lon="7.627079000">
        <ele>62.9</ele>
        <time>2017-04-29T05:53:33</time>
        <extensions><speed>1.21</speed></extensions>
      </trkpt>
      <trkpt lat="51.854778000" lon="7.627058000">
        <ele>62.9</ele>
        <time>2017-04-29T05:53:34</time>
        <extensions><speed>1.21</speed></extensions>
      </trkpt>
      <trkpt lat="51.854782000" lon="7.627038000">
        <ele>62.9</ele>
        <time>2017-04-29T05:53:35</time>
        <extensions><speed>1.28</speed></extensions>
      </trkpt>
      <trkpt lat="51.854794000" lon="7.627022000">
        <ele>62.9</ele>
        <time>2017-04-29T05:53:36</time>
        <extensions><speed>1.35</speed></extensions>
      </trkpt>
      <trkpt lat="51.854801000" lon="7.627005000">
        <ele>62.8</ele>
        <time>2017-04-29T05:53:37</time>
        <extensions><speed>1.33</speed></extensions>
      </trkpt>
      <trkpt lat="51.854809000" lon="7.626991000">
        <ele>62.8</ele>
        <time>2017-04-29T05:53:38</time>
        <extensions><speed>1.33</speed></extensions>
      </trkpt>
      <trkpt lat="51.854816000" lon="7.626978000">
        <ele>62.7</ele>
        <time>2017-04-29T05:53:39</time>
        <extensions><speed>1.34</speed></extensions>
      </trkpt>
      <trkpt lat="51.854824000" lon="7.626962000">
        <ele>62.7</ele>
        <time>2017-04-29T05:53:40</time>
        <extensions><speed>1.34</speed></extensions>
      </trkpt>
      <trkpt lat="51.854832000" lon="7.626945000">
        <ele>62.7</ele>
        <time>2017-04-29T05:53:41</time>
        <extensions><speed>1.32</speed></extensions>
      </trkpt>
      <trkpt lat="51.854839000" lon="7.626926000">
        <ele>62.6</ele>
        <time>2017-04-29T05:53:42</time>
        <extensions><speed>1.35</speed></extensions>
      </trkpt>
      <trkpt lat="51.854843000" lon="7.626912000">
        <ele>62.6</ele>
        <time>2017-04-29T05:53:43</time>
        <extensions><speed>1.35</speed></extensions>
      </trkpt>
      <trkpt lat="51.854855000" lon="7.626898000">
        <ele>62.5</ele>
        <time>2017-04-29T05:53:44</time>
        <extensions><speed>1.36</speed></extensions>
      </trkpt>
      <trkpt lat="51.854862000" lon="7.626883000">
        <ele>62.5</ele>
        <time>2017-04-29T05:53:45</time>
        <extensions><speed>1.36</speed></extensions>
      </trkpt>
      <trkpt lat="51.854866000" lon="7.626867000">
        <ele>62.5</ele>
        <time>2017-04-29T05:53:46</time>
        <extensions><speed>1.32</speed></extensions>
      </trkpt>
      <trkpt lat="51.854877000" lon="7.626852000">
        <ele>62.4</ele>
        <time>2017-04-29T05:53:47</time>
        <extensions><speed>1.30</speed></extensions>
      </trkpt>
      <trkpt lat="51.854889000" lon="7.626833000">
        <ele>62.4</ele>
        <time>2017-04-29T05:53:48</time>
        <extensions><speed>1.35</speed></extensions>
      </trkpt>
      <trkpt lat="51.854897000" lon="7.626815000">
        <ele>62.3</ele>
        <time>2017-04-29T05:53:49</time>
        <extensions><speed>1.33</speed></extensions>
      </trkpt>
      <trkpt lat="51.854904000" lon="7.626799000">
        <ele>62.3</ele>
        <time>2017-04-29T05:53:50</time>
        <extensions><speed>1.31</speed></extensions>
      </trkpt>
      <trkpt lat="51.854912000" lon="7.626780000">
        <ele>62.3</ele>
        <time>2017-04-29T05:53:51</time>
        <extensions><speed>1.30</speed></extensions>
      </trkpt>
      <trkpt lat="51.854919000" lon="7.626762000">
        <ele>62.2</ele>
        <time>2017-04-29T05:53:52</time>
        <extensions><speed>1.30</speed></extensions>
      </trkpt>
      <trkpt lat="51.854927000" lon="7.626743000">
        <ele>62.2</ele>
        <time>2017-04-29T05:53:53</time>
        <extensions><speed>1.30</speed></extensions>
      </trkpt>
      <trkpt lat="51.854931000" lon="7.626729000">
        <ele>62.2</ele>
        <time>2017-04-29T05:53:54</time>
        <extensions><speed>1.29</speed></extensions>
      </trkpt>
      <trkpt lat="51.854942000" lon="7.626713000">
        <ele>62.1</ele>
        <time>2017-04-29T05:53:55</time>
        <extensions><speed>1.31</speed></extensions>
      </trkpt>
      <trkpt lat="51.854958000" lon="7.626697000">
        <ele>62.1</ele>
        <time>2017-04-29T05:53:56</time>
        <extensions><speed>1.35</speed></extensions>
      </trkpt>
      <trkpt lat="51.854965000" lon="7.626678000">
        <ele>62.0</ele>
        <time>2017-04-29T05:53:57</time>
        <extensions><speed>1.41</speed></extensions>
      </trkpt>
      <trkpt lat="51.854969000" lon="7.626664000">
        <ele>62.0</ele>
        <time>2017-04-29T05:53:58</time>
        <extensions><speed>1.38</speed></extensions>
      </trkpt>
      <trkpt lat="51.854977000" lon="7.626648000">
        <ele>62.0</ele>
        <time>2017-04-29T05:53:59</time>
        <extensions><speed>1.38</speed></extensions>
      </trkpt>
      <trkpt lat="51.854984000" lon="7.626632000">
        <ele>61.9</ele>
        <time>2017-04-29T05:54:00</time>
        <extensions><speed>1.41</speed></extensions>
      </trkpt>
      <trkpt lat="51.854996000" lon="7.626613000">
        <ele>61.9</ele>
        <time>2017-04-29T05:54:01</time>
        <extensions><speed>1.37</speed></extensions>
      </trkpt>
      <trkpt lat="51.855003000" lon="7.626600000">
        <ele>61.9</ele>
        <time>2017-04-29T05:54:02</time>
        <extensions><speed>1.31</speed></extensions>
      </trkpt>
      <trkpt lat="51.855011000" lon="7.626588000">
        <ele>61.8</ele>
        <time>2017-04-29T05:54:03</time>
        <extensions><speed>1.29</speed></extensions>
      </trkpt>
      <trkpt lat="51.855019000" lon="7.626575000">
        <ele>61.8</ele>
        <time>2017-04-29T05:54:04</time>
        <extensions><speed>1.19</speed></extensions>
      </trkpt>
      <trkpt lat="51.855026000" lon="7.626560000">
        <ele>61.8</ele>
        <time>2017-04-29T05:54:05</time>
        <extensions><speed>1.15</speed></extensions>
      </trkpt>
      <trkpt lat="51.855030000" lon="7.626542000">
        <ele>61.7</ele>
        <time>2017-04-29T05:54:06</time>
        <extensions><speed>1.15</speed></extensions>
      </trkpt>
      <trkpt lat="51.855038000" lon="7.626525000">
        <ele>61.7</ele>
        <time>2017-04-29T05:54:07</time>
        <extensions><speed>1.23</speed></extensions>
      </trkpt>
      <trkpt lat="51.855045000" lon="7.626510000">
        <ele>61.7</ele>
        <time>2017-04-29T05:54:08</time>
        <extensions><speed>1.23</speed></extensions>
      </trkpt>
      <trkpt lat="51.855049000" lon="7.626499000">
        <ele>61.7</ele>
        <time>2017-04-29T05:54:09</time>
        <extensions><speed>1.34</speed></extensions>
      </trkpt>
      <trkpt lat="51.855057000" lon="7.626482000">
        <ele>61.7</ele>
        <time>2017-04-29T05:54:10</time>
        <extensions><speed>1.40</speed></extensions>
      </trkpt>
      <trkpt lat="51.855064000" lon="7.626464000">
        <ele>61.7</ele>
        <time>2017-04-29T05:54:11</time>
        <extensions><speed>1.31</speed></extensions>
      </trkpt>
      <trkpt lat="51.855072000" lon="7.626452000">
        <ele>61.7</ele>
        <time>2017-04-29T05:54:12</time>
        <extensions><speed>1.22</speed></extensions>
      </trkpt>
      <trkpt lat="51.855080000" lon="7.626440000">
        <ele>61.7</ele>
        <time>2017-04-29T05:54:13</time>
        <extensions><speed>1.22</speed></extensions>
      </trkpt>
      <trkpt lat="51.855087000" lon="7.626429000">
        <ele>61.7</ele>
        <time>2017-04-29T05:54:14</time>
        <extensions><speed>1.17</speed></extensions>
      </trkpt>
      <trkpt lat="51.855095000" lon="7.626415000">
        <ele>61.7</ele>
        <time>2017-04-29T05:54:15</time>
        <extensions><speed>1.17</speed></extensions>
      </trkpt>
      <trkpt lat="51.855099000" lon="7.626400000">
        <ele>61.7</ele>
        <time>2017-04-29T05:54:16</time>
        <extensions><speed>1.19</speed></extensions>
      </trkpt>
      <trkpt lat="51.855106000" lon="7.626382000">
        <ele>61.7</ele>
        <time>2017-04-29T05:54:17</time>
        <extensions><speed>1.24</speed></extensions>
      </trkpt>
      <trkpt lat="51.855114000" lon="7.626363000">
        <ele>61.7</ele>
        <time>2017-04-29T05:54:18</time>
        <extensions><speed>1.28</speed></extensions>
      </trkpt>
      <trkpt lat="51.855118000" lon="7.626347000">
        <ele>61.7</ele>
        <time>2017-04-29T05:54:19</time>
        <extensions><speed>1.29</speed></extensions>
      </trkpt>
      <trkpt lat="51.855125000" lon="7.626331000">
        <ele>61.7</ele>
        <time>2017-04-29T05:54:20</time>
        <extensions><speed>1.29</speed></extensions>
      </trkpt>
      <trkpt lat="51.855133000" lon="7.626314000">
        <ele>61.7</ele>
        <time>2017-04-29T05:54:21</time>
        <extensions><speed>1.32</speed></extensions>
      </trkpt>
      <trkpt lat="51.855145000" lon="7.626295000">
        <ele>61.7</ele>
        <time>2017-04-29T05:54:22</time>
        <extensions><speed>1.33</speed></extensions>
      </trkpt>
      <trkpt lat="51.855152000" lon="7.626280000">
        <ele>61.7</ele>
        <time>2017-04-29T05:54:23</time>
        <extensions><speed>1.38</speed></extensions>
      </trkpt>
      <trkpt lat="51.855156000" lon="7.626266000">
        <ele>61.7</ele>
        <time>2017-04-29T05:54:24</time>
        <extensions><speed>1.34</speed></extensions>
      </trkpt>
      <trkpt lat="51.855160000" lon="7.626252000">
        <ele>61.7</ele>
        <time>2017-04-29T05:54:25</time>
        <extensions><speed>1.45</speed></extensions>
      </trkpt>
      <trkpt lat="51.855171000" lon="7.626235000">
        <ele>61.7</ele>
        <time>2017-04-29T05:54:26</time>
        <extensions><speed>1.41</speed></extensions>
      </trkpt>
      <trkpt lat="51.855179000" lon="7.626221000">
        <ele>61.7</ele>
        <time>2017-04-29T05:54:27</time>
        <extensions><speed>1.39</speed></extensions>
      </trkpt>
      <trkpt lat="51.855183000" lon="7.626207000">
        <ele>61.7</ele>
        <time>2017-04-29T05:54:28</time>
        <extensions><speed>1.41</speed></extensions>
      </trkpt>
      <trkpt lat="51.855194000" lon="7.626188000">
        <ele>61.7</ele>
        <time>2017-04-29T05:54:29</time>
        <extensions><speed>1.42</speed></extensions>
      </trkpt>
      <trkpt lat="51.855198000" lon="7.626173000">
        <ele>61.7</ele>
        <time>2017-04-29T05:54:30</time>
        <extensions><speed>1.34</speed></extensions>
      </trkpt>
      <trkpt lat="51.855209000" lon="7.626156000">
        <ele>61.7</ele>
        <time>2017-04-29T05:54:31</time>
        <extensions><speed>1.34</speed></extensions>
      </trkpt>
      <trkpt lat="51.855217000" lon="7.626138000">
        <ele>61.7</ele>
        <time>2017-04-29T05:54:32</time>
        <extensions><speed>1.44</speed></extensions>
      </trkpt>
      <trkpt lat="51.855225000" lon="7.626123000">
        <ele>61.7</ele>
        <time>2017-04-29T05:54:33</time>
        <extensions><speed>1.32</speed></extensions>
      </trkpt>
      <trkpt lat="51.855225000" lon="7.626115000">
        <ele>61.7</ele>
        <time>2017-04-29T05:54:34</time>
      </trkpt>
      <trkpt lat="51.855232000" lon="7.626095000">
        <ele>61.7</ele>
        <time>2017-04-29T05:54:36</time>
        <extensions><speed>1.34</speed></extensions>
      </trkpt>
      <trkpt lat="51.855244000" lon="7.626075000">
        <ele>61.8</ele>
        <time>2017-04-29T05:54:37</time>
        <extensions><speed>1.34</speed></extensions>
      </trkpt>
      <trkpt lat="51.855251000" lon="7.626053000">
        <ele>61.8</ele>
        <time>2017-04-29T05:54:38</time>
        <extensions><speed>1.49</speed></extensions>
      </trkpt>
      <trkpt lat="51.855259000" lon="7.626035000">
        <ele>61.8</ele>
        <time>2017-04-29T05:54:39</time>
        <extensions><speed>1.55</speed></extensions>
      </trkpt>
      <trkpt lat="51.855267000" lon="7.626021000">
        <ele>61.8</ele>
        <time>2017-04-29T05:54:40</time>
        <extensions><speed>1.55</speed></extensions>
      </trkpt>
      <trkpt lat="51.855274000" lon="7.626007000">
        <ele>61.8</ele>
        <time>2017-04-29T05:54:41</time>
        <extensions><speed>1.54</speed></extensions>
      </trkpt>
      <trkpt lat="51.855286000" lon="7.625990000">
        <ele>61.8</ele>
        <time>2017-04-29T05:54:42</time>
        <extensions><speed>1.54</speed></extensions>
      </trkpt>
      <trkpt lat="51.855293000" lon="7.625972000">
        <ele>61.8</ele>
        <time>2017-04-29T05:54:43</time>
        <extensions><speed>1.45</speed></extensions>
      </trkpt>
      <trkpt lat="51.855301000" lon="7.625957000">
        <ele>61.8</ele>
        <time>2017-04-29T05:54:44</time>
        <extensions><speed>1.33</speed></extensions>
      </trkpt>
      <trkpt lat="51.855309000" lon="7.625943000">
        <ele>61.9</ele>
        <time>2017-04-29T05:54:45</time>
        <extensions><speed>1.33</speed></extensions>
      </trkpt>
      <trkpt lat="51.855320000" lon="7.625930000">
        <ele>61.9</ele>
        <time>2017-04-29T05:54:46</time>
        <extensions><speed>1.29</speed></extensions>
      </trkpt>
      <trkpt lat="51.855324000" lon="7.625913000">
        <ele>61.9</ele>
        <time>2017-04-29T05:54:47</time>
        <extensions><speed>1.29</speed></extensions>
      </trkpt>
      <trkpt lat="51.855335000" lon="7.625895000">
        <ele>61.9</ele>
        <time>2017-04-29T05:54:48</time>
        <extensions><speed>1.35</speed></extensions>
      </trkpt>
      <trkpt lat="51.855343000" lon="7.625875000">
        <ele>61.9</ele>
        <time>2017-04-29T05:54:49</time>
        <extensions><speed>1.41</speed></extensions>
      </trkpt>
      <trkpt lat="51.855350000" lon="7.625860000">
        <ele>61.9</ele>
        <time>2017-04-29T05:54:50</time>
        <extensions><speed>1.42</speed></extensions>
      </trkpt>
      <trkpt lat="51.855358000" lon="7.625843000">
        <ele>61.9</ele>
        <time>2017-04-29T05:54:51</time>
        <extensions><speed>1.46</speed></extensions>
      </trkpt>
      <trkpt lat="51.855366000" lon="7.625830000">
        <ele>62.0</ele>
        <time>2017-04-29T05:54:52</time>
        <extensions><speed>1.41</speed></extensions>
      </trkpt>
      <trkpt lat="51.855373000" lon="7.625813000">
        <ele>62.0</ele>
        <time>2017-04-29T05:54:53</time>
        <extensions><speed>1.39</speed></extensions>
      </trkpt>
      <trkpt lat="51.855377000" lon="7.625797000">
        <ele>62.0</ele>
        <time>2017-04-29T05:54:54</time>
        <extensions><speed>1.34</speed></extensions>
      </trkpt>
      <trkpt lat="51.855385000" lon="7.625776000">
        <ele>62.0</ele>
        <time>2017-04-29T05:54:55</time>
        <extensions><speed>1.38</speed></extensions>
      </trkpt>
      <trkpt lat="51.855389000" lon="7.625757000">
        <ele>62.0</ele>
        <time>2017-04-29T05:54:56</time>
        <extensions><speed>1.35</speed></extensions>
      </trkpt>
      <trkpt lat="51.855396000" lon="7.625740000">
        <ele>62.0</ele>
        <time>2017-04-29T05:54:57</time>
        <extensions><speed>1.36</speed></extensions>
      </trkpt>
      <trkpt lat="51.855404000" lon="7.625725000">
        <ele>62.0</ele>
        <time>2017-04-29T05:54:58</time>
        <extensions><speed>1.33</speed></extensions>
      </trkpt>
      <trkpt lat="51.855415000" lon="7.625710000">
        <ele>62.0</ele>
        <time>2017-04-29T05:54:59</time>
        <extensions><speed>1.36</speed></extensions>
      </trkpt>
      <trkpt lat="51.855423000" lon="7.625697000">
        <ele>62.0</ele>
        <time>2017-04-29T05:55:00</time>
        <extensions><speed>1.32</speed></extensions>
      </trkpt>
      <trkpt lat="51.855431000" lon="7.625680000">
        <ele>62.0</ele>
        <time>2017-04-29T05:55:01</time>
        <extensions><speed>1.22</speed></extensions>
      </trkpt>
      <trkpt lat="51.855438000" lon="7.625664000">
        <ele>62.0</ele>
        <time>2017-04-29T05:55:02</time>
        <extensions><speed>1.20</speed></extensions>
      </trkpt>
      <trkpt lat="51.855446000" lon="7.625645000">
        <ele>62.0</ele>
        <time>2017-04-29T05:55:03</time>
        <extensions><speed>1.24</speed></extensions>
      </trkpt>
      <trkpt lat="51.855453000" lon="7.625629000">
        <ele>62.0</ele>
        <time>2017-04-29T05:55:04</time>
        <extensions><speed>1.21</speed></extensions>
      </trkpt>
      <trkpt lat="51.855465000" lon="7.625613000">
        <ele>62.0</ele>
        <time>2017-04-29T05:55:05</time>
        <extensions><speed>1.40</speed></extensions>
      </trkpt>
      <trkpt lat="51.855473000" lon="7.625592000">
        <ele>62.0</ele>
        <time>2017-04-29T05:55:06</time>
        <extensions><speed>1.47</speed></extensions>
      </trkpt>
      <trkpt lat="51.855480000" lon="7.625572000">
        <ele>62.0</ele>
        <time>2017-04-29T05:55:07</time>
        <extensions><speed>1.56</speed></extensions>
      </trkpt>
      <trkpt lat="51.855488000" lon="7.625554000">
        <ele>62.0</ele>
        <time>2017-04-29T05:55:08</time>
        <extensions><speed>1.51</speed></extensions>
      </trkpt>
      <trkpt lat="51.855499000" lon="7.625536000">
        <ele>62.0</ele>
        <time>2017-04-29T05:55:09</time>
        <extensions><speed>1.51</speed></extensions>
      </trkpt>
      <trkpt lat="51.855507000" lon="7.625525000">
        <ele>62.0</ele>
        <time>2017-04-29T05:55:10</time>
        <extensions><speed>1.43</speed></extensions>
      </trkpt>
      <trkpt lat="51.855515000" lon="7.625508000">
        <ele>62.0</ele>
        <time>2017-04-29T05:55:11</time>
        <extensions><speed>1.41</speed></extensions>
      </trkpt>
      <trkpt lat="51.855522000" lon="7.625491000">
        <ele>61.9</ele>
        <time>2017-04-29T05:55:12</time>
        <extensions><speed>1.41</speed></extensions>
      </trkpt>
      <trkpt lat="51.855530000" lon="7.625475000">
        <ele>61.9</ele>
        <time>2017-04-29T05:55:13</time>
        <extensions><speed>1.41</speed></extensions>
      </trkpt>
      <trkpt lat="51.855541000" lon="7.625456000">
        <ele>61.9</ele>
        <time>2017-04-29T05:55:14</time>
        <extensions><speed>1.45</speed></extensions>
      </trkpt>
      <trkpt lat="51.855545000" lon="7.625440000">
        <ele>61.8</ele>
        <time>2017-04-29T05:55:15</time>
        <extensions><speed>1.45</speed></extensions>
      </trkpt>
      <trkpt lat="51.855553000" lon="7.625421000">
        <ele>61.8</ele>
        <time>2017-04-29T05:55:16</time>
        <extensions><speed>1.49</speed></extensions>
      </trkpt>
      <trkpt lat="51.855564000" lon="7.625405000">
        <ele>61.7</ele>
        <time>2017-04-29T05:55:17</time>
        <extensions><speed>1.53</speed></extensions>
      </trkpt>
      <trkpt lat="51.855576000" lon="7.625386000">
        <ele>61.7</ele>
        <time>2017-04-29T05:55:18</time>
        <extensions><speed>1.51</speed></extensions>
      </trkpt>
      <trkpt lat="51.855583000" lon="7.625368000">
        <ele>61.6</ele>
        <time>2017-04-29T05:55:19</time>
        <extensions><speed>1.49</speed></extensions>
      </trkpt>
      <trkpt lat="51.855583000" lon="7.625350000">
        <ele>61.6</ele>
        <time>2017-04-29T05:55:20</time>
        <extensions><speed>1.51</speed></extensions>
      </trkpt>
      <trkpt lat="51.855595000" lon="7.625333000">
        <ele>61.5</ele>
        <time>2017-04-29T05:55:21</time>
        <extensions><speed>1.46</speed></extensions>
      </trkpt>
      <trkpt lat="51.855606000" lon="7.625316000">
        <ele>61.5</ele>
        <time>2017-04-29T05:55:22</time>
        <extensions><speed>1.45</speed></extensions>
      </trkpt>
      <trkpt lat="51.855618000" lon="7.625302000">
        <ele>61.4</ele>
        <time>2017-04-29T05:55:23</time>
        <extensions><speed>1.49</speed></extensions>
      </trkpt>
      <trkpt lat="51.855629000" lon="7.625285000">
        <ele>61.4</ele>
        <time>2017-04-29T05:55:24</time>
        <extensions><speed>1.45</speed></extensions>
      </trkpt>
      <trkpt lat="51.855637000" lon="7.625268000">
        <ele>61.3</ele>
        <time>2017-04-29T05:55:25</time>
        <extensions><speed>1.46</speed></extensions>
      </trkpt>
      <trkpt lat="51.855644000" lon="7.625251000">
        <ele>61.3</ele>
        <time>2017-04-29T05:55:26</time>
        <extensions><speed>1.47</speed></extensions>
      </trkpt>
      <trkpt lat="51.855652000" lon="7.625234000">
        <ele>61.2</ele>
        <time>2017-04-29T05:55:27</time>
        <extensions><speed>1.51</speed></extensions>
      </trkpt>
      <trkpt lat="51.855659000" lon="7.625216000">
        <ele>61.2</ele>
        <time>2017-04-29T05:55:28</time>
        <extensions><speed>1.43</speed></extensions>
      </trkpt>
      <trkpt lat="51.855667000" lon="7.625202000">
        <ele>61.1</ele>
        <time>2017-04-29T05:55:29</time>
        <extensions><speed>1.43</speed></extensions>
      </trkpt>
      <trkpt lat="51.855679000" lon="7.625185000">
        <ele>61.1</ele>
        <time>2017-04-29T05:55:30</time>
        <extensions><speed>1.40</speed></extensions>
      </trkpt>
      <trkpt lat="51.855682000" lon="7.625165000">
        <ele>61.0</ele>
        <time>2017-04-29T05:55:31</time>
        <extensions><speed>1.38</speed></extensions>
      </trkpt>
      <trkpt lat="51.855694000" lon="7.625150000">
        <ele>61.0</ele>
        <time>2017-04-29T05:55:32</time>
        <extensions><speed>1.37</speed></extensions>
      </trkpt>
      <trkpt lat="51.855705000" lon="7.625134000">
        <ele>60.9</ele>
        <time>2017-04-29T05:55:33</time>
        <extensions><speed>1.37</speed></extensions>
      </trkpt>
      <trkpt lat="51.855713000" lon="7.625115000">
        <ele>60.9</ele>
        <time>2017-04-29T05:55:34</time>
        <extensions><speed>1.42</speed></extensions>
      </trkpt>
      <trkpt lat="51.855717000" lon="7.625100000">
        <ele>60.9</ele>
        <time>2017-04-29T05:55:35</time>
        <extensions><speed>1.40</speed></extensions>
      </trkpt>
      <trkpt lat="51.855721000" lon="7.625085000">
        <ele>60.8</ele>
        <time>2017-04-29T05:55:36</time>
        <extensions><speed>1.36</speed></extensions>
      </trkpt>
      <trkpt lat="51.855724000" lon="7.625069000">
        <ele>60.8</ele>
        <time>2017-04-29T05:55:37</time>
        <extensions><speed>1.37</speed></extensions>
      </trkpt>
      <trkpt lat="51.855736000" lon="7.625050000">
        <ele>60.7</ele>
        <time>2017-04-29T05:55:38</time>
        <extensions><speed>1.33</speed></extensions>
      </trkpt>
      <trkpt lat="51.855743000" lon="7.625030000">
        <ele>60.7</ele>
        <time>2017-04-29T05:55:39</time>
        <extensions><speed>1.33</speed></extensions>
      </trkpt>
      <trkpt lat="51.855747000" lon="7.625013000">
        <ele>60.6</ele>
        <time>2017-04-29T05:55:40</time>
        <extensions><speed>1.35</speed></extensions>
      </trkpt>
      <trkpt lat="51.855755000" lon="7.624999000">
        <ele>60.6</ele>
        <time>2017-04-29T05:55:41</time>
        <extensions><speed>1.35</speed></extensions>
      </trkpt>
      <trkpt lat="51.855766000" lon="7.624981000">
        <ele>60.6</ele>
        <time>2017-04-29T05:55:42</time>
        <extensions><speed>1.35</speed></extensions>
      </trkpt>
      <trkpt lat="51.855778000" lon="7.624964000">
        <ele>60.5</ele>
        <time>2017-04-29T05:55:43</time>
        <extensions><speed>1.36</speed></extensions>
      </trkpt>
      <trkpt lat="51.855782000" lon="7.624945000">
        <ele>60.5</ele>
        <time>2017-04-29T05:55:44</time>
        <extensions><speed>1.38</speed></extensions>
      </trkpt>
      <trkpt lat="51.855789000" lon="7.624928000">
        <ele>60.5</ele>
        <time>2017-04-29T05:55:45</time>
        <extensions><speed>1.42</speed></extensions>
      </trkpt>
      <trkpt lat="51.855793000" lon="7.624913000">
        <ele>60.5</ele>
        <time>2017-04-29T05:55:46</time>
        <extensions><speed>1.42</speed></extensions>
      </trkpt>
      <trkpt lat="51.855801000" lon="7.624897000">
        <ele>60.4</ele>
        <time>2017-04-29T05:55:47</time>
        <extensions><speed>1.51</speed></extensions>
      </trkpt>
      <trkpt lat="51.855808000" lon="7.624880000">
        <ele>60.4</ele>
        <time>2017-04-29T05:55:48</time>
        <extensions><speed>1.43</speed></extensions>
      </trkpt>
      <trkpt lat="51.855812000" lon="7.624862000">
        <ele>60.4</ele>
        <time>2017-04-29T05:55:49</time>
        <extensions><speed>1.41</speed></extensions>
      </trkpt>
      <trkpt lat="51.855820000" lon="7.624845000">
        <ele>60.3</ele>
        <time>2017-04-29T05:55:50</time>
        <extensions><speed>1.38</speed></extensions>
      </trkpt>
      <trkpt lat="51.855827000" lon="7.624829000">
        <ele>60.3</ele>
        <time>2017-04-29T05:55:51</time>
        <extensions><speed>1.44</speed></extensions>
      </trkpt>
      <trkpt lat="51.855835000" lon="7.624814000">
        <ele>60.3</ele>
        <time>2017-04-29T05:55:52</time>
        <extensions><speed>1.39</speed></extensions>
      </trkpt>
      <trkpt lat="51.855843000" lon="7.624798000">
        <ele>60.3</ele>
        <time>2017-04-29T05:55:53</time>
        <extensions><speed>1.39</speed></extensions>
      </trkpt>
      <trkpt lat="51.855850000" lon="7.624784000">
        <ele>60.2</ele>
        <time>2017-04-29T05:55:54</time>
        <extensions><speed>1.44</speed></extensions>
      </trkpt>
      <trkpt lat="51.855858000" lon="7.624768000">
        <ele>60.2</ele>
        <time>2017-04-29T05:55:55</time>
        <extensions><speed>1.45</speed></extensions>
      </trkpt>
      <trkpt lat="51.855865000" lon="7.624752000">
        <ele>60.2</ele>
        <time>2017-04-29T05:55:56</time>
        <extensions><speed>1.42</speed></extensions>
      </trkpt>
      <trkpt lat="51.855877000" lon="7.624735000">
        <ele>60.2</ele>
        <time>2017-04-29T05:55:57</time>
        <extensions><speed>1.46</speed></extensions>
      </trkpt>
      <trkpt lat="51.855881000" lon="7.624722000">
        <ele>60.2</ele>
        <time>2017-04-29T05:55:58</time>
        <extensions><speed>1.46</speed></extensions>
      </trkpt>
      <trkpt lat="51.855888000" lon="7.624705000">
        <ele>60.1</ele>
        <time>2017-04-29T05:55:59</time>
        <extensions><speed>1.45</speed></extensions>
      </trkpt>
      <trkpt lat="51.855896000" lon="7.624689000">
        <ele>60.1</ele>
        <time>2017-04-29T05:56:00</time>
        <extensions><speed>1.41</speed></extensions>
      </trkpt>
      <trkpt lat="51.855904000" lon="7.624671000">
        <ele>60.1</ele>
        <time>2017-04-29T05:56:01</time>
        <extensions><speed>1.34</speed></extensions>
      </trkpt>
      <trkpt lat="51.855911000" lon="7.624655000">
        <ele>60.0</ele>
        <time>2017-04-29T05:56:02</time>
        <extensions><speed>1.34</speed></extensions>
      </trkpt>
      <trkpt lat="51.855915000" lon="7.624640000">
        <ele>60.0</ele>
        <time>2017-04-29T05:56:03</time>
        <extensions><speed>1.37</speed></extensions>
      </trkpt>
      <trkpt lat="51.855927000" lon="7.624625000">
        <ele>60.0</ele>
        <time>2017-04-29T05:56:04</time>
        <extensions><speed>1.31</speed></extensions>
      </trkpt>
      <trkpt lat="51.855934000" lon="7.624610000">
        <ele>60.0</ele>
        <time>2017-04-29T05:56:05</time>
        <extensions><speed>1.37</speed></extensions>
      </trkpt>
      <trkpt lat="51.855942000" lon="7.624593000">
        <ele>60.0</ele>
        <time>2017-04-29T05:56:06</time>
        <extensions><speed>1.44</speed></extensions>
      </trkpt>
      <trkpt lat="51.855949000" lon="7.624578000">
        <ele>59.9</ele>
        <time>2017-04-29T05:56:07</time>
        <extensions><speed>1.41</speed></extensions>
      </trkpt>
      <trkpt lat="51.855957000" lon="7.624560000">
        <ele>59.9</ele>
        <time>2017-04-29T05:56:08</time>
        <extensions><speed>1.42</speed></extensions>
      </trkpt>
      <trkpt lat="51.855968000" lon="7.624544000">
        <ele>59.9</ele>
        <time>2017-04-29T05:56:09</time>
        <extensions><speed>1.46</speed></extensions>
      </trkpt>
      <trkpt lat="51.855976000" lon="7.624525000">
        <ele>59.9</ele>
        <time>2017-04-29T05:56:10</time>
        <extensions><speed>1.44</speed></extensions>
      </trkpt>
      <trkpt lat="51.855980000" lon="7.624508000">
        <ele>59.9</ele>
        <time>2017-04-29T05:56:11</time>
        <extensions><speed>1.42</speed></extensions>
      </trkpt>
      <trkpt lat="51.855984000" lon="7.624490000">
        <ele>59.8</ele>
        <time>2017-04-29T05:56:12</time>
        <extensions><speed>1.42</speed></extensions>
      </trkpt>
      <trkpt lat="51.855995000" lon="7.624474000">
        <ele>59.8</ele>
        <time>2017-04-29T05:56:13</time>
        <extensions><speed>1.42</speed></extensions>
      </trkpt>
      <trkpt lat="51.856003000" lon="7.624456000">
        <ele>59.8</ele>
        <time>2017-04-29T05:56:14</time>
        <extensions><speed>1.38</speed></extensions>
      </trkpt>
      <trkpt lat="51.856010000" lon="7.624440000">
        <ele>59.8</ele>
        <time>2017-04-29T05:56:15</time>
        <extensions><speed>1.37</speed></extensions>
      </trkpt>
      <trkpt lat="51.856014000" lon="7.624422000">
        <ele>59.8</ele>
        <time>2017-04-29T05:56:16</time>
        <extensions><speed>1.37</speed></extensions>
      </trkpt>
      <trkpt lat="51.856018000" lon="7.624403000">
        <ele>59.8</ele>
        <time>2017-04-29T05:56:17</time>
        <extensions><speed>1.37</speed></extensions>
      </trkpt>
      <trkpt lat="51.856026000" lon="7.624386000">
        <ele>59.8</ele>
        <time>2017-04-29T05:56:18</time>
        <extensions><speed>1.33</speed></extensions>
      </trkpt>
      <trkpt lat="51.856033000" lon="7.624372000">
        <ele>59.8</ele>
        <time>2017-04-29T05:56:19</time>
        <extensions><speed>1.33</speed></extensions>
      </trkpt>
      <trkpt lat="51.856041000" lon="7.624357000">
        <ele>59.8</ele>
        <time>2017-04-29T05:56:20</time>
        <extensions><speed>1.36</speed></extensions>
      </trkpt>
      <trkpt lat="51.856052000" lon="7.624339000">
        <ele>59.8</ele>
        <time>2017-04-29T05:56:21</time>
        <extensions><speed>1.38</speed></extensions>
      </trkpt>
      <trkpt lat="51.856060000" lon="7.624321000">
        <ele>59.8</ele>
        <time>2017-04-29T05:56:22</time>
        <extensions><speed>1.41</speed></extensions>
      </trkpt>
      <trkpt lat="51.856068000" lon="7.624305000">
        <ele>59.8</ele>
        <time>2017-04-29T05:56:23</time>
        <extensions><speed>1.44</speed></extensions>
      </trkpt>
      <trkpt lat="51.856075000" lon="7.624287000">
        <ele>59.9</ele>
        <time>2017-04-29T05:56:24</time>
        <extensions><speed>1.50</speed></extensions>
      </trkpt>
      <trkpt lat="51.856079000" lon="7.624270000">
        <ele>59.9</ele>
        <time>2017-04-29T05:56:25</time>
        <extensions><speed>1.44</speed></extensions>
      </trkpt>
      <trkpt lat="51.856087000" lon="7.624251000">
        <ele>59.9</ele>
        <time>2017-04-29T05:56:26</time>
        <extensions><speed>1.42</speed></extensions>
      </trkpt>
      <trkpt lat="51.856094000" lon="7.624232000">
        <ele>59.9</ele>
        <time>2017-04-29T05:56:27</time>
        <extensions><speed>1.47</speed></extensions>
      </trkpt>
      <trkpt lat="51.856102000" lon="7.624211000">
        <ele>59.9</ele>
        <time>2017-04-29T05:56:28</time>
        <extensions><speed>1.48</speed></extensions>
      </trkpt>
      <trkpt lat="51.856110000" lon="7.624195000">
        <ele>59.9</ele>
        <time>2017-04-29T05:56:29</time>
        <extensions><speed>1.45</speed></extensions>
      </trkpt>
      <trkpt lat="51.856117000" lon="7.624178000">
        <ele>59.9</ele>
        <time>2017-04-29T05:56:30</time>
        <extensions><speed>1.48</speed></extensions>
      </trkpt>
      <trkpt lat="51.856133000" lon="7.624164000">
        <ele>60.0</ele>
        <time>2017-04-29T05:56:31</time>
        <extensions><speed>1.50</speed></extensions>
      </trkpt>
      <trkpt lat="51.856140000" lon="7.624146000">
        <ele>60.0</ele>
        <time>2017-04-29T05:56:32</time>
        <extensions><speed>1.48</speed></extensions>
      </trkpt>
      <trkpt lat="51.856148000" lon="7.624130000">
        <ele>60.0</ele>
        <time>2017-04-29T05:56:33</time>
        <extensions><speed>1.51</speed></extensions>
      </trkpt>
      <trkpt lat="51.856159000" lon="7.624112000">
        <ele>60.0</ele>
        <time>2017-04-29T05:56:34</time>
        <extensions><speed>1.51</speed></extensions>
      </trkpt>
      <trkpt lat="51.856171000" lon="7.624094000">
        <ele>60.0</ele>
        <time>2017-04-29T05:56:35</time>
        <extensions><speed>1.53</speed></extensions>
      </trkpt>
      <trkpt lat="51.856174000" lon="7.624076000">
        <ele>60.1</ele>
        <time>2017-04-29T05:56:36</time>
        <extensions><speed>1.53</speed></extensions>
      </trkpt>
      <trkpt lat="51.856186000" lon="7.624060000">
        <ele>60.1</ele>
        <time>2017-04-29T05:56:37</time>
        <extensions><speed>1.52</speed></extensions>
      </trkpt>
      <trkpt lat="51.856194000" lon="7.624042000">
        <ele>60.1</ele>
        <time>2017-04-29T05:56:38</time>
        <extensions><speed>1.56</speed></extensions>
      </trkpt>
      <trkpt lat="51.856201000" lon="7.624023000">
        <ele>60.2</ele>
        <time>2017-04-29T05:56:39</time>
        <extensions><speed>1.57</speed></extensions>
      </trkpt>
      <trkpt lat="51.856205000" lon="7.624008000">
        <ele>60.2</ele>
        <time>2017-04-29T05:56:40</time>
        <extensions><speed>1.53</speed></extensions>
      </trkpt>
      <trkpt lat="51.856209000" lon="7.623994000">
        <ele>60.2</ele>
        <time>2017-04-29T05:56:41</time>
        <extensions><speed>1.46</speed></extensions>
      </trkpt>
      <trkpt lat="51.856220000" lon="7.623975000">
        <ele>60.3</ele>
        <time>2017-04-29T05:56:42</time>
        <extensions><speed>1.50</speed></extensions>
      </trkpt>
      <trkpt lat="51.856232000" lon="7.623959000">
        <ele>60.4</ele>
        <time>2017-04-29T05:56:43</time>
        <extensions><speed>1.50</speed></extensions>
      </trkpt>
      <trkpt lat="51.856239000" lon="7.623942000">
        <ele>60.4</ele>
        <time>2017-04-29T05:56:44</time>
        <extensions><speed>1.47</speed></extensions>
      </trkpt>
      <trkpt lat="51.856247000" lon="7.623928000">
        <ele>60.5</ele>
        <time>2017-04-29T05:56:45</time>
        <extensions><speed>1.48</speed></extensions>
      </trkpt>
      <trkpt lat="51.856258000" lon="7.623912000">
        <ele>60.5</ele>
        <time>2017-04-29T05:56:46</time>
        <extensions><speed>1.53</speed></extensions>
      </trkpt>
      <trkpt lat="51.856266000" lon="7.623897000">
        <ele>60.6</ele>
        <time>2017-04-29T05:56:47</time>
        <extensions><speed>1.48</speed></extensions>
      </trkpt>
      <trkpt lat="51.856270000" lon="7.623880000">
        <ele>60.6</ele>
        <time>2017-04-29T05:56:48</time>
        <extensions><speed>1.44</speed></extensions>
      </trkpt>
      <trkpt lat="51.856277000" lon="7.623861000">
        <ele>60.7</ele>
        <time>2017-04-29T05:56:49</time>
        <extensions><speed>1.47</speed></extensions>
      </trkpt>
      <trkpt lat="51.856289000" lon="7.623842000">
        <ele>60.7</ele>
        <time>2017-04-29T05:56:50</time>
        <extensions><speed>1.48</speed></extensions>
      </trkpt>
      <trkpt lat="51.856297000" lon="7.623827000">
        <ele>60.7</ele>
        <time>2017-04-29T05:56:51</time>
        <extensions><speed>1.43</speed></extensions>
      </trkpt>
      <trkpt lat="51.856304000" lon="7.623814000">
        <ele>60.8</ele>
        <time>2017-04-29T05:56:52</time>
        <extensions><speed>1.43</speed></extensions>
      </trkpt>
      <trkpt lat="51.856312000" lon="7.623800000">
        <ele>60.8</ele>
        <time>2017-04-29T05:56:53</time>
        <extensions><speed>1.43</speed></extensions>
      </trkpt>
      <trkpt lat="51.856319000" lon="7.623784000">
        <ele>60.9</ele>
        <time>2017-04-29T05:56:54</time>
        <extensions><speed>1.43</speed></extensions>
      </trkpt>
      <trkpt lat="51.856331000" lon="7.623766000">
        <ele>60.9</ele>
        <time>2017-04-29T05:56:55</time>
        <extensions><speed>1.39</speed></extensions>
      </trkpt>
      <trkpt lat="51.856335000" lon="7.623751000">
        <ele>61.0</ele>
        <time>2017-04-29T05:56:56</time>
        <extensions><speed>1.39</speed></extensions>
      </trkpt>
      <trkpt lat="51.856342000" lon="7.623735000">
        <ele>61.0</ele>
        <time>2017-04-29T05:56:57</time>
        <extensions><speed>1.43</speed></extensions>
      </trkpt>
      <trkpt lat="51.856350000" lon="7.623715000">
        <ele>61.0</ele>
        <time>2017-04-29T05:56:58</time>
        <extensions><speed>1.44</speed></extensions>
      </trkpt>
      <trkpt lat="51.856358000" lon="7.623698000">
        <ele>61.1</ele>
        <time>2017-04-29T05:56:59</time>
        <extensions><speed>1.43</speed></extensions>
      </trkpt>
      <trkpt lat="51.856369000" lon="7.623683000">
        <ele>61.1</ele>
        <time>2017-04-29T05:57:00</time>
        <extensions><speed>1.44</speed></extensions>
      </trkpt>
      <trkpt lat="51.856377000" lon="7.623667000">
        <ele>61.1</ele>
        <time>2017-04-29T05:57:01</time>
        <extensions><speed>1.49</speed></extensions>
      </trkpt>
      <trkpt lat="51.856388000" lon="7.623650000">
        <ele>61.1</ele>
        <time>2017-04-29T05:57:02</time>
        <extensions><speed>1.51</speed></extensions>
      </trkpt>
      <trkpt lat="51.856396000" lon="7.623633000">
        <ele>61.1</ele>
        <time>2017-04-29T05:57:03</time>
        <extensions><speed>1.47</speed></extensions>
      </trkpt>
      <trkpt lat="51.856400000" lon="7.623618000">
        <ele>61.2</ele>
        <time>2017-04-29T05:57:04</time>
        <extensions><speed>1.47</speed></extensions>
      </trkpt>
      <trkpt lat="51.856407000" lon="7.623603000">
        <ele>61.2</ele>
        <time>2017-04-29T05:57:05</time>
        <extensions><speed>1.39</speed></extensions>
      </trkpt>
      <trkpt lat="51.856415000" lon="7.623590000">
        <ele>61.2</ele>
        <time>2017-04-29T05:57:06</time>
        <extensions><speed>1.30</speed></extensions>
      </trkpt>
      <trkpt lat="51.856419000" lon="7.623575000">
        <ele>61.2</ele>
        <time>2017-04-29T05:57:07</time>
        <extensions><speed>1.27</speed></extensions>
      </trkpt>
      <trkpt lat="51.856426000" lon="7.623559000">
        <ele>61.3</ele>
        <time>2017-04-29T05:57:08</time>
        <extensions><speed>1.27</speed></extensions>
      </trkpt>
      <trkpt lat="51.856434000" lon="7.623541000">
        <ele>61.3</ele>
        <time>2017-04-29T05:57:09</time>
        <extensions><speed>1.33</speed></extensions>
      </trkpt>
      <trkpt lat="51.856438000" lon="7.623527000">
        <ele>61.3</ele>
        <time>2017-04-29T05:57:10</time>
        <extensions><speed>1.33</speed></extensions>
      </trkpt>
      <trkpt lat="51.856445000" lon="7.623513000">
        <ele>61.3</ele>
        <time>2017-04-29T05:57:11</time>
        <extensions><speed>1.34</speed></extensions>
      </trkpt>
      <trkpt lat="51.856457000" lon="7.623500000">
        <ele>61.4</ele>
        <time>2017-04-29T05:57:12</time>
        <extensions><speed>1.32</speed></extensions>
      </trkpt>
      <trkpt lat="51.856464000" lon="7.623485000">
        <ele>61.4</ele>
        <time>2017-04-29T05:57:13</time>
        <extensions><speed>1.34</speed></extensions>
      </trkpt>
      <trkpt lat="51.856468000" lon="7.623469000">
        <ele>61.4</ele>
        <time>2017-04-29T05:57:14</time>
        <extensions><speed>1.34</speed></extensions>
      </trkpt>
      <trkpt lat="51.856476000" lon="7.623448000">
        <ele>61.4</ele>
        <time>2017-04-29T05:57:15</time>
        <extensions><speed>1.40</speed></extensions>
      </trkpt>
      <trkpt lat="51.856483000" lon="7.623430000">
        <ele>61.4</ele>
        <time>2017-04-29T05:57:16</time>
        <extensions><speed>1.47</speed></extensions>
      </trkpt>
      <trkpt lat="51.856491000" lon="7.623412000">
        <ele>61.5</ele>
        <time>2017-04-29T05:57:17</time>
        <extensions><speed>1.47</speed></extensions>
      </trkpt>
      <trkpt lat="51.856499000" lon="7.623397000">
        <ele>61.5</ele>
        <time>2017-04-29T05:57:18</time>
        <extensions><speed>1.44</speed></extensions>
      </trkpt>
      <trkpt lat="51.856503000" lon="7.623380000">
        <ele>61.5</ele>
        <time>2017-04-29T05:57:19</time>
        <extensions><speed>1.46</speed></extensions>
      </trkpt>
      <trkpt lat="51.856514000" lon="7.623363000">
        <ele>61.5</ele>
        <time>2017-04-29T05:57:20</time>
        <extensions><speed>1.44</speed></extensions>
      </trkpt>
      <trkpt lat="51.856522000" lon="7.623348000">
        <ele>61.6</ele>
        <time>2017-04-29T05:57:21</time>
        <extensions><speed>1.39</speed></extensions>
      </trkpt>
      <trkpt lat="51.856529000" lon="7.623332000">
        <ele>61.6</ele>
        <time>2017-04-29T05:57:22</time>
        <extensions><speed>1.43</speed></extensions>
      </trkpt>
      <trkpt lat="51.856537000" lon="7.623315000">
        <ele>61.6</ele>
        <time>2017-04-29T05:57:23</time>
        <extensions><speed>1.46</speed></extensions>
      </trkpt>
      <trkpt lat="51.856544000" lon="7.623297000">
        <ele>61.6</ele>
        <time>2017-04-29T05:57:24</time>
        <extensions><speed>1.44</speed></extensions>
      </trkpt>
      <trkpt lat="51.856556000" lon="7.623281000">
        <ele>61.7</ele>
        <time>2017-04-29T05:57:25</time>
        <extensions><speed>1.48</speed></extensions>
      </trkpt>
      <trkpt lat="51.856564000" lon="7.623265000">
        <ele>61.7</ele>
        <time>2017-04-29T05:57:26</time>
        <extensions><speed>1.49</speed></extensions>
      </trkpt>
      <trkpt lat="51.856567000" lon="7.623250000">
        <ele>61.7</ele>
        <time>2017-04-29T05:57:27</time>
        <extensions><speed>1.47</speed></extensions>
      </trkpt>
      <trkpt lat="51.856575000" lon="7.623233000">
        <ele>61.7</ele>
        <time>2017-04-29T05:57:28</time>
        <extensions><speed>1.44</speed></extensions>
      </trkpt>
      <trkpt lat="51.856586000" lon="7.623215000">
        <ele>61.8</ele>
        <time>2017-04-29T05:57:29</time>
        <extensions><speed>1.45</speed></extensions>
      </trkpt>
      <trkpt lat="51.856594000" lon="7.623196000">
        <ele>61.8</ele>
        <time>2017-04-29T05:57:30</time>
        <extensions><speed>1.45</speed></extensions>
      </trkpt>
      <trkpt lat="51.856598000" lon="7.623177000">
        <ele>61.8</ele>
        <time>2017-04-29T05:57:31</time>
        <extensions><speed>1.44</speed></extensions>
      </trkpt>
      <trkpt lat="51.856606000" lon="7.623159000">
        <ele>61.8</ele>
        <time>2017-04-29T05:57:32</time>
        <extensions><speed>1.44</speed></extensions>
      </trkpt>
      <trkpt lat="51.856613000" lon="7.623145000">
        <ele>61.9</ele>
        <time>2017-04-29T05:57:33</time>
        <extensions><speed>1.44</speed></extensions>
      </trkpt>
      <trkpt lat="51.856625000" lon="7.623128000">
        <ele>61.9</ele>
        <time>2017-04-29T05:57:34</time>
        <extensions><speed>1.44</speed></extensions>
      </trkpt>
      <trkpt lat="51.856628000" lon="7.623114000">
        <ele>61.9</ele>
        <time>2017-04-29T05:57:35</time>
        <extensions><speed>1.41</speed></extensions>
      </trkpt>
      <trkpt lat="51.856636000" lon="7.623098000">
        <ele>61.9</ele>
        <time>2017-04-29T05:57:36</time>
        <extensions><speed>1.39</speed></extensions>
      </trkpt>
      <trkpt lat="51.856647000" lon="7.623084000">
        <ele>61.9</ele>
        <time>2017-04-29T05:57:37</time>
        <extensions><speed>1.41</speed></extensions>
      </trkpt>
      <trkpt lat="51.856655000" lon="7.623066000">
        <ele>62.0</ele>
        <time>2017-04-29T05:57:38</time>
        <extensions><speed>1.43</speed></extensions>
      </trkpt>
      <trkpt lat="51.856663000" lon="7.623052000">
        <ele>62.0</ele>
        <time>2017-04-29T05:57:39</time>
        <extensions><speed>1.43</speed></extensions>
      </trkpt>
      <trkpt lat="51.856670000" lon="7.623037000">
        <ele>62.0</ele>
        <time>2017-04-29T05:57:40</time>
        <extensions><speed>1.43</speed></extensions>
      </trkpt>
      <trkpt lat="51.856682000" lon="7.623017000">
        <ele>62.1</ele>
        <time>2017-04-29T05:57:41</time>
        <extensions><speed>1.50</speed></extensions>
      </trkpt>
      <trkpt lat="51.856689000" lon="7.622995000">
        <ele>62.1</ele>
        <time>2017-04-29T05:57:42</time>
        <extensions><speed>1.54</speed></extensions>
      </trkpt>
      <trkpt lat="51.856693000" lon="7.622977000">
        <ele>62.2</ele>
        <time>2017-04-29T05:57:43</time>
        <extensions><speed>1.56</speed></extensions>
      </trkpt>
      <trkpt lat="51.856701000" lon="7.622960000">
        <ele>62.2</ele>
        <time>2017-04-29T05:57:44</time>
        <extensions><speed>1.55</speed></extensions>
      </trkpt>
      <trkpt lat="51.856709000" lon="7.622943000">
        <ele>62.3</ele>
        <time>2017-04-29T05:57:45</time>
        <extensions><speed>1.55</speed></extensions>
      </trkpt>
      <trkpt lat="51.856720000" lon="7.622925000">
        <ele>62.3</ele>
        <time>2017-04-29T05:57:46</time>
        <extensions><speed>1.49</speed></extensions>
      </trkpt>
      <trkpt lat="51.856728000" lon="7.622909000">
        <ele>62.4</ele>
        <time>2017-04-29T05:57:47</time>
        <extensions><speed>1.45</speed></extensions>
      </trkpt>
      <trkpt lat="51.856731000" lon="7.622891000">
        <ele>62.4</ele>
        <time>2017-04-29T05:57:48</time>
        <extensions><speed>1.40</speed></extensions>
      </trkpt>
      <trkpt lat="51.856739000" lon="7.622875000">
        <ele>62.5</ele>
        <time>2017-04-29T05:57:49</time>
        <extensions><speed>1.40</speed></extensions>
      </trkpt>
      <trkpt lat="51.856750000" lon="7.622857000">
        <ele>62.5</ele>
        <time>2017-04-29T05:57:50</time>
        <extensions><speed>1.43</speed></extensions>
      </trkpt>
      <trkpt lat="51.856758000" lon="7.622838000">
        <ele>62.6</ele>
        <time>2017-04-29T05:57:51</time>
        <extensions><speed>1.49</speed></extensions>
      </trkpt>
      <trkpt lat="51.856766000" lon="7.622820000">
        <ele>62.6</ele>
        <time>2017-04-29T05:57:52</time>
        <extensions><speed>1.56</speed></extensions>
      </trkpt>
      <trkpt lat="51.856773000" lon="7.622804000">
        <ele>62.7</ele>
        <time>2017-04-29T05:57:53</time>
        <extensions><speed>1.59</speed></extensions>
      </trkpt>
      <trkpt lat="51.856781000" lon="7.622785000">
        <ele>62.7</ele>
        <time>2017-04-29T05:57:54</time>
        <extensions><speed>1.59</speed></extensions>
      </trkpt>
      <trkpt lat="51.856792000" lon="7.622765000">
        <ele>62.8</ele>
        <time>2017-04-29T05:57:55</time>
        <extensions><speed>1.56</speed></extensions>
      </trkpt>
      <trkpt lat="51.856796000" lon="7.622748000">
        <ele>62.8</ele>
        <time>2017-04-29T05:57:56</time>
        <extensions><speed>1.52</speed></extensions>
      </trkpt>
      <trkpt lat="51.856808000" lon="7.622732000">
        <ele>62.9</ele>
        <time>2017-04-29T05:57:57</time>
        <extensions><speed>1.49</speed></extensions>
      </trkpt>
      <trkpt lat="51.856815000" lon="7.622716000">
        <ele>63.0</ele>
        <time>2017-04-29T05:57:58</time>
        <extensions><speed>1.48</speed></extensions>
      </trkpt>
      <trkpt lat="51.856823000" lon="7.622700000">
        <ele>63.0</ele>
        <time>2017-04-29T05:57:59</time>
        <extensions><speed>1.43</speed></extensions>
      </trkpt>
      <trkpt lat="51.856831000" lon="7.622683000">
        <ele>63.1</ele>
        <time>2017-04-29T05:58:00</time>
        <extensions><speed>1.41</speed></extensions>
      </trkpt>
      <trkpt lat="51.856842000" lon="7.622665000">
        <ele>63.1</ele>
        <time>2017-04-29T05:58:01</time>
        <extensions><speed>1.41</speed></extensions>
      </trkpt>
      <trkpt lat="51.856850000" lon="7.622646000">
        <ele>63.2</ele>
        <time>2017-04-29T05:58:02</time>
        <extensions><speed>1.48</speed></extensions>
      </trkpt>
      <trkpt lat="51.856857000" lon="7.622630000">
        <ele>63.2</ele>
        <time>2017-04-29T05:58:03</time>
        <extensions><speed>1.41</speed></extensions>
      </trkpt>
      <trkpt lat="51.856861000" lon="7.622613000">
        <ele>63.3</ele>
        <time>2017-04-29T05:58:04</time>
        <extensions><speed>1.44</speed></extensions>
      </trkpt>
      <trkpt lat="51.856865000" lon="7.622599000">
        <ele>63.3</ele>
        <time>2017-04-29T05:58:05</time>
        <extensions><speed>1.38</speed></extensions>
      </trkpt>
      <trkpt lat="51.856873000" lon="7.622585000">
        <ele>63.3</ele>
        <time>2017-04-29T05:58:06</time>
        <extensions><speed>1.29</speed></extensions>
      </trkpt>
      <trkpt lat="51.856880000" lon="7.622570000">
        <ele>63.4</ele>
        <time>2017-04-29T05:58:07</time>
        <extensions><speed>1.29</speed></extensions>
      </trkpt>
      <trkpt lat="51.856888000" lon="7.622553000">
        <ele>63.4</ele>
        <time>2017-04-29T05:58:08</time>
        <extensions><speed>1.32</speed></extensions>
      </trkpt>
      <trkpt lat="51.856892000" lon="7.622540000">
        <ele>63.5</ele>
        <time>2017-04-29T05:58:09</time>
        <extensions><speed>1.30</speed></extensions>
      </trkpt>
      <trkpt lat="51.856899000" lon="7.622525000">
        <ele>63.5</ele>
        <time>2017-04-29T05:58:10</time>
        <extensions><speed>1.30</speed></extensions>
      </trkpt>
      <trkpt lat="51.856907000" lon="7.622510000">
        <ele>63.5</ele>
        <time>2017-04-29T05:58:11</time>
        <extensions><speed>1.27</speed></extensions>
      </trkpt>
      <trkpt lat="51.856915000" lon="7.622494000">
        <ele>63.6</ele>
        <time>2017-04-29T05:58:12</time>
        <extensions><speed>1.27</speed></extensions>
      </trkpt>
      <trkpt lat="51.856922000" lon="7.622475000">
        <ele>63.6</ele>
        <time>2017-04-29T05:58:13</time>
        <extensions><speed>1.30</speed></extensions>
      </trkpt>
      <trkpt lat="51.856930000" lon="7.622458000">
        <ele>63.7</ele>
        <time>2017-04-29T05:58:14</time>
        <extensions><speed>1.36</speed></extensions>
      </trkpt>
      <trkpt lat="51.856937000" lon="7.622440000">
        <ele>63.7</ele>
        <time>2017-04-29T05:58:15</time>
        <extensions><speed>1.40</speed></extensions>
      </trkpt>
      <trkpt lat="51.856945000" lon="7.622424000">
        <ele>63.7</ele>
        <time>2017-04-29T05:58:16</time>
        <extensions><speed>1.44</speed></extensions>
      </trkpt>
      <trkpt lat="51.856953000" lon="7.622408000">
        <ele>63.8</ele>
        <time>2017-04-29T05:58:17</time>
        <extensions><speed>1.42</speed></extensions>
      </trkpt>
      <trkpt lat="51.856956000" lon="7.622395000">
        <ele>63.8</ele>
        <time>2017-04-29T05:58:18</time>
        <extensions><speed>1.33</speed></extensions>
      </trkpt>
      <trkpt lat="51.856968000" lon="7.622380000">
        <ele>63.8</ele>
        <time>2017-04-29T05:58:19</time>
        <extensions><speed>1.35</speed></extensions>
      </trkpt>
      <trkpt lat="51.856976000" lon="7.622368000">
        <ele>63.9</ele>
        <time>2017-04-29T05:58:20</time>
        <extensions><speed>1.34</speed></extensions>
      </trkpt>
      <trkpt lat="51.856983000" lon="7.622357000">
        <ele>63.9</ele>
        <time>2017-04-29T05:58:21</time>
        <extensions><speed>1.25</speed></extensions>
      </trkpt>
      <trkpt lat="51.856987000" lon="7.622344000">
        <ele>63.9</ele>
        <time>2017-04-29T05:58:22</time>
        <extensions><speed>1.33</speed></extensions>
      </trkpt>
      <trkpt lat="51.856995000" lon="7.622328000">
        <ele>63.9</ele>
        <time>2017-04-29T05:58:23</time>
        <extensions><speed>1.36</speed></extensions>
      </trkpt>
      <trkpt lat="51.857002000" lon="7.622315000">
        <ele>63.9</ele>
        <time>2017-04-29T05:58:24</time>
        <extensions><speed>1.31</speed></extensions>
      </trkpt>
      <trkpt lat="51.857010000" lon="7.622303000">
        <ele>63.9</ele>
        <time>2017-04-29T05:58:25</time>
        <extensions><speed>1.31</speed></extensions>
      </trkpt>
      <trkpt lat="51.857018000" lon="7.622290000">
        <ele>63.9</ele>
        <time>2017-04-29T05:58:26</time>
        <extensions><speed>1.34</speed></extensions>
      </trkpt>
      <trkpt lat="51.857025000" lon="7.622275000">
        <ele>63.9</ele>
        <time>2017-04-29T05:58:27</time>
        <extensions><speed>1.34</speed></extensions>
      </trkpt>
      <trkpt lat="51.857037000" lon="7.622256000">
        <ele>63.9</ele>
        <time>2017-04-29T05:58:28</time>
        <extensions><speed>1.38</speed></extensions>
      </trkpt>
      <trkpt lat="51.857044000" lon="7.622243000">
        <ele>64.0</ele>
        <time>2017-04-29T05:58:29</time>
        <extensions><speed>1.39</speed></extensions>
      </trkpt>
      <trkpt lat="51.857052000" lon="7.622228000">
        <ele>64.0</ele>
        <time>2017-04-29T05:58:30</time>
        <extensions><speed>1.39</speed></extensions>
      </trkpt>
      <trkpt lat="51.857056000" lon="7.622210000">
        <ele>64.0</ele>
        <time>2017-04-29T05:58:31</time>
        <extensions><speed>1.34</speed></extensions>
      </trkpt>
      <trkpt lat="51.857056000" lon="7.622193000">
        <ele>64.0</ele>
        <time>2017-04-29T05:58:32</time>
        <extensions><speed>1.27</speed></extensions>
      </trkpt>
      <trkpt lat="51.857056000" lon="7.622185000">
        <ele>64.0</ele>
        <time>2017-04-29T05:58:33</time>
        <extensions><speed>1.13</speed></extensions>
      </trkpt>
      <trkpt lat="51.857075000" lon="7.621995000">
        <ele>64.2</ele>
        <time>2017-04-29T06:12:23</time>
      </trkpt>
      <trkpt lat="51.857079000" lon="7.621974000">
        <ele>64.2</ele>
        <time>2017-04-29T06:12:24</time>
        <extensions><speed>1.37</speed></extensions>
      </trkpt>
      <trkpt lat="51.857082000" lon="7.621955000">
        <ele>64.3</ele>
        <time>2017-04-29T06:12:25</time>
        <extensions><speed>1.38</speed></extensions>
      </trkpt>
      <trkpt lat="51.857082000" lon="7.621935000">
        <ele>64.3</ele>
        <time>2017-04-29T06:12:26</time>
        <extensions><speed>1.35</speed></extensions>
      </trkpt>
      <trkpt lat="51.857086000" lon="7.621916000">
        <ele>64.3</ele>
        <time>2017-04-29T06:12:27</time>
        <extensions><speed>1.25</speed></extensions>
      </trkpt>
      <trkpt lat="51.857090000" lon="7.621899000">
        <ele>64.3</ele>
        <time>2017-04-29T06:12:28</time>
        <extensions><speed>1.28</speed></extensions>
      </trkpt>
      <trkpt lat="51.857094000" lon="7.621878000">
        <ele>64.3</ele>
        <time>2017-04-29T06:12:29</time>
        <extensions><speed>1.34</speed></extensions>
      </trkpt>
      <trkpt lat="51.857098000" lon="7.621860000">
        <ele>64.4</ele>
        <time>2017-04-29T06:12:30</time>
        <extensions><speed>1.30</speed></extensions>
      </trkpt>
      <trkpt lat="51.857098000" lon="7.621843000">
        <ele>64.4</ele>
        <time>2017-04-29T06:12:31</time>
        <extensions><speed>1.28</speed></extensions>
      </trkpt>
      <trkpt lat="51.857094000" lon="7.621823000">
        <ele>64.4</ele>
        <time>2017-04-29T06:12:32</time>
        <extensions><speed>1.29</speed></extensions>
      </trkpt>
      <trkpt lat="51.857094000" lon="7.621807000">
        <ele>64.4</ele>
        <time>2017-04-29T06:12:33</time>
        <extensions><speed>1.26</speed></extensions>
      </trkpt>
      <trkpt lat="51.857098000" lon="7.621790000">
        <ele>64.5</ele>
        <time>2017-04-29T06:12:34</time>
        <extensions><speed>1.26</speed></extensions>
      </trkpt>
      <trkpt lat="51.857101000" lon="7.621771000">
        <ele>64.5</ele>
        <time>2017-04-29T06:12:35</time>
        <extensions><speed>1.29</speed></extensions>
      </trkpt>
      <trkpt lat="51.857105000" lon="7.621753000">
        <ele>64.5</ele>
        <time>2017-04-29T06:12:36</time>
        <extensions><speed>1.31</speed></extensions>
      </trkpt>
      <trkpt lat="51.857105000" lon="7.621733000">
        <ele>64.5</ele>
        <time>2017-04-29T06:12:37</time>
        <extensions><speed>1.29</speed></extensions>
      </trkpt>
      <trkpt lat="51.857109000" lon="7.621715000">
        <ele>64.6</ele>
        <time>2017-04-29T06:12:38</time>
        <extensions><speed>1.30</speed></extensions>
      </trkpt>
      <trkpt lat="51.857113000" lon="7.621696000">
        <ele>64.6</ele>
        <time>2017-04-29T06:12:39</time>
        <extensions><speed>1.30</speed></extensions>
      </trkpt>
      <trkpt lat="51.857117000" lon="7.621673000">
        <ele>64.6</ele>
        <time>2017-04-29T06:12:40</time>
        <extensions><speed>1.31</speed></extensions>
      </trkpt>
      <trkpt lat="51.857117000" lon="7.621654000">
        <ele>64.7</ele>
        <time>2017-04-29T06:12:41</time>
        <extensions><speed>1.34</speed></extensions>
      </trkpt>
      <trkpt lat="51.857121000" lon="7.621635000">
        <ele>64.7</ele>
        <time>2017-04-29T06:12:42</time>
        <extensions><speed>1.40</speed></extensions>
      </trkpt>
      <trkpt lat="51.857117000" lon="7.621614000">
        <ele>64.7</ele>
        <time>2017-04-29T06:12:43</time>
        <extensions><speed>1.44</speed></extensions>
      </trkpt>
      <trkpt lat="51.857117000" lon="7.621592000">
        <ele>64.8</ele>
        <time>2017-04-29T06:12:44</time>
        <extensions><speed>1.44</speed></extensions>
      </trkpt>
      <trkpt lat="51.857117000" lon="7.621573000">
        <ele>64.8</ele>
        <time>2017-04-29T06:12:45</time>
        <extensions><speed>1.39</speed></extensions>
      </trkpt>
      <trkpt lat="51.857117000" lon="7.621555000">
        <ele>64.9</ele>
        <time>2017-04-29T06:12:46</time>
        <extensions><speed>1.38</speed></extensions>
      </trkpt>
      <trkpt lat="51.857117000" lon="7.621535000">
        <ele>64.9</ele>
        <time>2017-04-29T06:12:47</time>
        <extensions><speed>1.36</speed></extensions>
      </trkpt>
      <trkpt lat="51.857117000" lon="7.621517000">
        <ele>65.0</ele>
        <time>2017-04-29T06:12:48</time>
        <extensions><speed>1.35</speed></extensions>
      </trkpt>
      <trkpt lat="51.857117000" lon="7.621498000">
        <ele>65.1</ele>
        <time>2017-04-29T06:12:49</time>
        <extensions><speed>1.36</speed></extensions>
      </trkpt>
      <trkpt lat="51.857117000" lon="7.621479000">
        <ele>65.1</ele>
        <time>2017-04-29T06:12:50</time>
        <extensions><speed>1.36</speed></extensions>
      </trkpt>
      <trkpt lat="51.857113000" lon="7.621456000">
        <ele>65.2</ele>
        <time>2017-04-29T06:12:51</time>
        <extensions><speed>1.38</speed></extensions>
      </trkpt>
      <trkpt lat="51.857109000" lon="7.621437000">
        <ele>65.3</ele>
        <time>2017-04-29T06:12:52</time>
        <extensions><speed>1.33</speed></extensions>
      </trkpt>
      <trkpt lat="51.857113000" lon="7.621421000">
        <ele>65.4</ele>
        <time>2017-04-29T06:12:53</time>
        <extensions><speed>1.28</speed></extensions>
      </trkpt>
      <trkpt lat="51.857109000" lon="7.621405000">
        <ele>65.4</ele>
        <time>2017-04-29T06:12:54</time>
        <extensions><speed>1.28</speed></extensions>
      </trkpt>
      <trkpt lat="51.857109000" lon="7.621387000">
        <ele>65.5</ele>
        <time>2017-04-29T06:12:55</time>
        <extensions><speed>1.33</speed></extensions>
      </trkpt>
      <trkpt lat="51.857109000" lon="7.621368000">
        <ele>65.6</ele>
        <time>2017-04-29T06:12:56</time>
        <extensions><speed>1.23</speed></extensions>
      </trkpt>
      <trkpt lat="51.857105000" lon="7.621350000">
        <ele>65.6</ele>
        <time>2017-04-29T06:12:57</time>
        <extensions><speed>1.19</speed></extensions>
      </trkpt>
      <trkpt lat="51.857105000" lon="7.621332000">
        <ele>65.7</ele>
        <time>2017-04-29T06:12:58</time>
        <extensions><speed>1.27</speed></extensions>
      </trkpt>
      <trkpt lat="51.857105000" lon="7.621310000">
        <ele>65.8</ele>
        <time>2017-04-29T06:12:59</time>
        <extensions><speed>1.29</speed></extensions>
      </trkpt>
      <trkpt lat="51.857105000" lon="7.621290000">
        <ele>65.8</ele>
        <time>2017-04-29T06:13:00</time>
        <extensions><speed>1.27</speed></extensions>
      </trkpt>
      <trkpt lat="51.857109000" lon="7.621268000">
        <ele>65.9</ele>
        <time>2017-04-29T06:13:01</time>
        <extensions><speed>1.37</speed></extensions>
      </trkpt>
      <trkpt lat="51.857109000" lon="7.621242000">
        <ele>65.9</ele>
        <time>2017-04-29T06:13:02</time>
        <extensions><speed>1.45</speed></extensions>
      </trkpt>
      <trkpt lat="51.857109000" lon="7.621218000">
        <ele>66.0</ele>
        <time>2017-04-29T06:13:03</time>
        <extensions><speed>1.49</speed></extensions>
      </trkpt>
      <trkpt lat="51.857109000" lon="7.621197000">
        <ele>66.1</ele>
        <time>2017-04-29T06:13:04</time>
        <extensions><speed>1.50</speed></extensions>
      </trkpt>
      <trkpt lat="51.857113000" lon="7.621178000">
        <ele>66.1</ele>
        <time>2017-04-29T06:13:05</time>
        <extensions><speed>1.52</speed></extensions>
      </trkpt>
      <trkpt lat="51.857117000" lon="7.621162000">
        <ele>66.2</ele>
        <time>2017-04-29T06:13:06</time>
        <extensions><speed>1.47</speed></extensions>
      </trkpt>
      <trkpt lat="51.857117000" lon="7.621145000">
        <ele>66.3</ele>
        <time>2017-04-29T06:13:07</time>
        <extensions><speed>1.36</speed></extensions>
      </trkpt>
      <trkpt lat="51.857109000" lon="7.621122000">
        <ele>66.3</ele>
        <time>2017-04-29T06:13:08</time>
        <extensions><speed>1.34</speed></extensions>
      </trkpt>
      <trkpt lat="51.857109000" lon="7.621100000">
        <ele>66.4</ele>
        <time>2017-04-29T06:13:09</time>
        <extensions><speed>1.37</speed></extensions>
      </trkpt>
      <trkpt lat="51.857109000" lon="7.621077000">
        <ele>66.5</ele>
        <time>2017-04-29T06:13:10</time>
        <extensions><speed>1.35</speed></extensions>
      </trkpt>
      <trkpt lat="51.857109000" lon="7.621055000">
        <ele>66.5</ele>
        <time>2017-04-29T06:13:11</time>
        <extensions><speed>1.37</speed></extensions>
      </trkpt>
      <trkpt lat="51.857113000" lon="7.621034000">
        <ele>66.6</ele>
        <time>2017-04-29T06:13:12</time>
        <extensions><speed>1.44</speed></extensions>
      </trkpt>
      <trkpt lat="51.857117000" lon="7.621013000">
        <ele>66.7</ele>
        <time>2017-04-29T06:13:13</time>
        <extensions><speed>1.43</speed></extensions>
      </trkpt>
      <trkpt lat="51.857124000" lon="7.620992000">
        <ele>66.7</ele>
        <time>2017-04-29T06:13:14</time>
        <extensions><speed>1.43</speed></extensions>
      </trkpt>
      <trkpt lat="51.857124000" lon="7.620970000">
        <ele>66.8</ele>
        <time>2017-04-29T06:13:15</time>
        <extensions><speed>1.46</speed></extensions>
      </trkpt>
      <trkpt lat="51.857128000" lon="7.620943000">
        <ele>66.9</ele>
        <time>2017-04-29T06:13:16</time>
        <extensions><speed>1.50</speed></extensions>
      </trkpt>
      <trkpt lat="51.857124000" lon="7.620918000">
        <ele>66.9</ele>
        <time>2017-04-29T06:13:17</time>
        <extensions><speed>1.55</speed></extensions>
      </trkpt>
      <trkpt lat="51.857124000" lon="7.620896000">
        <ele>67.0</ele>
        <time>2017-04-29T06:13:18</time>
        <extensions><speed>1.55</speed></extensions>
      </trkpt>
      <trkpt lat="51.857121000" lon="7.620875000">
        <ele>67.0</ele>
        <time>2017-04-29T06:13:19</time>
        <extensions><speed>1.55</speed></extensions>
      </trkpt>
      <trkpt lat="51.857117000" lon="7.620852000">
        <ele>67.1</ele>
        <time>2017-04-29T06:13:20</time>
        <extensions><speed>1.54</speed></extensions>
      </trkpt>
      <trkpt lat="51.857121000" lon="7.620831000">
        <ele>67.2</ele>
        <time>2017-04-29T06:13:21</time>
        <extensions><speed>1.50</speed></extensions>
      </trkpt>
      <trkpt lat="51.857128000" lon="7.620810000">
        <ele>67.2</ele>
        <time>2017-04-29T06:13:22</time>
        <extensions><speed>1.48</speed></extensions>
      </trkpt>
      <trkpt lat="51.857143000" lon="7.620790000">
        <ele>67.3</ele>
        <time>2017-04-29T06:13:23</time>
        <extensions><speed>1.48</speed></extensions>
      </trkpt>
      <trkpt lat="51.857151000" lon="7.620770000">
        <ele>67.4</ele>
        <time>2017-04-29T06:13:24</time>
        <extensions><speed>1.52</speed></extensions>
      </trkpt>
      <trkpt lat="51.857155000" lon="7.620749000">
        <ele>67.4</ele>
        <time>2017-04-29T06:13:25</time>
        <extensions><speed>1.52</speed></extensions>
      </trkpt>
      <trkpt lat="51.857151000" lon="7.620727000">
        <ele>67.5</ele>
        <time>2017-04-29T06:13:26</time>
        <extensions><speed>1.62</speed></extensions>
      </trkpt>
      <trkpt lat="51.857151000" lon="7.620703000">
        <ele>67.5</ele>
        <time>2017-04-29T06:13:27</time>
        <extensions><speed>1.62</speed></extensions>
      </trkpt>
      <trkpt lat="51.857151000" lon="7.620680000">
        <ele>67.6</ele>
        <time>2017-04-29T06:13:28</time>
        <extensions><speed>1.56</speed></extensions>
      </trkpt>
      <trkpt lat="51.857151000" lon="7.620656000">
        <ele>67.6</ele>
        <time>2017-04-29T06:13:29</time>
        <extensions><speed>1.57</speed></extensions>
      </trkpt>
      <trkpt lat="51.857151000" lon="7.620635000">
        <ele>67.7</ele>
        <time>2017-04-29T06:13:30</time>
        <extensions><speed>1.59</speed></extensions>
      </trkpt>
      <trkpt lat="51.857151000" lon="7.620610000">
        <ele>67.7</ele>
        <time>2017-04-29T06:13:31</time>
        <extensions><speed>1.56</speed></extensions>
      </trkpt>
      <trkpt lat="51.857151000" lon="7.620590000">
        <ele>67.8</ele>
        <time>2017-04-29T06:13:32</time>
        <extensions><speed>1.56</speed></extensions>
      </trkpt>
      <trkpt lat="51.857155000" lon="7.620572000">
        <ele>67.8</ele>
        <time>2017-04-29T06:13:33</time>
        <extensions><speed>1.51</speed></extensions>
      </trkpt>
      <trkpt lat="51.857159000" lon="7.620551000">
        <ele>67.9</ele>
        <time>2017-04-29T06:13:34</time>
        <extensions><speed>1.46</speed></extensions>
      </trkpt>
      <trkpt lat="51.857155000" lon="7.620533000">
        <ele>68.0</ele>
        <time>2017-04-29T06:13:35</time>
        <extensions><speed>1.42</speed></extensions>
      </trkpt>
      <trkpt lat="51.857155000" lon="7.620512000">
        <ele>68.0</ele>
        <time>2017-04-29T06:13:36</time>
        <extensions><speed>1.42</speed></extensions>
      </trkpt>
      <trkpt lat="51.857155000" lon="7.620486000">
        <ele>68.1</ele>
        <time>2017-04-29T06:13:37</time>
        <extensions><speed>1.46</speed></extensions>
      </trkpt>
      <trkpt lat="51.857151000" lon="7.620465000">
        <ele>68.2</ele>
        <time>2017-04-29T06:13:38</time>
        <extensions><speed>1.49</speed></extensions>
      </trkpt>
      <trkpt lat="51.857151000" lon="7.620445000">
        <ele>68.2</ele>
        <time>2017-04-29T06:13:39</time>
        <extensions><speed>1.52</speed></extensions>
      </trkpt>
      <trkpt lat="51.857147000" lon="7.620423000">
        <ele>68.3</ele>
        <time>2017-04-29T06:13:40</time>
        <extensions><speed>1.52</speed></extensions>
      </trkpt>
      <trkpt lat="51.857143000" lon="7.620402000">
        <ele>68.3</ele>
        <time>2017-04-29T06:13:41</time>
        <extensions><speed>1.52</speed></extensions>
      </trkpt>
      <trkpt lat="51.857147000" lon="7.620381000">
        <ele>68.4</ele>
        <time>2017-04-29T06:13:42</time>
        <extensions><speed>1.55</speed></extensions>
      </trkpt>
      <trkpt lat="51.857147000" lon="7.620360000">
        <ele>68.5</ele>
        <time>2017-04-29T06:13:43</time>
        <extensions><speed>1.55</speed></extensions>
      </trkpt>
      <trkpt lat="51.857140000" lon="7.620339000">
        <ele>68.6</ele>
        <time>2017-04-29T06:13:44</time>
        <extensions><speed>1.58</speed></extensions>
      </trkpt>
      <trkpt lat="51.857140000" lon="7.620318000">
        <ele>68.6</ele>
        <time>2017-04-29T06:13:45</time>
        <extensions><speed>1.59</speed></extensions>
      </trkpt>
      <trkpt lat="51.857140000" lon="7.620298000">
        <ele>68.6</ele>
        <time>2017-04-29T06:13:46</time>
        <extensions><speed>1.57</speed></extensions>
      </trkpt>
      <trkpt lat="51.857136000" lon="7.620275000">
        <ele>68.7</ele>
        <time>2017-04-29T06:13:47</time>
        <extensions><speed>1.52</speed></extensions>
      </trkpt>
      <trkpt lat="51.857136000" lon="7.620255000">
        <ele>68.8</ele>
        <time>2017-04-29T06:13:48</time>
        <extensions><speed>1.49</speed></extensions>
      </trkpt>
      <trkpt lat="51.857136000" lon="7.620234000">
        <ele>68.9</ele>
        <time>2017-04-29T06:13:49</time>
        <extensions><speed>1.48</speed></extensions>
      </trkpt>
      <trkpt lat="51.857136000" lon="7.620213000">
        <ele>68.9</ele>
        <time>2017-04-29T06:13:50</time>
        <extensions><speed>1.49</speed></extensions>
      </trkpt>
      <trkpt lat="51.857132000" lon="7.620190000">
        <ele>69.0</ele>
        <time>2017-04-29T06:13:51</time>
        <extensions><speed>1.49</speed></extensions>
      </trkpt>
      <trkpt lat="51.857132000" lon="7.620166000">
        <ele>69.1</ele>
        <time>2017-04-29T06:13:52</time>
        <extensions><speed>1.53</speed></extensions>
      </trkpt>
      <trkpt lat="51.857128000" lon="7.620145000">
        <ele>69.1</ele>
        <time>2017-04-29T06:13:53</time>
        <extensions><speed>1.53</speed></extensions>
      </trkpt>
      <trkpt lat="51.857124000" lon="7.620125000">
        <ele>69.2</ele>
        <time>2017-04-29T06:13:54</time>
        <extensions><speed>1.53</speed></extensions>
      </trkpt>
      <trkpt lat="51.857128000" lon="7.620105000">
        <ele>69.3</ele>
        <time>2017-04-29T06:13:55</time>
        <extensions><speed>1.54</speed></extensions>
      </trkpt>
      <trkpt lat="51.857132000" lon="7.620087000">
        <ele>69.3</ele>
        <time>2017-04-29T06:13:56</time>
        <extensions><speed>1.54</speed></extensions>
      </trkpt>
      <trkpt lat="51.857132000" lon="7.620066000">
        <ele>69.4</ele>
        <time>2017-04-29T06:13:57</time>
        <extensions><speed>1.51</speed></extensions>
      </trkpt>
      <trkpt lat="51.857136000" lon="7.620047000">
        <ele>69.4</ele>
        <time>2017-04-29T06:13:58</time>
        <extensions><speed>1.51</speed></extensions>
      </trkpt>
      <trkpt lat="51.857136000" lon="7.620026000">
        <ele>69.5</ele>
        <time>2017-04-29T06:13:59</time>
        <extensions><speed>1.47</speed></extensions>
      </trkpt>
      <trkpt lat="51.857132000" lon="7.620007000">
        <ele>69.5</ele>
        <time>2017-04-29T06:14:00</time>
        <extensions><speed>1.48</speed></extensions>
      </trkpt>
      <trkpt lat="51.857124000" lon="7.619987000">
        <ele>69.6</ele>
        <time>2017-04-29T06:14:01</time>
        <extensions><speed>1.40</speed></extensions>
      </trkpt>
      <trkpt lat="51.857124000" lon="7.619970000">
        <ele>69.6</ele>
        <time>2017-04-29T06:14:02</time>
        <extensions><speed>1.43</speed></extensions>
      </trkpt>
      <trkpt lat="51.857121000" lon="7.619950000">
        <ele>69.7</ele>
        <time>2017-04-29T06:14:03</time>
        <extensions><speed>1.46</speed></extensions>
      </trkpt>
      <trkpt lat="51.857113000" lon="7.619926000">
        <ele>69.7</ele>
        <time>2017-04-29T06:14:04</time>
        <extensions><speed>1.60</speed></extensions>
      </trkpt>
      <trkpt lat="51.857105000" lon="7.619907000">
        <ele>69.8</ele>
        <time>2017-04-29T06:14:05</time>
        <extensions><speed>1.45</speed></extensions>
      </trkpt>
      <trkpt lat="51.857101000" lon="7.619885000">
        <ele>69.8</ele>
        <time>2017-04-29T06:14:06</time>
        <extensions><speed>1.55</speed></extensions>
      </trkpt>
      <trkpt lat="51.857101000" lon="7.619865000">
        <ele>69.9</ele>
        <time>2017-04-29T06:14:07</time>
        <extensions><speed>1.53</speed></extensions>
      </trkpt>
      <trkpt lat="51.857101000" lon="7.619843000">
        <ele>70.0</ele>
        <time>2017-04-29T06:14:08</time>
        <extensions><speed>1.47</speed></extensions>
      </trkpt>
      <trkpt lat="51.857098000" lon="7.619820000">
        <ele>70.1</ele>
        <time>2017-04-29T06:14:09</time>
        <extensions><speed>1.47</speed></extensions>
      </trkpt>
      <trkpt lat="51.857098000" lon="7.619797000">
        <ele>70.1</ele>
        <time>2017-04-29T06:14:10</time>
        <extensions><speed>1.47</speed></extensions>
      </trkpt>
      <trkpt lat="51.857098000" lon="7.619775000">
        <ele>70.2</ele>
        <time>2017-04-29T06:14:11</time>
        <extensions><speed>1.47</speed></extensions>
      </trkpt>
      <trkpt lat="51.857094000" lon="7.619751000">
        <ele>70.3</ele>
        <time>2017-04-29T06:14:12</time>
        <extensions><speed>1.58</speed></extensions>
      </trkpt>
      <trkpt lat="51.857094000" lon="7.619730000">
        <ele>70.4</ele>
        <time>2017-04-29T06:14:13</time>
        <extensions><speed>1.50</speed></extensions>
      </trkpt>
      <trkpt lat="51.857094000" lon="7.619710000">
        <ele>70.4</ele>
        <time>2017-04-29T06:14:14</time>
        <extensions><speed>1.42</speed></extensions>
      </trkpt>
      <trkpt lat="51.857090000" lon="7.619687000">
        <ele>70.5</ele>
        <time>2017-04-29T06:14:15</time>
        <extensions><speed>1.49</speed></extensions>
      </trkpt>
      <trkpt lat="51.857086000" lon="7.619668000">
        <ele>70.6</ele>
        <time>2017-04-29T06:14:16</time>
        <extensions><speed>1.42</speed></extensions>
      </trkpt>
      <trkpt lat="51.857082000" lon="7.619650000">
        <ele>70.6</ele>
        <time>2017-04-29T06:14:17</time>
        <extensions><speed>1.39</speed></extensions>
      </trkpt>
      <trkpt lat="51.857082000" lon="7.619632000">
        <ele>70.7</ele>
        <time>2017-04-29T06:14:18</time>
        <extensions><speed>1.39</speed></extensions>
      </trkpt>
      <trkpt lat="51.857079000" lon="7.619613000">
        <ele>70.8</ele>
        <time>2017-04-29T06:14:19</time>
        <extensions><speed>1.38</speed></extensions>
      </trkpt>
      <trkpt lat="51.857067000" lon="7.619590000">
        <ele>70.8</ele>
        <time>2017-04-29T06:14:20</time>
        <extensions><speed>1.38</speed></extensions>
      </trkpt>
      <trkpt lat="51.857063000" lon="7.619565000">
        <ele>70.9</ele>
        <time>2017-04-29T06:14:21</time>
        <extensions><speed>1.37</speed></extensions>
      </trkpt>
      <trkpt lat="51.857063000" lon="7.619545000">
        <ele>71.0</ele>
        <time>2017-04-29T06:14:22</time>
        <extensions><speed>1.32</speed></extensions>
      </trkpt>
      <trkpt lat="51.857059000" lon="7.619525000">
        <ele>71.0</ele>
        <time>2017-04-29T06:14:23</time>
        <extensions><speed>1.43</speed></extensions>
      </trkpt>
      <trkpt lat="51.857059000" lon="7.619502000">
        <ele>71.0</ele>
        <time>2017-04-29T06:14:24</time>
        <extensions><speed>1.50</speed></extensions>
      </trkpt>
      <trkpt lat="51.857056000" lon="7.619480000">
        <ele>71.1</ele>
        <time>2017-04-29T06:14:25</time>
        <extensions><speed>1.46</speed></extensions>
      </trkpt>
      <trkpt lat="51.857052000" lon="7.619455000">
        <ele>71.2</ele>
        <time>2017-04-29T06:14:26</time>
        <extensions><speed>1.52</speed></extensions>
      </trkpt>
      <trkpt lat="51.857048000" lon="7.619432000">
        <ele>71.3</ele>
        <time>2017-04-29T06:14:27</time>
        <extensions><speed>1.52</speed></extensions>
      </trkpt>
      <trkpt lat="51.857044000" lon="7.619408000">
        <ele>71.4</ele>
        <time>2017-04-29T06:14:28</time>
        <extensions><speed>1.46</speed></extensions>
      </trkpt>
      <trkpt lat="51.857044000" lon="7.619387000">
        <ele>71.5</ele>
        <time>2017-04-29T06:14:29</time>
        <extensions><speed>1.46</speed></extensions>
      </trkpt>
      <trkpt lat="51.857044000" lon="7.619368000">
        <ele>71.5</ele>
        <time>2017-04-29T06:14:30</time>
        <extensions><speed>1.46</speed></extensions>
      </trkpt>
      <trkpt lat="51.857044000" lon="7.619347000">
        <ele>71.6</ele>
        <time>2017-04-29T06:14:31</time>
        <extensions><speed>1.45</speed></extensions>
      </trkpt>
      <trkpt lat="51.857044000" lon="7.619325000">
        <ele>71.7</ele>
        <time>2017-04-29T06:14:32</time>
        <extensions><speed>1.47</speed></extensions>
      </trkpt>
      <trkpt lat="51.857044000" lon="7.619301000">
        <ele>71.8</ele>
        <time>2017-04-29T06:14:33</time>
        <extensions><speed>1.48</speed></extensions>
      </trkpt>
      <trkpt lat="51.857044000" lon="7.619280000">
        <ele>71.8</ele>
        <time>2017-04-29T06:14:34</time>
        <extensions><speed>1.46</speed></extensions>
      </trkpt>
      <trkpt lat="51.857044000" lon="7.619259000">
        <ele>71.9</ele>
        <time>2017-04-29T06:14:35</time>
        <extensions><speed>1.43</speed></extensions>
      </trkpt>
      <trkpt lat="51.857044000" lon="7.619242000">
        <ele>72.0</ele>
        <time>2017-04-29T06:14:36</time>
        <extensions><speed>1.39</speed></extensions>
      </trkpt>
      <trkpt lat="51.857044000" lon="7.619222000">
        <ele>72.0</ele>
        <time>2017-04-29T06:14:37</time>
        <extensions><speed>1.34</speed></extensions>
      </trkpt>
      <trkpt lat="51.857044000" lon="7.619202000">
        <ele>72.0</ele>
        <time>2017-04-29T06:14:38</time>
        <extensions><speed>1.32</speed></extensions>
      </trkpt>
      <trkpt lat="51.857048000" lon="7.619182000">
        <ele>72.1</ele>
        <time>2017-04-29T06:14:39</time>
        <extensions><speed>1.32</speed></extensions>
      </trkpt>
      <trkpt lat="51.857048000" lon="7.619158000">
        <ele>72.1</ele>
        <time>2017-04-29T06:14:40</time>
        <extensions><speed>1.37</speed></extensions>
      </trkpt>
      <trkpt lat="51.857044000" lon="7.619137000">
        <ele>72.2</ele>
        <time>2017-04-29T06:14:41</time>
        <extensions><speed>1.41</speed></extensions>
      </trkpt>
      <trkpt lat="51.857040000" lon="7.619117000">
        <ele>72.2</ele>
        <time>2017-04-29T06:14:42</time>
        <extensions><speed>1.43</speed></extensions>
      </trkpt>
      <trkpt lat="51.857037000" lon="7.619095000">
        <ele>72.2</ele>
        <time>2017-04-29T06:14:43</time>
        <extensions><speed>1.46</speed></extensions>
      </trkpt>
      <trkpt lat="51.857033000" lon="7.619072000">
        <ele>72.3</ele>
        <time>2017-04-29T06:14:44</time>
        <extensions><speed>1.46</speed></extensions>
      </trkpt>
      <trkpt lat="51.857029000" lon="7.619045000">
        <ele>72.3</ele>
        <time>2017-04-29T06:14:45</time>
        <extensions><speed>1.50</speed></extensions>
      </trkpt>
      <trkpt lat="51.857025000" lon="7.619020000">
        <ele>72.4</ele>
        <time>2017-04-29T06:14:46</time>
        <extensions><speed>1.52</speed></extensions>
      </trkpt>
      <trkpt lat="51.857018000" lon="7.618999000">
        <ele>72.5</ele>
        <time>2017-04-29T06:14:47</time>
        <extensions><speed>1.53</speed></extensions>
      </trkpt>
      <trkpt lat="51.857018000" lon="7.618979000">
        <ele>72.5</ele>
        <time>2017-04-29T06:14:48</time>
        <extensions><speed>1.53</speed></extensions>
      </trkpt>
      <trkpt lat="51.857014000" lon="7.618958000">
        <ele>72.5</ele>
        <time>2017-04-29T06:14:49</time>
        <extensions><speed>1.51</speed></extensions>
      </trkpt>
      <trkpt lat="51.857010000" lon="7.618940000">
        <ele>72.6</ele>
        <time>2017-04-29T06:14:50</time>
        <extensions><speed>1.44</speed></extensions>
      </trkpt>
      <trkpt lat="51.857010000" lon="7.618927000">
        <ele>72.7</ele>
        <time>2017-04-29T06:14:51</time>
        <extensions><speed>1.33</speed></extensions>
      </trkpt>
      <trkpt lat="51.857010000" lon="7.618911000">
        <ele>72.8</ele>
        <time>2017-04-29T06:14:52</time>
        <extensions><speed>1.21</speed></extensions>
      </trkpt>
      <trkpt lat="51.857006000" lon="7.618893000">
        <ele>72.8</ele>
        <time>2017-04-29T06:14:53</time>
        <extensions><speed>1.26</speed></extensions>
      </trkpt>
      <trkpt lat="51.857002000" lon="7.618870000">
        <ele>72.8</ele>
        <time>2017-04-29T06:14:54</time>
        <extensions><speed>1.28</speed></extensions>
      </trkpt>
      <trkpt lat="51.857002000" lon="7.618846000">
        <ele>72.8</ele>
        <time>2017-04-29T06:14:55</time>
        <extensions><speed>1.44</speed></extensions>
      </trkpt>
      <trkpt lat="51.856998000" lon="7.618824000">
        <ele>72.8</ele>
        <time>2017-04-29T06:14:56</time>
        <extensions><speed>1.58</speed></extensions>
      </trkpt>
      <trkpt lat="51.856998000" lon="7.618800000">
        <ele>72.8</ele>
        <time>2017-04-29T06:14:57</time>
        <extensions><speed>1.58</speed></extensions>
      </trkpt>
      <trkpt lat="51.856998000" lon="7.618783000">
        <ele>72.8</ele>
        <time>2017-04-29T06:14:58</time>
        <extensions><speed>1.53</speed></extensions>
      </trkpt>
      <trkpt lat="51.856998000" lon="7.618762000">
        <ele>72.8</ele>
        <time>2017-04-29T06:14:59</time>
        <extensions><speed>1.55</speed></extensions>
      </trkpt>
      <trkpt lat="51.856995000" lon="7.618740000">
        <ele>72.8</ele>
        <time>2017-04-29T06:15:00</time>
        <extensions><speed>1.50</speed></extensions>
      </trkpt>
      <trkpt lat="51.856991000" lon="7.618721000">
        <ele>72.7</ele>
        <time>2017-04-29T06:15:01</time>
        <extensions><speed>1.46</speed></extensions>
      </trkpt>
      <trkpt lat="51.856991000" lon="7.618705000">
        <ele>72.7</ele>
        <time>2017-04-29T06:15:02</time>
        <extensions><speed>1.40</speed></extensions>
      </trkpt>
      <trkpt lat="51.856991000" lon="7.618687000">
        <ele>72.7</ele>
        <time>2017-04-29T06:15:03</time>
        <extensions><speed>1.45</speed></extensions>
      </trkpt>
      <trkpt lat="51.856987000" lon="7.618665000">
        <ele>72.6</ele>
        <time>2017-04-29T06:15:04</time>
        <extensions><speed>1.45</speed></extensions>
      </trkpt>
      <trkpt lat="51.856987000" lon="7.618645000">
        <ele>72.6</ele>
        <time>2017-04-29T06:15:05</time>
        <extensions><speed>1.35</speed></extensions>
      </trkpt>
      <trkpt lat="51.856987000" lon="7.618625000">
        <ele>72.6</ele>
        <time>2017-04-29T06:15:06</time>
        <extensions><speed>1.31</speed></extensions>
      </trkpt>
      <trkpt lat="51.856987000" lon="7.618605000">
        <ele>72.5</ele>
        <time>2017-04-29T06:15:07</time>
        <extensions><speed>1.41</speed></extensions>
      </trkpt>
      <trkpt lat="51.856987000" lon="7.618585000">
        <ele>72.5</ele>
        <time>2017-04-29T06:15:08</time>
        <extensions><speed>1.41</speed></extensions>
      </trkpt>
      <trkpt lat="51.856987000" lon="7.618564000">
        <ele>72.5</ele>
        <time>2017-04-29T06:15:09</time>
        <extensions><speed>1.40</speed></extensions>
      </trkpt>
      <trkpt lat="51.856987000" lon="7.618543000">
        <ele>72.5</ele>
        <time>2017-04-29T06:15:10</time>
        <extensions><speed>1.43</speed></extensions>
      </trkpt>
      <trkpt lat="51.856987000" lon="7.618522000">
        <ele>72.4</ele>
        <time>2017-04-29T06:15:11</time>
        <extensions><speed>1.48</speed></extensions>
      </trkpt>
      <trkpt lat="51.856987000" lon="7.618500000">
        <ele>72.4</ele>
        <time>2017-04-29T06:15:12</time>
        <extensions><speed>1.45</speed></extensions>
      </trkpt>
      <trkpt lat="51.856987000" lon="7.618478000">
        <ele>72.3</ele>
        <time>2017-04-29T06:15:13</time>
        <extensions><speed>1.50</speed></extensions>
      </trkpt>
      <trkpt lat="51.856987000" lon="7.618459000">
        <ele>72.3</ele>
        <time>2017-04-29T06:15:14</time>
        <extensions><speed>1.49</speed></extensions>
      </trkpt>
      <trkpt lat="51.856987000" lon="7.618435000">
        <ele>72.3</ele>
        <time>2017-04-29T06:15:15</time>
        <extensions><speed>1.52</speed></extensions>
      </trkpt>
      <trkpt lat="51.856983000" lon="7.618413000">
        <ele>72.2</ele>
        <time>2017-04-29T06:15:16</time>
        <extensions><speed>1.54</speed></extensions>
      </trkpt>
      <trkpt lat="51.856979000" lon="7.618392000">
        <ele>72.1</ele>
        <time>2017-04-29T06:15:17</time>
        <extensions><speed>1.54</speed></extensions>
      </trkpt>
      <trkpt lat="51.856979000" lon="7.618370000">
        <ele>72.1</ele>
        <time>2017-04-29T06:15:18</time>
        <extensions><speed>1.52</speed></extensions>
      </trkpt>
      <trkpt lat="51.856979000" lon="7.618351000">
        <ele>72.0</ele>
        <time>2017-04-29T06:15:19</time>
        <extensions><speed>1.52</speed></extensions>
      </trkpt>
      <trkpt lat="51.856983000" lon="7.618326000">
        <ele>72.0</ele>
        <time>2017-04-29T06:15:20</time>
        <extensions><speed>1.51</speed></extensions>
      </trkpt>
      <trkpt lat="51.856983000" lon="7.618307000">
        <ele>72.0</ele>
        <time>2017-04-29T06:15:21</time>
        <extensions><speed>1.47</speed></extensions>
      </trkpt>
      <trkpt lat="51.856979000" lon="7.618286000">
        <ele>71.9</ele>
        <time>2017-04-29T06:15:22</time>
        <extensions><speed>1.44</speed></extensions>
      </trkpt>
      <trkpt lat="51.856976000" lon="7.618265000">
        <ele>71.9</ele>
        <time>2017-04-29T06:15:23</time>
        <extensions><speed>1.48</speed></extensions>
      </trkpt>
      <trkpt lat="51.856972000" lon="7.618244000">
        <ele>71.8</ele>
        <time>2017-04-29T06:15:24</time>
        <extensions><speed>1.48</speed></extensions>
      </trkpt>
      <trkpt lat="51.856972000" lon="7.618221000">
        <ele>71.8</ele>
        <time>2017-04-29T06:15:25</time>
        <extensions><speed>1.48</speed></extensions>
      </trkpt>
      <trkpt lat="51.856972000" lon="7.618200000">
        <ele>71.7</ele>
        <time>2017-04-29T06:15:26</time>
        <extensions><speed>1.47</speed></extensions>
      </trkpt>
      <trkpt lat="51.856968000" lon="7.618180000">
        <ele>71.7</ele>
        <time>2017-04-29T06:15:27</time>
        <extensions><speed>1.48</speed></extensions>
      </trkpt>
      <trkpt lat="51.856964000" lon="7.618158000">
        <ele>71.6</ele>
        <time>2017-04-29T06:15:28</time>
        <extensions><speed>1.48</speed></extensions>
      </trkpt>
      <trkpt lat="51.856960000" lon="7.618137000">
        <ele>71.5</ele>
        <time>2017-04-29T06:15:29</time>
        <extensions><speed>1.52</speed></extensions>
      </trkpt>
      <trkpt lat="51.856960000" lon="7.618114000">
        <ele>71.4</ele>
        <time>2017-04-29T06:15:30</time>
        <extensions><speed>1.50</speed></extensions>
      </trkpt>
      <trkpt lat="51.856956000" lon="7.618095000">
        <ele>71.4</ele>
        <time>2017-04-29T06:15:31</time>
        <extensions><speed>1.50</speed></extensions>
      </trkpt>
      <trkpt lat="51.856956000" lon="7.618075000">
        <ele>71.3</ele>
        <time>2017-04-29T06:15:32</time>
        <extensions><speed>1.49</speed></extensions>
      </trkpt>
      <trkpt lat="51.856953000" lon="7.618053000">
        <ele>71.2</ele>
        <time>2017-04-29T06:15:33</time>
        <extensions><speed>1.44</speed></extensions>
      </trkpt>
      <trkpt lat="51.856953000" lon="7.618033000">
        <ele>71.2</ele>
        <time>2017-04-29T06:15:34</time>
        <extensions><speed>1.40</speed></extensions>
      </trkpt>
      <trkpt lat="51.856953000" lon="7.618013000">
        <ele>71.1</ele>
        <time>2017-04-29T06:15:35</time>
        <extensions><speed>1.40</speed></extensions>
      </trkpt>
      <trkpt lat="51.856953000" lon="7.617992000">
        <ele>71.0</ele>
        <time>2017-04-29T06:15:36</time>
        <extensions><speed>1.42</speed></extensions>
      </trkpt>
      <trkpt lat="51.856949000" lon="7.617973000">
        <ele>71.0</ele>
        <time>2017-04-29T06:15:37</time>
        <extensions><speed>1.42</speed></extensions>
      </trkpt>
      <trkpt lat="51.856945000" lon="7.617951000">
        <ele>70.9</ele>
        <time>2017-04-29T06:15:38</time>
        <extensions><speed>1.46</speed></extensions>
      </trkpt>
      <trkpt lat="51.856945000" lon="7.617930000">
        <ele>70.8</ele>
        <time>2017-04-29T06:15:39</time>
        <extensions><speed>1.47</speed></extensions>
      </trkpt>
      <trkpt lat="51.856945000" lon="7.617908000">
        <ele>70.8</ele>
        <time>2017-04-29T06:15:40</time>
        <extensions><speed>1.44</speed></extensions>
      </trkpt>
      <trkpt lat="51.856945000" lon="7.617888000">
        <ele>70.7</ele>
        <time>2017-04-29T06:15:41</time>
        <extensions><speed>1.43</speed></extensions>
      </trkpt>
      <trkpt lat="51.856941000" lon="7.617866000">
        <ele>70.6</ele>
        <time>2017-04-29T06:15:42</time>
        <extensions><speed>1.45</speed></extensions>
      </trkpt>
      <trkpt lat="51.856934000" lon="7.617841000">
        <ele>70.5</ele>
        <time>2017-04-29T06:15:43</time>
        <extensions><speed>1.46</speed></extensions>
      </trkpt>
      <trkpt lat="51.856930000" lon="7.617822000">
        <ele>70.5</ele>
        <time>2017-04-29T06:15:44</time>
        <extensions><speed>1.46</speed></extensions>
      </trkpt>
      <trkpt lat="51.856930000" lon="7.617801000">
        <ele>70.4</ele>
        <time>2017-04-29T06:15:45</time>
        <extensions><speed>1.46</speed></extensions>
      </trkpt>
      <trkpt lat="51.856934000" lon="7.617782000">
        <ele>70.4</ele>
        <time>2017-04-29T06:15:46</time>
        <extensions><speed>1.49</speed></extensions>
      </trkpt>
      <trkpt lat="51.856934000" lon="7.617762000">
        <ele>70.3</ele>
        <time>2017-04-29T06:15:47</time>
        <extensions><speed>1.46</speed></extensions>
      </trkpt>
      <trkpt lat="51.856934000" lon="7.617740000">
        <ele>70.2</ele>
        <time>2017-04-29T06:15:48</time>
        <extensions><speed>1.45</speed></extensions>
      </trkpt>
      <trkpt lat="51.856934000" lon="7.617720000">
        <ele>70.2</ele>
        <time>2017-04-29T06:15:49</time>
        <extensions><speed>1.44</speed></extensions>
      </trkpt>
      <trkpt lat="51.856934000" lon="7.617700000">
        <ele>70.1</ele>
        <time>2017-04-29T06:15:50</time>
        <extensions><speed>1.44</speed></extensions>
      </trkpt>
      <trkpt lat="51.856926000" lon="7.617678000">
        <ele>70.0</ele>
        <time>2017-04-29T06:15:51</time>
        <extensions><speed>1.44</speed></extensions>
      </trkpt>
      <trkpt lat="51.856926000" lon="7.617657000">
        <ele>69.9</ele>
        <time>2017-04-29T06:15:52</time>
        <extensions><speed>1.42</speed></extensions>
      </trkpt>
      <trkpt lat="51.856922000" lon="7.617635000">
        <ele>69.8</ele>
        <time>2017-04-29T06:15:53</time>
        <extensions><speed>1.39</speed></extensions>
      </trkpt>
      <trkpt lat="51.856922000" lon="7.617613000">
        <ele>69.7</ele>
        <time>2017-04-29T06:15:54</time>
        <extensions><speed>1.41</speed></extensions>
      </trkpt>
      <trkpt lat="51.856922000" lon="7.617591000">
        <ele>69.6</ele>
        <time>2017-04-29T06:15:55</time>
        <extensions><speed>1.39</speed></extensions>
      </trkpt>
      <trkpt lat="51.856922000" lon="7.617570000">
        <ele>69.5</ele>
        <time>2017-04-29T06:15:56</time>
        <extensions><speed>1.41</speed></extensions>
      </trkpt>
      <trkpt lat="51.856926000" lon="7.617547000">
        <ele>69.5</ele>
        <time>2017-04-29T06:15:57</time>
        <extensions><speed>1.48</speed></extensions>
      </trkpt>
      <trkpt lat="51.856926000" lon="7.617528000">
        <ele>69.4</ele>
        <time>2017-04-29T06:15:58</time>
        <extensions><speed>1.47</speed></extensions>
      </trkpt>
      <trkpt lat="51.856926000" lon="7.617508000">
        <ele>69.3</ele>
        <time>2017-04-29T06:15:59</time>
        <extensions><speed>1.46</speed></extensions>
      </trkpt>
      <trkpt lat="51.856926000" lon="7.617488000">
        <ele>69.2</ele>
        <time>2017-04-29T06:16:00</time>
        <extensions><speed>1.51</speed></extensions>
      </trkpt>
      <trkpt lat="51.856922000" lon="7.617466000">
        <ele>69.1</ele>
        <time>2017-04-29T06:16:01</time>
        <extensions><speed>1.51</speed></extensions>
      </trkpt>
      <trkpt lat="51.856922000" lon="7.617445000">
        <ele>69.0</ele>
        <time>2017-04-29T06:16:02</time>
        <extensions><speed>1.45</speed></extensions>
      </trkpt>
      <trkpt lat="51.856918000" lon="7.617425000">
        <ele>69.0</ele>
        <time>2017-04-29T06:16:03</time>
        <extensions><speed>1.51</speed></extensions>
      </trkpt>
      <trkpt lat="51.856915000" lon="7.617404000">
        <ele>68.9</ele>
        <time>2017-04-29T06:16:04</time>
        <extensions><speed>1.52</speed></extensions>
      </trkpt>
      <trkpt lat="51.856915000" lon="7.617381000">
        <ele>68.8</ele>
        <time>2017-04-29T06:16:05</time>
        <extensions><speed>1.46</speed></extensions>
      </trkpt>
      <trkpt lat="51.856915000" lon="7.617360000">
        <ele>68.7</ele>
        <time>2017-04-29T06:16:06</time>
        <extensions><speed>1.46</speed></extensions>
      </trkpt>
      <trkpt lat="51.856911000" lon="7.617342000">
        <ele>68.7</ele>
        <time>2017-04-29T06:16:07</time>
        <extensions><speed>1.51</speed></extensions>
      </trkpt>
      <trkpt lat="51.856911000" lon="7.617325000">
        <ele>68.6</ele>
        <time>2017-04-29T06:16:08</time>
        <extensions><speed>1.47</speed></extensions>
      </trkpt>
      <trkpt lat="51.856911000" lon="7.617303000">
        <ele>68.5</ele>
        <time>2017-04-29T06:16:09</time>
        <extensions><speed>1.49</speed></extensions>
      </trkpt>
      <trkpt lat="51.856907000" lon="7.617280000">
        <ele>68.4</ele>
        <time>2017-04-29T06:16:10</time>
        <extensions><speed>1.54</speed></extensions>
      </trkpt>
      <trkpt lat="51.856907000" lon="7.617259000">
        <ele>68.4</ele>
        <time>2017-04-29T06:16:11</time>
        <extensions><speed>1.50</speed></extensions>
      </trkpt>
      <trkpt lat="51.856903000" lon="7.617239000">
        <ele>68.3</ele>
        <time>2017-04-29T06:16:12</time>
        <extensions><speed>1.47</speed></extensions>
      </trkpt>
      <trkpt lat="51.856903000" lon="7.617218000">
        <ele>68.2</ele>
        <time>2017-04-29T06:16:13</time>
        <extensions><speed>1.53</speed></extensions>
      </trkpt>
      <trkpt lat="51.856903000" lon="7.617193000">
        <ele>68.1</ele>
        <time>2017-04-29T06:16:14</time>
        <extensions><speed>1.54</speed></extensions>
      </trkpt>
      <trkpt lat="51.856899000" lon="7.617171000">
        <ele>68.1</ele>
        <time>2017-04-29T06:16:15</time>
        <extensions><speed>1.52</speed></extensions>
      </trkpt>
      <trkpt lat="51.856895000" lon="7.617150000">
        <ele>68.0</ele>
        <time>2017-04-29T06:16:16</time>
        <extensions><speed>1.56</speed></extensions>
      </trkpt>
      <trkpt lat="51.856895000" lon="7.617130000">
        <ele>67.9</ele>
        <time>2017-04-29T06:16:17</time>
        <extensions><speed>1.56</speed></extensions>
      </trkpt>
      <trkpt lat="51.856895000" lon="7.617112000">
        <ele>67.8</ele>
        <time>2017-04-29T06:16:18</time>
        <extensions><speed>1.47</speed></extensions>
      </trkpt>
      <trkpt lat="51.856895000" lon="7.617094000">
        <ele>67.8</ele>
        <time>2017-04-29T06:16:19</time>
        <extensions><speed>1.43</speed></extensions>
      </trkpt>
      <trkpt lat="51.856892000" lon="7.617070000">
        <ele>67.7</ele>
        <time>2017-04-29T06:16:20</time>
        <extensions><speed>1.43</speed></extensions>
      </trkpt>
      <trkpt lat="51.856888000" lon="7.617048000">
        <ele>67.6</ele>
        <time>2017-04-29T06:16:21</time>
        <extensions><speed>1.42</speed></extensions>
      </trkpt>
      <trkpt lat="51.856888000" lon="7.617029000">
        <ele>67.5</ele>
        <time>2017-04-29T06:16:22</time>
        <extensions><speed>1.42</speed></extensions>
      </trkpt>
      <trkpt lat="51.856888000" lon="7.617008000">
        <ele>67.4</ele>
        <time>2017-04-29T06:16:23</time>
        <extensions><speed>1.50</speed></extensions>
      </trkpt>
      <trkpt lat="51.856888000" lon="7.616987000">
        <ele>67.4</ele>
        <time>2017-04-29T06:16:24</time>
        <extensions><speed>1.53</speed></extensions>
      </trkpt>
      <trkpt lat="51.856884000" lon="7.616966000">
        <ele>67.3</ele>
        <time>2017-04-29T06:16:25</time>
        <extensions><speed>1.48</speed></extensions>
      </trkpt>
      <trkpt lat="51.856880000" lon="7.616945000">
        <ele>67.2</ele>
        <time>2017-04-29T06:16:26</time>
        <extensions><speed>1.50</speed></extensions>
      </trkpt>
      <trkpt lat="51.856876000" lon="7.616925000">
        <ele>67.1</ele>
        <time>2017-04-29T06:16:27</time>
        <extensions><speed>1.50</speed></extensions>
      </trkpt>
      <trkpt lat="51.856876000" lon="7.616905000">
        <ele>67.0</ele>
        <time>2017-04-29T06:16:28</time>
        <extensions><speed>1.48</speed></extensions>
      </trkpt>
      <trkpt lat="51.856880000" lon="7.616884000">
        <ele>67.0</ele>
        <time>2017-04-29T06:16:29</time>
        <extensions><speed>1.51</speed></extensions>
      </trkpt>
      <trkpt lat="51.856880000" lon="7.616859000">
        <ele>66.9</ele>
        <time>2017-04-29T06:16:30</time>
        <extensions><speed>1.53</speed></extensions>
      </trkpt>
      <trkpt lat="51.856876000" lon="7.616838000">
        <ele>66.8</ele>
        <time>2017-04-29T06:16:31</time>
        <extensions><speed>1.49</speed></extensions>
      </trkpt>
      <trkpt lat="51.856876000" lon="7.616818000">
        <ele>66.7</ele>
        <time>2017-04-29T06:16:32</time>
        <extensions><speed>1.49</speed></extensions>
      </trkpt>
      <trkpt lat="51.856876000" lon="7.616798000">
        <ele>66.6</ele>
        <time>2017-04-29T06:16:33</time>
        <extensions><speed>1.46</speed></extensions>
      </trkpt>
      <trkpt lat="51.856876000" lon="7.616777000">
        <ele>66.6</ele>
        <time>2017-04-29T06:16:34</time>
        <extensions><speed>1.45</speed></extensions>
      </trkpt>
      <trkpt lat="51.856880000" lon="7.616756000">
        <ele>66.5</ele>
        <time>2017-04-29T06:16:35</time>
        <extensions><speed>1.44</speed></extensions>
      </trkpt>
      <trkpt lat="51.856880000" lon="7.616737000">
        <ele>66.4</ele>
        <time>2017-04-29T06:16:36</time>
        <extensions><speed>1.43</speed></extensions>
      </trkpt>
      <trkpt lat="51.856880000" lon="7.616717000">
        <ele>66.3</ele>
        <time>2017-04-29T06:16:37</time>
        <extensions><speed>1.44</speed></extensions>
      </trkpt>
      <trkpt lat="51.856880000" lon="7.616696000">
        <ele>66.2</ele>
        <time>2017-04-29T06:16:38</time>
        <extensions><speed>1.43</speed></extensions>
      </trkpt>
      <trkpt lat="51.856876000" lon="7.616677000">
        <ele>66.1</ele>
        <time>2017-04-29T06:16:39</time>
        <extensions><speed>1.42</speed></extensions>
      </trkpt>
      <trkpt lat="51.856873000" lon="7.616658000">
        <ele>66.0</ele>
        <time>2017-04-29T06:16:40</time>
        <extensions><speed>1.42</speed></extensions>
      </trkpt>
      <trkpt lat="51.856876000" lon="7.616639000">
        <ele>65.9</ele>
        <time>2017-04-29T06:16:41</time>
        <extensions><speed>1.42</speed></extensions>
      </trkpt>
      <trkpt lat="51.856876000" lon="7.616616000">
        <ele>65.8</ele>
        <time>2017-04-29T06:16:42</time>
        <extensions><speed>1.40</speed></extensions>
      </trkpt>
      <trkpt lat="51.856880000" lon="7.616595000">
        <ele>65.8</ele>
        <time>2017-04-29T06:16:43</time>
        <extensions><speed>1.41</speed></extensions>
      </trkpt>
      <trkpt lat="51.856880000" lon="7.616574000">
        <ele>65.7</ele>
        <time>2017-04-29T06:16:44</time>
        <extensions><speed>1.43</speed></extensions>
      </trkpt>
      <trkpt lat="51.856880000" lon="7.616549000">
        <ele>65.6</ele>
        <time>2017-04-29T06:16:45</time>
        <extensions><speed>1.42</speed></extensions>
      </trkpt>
      <trkpt lat="51.856880000" lon="7.616529000">
        <ele>65.5</ele>
        <time>2017-04-29T06:16:46</time>
        <extensions><speed>1.47</speed></extensions>
      </trkpt>
      <trkpt lat="51.856880000" lon="7.616507000">
        <ele>65.5</ele>
        <time>2017-04-29T06:16:47</time>
        <extensions><speed>1.49</speed></extensions>
      </trkpt>
      <trkpt lat="51.856876000" lon="7.616485000">
        <ele>65.4</ele>
        <time>2017-04-29T06:16:48</time>
        <extensions><speed>1.49</speed></extensions>
      </trkpt>
      <trkpt lat="51.856876000" lon="7.616462000">
        <ele>65.3</ele>
        <time>2017-04-29T06:16:49</time>
        <extensions><speed>1.48</speed></extensions>
      </trkpt>
      <trkpt lat="51.856876000" lon="7.616440000">
        <ele>65.2</ele>
        <time>2017-04-29T06:16:50</time>
        <extensions><speed>1.52</speed></extensions>
      </trkpt>
      <trkpt lat="51.856876000" lon="7.616418000">
        <ele>65.1</ele>
        <time>2017-04-29T06:16:51</time>
        <extensions><speed>1.49</speed></extensions>
      </trkpt>
      <trkpt lat="51.856876000" lon="7.616399000">
        <ele>65.0</ele>
        <time>2017-04-29T06:16:52</time>
        <extensions><speed>1.49</speed></extensions>
      </trkpt>
      <trkpt lat="51.856873000" lon="7.616376000">
        <ele>64.9</ele>
        <time>2017-04-29T06:16:53</time>
        <extensions><speed>1.49</speed></extensions>
      </trkpt>
      <trkpt lat="51.856869000" lon="7.616354000">
        <ele>64.8</ele>
        <time>2017-04-29T06:16:54</time>
        <extensions><speed>1.50</speed></extensions>
      </trkpt>
      <trkpt lat="51.856869000" lon="7.616333000">
        <ele>64.7</ele>
        <time>2017-04-29T06:16:55</time>
        <extensions><speed>1.47</speed></extensions>
      </trkpt>
      <trkpt lat="51.856865000" lon="7.616312000">
        <ele>64.6</ele>
        <time>2017-04-29T06:16:56</time>
        <extensions><speed>1.46</speed></extensions>
      </trkpt>
      <trkpt lat="51.856865000" lon="7.616293000">
        <ele>64.5</ele>
        <time>2017-04-29T06:16:57</time>
        <extensions><speed>1.46</speed></extensions>
      </trkpt>
      <trkpt lat="51.856861000" lon="7.616273000">
        <ele>64.4</ele>
        <time>2017-04-29T06:16:58</time>
        <extensions><speed>1.45</speed></extensions>
      </trkpt>
      <trkpt lat="51.856861000" lon="7.616250000">
        <ele>64.3</ele>
        <time>2017-04-29T06:16:59</time>
        <extensions><speed>1.44</speed></extensions>
      </trkpt>
      <trkpt lat="51.856865000" lon="7.616229000">
        <ele>64.2</ele>
        <time>2017-04-29T06:17:00</time>
        <extensions><speed>1.44</speed></extensions>
      </trkpt>
      <trkpt lat="51.856865000" lon="7.616207000">
        <ele>64.1</ele>
        <time>2017-04-29T06:17:01</time>
        <extensions><speed>1.46</speed></extensions>
      </trkpt>
      <trkpt lat="51.856865000" lon="7.616185000">
        <ele>64.1</ele>
        <time>2017-04-29T06:17:02</time>
        <extensions><speed>1.46</speed></extensions>
      </trkpt>
      <trkpt lat="51.856869000" lon="7.616163000">
        <ele>64.0</ele>
        <time>2017-04-29T06:17:03</time>
        <extensions><speed>1.46</speed></extensions>
      </trkpt>
      <trkpt lat="51.856876000" lon="7.616142000">
        <ele>63.9</ele>
        <time>2017-04-29T06:17:04</time>
        <extensions><speed>1.48</speed></extensions>
      </trkpt>
      <trkpt lat="51.856880000" lon="7.616122000">
        <ele>63.8</ele>
        <time>2017-04-29T06:17:05</time>
        <extensions><speed>1.49</speed></extensions>
      </trkpt>
      <trkpt lat="51.856880000" lon="7.616103000">
        <ele>63.8</ele>
        <time>2017-04-29T06:17:06</time>
        <extensions><speed>1.48</speed></extensions>
      </trkpt>
      <trkpt lat="51.856880000" lon="7.616085000">
        <ele>63.7</ele>
        <time>2017-04-29T06:17:07</time>
        <extensions><speed>1.48</speed></extensions>
      </trkpt>
      <trkpt lat="51.856880000" lon="7.616065000">
        <ele>63.6</ele>
        <time>2017-04-29T06:17:08</time>
        <extensions><speed>1.48</speed></extensions>
      </trkpt>
      <trkpt lat="51.856880000" lon="7.616045000">
        <ele>63.6</ele>
        <time>2017-04-29T06:17:09</time>
        <extensions><speed>1.45</speed></extensions>
      </trkpt>
      <trkpt lat="51.856876000" lon="7.616022000">
        <ele>63.5</ele>
        <time>2017-04-29T06:17:10</time>
        <extensions><speed>1.46</speed></extensions>
      </trkpt>
      <trkpt lat="51.856869000" lon="7.615998000">
        <ele>63.4</ele>
        <time>2017-04-29T06:17:11</time>
        <extensions><speed>1.51</speed></extensions>
      </trkpt>
      <trkpt lat="51.856861000" lon="7.615979000">
        <ele>63.4</ele>
        <time>2017-04-29T06:17:12</time>
        <extensions><speed>1.56</speed></extensions>
      </trkpt>
      <trkpt lat="51.856857000" lon="7.615956000">
        <ele>63.3</ele>
        <time>2017-04-29T06:17:13</time>
        <extensions><speed>1.56</speed></extensions>
      </trkpt>
      <trkpt lat="51.856857000" lon="7.615932000">
        <ele>63.3</ele>
        <time>2017-04-29T06:17:14</time>
        <extensions><speed>1.61</speed></extensions>
      </trkpt>
      <trkpt lat="51.856850000" lon="7.615909000">
        <ele>63.2</ele>
        <time>2017-04-29T06:17:15</time>
        <extensions><speed>1.60</speed></extensions>
      </trkpt>
      <trkpt lat="51.856846000" lon="7.615890000">
        <ele>63.2</ele>
        <time>2017-04-29T06:17:16</time>
        <extensions><speed>1.53</speed></extensions>
      </trkpt>
      <trkpt lat="51.856838000" lon="7.615879000">
        <ele>63.1</ele>
        <time>2017-04-29T06:17:17</time>
        <extensions><speed>1.43</speed></extensions>
      </trkpt>
      <trkpt lat="51.856842000" lon="7.615869000">
        <ele>63.1</ele>
        <time>2017-04-29T06:17:18</time>
        <extensions><speed>1.31</speed></extensions>
      </trkpt>
      <trkpt lat="51.856846000" lon="7.615857000">
        <ele>63.0</ele>
        <time>2017-04-29T06:17:19</time>
        <extensions><speed>1.20</speed></extensions>
      </trkpt>
      <trkpt lat="51.856857000" lon="7.615844000">
        <ele>63.0</ele>
        <time>2017-04-29T06:17:20</time>
        <extensions><speed>1.20</speed></extensions>
      </trkpt>
      <trkpt lat="51.856857000" lon="7.615840000">
        <ele>62.9</ele>
        <time>2017-04-29T06:17:21</time>
      </trkpt>
      <trkpt lat="51.856853000" lon="7.615845000">
        <ele>62.8</ele>
        <time>2017-04-29T06:17:23</time>
      </trkpt>
      <trkpt lat="51.856979000" lon="7.615851000">
        <ele>62.6</ele>
        <time>2017-04-29T06:18:22</time>
      </trkpt>
      <trkpt lat="51.856991000" lon="7.615849000">
        <ele>62.6</ele>
        <time>2017-04-29T06:18:24</time>
        <extensions><speed>1.56</speed></extensions>
      </trkpt>
      <trkpt lat="51.857006000" lon="7.615851000">
        <ele>62.6</ele>
        <time>2017-04-29T06:18:25</time>
        <extensions><speed>1.56</speed></extensions>
      </trkpt>
      <trkpt lat="51.857025000" lon="7.615853000">
        <ele>62.6</ele>
        <time>2017-04-29T06:18:26</time>
        <extensions><speed>1.64</speed></extensions>
      </trkpt>
      <trkpt lat="51.857048000" lon="7.615855000">
        <ele>62.5</ele>
        <time>2017-04-29T06:18:27</time>
        <extensions><speed>1.74</speed></extensions>
      </trkpt>
      <trkpt lat="51.857063000" lon="7.615857000">
        <ele>62.5</ele>
        <time>2017-04-29T06:18:28</time>
        <extensions><speed>1.79</speed></extensions>
      </trkpt>
      <trkpt lat="51.857079000" lon="7.615858000">
        <ele>62.5</ele>
        <time>2017-04-29T06:18:29</time>
        <extensions><speed>1.79</speed></extensions>
      </trkpt>
      <trkpt lat="51.857090000" lon="7.615857000">
        <ele>62.5</ele>
        <time>2017-04-29T06:18:30</time>
        <extensions><speed>1.79</speed></extensions>
      </trkpt>
      <trkpt lat="51.857105000" lon="7.615855000">
        <ele>62.4</ele>
        <time>2017-04-29T06:18:31</time>
        <extensions><speed>1.70</speed></extensions>
      </trkpt>
      <trkpt lat="51.857121000" lon="7.615853000">
        <ele>62.4</ele>
        <time>2017-04-29T06:18:32</time>
        <extensions><speed>1.59</speed></extensions>
      </trkpt>
      <trkpt lat="51.857136000" lon="7.615853000">
        <ele>62.4</ele>
        <time>2017-04-29T06:18:33</time>
        <extensions><speed>1.58</speed></extensions>
      </trkpt>
      <trkpt lat="51.857151000" lon="7.615851000">
        <ele>62.3</ele>
        <time>2017-04-29T06:18:34</time>
        <extensions><speed>1.58</speed></extensions>
      </trkpt>
      <trkpt lat="51.857170000" lon="7.615853000">
        <ele>62.3</ele>
        <time>2017-04-29T06:18:35</time>
        <extensions><speed>1.57</speed></extensions>
      </trkpt>
      <trkpt lat="51.857182000" lon="7.615853000">
        <ele>62.3</ele>
        <time>2017-04-29T06:18:36</time>
        <extensions><speed>1.66</speed></extensions>
      </trkpt>
      <trkpt lat="51.857204000" lon="7.615855000">
        <ele>62.2</ele>
        <time>2017-04-29T06:18:37</time>
        <extensions><speed>1.77</speed></extensions>
      </trkpt>
      <trkpt lat="51.857216000" lon="7.615857000">
        <ele>62.2</ele>
        <time>2017-04-29T06:18:38</time>
        <extensions><speed>1.79</speed></extensions>
      </trkpt>
      <trkpt lat="51.857235000" lon="7.615858000">
        <ele>62.2</ele>
        <time>2017-04-29T06:18:39</time>
        <extensions><speed>1.76</speed></extensions>
      </trkpt>
      <trkpt lat="51.857246000" lon="7.615861000">
        <ele>62.1</ele>
        <time>2017-04-29T06:18:40</time>
        <extensions><speed>1.76</speed></extensions>
      </trkpt>
      <trkpt lat="51.857262000" lon="7.615865000">
        <ele>62.1</ele>
        <time>2017-04-29T06:18:41</time>
        <extensions><speed>1.73</speed></extensions>
      </trkpt>
      <trkpt lat="51.857281000" lon="7.615867000">
        <ele>62.1</ele>
        <time>2017-04-29T06:18:42</time>
        <extensions><speed>1.61</speed></extensions>
      </trkpt>
      <trkpt lat="51.857296000" lon="7.615867000">
        <ele>62.0</ele>
        <time>2017-04-29T06:18:43</time>
        <extensions><speed>1.65</speed></extensions>
      </trkpt>
      <trkpt lat="51.857311000" lon="7.615867000">
        <ele>62.0</ele>
        <time>2017-04-29T06:18:44</time>
        <extensions><speed>1.54</speed></extensions>
      </trkpt>
      <trkpt lat="51.857323000" lon="7.615867000">
        <ele>62.0</ele>
        <time>2017-04-29T06:18:45</time>
        <extensions><speed>1.60</speed></extensions>
      </trkpt>
      <trkpt lat="51.857334000" lon="7.615867000">
        <ele>62.0</ele>
        <time>2017-04-29T06:18:46</time>
        <extensions><speed>1.60</speed></extensions>
      </trkpt>
      <trkpt lat="51.857346000" lon="7.615867000">
        <ele>61.9</ele>
        <time>2017-04-29T06:18:47</time>
        <extensions><speed>1.72</speed></extensions>
      </trkpt>
      <trkpt lat="51.857365000" lon="7.615869000">
        <ele>61.9</ele>
        <time>2017-04-29T06:18:48</time>
        <extensions><speed>1.77</speed></extensions>
      </trkpt>
      <trkpt lat="51.857380000" lon="7.615869000">
        <ele>61.9</ele>
        <time>2017-04-29T06:18:49</time>
        <extensions><speed>1.87</speed></extensions>
      </trkpt>
      <trkpt lat="51.857399000" lon="7.615870000">
        <ele>61.8</ele>
        <time>2017-04-29T06:18:50</time>
        <extensions><speed>1.87</speed></extensions>
      </trkpt>
      <trkpt lat="51.857407000" lon="7.615870000">
        <ele>61.8</ele>
        <time>2017-04-29T06:18:52</time>
      </trkpt>
      <trkpt lat="51.857418000" lon="7.615870000">
        <ele>61.8</ele>
        <time>2017-04-29T06:18:54</time>
        <extensions><speed>1.09</speed></extensions>
      </trkpt>
      <trkpt lat="51.857433000" lon="7.615873000">
        <ele>61.7</ele>
        <time>2017-04-29T06:18:55</time>
        <extensions><speed>0.98</speed></extensions>
      </trkpt>
      <trkpt lat="51.857449000" lon="7.615877000">
        <ele>61.7</ele>
        <time>2017-04-29T06:18:56</time>
        <extensions><speed>1.50</speed></extensions>
      </trkpt>
      <trkpt lat="51.857464000" lon="7.615880000">
        <ele>61.7</ele>
        <time>2017-04-29T06:18:57</time>
        <extensions><speed>1.52</speed></extensions>
      </trkpt>
      <trkpt lat="51.857479000" lon="7.615884000">
        <ele>61.7</ele>
        <time>2017-04-29T06:18:58</time>
        <extensions><speed>1.56</speed></extensions>
      </trkpt>
      <trkpt lat="51.857491000" lon="7.615888000">
        <ele>61.6</ele>
        <time>2017-04-29T06:18:59</time>
        <extensions><speed>1.56</speed></extensions>
      </trkpt>
      <trkpt lat="51.857510000" lon="7.615893000">
        <ele>61.6</ele>
        <time>2017-04-29T06:19:00</time>
        <extensions><speed>1.61</speed></extensions>
      </trkpt>
      <trkpt lat="51.857521000" lon="7.615898000">
        <ele>61.6</ele>
        <time>2017-04-29T06:19:01</time>
        <extensions><speed>1.63</speed></extensions>
      </trkpt>
      <trkpt lat="51.857536000" lon="7.615901000">
        <ele>61.6</ele>
        <time>2017-04-29T06:19:02</time>
        <extensions><speed>1.63</speed></extensions>
      </trkpt>
      <trkpt lat="51.857548000" lon="7.615907000">
        <ele>61.6</ele>
        <time>2017-04-29T06:19:03</time>
        <extensions><speed>1.64</speed></extensions>
      </trkpt>
      <trkpt lat="51.857563000" lon="7.615914000">
        <ele>61.5</ele>
        <time>2017-04-29T06:19:04</time>
        <extensions><speed>1.65</speed></extensions>
      </trkpt>
      <trkpt lat="51.857574000" lon="7.615923000">
        <ele>61.5</ele>
        <time>2017-04-29T06:19:05</time>
        <extensions><speed>1.58</speed></extensions>
      </trkpt>
      <trkpt lat="51.857586000" lon="7.615932000">
        <ele>61.5</ele>
        <time>2017-04-29T06:19:06</time>
        <extensions><speed>1.56</speed></extensions>
      </trkpt>
      <trkpt lat="51.857601000" lon="7.615935000">
        <ele>61.5</ele>
        <time>2017-04-29T06:19:07</time>
        <extensions><speed>1.63</speed></extensions>
      </trkpt>
      <trkpt lat="51.857613000" lon="7.615933000">
        <ele>61.5</ele>
        <time>2017-04-29T06:19:08</time>
        <extensions><speed>1.58</speed></extensions>
      </trkpt>
      <trkpt lat="51.857628000" lon="7.615933000">
        <ele>61.5</ele>
        <time>2017-04-29T06:19:09</time>
        <extensions><speed>1.58</speed></extensions>
      </trkpt>
      <trkpt lat="51.857643000" lon="7.615932000">
        <ele>61.5</ele>
        <time>2017-04-29T06:19:10</time>
        <extensions><speed>1.61</speed></extensions>
      </trkpt>
      <trkpt lat="51.857662000" lon="7.615926000">
        <ele>61.5</ele>
        <time>2017-04-29T06:19:11</time>
        <extensions><speed>1.66</speed></extensions>
      </trkpt>
      <trkpt lat="51.857674000" lon="7.615925000">
        <ele>61.4</ele>
        <time>2017-04-29T06:19:12</time>
        <extensions><speed>1.68</speed></extensions>
      </trkpt>
      <trkpt lat="51.857689000" lon="7.615925000">
        <ele>61.4</ele>
        <time>2017-04-29T06:19:13</time>
        <extensions><speed>1.71</speed></extensions>
      </trkpt>
      <trkpt lat="51.857700000" lon="7.615921000">
        <ele>61.4</ele>
        <time>2017-04-29T06:19:14</time>
        <extensions><speed>1.67</speed></extensions>
      </trkpt>
      <trkpt lat="51.857712000" lon="7.615914000">
        <ele>61.4</ele>
        <time>2017-04-29T06:19:15</time>
        <extensions><speed>1.64</speed></extensions>
      </trkpt>
      <trkpt lat="51.857723000" lon="7.615905000">
        <ele>61.4</ele>
        <time>2017-04-29T06:19:16</time>
        <extensions><speed>1.61</speed></extensions>
      </trkpt>
      <trkpt lat="51.857735000" lon="7.615898000">
        <ele>61.4</ele>
        <time>2017-04-29T06:19:17</time>
        <extensions><speed>1.53</speed></extensions>
      </trkpt>
      <trkpt lat="51.857738000" lon="7.615897000">
        <ele>61.4</ele>
        <time>2017-04-29T06:19:18</time>
      </trkpt>
      <trkpt lat="51.857758000" lon="7.615893000">
        <ele>61.4</ele>
        <time>2017-04-29T06:19:20</time>
        <extensions><speed>1.54</speed></extensions>
      </trkpt>
      <trkpt lat="51.857769000" lon="7.615888000">
        <ele>61.3</ele>
        <time>2017-04-29T06:19:21</time>
        <extensions><speed>1.52</speed></extensions>
      </trkpt>
      <trkpt lat="51.857788000" lon="7.615885000">
        <ele>61.3</ele>
        <time>2017-04-29T06:19:22</time>
        <extensions><speed>1.69</speed></extensions>
      </trkpt>
      <trkpt lat="51.857803000" lon="7.615884000">
        <ele>61.3</ele>
        <time>2017-04-29T06:19:23</time>
        <extensions><speed>1.74</speed></extensions>
      </trkpt>
      <trkpt lat="51.857815000" lon="7.615880000">
        <ele>61.3</ele>
        <time>2017-04-29T06:19:24</time>
        <extensions><speed>1.71</speed></extensions>
      </trkpt>
      <trkpt lat="51.857830000" lon="7.615880000">
        <ele>61.3</ele>
        <time>2017-04-29T06:19:25</time>
        <extensions><speed>1.67</speed></extensions>
      </trkpt>
      <trkpt lat="51.857845000" lon="7.615884000">
        <ele>61.3</ele>
        <time>2017-04-29T06:19:26</time>
        <extensions><speed>1.75</speed></extensions>
      </trkpt>
      <trkpt lat="51.857864000" lon="7.615884000">
        <ele>61.3</ele>
        <time>2017-04-29T06:19:27</time>
        <extensions><speed>1.75</speed></extensions>
      </trkpt>
      <trkpt lat="51.857880000" lon="7.615884000">
        <ele>61.3</ele>
        <time>2017-04-29T06:19:28</time>
        <extensions><speed>1.77</speed></extensions>
      </trkpt>
      <trkpt lat="51.857899000" lon="7.615885000">
        <ele>61.3</ele>
        <time>2017-04-29T06:19:29</time>
        <extensions><speed>1.80</speed></extensions>
      </trkpt>
      <trkpt lat="51.857910000" lon="7.615886000">
        <ele>61.2</ele>
        <time>2017-04-29T06:19:30</time>
        <extensions><speed>1.80</speed></extensions>
      </trkpt>
      <trkpt lat="51.857925000" lon="7.615888000">
        <ele>61.2</ele>
        <time>2017-04-29T06:19:31</time>
        <extensions><speed>1.75</speed></extensions>
      </trkpt>
      <trkpt lat="51.857937000" lon="7.615890000">
        <ele>61.2</ele>
        <time>2017-04-29T06:19:32</time>
        <extensions><speed>1.70</speed></extensions>
      </trkpt>
      <trkpt lat="51.857956000" lon="7.615888000">
        <ele>61.2</ele>
        <time>2017-04-29T06:19:33</time>
        <extensions><speed>1.70</speed></extensions>
      </trkpt>
      <trkpt lat="51.857971000" lon="7.615888000">
        <ele>61.2</ele>
        <time>2017-04-29T06:19:34</time>
        <extensions><speed>1.68</speed></extensions>
      </trkpt>
      <trkpt lat="51.857986000" lon="7.615888000">
        <ele>61.2</ele>
        <time>2017-04-29T06:19:35</time>
        <extensions><speed>1.68</speed></extensions>
      </trkpt>
      <trkpt lat="51.858002000" lon="7.615891000">
        <ele>61.2</ele>
        <time>2017-04-29T06:19:36</time>
        <extensions><speed>1.66</speed></extensions>
      </trkpt>
      <trkpt lat="51.858013000" lon="7.615893000">
        <ele>61.2</ele>
        <time>2017-04-29T06:19:37</time>
        <extensions><speed>1.68</speed></extensions>
      </trkpt>
      <trkpt lat="51.858028000" lon="7.615897000">
        <ele>61.2</ele>
        <time>2017-04-29T06:19:38</time>
        <extensions><speed>1.62</speed></extensions>
      </trkpt>
      <trkpt lat="51.858040000" lon="7.615898000">
        <ele>61.2</ele>
        <time>2017-04-29T06:19:39</time>
        <extensions><speed>1.59</speed></extensions>
      </trkpt>
      <trkpt lat="51.858059000" lon="7.615898000">
        <ele>61.2</ele>
        <time>2017-04-29T06:19:40</time>
        <extensions><speed>1.62</speed></extensions>
      </trkpt>
      <trkpt lat="51.858074000" lon="7.615898000">
        <ele>61.1</ele>
        <time>2017-04-29T06:19:41</time>
        <extensions><speed>1.64</speed></extensions>
      </trkpt>
      <trkpt lat="51.858089000" lon="7.615900000">
        <ele>61.1</ele>
        <time>2017-04-29T06:19:42</time>
        <extensions><speed>1.62</speed></extensions>
      </trkpt>
      <trkpt lat="51.858093000" lon="7.615901000">
        <ele>61.1</ele>
        <time>2017-04-29T06:19:43</time>
      </trkpt>
      <trkpt lat="51.858105000" lon="7.615903000">
        <ele>61.1</ele>
        <time>2017-04-29T06:19:45</time>
        <extensions><speed>1.57</speed></extensions>
      </trkpt>
      <trkpt lat="51.858124000" lon="7.615905000">
        <ele>61.1</ele>
        <time>2017-04-29T06:19:46</time>
        <extensions><speed>1.53</speed></extensions>
      </trkpt>
      <trkpt lat="51.858139000" lon="7.615907000">
        <ele>61.1</ele>
        <time>2017-04-29T06:19:47</time>
        <extensions><speed>1.50</speed></extensions>
      </trkpt>
      <trkpt lat="51.858154000" lon="7.615909000">
        <ele>61.1</ele>
        <time>2017-04-29T06:19:48</time>
        <extensions><speed>1.54</speed></extensions>
      </trkpt>
      <trkpt lat="51.858166000" lon="7.615909000">
        <ele>61.1</ele>
        <time>2017-04-29T06:19:49</time>
        <extensions><speed>1.53</speed></extensions>
      </trkpt>
      <trkpt lat="51.858181000" lon="7.615912000">
        <ele>61.1</ele>
        <time>2017-04-29T06:19:50</time>
        <extensions><speed>1.54</speed></extensions>
      </trkpt>
      <trkpt lat="51.858196000" lon="7.615914000">
        <ele>61.1</ele>
        <time>2017-04-29T06:19:51</time>
        <extensions><speed>1.58</speed></extensions>
      </trkpt>
      <trkpt lat="51.858212000" lon="7.615915000">
        <ele>61.1</ele>
        <time>2017-04-29T06:19:52</time>
        <extensions><speed>1.58</speed></extensions>
      </trkpt>
      <trkpt lat="51.858227000" lon="7.615917000">
        <ele>61.1</ele>
        <time>2017-04-29T06:19:53</time>
        <extensions><speed>1.54</speed></extensions>
      </trkpt>
      <trkpt lat="51.858238000" lon="7.615920000">
        <ele>61.0</ele>
        <time>2017-04-29T06:19:54</time>
        <extensions><speed>1.53</speed></extensions>
      </trkpt>
      <trkpt lat="51.858253000" lon="7.615921000">
        <ele>61.0</ele>
        <time>2017-04-29T06:19:55</time>
        <extensions><speed>1.47</speed></extensions>
      </trkpt>
      <trkpt lat="51.858265000" lon="7.615923000">
        <ele>61.0</ele>
        <time>2017-04-29T06:19:56</time>
        <extensions><speed>1.47</speed></extensions>
      </trkpt>
      <trkpt lat="51.858280000" lon="7.615923000">
        <ele>61.0</ele>
        <time>2017-04-29T06:19:57</time>
        <extensions><speed>1.51</speed></extensions>
      </trkpt>
      <trkpt lat="51.858292000" lon="7.615926000">
        <ele>61.0</ele>
        <time>2017-04-29T06:19:58</time>
        <extensions><speed>1.52</speed></extensions>
      </trkpt>
      <trkpt lat="51.858303000" lon="7.615932000">
        <ele>61.0</ele>
        <time>2017-04-29T06:19:59</time>
        <extensions><speed>1.50</speed></extensions>
      </trkpt>
      <trkpt lat="51.858318000" lon="7.615935000">
        <ele>61.0</ele>
        <time>2017-04-29T06:20:00</time>
        <extensions><speed>1.54</speed></extensions>
      </trkpt>
      <trkpt lat="51.858334000" lon="7.615938000">
        <ele>61.0</ele>
        <time>2017-04-29T06:20:01</time>
        <extensions><speed>1.58</speed></extensions>
      </trkpt>
      <trkpt lat="51.858353000" lon="7.615940000">
        <ele>61.0</ele>
        <time>2017-04-29T06:20:02</time>
        <extensions><speed>1.66</speed></extensions>
      </trkpt>
      <trkpt lat="51.858368000" lon="7.615940000">
        <ele>61.0</ele>
        <time>2017-04-29T06:20:03</time>
        <extensions><speed>1.68</speed></extensions>
      </trkpt>
      <trkpt lat="51.858387000" lon="7.615942000">
        <ele>61.0</ele>
        <time>2017-04-29T06:20:04</time>
        <extensions><speed>1.69</speed></extensions>
      </trkpt>
      <trkpt lat="51.858398000" lon="7.615943000">
        <ele>61.0</ele>
        <time>2017-04-29T06:20:05</time>
        <extensions><speed>1.71</speed></extensions>
      </trkpt>
      <trkpt lat="51.858414000" lon="7.615943000">
        <ele>61.0</ele>
        <time>2017-04-29T06:20:06</time>
        <extensions><speed>1.63</speed></extensions>
      </trkpt>
      <trkpt lat="51.858429000" lon="7.615943000">
        <ele>61.0</ele>
        <time>2017-04-29T06:20:07</time>
        <extensions><speed>1.62</speed></extensions>
      </trkpt>
      <trkpt lat="51.858440000" lon="7.615949000">
        <ele>61.0</ele>
        <time>2017-04-29T06:20:08</time>
        <extensions><speed>1.59</speed></extensions>
      </trkpt>
      <trkpt lat="51.858452000" lon="7.615952000">
        <ele>61.0</ele>
        <time>2017-04-29T06:20:09</time>
        <extensions><speed>1.55</speed></extensions>
      </trkpt>
      <trkpt lat="51.858463000" lon="7.615953000">
        <ele>61.0</ele>
        <time>2017-04-29T06:20:10</time>
        <extensions><speed>1.43</speed></extensions>
      </trkpt>
      <trkpt lat="51.858479000" lon="7.615953000">
        <ele>61.0</ele>
        <time>2017-04-29T06:20:11</time>
        <extensions><speed>1.40</speed></extensions>
      </trkpt>
      <trkpt lat="51.858490000" lon="7.615956000">
        <ele>61.0</ele>
        <time>2017-04-29T06:20:12</time>
        <extensions><speed>1.40</speed></extensions>
      </trkpt>
      <trkpt lat="51.858505000" lon="7.615960000">
        <ele>61.0</ele>
        <time>2017-04-29T06:20:13</time>
        <extensions><speed>1.48</speed></extensions>
      </trkpt>
      <trkpt lat="51.858521000" lon="7.615962000">
        <ele>61.0</ele>
        <time>2017-04-29T06:20:14</time>
        <extensions><speed>1.51</speed></extensions>
      </trkpt>
      <trkpt lat="51.858532000" lon="7.615963000">
        <ele>61.0</ele>
        <time>2017-04-29T06:20:15</time>
        <extensions><speed>1.60</speed></extensions>
      </trkpt>
      <trkpt lat="51.858551000" lon="7.615962000">
        <ele>61.0</ele>
        <time>2017-04-29T06:20:16</time>
        <extensions><speed>1.60</speed></extensions>
      </trkpt>
      <trkpt lat="51.858566000" lon="7.615962000">
        <ele>61.0</ele>
        <time>2017-04-29T06:20:17</time>
        <extensions><speed>1.63</speed></extensions>
      </trkpt>
      <trkpt lat="51.858582000" lon="7.615963000">
        <ele>61.0</ele>
        <time>2017-04-29T06:20:18</time>
        <extensions><speed>1.57</speed></extensions>
      </trkpt>
      <trkpt lat="51.858593000" lon="7.615965000">
        <ele>61.0</ele>
        <time>2017-04-29T06:20:19</time>
        <extensions><speed>1.59</speed></extensions>
      </trkpt>
      <trkpt lat="51.858608000" lon="7.615965000">
        <ele>61.0</ele>
        <time>2017-04-29T06:20:20</time>
        <extensions><speed>1.59</speed></extensions>
      </trkpt>
      <trkpt lat="51.858620000" lon="7.615965000">
        <ele>61.0</ele>
        <time>2017-04-29T06:20:21</time>
        <extensions><speed>1.60</speed></extensions>
      </trkpt>
      <trkpt lat="51.858639000" lon="7.615965000">
        <ele>61.0</ele>
        <time>2017-04-29T06:20:22</time>
        <extensions><speed>1.60</speed></extensions>
      </trkpt>
      <trkpt lat="51.858650000" lon="7.615967000">
        <ele>61.0</ele>
        <time>2017-04-29T06:20:23</time>
        <extensions><speed>1.60</speed></extensions>
      </trkpt>
      <trkpt lat="51.858665000" lon="7.615967000">
        <ele>61.0</ele>
        <time>2017-04-29T06:20:24</time>
        <extensions><speed>1.61</speed></extensions>
      </trkpt>
      <trkpt lat="51.858681000" lon="7.615968000">
        <ele>61.0</ele>
        <time>2017-04-29T06:20:25</time>
        <extensions><speed>1.61</speed></extensions>
      </trkpt>
      <trkpt lat="51.858692000" lon="7.615968000">
        <ele>61.0</ele>
        <time>2017-04-29T06:20:26</time>
        <extensions><speed>1.60</speed></extensions>
      </trkpt>
      <trkpt lat="51.858707000" lon="7.615970000">
        <ele>61.0</ele>
        <time>2017-04-29T06:20:27</time>
        <extensions><speed>1.61</speed></extensions>
      </trkpt>
      <trkpt lat="51.858723000" lon="7.615973000">
        <ele>61.0</ele>
        <time>2017-04-29T06:20:28</time>
        <extensions><speed>1.69</speed></extensions>
      </trkpt>
      <trkpt lat="51.858738000" lon="7.615973000">
        <ele>61.0</ele>
        <time>2017-04-29T06:20:29</time>
        <extensions><speed>1.68</speed></extensions>
      </trkpt>
      <trkpt lat="51.858749000" lon="7.615973000">
        <ele>61.0</ele>
        <time>2017-04-29T06:20:30</time>
        <extensions><speed>1.66</speed></extensions>
      </trkpt>
      <trkpt lat="51.858765000" lon="7.615975000">
        <ele>61.0</ele>
        <time>2017-04-29T06:20:31</time>
        <extensions><speed>1.66</speed></extensions>
      </trkpt>
      <trkpt lat="51.858780000" lon="7.615979000">
        <ele>61.0</ele>
        <time>2017-04-29T06:20:32</time>
        <extensions><speed>1.61</speed></extensions>
      </trkpt>
      <trkpt lat="51.858791000" lon="7.615985000">
        <ele>61.0</ele>
        <time>2017-04-29T06:20:33</time>
        <extensions><speed>1.61</speed></extensions>
      </trkpt>
      <trkpt lat="51.858807000" lon="7.615987000">
        <ele>61.0</ele>
        <time>2017-04-29T06:20:34</time>
        <extensions><speed>1.57</speed></extensions>
      </trkpt>
      <trkpt lat="51.858822000" lon="7.615985000">
        <ele>61.0</ele>
        <time>2017-04-29T06:20:35</time>
        <extensions><speed>1.58</speed></extensions>
      </trkpt>
      <trkpt lat="51.858837000" lon="7.615985000">
        <ele>61.0</ele>
        <time>2017-04-29T06:20:36</time>
        <extensions><speed>1.59</speed></extensions>
      </trkpt>
      <trkpt lat="51.858845000" lon="7.615987000">
        <ele>61.0</ele>
        <time>2017-04-29T06:20:37</time>
        <extensions><speed>1.54</speed></extensions>
      </trkpt>
      <trkpt lat="51.858856000" lon="7.615990000">
        <ele>61.0</ele>
        <time>2017-04-29T06:20:38</time>
        <extensions><speed>1.45</speed></extensions>
      </trkpt>
      <trkpt lat="51.858871000" lon="7.615993000">
        <ele>61.0</ele>
        <time>2017-04-29T06:20:39</time>
        <extensions><speed>1.46</speed></extensions>
      </trkpt>
      <trkpt lat="51.858883000" lon="7.615996000">
        <ele>61.0</ele>
        <time>2017-04-29T06:20:40</time>
        <extensions><speed>1.46</speed></extensions>
      </trkpt>
      <trkpt lat="51.858902000" lon="7.616000000">
        <ele>61.0</ele>
        <time>2017-04-29T06:20:41</time>
        <extensions><speed>1.53</speed></extensions>
      </trkpt>
      <trkpt lat="51.858913000" lon="7.616004000">
        <ele>61.0</ele>
        <time>2017-04-29T06:20:42</time>
        <extensions><speed>1.62</speed></extensions>
      </trkpt>
      <trkpt lat="51.858925000" lon="7.616007000">
        <ele>61.0</ele>
        <time>2017-04-29T06:20:43</time>
        <extensions><speed>1.62</speed></extensions>
      </trkpt>
      <trkpt lat="51.858936000" lon="7.616008000">
        <ele>61.0</ele>
        <time>2017-04-29T06:20:44</time>
        <extensions><speed>1.61</speed></extensions>
      </trkpt>
      <trkpt lat="51.858948000" lon="7.616010000">
        <ele>61.0</ele>
        <time>2017-04-29T06:20:45</time>
        <extensions><speed>1.55</speed></extensions>
      </trkpt>
      <trkpt lat="51.858959000" lon="7.616014000">
        <ele>61.0</ele>
        <time>2017-04-29T06:20:46</time>
        <extensions><speed>1.49</speed></extensions>
      </trkpt>
      <trkpt lat="51.858974000" lon="7.616017000">
        <ele>61.0</ele>
        <time>2017-04-29T06:20:47</time>
        <extensions><speed>1.47</speed></extensions>
      </trkpt>
      <trkpt lat="51.858986000" lon="7.616019000">
        <ele>61.0</ele>
        <time>2017-04-29T06:20:48</time>
        <extensions><speed>1.48</speed></extensions>
      </trkpt>
      <trkpt lat="51.858997000" lon="7.616022000">
        <ele>61.0</ele>
        <time>2017-04-29T06:20:49</time>
        <extensions><speed>1.50</speed></extensions>
      </trkpt>
      <trkpt lat="51.859009000" lon="7.616024000">
        <ele>61.0</ele>
        <time>2017-04-29T06:20:50</time>
        <extensions><speed>1.46</speed></extensions>
      </trkpt>
      <trkpt lat="51.859024000" lon="7.616024000">
        <ele>61.1</ele>
        <time>2017-04-29T06:20:51</time>
        <extensions><speed>1.51</speed></extensions>
      </trkpt>
      <trkpt lat="51.859039000" lon="7.616026000">
        <ele>61.1</ele>
        <time>2017-04-29T06:20:52</time>
        <extensions><speed>1.55</speed></extensions>
      </trkpt>
      <trkpt lat="51.859051000" lon="7.616026000">
        <ele>61.1</ele>
        <time>2017-04-29T06:20:53</time>
        <extensions><speed>1.54</speed></extensions>
      </trkpt>
      <trkpt lat="51.859062000" lon="7.616030000">
        <ele>61.1</ele>
        <time>2017-04-29T06:20:54</time>
        <extensions><speed>1.50</speed></extensions>
      </trkpt>
      <trkpt lat="51.859074000" lon="7.616032000">
        <ele>61.1</ele>
        <time>2017-04-29T06:20:55</time>
        <extensions><speed>1.50</speed></extensions>
      </trkpt>
      <trkpt lat="51.859081000" lon="7.616032000">
        <ele>61.2</ele>
        <time>2017-04-29T06:20:56</time>
        <extensions><speed>1.41</speed></extensions>
      </trkpt>
      <trkpt lat="51.859097000" lon="7.616033000">
        <ele>61.2</ele>
        <time>2017-04-29T06:20:57</time>
        <extensions><speed>1.39</speed></extensions>
      </trkpt>
      <trkpt lat="51.859104000" lon="7.616035000">
        <ele>61.2</ele>
        <time>2017-04-29T06:20:58</time>
        <extensions><speed>1.37</speed></extensions>
      </trkpt>
      <trkpt lat="51.859119000" lon="7.616038000">
        <ele>61.2</ele>
        <time>2017-04-29T06:20:59</time>
        <extensions><speed>1.37</speed></extensions>
      </trkpt>
      <trkpt lat="51.859131000" lon="7.616044000">
        <ele>61.2</ele>
        <time>2017-04-29T06:21:00</time>
        <extensions><speed>1.39</speed></extensions>
      </trkpt>
      <trkpt lat="51.859138000" lon="7.616047000">
        <ele>61.3</ele>
        <time>2017-04-29T06:21:01</time>
        <extensions><speed>1.38</speed></extensions>
      </trkpt>
      <trkpt lat="51.859150000" lon="7.616050000">
        <ele>61.3</ele>
        <time>2017-04-29T06:21:02</time>
        <extensions><speed>1.38</speed></extensions>
      </trkpt>
      <trkpt lat="51.859165000" lon="7.616050000">
        <ele>61.3</ele>
        <time>2017-04-29T06:21:03</time>
        <extensions><speed>1.47</speed></extensions>
      </trkpt>
      <trkpt lat="51.859177000" lon="7.616054000">
        <ele>61.3</ele>
        <time>2017-04-29T06:21:04</time>
        <extensions><speed>1.50</speed></extensions>
      </trkpt>
      <trkpt lat="51.859188000" lon="7.616057000">
        <ele>61.3</ele>
        <time>2017-04-29T06:21:05</time>
        <extensions><speed>1.54</speed></extensions>
      </trkpt>
      <trkpt lat="51.859203000" lon="7.616060000">
        <ele>61.3</ele>
        <time>2017-04-29T06:21:06</time>
        <extensions><speed>1.54</speed></extensions>
      </trkpt>
      <trkpt lat="51.859211000" lon="7.616061000">
        <ele>61.4</ele>
        <time>2017-04-29T06:21:07</time>
        <extensions><speed>1.49</speed></extensions>
      </trkpt>
      <trkpt lat="51.859226000" lon="7.616061000">
        <ele>61.4</ele>
        <time>2017-04-29T06:21:08</time>
        <extensions><speed>1.49</speed></extensions>
      </trkpt>
      <trkpt lat="51.859238000" lon="7.616063000">
        <ele>61.4</ele>
        <time>2017-04-29T06:21:09</time>
        <extensions><speed>1.49</speed></extensions>
      </trkpt>
      <trkpt lat="51.859253000" lon="7.616066000">
        <ele>61.4</ele>
        <time>2017-04-29T06:21:10</time>
        <extensions><speed>1.49</speed></extensions>
      </trkpt>
      <trkpt lat="51.859268000" lon="7.616066000">
        <ele>61.4</ele>
        <time>2017-04-29T06:21:11</time>
        <extensions><speed>1.52</speed></extensions>
      </trkpt>
      <trkpt lat="51.859276000" lon="7.616068000">
        <ele>61.4</ele>
        <time>2017-04-29T06:21:12</time>
        <extensions><speed>1.52</speed></extensions>
      </trkpt>
      <trkpt lat="51.859291000" lon="7.616070000">
        <ele>61.5</ele>
        <time>2017-04-29T06:21:13</time>
        <extensions><speed>1.52</speed></extensions>
      </trkpt>
      <trkpt lat="51.859303000" lon="7.616070000">
        <ele>61.5</ele>
        <time>2017-04-29T06:21:14</time>
        <extensions><speed>1.50</speed></extensions>
      </trkpt>
      <trkpt lat="51.859314000" lon="7.616072000">
        <ele>61.5</ele>
        <time>2017-04-29T06:21:15</time>
        <extensions><speed>1.46</speed></extensions>
      </trkpt>
      <trkpt lat="51.859325000" lon="7.616075000">
        <ele>61.5</ele>
        <time>2017-04-29T06:21:16</time>
      </trkpt>
      <trkpt lat="51.859337000" lon="7.616078000">
        <ele>61.6</ele>
        <time>2017-04-29T06:21:18</time>
        <extensions><speed>1.47</speed></extensions>
      </trkpt>
      <trkpt lat="51.859352000" lon="7.616080000">
        <ele>61.6</ele>
        <time>2017-04-29T06:21:19</time>
        <extensions><speed>1.53</speed></extensions>
      </trkpt>
      <trkpt lat="51.859367000" lon="7.616080000">
        <ele>61.6</ele>
        <time>2017-04-29T06:21:20</time>
        <extensions><speed>1.56</speed></extensions>
      </trkpt>
      <trkpt lat="51.859379000" lon="7.616082000">
        <ele>61.6</ele>
        <time>2017-04-29T06:21:21</time>
        <extensions><speed>1.63</speed></extensions>
      </trkpt>
      <trkpt lat="51.859398000" lon="7.616082000">
        <ele>61.6</ele>
        <time>2017-04-29T06:21:22</time>
        <extensions><speed>1.66</speed></extensions>
      </trkpt>
      <trkpt lat="51.859409000" lon="7.616080000">
        <ele>61.6</ele>
        <time>2017-04-29T06:21:23</time>
        <extensions><speed>1.62</speed></extensions>
      </trkpt>
      <trkpt lat="51.859421000" lon="7.616082000">
        <ele>61.6</ele>
        <time>2017-04-29T06:21:24</time>
        <extensions><speed>1.62</speed></extensions>
      </trkpt>
      <trkpt lat="51.859432000" lon="7.616084000">
        <ele>61.7</ele>
        <time>2017-04-29T06:21:25</time>
        <extensions><speed>1.62</speed></extensions>
      </trkpt>
      <trkpt lat="51.859447000" lon="7.616089000">
        <ele>61.7</ele>
        <time>2017-04-29T06:21:26</time>
        <extensions><speed>1.58</speed></extensions>
      </trkpt>
      <trkpt lat="51.859463000" lon="7.616093000">
        <ele>61.7</ele>
        <time>2017-04-29T06:21:27</time>
        <extensions><speed>1.55</speed></extensions>
      </trkpt>
      <trkpt lat="51.859474000" lon="7.616096000">
        <ele>61.7</ele>
        <time>2017-04-29T06:21:28</time>
        <extensions><speed>1.46</speed></extensions>
      </trkpt>
      <trkpt lat="51.859486000" lon="7.616100000">
        <ele>61.7</ele>
        <time>2017-04-29T06:21:29</time>
        <extensions><speed>1.36</speed></extensions>
      </trkpt>
      <trkpt lat="51.859497000" lon="7.616101000">
        <ele>61.8</ele>
        <time>2017-04-29T06:21:30</time>
        <extensions><speed>1.30</speed></extensions>
      </trkpt>
      <trkpt lat="51.859509000" lon="7.616105000">
        <ele>61.8</ele>
        <time>2017-04-29T06:21:31</time>
        <extensions><speed>1.30</speed></extensions>
      </trkpt>
      <trkpt lat="51.859524000" lon="7.616108000">
        <ele>61.8</ele>
        <time>2017-04-29T06:21:32</time>
        <extensions><speed>1.35</speed></extensions>
      </trkpt>
      <trkpt lat="51.859535000" lon="7.616110000">
        <ele>61.8</ele>
        <time>2017-04-29T06:21:33</time>
        <extensions><speed>1.42</speed></extensions>
      </trkpt>
      <trkpt lat="51.859547000" lon="7.616110000">
        <ele>61.8</ele>
        <time>2017-04-29T06:21:34</time>
        <extensions><speed>1.44</speed></extensions>
      </trkpt>
      <trkpt lat="51.859558000" lon="7.616114000">
        <ele>61.9</ele>
        <time>2017-04-29T06:21:35</time>
        <extensions><speed>1.44</speed></extensions>
      </trkpt>
      <trkpt lat="51.859570000" lon="7.616117000">
        <ele>61.9</ele>
        <time>2017-04-29T06:21:36</time>
        <extensions><speed>1.44</speed></extensions>
      </trkpt>
      <trkpt lat="51.859585000" lon="7.616122000">
        <ele>61.9</ele>
        <time>2017-04-29T06:21:37</time>
        <extensions><speed>1.46</speed></extensions>
      </trkpt>
      <trkpt lat="51.859596000" lon="7.616126000">
        <ele>61.9</ele>
        <time>2017-04-29T06:21:38</time>
        <extensions><speed>1.48</speed></extensions>
      </trkpt>
      <trkpt lat="51.859615000" lon="7.616127000">
        <ele>61.9</ele>
        <time>2017-04-29T06:21:39</time>
        <extensions><speed>1.58</speed></extensions>
      </trkpt>
      <trkpt lat="51.859627000" lon="7.616130000">
        <ele>61.9</ele>
        <time>2017-04-29T06:21:40</time>
        <extensions><speed>1.66</speed></extensions>
      </trkpt>
      <trkpt lat="51.859642000" lon="7.616137000">
        <ele>62.0</ele>
        <time>2017-04-29T06:21:41</time>
        <extensions><speed>1.66</speed></extensions>
      </trkpt>
      <trkpt lat="51.859657000" lon="7.616145000">
        <ele>62.0</ele>
        <time>2017-04-29T06:21:42</time>
        <extensions><speed>1.66</speed></extensions>
      </trkpt>
      <trkpt lat="51.859665000" lon="7.616152000">
        <ele>62.0</ele>
        <time>2017-04-29T06:21:43</time>
        <extensions><speed>1.61</speed></extensions>
      </trkpt>
      <trkpt lat="51.859665000" lon="7.616154000">
        <ele>62.0</ele>
        <time>2017-04-29T06:21:45</time>
      </trkpt>
      <trkpt lat="51.859669000" lon="7.616158000">
        <ele>62.0</ele>
        <time>2017-04-29T06:21:47</time>
        <extensions><speed>0.28</speed></extensions>
      </trkpt>
      <trkpt lat="51.859669000" lon="7.616160000">
        <ele>62.0</ele>
        <time>2017-04-29T06:21:48</time>
      </trkpt>
      <trkpt lat="51.859673000" lon="7.616158000">
        <ele>62.0</ele>
        <time>2017-04-29T06:21:50</time>
      </trkpt>
      <trkpt lat="51.859756000" lon="7.616045000">
        <ele>62.0</ele>
        <time>2017-04-29T06:22:43</time>
      </trkpt>
      <trkpt lat="51.859756000" lon="7.616032000">
        <ele>62.1</ele>
        <time>2017-04-29T06:22:45</time>
        <extensions><speed>1.19</speed></extensions>
      </trkpt>
      <trkpt lat="51.859756000" lon="7.616020000">
        <ele>62.1</ele>
        <time>2017-04-29T06:22:46</time>
        <extensions><speed>1.17</speed></extensions>
      </trkpt>
      <trkpt lat="51.859749000" lon="7.616005000">
        <ele>62.1</ele>
        <time>2017-04-29T06:22:47</time>
        <extensions><speed>1.19</speed></extensions>
      </trkpt>
      <trkpt lat="51.859749000" lon="7.615987000">
        <ele>62.1</ele>
        <time>2017-04-29T06:22:48</time>
        <extensions><speed>1.22</speed></extensions>
      </trkpt>
      <trkpt lat="51.859749000" lon="7.615972000">
        <ele>62.1</ele>
        <time>2017-04-29T06:22:49</time>
        <extensions><speed>1.21</speed></extensions>
      </trkpt>
      <trkpt lat="51.859745000" lon="7.615954000">
        <ele>62.1</ele>
        <time>2017-04-29T06:22:50</time>
        <extensions><speed>1.23</speed></extensions>
      </trkpt>
      <trkpt lat="51.859737000" lon="7.615937000">
        <ele>62.1</ele>
        <time>2017-04-29T06:22:51</time>
        <extensions><speed>1.27</speed></extensions>
      </trkpt>
      <trkpt lat="51.859734000" lon="7.615917000">
        <ele>62.1</ele>
        <time>2017-04-29T06:22:52</time>
        <extensions><speed>1.27</speed></extensions>
      </trkpt>
      <trkpt lat="51.859726000" lon="7.615895000">
        <ele>62.1</ele>
        <time>2017-04-29T06:22:53</time>
        <extensions><speed>1.31</speed></extensions>
      </trkpt>
      <trkpt lat="51.859726000" lon="7.615877000">
        <ele>62.1</ele>
        <time>2017-04-29T06:22:54</time>
        <extensions><speed>1.31</speed></extensions>
      </trkpt>
      <trkpt lat="51.859726000" lon="7.615858000">
        <ele>62.1</ele>
        <time>2017-04-29T06:22:55</time>
        <extensions><speed>1.36</speed></extensions>
      </trkpt>
      <trkpt lat="51.859722000" lon="7.615842000">
        <ele>62.1</ele>
        <time>2017-04-29T06:22:56</time>
        <extensions><speed>1.39</speed></extensions>
      </trkpt>
      <trkpt lat="51.859718000" lon="7.615828000">
        <ele>62.1</ele>
        <time>2017-04-29T06:22:57</time>
        <extensions><speed>1.41</speed></extensions>
      </trkpt>
      <trkpt lat="51.859715000" lon="7.615816000">
        <ele>62.1</ele>
        <time>2017-04-29T06:22:58</time>
        <extensions><speed>1.33</speed></extensions>
      </trkpt>
      <trkpt lat="51.859711000" lon="7.615804000">
        <ele>62.1</ele>
        <time>2017-04-29T06:22:59</time>
        <extensions><speed>1.33</speed></extensions>
      </trkpt>
      <trkpt lat="51.859711000" lon="7.615781000">
        <ele>62.1</ele>
        <time>2017-04-29T06:23:00</time>
        <extensions><speed>1.35</speed></extensions>
      </trkpt>
      <trkpt lat="51.859707000" lon="7.615763000">
        <ele>62.1</ele>
        <time>2017-04-29T06:23:01</time>
        <extensions><speed>1.33</speed></extensions>
      </trkpt>
      <trkpt lat="51.859699000" lon="7.615748000">
        <ele>62.1</ele>
        <time>2017-04-29T06:23:02</time>
        <extensions><speed>1.26</speed></extensions>
      </trkpt>
      <trkpt lat="51.859695000" lon="7.615730000">
        <ele>62.1</ele>
        <time>2017-04-29T06:23:03</time>
        <extensions><speed>1.33</speed></extensions>
      </trkpt>
      <trkpt lat="51.859695000" lon="7.615709000">
        <ele>62.1</ele>
        <time>2017-04-29T06:23:04</time>
        <extensions><speed>1.37</speed></extensions>
      </trkpt>
      <trkpt lat="51.859695000" lon="7.615694000">
        <ele>62.1</ele>
        <time>2017-04-29T06:23:05</time>
        <extensions><speed>1.25</speed></extensions>
      </trkpt>
      <trkpt lat="51.859692000" lon="7.615674000">
        <ele>62.1</ele>
        <time>2017-04-29T06:23:06</time>
        <extensions><speed>1.22</speed></extensions>
      </trkpt>
      <trkpt lat="51.859692000" lon="7.615658000">
        <ele>62.1</ele>
        <time>2017-04-29T06:23:07</time>
        <extensions><speed>1.23</speed></extensions>
      </trkpt>
      <trkpt lat="51.859692000" lon="7.615643000">
        <ele>62.1</ele>
        <time>2017-04-29T06:23:08</time>
        <extensions><speed>1.23</speed></extensions>
      </trkpt>
      <trkpt lat="51.859688000" lon="7.615625000">
        <ele>62.1</ele>
        <time>2017-04-29T06:23:09</time>
        <extensions><speed>1.25</speed></extensions>
      </trkpt>
      <trkpt lat="51.859684000" lon="7.615608000">
        <ele>62.1</ele>
        <time>2017-04-29T06:23:10</time>
        <extensions><speed>1.25</speed></extensions>
      </trkpt>
      <trkpt lat="51.859680000" lon="7.615592000">
        <ele>62.1</ele>
        <time>2017-04-29T06:23:11</time>
        <extensions><speed>1.35</speed></extensions>
      </trkpt>
      <trkpt lat="51.859673000" lon="7.615573000">
        <ele>62.1</ele>
        <time>2017-04-29T06:23:12</time>
        <extensions><speed>1.41</speed></extensions>
      </trkpt>
      <trkpt lat="51.859669000" lon="7.615551000">
        <ele>62.1</ele>
        <time>2017-04-29T06:23:13</time>
        <extensions><speed>1.36</speed></extensions>
      </trkpt>
      <trkpt lat="51.859665000" lon="7.615534000">
        <ele>62.1</ele>
        <time>2017-04-29T06:23:14</time>
        <extensions><speed>1.33</speed></extensions>
      </trkpt>
      <trkpt lat="51.859665000" lon="7.615515000">
        <ele>62.1</ele>
        <time>2017-04-29T06:23:15</time>
        <extensions><speed>1.42</speed></extensions>
      </trkpt>
      <trkpt lat="51.859661000" lon="7.615499000">
        <ele>62.1</ele>
        <time>2017-04-29T06:23:16</time>
        <extensions><speed>1.33</speed></extensions>
      </trkpt>
      <trkpt lat="51.859661000" lon="7.615483000">
        <ele>62.2</ele>
        <time>2017-04-29T06:23:17</time>
        <extensions><speed>1.33</speed></extensions>
      </trkpt>
      <trkpt lat="51.859657000" lon="7.615469000">
        <ele>62.2</ele>
        <time>2017-04-29T06:23:18</time>
        <extensions><speed>1.19</speed></extensions>
      </trkpt>
      <trkpt lat="51.859650000" lon="7.615457000">
        <ele>62.2</ele>
        <time>2017-04-29T06:23:19</time>
        <extensions><speed>1.09</speed></extensions>
      </trkpt>
      <trkpt lat="51.859646000" lon="7.615443000">
        <ele>62.2</ele>
        <time>2017-04-29T06:23:20</time>
        <extensions><speed>1.09</speed></extensions>
      </trkpt>
      <trkpt lat="51.859638000" lon="7.615427000">
        <ele>62.2</ele>
        <time>2017-04-29T06:23:21</time>
        <extensions><speed>1.14</speed></extensions>
      </trkpt>
      <trkpt lat="51.859631000" lon="7.615407000">
        <ele>62.2</ele>
        <time>2017-04-29T06:23:22</time>
        <extensions><speed>1.34</speed></extensions>
      </trkpt>
      <trkpt lat="51.859627000" lon="7.615387000">
        <ele>62.3</ele>
        <time>2017-04-29T06:23:23</time>
        <extensions><speed>1.42</speed></extensions>
      </trkpt>
      <trkpt lat="51.859627000" lon="7.615365000">
        <ele>62.3</ele>
        <time>2017-04-29T06:23:24</time>
        <extensions><speed>1.47</speed></extensions>
      </trkpt>
      <trkpt lat="51.859623000" lon="7.615342000">
        <ele>62.3</ele>
        <time>2017-04-29T06:23:25</time>
        <extensions><speed>1.39</speed></extensions>
      </trkpt>
      <trkpt lat="51.859619000" lon="7.615322000">
        <ele>62.3</ele>
        <time>2017-04-29T06:23:26</time>
        <extensions><speed>1.39</speed></extensions>
      </trkpt>
      <trkpt lat="51.859615000" lon="7.615300000">
        <ele>62.3</ele>
        <time>2017-04-29T06:23:27</time>
        <extensions><speed>1.36</speed></extensions>
      </trkpt>
      <trkpt lat="51.859612000" lon="7.615278000">
        <ele>62.3</ele>
        <time>2017-04-29T06:23:28</time>
        <extensions><speed>1.40</speed></extensions>
      </trkpt>
      <trkpt lat="51.859608000" lon="7.615258000">
        <ele>62.4</ele>
        <time>2017-04-29T06:23:29</time>
        <extensions><speed>1.40</speed></extensions>
      </trkpt>
      <trkpt lat="51.859604000" lon="7.615238000">
        <ele>62.4</ele>
        <time>2017-04-29T06:23:30</time>
        <extensions><speed>1.40</speed></extensions>
      </trkpt>
      <trkpt lat="51.859604000" lon="7.615219000">
        <ele>62.4</ele>
        <time>2017-04-29T06:23:31</time>
        <extensions><speed>1.36</speed></extensions>
      </trkpt>
      <trkpt lat="51.859600000" lon="7.615201000">
        <ele>62.4</ele>
        <time>2017-04-29T06:23:32</time>
        <extensions><speed>1.33</speed></extensions>
      </trkpt>
      <trkpt lat="51.859596000" lon="7.615184000">
        <ele>62.5</ele>
        <time>2017-04-29T06:23:33</time>
        <extensions><speed>1.26</speed></extensions>
      </trkpt>
      <trkpt lat="51.859596000" lon="7.615165000">
        <ele>62.5</ele>
        <time>2017-04-29T06:23:34</time>
        <extensions><speed>1.25</speed></extensions>
      </trkpt>
      <trkpt lat="51.859589000" lon="7.615149000">
        <ele>62.5</ele>
        <time>2017-04-29T06:23:35</time>
        <extensions><speed>1.25</speed></extensions>
      </trkpt>
      <trkpt lat="51.859585000" lon="7.615130000">
        <ele>62.5</ele>
        <time>2017-04-29T06:23:36</time>
        <extensions><speed>1.25</speed></extensions>
      </trkpt>
      <trkpt lat="51.859581000" lon="7.615114000">
        <ele>62.6</ele>
        <time>2017-04-29T06:23:37</time>
        <extensions><speed>1.25</speed></extensions>
      </trkpt>
      <trkpt lat="51.859577000" lon="7.615093000">
        <ele>62.6</ele>
        <time>2017-04-29T06:23:38</time>
        <extensions><speed>1.27</speed></extensions>
      </trkpt>
      <trkpt lat="51.859573000" lon="7.615074000">
        <ele>62.6</ele>
        <time>2017-04-29T06:23:39</time>
        <extensions><speed>1.27</speed></extensions>
      </trkpt>
      <trkpt lat="51.859566000" lon="7.615053000">
        <ele>62.6</ele>
        <time>2017-04-29T06:23:40</time>
        <extensions><speed>1.29</speed></extensions>
      </trkpt>
      <trkpt lat="51.859562000" lon="7.615034000">
        <ele>62.6</ele>
        <time>2017-04-29T06:23:41</time>
        <extensions><speed>1.29</speed></extensions>
      </trkpt>
      <trkpt lat="51.859562000" lon="7.615013000">
        <ele>62.7</ele>
        <time>2017-04-29T06:23:42</time>
        <extensions><speed>1.32</speed></extensions>
      </trkpt>
      <trkpt lat="51.859550000" lon="7.614993000">
        <ele>62.7</ele>
        <time>2017-04-29T06:23:43</time>
        <extensions><speed>1.31</speed></extensions>
      </trkpt>
      <trkpt lat="51.859550000" lon="7.614977000">
        <ele>62.7</ele>
        <time>2017-04-29T06:23:44</time>
        <extensions><speed>1.32</speed></extensions>
      </trkpt>
      <trkpt lat="51.859547000" lon="7.614956000">
        <ele>62.7</ele>
        <time>2017-04-29T06:23:45</time>
        <extensions><speed>1.36</speed></extensions>
      </trkpt>
      <trkpt lat="51.859543000" lon="7.614939000">
        <ele>62.7</ele>
        <time>2017-04-29T06:23:46</time>
        <extensions><speed>1.38</speed></extensions>
      </trkpt>
      <trkpt lat="51.859535000" lon="7.614920000">
        <ele>62.7</ele>
        <time>2017-04-29T06:23:47</time>
        <extensions><speed>1.38</speed></extensions>
      </trkpt>
      <trkpt lat="51.859531000" lon="7.614900000">
        <ele>62.8</ele>
        <time>2017-04-29T06:23:48</time>
        <extensions><speed>1.39</speed></extensions>
      </trkpt>
      <trkpt lat="51.859528000" lon="7.614880000">
        <ele>62.8</ele>
        <time>2017-04-29T06:23:49</time>
        <extensions><speed>1.39</speed></extensions>
      </trkpt>
      <trkpt lat="51.859520000" lon="7.614863000">
        <ele>62.8</ele>
        <time>2017-04-29T06:23:50</time>
        <extensions><speed>1.33</speed></extensions>
      </trkpt>
      <trkpt lat="51.859516000" lon="7.614846000">
        <ele>62.8</ele>
        <time>2017-04-29T06:23:51</time>
        <extensions><speed>1.33</speed></extensions>
      </trkpt>
      <trkpt lat="51.859509000" lon="7.614829000">
        <ele>62.8</ele>
        <time>2017-04-29T06:23:52</time>
        <extensions><speed>1.33</speed></extensions>
      </trkpt>
      <trkpt lat="51.859501000" lon="7.614808000">
        <ele>62.8</ele>
        <time>2017-04-29T06:23:53</time>
        <extensions><speed>1.32</speed></extensions>
      </trkpt>
      <trkpt lat="51.859497000" lon="7.614789000">
        <ele>62.8</ele>
        <time>2017-04-29T06:23:54</time>
        <extensions><speed>1.40</speed></extensions>
      </trkpt>
      <trkpt lat="51.859493000" lon="7.614767000">
        <ele>62.8</ele>
        <time>2017-04-29T06:23:55</time>
        <extensions><speed>1.42</speed></extensions>
      </trkpt>
      <trkpt lat="51.859486000" lon="7.614748000">
        <ele>62.8</ele>
        <time>2017-04-29T06:23:56</time>
        <extensions><speed>1.42</speed></extensions>
      </trkpt>
      <trkpt lat="51.859482000" lon="7.614734000">
        <ele>62.8</ele>
        <time>2017-04-29T06:23:57</time>
        <extensions><speed>1.38</speed></extensions>
      </trkpt>
      <trkpt lat="51.859474000" lon="7.614722000">
        <ele>62.8</ele>
        <time>2017-04-29T06:23:58</time>
        <extensions><speed>1.31</speed></extensions>
      </trkpt>
      <trkpt lat="51.859467000" lon="7.614705000">
        <ele>62.8</ele>
        <time>2017-04-29T06:23:59</time>
        <extensions><speed>1.29</speed></extensions>
      </trkpt>
      <trkpt lat="51.859463000" lon="7.614685000">
        <ele>62.7</ele>
        <time>2017-04-29T06:24:00</time>
        <extensions><speed>1.29</speed></extensions>
      </trkpt>
      <trkpt lat="51.859459000" lon="7.614666000">
        <ele>62.7</ele>
        <time>2017-04-29T06:24:01</time>
        <extensions><speed>1.29</speed></extensions>
      </trkpt>
      <trkpt lat="51.859455000" lon="7.614646000">
        <ele>62.7</ele>
        <time>2017-04-29T06:24:02</time>
        <extensions><speed>1.35</speed></extensions>
      </trkpt>
      <trkpt lat="51.859447000" lon="7.614625000">
        <ele>62.7</ele>
        <time>2017-04-29T06:24:03</time>
        <extensions><speed>1.42</speed></extensions>
      </trkpt>
      <trkpt lat="51.859440000" lon="7.614606000">
        <ele>62.7</ele>
        <time>2017-04-29T06:24:04</time>
        <extensions><speed>1.42</speed></extensions>
      </trkpt>
      <trkpt lat="51.859432000" lon="7.614589000">
        <ele>62.6</ele>
        <time>2017-04-29T06:24:05</time>
        <extensions><speed>1.42</speed></extensions>
      </trkpt>
      <trkpt lat="51.859425000" lon="7.614568000">
        <ele>62.6</ele>
        <time>2017-04-29T06:24:06</time>
        <extensions><speed>1.47</speed></extensions>
      </trkpt>
      <trkpt lat="51.859417000" lon="7.614550000">
        <ele>62.6</ele>
        <time>2017-04-29T06:24:07</time>
        <extensions><speed>1.39</speed></extensions>
      </trkpt>
      <trkpt lat="51.859413000" lon="7.614532000">
        <ele>62.6</ele>
        <time>2017-04-29T06:24:08</time>
        <extensions><speed>1.38</speed></extensions>
      </trkpt>
      <trkpt lat="51.859409000" lon="7.614512000">
        <ele>62.6</ele>
        <time>2017-04-29T06:24:09</time>
        <extensions><speed>1.41</speed></extensions>
      </trkpt>
      <trkpt lat="51.859406000" lon="7.614491000">
        <ele>62.6</ele>
        <time>2017-04-29T06:24:10</time>
        <extensions><speed>1.44</speed></extensions>
      </trkpt>
      <trkpt lat="51.859402000" lon="7.614473000">
        <ele>62.5</ele>
        <time>2017-04-29T06:24:11</time>
        <extensions><speed>1.38</speed></extensions>
      </trkpt>
      <trkpt lat="51.859398000" lon="7.614454000">
        <ele>62.5</ele>
        <time>2017-04-29T06:24:12</time>
        <extensions><speed>1.41</speed></extensions>
      </trkpt>
      <trkpt lat="51.859390000" lon="7.614433000">
        <ele>62.5</ele>
        <time>2017-04-29T06:24:13</time>
        <extensions><speed>1.37</speed></extensions>
      </trkpt>
      <trkpt lat="51.859383000" lon="7.614414000">
        <ele>62.5</ele>
        <time>2017-04-29T06:24:14</time>
        <extensions><speed>1.39</speed></extensions>
      </trkpt>
      <trkpt lat="51.859371000" lon="7.614395000">
        <ele>62.5</ele>
        <time>2017-04-29T06:24:15</time>
        <extensions><speed>1.39</speed></extensions>
      </trkpt>
      <trkpt lat="51.859367000" lon="7.614378000">
        <ele>62.5</ele>
        <time>2017-04-29T06:24:16</time>
        <extensions><speed>1.36</speed></extensions>
      </trkpt>
      <trkpt lat="51.859360000" lon="7.614360000">
        <ele>62.4</ele>
        <time>2017-04-29T06:24:17</time>
        <extensions><speed>1.38</speed></extensions>
      </trkpt>
      <trkpt lat="51.859356000" lon="7.614338000">
        <ele>62.4</ele>
        <time>2017-04-29T06:24:18</time>
        <extensions><speed>1.45</speed></extensions>
      </trkpt>
      <trkpt lat="51.859348000" lon="7.614317000">
        <ele>62.4</ele>
        <time>2017-04-29T06:24:19</time>
        <extensions><speed>1.42</speed></extensions>
      </trkpt>
      <trkpt lat="51.859341000" lon="7.614296000">
        <ele>62.4</ele>
        <time>2017-04-29T06:24:20</time>
        <extensions><speed>1.41</speed></extensions>
      </trkpt>
      <trkpt lat="51.859337000" lon="7.614282000">
        <ele>62.4</ele>
        <time>2017-04-29T06:24:21</time>
        <extensions><speed>1.41</speed></extensions>
      </trkpt>
      <trkpt lat="51.859333000" lon="7.614265000">
        <ele>62.3</ele>
        <time>2017-04-29T06:24:22</time>
        <extensions><speed>1.35</speed></extensions>
      </trkpt>
      <trkpt lat="51.859329000" lon="7.614245000">
        <ele>62.3</ele>
        <time>2017-04-29T06:24:23</time>
        <extensions><speed>1.33</speed></extensions>
      </trkpt>
      <trkpt lat="51.859325000" lon="7.614228000">
        <ele>62.3</ele>
        <time>2017-04-29T06:24:24</time>
        <extensions><speed>1.35</speed></extensions>
      </trkpt>
      <trkpt lat="51.859318000" lon="7.614210000">
        <ele>62.3</ele>
        <time>2017-04-29T06:24:25</time>
        <extensions><speed>1.35</speed></extensions>
      </trkpt>
      <trkpt lat="51.859310000" lon="7.614190000">
        <ele>62.3</ele>
        <time>2017-04-29T06:24:26</time>
        <extensions><speed>1.40</speed></extensions>
      </trkpt>
      <trkpt lat="51.859303000" lon="7.614170000">
        <ele>62.3</ele>
        <time>2017-04-29T06:24:27</time>
        <extensions><speed>1.46</speed></extensions>
      </trkpt>
      <trkpt lat="51.859299000" lon="7.614151000">
        <ele>62.2</ele>
        <time>2017-04-29T06:24:28</time>
        <extensions><speed>1.46</speed></extensions>
      </trkpt>
      <trkpt lat="51.859287000" lon="7.614137000">
        <ele>62.2</ele>
        <time>2017-04-29T06:24:29</time>
        <extensions><speed>1.46</speed></extensions>
      </trkpt>
      <trkpt lat="51.859280000" lon="7.614121000">
        <ele>62.2</ele>
        <time>2017-04-29T06:24:30</time>
        <extensions><speed>1.43</speed></extensions>
      </trkpt>
      <trkpt lat="51.859272000" lon="7.614105000">
        <ele>62.2</ele>
        <time>2017-04-29T06:24:31</time>
        <extensions><speed>1.41</speed></extensions>
      </trkpt>
      <trkpt lat="51.859268000" lon="7.614087000">
        <ele>62.2</ele>
        <time>2017-04-29T06:24:32</time>
        <extensions><speed>1.41</speed></extensions>
      </trkpt>
      <trkpt lat="51.859264000" lon="7.614067000">
        <ele>62.2</ele>
        <time>2017-04-29T06:24:33</time>
        <extensions><speed>1.43</speed></extensions>
      </trkpt>
      <trkpt lat="51.859257000" lon="7.614047000">
        <ele>62.1</ele>
        <time>2017-04-29T06:24:34</time>
        <extensions><speed>1.43</speed></extensions>
      </trkpt>
      <trkpt lat="51.859253000" lon="7.614028000">
        <ele>62.1</ele>
        <time>2017-04-29T06:24:35</time>
        <extensions><speed>1.48</speed></extensions>
      </trkpt>
      <trkpt lat="51.859245000" lon="7.614010000">
        <ele>62.1</ele>
        <time>2017-04-29T06:24:36</time>
        <extensions><speed>1.47</speed></extensions>
      </trkpt>
      <trkpt lat="51.859241000" lon="7.613992000">
        <ele>62.1</ele>
        <time>2017-04-29T06:24:37</time>
        <extensions><speed>1.40</speed></extensions>
      </trkpt>
      <trkpt lat="51.859238000" lon="7.613971000">
        <ele>62.1</ele>
        <time>2017-04-29T06:24:38</time>
        <extensions><speed>1.34</speed></extensions>
      </trkpt>
      <trkpt lat="51.859238000" lon="7.613955000">
        <ele>62.0</ele>
        <time>2017-04-29T06:24:39</time>
        <extensions><speed>1.34</speed></extensions>
      </trkpt>
      <trkpt lat="51.859230000" lon="7.613938000">
        <ele>62.0</ele>
        <time>2017-04-29T06:24:40</time>
        <extensions><speed>1.33</speed></extensions>
      </trkpt>
      <trkpt lat="51.859226000" lon="7.613922000">
        <ele>62.0</ele>
        <time>2017-04-29T06:24:41</time>
        <extensions><speed>1.30</speed></extensions>
      </trkpt>
      <trkpt lat="51.859219000" lon="7.613904000">
        <ele>62.0</ele>
        <time>2017-04-29T06:24:42</time>
        <extensions><speed>1.30</speed></extensions>
      </trkpt>
      <trkpt lat="51.859211000" lon="7.613887000">
        <ele>62.0</ele>
        <time>2017-04-29T06:24:43</time>
        <extensions><speed>1.31</speed></extensions>
      </trkpt>
      <trkpt lat="51.859203000" lon="7.613870000">
        <ele>62.0</ele>
        <time>2017-04-29T06:24:44</time>
        <extensions><speed>1.32</speed></extensions>
      </trkpt>
      <trkpt lat="51.859203000" lon="7.613853000">
        <ele>62.0</ele>
        <time>2017-04-29T06:24:45</time>
        <extensions><speed>1.33</speed></extensions>
      </trkpt>
      <trkpt lat="51.859192000" lon="7.613835000">
        <ele>61.9</ele>
        <time>2017-04-29T06:24:46</time>
        <extensions><speed>1.35</speed></extensions>
      </trkpt>
      <trkpt lat="51.859184000" lon="7.613819000">
        <ele>61.9</ele>
        <time>2017-04-29T06:24:47</time>
        <extensions><speed>1.37</speed></extensions>
      </trkpt>
      <trkpt lat="51.859177000" lon="7.613800000">
        <ele>61.9</ele>
        <time>2017-04-29T06:24:48</time>
        <extensions><speed>1.37</speed></extensions>
      </trkpt>
      <trkpt lat="51.859173000" lon="7.613780000">
        <ele>61.9</ele>
        <time>2017-04-29T06:24:49</time>
        <extensions><speed>1.41</speed></extensions>
      </trkpt>
      <trkpt lat="51.859169000" lon="7.613763000">
        <ele>61.9</ele>
        <time>2017-04-29T06:24:50</time>
        <extensions><speed>1.42</speed></extensions>
      </trkpt>
      <trkpt lat="51.859161000" lon="7.613743000">
        <ele>61.9</ele>
        <time>2017-04-29T06:24:51</time>
        <extensions><speed>1.42</speed></extensions>
      </trkpt>
      <trkpt lat="51.859154000" lon="7.613725000">
        <ele>61.8</ele>
        <time>2017-04-29T06:24:52</time>
        <extensions><speed>1.44</speed></extensions>
      </trkpt>
      <trkpt lat="51.859146000" lon="7.613708000">
        <ele>61.8</ele>
        <time>2017-04-29T06:24:53</time>
        <extensions><speed>1.40</speed></extensions>
      </trkpt>
      <trkpt lat="51.859138000" lon="7.613693000">
        <ele>61.8</ele>
        <time>2017-04-29T06:24:54</time>
        <extensions><speed>1.38</speed></extensions>
      </trkpt>
      <trkpt lat="51.859138000" lon="7.613673000">
        <ele>61.8</ele>
        <time>2017-04-29T06:24:55</time>
        <extensions><speed>1.38</speed></extensions>
      </trkpt>
      <trkpt lat="51.859135000" lon="7.613654000">
        <ele>61.8</ele>
        <time>2017-04-29T06:24:56</time>
        <extensions><speed>1.37</speed></extensions>
      </trkpt>
      <trkpt lat="51.859131000" lon="7.613635000">
        <ele>61.8</ele>
        <time>2017-04-29T06:24:57</time>
        <extensions><speed>1.36</speed></extensions>
      </trkpt>
      <trkpt lat="51.859127000" lon="7.613617000">
        <ele>61.7</ele>
        <time>2017-04-29T06:24:58</time>
        <extensions><speed>1.38</speed></extensions>
      </trkpt>
      <trkpt lat="51.859123000" lon="7.613596000">
        <ele>61.7</ele>
        <time>2017-04-29T06:24:59</time>
        <extensions><speed>1.42</speed></extensions>
      </trkpt>
      <trkpt lat="51.859119000" lon="7.613577000">
        <ele>61.7</ele>
        <time>2017-04-29T06:25:00</time>
        <extensions><speed>1.37</speed></extensions>
      </trkpt>
      <trkpt lat="51.859112000" lon="7.613560000">
        <ele>61.7</ele>
        <time>2017-04-29T06:25:01</time>
        <extensions><speed>1.40</speed></extensions>
      </trkpt>
      <trkpt lat="51.859108000" lon="7.613542000">
        <ele>61.7</ele>
        <time>2017-04-29T06:25:02</time>
        <extensions><speed>1.38</speed></extensions>
      </trkpt>
      <trkpt lat="51.859104000" lon="7.613526000">
        <ele>61.7</ele>
        <time>2017-04-29T06:25:03</time>
        <extensions><speed>1.33</speed></extensions>
      </trkpt>
      <trkpt lat="51.859104000" lon="7.613512000">
        <ele>61.6</ele>
        <time>2017-04-29T06:25:04</time>
        <extensions><speed>1.27</speed></extensions>
      </trkpt>
      <trkpt lat="51.859100000" lon="7.613493000">
        <ele>61.6</ele>
        <time>2017-04-29T06:25:05</time>
        <extensions><speed>1.32</speed></extensions>
      </trkpt>
      <trkpt lat="51.859093000" lon="7.613475000">
        <ele>61.6</ele>
        <time>2017-04-29T06:25:06</time>
        <extensions><speed>1.33</speed></extensions>
      </trkpt>
      <trkpt lat="51.859089000" lon="7.613456000">
        <ele>61.6</ele>
        <time>2017-04-29T06:25:07</time>
        <extensions><speed>1.34</speed></extensions>
      </trkpt>
      <trkpt lat="51.859085000" lon="7.613437000">
        <ele>61.6</ele>
        <time>2017-04-29T06:25:08</time>
        <extensions><speed>1.39</speed></extensions>
      </trkpt>
      <trkpt lat="51.859077000" lon="7.613418000">
        <ele>61.6</ele>
        <time>2017-04-29T06:25:09</time>
        <extensions><speed>1.39</speed></extensions>
      </trkpt>
      <trkpt lat="51.859074000" lon="7.613400000">
        <ele>61.6</ele>
        <time>2017-04-29T06:25:10</time>
        <extensions><speed>1.33</speed></extensions>
      </trkpt>
      <trkpt lat="51.859070000" lon="7.613383000">
        <ele>61.6</ele>
        <time>2017-04-29T06:25:11</time>
        <extensions><speed>1.32</speed></extensions>
      </trkpt>
      <trkpt lat="51.859062000" lon="7.613367000">
        <ele>61.6</ele>
        <time>2017-04-29T06:25:12</time>
        <extensions><speed>1.33</speed></extensions>
      </trkpt>
      <trkpt lat="51.859062000" lon="7.613348000">
        <ele>61.5</ele>
        <time>2017-04-29T06:25:13</time>
        <extensions><speed>1.32</speed></extensions>
      </trkpt>
      <trkpt lat="51.859058000" lon="7.613328000">
        <ele>61.5</ele>
        <time>2017-04-29T06:25:14</time>
        <extensions><speed>1.34</speed></extensions>
      </trkpt>
      <trkpt lat="51.859055000" lon="7.613310000">
        <ele>61.5</ele>
        <time>2017-04-29T06:25:15</time>
        <extensions><speed>1.36</speed></extensions>
      </trkpt>
      <trkpt lat="51.859055000" lon="7.613288000">
        <ele>61.5</ele>
        <time>2017-04-29T06:25:16</time>
        <extensions><speed>1.39</speed></extensions>
      </trkpt>
      <trkpt lat="51.859051000" lon="7.613269000">
        <ele>61.5</ele>
        <time>2017-04-29T06:25:17</time>
        <extensions><speed>1.36</speed></extensions>
      </trkpt>
      <trkpt lat="51.859043000" lon="7.613250000">
        <ele>61.5</ele>
        <time>2017-04-29T06:25:18</time>
        <extensions><speed>1.39</speed></extensions>
      </trkpt>
      <trkpt lat="51.859039000" lon="7.613230000">
        <ele>61.5</ele>
        <time>2017-04-29T06:25:19</time>
        <extensions><speed>1.42</speed></extensions>
      </trkpt>
      <trkpt lat="51.859039000" lon="7.613210000">
        <ele>61.5</ele>
        <time>2017-04-29T06:25:20</time>
        <extensions><speed>1.43</speed></extensions>
      </trkpt>
      <trkpt lat="51.859035000" lon="7.613188000">
        <ele>61.4</ele>
        <time>2017-04-29T06:25:21</time>
        <extensions><speed>1.43</speed></extensions>
      </trkpt>
      <trkpt lat="51.859032000" lon="7.613167000">
        <ele>61.4</ele>
        <time>2017-04-29T06:25:22</time>
        <extensions><speed>1.43</speed></extensions>
      </trkpt>
      <trkpt lat="51.859028000" lon="7.613147000">
        <ele>61.4</ele>
        <time>2017-04-29T06:25:23</time>
        <extensions><speed>1.42</speed></extensions>
      </trkpt>
      <trkpt lat="51.859020000" lon="7.613129000">
        <ele>61.4</ele>
        <time>2017-04-29T06:25:24</time>
        <extensions><speed>1.41</speed></extensions>
      </trkpt>
      <trkpt lat="51.859013000" lon="7.613108000">
        <ele>61.4</ele>
        <time>2017-04-29T06:25:25</time>
        <extensions><speed>1.46</speed></extensions>
      </trkpt>
      <trkpt lat="51.859009000" lon="7.613089000">
        <ele>61.4</ele>
        <time>2017-04-29T06:25:26</time>
        <extensions><speed>1.46</speed></extensions>
      </trkpt>
      <trkpt lat="51.859009000" lon="7.613065000">
        <ele>61.4</ele>
        <time>2017-04-29T06:25:27</time>
        <extensions><speed>1.49</speed></extensions>
      </trkpt>
      <trkpt lat="51.859005000" lon="7.613045000">
        <ele>61.4</ele>
        <time>2017-04-29T06:25:28</time>
        <extensions><speed>1.48</speed></extensions>
      </trkpt>
      <trkpt lat="51.859001000" lon="7.613025000">
        <ele>61.4</ele>
        <time>2017-04-29T06:25:29</time>
        <extensions><speed>1.48</speed></extensions>
      </trkpt>
      <trkpt lat="51.858997000" lon="7.613005000">
        <ele>61.3</ele>
        <time>2017-04-29T06:25:30</time>
        <extensions><speed>1.46</speed></extensions>
      </trkpt>
      <trkpt lat="51.858994000" lon="7.612987000">
        <ele>61.3</ele>
        <time>2017-04-29T06:25:31</time>
        <extensions><speed>1.44</speed></extensions>
      </trkpt>
      <trkpt lat="51.858986000" lon="7.612967000">
        <ele>61.3</ele>
        <time>2017-04-29T06:25:32</time>
        <extensions><speed>1.42</speed></extensions>
      </trkpt>
      <trkpt lat="51.858982000" lon="7.612947000">
        <ele>61.3</ele>
        <time>2017-04-29T06:25:33</time>
        <extensions><speed>1.40</speed></extensions>
      </trkpt>
      <trkpt lat="51.858982000" lon="7.612928000">
        <ele>61.3</ele>
        <time>2017-04-29T06:25:34</time>
        <extensions><speed>1.37</speed></extensions>
      </trkpt>
      <trkpt lat="51.858978000" lon="7.612910000">
        <ele>61.3</ele>
        <time>2017-04-29T06:25:35</time>
        <extensions><speed>1.37</speed></extensions>
      </trkpt>
      <trkpt lat="51.858978000" lon="7.612889000">
        <ele>61.3</ele>
        <time>2017-04-29T06:25:36</time>
        <extensions><speed>1.41</speed></extensions>
      </trkpt>
      <trkpt lat="51.858974000" lon="7.612872000">
        <ele>61.3</ele>
        <time>2017-04-29T06:25:37</time>
        <extensions><speed>1.37</speed></extensions>
      </trkpt>
      <trkpt lat="51.858974000" lon="7.612855000">
        <ele>61.2</ele>
        <time>2017-04-29T06:25:38</time>
        <extensions><speed>1.37</speed></extensions>
      </trkpt>
      <trkpt lat="51.858971000" lon="7.612837000">
        <ele>61.2</ele>
        <time>2017-04-29T06:25:39</time>
        <extensions><speed>1.37</speed></extensions>
      </trkpt>
      <trkpt lat="51.858971000" lon="7.612819000">
        <ele>61.2</ele>
        <time>2017-04-29T06:25:40</time>
        <extensions><speed>1.29</speed></extensions>
      </trkpt>
      <trkpt lat="51.858967000" lon="7.612800000">
        <ele>61.2</ele>
        <time>2017-04-29T06:25:41</time>
        <extensions><speed>1.29</speed></extensions>
      </trkpt>
      <trkpt lat="51.858963000" lon="7.612780000">
        <ele>61.2</ele>
        <time>2017-04-29T06:25:42</time>
        <extensions><speed>1.32</speed></extensions>
      </trkpt>
      <trkpt lat="51.858963000" lon="7.612760000">
        <ele>61.2</ele>
        <time>2017-04-29T06:25:43</time>
        <extensions><speed>1.34</speed></extensions>
      </trkpt>
      <trkpt lat="51.858959000" lon="7.612740000">
        <ele>61.2</ele>
        <time>2017-04-29T06:25:44</time>
        <extensions><speed>1.35</speed></extensions>
      </trkpt>
      <trkpt lat="51.858959000" lon="7.612721000">
        <ele>61.2</ele>
        <time>2017-04-29T06:25:45</time>
        <extensions><speed>1.36</speed></extensions>
      </trkpt>
      <trkpt lat="51.858955000" lon="7.612700000">
        <ele>61.2</ele>
        <time>2017-04-29T06:25:46</time>
        <extensions><speed>1.42</speed></extensions>
      </trkpt>
      <trkpt lat="51.858948000" lon="7.612680000">
        <ele>61.2</ele>
        <time>2017-04-29T06:25:47</time>
        <extensions><speed>1.39</speed></extensions>
      </trkpt>
      <trkpt lat="51.858944000" lon="7.612660000">
        <ele>61.2</ele>
        <time>2017-04-29T06:25:48</time>
        <extensions><speed>1.42</speed></extensions>
      </trkpt>
      <trkpt lat="51.858944000" lon="7.612638000">
        <ele>61.2</ele>
        <time>2017-04-29T06:25:49</time>
        <extensions><speed>1.44</speed></extensions>
      </trkpt>
      <trkpt lat="51.858944000" lon="7.612618000">
        <ele>61.2</ele>
        <time>2017-04-29T06:25:50</time>
        <extensions><speed>1.44</speed></extensions>
      </trkpt>
      <trkpt lat="51.858948000" lon="7.612597000">
        <ele>61.2</ele>
        <time>2017-04-29T06:25:51</time>
        <extensions><speed>1.44</speed></extensions>
      </trkpt>
      <trkpt lat="51.858944000" lon="7.612576000">
        <ele>61.1</ele>
        <time>2017-04-29T06:25:52</time>
        <extensions><speed>1.42</speed></extensions>
      </trkpt>
      <trkpt lat="51.858944000" lon="7.612555000">
        <ele>61.1</ele>
        <time>2017-04-29T06:25:53</time>
        <extensions><speed>1.40</speed></extensions>
      </trkpt>
      <trkpt lat="51.858944000" lon="7.612539000">
        <ele>61.1</ele>
        <time>2017-04-29T06:25:54</time>
        <extensions><speed>1.33</speed></extensions>
      </trkpt>
      <trkpt lat="51.858944000" lon="7.612520000">
        <ele>61.1</ele>
        <time>2017-04-29T06:25:55</time>
        <extensions><speed>1.33</speed></extensions>
      </trkpt>
      <trkpt lat="51.858944000" lon="7.612500000">
        <ele>61.1</ele>
        <time>2017-04-29T06:25:56</time>
        <extensions><speed>1.29</speed></extensions>
      </trkpt>
      <trkpt lat="51.858944000" lon="7.612480000">
        <ele>61.1</ele>
        <time>2017-04-29T06:25:57</time>
        <extensions><speed>1.36</speed></extensions>
      </trkpt>
      <trkpt lat="51.858940000" lon="7.612460000">
        <ele>61.1</ele>
        <time>2017-04-29T06:25:58</time>
        <extensions><speed>1.37</speed></extensions>
      </trkpt>
      <trkpt lat="51.858940000" lon="7.612438000">
        <ele>61.1</ele>
        <time>2017-04-29T06:25:59</time>
        <extensions><speed>1.39</speed></extensions>
      </trkpt>
      <trkpt lat="51.858936000" lon="7.612417000">
        <ele>61.1</ele>
        <time>2017-04-29T06:26:00</time>
        <extensions><speed>1.41</speed></extensions>
      </trkpt>
      <trkpt lat="51.858936000" lon="7.612397000">
        <ele>61.1</ele>
        <time>2017-04-29T06:26:01</time>
        <extensions><speed>1.41</speed></extensions>
      </trkpt>
      <trkpt lat="51.858932000" lon="7.612375000">
        <ele>61.1</ele>
        <time>2017-04-29T06:26:02</time>
        <extensions><speed>1.44</speed></extensions>
      </trkpt>
      <trkpt lat="51.858929000" lon="7.612350000">
        <ele>61.1</ele>
        <time>2017-04-29T06:26:03</time>
        <extensions><speed>1.44</speed></extensions>
      </trkpt>
      <trkpt lat="51.858929000" lon="7.612327000">
        <ele>61.1</ele>
        <time>2017-04-29T06:26:04</time>
        <extensions><speed>1.44</speed></extensions>
      </trkpt>
      <trkpt lat="51.858925000" lon="7.612307000">
        <ele>61.1</ele>
        <time>2017-04-29T06:26:05</time>
        <extensions><speed>1.39</speed></extensions>
      </trkpt>
      <trkpt lat="51.858925000" lon="7.612287000">
        <ele>61.1</ele>
        <time>2017-04-29T06:26:06</time>
        <extensions><speed>1.43</speed></extensions>
      </trkpt>
      <trkpt lat="51.858925000" lon="7.612265000">
        <ele>61.1</ele>
        <time>2017-04-29T06:26:07</time>
        <extensions><speed>1.40</speed></extensions>
      </trkpt>
      <trkpt lat="51.858921000" lon="7.612243000">
        <ele>61.1</ele>
        <time>2017-04-29T06:26:08</time>
        <extensions><speed>1.38</speed></extensions>
      </trkpt>
      <trkpt lat="51.858913000" lon="7.612224000">
        <ele>61.1</ele>
        <time>2017-04-29T06:26:09</time>
        <extensions><speed>1.40</speed></extensions>
      </trkpt>
      <trkpt lat="51.858910000" lon="7.612203000">
        <ele>61.1</ele>
        <time>2017-04-29T06:26:10</time>
        <extensions><speed>1.40</speed></extensions>
      </trkpt>
      <trkpt lat="51.858910000" lon="7.612185000">
        <ele>61.1</ele>
        <time>2017-04-29T06:26:11</time>
        <extensions><speed>1.39</speed></extensions>
      </trkpt>
      <trkpt lat="51.858910000" lon="7.612164000">
        <ele>61.1</ele>
        <time>2017-04-29T06:26:12</time>
        <extensions><speed>1.35</speed></extensions>
      </trkpt>
      <trkpt lat="51.858910000" lon="7.612144000">
        <ele>61.1</ele>
        <time>2017-04-29T06:26:13</time>
        <extensions><speed>1.37</speed></extensions>
      </trkpt>
      <trkpt lat="51.858910000" lon="7.612120000">
        <ele>61.0</ele>
        <time>2017-04-29T06:26:14</time>
        <extensions><speed>1.37</speed></extensions>
      </trkpt>
      <trkpt lat="51.858910000" lon="7.612098000">
        <ele>61.0</ele>
        <time>2017-04-29T06:26:15</time>
        <extensions><speed>1.41</speed></extensions>
      </trkpt>
      <trkpt lat="51.858913000" lon="7.612077000">
        <ele>61.0</ele>
        <time>2017-04-29T06:26:16</time>
        <extensions><speed>1.42</speed></extensions>
      </trkpt>
      <trkpt lat="51.858913000" lon="7.612054000">
        <ele>61.0</ele>
        <time>2017-04-29T06:26:17</time>
        <extensions><speed>1.45</speed></extensions>
      </trkpt>
      <trkpt lat="51.858917000" lon="7.612033000">
        <ele>61.0</ele>
        <time>2017-04-29T06:26:18</time>
        <extensions><speed>1.44</speed></extensions>
      </trkpt>
      <trkpt lat="51.858921000" lon="7.612014000">
        <ele>61.0</ele>
        <time>2017-04-29T06:26:19</time>
        <extensions><speed>1.43</speed></extensions>
      </trkpt>
      <trkpt lat="51.858921000" lon="7.611993000">
        <ele>61.0</ele>
        <time>2017-04-29T06:26:20</time>
        <extensions><speed>1.43</speed></extensions>
      </trkpt>
      <trkpt lat="51.858921000" lon="7.611973000">
        <ele>61.0</ele>
        <time>2017-04-29T06:26:21</time>
        <extensions><speed>1.43</speed></extensions>
      </trkpt>
      <trkpt lat="51.858921000" lon="7.611951000">
        <ele>61.0</ele>
        <time>2017-04-29T06:26:22</time>
        <extensions><speed>1.39</speed></extensions>
      </trkpt>
      <trkpt lat="51.858925000" lon="7.611933000">
        <ele>61.0</ele>
        <time>2017-04-29T06:26:23</time>
        <extensions><speed>1.37</speed></extensions>
      </trkpt>
      <trkpt lat="51.858921000" lon="7.611914000">
        <ele>61.0</ele>
        <time>2017-04-29T06:26:24</time>
        <extensions><speed>1.36</speed></extensions>
      </trkpt>
      <trkpt lat="51.858921000" lon="7.611892000">
        <ele>61.0</ele>
        <time>2017-04-29T06:26:25</time>
        <extensions><speed>1.33</speed></extensions>
      </trkpt>
      <trkpt lat="51.858921000" lon="7.611870000">
        <ele>61.0</ele>
        <time>2017-04-29T06:26:26</time>
        <extensions><speed>1.33</speed></extensions>
      </trkpt>
      <trkpt lat="51.858925000" lon="7.611848000">
        <ele>61.0</ele>
        <time>2017-04-29T06:26:27</time>
        <extensions><speed>1.43</speed></extensions>
      </trkpt>
      <trkpt lat="51.858929000" lon="7.611830000">
        <ele>61.0</ele>
        <time>2017-04-29T06:26:28</time>
        <extensions><speed>1.45</speed></extensions>
      </trkpt>
      <trkpt lat="51.858936000" lon="7.611813000">
        <ele>61.0</ele>
        <time>2017-04-29T06:26:29</time>
        <extensions><speed>1.45</speed></extensions>
      </trkpt>
      <trkpt lat="51.858936000" lon="7.611795000">
        <ele>61.0</ele>
        <time>2017-04-29T06:26:30</time>
        <extensions><speed>1.45</speed></extensions>
      </trkpt>
      <trkpt lat="51.858940000" lon="7.611775000">
        <ele>61.0</ele>
        <time>2017-04-29T06:26:31</time>
        <extensions><speed>1.40</speed></extensions>
      </trkpt>
      <trkpt lat="51.858940000" lon="7.611753000">
        <ele>61.0</ele>
        <time>2017-04-29T06:26:32</time>
        <extensions><speed>1.40</speed></extensions>
      </trkpt>
      <trkpt lat="51.858944000" lon="7.611733000">
        <ele>61.0</ele>
        <time>2017-04-29T06:26:33</time>
        <extensions><speed>1.39</speed></extensions>
      </trkpt>
      <trkpt lat="51.858944000" lon="7.611712000">
        <ele>61.0</ele>
        <time>2017-04-29T06:26:34</time>
        <extensions><speed>1.41</speed></extensions>
      </trkpt>
      <trkpt lat="51.858944000" lon="7.611690000">
        <ele>61.0</ele>
        <time>2017-04-29T06:26:35</time>
        <extensions><speed>1.44</speed></extensions>
      </trkpt>
      <trkpt lat="51.858944000" lon="7.611670000">
        <ele>61.0</ele>
        <time>2017-04-29T06:26:36</time>
        <extensions><speed>1.43</speed></extensions>
      </trkpt>
      <trkpt lat="51.858948000" lon="7.611650000">
        <ele>61.0</ele>
        <time>2017-04-29T06:26:37</time>
        <extensions><speed>1.43</speed></extensions>
      </trkpt>
      <trkpt lat="51.858948000" lon="7.611629000">
        <ele>61.0</ele>
        <time>2017-04-29T06:26:38</time>
        <extensions><speed>1.46</speed></extensions>
      </trkpt>
      <trkpt lat="51.858952000" lon="7.611608000">
        <ele>61.0</ele>
        <time>2017-04-29T06:26:39</time>
        <extensions><speed>1.42</speed></extensions>
      </trkpt>
      <trkpt lat="51.858952000" lon="7.611590000">
        <ele>61.0</ele>
        <time>2017-04-29T06:26:40</time>
        <extensions><speed>1.39</speed></extensions>
      </trkpt>
      <trkpt lat="51.858952000" lon="7.611569000">
        <ele>61.0</ele>
        <time>2017-04-29T06:26:41</time>
        <extensions><speed>1.40</speed></extensions>
      </trkpt>
      <trkpt lat="51.858955000" lon="7.611550000">
        <ele>61.0</ele>
        <time>2017-04-29T06:26:42</time>
        <extensions><speed>1.40</speed></extensions>
      </trkpt>
      <trkpt lat="51.858959000" lon="7.611530000">
        <ele>61.0</ele>
        <time>2017-04-29T06:26:43</time>
        <extensions><speed>1.39</speed></extensions>
      </trkpt>
      <trkpt lat="51.858955000" lon="7.611510000">
        <ele>61.0</ele>
        <time>2017-04-29T06:26:44</time>
        <extensions><speed>1.40</speed></extensions>
      </trkpt>
      <trkpt lat="51.858955000" lon="7.611492000">
        <ele>61.0</ele>
        <time>2017-04-29T06:26:45</time>
        <extensions><speed>1.41</speed></extensions>
      </trkpt>
      <trkpt lat="51.858955000" lon="7.611472000">
        <ele>61.0</ele>
        <time>2017-04-29T06:26:46</time>
        <extensions><speed>1.40</speed></extensions>
      </trkpt>
      <trkpt lat="51.858955000" lon="7.611452000">
        <ele>61.0</ele>
        <time>2017-04-29T06:26:47</time>
        <extensions><speed>1.40</speed></extensions>
      </trkpt>
      <trkpt lat="51.858955000" lon="7.611433000">
        <ele>61.0</ele>
        <time>2017-04-29T06:26:48</time>
        <extensions><speed>1.36</speed></extensions>
      </trkpt>
      <trkpt lat="51.858955000" lon="7.611415000">
        <ele>61.0</ele>
        <time>2017-04-29T06:26:49</time>
        <extensions><speed>1.37</speed></extensions>
      </trkpt>
      <trkpt lat="51.858952000" lon="7.611392000">
        <ele>61.0</ele>
        <time>2017-04-29T06:26:50</time>
        <extensions><speed>1.39</speed></extensions>
      </trkpt>
      <trkpt lat="51.858955000" lon="7.611372000">
        <ele>61.0</ele>
        <time>2017-04-29T06:26:51</time>
        <extensions><speed>1.41</speed></extensions>
      </trkpt>
      <trkpt lat="51.858959000" lon="7.611354000">
        <ele>61.0</ele>
        <time>2017-04-29T06:26:52</time>
        <extensions><speed>1.41</speed></extensions>
      </trkpt>
      <trkpt lat="51.858963000" lon="7.611335000">
        <ele>61.0</ele>
        <time>2017-04-29T06:26:53</time>
        <extensions><speed>1.47</speed></extensions>
      </trkpt>
      <trkpt lat="51.858963000" lon="7.611315000">
        <ele>61.0</ele>
        <time>2017-04-29T06:26:54</time>
        <extensions><speed>1.41</speed></extensions>
      </trkpt>
      <trkpt lat="51.858963000" lon="7.611295000">
        <ele>60.9</ele>
        <time>2017-04-29T06:26:55</time>
        <extensions><speed>1.42</speed></extensions>
      </trkpt>
      <trkpt lat="51.858967000" lon="7.611273000">
        <ele>60.9</ele>
        <time>2017-04-29T06:26:56</time>
        <extensions><speed>1.50</speed></extensions>
      </trkpt>
      <trkpt lat="51.858971000" lon="7.611254000">
        <ele>60.9</ele>
        <time>2017-04-29T06:26:57</time>
        <extensions><speed>1.48</speed></extensions>
      </trkpt>
      <trkpt lat="51.858971000" lon="7.611233000">
        <ele>60.8</ele>
        <time>2017-04-29T06:26:58</time>
        <extensions><speed>1.47</speed></extensions>
      </trkpt>
      <trkpt lat="51.858974000" lon="7.611212000">
        <ele>60.8</ele>
        <time>2017-04-29T06:26:59</time>
        <extensions><speed>1.48</speed></extensions>
      </trkpt>
      <trkpt lat="51.858974000" lon="7.611190000">
        <ele>60.8</ele>
        <time>2017-04-29T06:27:00</time>
        <extensions><speed>1.44</speed></extensions>
      </trkpt>
      <trkpt lat="51.858978000" lon="7.611170000">
        <ele>60.7</ele>
        <time>2017-04-29T06:27:01</time>
        <extensions><speed>1.42</speed></extensions>
      </trkpt>
      <trkpt lat="51.858982000" lon="7.611150000">
        <ele>60.7</ele>
        <time>2017-04-29T06:27:02</time>
        <extensions><speed>1.42</speed></extensions>
      </trkpt>
      <trkpt lat="51.858986000" lon="7.611132000">
        <ele>60.7</ele>
        <time>2017-04-29T06:27:03</time>
        <extensions><speed>1.42</speed></extensions>
      </trkpt>
      <trkpt lat="51.858986000" lon="7.611114000">
        <ele>60.6</ele>
        <time>2017-04-29T06:27:04</time>
        <extensions><speed>1.39</speed></extensions>
      </trkpt>
      <trkpt lat="51.858986000" lon="7.611097000">
        <ele>60.6</ele>
        <time>2017-04-29T06:27:05</time>
        <extensions><speed>1.32</speed></extensions>
      </trkpt>
      <trkpt lat="51.858986000" lon="7.611080000">
        <ele>60.6</ele>
        <time>2017-04-29T06:27:06</time>
        <extensions><speed>1.30</speed></extensions>
      </trkpt>
      <trkpt lat="51.858990000" lon="7.611060000">
        <ele>60.6</ele>
        <time>2017-04-29T06:27:07</time>
        <extensions><speed>1.34</speed></extensions>
      </trkpt>
      <trkpt lat="51.858990000" lon="7.611040000">
        <ele>60.5</ele>
        <time>2017-04-29T06:27:08</time>
        <extensions><speed>1.31</speed></extensions>
      </trkpt>
      <trkpt lat="51.858994000" lon="7.611018000">
        <ele>60.5</ele>
        <time>2017-04-29T06:27:09</time>
        <extensions><speed>1.38</speed></extensions>
      </trkpt>
      <trkpt lat="51.858997000" lon="7.610999000">
        <ele>60.5</ele>
        <time>2017-04-29T06:27:10</time>
        <extensions><speed>1.40</speed></extensions>
      </trkpt>
      <trkpt lat="51.859001000" lon="7.610980000">
        <ele>60.4</ele>
        <time>2017-04-29T06:27:11</time>
        <extensions><speed>1.41</speed></extensions>
      </trkpt>
      <trkpt lat="51.859005000" lon="7.610960000">
        <ele>60.4</ele>
        <time>2017-04-29T06:27:12</time>
        <extensions><speed>1.40</speed></extensions>
      </trkpt>
      <trkpt lat="51.859009000" lon="7.610943000">
        <ele>60.4</ele>
        <time>2017-04-29T06:27:13</time>
        <extensions><speed>1.42</speed></extensions>
      </trkpt>
      <trkpt lat="51.859009000" lon="7.610925000">
        <ele>60.4</ele>
        <time>2017-04-29T06:27:14</time>
        <extensions><speed>1.42</speed></extensions>
      </trkpt>
      <trkpt lat="51.859013000" lon="7.610905000">
        <ele>60.3</ele>
        <time>2017-04-29T06:27:15</time>
        <extensions><speed>1.42</speed></extensions>
      </trkpt>
      <trkpt lat="51.859016000" lon="7.610885000">
        <ele>60.3</ele>
        <time>2017-04-29T06:27:16</time>
        <extensions><speed>1.41</speed></extensions>
      </trkpt>
      <trkpt lat="51.859020000" lon="7.610865000">
        <ele>60.3</ele>
        <time>2017-04-29T06:27:17</time>
        <extensions><speed>1.41</speed></extensions>
      </trkpt>
      <trkpt lat="51.859024000" lon="7.610845000">
        <ele>60.3</ele>
        <time>2017-04-29T06:27:18</time>
        <extensions><speed>1.40</speed></extensions>
      </trkpt>
      <trkpt lat="51.859028000" lon="7.610827000">
        <ele>60.2</ele>
        <time>2017-04-29T06:27:19</time>
        <extensions><speed>1.40</speed></extensions>
      </trkpt>
      <trkpt lat="51.859032000" lon="7.610810000">
        <ele>60.2</ele>
        <time>2017-04-29T06:27:20</time>
        <extensions><speed>1.40</speed></extensions>
      </trkpt>
      <trkpt lat="51.859035000" lon="7.610794000">
        <ele>60.2</ele>
        <time>2017-04-29T06:27:21</time>
        <extensions><speed>1.39</speed></extensions>
      </trkpt>
      <trkpt lat="51.859035000" lon="7.610776000">
        <ele>60.1</ele>
        <time>2017-04-29T06:27:22</time>
        <extensions><speed>1.33</speed></extensions>
      </trkpt>
      <trkpt lat="51.859039000" lon="7.610759000">
        <ele>60.1</ele>
        <time>2017-04-29T06:27:23</time>
        <extensions><speed>1.34</speed></extensions>
      </trkpt>
      <trkpt lat="51.859043000" lon="7.610736000">
        <ele>60.1</ele>
        <time>2017-04-29T06:27:24</time>
        <extensions><speed>1.35</speed></extensions>
      </trkpt>
      <trkpt lat="51.859047000" lon="7.610717000">
        <ele>60.1</ele>
        <time>2017-04-29T06:27:25</time>
        <extensions><speed>1.34</speed></extensions>
      </trkpt>
      <trkpt lat="51.859051000" lon="7.610697000">
        <ele>60.1</ele>
        <time>2017-04-29T06:27:26</time>
        <extensions><speed>1.40</speed></extensions>
      </trkpt>
      <trkpt lat="51.859051000" lon="7.610677000">
        <ele>60.1</ele>
        <time>2017-04-29T06:27:27</time>
        <extensions><speed>1.40</speed></extensions>
      </trkpt>
      <trkpt lat="51.859055000" lon="7.610653000">
        <ele>60.1</ele>
        <time>2017-04-29T06:27:28</time>
        <extensions><speed>1.40</speed></extensions>
      </trkpt>
      <trkpt lat="51.859058000" lon="7.610633000">
        <ele>60.1</ele>
        <time>2017-04-29T06:27:29</time>
        <extensions><speed>1.43</speed></extensions>
      </trkpt>
      <trkpt lat="51.859058000" lon="7.610612000">
        <ele>60.1</ele>
        <time>2017-04-29T06:27:30</time>
        <extensions><speed>1.43</speed></extensions>
      </trkpt>
      <trkpt lat="51.859058000" lon="7.610590000">
        <ele>60.1</ele>
        <time>2017-04-29T06:27:31</time>
        <extensions><speed>1.44</speed></extensions>
      </trkpt>
      <trkpt lat="51.859058000" lon="7.610570000">
        <ele>60.1</ele>
        <time>2017-04-29T06:27:32</time>
        <extensions><speed>1.46</speed></extensions>
      </trkpt>
      <trkpt lat="51.859058000" lon="7.610552000">
        <ele>60.2</ele>
        <time>2017-04-29T06:27:33</time>
        <extensions><speed>1.44</speed></extensions>
      </trkpt>
      <trkpt lat="51.859062000" lon="7.610531000">
        <ele>60.2</ele>
        <time>2017-04-29T06:27:34</time>
        <extensions><speed>1.42</speed></extensions>
      </trkpt>
      <trkpt lat="51.859062000" lon="7.610514000">
        <ele>60.2</ele>
        <time>2017-04-29T06:27:35</time>
        <extensions><speed>1.34</speed></extensions>
      </trkpt>
      <trkpt lat="51.859062000" lon="7.610493000">
        <ele>60.3</ele>
        <time>2017-04-29T06:27:36</time>
        <extensions><speed>1.33</speed></extensions>
      </trkpt>
      <trkpt lat="51.859062000" lon="7.610472000">
        <ele>60.3</ele>
        <time>2017-04-29T06:27:37</time>
        <extensions><speed>1.31</speed></extensions>
      </trkpt>
      <trkpt lat="51.859062000" lon="7.610452000">
        <ele>60.3</ele>
        <time>2017-04-29T06:27:38</time>
        <extensions><speed>1.37</speed></extensions>
      </trkpt>
      <trkpt lat="51.859062000" lon="7.610430000">
        <ele>60.3</ele>
        <time>2017-04-29T06:27:39</time>
        <extensions><speed>1.37</speed></extensions>
      </trkpt>
      <trkpt lat="51.859062000" lon="7.610408000">
        <ele>60.4</ele>
        <time>2017-04-29T06:27:40</time>
        <extensions><speed>1.39</speed></extensions>
      </trkpt>
      <trkpt lat="51.859062000" lon="7.610384000">
        <ele>60.4</ele>
        <time>2017-04-29T06:27:41</time>
        <extensions><speed>1.44</speed></extensions>
      </trkpt>
      <trkpt lat="51.859062000" lon="7.610363000">
        <ele>60.4</ele>
        <time>2017-04-29T06:27:42</time>
        <extensions><speed>1.48</speed></extensions>
      </trkpt>
      <trkpt lat="51.859062000" lon="7.610340000">
        <ele>60.5</ele>
        <time>2017-04-29T06:27:43</time>
        <extensions><speed>1.48</speed></extensions>
      </trkpt>
      <trkpt lat="51.859062000" lon="7.610320000">
        <ele>60.5</ele>
        <time>2017-04-29T06:27:44</time>
        <extensions><speed>1.47</speed></extensions>
      </trkpt>
      <trkpt lat="51.859058000" lon="7.610300000">
        <ele>60.5</ele>
        <time>2017-04-29T06:27:45</time>
        <extensions><speed>1.43</speed></extensions>
      </trkpt>
      <trkpt lat="51.859055000" lon="7.610280000">
        <ele>60.6</ele>
        <time>2017-04-29T06:27:46</time>
        <extensions><speed>1.43</speed></extensions>
      </trkpt>
      <trkpt lat="51.859055000" lon="7.610258000">
        <ele>60.6</ele>
        <time>2017-04-29T06:27:47</time>
        <extensions><speed>1.42</speed></extensions>
      </trkpt>
      <trkpt lat="51.859051000" lon="7.610237000">
        <ele>60.6</ele>
        <time>2017-04-29T06:27:48</time>
        <extensions><speed>1.43</speed></extensions>
      </trkpt>
      <trkpt lat="51.859047000" lon="7.610217000">
        <ele>60.7</ele>
        <time>2017-04-29T06:27:49</time>
        <extensions><speed>1.45</speed></extensions>
      </trkpt>
      <trkpt lat="51.859047000" lon="7.610197000">
        <ele>60.7</ele>
        <time>2017-04-29T06:27:50</time>
        <extensions><speed>1.45</speed></extensions>
      </trkpt>
      <trkpt lat="51.859047000" lon="7.610178000">
        <ele>60.7</ele>
        <time>2017-04-29T06:27:51</time>
        <extensions><speed>1.40</speed></extensions>
      </trkpt>
      <trkpt lat="51.859047000" lon="7.610157000">
        <ele>60.7</ele>
        <time>2017-04-29T06:27:52</time>
        <extensions><speed>1.40</speed></extensions>
      </trkpt>
      <trkpt lat="51.859039000" lon="7.610137000">
        <ele>60.8</ele>
        <time>2017-04-29T06:27:53</time>
        <extensions><speed>1.40</speed></extensions>
      </trkpt>
      <trkpt lat="51.859039000" lon="7.610118000">
        <ele>60.8</ele>
        <time>2017-04-29T06:27:54</time>
        <extensions><speed>1.36</speed></extensions>
      </trkpt>
      <trkpt lat="51.859039000" lon="7.610098000">
        <ele>60.8</ele>
        <time>2017-04-29T06:27:55</time>
        <extensions><speed>1.45</speed></extensions>
      </trkpt>
      <trkpt lat="51.859035000" lon="7.610076000">
        <ele>60.8</ele>
        <time>2017-04-29T06:27:56</time>
        <extensions><speed>1.49</speed></extensions>
      </trkpt>
      <trkpt lat="51.859032000" lon="7.610057000">
        <ele>60.9</ele>
        <time>2017-04-29T06:27:57</time>
        <extensions><speed>1.43</speed></extensions>
      </trkpt>
      <trkpt lat="51.859028000" lon="7.610036000">
        <ele>60.9</ele>
        <time>2017-04-29T06:27:58</time>
        <extensions><speed>1.44</speed></extensions>
      </trkpt>
      <trkpt lat="51.859028000" lon="7.610018000">
        <ele>60.9</ele>
        <time>2017-04-29T06:27:59</time>
        <extensions><speed>1.44</speed></extensions>
      </trkpt>
      <trkpt lat="51.859028000" lon="7.609997000">
        <ele>61.0</ele>
        <time>2017-04-29T06:28:00</time>
        <extensions><speed>1.44</speed></extensions>
      </trkpt>
      <trkpt lat="51.859024000" lon="7.609976000">
        <ele>61.0</ele>
        <time>2017-04-29T06:28:01</time>
        <extensions><speed>1.45</speed></extensions>
      </trkpt>
      <trkpt lat="51.859020000" lon="7.609955000">
        <ele>61.1</ele>
        <time>2017-04-29T06:28:02</time>
        <extensions><speed>1.47</speed></extensions>
      </trkpt>
      <trkpt lat="51.859016000" lon="7.609935000">
        <ele>61.1</ele>
        <time>2017-04-29T06:28:03</time>
        <extensions><speed>1.46</speed></extensions>
      </trkpt>
      <trkpt lat="51.859013000" lon="7.609913000">
        <ele>61.2</ele>
        <time>2017-04-29T06:28:04</time>
        <extensions><speed>1.47</speed></extensions>
      </trkpt>
      <trkpt lat="51.859013000" lon="7.609894000">
        <ele>61.3</ele>
        <time>2017-04-29T06:28:05</time>
        <extensions><speed>1.47</speed></extensions>
      </trkpt>
      <trkpt lat="51.859009000" lon="7.609873000">
        <ele>61.3</ele>
        <time>2017-04-29T06:28:06</time>
        <extensions><speed>1.45</speed></extensions>
      </trkpt>
      <trkpt lat="51.859009000" lon="7.609852000">
        <ele>61.4</ele>
        <time>2017-04-29T06:28:07</time>
        <extensions><speed>1.45</speed></extensions>
      </trkpt>
      <trkpt lat="51.859009000" lon="7.609831000">
        <ele>61.5</ele>
        <time>2017-04-29T06:28:08</time>
        <extensions><speed>1.45</speed></extensions>
      </trkpt>
      <trkpt lat="51.859013000" lon="7.609817000">
        <ele>61.5</ele>
        <time>2017-04-29T06:28:09</time>
        <extensions><speed>1.39</speed></extensions>
      </trkpt>
      <trkpt lat="51.859013000" lon="7.609797000">
        <ele>61.6</ele>
        <time>2017-04-29T06:28:10</time>
        <extensions><speed>1.37</speed></extensions>
      </trkpt>
      <trkpt lat="51.859009000" lon="7.609775000">
        <ele>61.7</ele>
        <time>2017-04-29T06:28:11</time>
        <extensions><speed>1.40</speed></extensions>
      </trkpt>
      <trkpt lat="51.859005000" lon="7.609757000">
        <ele>61.7</ele>
        <time>2017-04-29T06:28:12</time>
        <extensions><speed>1.34</speed></extensions>
      </trkpt>
      <trkpt lat="51.859001000" lon="7.609738000">
        <ele>61.8</ele>
        <time>2017-04-29T06:28:13</time>
        <extensions><speed>1.35</speed></extensions>
      </trkpt>
      <trkpt lat="51.859001000" lon="7.609719000">
        <ele>61.8</ele>
        <time>2017-04-29T06:28:14</time>
        <extensions><speed>1.44</speed></extensions>
      </trkpt>
      <trkpt lat="51.858994000" lon="7.609696000">
        <ele>61.9</ele>
        <time>2017-04-29T06:28:15</time>
        <extensions><speed>1.52</speed></extensions>
      </trkpt>
      <trkpt lat="51.858990000" lon="7.609675000">
        <ele>62.0</ele>
        <time>2017-04-29T06:28:16</time>
        <extensions><speed>1.46</speed></extensions>
      </trkpt>
      <trkpt lat="51.858990000" lon="7.609652000">
        <ele>62.0</ele>
        <time>2017-04-29T06:28:17</time>
        <extensions><speed>1.48</speed></extensions>
      </trkpt>
      <trkpt lat="51.858994000" lon="7.609633000">
        <ele>62.1</ele>
        <time>2017-04-29T06:28:18</time>
        <extensions><speed>1.48</speed></extensions>
      </trkpt>
      <trkpt lat="51.858994000" lon="7.609615000">
        <ele>62.1</ele>
        <time>2017-04-29T06:28:19</time>
        <extensions><speed>1.39</speed></extensions>
      </trkpt>
      <trkpt lat="51.858994000" lon="7.609595000">
        <ele>62.2</ele>
        <time>2017-04-29T06:28:20</time>
        <extensions><speed>1.36</speed></extensions>
      </trkpt>
      <trkpt lat="51.858990000" lon="7.609575000">
        <ele>62.3</ele>
        <time>2017-04-29T06:28:21</time>
        <extensions><speed>1.36</speed></extensions>
      </trkpt>
      <trkpt lat="51.858990000" lon="7.609555000">
        <ele>62.3</ele>
        <time>2017-04-29T06:28:22</time>
        <extensions><speed>1.36</speed></extensions>
      </trkpt>
      <trkpt lat="51.858994000" lon="7.609539000">
        <ele>62.4</ele>
        <time>2017-04-29T06:28:23</time>
        <extensions><speed>1.38</speed></extensions>
      </trkpt>
      <trkpt lat="51.858994000" lon="7.609518000">
        <ele>62.5</ele>
        <time>2017-04-29T06:28:24</time>
        <extensions><speed>1.40</speed></extensions>
      </trkpt>
      <trkpt lat="51.858994000" lon="7.609497000">
        <ele>62.5</ele>
        <time>2017-04-29T06:28:25</time>
        <extensions><speed>1.44</speed></extensions>
      </trkpt>
      <trkpt lat="51.858994000" lon="7.609474000">
        <ele>62.6</ele>
        <time>2017-04-29T06:28:26</time>
        <extensions><speed>1.40</speed></extensions>
      </trkpt>
      <trkpt lat="51.858994000" lon="7.609453000">
        <ele>62.6</ele>
        <time>2017-04-29T06:28:27</time>
        <extensions><speed>1.40</speed></extensions>
      </trkpt>
      <trkpt lat="51.858994000" lon="7.609435000">
        <ele>62.7</ele>
        <time>2017-04-29T06:28:28</time>
        <extensions><speed>1.39</speed></extensions>
      </trkpt>
      <trkpt lat="51.858994000" lon="7.609418000">
        <ele>62.8</ele>
        <time>2017-04-29T06:28:29</time>
        <extensions><speed>1.37</speed></extensions>
      </trkpt>
      <trkpt lat="51.858990000" lon="7.609397000">
        <ele>62.8</ele>
        <time>2017-04-29T06:28:30</time>
        <extensions><speed>1.37</speed></extensions>
      </trkpt>
      <trkpt lat="51.858994000" lon="7.609378000">
        <ele>62.9</ele>
        <time>2017-04-29T06:28:31</time>
        <extensions><speed>1.35</speed></extensions>
      </trkpt>
      <trkpt lat="51.858994000" lon="7.609360000">
        <ele>62.9</ele>
        <time>2017-04-29T06:28:32</time>
        <extensions><speed>1.36</speed></extensions>
      </trkpt>
      <trkpt lat="51.858994000" lon="7.609339000">
        <ele>63.0</ele>
        <time>2017-04-29T06:28:33</time>
        <extensions><speed>1.40</speed></extensions>
      </trkpt>
      <trkpt lat="51.858990000" lon="7.609320000">
        <ele>63.1</ele>
        <time>2017-04-29T06:28:34</time>
        <extensions><speed>1.38</speed></extensions>
      </trkpt>
      <trkpt lat="51.858986000" lon="7.609304000">
        <ele>63.1</ele>
        <time>2017-04-29T06:28:35</time>
        <extensions><speed>1.30</speed></extensions>
      </trkpt>
      <trkpt lat="51.858986000" lon="7.609285000">
        <ele>63.2</ele>
        <time>2017-04-29T06:28:36</time>
        <extensions><speed>1.36</speed></extensions>
      </trkpt>
      <trkpt lat="51.858986000" lon="7.609267000">
        <ele>63.2</ele>
        <time>2017-04-29T06:28:37</time>
        <extensions><speed>1.32</speed></extensions>
      </trkpt>
      <trkpt lat="51.858982000" lon="7.609250000">
        <ele>63.2</ele>
        <time>2017-04-29T06:28:38</time>
        <extensions><speed>1.26</speed></extensions>
      </trkpt>
      <trkpt lat="51.858986000" lon="7.609234000">
        <ele>63.3</ele>
        <time>2017-04-29T06:28:39</time>
        <extensions><speed>1.23</speed></extensions>
      </trkpt>
      <trkpt lat="51.858986000" lon="7.609215000">
        <ele>63.3</ele>
        <time>2017-04-29T06:28:40</time>
        <extensions><speed>1.25</speed></extensions>
      </trkpt>
      <trkpt lat="51.858990000" lon="7.609201000">
        <ele>63.3</ele>
        <time>2017-04-29T06:28:41</time>
        <extensions><speed>1.22</speed></extensions>
      </trkpt>
      <trkpt lat="51.858994000" lon="7.609187000">
        <ele>63.3</ele>
        <time>2017-04-29T06:28:42</time>
        <extensions><speed>1.22</speed></extensions>
      </trkpt>
      <trkpt lat="51.858994000" lon="7.609165000">
        <ele>63.4</ele>
        <time>2017-04-29T06:28:43</time>
        <extensions><speed>1.29</speed></extensions>
      </trkpt>
      <trkpt lat="51.858994000" lon="7.609145000">
        <ele>63.4</ele>
        <time>2017-04-29T06:28:44</time>
        <extensions><speed>1.37</speed></extensions>
      </trkpt>
      <trkpt lat="51.858994000" lon="7.609125000">
        <ele>63.4</ele>
        <time>2017-04-29T06:28:45</time>
        <extensions><speed>1.39</speed></extensions>
      </trkpt>
      <trkpt lat="51.858994000" lon="7.609101000">
        <ele>63.4</ele>
        <time>2017-04-29T06:28:46</time>
        <extensions><speed>1.42</speed></extensions>
      </trkpt>
      <trkpt lat="51.858994000" lon="7.609082000">
        <ele>63.5</ele>
        <time>2017-04-29T06:28:47</time>
        <extensions><speed>1.39</speed></extensions>
      </trkpt>
      <trkpt lat="51.858997000" lon="7.609063000">
        <ele>63.5</ele>
        <time>2017-04-29T06:28:48</time>
        <extensions><speed>1.33</speed></extensions>
      </trkpt>
      <trkpt lat="51.859001000" lon="7.609047000">
        <ele>63.5</ele>
        <time>2017-04-29T06:28:49</time>
        <extensions><speed>1.31</speed></extensions>
      </trkpt>
      <trkpt lat="51.859005000" lon="7.609030000">
        <ele>63.6</ele>
        <time>2017-04-29T06:28:50</time>
        <extensions><speed>1.32</speed></extensions>
      </trkpt>
      <trkpt lat="51.859009000" lon="7.609012000">
        <ele>63.6</ele>
        <time>2017-04-29T06:28:51</time>
        <extensions><speed>1.28</speed></extensions>
      </trkpt>
      <trkpt lat="51.859009000" lon="7.608993000">
        <ele>63.7</ele>
        <time>2017-04-29T06:28:52</time>
        <extensions><speed>1.31</speed></extensions>
      </trkpt>
      <trkpt lat="51.859009000" lon="7.608974000">
        <ele>63.7</ele>
        <time>2017-04-29T06:28:53</time>
        <extensions><speed>1.35</speed></extensions>
      </trkpt>
      <trkpt lat="51.859009000" lon="7.608952000">
        <ele>63.7</ele>
        <time>2017-04-29T06:28:54</time>
        <extensions><speed>1.37</speed></extensions>
      </trkpt>
      <trkpt lat="51.859009000" lon="7.608933000">
        <ele>63.8</ele>
        <time>2017-04-29T06:28:55</time>
        <extensions><speed>1.35</speed></extensions>
      </trkpt>
      <trkpt lat="51.859009000" lon="7.608915000">
        <ele>63.8</ele>
        <time>2017-04-29T06:28:56</time>
        <extensions><speed>1.38</speed></extensions>
      </trkpt>
      <trkpt lat="51.859013000" lon="7.608895000">
        <ele>63.8</ele>
        <time>2017-04-29T06:28:57</time>
        <extensions><speed>1.42</speed></extensions>
      </trkpt>
      <trkpt lat="51.859016000" lon="7.608873000">
        <ele>63.9</ele>
        <time>2017-04-29T06:28:58</time>
        <extensions><speed>1.40</speed></extensions>
      </trkpt>
      <trkpt lat="51.859020000" lon="7.608853000">
        <ele>63.9</ele>
        <time>2017-04-29T06:28:59</time>
        <extensions><speed>1.38</speed></extensions>
      </trkpt>
      <trkpt lat="51.859020000" lon="7.608835000">
        <ele>63.9</ele>
        <time>2017-04-29T06:29:00</time>
        <extensions><speed>1.37</speed></extensions>
      </trkpt>
      <trkpt lat="51.859024000" lon="7.608814000">
        <ele>63.9</ele>
        <time>2017-04-29T06:29:01</time>
        <extensions><speed>1.39</speed></extensions>
      </trkpt>
      <trkpt lat="51.859028000" lon="7.608791000">
        <ele>64.0</ele>
        <time>2017-04-29T06:29:02</time>
        <extensions><speed>1.38</speed></extensions>
      </trkpt>
      <trkpt lat="51.859024000" lon="7.608772000">
        <ele>64.0</ele>
        <time>2017-04-29T06:29:03</time>
        <extensions><speed>1.30</speed></extensions>
      </trkpt>
      <trkpt lat="51.859020000" lon="7.608753000">
        <ele>64.1</ele>
        <time>2017-04-29T06:29:04</time>
        <extensions><speed>1.30</speed></extensions>
      </trkpt>
      <trkpt lat="51.859016000" lon="7.608737000">
        <ele>64.1</ele>
        <time>2017-04-29T06:29:05</time>
        <extensions><speed>1.26</speed></extensions>
      </trkpt>
      <trkpt lat="51.859024000" lon="7.608718000">
        <ele>64.2</ele>
        <time>2017-04-29T06:29:06</time>
        <extensions><speed>1.22</speed></extensions>
      </trkpt>
      <trkpt lat="51.859024000" lon="7.608702000">
        <ele>64.2</ele>
        <time>2017-04-29T06:29:07</time>
        <extensions><speed>1.22</speed></extensions>
      </trkpt>
      <trkpt lat="51.859020000" lon="7.608685000">
        <ele>64.2</ele>
        <time>2017-04-29T06:29:08</time>
        <extensions><speed>1.28</speed></extensions>
      </trkpt>
      <trkpt lat="51.859016000" lon="7.608665000">
        <ele>64.3</ele>
        <time>2017-04-29T06:29:09</time>
        <extensions><speed>1.34</speed></extensions>
      </trkpt>
      <trkpt lat="51.859020000" lon="7.608644000">
        <ele>64.3</ele>
        <time>2017-04-29T06:29:10</time>
        <extensions><speed>1.38</speed></extensions>
      </trkpt>
      <trkpt lat="51.859016000" lon="7.608625000">
        <ele>64.3</ele>
        <time>2017-04-29T06:29:11</time>
        <extensions><speed>1.38</speed></extensions>
      </trkpt>
      <trkpt lat="51.859013000" lon="7.608607000">
        <ele>64.4</ele>
        <time>2017-04-29T06:29:12</time>
        <extensions><speed>1.40</speed></extensions>
      </trkpt>
      <trkpt lat="51.859009000" lon="7.608588000">
        <ele>64.4</ele>
        <time>2017-04-29T06:29:13</time>
        <extensions><speed>1.40</speed></extensions>
      </trkpt>
      <trkpt lat="51.859009000" lon="7.608569000">
        <ele>64.4</ele>
        <time>2017-04-29T06:29:14</time>
        <extensions><speed>1.42</speed></extensions>
      </trkpt>
      <trkpt lat="51.859013000" lon="7.608548000">
        <ele>64.5</ele>
        <time>2017-04-29T06:29:15</time>
        <extensions><speed>1.42</speed></extensions>
      </trkpt>
      <trkpt lat="51.859016000" lon="7.608530000">
        <ele>64.5</ele>
        <time>2017-04-29T06:29:16</time>
        <extensions><speed>1.42</speed></extensions>
      </trkpt>
      <trkpt lat="51.859016000" lon="7.608511000">
        <ele>64.5</ele>
        <time>2017-04-29T06:29:17</time>
        <extensions><speed>1.38</speed></extensions>
      </trkpt>
      <trkpt lat="51.859020000" lon="7.608490000">
        <ele>64.5</ele>
        <time>2017-04-29T06:29:18</time>
        <extensions><speed>1.36</speed></extensions>
      </trkpt>
      <trkpt lat="51.859016000" lon="7.608469000">
        <ele>64.6</ele>
        <time>2017-04-29T06:29:19</time>
        <extensions><speed>1.37</speed></extensions>
      </trkpt>
      <trkpt lat="51.859013000" lon="7.608452000">
        <ele>64.6</ele>
        <time>2017-04-29T06:29:20</time>
        <extensions><speed>1.33</speed></extensions>
      </trkpt>
      <trkpt lat="51.859013000" lon="7.608435000">
        <ele>64.6</ele>
        <time>2017-04-29T06:29:21</time>
        <extensions><speed>1.37</speed></extensions>
      </trkpt>
      <trkpt lat="51.859009000" lon="7.608418000">
        <ele>64.7</ele>
        <time>2017-04-29T06:29:22</time>
        <extensions><speed>1.37</speed></extensions>
      </trkpt>
      <trkpt lat="51.859009000" lon="7.608399000">
        <ele>64.7</ele>
        <time>2017-04-29T06:29:23</time>
        <extensions><speed>1.33</speed></extensions>
      </trkpt>
      <trkpt lat="51.859013000" lon="7.608380000">
        <ele>64.7</ele>
        <time>2017-04-29T06:29:24</time>
        <extensions><speed>1.29</speed></extensions>
      </trkpt>
      <trkpt lat="51.859013000" lon="7.608360000">
        <ele>64.8</ele>
        <time>2017-04-29T06:29:25</time>
        <extensions><speed>1.31</speed></extensions>
      </trkpt>
      <trkpt lat="51.859009000" lon="7.608340000">
        <ele>64.8</ele>
        <time>2017-04-29T06:29:26</time>
        <extensions><speed>1.31</speed></extensions>
      </trkpt>
      <trkpt lat="51.859009000" lon="7.608320000">
        <ele>64.8</ele>
        <time>2017-04-29T06:29:27</time>
        <extensions><speed>1.31</speed></extensions>
      </trkpt>
      <trkpt lat="51.859009000" lon="7.608303000">
        <ele>64.9</ele>
        <time>2017-04-29T06:29:28</time>
        <extensions><speed>1.30</speed></extensions>
      </trkpt>
      <trkpt lat="51.859013000" lon="7.608287000">
        <ele>64.9</ele>
        <time>2017-04-29T06:29:29</time>
        <extensions><speed>1.34</speed></extensions>
      </trkpt>
      <trkpt lat="51.859013000" lon="7.608268000">
        <ele>64.9</ele>
        <time>2017-04-29T06:29:30</time>
        <extensions><speed>1.33</speed></extensions>
      </trkpt>
      <trkpt lat="51.859013000" lon="7.608250000">
        <ele>64.9</ele>
        <time>2017-04-29T06:29:31</time>
        <extensions><speed>1.27</speed></extensions>
      </trkpt>
      <trkpt lat="51.859009000" lon="7.608238000">
        <ele>65.0</ele>
        <time>2017-04-29T06:29:32</time>
        <extensions><speed>1.27</speed></extensions>
      </trkpt>
      <trkpt lat="51.859005000" lon="7.608226000">
        <ele>65.0</ele>
        <time>2017-04-29T06:29:33</time>
        <extensions><speed>1.18</speed></extensions>
      </trkpt>
      <trkpt lat="51.859005000" lon="7.608212000">
        <ele>65.0</ele>
        <time>2017-04-29T06:29:34</time>
        <extensions><speed>1.11</speed></extensions>
      </trkpt>
      <trkpt lat="51.859001000" lon="7.608189000">
        <ele>65.1</ele>
        <time>2017-04-29T06:29:35</time>
        <extensions><speed>1.11</speed></extensions>
      </trkpt>
      <trkpt lat="51.859001000" lon="7.608168000">
        <ele>65.1</ele>
        <time>2017-04-29T06:29:36</time>
        <extensions><speed>1.13</speed></extensions>
      </trkpt>
      <trkpt lat="51.859005000" lon="7.608147000">
        <ele>65.1</ele>
        <time>2017-04-29T06:29:37</time>
        <extensions><speed>1.29</speed></extensions>
      </trkpt>
      <trkpt lat="51.859005000" lon="7.608128000">
        <ele>65.1</ele>
        <time>2017-04-29T06:29:38</time>
        <extensions><speed>1.36</speed></extensions>
      </trkpt>
      <trkpt lat="51.858997000" lon="7.608110000">
        <ele>65.2</ele>
        <time>2017-04-29T06:29:39</time>
        <extensions><speed>1.36</speed></extensions>
      </trkpt>
      <trkpt lat="51.858997000" lon="7.608091000">
        <ele>65.2</ele>
        <time>2017-04-29T06:29:40</time>
        <extensions><speed>1.38</speed></extensions>
      </trkpt>
      <trkpt lat="51.858994000" lon="7.608070000">
        <ele>65.2</ele>
        <time>2017-04-29T06:29:41</time>
        <extensions><speed>1.35</speed></extensions>
      </trkpt>
      <trkpt lat="51.858990000" lon="7.608049000">
        <ele>65.2</ele>
        <time>2017-04-29T06:29:42</time>
        <extensions><speed>1.34</speed></extensions>
      </trkpt>
      <trkpt lat="51.858990000" lon="7.608025000">
        <ele>65.3</ele>
        <time>2017-04-29T06:29:43</time>
        <extensions><speed>1.35</speed></extensions>
      </trkpt>
      <trkpt lat="51.858990000" lon="7.608002000">
        <ele>65.3</ele>
        <time>2017-04-29T06:29:44</time>
        <extensions><speed>1.39</speed></extensions>
      </trkpt>
      <trkpt lat="51.858990000" lon="7.607979000">
        <ele>65.3</ele>
        <time>2017-04-29T06:29:45</time>
        <extensions><speed>1.39</speed></extensions>
      </trkpt>
      <trkpt lat="51.858990000" lon="7.607956000">
        <ele>65.3</ele>
        <time>2017-04-29T06:29:46</time>
        <extensions><speed>1.40</speed></extensions>
      </trkpt>
      <trkpt lat="51.858990000" lon="7.607937000">
        <ele>65.4</ele>
        <time>2017-04-29T06:29:47</time>
        <extensions><speed>1.38</speed></extensions>
      </trkpt>
      <trkpt lat="51.858986000" lon="7.607918000">
        <ele>65.4</ele>
        <time>2017-04-29T06:29:48</time>
        <extensions><speed>1.33</speed></extensions>
      </trkpt>
      <trkpt lat="51.858986000" lon="7.607897000">
        <ele>65.4</ele>
        <time>2017-04-29T06:29:49</time>
        <extensions><speed>1.30</speed></extensions>
      </trkpt>
      <trkpt lat="51.858986000" lon="7.607873000">
        <ele>65.5</ele>
        <time>2017-04-29T06:29:50</time>
        <extensions><speed>1.30</speed></extensions>
      </trkpt>
      <trkpt lat="51.858982000" lon="7.607852000">
        <ele>65.6</ele>
        <time>2017-04-29T06:29:51</time>
        <extensions><speed>1.30</speed></extensions>
      </trkpt>
      <trkpt lat="51.858982000" lon="7.607832000">
        <ele>65.6</ele>
        <time>2017-04-29T06:29:52</time>
        <extensions><speed>1.33</speed></extensions>
      </trkpt>
      <trkpt lat="51.858982000" lon="7.607807000">
        <ele>65.7</ele>
        <time>2017-04-29T06:29:53</time>
        <extensions><speed>1.34</speed></extensions>
      </trkpt>
      <trkpt lat="51.858982000" lon="7.607783000">
        <ele>65.7</ele>
        <time>2017-04-29T06:29:54</time>
        <extensions><speed>1.38</speed></extensions>
      </trkpt>
      <trkpt lat="51.858978000" lon="7.607763000">
        <ele>65.8</ele>
        <time>2017-04-29T06:29:55</time>
        <extensions><speed>1.41</speed></extensions>
      </trkpt>
      <trkpt lat="51.858974000" lon="7.607743000">
        <ele>65.8</ele>
        <time>2017-04-29T06:29:56</time>
        <extensions><speed>1.41</speed></extensions>
      </trkpt>
      <trkpt lat="51.858974000" lon="7.607722000">
        <ele>65.9</ele>
        <time>2017-04-29T06:29:57</time>
        <extensions><speed>1.41</speed></extensions>
      </trkpt>
      <trkpt lat="51.858974000" lon="7.607697000">
        <ele>65.9</ele>
        <time>2017-04-29T06:29:58</time>
        <extensions><speed>1.41</speed></extensions>
      </trkpt>
      <trkpt lat="51.858974000" lon="7.607675000">
        <ele>65.9</ele>
        <time>2017-04-29T06:29:59</time>
        <extensions><speed>1.41</speed></extensions>
      </trkpt>
      <trkpt lat="51.858974000" lon="7.607655000">
        <ele>66.0</ele>
        <time>2017-04-29T06:30:00</time>
        <extensions><speed>1.42</speed></extensions>
      </trkpt>
      <trkpt lat="51.858974000" lon="7.607635000">
        <ele>66.1</ele>
        <time>2017-04-29T06:30:01</time>
        <extensions><speed>1.44</speed></extensions>
      </trkpt>
      <trkpt lat="51.858967000" lon="7.607620000">
        <ele>66.1</ele>
        <time>2017-04-29T06:30:02</time>
        <extensions><speed>1.44</speed></extensions>
      </trkpt>
      <trkpt lat="51.858963000" lon="7.607605000">
        <ele>66.2</ele>
        <time>2017-04-29T06:30:03</time>
        <extensions><speed>1.34</speed></extensions>
      </trkpt>
      <trkpt lat="51.858963000" lon="7.607587000">
        <ele>66.3</ele>
        <time>2017-04-29T06:30:04</time>
        <extensions><speed>1.26</speed></extensions>
      </trkpt>
      <trkpt lat="51.858963000" lon="7.607564000">
        <ele>66.3</ele>
        <time>2017-04-29T06:30:05</time>
        <extensions><speed>1.26</speed></extensions>
      </trkpt>
      <trkpt lat="51.858971000" lon="7.607545000">
        <ele>66.4</ele>
        <time>2017-04-29T06:30:06</time>
        <extensions><speed>1.13</speed></extensions>
      </trkpt>
      <trkpt lat="51.858971000" lon="7.607530000">
        <ele>66.4</ele>
        <time>2017-04-29T06:30:07</time>
        <extensions><speed>1.22</speed></extensions>
      </trkpt>
      <trkpt lat="51.858971000" lon="7.607512000">
        <ele>66.5</ele>
        <time>2017-04-29T06:30:08</time>
        <extensions><speed>1.27</speed></extensions>
      </trkpt>
      <trkpt lat="51.858967000" lon="7.607492000">
        <ele>66.5</ele>
        <time>2017-04-29T06:30:09</time>
        <extensions><speed>1.33</speed></extensions>
      </trkpt>
      <trkpt lat="51.858967000" lon="7.607470000">
        <ele>66.5</ele>
        <time>2017-04-29T06:30:10</time>
        <extensions><speed>1.32</speed></extensions>
      </trkpt>
      <trkpt lat="51.858967000" lon="7.607452000">
        <ele>66.6</ele>
        <time>2017-04-29T06:30:11</time>
        <extensions><speed>1.32</speed></extensions>
      </trkpt>
      <trkpt lat="51.858967000" lon="7.607435000">
        <ele>66.7</ele>
        <time>2017-04-29T06:30:12</time>
        <extensions><speed>1.32</speed></extensions>
      </trkpt>
      <trkpt lat="51.858967000" lon="7.607415000">
        <ele>66.7</ele>
        <time>2017-04-29T06:30:13</time>
        <extensions><speed>1.34</speed></extensions>
      </trkpt>
      <trkpt lat="51.858967000" lon="7.607391000">
        <ele>66.8</ele>
        <time>2017-04-29T06:30:14</time>
        <extensions><speed>1.35</speed></extensions>
      </trkpt>
      <trkpt lat="51.858963000" lon="7.607365000">
        <ele>66.8</ele>
        <time>2017-04-29T06:30:15</time>
        <extensions><speed>1.34</speed></extensions>
      </trkpt>
      <trkpt lat="51.858963000" lon="7.607345000">
        <ele>66.9</ele>
        <time>2017-04-29T06:30:16</time>
        <extensions><speed>1.35</speed></extensions>
      </trkpt>
      <trkpt lat="51.858967000" lon="7.607325000">
        <ele>66.9</ele>
        <time>2017-04-29T06:30:17</time>
        <extensions><speed>1.38</speed></extensions>
      </trkpt>
      <trkpt lat="51.858967000" lon="7.607307000">
        <ele>67.0</ele>
        <time>2017-04-29T06:30:18</time>
        <extensions><speed>1.40</speed></extensions>
      </trkpt>
      <trkpt lat="51.858967000" lon="7.607285000">
        <ele>67.0</ele>
        <time>2017-04-29T06:30:19</time>
        <extensions><speed>1.38</speed></extensions>
      </trkpt>
      <trkpt lat="51.858971000" lon="7.607265000">
        <ele>67.1</ele>
        <time>2017-04-29T06:30:20</time>
        <extensions><speed>1.39</speed></extensions>
      </trkpt>
      <trkpt lat="51.858971000" lon="7.607245000">
        <ele>67.1</ele>
        <time>2017-04-29T06:30:21</time>
        <extensions><speed>1.40</speed></extensions>
      </trkpt>
      <trkpt lat="51.858971000" lon="7.607225000">
        <ele>67.2</ele>
        <time>2017-04-29T06:30:22</time>
        <extensions><speed>1.39</speed></extensions>
      </trkpt>
      <trkpt lat="51.858971000" lon="7.607205000">
        <ele>67.2</ele>
        <time>2017-04-29T06:30:23</time>
        <extensions><speed>1.35</speed></extensions>
      </trkpt>
      <trkpt lat="51.858967000" lon="7.607183000">
        <ele>67.3</ele>
        <time>2017-04-29T06:30:24</time>
        <extensions><speed>1.35</speed></extensions>
      </trkpt>
      <trkpt lat="51.858967000" lon="7.607163000">
        <ele>67.3</ele>
        <time>2017-04-29T06:30:25</time>
        <extensions><speed>1.32</speed></extensions>
      </trkpt>
      <trkpt lat="51.858963000" lon="7.607148000">
        <ele>67.3</ele>
        <time>2017-04-29T06:30:26</time>
        <extensions><speed>1.28</speed></extensions>
      </trkpt>
      <trkpt lat="51.858963000" lon="7.607130000">
        <ele>67.4</ele>
        <time>2017-04-29T06:30:27</time>
        <extensions><speed>1.25</speed></extensions>
      </trkpt>
      <trkpt lat="51.858963000" lon="7.607109000">
        <ele>67.4</ele>
        <time>2017-04-29T06:30:28</time>
        <extensions><speed>1.25</speed></extensions>
      </trkpt>
      <trkpt lat="51.858959000" lon="7.607085000">
        <ele>67.4</ele>
        <time>2017-04-29T06:30:29</time>
        <extensions><speed>1.25</speed></extensions>
      </trkpt>
      <trkpt lat="51.858963000" lon="7.607065000">
        <ele>67.4</ele>
        <time>2017-04-29T06:30:30</time>
        <extensions><speed>1.28</speed></extensions>
      </trkpt>
      <trkpt lat="51.858963000" lon="7.607043000">
        <ele>67.5</ele>
        <time>2017-04-29T06:30:31</time>
        <extensions><speed>1.35</speed></extensions>
      </trkpt>
      <trkpt lat="51.858959000" lon="7.607022000">
        <ele>67.5</ele>
        <time>2017-04-29T06:30:32</time>
        <extensions><speed>1.42</speed></extensions>
      </trkpt>
      <trkpt lat="51.858955000" lon="7.607000000">
        <ele>67.5</ele>
        <time>2017-04-29T06:30:33</time>
        <extensions><speed>1.42</speed></extensions>
      </trkpt>
      <trkpt lat="51.858955000" lon="7.606981000">
        <ele>67.5</ele>
        <time>2017-04-29T06:30:34</time>
        <extensions><speed>1.40</speed></extensions>
      </trkpt>
      <trkpt lat="51.858959000" lon="7.606962000">
        <ele>67.6</ele>
        <time>2017-04-29T06:30:35</time>
        <extensions><speed>1.40</speed></extensions>
      </trkpt>
      <trkpt lat="51.858959000" lon="7.606940000">
        <ele>67.6</ele>
        <time>2017-04-29T06:30:36</time>
        <extensions><speed>1.40</speed></extensions>
      </trkpt>
      <trkpt lat="51.858963000" lon="7.606918000">
        <ele>67.6</ele>
        <time>2017-04-29T06:30:37</time>
        <extensions><speed>1.34</speed></extensions>
      </trkpt>
      <trkpt lat="51.858963000" lon="7.606902000">
        <ele>67.7</ele>
        <time>2017-04-29T06:30:38</time>
        <extensions><speed>1.32</speed></extensions>
      </trkpt>
      <trkpt lat="51.858959000" lon="7.606883000">
        <ele>67.7</ele>
        <time>2017-04-29T06:30:39</time>
        <extensions><speed>1.36</speed></extensions>
      </trkpt>
      <trkpt lat="51.858959000" lon="7.606860000">
        <ele>67.7</ele>
        <time>2017-04-29T06:30:40</time>
        <extensions><speed>1.40</speed></extensions>
      </trkpt>
      <trkpt lat="51.858955000" lon="7.606838000">
        <ele>67.7</ele>
        <time>2017-04-29T06:30:41</time>
        <extensions><speed>1.35</speed></extensions>
      </trkpt>
      <trkpt lat="51.858952000" lon="7.606817000">
        <ele>67.8</ele>
        <time>2017-04-29T06:30:42</time>
        <extensions><speed>1.42</speed></extensions>
      </trkpt>
      <trkpt lat="51.858952000" lon="7.606795000">
        <ele>67.8</ele>
        <time>2017-04-29T06:30:43</time>
        <extensions><speed>1.44</speed></extensions>
      </trkpt>
      <trkpt lat="51.858948000" lon="7.606773000">
        <ele>67.8</ele>
        <time>2017-04-29T06:30:44</time>
        <extensions><speed>1.39</speed></extensions>
      </trkpt>
      <trkpt lat="51.858948000" lon="7.606753000">
        <ele>67.9</ele>
        <time>2017-04-29T06:30:45</time>
        <extensions><speed>1.35</speed></extensions>
      </trkpt>
      <trkpt lat="51.858944000" lon="7.606735000">
        <ele>67.9</ele>
        <time>2017-04-29T06:30:46</time>
        <extensions><speed>1.34</speed></extensions>
      </trkpt>
      <trkpt lat="51.858944000" lon="7.606712000">
        <ele>67.9</ele>
        <time>2017-04-29T06:30:47</time>
        <extensions><speed>1.34</speed></extensions>
      </trkpt>
      <trkpt lat="51.858944000" lon="7.606688000">
        <ele>67.9</ele>
        <time>2017-04-29T06:30:48</time>
        <extensions><speed>1.37</speed></extensions>
      </trkpt>
      <trkpt lat="51.858944000" lon="7.606667000">
        <ele>68.0</ele>
        <time>2017-04-29T06:30:49</time>
        <extensions><speed>1.38</speed></extensions>
      </trkpt>
      <trkpt lat="51.858944000" lon="7.606645000">
        <ele>68.0</ele>
        <time>2017-04-29T06:30:50</time>
        <extensions><speed>1.38</speed></extensions>
      </trkpt>
      <trkpt lat="51.858944000" lon="7.606624000">
        <ele>68.0</ele>
        <time>2017-04-29T06:30:51</time>
        <extensions><speed>1.42</speed></extensions>
      </trkpt>
      <trkpt lat="51.858944000" lon="7.606603000">
        <ele>68.0</ele>
        <time>2017-04-29T06:30:52</time>
        <extensions><speed>1.38</speed></extensions>
      </trkpt>
      <trkpt lat="51.858944000" lon="7.606584000">
        <ele>68.1</ele>
        <time>2017-04-29T06:30:53</time>
        <extensions><speed>1.37</speed></extensions>
      </trkpt>
      <trkpt lat="51.858944000" lon="7.606563000">
        <ele>68.1</ele>
        <time>2017-04-29T06:30:54</time>
        <extensions><speed>1.37</speed></extensions>
      </trkpt>
      <trkpt lat="51.858944000" lon="7.606542000">
        <ele>68.1</ele>
        <time>2017-04-29T06:30:55</time>
        <extensions><speed>1.38</speed></extensions>
      </trkpt>
      <trkpt lat="51.858944000" lon="7.606521000">
        <ele>68.2</ele>
        <time>2017-04-29T06:30:56</time>
        <extensions><speed>1.38</speed></extensions>
      </trkpt>
      <trkpt lat="51.858940000" lon="7.606502000">
        <ele>68.2</ele>
        <time>2017-04-29T06:30:57</time>
        <extensions><speed>1.37</speed></extensions>
      </trkpt>
      <trkpt lat="51.858940000" lon="7.606484000">
        <ele>68.2</ele>
        <time>2017-04-29T06:30:58</time>
        <extensions><speed>1.31</speed></extensions>
      </trkpt>
      <trkpt lat="51.858944000" lon="7.606463000">
        <ele>68.2</ele>
        <time>2017-04-29T06:30:59</time>
        <extensions><speed>1.30</speed></extensions>
      </trkpt>
      <trkpt lat="51.858944000" lon="7.606443000">
        <ele>68.2</ele>
        <time>2017-04-29T06:31:00</time>
        <extensions><speed>1.28</speed></extensions>
      </trkpt>
      <trkpt lat="51.858940000" lon="7.606425000">
        <ele>68.3</ele>
        <time>2017-04-29T06:31:01</time>
        <extensions><speed>1.23</speed></extensions>
      </trkpt>
      <trkpt lat="51.858944000" lon="7.606409000">
        <ele>68.3</ele>
        <time>2017-04-29T06:31:02</time>
        <extensions><speed>1.24</speed></extensions>
      </trkpt>
      <trkpt lat="51.858944000" lon="7.606388000">
        <ele>68.3</ele>
        <time>2017-04-29T06:31:03</time>
        <extensions><speed>1.25</speed></extensions>
      </trkpt>
      <trkpt lat="51.858944000" lon="7.606369000">
        <ele>68.4</ele>
        <time>2017-04-29T06:31:04</time>
        <extensions><speed>1.23</speed></extensions>
      </trkpt>
      <trkpt lat="51.858948000" lon="7.606348000">
        <ele>68.4</ele>
        <time>2017-04-29T06:31:05</time>
        <extensions><speed>1.23</speed></extensions>
      </trkpt>
      <trkpt lat="51.858944000" lon="7.606328000">
        <ele>68.4</ele>
        <time>2017-04-29T06:31:06</time>
        <extensions><speed>1.23</speed></extensions>
      </trkpt>
      <trkpt lat="51.858944000" lon="7.606308000">
        <ele>68.5</ele>
        <time>2017-04-29T06:31:07</time>
        <extensions><speed>1.26</speed></extensions>
      </trkpt>
      <trkpt lat="51.858944000" lon="7.606288000">
        <ele>68.5</ele>
        <time>2017-04-29T06:31:08</time>
        <extensions><speed>1.29</speed></extensions>
      </trkpt>
      <trkpt lat="51.858944000" lon="7.606274000">
        <ele>68.5</ele>
        <time>2017-04-29T06:31:09</time>
        <extensions><speed>1.28</speed></extensions>
      </trkpt>
      <trkpt lat="51.858940000" lon="7.606256000">
        <ele>68.5</ele>
        <time>2017-04-29T06:31:10</time>
        <extensions><speed>1.22</speed></extensions>
      </trkpt>
      <trkpt lat="51.858940000" lon="7.606243000">
        <ele>68.6</ele>
        <time>2017-04-29T06:31:11</time>
        <extensions><speed>1.20</speed></extensions>
      </trkpt>
      <trkpt lat="51.858929000" lon="7.606227000">
        <ele>68.6</ele>
        <time>2017-04-29T06:31:12</time>
        <extensions><speed>1.23</speed></extensions>
      </trkpt>
      <trkpt lat="51.858925000" lon="7.606208000">
        <ele>68.6</ele>
        <time>2017-04-29T06:31:13</time>
        <extensions><speed>1.17</speed></extensions>
      </trkpt>
      <trkpt lat="51.858921000" lon="7.606186000">
        <ele>68.6</ele>
        <time>2017-04-29T06:31:14</time>
        <extensions><speed>1.22</speed></extensions>
      </trkpt>
      <trkpt lat="51.858917000" lon="7.606167000">
        <ele>68.7</ele>
        <time>2017-04-29T06:31:15</time>
        <extensions><speed>1.31</speed></extensions>
      </trkpt>
      <trkpt lat="51.858917000" lon="7.606150000">
        <ele>68.7</ele>
        <time>2017-04-29T06:31:16</time>
        <extensions><speed>1.33</speed></extensions>
      </trkpt>
      <trkpt lat="51.858917000" lon="7.606130000">
        <ele>68.7</ele>
        <time>2017-04-29T06:31:17</time>
        <extensions><speed>1.32</speed></extensions>
      </trkpt>
      <trkpt lat="51.858921000" lon="7.606110000">
        <ele>68.7</ele>
        <time>2017-04-29T06:31:18</time>
        <extensions><speed>1.36</speed></extensions>
      </trkpt>
      <trkpt lat="51.858925000" lon="7.606093000">
        <ele>68.7</ele>
        <time>2017-04-29T06:31:19</time>
        <extensions><speed>1.34</speed></extensions>
      </trkpt>
      <trkpt lat="51.858925000" lon="7.606076000">
        <ele>68.7</ele>
        <time>2017-04-29T06:31:20</time>
        <extensions><speed>1.34</speed></extensions>
      </trkpt>
      <trkpt lat="51.858925000" lon="7.606057000">
        <ele>68.8</ele>
        <time>2017-04-29T06:31:21</time>
        <extensions><speed>1.36</speed></extensions>
      </trkpt>
      <trkpt lat="51.858921000" lon="7.606040000">
        <ele>68.8</ele>
        <time>2017-04-29T06:31:22</time>
        <extensions><speed>1.33</speed></extensions>
      </trkpt>
      <trkpt lat="51.858917000" lon="7.606025000">
        <ele>68.8</ele>
        <time>2017-04-29T06:31:23</time>
        <extensions><speed>1.26</speed></extensions>
      </trkpt>
      <trkpt lat="51.858913000" lon="7.606005000">
        <ele>68.8</ele>
        <time>2017-04-29T06:31:24</time>
        <extensions><speed>1.34</speed></extensions>
      </trkpt>
      <trkpt lat="51.858913000" lon="7.605985000">
        <ele>68.9</ele>
        <time>2017-04-29T06:31:25</time>
        <extensions><speed>1.28</speed></extensions>
      </trkpt>
      <trkpt lat="51.858917000" lon="7.605966000">
        <ele>68.9</ele>
        <time>2017-04-29T06:31:26</time>
        <extensions><speed>1.31</speed></extensions>
      </trkpt>
      <trkpt lat="51.858921000" lon="7.605947000">
        <ele>68.9</ele>
        <time>2017-04-29T06:31:27</time>
        <extensions><speed>1.33</speed></extensions>
      </trkpt>
      <trkpt lat="51.858917000" lon="7.605926000">
        <ele>68.9</ele>
        <time>2017-04-29T06:31:28</time>
        <extensions><speed>1.39</speed></extensions>
      </trkpt>
      <trkpt lat="51.858913000" lon="7.605903000">
        <ele>69.0</ele>
        <time>2017-04-29T06:31:29</time>
        <extensions><speed>1.38</speed></extensions>
      </trkpt>
      <trkpt lat="51.858910000" lon="7.605885000">
        <ele>69.0</ele>
        <time>2017-04-29T06:31:30</time>
        <extensions><speed>1.39</speed></extensions>
      </trkpt>
      <trkpt lat="51.858910000" lon="7.605865000">
        <ele>69.0</ele>
        <time>2017-04-29T06:31:31</time>
        <extensions><speed>1.38</speed></extensions>
      </trkpt>
      <trkpt lat="51.858910000" lon="7.605848000">
        <ele>69.0</ele>
        <time>2017-04-29T06:31:32</time>
        <extensions><speed>1.38</speed></extensions>
      </trkpt>
      <trkpt lat="51.858910000" lon="7.605830000">
        <ele>69.1</ele>
        <time>2017-04-29T06:31:33</time>
        <extensions><speed>1.38</speed></extensions>
      </trkpt>
      <trkpt lat="51.858910000" lon="7.605812000">
        <ele>69.1</ele>
        <time>2017-04-29T06:31:34</time>
        <extensions><speed>1.30</speed></extensions>
      </trkpt>
      <trkpt lat="51.858910000" lon="7.605796000">
        <ele>69.1</ele>
        <time>2017-04-29T06:31:35</time>
        <extensions><speed>1.20</speed></extensions>
      </trkpt>
      <trkpt lat="51.858910000" lon="7.605779000">
        <ele>69.2</ele>
        <time>2017-04-29T06:31:36</time>
        <extensions><speed>1.20</speed></extensions>
      </trkpt>
      <trkpt lat="51.858910000" lon="7.605754000">
        <ele>69.2</ele>
        <time>2017-04-29T06:31:37</time>
        <extensions><speed>1.24</speed></extensions>
      </trkpt>
      <trkpt lat="51.858913000" lon="7.605735000">
        <ele>69.2</ele>
        <time>2017-04-29T06:31:38</time>
        <extensions><speed>1.19</speed></extensions>
      </trkpt>
      <trkpt lat="51.858910000" lon="7.605717000">
        <ele>69.2</ele>
        <time>2017-04-29T06:31:39</time>
        <extensions><speed>1.28</speed></extensions>
      </trkpt>
      <trkpt lat="51.858906000" lon="7.605700000">
        <ele>69.3</ele>
        <time>2017-04-29T06:31:40</time>
        <extensions><speed>1.28</speed></extensions>
      </trkpt>
      <trkpt lat="51.858906000" lon="7.605680000">
        <ele>69.3</ele>
        <time>2017-04-29T06:31:41</time>
        <extensions><speed>1.21</speed></extensions>
      </trkpt>
      <trkpt lat="51.858902000" lon="7.605658000">
        <ele>69.3</ele>
        <time>2017-04-29T06:31:42</time>
        <extensions><speed>1.17</speed></extensions>
      </trkpt>
      <trkpt lat="51.858902000" lon="7.605637000">
        <ele>69.3</ele>
        <time>2017-04-29T06:31:43</time>
        <extensions><speed>1.19</speed></extensions>
      </trkpt>
      <trkpt lat="51.858894000" lon="7.605616000">
        <ele>69.4</ele>
        <time>2017-04-29T06:31:44</time>
        <extensions><speed>1.23</speed></extensions>
      </trkpt>
      <trkpt lat="51.858891000" lon="7.605593000">
        <ele>69.4</ele>
        <time>2017-04-29T06:31:45</time>
        <extensions><speed>1.30</speed></extensions>
      </trkpt>
      <trkpt lat="51.858894000" lon="7.605572000">
        <ele>69.4</ele>
        <time>2017-04-29T06:31:46</time>
        <extensions><speed>1.35</speed></extensions>
      </trkpt>
      <trkpt lat="51.858894000" lon="7.605553000">
        <ele>69.4</ele>
        <time>2017-04-29T06:31:47</time>
        <extensions><speed>1.35</speed></extensions>
      </trkpt>
      <trkpt lat="51.858894000" lon="7.605534000">
        <ele>69.5</ele>
        <time>2017-04-29T06:31:48</time>
        <extensions><speed>1.35</speed></extensions>
      </trkpt>
      <trkpt lat="51.858891000" lon="7.605511000">
        <ele>69.5</ele>
        <time>2017-04-29T06:31:49</time>
        <extensions><speed>1.36</speed></extensions>
      </trkpt>
      <trkpt lat="51.858887000" lon="7.605492000">
        <ele>69.5</ele>
        <time>2017-04-29T06:31:50</time>
        <extensions><speed>1.35</speed></extensions>
      </trkpt>
      <trkpt lat="51.858887000" lon="7.605474000">
        <ele>69.5</ele>
        <time>2017-04-29T06:31:51</time>
        <extensions><speed>1.34</speed></extensions>
      </trkpt>
      <trkpt lat="51.858891000" lon="7.605453000">
        <ele>69.6</ele>
        <time>2017-04-29T06:31:52</time>
        <extensions><speed>1.39</speed></extensions>
      </trkpt>
      <trkpt lat="51.858891000" lon="7.605432000">
        <ele>69.6</ele>
        <time>2017-04-29T06:31:53</time>
        <extensions><speed>1.36</speed></extensions>
      </trkpt>
      <trkpt lat="51.858887000" lon="7.605408000">
        <ele>69.6</ele>
        <time>2017-04-29T06:31:54</time>
        <extensions><speed>1.37</speed></extensions>
      </trkpt>
      <trkpt lat="51.858891000" lon="7.605383000">
        <ele>69.7</ele>
        <time>2017-04-29T06:31:55</time>
        <extensions><speed>1.38</speed></extensions>
      </trkpt>
      <trkpt lat="51.858894000" lon="7.605363000">
        <ele>69.7</ele>
        <time>2017-04-29T06:31:56</time>
        <extensions><speed>1.38</speed></extensions>
      </trkpt>
      <trkpt lat="51.858894000" lon="7.605345000">
        <ele>69.7</ele>
        <time>2017-04-29T06:31:57</time>
        <extensions><speed>1.32</speed></extensions>
      </trkpt>
      <trkpt lat="51.858894000" lon="7.605329000">
        <ele>69.7</ele>
        <time>2017-04-29T06:31:58</time>
        <extensions><speed>1.32</speed></extensions>
      </trkpt>
      <trkpt lat="51.858902000" lon="7.605310000">
        <ele>69.8</ele>
        <time>2017-04-29T06:31:59</time>
        <extensions><speed>1.30</speed></extensions>
      </trkpt>
      <trkpt lat="51.858902000" lon="7.605290000">
        <ele>69.8</ele>
        <time>2017-04-29T06:32:00</time>
        <extensions><speed>1.30</speed></extensions>
      </trkpt>
      <trkpt lat="51.858902000" lon="7.605267000">
        <ele>69.8</ele>
        <time>2017-04-29T06:32:01</time>
        <extensions><speed>1.31</speed></extensions>
      </trkpt>
      <trkpt lat="51.858906000" lon="7.605243000">
        <ele>69.8</ele>
        <time>2017-04-29T06:32:02</time>
        <extensions><speed>1.32</speed></extensions>
      </trkpt>
      <trkpt lat="51.858910000" lon="7.605225000">
        <ele>69.9</ele>
        <time>2017-04-29T06:32:03</time>
        <extensions><speed>1.31</speed></extensions>
      </trkpt>
      <trkpt lat="51.858906000" lon="7.605206000">
        <ele>69.9</ele>
        <time>2017-04-29T06:32:04</time>
        <extensions><speed>1.25</speed></extensions>
      </trkpt>
      <trkpt lat="51.858902000" lon="7.605187000">
        <ele>69.9</ele>
        <time>2017-04-29T06:32:05</time>
        <extensions><speed>1.22</speed></extensions>
      </trkpt>
      <trkpt lat="51.858898000" lon="7.605168000">
        <ele>70.0</ele>
        <time>2017-04-29T06:32:06</time>
        <extensions><speed>1.21</speed></extensions>
      </trkpt>
      <trkpt lat="51.858894000" lon="7.605148000">
        <ele>70.0</ele>
        <time>2017-04-29T06:32:07</time>
        <extensions><speed>1.18</speed></extensions>
      </trkpt>
      <trkpt lat="51.858894000" lon="7.605135000">
        <ele>70.0</ele>
        <time>2017-04-29T06:32:08</time>
        <extensions><speed>1.22</speed></extensions>
      </trkpt>
      <trkpt lat="51.858898000" lon="7.605122000">
        <ele>70.0</ele>
        <time>2017-04-29T06:32:09</time>
        <extensions><speed>1.24</speed></extensions>
      </trkpt>
      <trkpt lat="51.858902000" lon="7.605103000">
        <ele>70.0</ele>
        <time>2017-04-29T06:32:10</time>
        <extensions><speed>1.28</speed></extensions>
      </trkpt>
      <trkpt lat="51.858898000" lon="7.605082000">
        <ele>70.0</ele>
        <time>2017-04-29T06:32:11</time>
        <extensions><speed>1.24</speed></extensions>
      </trkpt>
      <trkpt lat="51.858894000" lon="7.605062000">
        <ele>70.0</ele>
        <time>2017-04-29T06:32:12</time>
        <extensions><speed>1.28</speed></extensions>
      </trkpt>
      <trkpt lat="51.858902000" lon="7.605043000">
        <ele>70.0</ele>
        <time>2017-04-29T06:32:13</time>
        <extensions><speed>1.27</speed></extensions>
      </trkpt>
      <trkpt lat="51.858902000" lon="7.605026000">
        <ele>70.0</ele>
        <time>2017-04-29T06:32:14</time>
        <extensions><speed>1.26</speed></extensions>
      </trkpt>
      <trkpt lat="51.858902000" lon="7.605009000">
        <ele>70.0</ele>
        <time>2017-04-29T06:32:15</time>
        <extensions><speed>1.25</speed></extensions>
      </trkpt>
      <trkpt lat="51.858898000" lon="7.604989000">
        <ele>70.0</ele>
        <time>2017-04-29T06:32:16</time>
        <extensions><speed>1.28</speed></extensions>
      </trkpt>
      <trkpt lat="51.858898000" lon="7.604967000">
        <ele>70.0</ele>
        <time>2017-04-29T06:32:17</time>
        <extensions><speed>1.27</speed></extensions>
      </trkpt>
      <trkpt lat="51.858902000" lon="7.604947000">
        <ele>70.0</ele>
        <time>2017-04-29T06:32:18</time>
        <extensions><speed>1.29</speed></extensions>
      </trkpt>
      <trkpt lat="51.858906000" lon="7.604930000">
        <ele>70.0</ele>
        <time>2017-04-29T06:32:19</time>
        <extensions><speed>1.30</speed></extensions>
      </trkpt>
      <trkpt lat="51.858910000" lon="7.604910000">
        <ele>70.0</ele>
        <time>2017-04-29T06:32:20</time>
        <extensions><speed>1.30</speed></extensions>
      </trkpt>
      <trkpt lat="51.858910000" lon="7.604890000">
        <ele>70.0</ele>
        <time>2017-04-29T06:32:21</time>
        <extensions><speed>1.31</speed></extensions>
      </trkpt>
      <trkpt lat="51.858910000" lon="7.604872000">
        <ele>70.0</ele>
        <time>2017-04-29T06:32:22</time>
        <extensions><speed>1.31</speed></extensions>
      </trkpt>
      <trkpt lat="51.858910000" lon="7.604856000">
        <ele>70.0</ele>
        <time>2017-04-29T06:32:23</time>
        <extensions><speed>1.30</speed></extensions>
      </trkpt>
      <trkpt lat="51.858910000" lon="7.604838000">
        <ele>70.0</ele>
        <time>2017-04-29T06:32:24</time>
        <extensions><speed>1.27</speed></extensions>
      </trkpt>
      <trkpt lat="51.858910000" lon="7.604818000">
        <ele>70.0</ele>
        <time>2017-04-29T06:32:25</time>
        <extensions><speed>1.25</speed></extensions>
      </trkpt>
      <trkpt lat="51.858910000" lon="7.604798000">
        <ele>70.0</ele>
        <time>2017-04-29T06:32:26</time>
        <extensions><speed>1.22</speed></extensions>
      </trkpt>
      <trkpt lat="51.858910000" lon="7.604779000">
        <ele>70.0</ele>
        <time>2017-04-29T06:32:27</time>
        <extensions><speed>1.26</speed></extensions>
      </trkpt>
      <trkpt lat="51.858913000" lon="7.604760000">
        <ele>70.0</ele>
        <time>2017-04-29T06:32:28</time>
        <extensions><speed>1.22</speed></extensions>
      </trkpt>
      <trkpt lat="51.858913000" lon="7.604742000">
        <ele>70.0</ele>
        <time>2017-04-29T06:32:29</time>
        <extensions><speed>1.25</speed></extensions>
      </trkpt>
      <trkpt lat="51.858913000" lon="7.604722000">
        <ele>70.0</ele>
        <time>2017-04-29T06:32:30</time>
        <extensions><speed>1.26</speed></extensions>
      </trkpt>
      <trkpt lat="51.858917000" lon="7.604703000">
        <ele>70.0</ele>
        <time>2017-04-29T06:32:31</time>
        <extensions><speed>1.29</speed></extensions>
      </trkpt>
      <trkpt lat="51.858917000" lon="7.604681000">
        <ele>70.0</ele>
        <time>2017-04-29T06:32:32</time>
        <extensions><speed>1.27</speed></extensions>
      </trkpt>
      <trkpt lat="51.858921000" lon="7.604663000">
        <ele>70.0</ele>
        <time>2017-04-29T06:32:33</time>
        <extensions><speed>1.27</speed></extensions>
      </trkpt>
      <trkpt lat="51.858925000" lon="7.604650000">
        <ele>70.0</ele>
        <time>2017-04-29T06:32:34</time>
        <extensions><speed>1.22</speed></extensions>
      </trkpt>
      <trkpt lat="51.858929000" lon="7.604639000">
        <ele>70.0</ele>
        <time>2017-04-29T06:32:35</time>
        <extensions><speed>1.12</speed></extensions>
      </trkpt>
      <trkpt lat="51.858925000" lon="7.604623000">
        <ele>70.0</ele>
        <time>2017-04-29T06:32:36</time>
        <extensions><speed>1.11</speed></extensions>
      </trkpt>
      <trkpt lat="51.858925000" lon="7.604604000">
        <ele>70.0</ele>
        <time>2017-04-29T06:32:37</time>
        <extensions><speed>1.11</speed></extensions>
      </trkpt>
      <trkpt lat="51.858917000" lon="7.604583000">
        <ele>70.0</ele>
        <time>2017-04-29T06:32:38</time>
        <extensions><speed>1.18</speed></extensions>
      </trkpt>
      <trkpt lat="51.858913000" lon="7.604564000">
        <ele>70.0</ele>
        <time>2017-04-29T06:32:39</time>
        <extensions><speed>1.28</speed></extensions>
      </trkpt>
      <trkpt lat="51.858910000" lon="7.604540000">
        <ele>70.0</ele>
        <time>2017-04-29T06:32:40</time>
        <extensions><speed>1.35</speed></extensions>
      </trkpt>
      <trkpt lat="51.858910000" lon="7.604518000">
        <ele>70.0</ele>
        <time>2017-04-29T06:32:41</time>
        <extensions><speed>1.35</speed></extensions>
      </trkpt>
      <trkpt lat="51.858910000" lon="7.604501000">
        <ele>70.0</ele>
        <time>2017-04-29T06:32:42</time>
        <extensions><speed>1.37</speed></extensions>
      </trkpt>
      <trkpt lat="51.858910000" lon="7.604480000">
        <ele>70.0</ele>
        <time>2017-04-29T06:32:43</time>
        <extensions><speed>1.36</speed></extensions>
      </trkpt>
      <trkpt lat="51.858913000" lon="7.604460000">
        <ele>70.0</ele>
        <time>2017-04-29T06:32:44</time>
        <extensions><speed>1.37</speed></extensions>
      </trkpt>
      <trkpt lat="51.858917000" lon="7.604438000">
        <ele>70.0</ele>
        <time>2017-04-29T06:32:45</time>
        <extensions><speed>1.37</speed></extensions>
      </trkpt>
      <trkpt lat="51.858917000" lon="7.604418000">
        <ele>70.0</ele>
        <time>2017-04-29T06:32:46</time>
        <extensions><speed>1.39</speed></extensions>
      </trkpt>
      <trkpt lat="51.858917000" lon="7.604398000">
        <ele>70.0</ele>
        <time>2017-04-29T06:32:47</time>
        <extensions><speed>1.36</speed></extensions>
      </trkpt>
      <trkpt lat="51.858913000" lon="7.604377000">
        <ele>70.0</ele>
        <time>2017-04-29T06:32:48</time>
        <extensions><speed>1.36</speed></extensions>
      </trkpt>
      <trkpt lat="51.858910000" lon="7.604355000">
        <ele>70.0</ele>
        <time>2017-04-29T06:32:49</time>
        <extensions><speed>1.42</speed></extensions>
      </trkpt>
      <trkpt lat="51.858910000" lon="7.604333000">
        <ele>70.0</ele>
        <time>2017-04-29T06:32:50</time>
        <extensions><speed>1.38</speed></extensions>
      </trkpt>
      <trkpt lat="51.858913000" lon="7.604313000">
        <ele>70.0</ele>
        <time>2017-04-29T06:32:51</time>
        <extensions><speed>1.38</speed></extensions>
      </trkpt>
      <trkpt lat="51.858917000" lon="7.604295000">
        <ele>70.0</ele>
        <time>2017-04-29T06:32:52</time>
        <extensions><speed>1.38</speed></extensions>
      </trkpt>
      <trkpt lat="51.858917000" lon="7.604279000">
        <ele>70.0</ele>
        <time>2017-04-29T06:32:53</time>
        <extensions><speed>1.30</speed></extensions>
      </trkpt>
      <trkpt lat="51.858913000" lon="7.604258000">
        <ele>70.0</ele>
        <time>2017-04-29T06:32:54</time>
        <extensions><speed>1.30</speed></extensions>
      </trkpt>
      <trkpt lat="51.858910000" lon="7.604237000">
        <ele>70.0</ele>
        <time>2017-04-29T06:32:55</time>
        <extensions><speed>1.32</speed></extensions>
      </trkpt>
      <trkpt lat="51.858910000" lon="7.604214000">
        <ele>70.0</ele>
        <time>2017-04-29T06:32:56</time>
        <extensions><speed>1.34</speed></extensions>
      </trkpt>
      <trkpt lat="51.858910000" lon="7.604195000">
        <ele>70.0</ele>
        <time>2017-04-29T06:32:57</time>
        <extensions><speed>1.29</speed></extensions>
      </trkpt>
      <trkpt lat="51.858910000" lon="7.604178000">
        <ele>70.0</ele>
        <time>2017-04-29T06:32:58</time>
        <extensions><speed>1.40</speed></extensions>
      </trkpt>
      <trkpt lat="51.858910000" lon="7.604158000">
        <ele>70.0</ele>
        <time>2017-04-29T06:32:59</time>
        <extensions><speed>1.40</speed></extensions>
      </trkpt>
      <trkpt lat="51.858913000" lon="7.604138000">
        <ele>70.0</ele>
        <time>2017-04-29T06:33:00</time>
        <extensions><speed>1.40</speed></extensions>
      </trkpt>
      <trkpt lat="51.858913000" lon="7.604119000">
        <ele>70.0</ele>
        <time>2017-04-29T06:33:01</time>
        <extensions><speed>1.38</speed></extensions>
      </trkpt>
      <trkpt lat="51.858910000" lon="7.604100000">
        <ele>70.0</ele>
        <time>2017-04-29T06:33:02</time>
        <extensions><speed>1.38</speed></extensions>
      </trkpt>
      <trkpt lat="51.858910000" lon="7.604080000">
        <ele>70.0</ele>
        <time>2017-04-29T06:33:03</time>
        <extensions><speed>1.34</speed></extensions>
      </trkpt>
      <trkpt lat="51.858913000" lon="7.604060000">
        <ele>70.0</ele>
        <time>2017-04-29T06:33:04</time>
        <extensions><speed>1.33</speed></extensions>
      </trkpt>
      <trkpt lat="51.858913000" lon="7.604040000">
        <ele>70.0</ele>
        <time>2017-04-29T06:33:05</time>
        <extensions><speed>1.30</speed></extensions>
      </trkpt>
      <trkpt lat="51.858910000" lon="7.604022000">
        <ele>70.0</ele>
        <time>2017-04-29T06:33:06</time>
        <extensions><speed>1.20</speed></extensions>
      </trkpt>
      <trkpt lat="51.858910000" lon="7.604005000">
        <ele>70.0</ele>
        <time>2017-04-29T06:33:07</time>
        <extensions><speed>1.26</speed></extensions>
      </trkpt>
      <trkpt lat="51.858910000" lon="7.603986000">
        <ele>70.0</ele>
        <time>2017-04-29T06:33:08</time>
        <extensions><speed>1.25</speed></extensions>
      </trkpt>
      <trkpt lat="51.858910000" lon="7.603969000">
        <ele>70.0</ele>
        <time>2017-04-29T06:33:09</time>
        <extensions><speed>1.25</speed></extensions>
      </trkpt>
      <trkpt lat="51.858910000" lon="7.603951000">
        <ele>70.0</ele>
        <time>2017-04-29T06:33:10</time>
        <extensions><speed>1.17</speed></extensions>
      </trkpt>
      <trkpt lat="51.858910000" lon="7.603932000">
        <ele>70.0</ele>
        <time>2017-04-29T06:33:11</time>
        <extensions><speed>1.25</speed></extensions>
      </trkpt>
      <trkpt lat="51.858902000" lon="7.603909000">
        <ele>70.0</ele>
        <time>2017-04-29T06:33:12</time>
        <extensions><speed>1.29</speed></extensions>
      </trkpt>
      <trkpt lat="51.858902000" lon="7.603888000">
        <ele>70.0</ele>
        <time>2017-04-29T06:33:13</time>
        <extensions><speed>1.34</speed></extensions>
      </trkpt>
      <trkpt lat="51.858898000" lon="7.603867000">
        <ele>70.0</ele>
        <time>2017-04-29T06:33:14</time>
        <extensions><speed>1.35</speed></extensions>
      </trkpt>
      <trkpt lat="51.858898000" lon="7.603847000">
        <ele>70.0</ele>
        <time>2017-04-29T06:33:15</time>
        <extensions><speed>1.36</speed></extensions>
      </trkpt>
      <trkpt lat="51.858898000" lon="7.603825000">
        <ele>70.0</ele>
        <time>2017-04-29T06:33:16</time>
        <extensions><speed>1.36</speed></extensions>
      </trkpt>
      <trkpt lat="51.858898000" lon="7.603802000">
        <ele>70.0</ele>
        <time>2017-04-29T06:33:17</time>
        <extensions><speed>1.34</speed></extensions>
      </trkpt>
      <trkpt lat="51.858898000" lon="7.603783000">
        <ele>70.0</ele>
        <time>2017-04-29T06:33:18</time>
        <extensions><speed>1.33</speed></extensions>
      </trkpt>
      <trkpt lat="51.858894000" lon="7.603765000">
        <ele>70.0</ele>
        <time>2017-04-29T06:33:19</time>
        <extensions><speed>1.34</speed></extensions>
      </trkpt>
      <trkpt lat="51.858894000" lon="7.603746000">
        <ele>70.0</ele>
        <time>2017-04-29T06:33:20</time>
        <extensions><speed>1.28</speed></extensions>
      </trkpt>
      <trkpt lat="51.858894000" lon="7.603727000">
        <ele>70.0</ele>
        <time>2017-04-29T06:33:21</time>
        <extensions><speed>1.29</speed></extensions>
      </trkpt>
      <trkpt lat="51.858894000" lon="7.603704000">
        <ele>70.0</ele>
        <time>2017-04-29T06:33:22</time>
        <extensions><speed>1.31</speed></extensions>
      </trkpt>
      <trkpt lat="51.858894000" lon="7.603685000">
        <ele>70.0</ele>
        <time>2017-04-29T06:33:23</time>
        <extensions><speed>1.35</speed></extensions>
      </trkpt>
      <trkpt lat="51.858894000" lon="7.603666000">
        <ele>70.0</ele>
        <time>2017-04-29T06:33:24</time>
        <extensions><speed>1.26</speed></extensions>
      </trkpt>
      <trkpt lat="51.858891000" lon="7.603650000">
        <ele>70.0</ele>
        <time>2017-04-29T06:33:25</time>
        <extensions><speed>1.24</speed></extensions>
      </trkpt>
      <trkpt lat="51.858894000" lon="7.603631000">
        <ele>70.0</ele>
        <time>2017-04-29T06:33:26</time>
        <extensions><speed>1.18</speed></extensions>
      </trkpt>
      <trkpt lat="51.858894000" lon="7.603611000">
        <ele>70.0</ele>
        <time>2017-04-29T06:33:27</time>
        <extensions><speed>1.18</speed></extensions>
      </trkpt>
      <trkpt lat="51.858894000" lon="7.603592000">
        <ele>70.0</ele>
        <time>2017-04-29T06:33:28</time>
        <extensions><speed>1.19</speed></extensions>
      </trkpt>
      <trkpt lat="51.858898000" lon="7.603573000">
        <ele>70.0</ele>
        <time>2017-04-29T06:33:29</time>
        <extensions><speed>1.20</speed></extensions>
      </trkpt>
      <trkpt lat="51.858898000" lon="7.603554000">
        <ele>70.0</ele>
        <time>2017-04-29T06:33:30</time>
        <extensions><speed>1.30</speed></extensions>
      </trkpt>
      <trkpt lat="51.858894000" lon="7.603528000">
        <ele>70.0</ele>
        <time>2017-04-29T06:33:31</time>
        <extensions><speed>1.40</speed></extensions>
      </trkpt>
      <trkpt lat="51.858894000" lon="7.603507000">
        <ele>70.0</ele>
        <time>2017-04-29T06:33:32</time>
        <extensions><speed>1.31</speed></extensions>
      </trkpt>
      <trkpt lat="51.858894000" lon="7.603488000">
        <ele>70.0</ele>
        <time>2017-04-29T06:33:33</time>
        <extensions><speed>1.33</speed></extensions>
      </trkpt>
      <trkpt lat="51.858894000" lon="7.603470000">
        <ele>70.0</ele>
        <time>2017-04-29T06:33:34</time>
        <extensions><speed>1.36</speed></extensions>
      </trkpt>
      <trkpt lat="51.858898000" lon="7.603452000">
        <ele>70.0</ele>
        <time>2017-04-29T06:33:35</time>
        <extensions><speed>1.26</speed></extensions>
      </trkpt>
      <trkpt lat="51.858902000" lon="7.603432000">
        <ele>70.0</ele>
        <time>2017-04-29T06:33:36</time>
        <extensions><speed>1.25</speed></extensions>
      </trkpt>
      <trkpt lat="51.858898000" lon="7.603415000">
        <ele>70.0</ele>
        <time>2017-04-29T06:33:37</time>
        <extensions><speed>1.25</speed></extensions>
      </trkpt>
      <trkpt lat="51.858894000" lon="7.603396000">
        <ele>70.0</ele>
        <time>2017-04-29T06:33:38</time>
        <extensions><speed>1.24</speed></extensions>
      </trkpt>
      <trkpt lat="51.858891000" lon="7.603377000">
        <ele>70.0</ele>
        <time>2017-04-29T06:33:39</time>
        <extensions><speed>1.27</speed></extensions>
      </trkpt>
      <trkpt lat="51.858887000" lon="7.603356000">
        <ele>70.0</ele>
        <time>2017-04-29T06:33:40</time>
        <extensions><speed>1.33</speed></extensions>
      </trkpt>
      <trkpt lat="51.858883000" lon="7.603340000">
        <ele>70.0</ele>
        <time>2017-04-29T06:33:41</time>
        <extensions><speed>1.20</speed></extensions>
      </trkpt>
      <trkpt lat="51.858879000" lon="7.603323000">
        <ele>70.0</ele>
        <time>2017-04-29T06:33:42</time>
        <extensions><speed>1.32</speed></extensions>
      </trkpt>
      <trkpt lat="51.858883000" lon="7.603307000">
        <ele>70.0</ele>
        <time>2017-04-29T06:33:43</time>
        <extensions><speed>1.22</speed></extensions>
      </trkpt>
      <trkpt lat="51.858887000" lon="7.603293000">
        <ele>70.0</ele>
        <time>2017-04-29T06:33:44</time>
        <extensions><speed>1.12</speed></extensions>
      </trkpt>
      <trkpt lat="51.858883000" lon="7.603275000">
        <ele>70.0</ele>
        <time>2017-04-29T06:33:45</time>
        <extensions><speed>1.12</speed></extensions>
      </trkpt>
      <trkpt lat="51.858879000" lon="7.603255000">
        <ele>70.0</ele>
        <time>2017-04-29T06:33:46</time>
        <extensions><speed>1.24</speed></extensions>
      </trkpt>
      <trkpt lat="51.858879000" lon="7.603232000">
        <ele>70.0</ele>
        <time>2017-04-29T06:33:47</time>
        <extensions><speed>1.28</speed></extensions>
      </trkpt>
      <trkpt lat="51.858879000" lon="7.603212000">
        <ele>70.0</ele>
        <time>2017-04-29T06:33:48</time>
        <extensions><speed>1.28</speed></extensions>
      </trkpt>
      <trkpt lat="51.858879000" lon="7.603191000">
        <ele>69.9</ele>
        <time>2017-04-29T06:33:49</time>
        <extensions><speed>1.38</speed></extensions>
      </trkpt>
      <trkpt lat="51.858879000" lon="7.603167000">
        <ele>69.9</ele>
        <time>2017-04-29T06:33:50</time>
        <extensions><speed>1.44</speed></extensions>
      </trkpt>
      <trkpt lat="51.858879000" lon="7.603144000">
        <ele>69.9</ele>
        <time>2017-04-29T06:33:51</time>
        <extensions><speed>1.37</speed></extensions>
      </trkpt>
      <trkpt lat="51.858879000" lon="7.603125000">
        <ele>69.9</ele>
        <time>2017-04-29T06:33:52</time>
        <extensions><speed>1.28</speed></extensions>
      </trkpt>
      <trkpt lat="51.858879000" lon="7.603107000">
        <ele>69.9</ele>
        <time>2017-04-29T06:33:53</time>
        <extensions><speed>1.38</speed></extensions>
      </trkpt>
      <trkpt lat="51.858879000" lon="7.603086000">
        <ele>69.9</ele>
        <time>2017-04-29T06:33:54</time>
        <extensions><speed>1.28</speed></extensions>
      </trkpt>
      <trkpt lat="51.858879000" lon="7.603065000">
        <ele>69.9</ele>
        <time>2017-04-29T06:33:55</time>
        <extensions><speed>1.21</speed></extensions>
      </trkpt>
      <trkpt lat="51.858883000" lon="7.603046000">
        <ele>69.8</ele>
        <time>2017-04-29T06:33:56</time>
        <extensions><speed>1.16</speed></extensions>
      </trkpt>
      <trkpt lat="51.858887000" lon="7.603030000">
        <ele>69.8</ele>
        <time>2017-04-29T06:33:57</time>
        <extensions><speed>1.14</speed></extensions>
      </trkpt>
      <trkpt lat="51.858891000" lon="7.603012000">
        <ele>69.8</ele>
        <time>2017-04-29T06:33:58</time>
        <extensions><speed>1.14</speed></extensions>
      </trkpt>
      <trkpt lat="51.858891000" lon="7.602990000">
        <ele>69.8</ele>
        <time>2017-04-29T06:33:59</time>
        <extensions><speed>1.22</speed></extensions>
      </trkpt>
      <trkpt lat="51.858887000" lon="7.602969000">
        <ele>69.7</ele>
        <time>2017-04-29T06:34:00</time>
        <extensions><speed>1.28</speed></extensions>
      </trkpt>
      <trkpt lat="51.858887000" lon="7.602947000">
        <ele>69.7</ele>
        <time>2017-04-29T06:34:01</time>
        <extensions><speed>1.33</speed></extensions>
      </trkpt>
      <trkpt lat="51.858883000" lon="7.602930000">
        <ele>69.7</ele>
        <time>2017-04-29T06:34:02</time>
        <extensions><speed>1.33</speed></extensions>
      </trkpt>
      <trkpt lat="51.858883000" lon="7.602913000">
        <ele>69.7</ele>
        <time>2017-04-29T06:34:03</time>
        <extensions><speed>1.30</speed></extensions>
      </trkpt>
      <trkpt lat="51.858887000" lon="7.602894000">
        <ele>69.6</ele>
        <time>2017-04-29T06:34:04</time>
        <extensions><speed>1.25</speed></extensions>
      </trkpt>
      <trkpt lat="51.858887000" lon="7.602871000">
        <ele>69.6</ele>
        <time>2017-04-29T06:34:05</time>
        <extensions><speed>1.25</speed></extensions>
      </trkpt>
      <trkpt lat="51.858887000" lon="7.602852000">
        <ele>69.6</ele>
        <time>2017-04-29T06:34:06</time>
        <extensions><speed>1.23</speed></extensions>
      </trkpt>
      <trkpt lat="51.858887000" lon="7.602831000">
        <ele>69.6</ele>
        <time>2017-04-29T06:34:07</time>
        <extensions><speed>1.29</speed></extensions>
      </trkpt>
      <trkpt lat="51.858883000" lon="7.602813000">
        <ele>69.5</ele>
        <time>2017-04-29T06:34:08</time>
        <extensions><speed>1.29</speed></extensions>
      </trkpt>
      <trkpt lat="51.858887000" lon="7.602792000">
        <ele>69.5</ele>
        <time>2017-04-29T06:34:09</time>
        <extensions><speed>1.34</speed></extensions>
      </trkpt>
      <trkpt lat="51.858891000" lon="7.602773000">
        <ele>69.5</ele>
        <time>2017-04-29T06:34:10</time>
        <extensions><speed>1.32</speed></extensions>
      </trkpt>
      <trkpt lat="51.858894000" lon="7.602755000">
        <ele>69.4</ele>
        <time>2017-04-29T06:34:11</time>
        <extensions><speed>1.30</speed></extensions>
      </trkpt>
      <trkpt lat="51.858898000" lon="7.602738000">
        <ele>69.4</ele>
        <time>2017-04-29T06:34:12</time>
        <extensions><speed>1.27</speed></extensions>
      </trkpt>
      <trkpt lat="51.858898000" lon="7.602720000">
        <ele>69.4</ele>
        <time>2017-04-29T06:34:13</time>
        <extensions><speed>1.29</speed></extensions>
      </trkpt>
      <trkpt lat="51.858898000" lon="7.602702000">
        <ele>69.4</ele>
        <time>2017-04-29T06:34:14</time>
        <extensions><speed>1.28</speed></extensions>
      </trkpt>
      <trkpt lat="51.858894000" lon="7.602684000">
        <ele>69.3</ele>
        <time>2017-04-29T06:34:15</time>
        <extensions><speed>1.28</speed></extensions>
      </trkpt>
      <trkpt lat="51.858894000" lon="7.602666000">
        <ele>69.3</ele>
        <time>2017-04-29T06:34:16</time>
        <extensions><speed>1.30</speed></extensions>
      </trkpt>
      <trkpt lat="51.858887000" lon="7.602650000">
        <ele>69.3</ele>
        <time>2017-04-29T06:34:17</time>
        <extensions><speed>1.30</speed></extensions>
      </trkpt>
      <trkpt lat="51.858887000" lon="7.602630000">
        <ele>69.3</ele>
        <time>2017-04-29T06:34:18</time>
        <extensions><speed>1.28</speed></extensions>
      </trkpt>
      <trkpt lat="51.858891000" lon="7.602610000">
        <ele>69.2</ele>
        <time>2017-04-29T06:34:19</time>
        <extensions><speed>1.24</speed></extensions>
      </trkpt>
      <trkpt lat="51.858891000" lon="7.602588000">
        <ele>69.2</ele>
        <time>2017-04-29T06:34:20</time>
        <extensions><speed>1.27</speed></extensions>
      </trkpt>
      <trkpt lat="51.858891000" lon="7.602565000">
        <ele>69.2</ele>
        <time>2017-04-29T06:34:21</time>
        <extensions><speed>1.26</speed></extensions>
      </trkpt>
      <trkpt lat="51.858894000" lon="7.602543000">
        <ele>69.2</ele>
        <time>2017-04-29T06:34:22</time>
        <extensions><speed>1.32</speed></extensions>
      </trkpt>
      <trkpt lat="51.858891000" lon="7.602525000">
        <ele>69.1</ele>
        <time>2017-04-29T06:34:23</time>
        <extensions><speed>1.35</speed></extensions>
      </trkpt>
      <trkpt lat="51.858891000" lon="7.602503000">
        <ele>69.1</ele>
        <time>2017-04-29T06:34:24</time>
        <extensions><speed>1.43</speed></extensions>
      </trkpt>
      <trkpt lat="51.858887000" lon="7.602480000">
        <ele>69.1</ele>
        <time>2017-04-29T06:34:25</time>
        <extensions><speed>1.41</speed></extensions>
      </trkpt>
      <trkpt lat="51.858891000" lon="7.602460000">
        <ele>69.0</ele>
        <time>2017-04-29T06:34:26</time>
        <extensions><speed>1.39</speed></extensions>
      </trkpt>
      <trkpt lat="51.858894000" lon="7.602437000">
        <ele>69.0</ele>
        <time>2017-04-29T06:34:27</time>
        <extensions><speed>1.37</speed></extensions>
      </trkpt>
      <trkpt lat="51.858898000" lon="7.602413000">
        <ele>69.0</ele>
        <time>2017-04-29T06:34:28</time>
        <extensions><speed>1.40</speed></extensions>
      </trkpt>
      <trkpt lat="51.858894000" lon="7.602392000">
        <ele>69.0</ele>
        <time>2017-04-29T06:34:29</time>
        <extensions><speed>1.39</speed></extensions>
      </trkpt>
      <trkpt lat="51.858891000" lon="7.602372000">
        <ele>69.0</ele>
        <time>2017-04-29T06:34:30</time>
        <extensions><speed>1.40</speed></extensions>
      </trkpt>
      <trkpt lat="51.858891000" lon="7.602353000">
        <ele>69.0</ele>
        <time>2017-04-29T06:34:31</time>
        <extensions><speed>1.40</speed></extensions>
      </trkpt>
      <trkpt lat="51.858883000" lon="7.602339000">
        <ele>69.0</ele>
        <time>2017-04-29T06:34:32</time>
        <extensions><speed>1.38</speed></extensions>
      </trkpt>
      <trkpt lat="51.858879000" lon="7.602322000">
        <ele>69.0</ele>
        <time>2017-04-29T06:34:33</time>
        <extensions><speed>1.34</speed></extensions>
      </trkpt>
      <trkpt lat="51.858879000" lon="7.602302000">
        <ele>69.0</ele>
        <time>2017-04-29T06:34:34</time>
        <extensions><speed>1.33</speed></extensions>
      </trkpt>
      <trkpt lat="51.858883000" lon="7.602280000">
        <ele>69.0</ele>
        <time>2017-04-29T06:34:35</time>
        <extensions><speed>1.33</speed></extensions>
      </trkpt>
      <trkpt lat="51.858883000" lon="7.602260000">
        <ele>69.0</ele>
        <time>2017-04-29T06:34:36</time>
        <extensions><speed>1.33</speed></extensions>
      </trkpt>
      <trkpt lat="51.858887000" lon="7.602239000">
        <ele>69.0</ele>
        <time>2017-04-29T06:34:37</time>
        <extensions><speed>1.33</speed></extensions>
      </trkpt>
      <trkpt lat="51.858891000" lon="7.602217000">
        <ele>69.0</ele>
        <time>2017-04-29T06:34:38</time>
        <extensions><speed>1.35</speed></extensions>
      </trkpt>
      <trkpt lat="51.858891000" lon="7.602195000">
        <ele>69.0</ele>
        <time>2017-04-29T06:34:39</time>
        <extensions><speed>1.38</speed></extensions>
      </trkpt>
      <trkpt lat="51.858887000" lon="7.602175000">
        <ele>69.0</ele>
        <time>2017-04-29T06:34:40</time>
        <extensions><speed>1.38</speed></extensions>
      </trkpt>
      <trkpt lat="51.858887000" lon="7.602160000">
        <ele>69.0</ele>
        <time>2017-04-29T06:34:41</time>
        <extensions><speed>1.33</speed></extensions>
      </trkpt>
      <trkpt lat="51.858883000" lon="7.602141000">
        <ele>69.0</ele>
        <time>2017-04-29T06:34:42</time>
        <extensions><speed>1.27</speed></extensions>
      </trkpt>
      <trkpt lat="51.858887000" lon="7.602118000">
        <ele>69.0</ele>
        <time>2017-04-29T06:34:43</time>
        <extensions><speed>1.25</speed></extensions>
      </trkpt>
      <trkpt lat="51.858887000" lon="7.602095000">
        <ele>69.0</ele>
        <time>2017-04-29T06:34:44</time>
        <extensions><speed>1.25</speed></extensions>
      </trkpt>
      <trkpt lat="51.858887000" lon="7.602077000">
        <ele>69.0</ele>
        <time>2017-04-29T06:34:45</time>
        <extensions><speed>1.31</speed></extensions>
      </trkpt>
      <trkpt lat="51.858883000" lon="7.602054000">
        <ele>69.0</ele>
        <time>2017-04-29T06:34:46</time>
        <extensions><speed>1.36</speed></extensions>
      </trkpt>
      <trkpt lat="51.858887000" lon="7.602031000">
        <ele>69.0</ele>
        <time>2017-04-29T06:34:47</time>
        <extensions><speed>1.36</speed></extensions>
      </trkpt>
      <trkpt lat="51.858887000" lon="7.602010000">
        <ele>69.0</ele>
        <time>2017-04-29T06:34:48</time>
        <extensions><speed>1.34</speed></extensions>
      </trkpt>
      <trkpt lat="51.858887000" lon="7.601989000">
        <ele>69.0</ele>
        <time>2017-04-29T06:34:49</time>
        <extensions><speed>1.36</speed></extensions>
      </trkpt>
      <trkpt lat="51.858891000" lon="7.601968000">
        <ele>69.0</ele>
        <time>2017-04-29T06:34:50</time>
        <extensions><speed>1.37</speed></extensions>
      </trkpt>
      <trkpt lat="51.858891000" lon="7.601950000">
        <ele>69.0</ele>
        <time>2017-04-29T06:34:51</time>
        <extensions><speed>1.34</speed></extensions>
      </trkpt>
      <trkpt lat="51.858887000" lon="7.601933000">
        <ele>69.0</ele>
        <time>2017-04-29T06:34:52</time>
        <extensions><speed>1.34</speed></extensions>
      </trkpt>
      <trkpt lat="51.858883000" lon="7.601913000">
        <ele>69.0</ele>
        <time>2017-04-29T06:34:53</time>
        <extensions><speed>1.36</speed></extensions>
      </trkpt>
      <trkpt lat="51.858883000" lon="7.601895000">
        <ele>69.0</ele>
        <time>2017-04-29T06:34:54</time>
        <extensions><speed>1.32</speed></extensions>
      </trkpt>
      <trkpt lat="51.858887000" lon="7.601880000">
        <ele>69.0</ele>
        <time>2017-04-29T06:34:55</time>
        <extensions><speed>1.28</speed></extensions>
      </trkpt>
      <trkpt lat="51.858887000" lon="7.601860000">
        <ele>69.0</ele>
        <time>2017-04-29T06:34:56</time>
        <extensions><speed>1.29</speed></extensions>
      </trkpt>
      <trkpt lat="51.858887000" lon="7.601840000">
        <ele>69.0</ele>
        <time>2017-04-29T06:34:57</time>
        <extensions><speed>1.29</speed></extensions>
      </trkpt>
      <trkpt lat="51.858887000" lon="7.601820000">
        <ele>69.0</ele>
        <time>2017-04-29T06:34:58</time>
        <extensions><speed>1.31</speed></extensions>
      </trkpt>
      <trkpt lat="51.858887000" lon="7.601798000">
        <ele>69.0</ele>
        <time>2017-04-29T06:34:59</time>
        <extensions><speed>1.38</speed></extensions>
      </trkpt>
      <trkpt lat="51.858891000" lon="7.601780000">
        <ele>69.0</ele>
        <time>2017-04-29T06:35:00</time>
        <extensions><speed>1.41</speed></extensions>
      </trkpt>
      <trkpt lat="51.858894000" lon="7.601763000">
        <ele>68.9</ele>
        <time>2017-04-29T06:35:01</time>
        <extensions><speed>1.35</speed></extensions>
      </trkpt>
      <trkpt lat="51.858898000" lon="7.601747000">
        <ele>68.9</ele>
        <time>2017-04-29T06:35:02</time>
        <extensions><speed>1.34</speed></extensions>
      </trkpt>
      <trkpt lat="51.858898000" lon="7.601727000">
        <ele>68.9</ele>
        <time>2017-04-29T06:35:03</time>
        <extensions><speed>1.32</speed></extensions>
      </trkpt>
      <trkpt lat="51.858898000" lon="7.601707000">
        <ele>68.9</ele>
        <time>2017-04-29T06:35:04</time>
        <extensions><speed>1.31</speed></extensions>
      </trkpt>
      <trkpt lat="51.858894000" lon="7.601690000">
        <ele>68.9</ele>
        <time>2017-04-29T06:35:05</time>
        <extensions><speed>1.33</speed></extensions>
      </trkpt>
      <trkpt lat="51.858891000" lon="7.601668000">
        <ele>68.9</ele>
        <time>2017-04-29T06:35:06</time>
        <extensions><speed>1.40</speed></extensions>
      </trkpt>
      <trkpt lat="51.858887000" lon="7.601648000">
        <ele>68.9</ele>
        <time>2017-04-29T06:35:07</time>
        <extensions><speed>1.40</speed></extensions>
      </trkpt>
      <trkpt lat="51.858887000" lon="7.601630000">
        <ele>68.8</ele>
        <time>2017-04-29T06:35:08</time>
        <extensions><speed>1.37</speed></extensions>
      </trkpt>
      <trkpt lat="51.858887000" lon="7.601612000">
        <ele>68.8</ele>
        <time>2017-04-29T06:35:09</time>
        <extensions><speed>1.31</speed></extensions>
      </trkpt>
      <trkpt lat="51.858891000" lon="7.601593000">
        <ele>68.8</ele>
        <time>2017-04-29T06:35:10</time>
        <extensions><speed>1.27</speed></extensions>
      </trkpt>
      <trkpt lat="51.858887000" lon="7.601575000">
        <ele>68.7</ele>
        <time>2017-04-29T06:35:11</time>
        <extensions><speed>1.27</speed></extensions>
      </trkpt>
      <trkpt lat="51.858891000" lon="7.601555000">
        <ele>68.7</ele>
        <time>2017-04-29T06:35:12</time>
        <extensions><speed>1.27</speed></extensions>
      </trkpt>
      <trkpt lat="51.858894000" lon="7.601532000">
        <ele>68.7</ele>
        <time>2017-04-29T06:35:13</time>
        <extensions><speed>1.33</speed></extensions>
      </trkpt>
      <trkpt lat="51.858902000" lon="7.601511000">
        <ele>68.6</ele>
        <time>2017-04-29T06:35:14</time>
        <extensions><speed>1.33</speed></extensions>
      </trkpt>
      <trkpt lat="51.858902000" lon="7.601492000">
        <ele>68.6</ele>
        <time>2017-04-29T06:35:15</time>
        <extensions><speed>1.34</speed></extensions>
      </trkpt>
      <trkpt lat="51.858898000" lon="7.601472000">
        <ele>68.6</ele>
        <time>2017-04-29T06:35:16</time>
        <extensions><speed>1.34</speed></extensions>
      </trkpt>
      <trkpt lat="51.858898000" lon="7.601450000">
        <ele>68.6</ele>
        <time>2017-04-29T06:35:17</time>
        <extensions><speed>1.37</speed></extensions>
      </trkpt>
      <trkpt lat="51.858898000" lon="7.601427000">
        <ele>68.5</ele>
        <time>2017-04-29T06:35:18</time>
        <extensions><speed>1.41</speed></extensions>
      </trkpt>
      <trkpt lat="51.858906000" lon="7.601406000">
        <ele>68.5</ele>
        <time>2017-04-29T06:35:19</time>
        <extensions><speed>1.41</speed></extensions>
      </trkpt>
      <trkpt lat="51.858910000" lon="7.601387000">
        <ele>68.5</ele>
        <time>2017-04-29T06:35:20</time>
        <extensions><speed>1.47</speed></extensions>
      </trkpt>
      <trkpt lat="51.858910000" lon="7.601366000">
        <ele>68.5</ele>
        <time>2017-04-29T06:35:21</time>
        <extensions><speed>1.49</speed></extensions>
      </trkpt>
      <trkpt lat="51.858906000" lon="7.601346000">
        <ele>68.4</ele>
        <time>2017-04-29T06:35:22</time>
        <extensions><speed>1.53</speed></extensions>
      </trkpt>
      <trkpt lat="51.858902000" lon="7.601327000">
        <ele>68.4</ele>
        <time>2017-04-29T06:35:23</time>
        <extensions><speed>1.50</speed></extensions>
      </trkpt>
      <trkpt lat="51.858902000" lon="7.601306000">
        <ele>68.4</ele>
        <time>2017-04-29T06:35:24</time>
        <extensions><speed>1.50</speed></extensions>
      </trkpt>
      <trkpt lat="51.858910000" lon="7.601284000">
        <ele>68.3</ele>
        <time>2017-04-29T06:35:25</time>
        <extensions><speed>1.45</speed></extensions>
      </trkpt>
      <trkpt lat="51.858910000" lon="7.601260000">
        <ele>68.3</ele>
        <time>2017-04-29T06:35:26</time>
        <extensions><speed>1.39</speed></extensions>
      </trkpt>
      <trkpt lat="51.858910000" lon="7.601236000">
        <ele>68.3</ele>
        <time>2017-04-29T06:35:27</time>
        <extensions><speed>1.37</speed></extensions>
      </trkpt>
      <trkpt lat="51.858910000" lon="7.601215000">
        <ele>68.2</ele>
        <time>2017-04-29T06:35:28</time>
        <extensions><speed>1.37</speed></extensions>
      </trkpt>
      <trkpt lat="51.858910000" lon="7.601194000">
        <ele>68.2</ele>
        <time>2017-04-29T06:35:29</time>
        <extensions><speed>1.36</speed></extensions>
      </trkpt>
      <trkpt lat="51.858910000" lon="7.601171000">
        <ele>68.2</ele>
        <time>2017-04-29T06:35:30</time>
        <extensions><speed>1.38</speed></extensions>
      </trkpt>
      <trkpt lat="51.858910000" lon="7.601149000">
        <ele>68.2</ele>
        <time>2017-04-29T06:35:31</time>
        <extensions><speed>1.40</speed></extensions>
      </trkpt>
      <trkpt lat="51.858906000" lon="7.601125000">
        <ele>68.1</ele>
        <time>2017-04-29T06:35:32</time>
        <extensions><speed>1.47</speed></extensions>
      </trkpt>
      <trkpt lat="51.858906000" lon="7.601103000">
        <ele>68.1</ele>
        <time>2017-04-29T06:35:33</time>
        <extensions><speed>1.44</speed></extensions>
      </trkpt>
      <trkpt lat="51.858910000" lon="7.601080000">
        <ele>68.1</ele>
        <time>2017-04-29T06:35:34</time>
        <extensions><speed>1.46</speed></extensions>
      </trkpt>
      <trkpt lat="51.858910000" lon="7.601060000">
        <ele>68.0</ele>
        <time>2017-04-29T06:35:35</time>
        <extensions><speed>1.44</speed></extensions>
      </trkpt>
      <trkpt lat="51.858910000" lon="7.601037000">
        <ele>68.0</ele>
        <time>2017-04-29T06:35:36</time>
        <extensions><speed>1.36</speed></extensions>
      </trkpt>
      <trkpt lat="51.858913000" lon="7.601017000">
        <ele>68.0</ele>
        <time>2017-04-29T06:35:37</time>
        <extensions><speed>1.35</speed></extensions>
      </trkpt>
      <trkpt lat="51.858917000" lon="7.600998000">
        <ele>67.9</ele>
        <time>2017-04-29T06:35:38</time>
        <extensions><speed>1.32</speed></extensions>
      </trkpt>
      <trkpt lat="51.858913000" lon="7.600978000">
        <ele>67.9</ele>
        <time>2017-04-29T06:35:39</time>
        <extensions><speed>1.30</speed></extensions>
      </trkpt>
      <trkpt lat="51.858913000" lon="7.600960000">
        <ele>67.9</ele>
        <time>2017-04-29T06:35:40</time>
        <extensions><speed>1.29</speed></extensions>
      </trkpt>
      <trkpt lat="51.858913000" lon="7.600945000">
        <ele>67.8</ele>
        <time>2017-04-29T06:35:41</time>
        <extensions><speed>1.24</speed></extensions>
      </trkpt>
      <trkpt lat="51.858910000" lon="7.600925000">
        <ele>67.8</ele>
        <time>2017-04-29T06:35:42</time>
        <extensions><speed>1.24</speed></extensions>
      </trkpt>
      <trkpt lat="51.858913000" lon="7.600914000">
        <ele>67.7</ele>
        <time>2017-04-29T06:35:44</time>
      </trkpt>
      <trkpt lat="51.858925000" lon="7.600893000">
        <ele>67.7</ele>
        <time>2017-04-29T06:35:46</time>
        <extensions><speed>0.90</speed></extensions>
      </trkpt>
      <trkpt lat="51.858929000" lon="7.600877000">
        <ele>67.7</ele>
        <time>2017-04-29T06:35:47</time>
        <extensions><speed>0.85</speed></extensions>
      </trkpt>
      <trkpt lat="51.858929000" lon="7.600862000">
        <ele>67.7</ele>
        <time>2017-04-29T06:35:48</time>
        <extensions><speed>1.14</speed></extensions>
      </trkpt>
      <trkpt lat="51.858936000" lon="7.600853000">
        <ele>67.6</ele>
        <time>2017-04-29T06:35:49</time>
        <extensions><speed>1.14</speed></extensions>
      </trkpt>
      <trkpt lat="51.858944000" lon="7.600850000">
        <ele>67.6</ele>
        <time>2017-04-29T06:35:50</time>
        <extensions><speed>1.10</speed></extensions>
      </trkpt>
      <trkpt lat="51.858955000" lon="7.600842000">
        <ele>67.6</ele>
        <time>2017-04-29T06:35:51</time>
        <extensions><speed>1.10</speed></extensions>
      </trkpt>
      <trkpt lat="51.858971000" lon="7.600835000">
        <ele>67.6</ele>
        <time>2017-04-29T06:35:52</time>
        <extensions><speed>1.17</speed></extensions>
      </trkpt>
      <trkpt lat="51.858982000" lon="7.600830000">
        <ele>67.6</ele>
        <time>2017-04-29T06:35:53</time>
        <extensions><speed>1.29</speed></extensions>
      </trkpt>
      <trkpt lat="51.858994000" lon="7.600820000">
        <ele>67.6</ele>
        <time>2017-04-29T06:35:54</time>
        <extensions><speed>1.30</speed></extensions>
      </trkpt>
      <trkpt lat="51.859001000" lon="7.600809000">
        <ele>67.5</ele>
        <time>2017-04-29T06:35:55</time>
        <extensions><speed>1.35</speed></extensions>
      </trkpt>
      <trkpt lat="51.859009000" lon="7.600795000">
        <ele>67.5</ele>
        <time>2017-04-29T06:35:56</time>
        <extensions><speed>1.32</speed></extensions>
      </trkpt>
      <trkpt lat="51.859020000" lon="7.600785000">
        <ele>67.5</ele>
        <time>2017-04-29T06:35:57</time>
        <extensions><speed>1.29</speed></extensions>
      </trkpt>
      <trkpt lat="51.859035000" lon="7.600780000">
        <ele>67.5</ele>
        <time>2017-04-29T06:35:58</time>
        <extensions><speed>1.33</speed></extensions>
      </trkpt>
      <trkpt lat="51.859039000" lon="7.600772000">
        <ele>67.5</ele>
        <time>2017-04-29T06:35:59</time>
        <extensions><speed>1.33</speed></extensions>
      </trkpt>
      <trkpt lat="51.859047000" lon="7.600762000">
        <ele>67.5</ele>
        <time>2017-04-29T06:36:00</time>
        <extensions><speed>1.35</speed></extensions>
      </trkpt>
      <trkpt lat="51.859058000" lon="7.600755000">
        <ele>67.5</ele>
        <time>2017-04-29T06:36:01</time>
        <extensions><speed>1.30</speed></extensions>
      </trkpt>
      <trkpt lat="51.859070000" lon="7.600757000">
        <ele>67.5</ele>
        <time>2017-04-29T06:36:02</time>
        <extensions><speed>1.23</speed></extensions>
      </trkpt>
      <trkpt lat="51.859077000" lon="7.600751000">
        <ele>67.5</ele>
        <time>2017-04-29T06:36:03</time>
        <extensions><speed>1.21</speed></extensions>
      </trkpt>
      <trkpt lat="51.859093000" lon="7.600746000">
        <ele>67.4</ele>
        <time>2017-04-29T06:36:04</time>
        <extensions><speed>1.32</speed></extensions>
      </trkpt>
      <trkpt lat="51.859104000" lon="7.600742000">
        <ele>67.4</ele>
        <time>2017-04-29T06:36:05</time>
        <extensions><speed>1.32</speed></extensions>
      </trkpt>
      <trkpt lat="51.859119000" lon="7.600732000">
        <ele>67.4</ele>
        <time>2017-04-29T06:36:06</time>
        <extensions><speed>1.40</speed></extensions>
      </trkpt>
      <trkpt lat="51.859127000" lon="7.600723000">
        <ele>67.4</ele>
        <time>2017-04-29T06:36:07</time>
        <extensions><speed>1.40</speed></extensions>
      </trkpt>
      <trkpt lat="51.859135000" lon="7.600717000">
        <ele>67.4</ele>
        <time>2017-04-29T06:36:08</time>
        <extensions><speed>1.33</speed></extensions>
      </trkpt>
      <trkpt lat="51.859138000" lon="7.600709000">
        <ele>67.4</ele>
        <time>2017-04-29T06:36:09</time>
      </trkpt>
      <trkpt lat="51.859150000" lon="7.600704000">
        <ele>67.4</ele>
        <time>2017-04-29T06:36:11</time>
        <extensions><speed>0.97</speed></extensions>
      </trkpt>
      <trkpt lat="51.859161000" lon="7.600698000">
        <ele>67.4</ele>
        <time>2017-04-29T06:36:12</time>
        <extensions><speed>1.03</speed></extensions>
      </trkpt>
      <trkpt lat="51.859173000" lon="7.600688000">
        <ele>67.4</ele>
        <time>2017-04-29T06:36:13</time>
        <extensions><speed>1.13</speed></extensions>
      </trkpt>
      <trkpt lat="51.859188000" lon="7.600677000">
        <ele>67.3</ele>
        <time>2017-04-29T06:36:14</time>
        <extensions><speed>1.33</speed></extensions>
      </trkpt>
      <trkpt lat="51.859200000" lon="7.600665000">
        <ele>67.3</ele>
        <time>2017-04-29T06:36:15</time>
        <extensions><speed>1.37</speed></extensions>
      </trkpt>
      <trkpt lat="51.859211000" lon="7.600660000">
        <ele>67.3</ele>
        <time>2017-04-29T06:36:16</time>
        <extensions><speed>1.33</speed></extensions>
      </trkpt>
      <trkpt lat="51.859226000" lon="7.600655000">
        <ele>67.3</ele>
        <time>2017-04-29T06:36:17</time>
        <extensions><speed>1.32</speed></extensions>
      </trkpt>
      <trkpt lat="51.859238000" lon="7.600646000">
        <ele>67.3</ele>
        <time>2017-04-29T06:36:18</time>
        <extensions><speed>1.34</speed></extensions>
      </trkpt>
      <trkpt lat="51.859249000" lon="7.600638000">
        <ele>67.3</ele>
        <time>2017-04-29T06:36:19</time>
        <extensions><speed>1.36</speed></extensions>
      </trkpt>
      <trkpt lat="51.859264000" lon="7.600630000">
        <ele>67.3</ele>
        <time>2017-04-29T06:36:20</time>
        <extensions><speed>1.36</speed></extensions>
      </trkpt>
      <trkpt lat="51.859272000" lon="7.600618000">
        <ele>67.3</ele>
        <time>2017-04-29T06:36:21</time>
        <extensions><speed>1.38</speed></extensions>
      </trkpt>
      <trkpt lat="51.859287000" lon="7.600608000">
        <ele>67.3</ele>
        <time>2017-04-29T06:36:22</time>
        <extensions><speed>1.38</speed></extensions>
      </trkpt>
      <trkpt lat="51.859299000" lon="7.600597000">
        <ele>67.2</ele>
        <time>2017-04-29T06:36:23</time>
        <extensions><speed>1.38</speed></extensions>
      </trkpt>
      <trkpt lat="51.859314000" lon="7.600583000">
        <ele>67.2</ele>
        <time>2017-04-29T06:36:24</time>
        <extensions><speed>1.40</speed></extensions>
      </trkpt>
      <trkpt lat="51.859329000" lon="7.600571000">
        <ele>67.2</ele>
        <time>2017-04-29T06:36:25</time>
        <extensions><speed>1.38</speed></extensions>
      </trkpt>
      <trkpt lat="51.859341000" lon="7.600562000">
        <ele>67.2</ele>
        <time>2017-04-29T06:36:26</time>
        <extensions><speed>1.36</speed></extensions>
      </trkpt>
      <trkpt lat="51.859348000" lon="7.600550000">
        <ele>67.2</ele>
        <time>2017-04-29T06:36:27</time>
        <extensions><speed>1.36</speed></extensions>
      </trkpt>
      <trkpt lat="51.859360000" lon="7.600536000">
        <ele>67.2</ele>
        <time>2017-04-29T06:36:28</time>
        <extensions><speed>1.33</speed></extensions>
      </trkpt>
      <trkpt lat="51.859367000" lon="7.600522000">
        <ele>67.2</ele>
        <time>2017-04-29T06:36:29</time>
        <extensions><speed>1.29</speed></extensions>
      </trkpt>
      <trkpt lat="51.859375000" lon="7.600508000">
        <ele>67.1</ele>
        <time>2017-04-29T06:36:30</time>
        <extensions><speed>1.29</speed></extensions>
      </trkpt>
      <trkpt lat="51.859386000" lon="7.600495000">
        <ele>67.1</ele>
        <time>2017-04-29T06:36:31</time>
        <extensions><speed>1.32</speed></extensions>
      </trkpt>
      <trkpt lat="51.859398000" lon="7.600487000">
        <ele>67.1</ele>
        <time>2017-04-29T06:36:32</time>
        <extensions><speed>1.33</speed></extensions>
      </trkpt>
      <trkpt lat="51.859409000" lon="7.600475000">
        <ele>67.1</ele>
        <time>2017-04-29T06:36:33</time>
        <extensions><speed>1.34</speed></extensions>
      </trkpt>
      <trkpt lat="51.859417000" lon="7.600462000">
        <ele>67.1</ele>
        <time>2017-04-29T06:36:34</time>
        <extensions><speed>1.34</speed></extensions>
      </trkpt>
      <trkpt lat="51.859425000" lon="7.600449000">
        <ele>67.1</ele>
        <time>2017-04-29T06:36:35</time>
        <extensions><speed>1.28</speed></extensions>
      </trkpt>
      <trkpt lat="51.859432000" lon="7.600433000">
        <ele>67.0</ele>
        <time>2017-04-29T06:36:36</time>
        <extensions><speed>1.24</speed></extensions>
      </trkpt>
      <trkpt lat="51.859440000" lon="7.600417000">
        <ele>67.0</ele>
        <time>2017-04-29T06:36:37</time>
        <extensions><speed>1.26</speed></extensions>
      </trkpt>
      <trkpt lat="51.859447000" lon="7.600399000">
        <ele>67.0</ele>
        <time>2017-04-29T06:36:38</time>
        <extensions><speed>1.19</speed></extensions>
      </trkpt>
      <trkpt lat="51.859455000" lon="7.600385000">
        <ele>67.0</ele>
        <time>2017-04-29T06:36:39</time>
        <extensions><speed>1.19</speed></extensions>
      </trkpt>
      <trkpt lat="51.859463000" lon="7.600371000">
        <ele>67.0</ele>
        <time>2017-04-29T06:36:40</time>
        <extensions><speed>1.18</speed></extensions>
      </trkpt>
      <trkpt lat="51.859470000" lon="7.600359000">
        <ele>66.9</ele>
        <time>2017-04-29T06:36:41</time>
        <extensions><speed>1.14</speed></extensions>
      </trkpt>
      <trkpt lat="51.859478000" lon="7.600343000">
        <ele>66.9</ele>
        <time>2017-04-29T06:36:42</time>
        <extensions><speed>1.14</speed></extensions>
      </trkpt>
      <trkpt lat="51.859486000" lon="7.600326000">
        <ele>66.9</ele>
        <time>2017-04-29T06:36:43</time>
        <extensions><speed>1.22</speed></extensions>
      </trkpt>
      <trkpt lat="51.859497000" lon="7.600315000">
        <ele>66.9</ele>
        <time>2017-04-29T06:36:44</time>
        <extensions><speed>1.34</speed></extensions>
      </trkpt>
      <trkpt lat="51.859509000" lon="7.600303000">
        <ele>66.9</ele>
        <time>2017-04-29T06:36:45</time>
        <extensions><speed>1.38</speed></extensions>
      </trkpt>
      <trkpt lat="51.859524000" lon="7.600290000">
        <ele>66.8</ele>
        <time>2017-04-29T06:36:46</time>
        <extensions><speed>1.38</speed></extensions>
      </trkpt>
      <trkpt lat="51.859531000" lon="7.600272000">
        <ele>66.8</ele>
        <time>2017-04-29T06:36:47</time>
        <extensions><speed>1.34</speed></extensions>
      </trkpt>
      <trkpt lat="51.859531000" lon="7.600252000">
        <ele>66.8</ele>
        <time>2017-04-29T06:36:48</time>
        <extensions><speed>1.37</speed></extensions>
      </trkpt>
      <trkpt lat="51.859539000" lon="7.600232000">
        <ele>66.8</ele>
        <time>2017-04-29T06:36:49</time>
        <extensions><speed>1.33</speed></extensions>
      </trkpt>
      <trkpt lat="51.859543000" lon="7.600215000">
        <ele>66.8</ele>
        <time>2017-04-29T06:36:50</time>
        <extensions><speed>1.35</speed></extensions>
      </trkpt>
      <trkpt lat="51.859550000" lon="7.600202000">
        <ele>66.7</ele>
        <time>2017-04-29T06:36:51</time>
        <extensions><speed>1.37</speed></extensions>
      </trkpt>
      <trkpt lat="51.859562000" lon="7.600186000">
        <ele>66.7</ele>
        <time>2017-04-29T06:36:52</time>
        <extensions><speed>1.37</speed></extensions>
      </trkpt>
      <trkpt lat="51.859570000" lon="7.600172000">
        <ele>66.7</ele>
        <time>2017-04-29T06:36:53</time>
        <extensions><speed>1.37</speed></extensions>
      </trkpt>
      <trkpt lat="51.859581000" lon="7.600155000">
        <ele>66.7</ele>
        <time>2017-04-29T06:36:54</time>
        <extensions><speed>1.37</speed></extensions>
      </trkpt>
      <trkpt lat="51.859589000" lon="7.600142000">
        <ele>66.6</ele>
        <time>2017-04-29T06:36:55</time>
        <extensions><speed>1.35</speed></extensions>
      </trkpt>
      <trkpt lat="51.859596000" lon="7.600130000">
        <ele>66.6</ele>
        <time>2017-04-29T06:36:56</time>
        <extensions><speed>1.33</speed></extensions>
      </trkpt>
      <trkpt lat="51.859600000" lon="7.600115000">
        <ele>66.6</ele>
        <time>2017-04-29T06:36:57</time>
        <extensions><speed>1.33</speed></extensions>
      </trkpt>
      <trkpt lat="51.859608000" lon="7.600095000">
        <ele>66.6</ele>
        <time>2017-04-29T06:36:58</time>
        <extensions><speed>1.33</speed></extensions>
      </trkpt>
      <trkpt lat="51.859619000" lon="7.600077000">
        <ele>66.5</ele>
        <time>2017-04-29T06:36:59</time>
        <extensions><speed>1.38</speed></extensions>
      </trkpt>
      <trkpt lat="51.859627000" lon="7.600063000">
        <ele>66.5</ele>
        <time>2017-04-29T06:37:00</time>
        <extensions><speed>1.38</speed></extensions>
      </trkpt>
      <trkpt lat="51.859634000" lon="7.600055000">
        <ele>66.5</ele>
        <time>2017-04-29T06:37:01</time>
        <extensions><speed>1.41</speed></extensions>
      </trkpt>
      <trkpt lat="51.859646000" lon="7.600042000">
        <ele>66.5</ele>
        <time>2017-04-29T06:37:02</time>
        <extensions><speed>1.35</speed></extensions>
      </trkpt>
      <trkpt lat="51.859653000" lon="7.600025000">
        <ele>66.5</ele>
        <time>2017-04-29T06:37:03</time>
        <extensions><speed>1.38</speed></extensions>
      </trkpt>
      <trkpt lat="51.859661000" lon="7.600010000">
        <ele>66.5</ele>
        <time>2017-04-29T06:37:04</time>
        <extensions><speed>1.25</speed></extensions>
      </trkpt>
      <trkpt lat="51.859669000" lon="7.599995000">
        <ele>66.4</ele>
        <time>2017-04-29T06:37:05</time>
        <extensions><speed>1.34</speed></extensions>
      </trkpt>
      <trkpt lat="51.859680000" lon="7.599980000">
        <ele>66.4</ele>
        <time>2017-04-29T06:37:06</time>
        <extensions><speed>1.30</speed></extensions>
      </trkpt>
      <trkpt lat="51.859688000" lon="7.599964000">
        <ele>66.4</ele>
        <time>2017-04-29T06:37:07</time>
        <extensions><speed>1.39</speed></extensions>
      </trkpt>
      <trkpt lat="51.859692000" lon="7.599946000">
        <ele>66.4</ele>
        <time>2017-04-29T06:37:08</time>
        <extensions><speed>1.34</speed></extensions>
      </trkpt>
      <trkpt lat="51.859703000" lon="7.599934000">
        <ele>66.3</ele>
        <time>2017-04-29T06:37:09</time>
        <extensions><speed>1.39</speed></extensions>
      </trkpt>
      <trkpt lat="51.859715000" lon="7.599925000">
        <ele>66.3</ele>
        <time>2017-04-29T06:37:10</time>
        <extensions><speed>1.36</speed></extensions>
      </trkpt>
      <trkpt lat="51.859726000" lon="7.599920000">
        <ele>66.3</ele>
        <time>2017-04-29T06:37:11</time>
        <extensions><speed>1.26</speed></extensions>
      </trkpt>
      <trkpt lat="51.859730000" lon="7.599908000">
        <ele>66.3</ele>
        <time>2017-04-29T06:37:12</time>
        <extensions><speed>1.18</speed></extensions>
      </trkpt>
      <trkpt lat="51.859741000" lon="7.599895000">
        <ele>66.2</ele>
        <time>2017-04-29T06:37:13</time>
        <extensions><speed>1.13</speed></extensions>
      </trkpt>
      <trkpt lat="51.859749000" lon="7.599880000">
        <ele>66.2</ele>
        <time>2017-04-29T06:37:14</time>
        <extensions><speed>1.13</speed></extensions>
      </trkpt>
      <trkpt lat="51.859756000" lon="7.599862000">
        <ele>66.2</ele>
        <time>2017-04-29T06:37:15</time>
        <extensions><speed>1.24</speed></extensions>
      </trkpt>
      <trkpt lat="51.859760000" lon="7.599848000">
        <ele>66.2</ele>
        <time>2017-04-29T06:37:16</time>
        <extensions><speed>1.24</speed></extensions>
      </trkpt>
      <trkpt lat="51.859768000" lon="7.599832000">
        <ele>66.2</ele>
        <time>2017-04-29T06:37:17</time>
        <extensions><speed>1.28</speed></extensions>
      </trkpt>
      <trkpt lat="51.859772000" lon="7.599812000">
        <ele>66.2</ele>
        <time>2017-04-29T06:37:18</time>
        <extensions><speed>1.28</speed></extensions>
      </trkpt>
      <trkpt lat="51.859776000" lon="7.599793000">
        <ele>66.1</ele>
        <time>2017-04-29T06:37:19</time>
        <extensions><speed>1.25</speed></extensions>
      </trkpt>
      <trkpt lat="51.859783000" lon="7.599775000">
        <ele>66.1</ele>
        <time>2017-04-29T06:37:20</time>
        <extensions><speed>1.21</speed></extensions>
      </trkpt>
      <trkpt lat="51.859787000" lon="7.599759000">
        <ele>66.1</ele>
        <time>2017-04-29T06:37:21</time>
        <extensions><speed>1.23</speed></extensions>
      </trkpt>
      <trkpt lat="51.859791000" lon="7.599745000">
        <ele>66.1</ele>
        <time>2017-04-29T06:37:22</time>
        <extensions><speed>1.21</speed></extensions>
      </trkpt>
      <trkpt lat="51.859798000" lon="7.599732000">
        <ele>66.0</ele>
        <time>2017-04-29T06:37:23</time>
        <extensions><speed>1.23</speed></extensions>
      </trkpt>
      <trkpt lat="51.859810000" lon="7.599719000">
        <ele>66.0</ele>
        <time>2017-04-29T06:37:24</time>
        <extensions><speed>1.28</speed></extensions>
      </trkpt>
      <trkpt lat="51.859818000" lon="7.599699000">
        <ele>66.0</ele>
        <time>2017-04-29T06:37:25</time>
        <extensions><speed>1.33</speed></extensions>
      </trkpt>
      <trkpt lat="51.859821000" lon="7.599679000">
        <ele>66.0</ele>
        <time>2017-04-29T06:37:26</time>
        <extensions><speed>1.40</speed></extensions>
      </trkpt>
      <trkpt lat="51.859829000" lon="7.599660000">
        <ele>65.9</ele>
        <time>2017-04-29T06:37:27</time>
        <extensions><speed>1.42</speed></extensions>
      </trkpt>
      <trkpt lat="51.859837000" lon="7.599643000">
        <ele>65.9</ele>
        <time>2017-04-29T06:37:28</time>
        <extensions><speed>1.41</speed></extensions>
      </trkpt>
      <trkpt lat="51.859844000" lon="7.599628000">
        <ele>65.9</ele>
        <time>2017-04-29T06:37:29</time>
        <extensions><speed>1.36</speed></extensions>
      </trkpt>
      <trkpt lat="51.859856000" lon="7.599612000">
        <ele>65.8</ele>
        <time>2017-04-29T06:37:30</time>
        <extensions><speed>1.34</speed></extensions>
      </trkpt>
      <trkpt lat="51.859867000" lon="7.599598000">
        <ele>65.8</ele>
        <time>2017-04-29T06:37:31</time>
        <extensions><speed>1.34</speed></extensions>
      </trkpt>
      <trkpt lat="51.859875000" lon="7.599585000">
        <ele>65.8</ele>
        <time>2017-04-29T06:37:32</time>
        <extensions><speed>1.31</speed></extensions>
      </trkpt>
      <trkpt lat="51.859882000" lon="7.599573000">
        <ele>65.7</ele>
        <time>2017-04-29T06:37:33</time>
        <extensions><speed>1.31</speed></extensions>
      </trkpt>
      <trkpt lat="51.859890000" lon="7.599563000">
        <ele>65.7</ele>
        <time>2017-04-29T06:37:34</time>
        <extensions><speed>1.24</speed></extensions>
      </trkpt>
      <trkpt lat="51.859894000" lon="7.599552000">
        <ele>65.7</ele>
        <time>2017-04-29T06:37:35</time>
        <extensions><speed>1.23</speed></extensions>
      </trkpt>
      <trkpt lat="51.859901000" lon="7.599538000">
        <ele>65.6</ele>
        <time>2017-04-29T06:37:36</time>
        <extensions><speed>1.23</speed></extensions>
      </trkpt>
      <trkpt lat="51.859909000" lon="7.599522000">
        <ele>65.6</ele>
        <time>2017-04-29T06:37:37</time>
        <extensions><speed>1.24</speed></extensions>
      </trkpt>
      <trkpt lat="51.859917000" lon="7.599505000">
        <ele>65.6</ele>
        <time>2017-04-29T06:37:38</time>
        <extensions><speed>1.24</speed></extensions>
      </trkpt>
      <trkpt lat="51.859924000" lon="7.599493000">
        <ele>65.5</ele>
        <time>2017-04-29T06:37:39</time>
        <extensions><speed>1.26</speed></extensions>
      </trkpt>
      <trkpt lat="51.859932000" lon="7.599482000">
        <ele>65.5</ele>
        <time>2017-04-29T06:37:40</time>
        <extensions><speed>1.19</speed></extensions>
      </trkpt>
      <trkpt lat="51.859936000" lon="7.599466000">
        <ele>65.5</ele>
        <time>2017-04-29T06:37:41</time>
        <extensions><speed>1.14</speed></extensions>
      </trkpt>
      <trkpt lat="51.859943000" lon="7.599450000">
        <ele>65.4</ele>
        <time>2017-04-29T06:37:42</time>
        <extensions><speed>1.10</speed></extensions>
      </trkpt>
      <trkpt lat="51.859951000" lon="7.599430000">
        <ele>65.4</ele>
        <time>2017-04-29T06:37:43</time>
        <extensions><speed>1.15</speed></extensions>
      </trkpt>
      <trkpt lat="51.859955000" lon="7.599412000">
        <ele>65.4</ele>
        <time>2017-04-29T06:37:44</time>
        <extensions><speed>1.14</speed></extensions>
      </trkpt>
      <trkpt lat="51.859959000" lon="7.599395000">
        <ele>65.3</ele>
        <time>2017-04-29T06:37:45</time>
        <extensions><speed>1.14</speed></extensions>
      </trkpt>
      <trkpt lat="51.859962000" lon="7.599379000">
        <ele>65.3</ele>
        <time>2017-04-29T06:37:46</time>
        <extensions><speed>1.11</speed></extensions>
      </trkpt>
      <trkpt lat="51.859970000" lon="7.599360000">
        <ele>65.3</ele>
        <time>2017-04-29T06:37:47</time>
        <extensions><speed>1.19</speed></extensions>
      </trkpt>
      <trkpt lat="51.859978000" lon="7.599344000">
        <ele>65.2</ele>
        <time>2017-04-29T06:37:48</time>
        <extensions><speed>1.12</speed></extensions>
      </trkpt>
      <trkpt lat="51.859985000" lon="7.599327000">
        <ele>65.2</ele>
        <time>2017-04-29T06:37:49</time>
        <extensions><speed>1.18</speed></extensions>
      </trkpt>
      <trkpt lat="51.859989000" lon="7.599314000">
        <ele>65.1</ele>
        <time>2017-04-29T06:37:50</time>
        <extensions><speed>1.23</speed></extensions>
      </trkpt>
      <trkpt lat="51.859997000" lon="7.599298000">
        <ele>65.1</ele>
        <time>2017-04-29T06:37:51</time>
        <extensions><speed>1.29</speed></extensions>
      </trkpt>
      <trkpt lat="51.860004000" lon="7.599281000">
        <ele>65.0</ele>
        <time>2017-04-29T06:37:52</time>
        <extensions><speed>1.31</speed></extensions>
      </trkpt>
      <trkpt lat="51.860016000" lon="7.599262000">
        <ele>65.0</ele>
        <time>2017-04-29T06:37:53</time>
        <extensions><speed>1.34</speed></extensions>
      </trkpt>
      <trkpt lat="51.860023000" lon="7.599247000">
        <ele>65.0</ele>
        <time>2017-04-29T06:37:54</time>
        <extensions><speed>1.34</speed></extensions>
      </trkpt>
      <trkpt lat="51.860031000" lon="7.599232000">
        <ele>64.9</ele>
        <time>2017-04-29T06:37:55</time>
        <extensions><speed>1.34</speed></extensions>
      </trkpt>
      <trkpt lat="51.860039000" lon="7.599213000">
        <ele>64.9</ele>
        <time>2017-04-29T06:37:56</time>
        <extensions><speed>1.34</speed></extensions>
      </trkpt>
      <trkpt lat="51.860046000" lon="7.599195000">
        <ele>64.8</ele>
        <time>2017-04-29T06:37:57</time>
        <extensions><speed>1.34</speed></extensions>
      </trkpt>
      <trkpt lat="51.860054000" lon="7.599181000">
        <ele>64.8</ele>
        <time>2017-04-29T06:37:58</time>
        <extensions><speed>1.35</speed></extensions>
      </trkpt>
      <trkpt lat="51.860065000" lon="7.599167000">
        <ele>64.7</ele>
        <time>2017-04-29T06:37:59</time>
        <extensions><speed>1.31</speed></extensions>
      </trkpt>
      <trkpt lat="51.860073000" lon="7.599150000">
        <ele>64.7</ele>
        <time>2017-04-29T06:38:00</time>
        <extensions><speed>1.36</speed></extensions>
      </trkpt>
      <trkpt lat="51.860081000" lon="7.599132000">
        <ele>64.6</ele>
        <time>2017-04-29T06:38:01</time>
        <extensions><speed>1.32</speed></extensions>
      </trkpt>
      <trkpt lat="51.860085000" lon="7.599118000">
        <ele>64.6</ele>
        <time>2017-04-29T06:38:02</time>
        <extensions><speed>1.26</speed></extensions>
      </trkpt>
      <trkpt lat="51.860092000" lon="7.599105000">
        <ele>64.6</ele>
        <time>2017-04-29T06:38:03</time>
        <extensions><speed>1.26</speed></extensions>
      </trkpt>
      <trkpt lat="51.860100000" lon="7.599092000">
        <ele>64.5</ele>
        <time>2017-04-29T06:38:04</time>
        <extensions><speed>1.21</speed></extensions>
      </trkpt>
      <trkpt lat="51.860107000" lon="7.599080000">
        <ele>64.5</ele>
        <time>2017-04-29T06:38:05</time>
        <extensions><speed>1.21</speed></extensions>
      </trkpt>
      <trkpt lat="51.860111000" lon="7.599063000">
        <ele>64.4</ele>
        <time>2017-04-29T06:38:06</time>
        <extensions><speed>1.17</speed></extensions>
      </trkpt>
      <trkpt lat="51.860119000" lon="7.599043000">
        <ele>64.4</ele>
        <time>2017-04-29T06:38:07</time>
        <extensions><speed>1.31</speed></extensions>
      </trkpt>
      <trkpt lat="51.860130000" lon="7.599027000">
        <ele>64.3</ele>
        <time>2017-04-29T06:38:08</time>
        <extensions><speed>1.25</speed></extensions>
      </trkpt>
      <trkpt lat="51.860142000" lon="7.599011000">
        <ele>64.3</ele>
        <time>2017-04-29T06:38:09</time>
        <extensions><speed>1.37</speed></extensions>
      </trkpt>
      <trkpt lat="51.860149000" lon="7.598995000">
        <ele>64.2</ele>
        <time>2017-04-29T06:38:10</time>
        <extensions><speed>1.43</speed></extensions>
      </trkpt>
      <trkpt lat="51.860153000" lon="7.598975000">
        <ele>64.2</ele>
        <time>2017-04-29T06:38:11</time>
        <extensions><speed>1.44</speed></extensions>
      </trkpt>
      <trkpt lat="51.860161000" lon="7.598957000">
        <ele>64.2</ele>
        <time>2017-04-29T06:38:12</time>
        <extensions><speed>1.37</speed></extensions>
      </trkpt>
      <trkpt lat="51.860168000" lon="7.598940000">
        <ele>64.1</ele>
        <time>2017-04-29T06:38:13</time>
        <extensions><speed>1.37</speed></extensions>
      </trkpt>
      <trkpt lat="51.860176000" lon="7.598927000">
        <ele>64.1</ele>
        <time>2017-04-29T06:38:14</time>
        <extensions><speed>1.35</speed></extensions>
      </trkpt>
      <trkpt lat="51.860180000" lon="7.598908000">
        <ele>64.1</ele>
        <time>2017-04-29T06:38:15</time>
        <extensions><speed>1.34</speed></extensions>
      </trkpt>
      <trkpt lat="51.860188000" lon="7.598890000">
        <ele>64.0</ele>
        <time>2017-04-29T06:38:16</time>
        <extensions><speed>1.36</speed></extensions>
      </trkpt>
      <trkpt lat="51.860195000" lon="7.598871000">
        <ele>64.0</ele>
        <time>2017-04-29T06:38:17</time>
        <extensions><speed>1.25</speed></extensions>
      </trkpt>
      <trkpt lat="51.860203000" lon="7.598855000">
        <ele>64.0</ele>
        <time>2017-04-29T06:38:18</time>
        <extensions><speed>1.38</speed></extensions>
      </trkpt>
      <trkpt lat="51.860210000" lon="7.598838000">
        <ele>63.9</ele>
        <time>2017-04-29T06:38:19</time>
        <extensions><speed>1.29</speed></extensions>
      </trkpt>
      <trkpt lat="51.860214000" lon="7.598822000">
        <ele>63.9</ele>
        <time>2017-04-29T06:38:20</time>
        <extensions><speed>1.28</speed></extensions>
      </trkpt>
      <trkpt lat="51.860222000" lon="7.598803000">
        <ele>63.9</ele>
        <time>2017-04-29T06:38:21</time>
        <extensions><speed>1.28</speed></extensions>
      </trkpt>
      <trkpt lat="51.860233000" lon="7.598785000">
        <ele>63.8</ele>
        <time>2017-04-29T06:38:22</time>
        <extensions><speed>1.39</speed></extensions>
      </trkpt>
      <trkpt lat="51.860241000" lon="7.598770000">
        <ele>63.8</ele>
        <time>2017-04-29T06:38:23</time>
        <extensions><speed>1.30</speed></extensions>
      </trkpt>
      <trkpt lat="51.860249000" lon="7.598755000">
        <ele>63.8</ele>
        <time>2017-04-29T06:38:24</time>
        <extensions><speed>1.37</speed></extensions>
      </trkpt>
      <trkpt lat="51.860260000" lon="7.598738000">
        <ele>63.7</ele>
        <time>2017-04-29T06:38:25</time>
        <extensions><speed>1.40</speed></extensions>
      </trkpt>
      <trkpt lat="51.860271000" lon="7.598719000">
        <ele>63.7</ele>
        <time>2017-04-29T06:38:26</time>
        <extensions><speed>1.35</speed></extensions>
      </trkpt>
      <trkpt lat="51.860279000" lon="7.598703000">
        <ele>63.6</ele>
        <time>2017-04-29T06:38:27</time>
        <extensions><speed>1.33</speed></extensions>
      </trkpt>
      <trkpt lat="51.860291000" lon="7.598689000">
        <ele>63.6</ele>
        <time>2017-04-29T06:38:28</time>
        <extensions><speed>1.34</speed></extensions>
      </trkpt>
      <trkpt lat="51.860298000" lon="7.598670000">
        <ele>63.6</ele>
        <time>2017-04-29T06:38:29</time>
        <extensions><speed>1.41</speed></extensions>
      </trkpt>
      <trkpt lat="51.860306000" lon="7.598649000">
        <ele>63.5</ele>
        <time>2017-04-29T06:38:30</time>
        <extensions><speed>1.39</speed></extensions>
      </trkpt>
      <trkpt lat="51.860313000" lon="7.598628000">
        <ele>63.5</ele>
        <time>2017-04-29T06:38:31</time>
        <extensions><speed>1.44</speed></extensions>
      </trkpt>
      <trkpt lat="51.860317000" lon="7.598612000">
        <ele>63.4</ele>
        <time>2017-04-29T06:38:32</time>
        <extensions><speed>1.47</speed></extensions>
      </trkpt>
      <trkpt lat="51.860325000" lon="7.598603000">
        <ele>63.4</ele>
        <time>2017-04-29T06:38:33</time>
        <extensions><speed>1.47</speed></extensions>
      </trkpt>
      <trkpt lat="51.860332000" lon="7.598602000">
        <ele>63.3</ele>
        <time>2017-04-29T06:38:34</time>
        <extensions><speed>1.34</speed></extensions>
      </trkpt>
      <trkpt lat="51.860344000" lon="7.598600000">
        <ele>63.3</ele>
        <time>2017-04-29T06:38:35</time>
        <extensions><speed>1.19</speed></extensions>
      </trkpt>
      <trkpt lat="51.860352000" lon="7.598602000">
        <ele>63.3</ele>
        <time>2017-04-29T06:38:36</time>
        <extensions><speed>1.04</speed></extensions>
      </trkpt>
      <trkpt lat="51.860359000" lon="7.598607000">
        <ele>63.2</ele>
        <time>2017-04-29T06:38:37</time>
        <extensions><speed>1.02</speed></extensions>
      </trkpt>
      <trkpt lat="51.860374000" lon="7.598603000">
        <ele>63.2</ele>
        <time>2017-04-29T06:38:38</time>
        <extensions><speed>1.04</speed></extensions>
      </trkpt>
      <trkpt lat="51.860378000" lon="7.598585000">
        <ele>63.2</ele>
        <time>2017-04-29T06:38:39</time>
        <extensions><speed>1.07</speed></extensions>
      </trkpt>
      <trkpt lat="51.860390000" lon="7.598565000">
        <ele>63.1</ele>
        <time>2017-04-29T06:38:40</time>
        <extensions><speed>1.18</speed></extensions>
      </trkpt>
      <trkpt lat="51.860397000" lon="7.598542000">
        <ele>63.1</ele>
        <time>2017-04-29T06:38:41</time>
        <extensions><speed>1.30</speed></extensions>
      </trkpt>
      <trkpt lat="51.860409000" lon="7.598510000">
        <ele>63.1</ele>
        <time>2017-04-29T06:38:42</time>
        <extensions><speed>1.45</speed></extensions>
      </trkpt>
      <trkpt lat="51.860413000" lon="7.598481000">
        <ele>63.1</ele>
        <time>2017-04-29T06:38:43</time>
        <extensions><speed>1.60</speed></extensions>
      </trkpt>
      <trkpt lat="51.860420000" lon="7.598453000">
        <ele>63.0</ele>
        <time>2017-04-29T06:38:44</time>
        <extensions><speed>1.60</speed></extensions>
      </trkpt>
      <trkpt lat="51.860428000" lon="7.598437000">
        <ele>63.0</ele>
        <time>2017-04-29T06:38:45</time>
        <extensions><speed>1.50</speed></extensions>
      </trkpt>
      <trkpt lat="51.860435000" lon="7.598423000">
        <ele>62.9</ele>
        <time>2017-04-29T06:38:46</time>
        <extensions><speed>1.38</speed></extensions>
      </trkpt>
      <trkpt lat="51.860435000" lon="7.598407000">
        <ele>62.8</ele>
        <time>2017-04-29T06:38:47</time>
        <extensions><speed>1.09</speed></extensions>
      </trkpt>
      <trkpt lat="51.860443000" lon="7.598386000">
        <ele>62.8</ele>
        <time>2017-04-29T06:38:48</time>
        <extensions><speed>1.09</speed></extensions>
      </trkpt>
      <trkpt lat="51.860443000" lon="7.598372000">
        <ele>62.7</ele>
        <time>2017-04-29T06:38:49</time>
        <extensions><speed>0.96</speed></extensions>
      </trkpt>
      <trkpt lat="51.860451000" lon="7.598358000">
        <ele>62.6</ele>
        <time>2017-04-29T06:38:50</time>
        <extensions><speed>1.06</speed></extensions>
      </trkpt>
      <trkpt lat="51.860458000" lon="7.598343000">
        <ele>62.6</ele>
        <time>2017-04-29T06:38:51</time>
        <extensions><speed>1.21</speed></extensions>
      </trkpt>
      <trkpt lat="51.860470000" lon="7.598329000">
        <ele>62.5</ele>
        <time>2017-04-29T06:38:52</time>
        <extensions><speed>1.35</speed></extensions>
      </trkpt>
      <trkpt lat="51.860474000" lon="7.598311000">
        <ele>62.5</ele>
        <time>2017-04-29T06:38:53</time>
        <extensions><speed>1.32</speed></extensions>
      </trkpt>
      <trkpt lat="51.860481000" lon="7.598293000">
        <ele>62.4</ele>
        <time>2017-04-29T06:38:54</time>
        <extensions><speed>1.36</speed></extensions>
      </trkpt>
      <trkpt lat="51.860489000" lon="7.598275000">
        <ele>62.3</ele>
        <time>2017-04-29T06:38:55</time>
        <extensions><speed>1.33</speed></extensions>
      </trkpt>
      <trkpt lat="51.860497000" lon="7.598257000">
        <ele>62.3</ele>
        <time>2017-04-29T06:38:56</time>
        <extensions><speed>1.33</speed></extensions>
      </trkpt>
      <trkpt lat="51.860504000" lon="7.598236000">
        <ele>62.2</ele>
        <time>2017-04-29T06:38:57</time>
        <extensions><speed>1.32</speed></extensions>
      </trkpt>
      <trkpt lat="51.860508000" lon="7.598217000">
        <ele>62.1</ele>
        <time>2017-04-29T06:38:58</time>
        <extensions><speed>1.35</speed></extensions>
      </trkpt>
      <trkpt lat="51.860519000" lon="7.598199000">
        <ele>62.1</ele>
        <time>2017-04-29T06:38:59</time>
        <extensions><speed>1.38</speed></extensions>
      </trkpt>
      <trkpt lat="51.860527000" lon="7.598180000">
        <ele>62.0</ele>
        <time>2017-04-29T06:39:00</time>
        <extensions><speed>1.38</speed></extensions>
      </trkpt>
      <trkpt lat="51.860531000" lon="7.598162000">
        <ele>61.9</ele>
        <time>2017-04-29T06:39:01</time>
        <extensions><speed>1.38</speed></extensions>
      </trkpt>
      <trkpt lat="51.860538000" lon="7.598150000">
        <ele>61.8</ele>
        <time>2017-04-29T06:39:03</time>
      </trkpt>
      <trkpt lat="51.860542000" lon="7.598127000">
        <ele>61.7</ele>
        <time>2017-04-29T06:39:05</time>
        <extensions><speed>0.93</speed></extensions>
      </trkpt>
      <trkpt lat="51.860550000" lon="7.598105000">
        <ele>61.6</ele>
        <time>2017-04-29T06:39:06</time>
        <extensions><speed>0.92</speed></extensions>
      </trkpt>
      <trkpt lat="51.860561000" lon="7.598085000">
        <ele>61.6</ele>
        <time>2017-04-29T06:39:07</time>
        <extensions><speed>1.41</speed></extensions>
      </trkpt>
      <trkpt lat="51.860573000" lon="7.598066000">
        <ele>61.5</ele>
        <time>2017-04-29T06:39:08</time>
        <extensions><speed>1.44</speed></extensions>
      </trkpt>
      <trkpt lat="51.860580000" lon="7.598050000">
        <ele>61.4</ele>
        <time>2017-04-29T06:39:09</time>
        <extensions><speed>1.45</speed></extensions>
      </trkpt>
      <trkpt lat="51.860588000" lon="7.598030000">
        <ele>61.4</ele>
        <time>2017-04-29T06:39:10</time>
        <extensions><speed>1.45</speed></extensions>
      </trkpt>
      <trkpt lat="51.860600000" lon="7.598007000">
        <ele>61.3</ele>
        <time>2017-04-29T06:39:11</time>
        <extensions><speed>1.45</speed></extensions>
      </trkpt>
      <trkpt lat="51.860607000" lon="7.597987000">
        <ele>61.2</ele>
        <time>2017-04-29T06:39:12</time>
        <extensions><speed>1.43</speed></extensions>
      </trkpt>
      <trkpt lat="51.860611000" lon="7.597967000">
        <ele>61.2</ele>
        <time>2017-04-29T06:39:13</time>
        <extensions><speed>1.45</speed></extensions>
      </trkpt>
      <trkpt lat="51.860622000" lon="7.597947000">
        <ele>61.1</ele>
        <time>2017-04-29T06:39:14</time>
        <extensions><speed>1.44</speed></extensions>
      </trkpt>
      <trkpt lat="51.860630000" lon="7.597926000">
        <ele>61.0</ele>
        <time>2017-04-29T06:39:15</time>
        <extensions><speed>1.44</speed></extensions>
      </trkpt>
      <trkpt lat="51.860638000" lon="7.597908000">
        <ele>60.9</ele>
        <time>2017-04-29T06:39:16</time>
        <extensions><speed>1.43</speed></extensions>
      </trkpt>
      <trkpt lat="51.860645000" lon="7.597889000">
        <ele>60.8</ele>
        <time>2017-04-29T06:39:17</time>
        <extensions><speed>1.46</speed></extensions>
      </trkpt>
      <trkpt lat="51.860653000" lon="7.597872000">
        <ele>60.7</ele>
        <time>2017-04-29T06:39:18</time>
        <extensions><speed>1.46</speed></extensions>
      </trkpt>
      <trkpt lat="51.860664000" lon="7.597852000">
        <ele>60.7</ele>
        <time>2017-04-29T06:39:19</time>
        <extensions><speed>1.45</speed></extensions>
      </trkpt>
      <trkpt lat="51.860672000" lon="7.597833000">
        <ele>60.6</ele>
        <time>2017-04-29T06:39:20</time>
        <extensions><speed>1.46</speed></extensions>
      </trkpt>
      <trkpt lat="51.860680000" lon="7.597817000">
        <ele>60.5</ele>
        <time>2017-04-29T06:39:21</time>
        <extensions><speed>1.46</speed></extensions>
      </trkpt>
      <trkpt lat="51.860687000" lon="7.597796000">
        <ele>60.4</ele>
        <time>2017-04-29T06:39:22</time>
        <extensions><speed>1.45</speed></extensions>
      </trkpt>
      <trkpt lat="51.860691000" lon="7.597779000">
        <ele>60.3</ele>
        <time>2017-04-29T06:39:23</time>
        <extensions><speed>1.44</speed></extensions>
      </trkpt>
      <trkpt lat="51.860703000" lon="7.597762000">
        <ele>60.3</ele>
        <time>2017-04-29T06:39:24</time>
        <extensions><speed>1.40</speed></extensions>
      </trkpt>
      <trkpt lat="51.860706000" lon="7.597744000">
        <ele>60.2</ele>
        <time>2017-04-29T06:39:25</time>
        <extensions><speed>1.39</speed></extensions>
      </trkpt>
      <trkpt lat="51.860718000" lon="7.597725000">
        <ele>60.1</ele>
        <time>2017-04-29T06:39:26</time>
        <extensions><speed>1.40</speed></extensions>
      </trkpt>
      <trkpt lat="51.860725000" lon="7.597707000">
        <ele>60.0</ele>
        <time>2017-04-29T06:39:27</time>
        <extensions><speed>1.40</speed></extensions>
      </trkpt>
      <trkpt lat="51.860733000" lon="7.597688000">
        <ele>60.0</ele>
        <time>2017-04-29T06:39:28</time>
        <extensions><speed>1.44</speed></extensions>
      </trkpt>
      <trkpt lat="51.860737000" lon="7.597670000">
        <ele>59.9</ele>
        <time>2017-04-29T06:39:29</time>
        <extensions><speed>1.44</speed></extensions>
      </trkpt>
      <trkpt lat="51.860744000" lon="7.597651000">
        <ele>59.8</ele>
        <time>2017-04-29T06:39:30</time>
        <extensions><speed>1.44</speed></extensions>
      </trkpt>
      <trkpt lat="51.860752000" lon="7.597633000">
        <ele>59.7</ele>
        <time>2017-04-29T06:39:31</time>
        <extensions><speed>1.43</speed></extensions>
      </trkpt>
      <trkpt lat="51.860760000" lon="7.597616000">
        <ele>59.7</ele>
        <time>2017-04-29T06:39:32</time>
        <extensions><speed>1.42</speed></extensions>
      </trkpt>
      <trkpt lat="51.860767000" lon="7.597599000">
        <ele>59.7</ele>
        <time>2017-04-29T06:39:33</time>
        <extensions><speed>1.39</speed></extensions>
      </trkpt>
      <trkpt lat="51.860771000" lon="7.597581000">
        <ele>59.6</ele>
        <time>2017-04-29T06:39:34</time>
        <extensions><speed>1.37</speed></extensions>
      </trkpt>
      <trkpt lat="51.860783000" lon="7.597567000">
        <ele>59.5</ele>
        <time>2017-04-29T06:39:35</time>
        <extensions><speed>1.34</speed></extensions>
      </trkpt>
      <trkpt lat="51.860786000" lon="7.597557000">
        <ele>59.4</ele>
        <time>2017-04-29T06:39:36</time>
      </trkpt>
      <trkpt lat="51.860798000" lon="7.597539000">
        <ele>59.3</ele>
        <time>2017-04-29T06:39:38</time>
        <extensions><speed>1.36</speed></extensions>
      </trkpt>
      <trkpt lat="51.860806000" lon="7.597522000">
        <ele>59.2</ele>
        <time>2017-04-29T06:39:39</time>
        <extensions><speed>1.42</speed></extensions>
      </trkpt>
      <trkpt lat="51.860817000" lon="7.597504000">
        <ele>59.2</ele>
        <time>2017-04-29T06:39:40</time>
        <extensions><speed>1.45</speed></extensions>
      </trkpt>
      <trkpt lat="51.860825000" lon="7.597483000">
        <ele>59.1</ele>
        <time>2017-04-29T06:39:41</time>
        <extensions><speed>1.45</speed></extensions>
      </trkpt>
      <trkpt lat="51.860832000" lon="7.597466000">
        <ele>59.1</ele>
        <time>2017-04-29T06:39:42</time>
        <extensions><speed>1.46</speed></extensions>
      </trkpt>
      <trkpt lat="51.860840000" lon="7.597448000">
        <ele>59.0</ele>
        <time>2017-04-29T06:39:43</time>
        <extensions><speed>1.43</speed></extensions>
      </trkpt>
      <trkpt lat="51.860847000" lon="7.597430000">
        <ele>58.9</ele>
        <time>2017-04-29T06:39:44</time>
        <extensions><speed>1.41</speed></extensions>
      </trkpt>
      <trkpt lat="51.860859000" lon="7.597413000">
        <ele>58.9</ele>
        <time>2017-04-29T06:39:45</time>
        <extensions><speed>1.41</speed></extensions>
      </trkpt>
      <trkpt lat="51.860867000" lon="7.597395000">
        <ele>58.8</ele>
        <time>2017-04-29T06:39:46</time>
        <extensions><speed>1.42</speed></extensions>
      </trkpt>
      <trkpt lat="51.860870000" lon="7.597375000">
        <ele>58.7</ele>
        <time>2017-04-29T06:39:47</time>
        <extensions><speed>1.39</speed></extensions>
      </trkpt>
      <trkpt lat="51.860878000" lon="7.597359000">
        <ele>58.6</ele>
        <time>2017-04-29T06:39:48</time>
        <extensions><speed>1.36</speed></extensions>
      </trkpt>
      <trkpt lat="51.860886000" lon="7.597340000">
        <ele>58.6</ele>
        <time>2017-04-29T06:39:49</time>
        <extensions><speed>1.35</speed></extensions>
      </trkpt>
      <trkpt lat="51.860893000" lon="7.597322000">
        <ele>58.5</ele>
        <time>2017-04-29T06:39:50</time>
        <extensions><speed>1.38</speed></extensions>
      </trkpt>
      <trkpt lat="51.860901000" lon="7.597305000">
        <ele>58.4</ele>
        <time>2017-04-29T06:39:51</time>
        <extensions><speed>1.36</speed></extensions>
      </trkpt>
      <trkpt lat="51.860912000" lon="7.597290000">
        <ele>58.3</ele>
        <time>2017-04-29T06:39:52</time>
        <extensions><speed>1.35</speed></extensions>
      </trkpt>
      <trkpt lat="51.860920000" lon="7.597271000">
        <ele>58.3</ele>
        <time>2017-04-29T06:39:53</time>
        <extensions><speed>1.39</speed></extensions>
      </trkpt>
      <trkpt lat="51.860931000" lon="7.597255000">
        <ele>58.2</ele>
        <time>2017-04-29T06:39:54</time>
        <extensions><speed>1.42</speed></extensions>
      </trkpt>
      <trkpt lat="51.860935000" lon="7.597238000">
        <ele>58.1</ele>
        <time>2017-04-29T06:39:55</time>
        <extensions><speed>1.42</speed></extensions>
      </trkpt>
      <trkpt lat="51.860943000" lon="7.597220000">
        <ele>58.0</ele>
        <time>2017-04-29T06:39:56</time>
        <extensions><speed>1.45</speed></extensions>
      </trkpt>
      <trkpt lat="51.860954000" lon="7.597201000">
        <ele>57.9</ele>
        <time>2017-04-29T06:39:57</time>
        <extensions><speed>1.47</speed></extensions>
      </trkpt>
      <trkpt lat="51.860966000" lon="7.597185000">
        <ele>57.9</ele>
        <time>2017-04-29T06:39:58</time>
        <extensions><speed>1.50</speed></extensions>
      </trkpt>
      <trkpt lat="51.860973000" lon="7.597167000">
        <ele>57.8</ele>
        <time>2017-04-29T06:39:59</time>
        <extensions><speed>1.50</speed></extensions>
      </trkpt>
      <trkpt lat="51.860981000" lon="7.597148000">
        <ele>57.7</ele>
        <time>2017-04-29T06:40:00</time>
        <extensions><speed>1.50</speed></extensions>
      </trkpt>
      <trkpt lat="51.860989000" lon="7.597130000">
        <ele>57.6</ele>
        <time>2017-04-29T06:40:01</time>
        <extensions><speed>1.46</speed></extensions>
      </trkpt>
      <trkpt lat="51.860996000" lon="7.597114000">
        <ele>57.5</ele>
        <time>2017-04-29T06:40:02</time>
        <extensions><speed>1.44</speed></extensions>
      </trkpt>
      <trkpt lat="51.861004000" lon="7.597095000">
        <ele>57.5</ele>
        <time>2017-04-29T06:40:03</time>
        <extensions><speed>1.44</speed></extensions>
      </trkpt>
      <trkpt lat="51.861012000" lon="7.597078000">
        <ele>57.4</ele>
        <time>2017-04-29T06:40:04</time>
        <extensions><speed>1.40</speed></extensions>
      </trkpt>
      <trkpt lat="51.861023000" lon="7.597063000">
        <ele>57.4</ele>
        <time>2017-04-29T06:40:05</time>
        <extensions><speed>1.36</speed></extensions>
      </trkpt>
      <trkpt lat="51.861031000" lon="7.597050000">
        <ele>57.3</ele>
        <time>2017-04-29T06:40:06</time>
        <extensions><speed>1.39</speed></extensions>
      </trkpt>
      <trkpt lat="51.861038000" lon="7.597034000">
        <ele>57.3</ele>
        <time>2017-04-29T06:40:07</time>
        <extensions><speed>1.41</speed></extensions>
      </trkpt>
      <trkpt lat="51.861050000" lon="7.597018000">
        <ele>57.3</ele>
        <time>2017-04-29T06:40:08</time>
        <extensions><speed>1.37</speed></extensions>
      </trkpt>
      <trkpt lat="51.861057000" lon="7.597002000">
        <ele>57.3</ele>
        <time>2017-04-29T06:40:09</time>
        <extensions><speed>1.36</speed></extensions>
      </trkpt>
      <trkpt lat="51.861065000" lon="7.596986000">
        <ele>57.3</ele>
        <time>2017-04-29T06:40:10</time>
        <extensions><speed>1.40</speed></extensions>
      </trkpt>
      <trkpt lat="51.861073000" lon="7.596972000">
        <ele>57.3</ele>
        <time>2017-04-29T06:40:11</time>
        <extensions><speed>1.43</speed></extensions>
      </trkpt>
      <trkpt lat="51.861084000" lon="7.596955000">
        <ele>57.3</ele>
        <time>2017-04-29T06:40:12</time>
        <extensions><speed>1.42</speed></extensions>
      </trkpt>
      <trkpt lat="51.861092000" lon="7.596940000">
        <ele>57.3</ele>
        <time>2017-04-29T06:40:13</time>
        <extensions><speed>1.42</speed></extensions>
      </trkpt>
      <trkpt lat="51.861095000" lon="7.596921000">
        <ele>57.3</ele>
        <time>2017-04-29T06:40:14</time>
        <extensions><speed>1.43</speed></extensions>
      </trkpt>
      <trkpt lat="51.861107000" lon="7.596905000">
        <ele>57.3</ele>
        <time>2017-04-29T06:40:15</time>
        <extensions><speed>1.45</speed></extensions>
      </trkpt>
      <trkpt lat="51.861118000" lon="7.596890000">
        <ele>57.3</ele>
        <time>2017-04-29T06:40:16</time>
        <extensions><speed>1.45</speed></extensions>
      </trkpt>
      <trkpt lat="51.861126000" lon="7.596872000">
        <ele>57.3</ele>
        <time>2017-04-29T06:40:17</time>
        <extensions><speed>1.45</speed></extensions>
      </trkpt>
      <trkpt lat="51.861137000" lon="7.596855000">
        <ele>57.3</ele>
        <time>2017-04-29T06:40:18</time>
        <extensions><speed>1.45</speed></extensions>
      </trkpt>
      <trkpt lat="51.861145000" lon="7.596838000">
        <ele>57.4</ele>
        <time>2017-04-29T06:40:19</time>
        <extensions><speed>1.43</speed></extensions>
      </trkpt>
      <trkpt lat="51.861153000" lon="7.596822000">
        <ele>57.4</ele>
        <time>2017-04-29T06:40:20</time>
        <extensions><speed>1.43</speed></extensions>
      </trkpt>
      <trkpt lat="51.861160000" lon="7.596805000">
        <ele>57.4</ele>
        <time>2017-04-29T06:40:21</time>
        <extensions><speed>1.43</speed></extensions>
      </trkpt>
      <trkpt lat="51.861168000" lon="7.596790000">
        <ele>57.4</ele>
        <time>2017-04-29T06:40:22</time>
        <extensions><speed>1.43</speed></extensions>
      </trkpt>
      <trkpt lat="51.861176000" lon="7.596774000">
        <ele>57.4</ele>
        <time>2017-04-29T06:40:23</time>
        <extensions><speed>1.43</speed></extensions>
      </trkpt>
      <trkpt lat="51.861183000" lon="7.596756000">
        <ele>57.4</ele>
        <time>2017-04-29T06:40:24</time>
        <extensions><speed>1.43</speed></extensions>
      </trkpt>
      <trkpt lat="51.861191000" lon="7.596739000">
        <ele>57.5</ele>
        <time>2017-04-29T06:40:25</time>
        <extensions><speed>1.44</speed></extensions>
      </trkpt>
      <trkpt lat="51.861198000" lon="7.596718000">
        <ele>57.5</ele>
        <time>2017-04-29T06:40:26</time>
        <extensions><speed>1.43</speed></extensions>
      </trkpt>
      <trkpt lat="51.861206000" lon="7.596700000">
        <ele>57.5</ele>
        <time>2017-04-29T06:40:27</time>
        <extensions><speed>1.45</speed></extensions>
      </trkpt>
      <trkpt lat="51.861217000" lon="7.596685000">
        <ele>57.5</ele>
        <time>2017-04-29T06:40:28</time>
        <extensions><speed>1.45</speed></extensions>
      </trkpt>
      <trkpt lat="51.861221000" lon="7.596669000">
        <ele>57.5</ele>
        <time>2017-04-29T06:40:29</time>
        <extensions><speed>1.48</speed></extensions>
      </trkpt>
      <trkpt lat="51.861229000" lon="7.596652000">
        <ele>57.5</ele>
        <time>2017-04-29T06:40:30</time>
        <extensions><speed>1.46</speed></extensions>
      </trkpt>
      <trkpt lat="51.861237000" lon="7.596634000">
        <ele>57.5</ele>
        <time>2017-04-29T06:40:31</time>
        <extensions><speed>1.48</speed></extensions>
      </trkpt>
      <trkpt lat="51.861248000" lon="7.596615000">
        <ele>57.5</ele>
        <time>2017-04-29T06:40:32</time>
        <extensions><speed>1.51</speed></extensions>
      </trkpt>
      <trkpt lat="51.861256000" lon="7.596599000">
        <ele>57.5</ele>
        <time>2017-04-29T06:40:33</time>
        <extensions><speed>1.51</speed></extensions>
      </trkpt>
      <trkpt lat="51.861263000" lon="7.596583000">
        <ele>57.5</ele>
        <time>2017-04-29T06:40:34</time>
        <extensions><speed>1.49</speed></extensions>
      </trkpt>
      <trkpt lat="51.861275000" lon="7.596568000">
        <ele>57.6</ele>
        <time>2017-04-29T06:40:35</time>
        <extensions><speed>1.49</speed></extensions>
      </trkpt>
      <trkpt lat="51.861282000" lon="7.596550000">
        <ele>57.6</ele>
        <time>2017-04-29T06:40:36</time>
        <extensions><speed>1.48</speed></extensions>
      </trkpt>
      <trkpt lat="51.861290000" lon="7.596531000">
        <ele>57.6</ele>
        <time>2017-04-29T06:40:37</time>
        <extensions><speed>1.46</speed></extensions>
      </trkpt>
      <trkpt lat="51.861294000" lon="7.596515000">
        <ele>57.6</ele>
        <time>2017-04-29T06:40:38</time>
        <extensions><speed>1.47</speed></extensions>
      </trkpt>
      <trkpt lat="51.861301000" lon="7.596498000">
        <ele>57.6</ele>
        <time>2017-04-29T06:40:39</time>
        <extensions><speed>1.47</speed></extensions>
      </trkpt>
      <trkpt lat="51.861309000" lon="7.596480000">
        <ele>57.6</ele>
        <time>2017-04-29T06:40:40</time>
        <extensions><speed>1.51</speed></extensions>
      </trkpt>
      <trkpt lat="51.861320000" lon="7.596463000">
        <ele>57.6</ele>
        <time>2017-04-29T06:40:41</time>
        <extensions><speed>1.49</speed></extensions>
      </trkpt>
      <trkpt lat="51.861328000" lon="7.596447000">
        <ele>57.6</ele>
        <time>2017-04-29T06:40:42</time>
        <extensions><speed>1.48</speed></extensions>
      </trkpt>
      <trkpt lat="51.861340000" lon="7.596433000">
        <ele>57.6</ele>
        <time>2017-04-29T06:40:43</time>
        <extensions><speed>1.43</speed></extensions>
      </trkpt>
      <trkpt lat="51.861347000" lon="7.596415000">
        <ele>57.6</ele>
        <time>2017-04-29T06:40:44</time>
        <extensions><speed>1.46</speed></extensions>
      </trkpt>
      <trkpt lat="51.861355000" lon="7.596398000">
        <ele>57.6</ele>
        <time>2017-04-29T06:40:45</time>
        <extensions><speed>1.44</speed></extensions>
      </trkpt>
      <trkpt lat="51.861359000" lon="7.596382000">
        <ele>57.6</ele>
        <time>2017-04-29T06:40:46</time>
        <extensions><speed>1.42</speed></extensions>
      </trkpt>
      <trkpt lat="51.861370000" lon="7.596363000">
        <ele>57.6</ele>
        <time>2017-04-29T06:40:47</time>
        <extensions><speed>1.42</speed></extensions>
      </trkpt>
      <trkpt lat="51.861378000" lon="7.596347000">
        <ele>57.6</ele>
        <time>2017-04-29T06:40:48</time>
        <extensions><speed>1.42</speed></extensions>
      </trkpt>
      <trkpt lat="51.861389000" lon="7.596332000">
        <ele>57.6</ele>
        <time>2017-04-29T06:40:49</time>
        <extensions><speed>1.42</speed></extensions>
      </trkpt>
      <trkpt lat="51.861393000" lon="7.596315000">
        <ele>57.6</ele>
        <time>2017-04-29T06:40:50</time>
        <extensions><speed>1.41</speed></extensions>
      </trkpt>
      <trkpt lat="51.861401000" lon="7.596296000">
        <ele>57.6</ele>
        <time>2017-04-29T06:40:51</time>
        <extensions><speed>1.41</speed></extensions>
      </trkpt>
      <trkpt lat="51.861408000" lon="7.596277000">
        <ele>57.6</ele>
        <time>2017-04-29T06:40:52</time>
        <extensions><speed>1.41</speed></extensions>
      </trkpt>
      <trkpt lat="51.861420000" lon="7.596258000">
        <ele>57.6</ele>
        <time>2017-04-29T06:40:53</time>
        <extensions><speed>1.45</speed></extensions>
      </trkpt>
      <trkpt lat="51.861427000" lon="7.596243000">
        <ele>57.6</ele>
        <time>2017-04-29T06:40:54</time>
        <extensions><speed>1.44</speed></extensions>
      </trkpt>
      <trkpt lat="51.861435000" lon="7.596227000">
        <ele>57.6</ele>
        <time>2017-04-29T06:40:55</time>
        <extensions><speed>1.45</speed></extensions>
      </trkpt>
      <trkpt lat="51.861446000" lon="7.596212000">
        <ele>57.6</ele>
        <time>2017-04-29T06:40:56</time>
        <extensions><speed>1.48</speed></extensions>
      </trkpt>
      <trkpt lat="51.861454000" lon="7.596197000">
        <ele>57.6</ele>
        <time>2017-04-29T06:40:57</time>
        <extensions><speed>1.46</speed></extensions>
      </trkpt>
      <trkpt lat="51.861458000" lon="7.596180000">
        <ele>57.7</ele>
        <time>2017-04-29T06:40:58</time>
        <extensions><speed>1.43</speed></extensions>
      </trkpt>
      <trkpt lat="51.861469000" lon="7.596165000">
        <ele>57.7</ele>
        <time>2017-04-29T06:40:59</time>
        <extensions><speed>1.43</speed></extensions>
      </trkpt>
      <trkpt lat="51.861477000" lon="7.596147000">
        <ele>57.7</ele>
        <time>2017-04-29T06:41:00</time>
        <extensions><speed>1.42</speed></extensions>
      </trkpt>
      <trkpt lat="51.861485000" lon="7.596130000">
        <ele>57.7</ele>
        <time>2017-04-29T06:41:01</time>
        <extensions><speed>1.41</speed></extensions>
      </trkpt>
      <trkpt lat="51.861488000" lon="7.596113000">
        <ele>57.7</ele>
        <time>2017-04-29T06:41:02</time>
        <extensions><speed>1.41</speed></extensions>
      </trkpt>
      <trkpt lat="51.861500000" lon="7.596095000">
        <ele>57.7</ele>
        <time>2017-04-29T06:41:03</time>
        <extensions><speed>1.41</speed></extensions>
      </trkpt>
      <trkpt lat="51.861504000" lon="7.596077000">
        <ele>57.7</ele>
        <time>2017-04-29T06:41:04</time>
        <extensions><speed>1.44</speed></extensions>
      </trkpt>
      <trkpt lat="51.861515000" lon="7.596060000">
        <ele>57.7</ele>
        <time>2017-04-29T06:41:05</time>
        <extensions><speed>1.47</speed></extensions>
      </trkpt>
      <trkpt lat="51.861519000" lon="7.596043000">
        <ele>57.8</ele>
        <time>2017-04-29T06:41:06</time>
        <extensions><speed>1.50</speed></extensions>
      </trkpt>
      <trkpt lat="51.861530000" lon="7.596025000">
        <ele>57.8</ele>
        <time>2017-04-29T06:41:07</time>
        <extensions><speed>1.50</speed></extensions>
      </trkpt>
      <trkpt lat="51.861542000" lon="7.596011000">
        <ele>57.8</ele>
        <time>2017-04-29T06:41:08</time>
        <extensions><speed>1.50</speed></extensions>
      </trkpt>
      <trkpt lat="51.861549000" lon="7.595997000">
        <ele>57.8</ele>
        <time>2017-04-29T06:41:09</time>
        <extensions><speed>1.43</speed></extensions>
      </trkpt>
      <trkpt lat="51.861557000" lon="7.595982000">
        <ele>57.8</ele>
        <time>2017-04-29T06:41:10</time>
        <extensions><speed>1.39</speed></extensions>
      </trkpt>
      <trkpt lat="51.861565000" lon="7.595965000">
        <ele>57.8</ele>
        <time>2017-04-29T06:41:11</time>
        <extensions><speed>1.34</speed></extensions>
      </trkpt>
      <trkpt lat="51.861572000" lon="7.595950000">
        <ele>57.8</ele>
        <time>2017-04-29T06:41:12</time>
        <extensions><speed>1.34</speed></extensions>
      </trkpt>
      <trkpt lat="51.861580000" lon="7.595933000">
        <ele>57.8</ele>
        <time>2017-04-29T06:41:13</time>
        <extensions><speed>1.41</speed></extensions>
      </trkpt>
      <trkpt lat="51.861588000" lon="7.595917000">
        <ele>57.8</ele>
        <time>2017-04-29T06:41:14</time>
        <extensions><speed>1.41</speed></extensions>
      </trkpt>
      <trkpt lat="51.861595000" lon="7.595901000">
        <ele>57.9</ele>
        <time>2017-04-29T06:41:15</time>
        <extensions><speed>1.45</speed></extensions>
      </trkpt>
      <trkpt lat="51.861607000" lon="7.595881000">
        <ele>57.9</ele>
        <time>2017-04-29T06:41:16</time>
        <extensions><speed>1.47</speed></extensions>
      </trkpt>
      <trkpt lat="51.861614000" lon="7.595864000">
        <ele>57.9</ele>
        <time>2017-04-29T06:41:17</time>
        <extensions><speed>1.47</speed></extensions>
      </trkpt>
      <trkpt lat="51.861618000" lon="7.595847000">
        <ele>57.9</ele>
        <time>2017-04-29T06:41:18</time>
        <extensions><speed>1.47</speed></extensions>
      </trkpt>
      <trkpt lat="51.861629000" lon="7.595829000">
        <ele>57.9</ele>
        <time>2017-04-29T06:41:19</time>
        <extensions><speed>1.47</speed></extensions>
      </trkpt>
      <trkpt lat="51.861637000" lon="7.595811000">
        <ele>57.9</ele>
        <time>2017-04-29T06:41:20</time>
        <extensions><speed>1.46</speed></extensions>
      </trkpt>
      <trkpt lat="51.861641000" lon="7.595794000">
        <ele>57.9</ele>
        <time>2017-04-29T06:41:21</time>
        <extensions><speed>1.44</speed></extensions>
      </trkpt>
      <trkpt lat="51.861649000" lon="7.595778000">
        <ele>57.9</ele>
        <time>2017-04-29T06:41:22</time>
        <extensions><speed>1.44</speed></extensions>
      </trkpt>
      <trkpt lat="51.861656000" lon="7.595760000">
        <ele>58.0</ele>
        <time>2017-04-29T06:41:23</time>
        <extensions><speed>1.45</speed></extensions>
      </trkpt>
      <trkpt lat="51.861664000" lon="7.595740000">
        <ele>58.0</ele>
        <time>2017-04-29T06:41:24</time>
        <extensions><speed>1.44</speed></extensions>
      </trkpt>
      <trkpt lat="51.861671000" lon="7.595724000">
        <ele>58.0</ele>
        <time>2017-04-29T06:41:25</time>
        <extensions><speed>1.44</speed></extensions>
      </trkpt>
      <trkpt lat="51.861683000" lon="7.595706000">
        <ele>58.0</ele>
        <time>2017-04-29T06:41:26</time>
        <extensions><speed>1.46</speed></extensions>
      </trkpt>
      <trkpt lat="51.861691000" lon="7.595694000">
        <ele>58.0</ele>
        <time>2017-04-29T06:41:27</time>
        <extensions><speed>1.46</speed></extensions>
      </trkpt>
      <trkpt lat="51.861698000" lon="7.595676000">
        <ele>58.0</ele>
        <time>2017-04-29T06:41:28</time>
        <extensions><speed>1.47</speed></extensions>
      </trkpt>
      <trkpt lat="51.861710000" lon="7.595661000">
        <ele>58.0</ele>
        <time>2017-04-29T06:41:29</time>
        <extensions><speed>1.47</speed></extensions>
      </trkpt>
      <trkpt lat="51.861713000" lon="7.595647000">
        <ele>58.0</ele>
        <time>2017-04-29T06:41:30</time>
        <extensions><speed>1.46</speed></extensions>
      </trkpt>
      <trkpt lat="51.861721000" lon="7.595628000">
        <ele>58.0</ele>
        <time>2017-04-29T06:41:31</time>
        <extensions><speed>1.43</speed></extensions>
      </trkpt>
      <trkpt lat="51.861729000" lon="7.595613000">
        <ele>58.1</ele>
        <time>2017-04-29T06:41:32</time>
        <extensions><speed>1.36</speed></extensions>
      </trkpt>
      <trkpt lat="51.861740000" lon="7.595598000">
        <ele>58.1</ele>
        <time>2017-04-29T06:41:33</time>
        <extensions><speed>1.34</speed></extensions>
      </trkpt>
      <trkpt lat="51.861748000" lon="7.595582000">
        <ele>58.1</ele>
        <time>2017-04-29T06:41:34</time>
        <extensions><speed>1.34</speed></extensions>
      </trkpt>
      <trkpt lat="51.861752000" lon="7.595563000">
        <ele>58.1</ele>
        <time>2017-04-29T06:41:35</time>
        <extensions><speed>1.36</speed></extensions>
      </trkpt>
      <trkpt lat="51.861759000" lon="7.595545000">
        <ele>58.1</ele>
        <time>2017-04-29T06:41:36</time>
        <extensions><speed>1.39</speed></extensions>
      </trkpt>
      <trkpt lat="51.861767000" lon="7.595526000">
        <ele>58.1</ele>
        <time>2017-04-29T06:41:37</time>
        <extensions><speed>1.44</speed></extensions>
      </trkpt>
      <trkpt lat="51.861774000" lon="7.595513000">
        <ele>58.1</ele>
        <time>2017-04-29T06:41:38</time>
        <extensions><speed>1.44</speed></extensions>
      </trkpt>
      <trkpt lat="51.861782000" lon="7.595500000">
        <ele>58.1</ele>
        <time>2017-04-29T06:41:39</time>
        <extensions><speed>1.44</speed></extensions>
      </trkpt>
      <trkpt lat="51.861794000" lon="7.595482000">
        <ele>58.1</ele>
        <time>2017-04-29T06:41:40</time>
        <extensions><speed>1.43</speed></extensions>
      </trkpt>
      <trkpt lat="51.861797000" lon="7.595463000">
        <ele>58.1</ele>
        <time>2017-04-29T06:41:41</time>
        <extensions><speed>1.41</speed></extensions>
      </trkpt>
      <trkpt lat="51.861805000" lon="7.595447000">
        <ele>58.1</ele>
        <time>2017-04-29T06:41:42</time>
        <extensions><speed>1.40</speed></extensions>
      </trkpt>
      <trkpt lat="51.861813000" lon="7.595432000">
        <ele>58.1</ele>
        <time>2017-04-29T06:41:43</time>
        <extensions><speed>1.44</speed></extensions>
      </trkpt>
      <trkpt lat="51.861816000" lon="7.595423000">
        <ele>58.1</ele>
        <time>2017-04-29T06:41:44</time>
      </trkpt>
      <trkpt lat="51.861824000" lon="7.595407000">
        <ele>58.1</ele>
        <time>2017-04-29T06:41:46</time>
        <extensions><speed>1.36</speed></extensions>
      </trkpt>
      <trkpt lat="51.861828000" lon="7.595388000">
        <ele>58.2</ele>
        <time>2017-04-29T06:41:47</time>
        <extensions><speed>1.37</speed></extensions>
      </trkpt>
      <trkpt lat="51.861839000" lon="7.595370000">
        <ele>58.2</ele>
        <time>2017-04-29T06:41:48</time>
        <extensions><speed>1.33</speed></extensions>
      </trkpt>
      <trkpt lat="51.861843000" lon="7.595351000">
        <ele>58.2</ele>
        <time>2017-04-29T06:41:49</time>
        <extensions><speed>1.39</speed></extensions>
      </trkpt>
      <trkpt lat="51.861847000" lon="7.595332000">
        <ele>58.2</ele>
        <time>2017-04-29T06:41:50</time>
        <extensions><speed>1.41</speed></extensions>
      </trkpt>
      <trkpt lat="51.861855000" lon="7.595315000">
        <ele>58.2</ele>
        <time>2017-04-29T06:41:51</time>
        <extensions><speed>1.41</speed></extensions>
      </trkpt>
      <trkpt lat="51.861866000" lon="7.595298000">
        <ele>58.2</ele>
        <time>2017-04-29T06:41:52</time>
        <extensions><speed>1.40</speed></extensions>
      </trkpt>
      <trkpt lat="51.861874000" lon="7.595281000">
        <ele>58.2</ele>
        <time>2017-04-29T06:41:53</time>
        <extensions><speed>1.41</speed></extensions>
      </trkpt>
      <trkpt lat="51.861881000" lon="7.595265000">
        <ele>58.2</ele>
        <time>2017-04-29T06:41:54</time>
        <extensions><speed>1.41</speed></extensions>
      </trkpt>
      <trkpt lat="51.861889000" lon="7.595246000">
        <ele>58.1</ele>
        <time>2017-04-29T06:41:55</time>
        <extensions><speed>1.42</speed></extensions>
      </trkpt>
      <trkpt lat="51.861897000" lon="7.595228000">
        <ele>58.1</ele>
        <time>2017-04-29T06:41:56</time>
        <extensions><speed>1.43</speed></extensions>
      </trkpt>
      <trkpt lat="51.861908000" lon="7.595212000">
        <ele>58.1</ele>
        <time>2017-04-29T06:41:57</time>
        <extensions><speed>1.42</speed></extensions>
      </trkpt>
      <trkpt lat="51.861916000" lon="7.595197000">
        <ele>58.1</ele>
        <time>2017-04-29T06:41:58</time>
        <extensions><speed>1.41</speed></extensions>
      </trkpt>
      <trkpt lat="51.861923000" lon="7.595181000">
        <ele>58.1</ele>
        <time>2017-04-29T06:41:59</time>
        <extensions><speed>1.41</speed></extensions>
      </trkpt>
      <trkpt lat="51.861935000" lon="7.595165000">
        <ele>58.1</ele>
        <time>2017-04-29T06:42:00</time>
        <extensions><speed>1.41</speed></extensions>
      </trkpt>
      <trkpt lat="51.861942000" lon="7.595147000">
        <ele>58.1</ele>
        <time>2017-04-29T06:42:01</time>
        <extensions><speed>1.43</speed></extensions>
      </trkpt>
      <trkpt lat="51.861942000" lon="7.595129000">
        <ele>58.1</ele>
        <time>2017-04-29T06:42:02</time>
        <extensions><speed>1.45</speed></extensions>
      </trkpt>
      <trkpt lat="51.861954000" lon="7.595111000">
        <ele>58.1</ele>
        <time>2017-04-29T06:42:03</time>
        <extensions><speed>1.48</speed></extensions>
      </trkpt>
      <trkpt lat="51.861965000" lon="7.595097000">
        <ele>58.1</ele>
        <time>2017-04-29T06:42:04</time>
        <extensions><speed>1.48</speed></extensions>
      </trkpt>
      <trkpt lat="51.861973000" lon="7.595081000">
        <ele>58.1</ele>
        <time>2017-04-29T06:42:05</time>
        <extensions><speed>1.47</speed></extensions>
      </trkpt>
      <trkpt lat="51.861980000" lon="7.595067000">
        <ele>58.1</ele>
        <time>2017-04-29T06:42:06</time>
        <extensions><speed>1.46</speed></extensions>
      </trkpt>
      <trkpt lat="51.861988000" lon="7.595050000">
        <ele>58.1</ele>
        <time>2017-04-29T06:42:07</time>
        <extensions><speed>1.44</speed></extensions>
      </trkpt>
      <trkpt lat="51.862000000" lon="7.595037000">
        <ele>58.1</ele>
        <time>2017-04-29T06:42:08</time>
        <extensions><speed>1.41</speed></extensions>
      </trkpt>
      <trkpt lat="51.862007000" lon="7.595022000">
        <ele>58.1</ele>
        <time>2017-04-29T06:42:09</time>
        <extensions><speed>1.41</speed></extensions>
      </trkpt>
      <trkpt lat="51.862015000" lon="7.595005000">
        <ele>58.1</ele>
        <time>2017-04-29T06:42:10</time>
        <extensions><speed>1.43</speed></extensions>
      </trkpt>
      <trkpt lat="51.862030000" lon="7.594990000">
        <ele>58.1</ele>
        <time>2017-04-29T06:42:11</time>
        <extensions><speed>1.44</speed></extensions>
      </trkpt>
      <trkpt lat="51.862041000" lon="7.594978000">
        <ele>58.1</ele>
        <time>2017-04-29T06:42:12</time>
        <extensions><speed>1.45</speed></extensions>
      </trkpt>
      <trkpt lat="51.862049000" lon="7.594965000">
        <ele>58.0</ele>
        <time>2017-04-29T06:42:13</time>
        <extensions><speed>1.46</speed></extensions>
      </trkpt>
      <trkpt lat="51.862057000" lon="7.594948000">
        <ele>58.0</ele>
        <time>2017-04-29T06:42:14</time>
        <extensions><speed>1.46</speed></extensions>
      </trkpt>
      <trkpt lat="51.862068000" lon="7.594931000">
        <ele>58.0</ele>
        <time>2017-04-29T06:42:15</time>
        <extensions><speed>1.43</speed></extensions>
      </trkpt>
      <trkpt lat="51.862072000" lon="7.594917000">
        <ele>58.0</ele>
        <time>2017-04-29T06:42:16</time>
        <extensions><speed>1.43</speed></extensions>
      </trkpt>
      <trkpt lat="51.862083000" lon="7.594900000">
        <ele>58.0</ele>
        <time>2017-04-29T06:42:17</time>
        <extensions><speed>1.43</speed></extensions>
      </trkpt>
      <trkpt lat="51.862091000" lon="7.594883000">
        <ele>58.0</ele>
        <time>2017-04-29T06:42:18</time>
        <extensions><speed>1.43</speed></extensions>
      </trkpt>
      <trkpt lat="51.862103000" lon="7.594868000">
        <ele>58.0</ele>
        <time>2017-04-29T06:42:19</time>
        <extensions><speed>1.46</speed></extensions>
      </trkpt>
      <trkpt lat="51.862110000" lon="7.594853000">
        <ele>58.0</ele>
        <time>2017-04-29T06:42:20</time>
        <extensions><speed>1.45</speed></extensions>
      </trkpt>
      <trkpt lat="51.862118000" lon="7.594841000">
        <ele>58.0</ele>
        <time>2017-04-29T06:42:21</time>
        <extensions><speed>1.42</speed></extensions>
      </trkpt>
      <trkpt lat="51.862129000" lon="7.594830000">
        <ele>58.0</ele>
        <time>2017-04-29T06:42:22</time>
        <extensions><speed>1.43</speed></extensions>
      </trkpt>
      <trkpt lat="51.862137000" lon="7.594817000">
        <ele>58.0</ele>
        <time>2017-04-29T06:42:23</time>
        <extensions><speed>1.47</speed></extensions>
      </trkpt>
      <trkpt lat="51.862141000" lon="7.594810000">
        <ele>58.0</ele>
        <time>2017-04-29T06:42:24</time>
      </trkpt>
      <trkpt lat="51.862156000" lon="7.594796000">
        <ele>58.0</ele>
        <time>2017-04-29T06:42:26</time>
        <extensions><speed>1.44</speed></extensions>
      </trkpt>
      <trkpt lat="51.862164000" lon="7.594782000">
        <ele>58.0</ele>
        <time>2017-04-29T06:42:27</time>
        <extensions><speed>1.40</speed></extensions>
      </trkpt>
      <trkpt lat="51.862167000" lon="7.594779000">
        <ele>58.0</ele>
        <time>2017-04-29T06:42:28</time>
      </trkpt>
      <trkpt lat="51.862171000" lon="7.594772000">
        <ele>58.0</ele>
        <time>2017-04-29T06:42:30</time>
        <extensions><speed>0.87</speed></extensions>
      </trkpt>
      <trkpt lat="51.862263000" lon="7.594630000">
        <ele>58.0</ele>
        <time>2017-04-29T06:43:58</time>
      </trkpt>
      <trkpt lat="51.862270000" lon="7.594615000">
        <ele>58.0</ele>
        <time>2017-04-29T06:44:00</time>
        <extensions><speed>1.51</speed></extensions>
      </trkpt>
      <trkpt lat="51.862282000" lon="7.594604000">
        <ele>58.0</ele>
        <time>2017-04-29T06:44:01</time>
        <extensions><speed>1.51</speed></extensions>
      </trkpt>
      <trkpt lat="51.862293000" lon="7.594590000">
        <ele>58.0</ele>
        <time>2017-04-29T06:44:02</time>
        <extensions><speed>1.51</speed></extensions>
      </trkpt>
      <trkpt lat="51.862301000" lon="7.594577000">
        <ele>58.0</ele>
        <time>2017-04-29T06:44:03</time>
        <extensions><speed>1.47</speed></extensions>
      </trkpt>
      <trkpt lat="51.862312000" lon="7.594560000">
        <ele>58.0</ele>
        <time>2017-04-29T06:44:04</time>
        <extensions><speed>1.47</speed></extensions>
      </trkpt>
      <trkpt lat="51.862324000" lon="7.594542000">
        <ele>58.0</ele>
        <time>2017-04-29T06:44:05</time>
        <extensions><speed>1.50</speed></extensions>
      </trkpt>
      <trkpt lat="51.862331000" lon="7.594525000">
        <ele>58.0</ele>
        <time>2017-04-29T06:44:06</time>
        <extensions><speed>1.51</speed></extensions>
      </trkpt>
      <trkpt lat="51.862343000" lon="7.594509000">
        <ele>58.0</ele>
        <time>2017-04-29T06:44:07</time>
        <extensions><speed>1.52</speed></extensions>
      </trkpt>
      <trkpt lat="51.862358000" lon="7.594495000">
        <ele>58.0</ele>
        <time>2017-04-29T06:44:08</time>
        <extensions><speed>1.52</speed></extensions>
      </trkpt>
      <trkpt lat="51.862366000" lon="7.594481000">
        <ele>58.0</ele>
        <time>2017-04-29T06:44:09</time>
        <extensions><speed>1.51</speed></extensions>
      </trkpt>
      <trkpt lat="51.862381000" lon="7.594467000">
        <ele>58.0</ele>
        <time>2017-04-29T06:44:10</time>
        <extensions><speed>1.50</speed></extensions>
      </trkpt>
      <trkpt lat="51.862392000" lon="7.594450000">
        <ele>58.0</ele>
        <time>2017-04-29T06:44:11</time>
        <extensions><speed>1.50</speed></extensions>
      </trkpt>
      <trkpt lat="51.862400000" lon="7.594435000">
        <ele>58.0</ele>
        <time>2017-04-29T06:44:12</time>
        <extensions><speed>1.55</speed></extensions>
      </trkpt>
      <trkpt lat="51.862411000" lon="7.594420000">
        <ele>58.0</ele>
        <time>2017-04-29T06:44:13</time>
        <extensions><speed>1.55</speed></extensions>
      </trkpt>
      <trkpt lat="51.862423000" lon="7.594407000">
        <ele>58.0</ele>
        <time>2017-04-29T06:44:14</time>
        <extensions><speed>1.54</speed></extensions>
      </trkpt>
      <trkpt lat="51.862434000" lon="7.594392000">
        <ele>58.0</ele>
        <time>2017-04-29T06:44:15</time>
        <extensions><speed>1.52</speed></extensions>
      </trkpt>
      <trkpt lat="51.862446000" lon="7.594378000">
        <ele>58.0</ele>
        <time>2017-04-29T06:44:16</time>
        <extensions><speed>1.49</speed></extensions>
      </trkpt>
      <trkpt lat="51.862457000" lon="7.594364000">
        <ele>58.0</ele>
        <time>2017-04-29T06:44:17</time>
        <extensions><speed>1.48</speed></extensions>
      </trkpt>
      <trkpt lat="51.862469000" lon="7.594347000">
        <ele>58.0</ele>
        <time>2017-04-29T06:44:18</time>
        <extensions><speed>1.48</speed></extensions>
      </trkpt>
      <trkpt lat="51.862476000" lon="7.594330000">
        <ele>58.0</ele>
        <time>2017-04-29T06:44:19</time>
        <extensions><speed>1.51</speed></extensions>
      </trkpt>
      <trkpt lat="51.862488000" lon="7.594313000">
        <ele>58.0</ele>
        <time>2017-04-29T06:44:20</time>
        <extensions><speed>1.54</speed></extensions>
      </trkpt>
      <trkpt lat="51.862495000" lon="7.594299000">
        <ele>58.0</ele>
        <time>2017-04-29T06:44:21</time>
        <extensions><speed>1.54</speed></extensions>
      </trkpt>
      <trkpt lat="51.862511000" lon="7.594283000">
        <ele>58.0</ele>
        <time>2017-04-29T06:44:22</time>
        <extensions><speed>1.56</speed></extensions>
      </trkpt>
      <trkpt lat="51.862522000" lon="7.594268000">
        <ele>58.0</ele>
        <time>2017-04-29T06:44:23</time>
        <extensions><speed>1.51</speed></extensions>
      </trkpt>
      <trkpt lat="51.862530000" lon="7.594254000">
        <ele>58.0</ele>
        <time>2017-04-29T06:44:24</time>
        <extensions><speed>1.46</speed></extensions>
      </trkpt>
      <trkpt lat="51.862537000" lon="7.594238000">
        <ele>58.0</ele>
        <time>2017-04-29T06:44:25</time>
        <extensions><speed>1.40</speed></extensions>
      </trkpt>
      <trkpt lat="51.862545000" lon="7.594222000">
        <ele>58.0</ele>
        <time>2017-04-29T06:44:26</time>
        <extensions><speed>1.40</speed></extensions>
      </trkpt>
      <trkpt lat="51.862556000" lon="7.594205000">
        <ele>58.0</ele>
        <time>2017-04-29T06:44:27</time>
        <extensions><speed>1.40</speed></extensions>
      </trkpt>
      <trkpt lat="51.862564000" lon="7.594192000">
        <ele>58.0</ele>
        <time>2017-04-29T06:44:28</time>
        <extensions><speed>1.41</speed></extensions>
      </trkpt>
      <trkpt lat="51.862583000" lon="7.594183000">
        <ele>58.0</ele>
        <time>2017-04-29T06:44:29</time>
        <extensions><speed>1.47</speed></extensions>
      </trkpt>
      <trkpt lat="51.862595000" lon="7.594180000">
        <ele>57.9</ele>
        <time>2017-04-29T06:44:30</time>
        <extensions><speed>1.49</speed></extensions>
      </trkpt>
      <trkpt lat="51.862610000" lon="7.594180000">
        <ele>57.9</ele>
        <time>2017-04-29T06:44:31</time>
        <extensions><speed>1.49</speed></extensions>
      </trkpt>
      <trkpt lat="51.862625000" lon="7.594183000">
        <ele>57.9</ele>
        <time>2017-04-29T06:44:32</time>
        <extensions><speed>1.55</speed></extensions>
      </trkpt>
      <trkpt lat="51.862637000" lon="7.594182000">
        <ele>57.9</ele>
        <time>2017-04-29T06:44:33</time>
        <extensions><speed>1.57</speed></extensions>
      </trkpt>
      <trkpt lat="51.862652000" lon="7.594183000">
        <ele>57.9</ele>
        <time>2017-04-29T06:44:34</time>
        <extensions><speed>1.48</speed></extensions>
      </trkpt>
      <trkpt lat="51.862663000" lon="7.594187000">
        <ele>57.9</ele>
        <time>2017-04-29T06:44:35</time>
        <extensions><speed>1.56</speed></extensions>
      </trkpt>
      <trkpt lat="51.862682000" lon="7.594195000">
        <ele>57.9</ele>
        <time>2017-04-29T06:44:36</time>
        <extensions><speed>1.56</speed></extensions>
      </trkpt>
      <trkpt lat="51.862690000" lon="7.594203000">
        <ele>57.9</ele>
        <time>2017-04-29T06:44:37</time>
        <extensions><speed>1.49</speed></extensions>
      </trkpt>
      <trkpt lat="51.862705000" lon="7.594206000">
        <ele>57.9</ele>
        <time>2017-04-29T06:44:38</time>
        <extensions><speed>1.47</speed></extensions>
      </trkpt>
      <trkpt lat="51.862720000" lon="7.594212000">
        <ele>57.9</ele>
        <time>2017-04-29T06:44:39</time>
        <extensions><speed>1.47</speed></extensions>
      </trkpt>
      <trkpt lat="51.862728000" lon="7.594217000">
        <ele>57.9</ele>
        <time>2017-04-29T06:44:40</time>
        <extensions><speed>1.47</speed></extensions>
      </trkpt>
      <trkpt lat="51.862743000" lon="7.594222000">
        <ele>57.9</ele>
        <time>2017-04-29T06:44:41</time>
        <extensions><speed>1.49</speed></extensions>
      </trkpt>
      <trkpt lat="51.862759000" lon="7.594227000">
        <ele>57.9</ele>
        <time>2017-04-29T06:44:42</time>
        <extensions><speed>1.51</speed></extensions>
      </trkpt>
      <trkpt lat="51.862774000" lon="7.594232000">
        <ele>57.9</ele>
        <time>2017-04-29T06:44:43</time>
        <extensions><speed>1.56</speed></extensions>
      </trkpt>
      <trkpt lat="51.862789000" lon="7.594236000">
        <ele>57.9</ele>
        <time>2017-04-29T06:44:44</time>
        <extensions><speed>1.56</speed></extensions>
      </trkpt>
      <trkpt lat="51.862801000" lon="7.594242000">
        <ele>57.9</ele>
        <time>2017-04-29T06:44:45</time>
        <extensions><speed>1.58</speed></extensions>
      </trkpt>
      <trkpt lat="51.862820000" lon="7.594246000">
        <ele>58.0</ele>
        <time>2017-04-29T06:44:46</time>
        <extensions><speed>1.60</speed></extensions>
      </trkpt>
      <trkpt lat="51.862827000" lon="7.594250000">
        <ele>58.0</ele>
        <time>2017-04-29T06:44:47</time>
        <extensions><speed>1.57</speed></extensions>
      </trkpt>
      <trkpt lat="51.862839000" lon="7.594255000">
        <ele>58.0</ele>
        <time>2017-04-29T06:44:48</time>
        <extensions><speed>1.55</speed></extensions>
      </trkpt>
      <trkpt lat="51.862854000" lon="7.594260000">
        <ele>58.0</ele>
        <time>2017-04-29T06:44:49</time>
        <extensions><speed>1.53</speed></extensions>
      </trkpt>
      <trkpt lat="51.862865000" lon="7.594267000">
        <ele>58.0</ele>
        <time>2017-04-29T06:44:50</time>
        <extensions><speed>1.45</speed></extensions>
      </trkpt>
      <trkpt lat="51.862881000" lon="7.594273000">
        <ele>58.0</ele>
        <time>2017-04-29T06:44:51</time>
        <extensions><speed>1.45</speed></extensions>
      </trkpt>
      <trkpt lat="51.862892000" lon="7.594278000">
        <ele>58.0</ele>
        <time>2017-04-29T06:44:52</time>
        <extensions><speed>1.50</speed></extensions>
      </trkpt>
      <trkpt lat="51.862904000" lon="7.594280000">
        <ele>58.0</ele>
        <time>2017-04-29T06:44:53</time>
        <extensions><speed>1.43</speed></extensions>
      </trkpt>
      <trkpt lat="51.862919000" lon="7.594278000">
        <ele>58.0</ele>
        <time>2017-04-29T06:44:54</time>
        <extensions><speed>1.41</speed></extensions>
      </trkpt>
      <trkpt lat="51.862934000" lon="7.594285000">
        <ele>58.0</ele>
        <time>2017-04-29T06:44:55</time>
        <extensions><speed>1.48</speed></extensions>
      </trkpt>
      <trkpt lat="51.862946000" lon="7.594288000">
        <ele>58.0</ele>
        <time>2017-04-29T06:44:56</time>
        <extensions><speed>1.38</speed></extensions>
      </trkpt>
      <trkpt lat="51.862957000" lon="7.594288000">
        <ele>58.0</ele>
        <time>2017-04-29T06:44:57</time>
        <extensions><speed>1.43</speed></extensions>
      </trkpt>
      <trkpt lat="51.862972000" lon="7.594294000">
        <ele>58.0</ele>
        <time>2017-04-29T06:44:58</time>
        <extensions><speed>1.50</speed></extensions>
      </trkpt>
      <trkpt lat="51.862984000" lon="7.594297000">
        <ele>58.0</ele>
        <time>2017-04-29T06:44:59</time>
        <extensions><speed>1.55</speed></extensions>
      </trkpt>
      <trkpt lat="51.862995000" lon="7.594302000">
        <ele>58.0</ele>
        <time>2017-04-29T06:45:00</time>
        <extensions><speed>1.49</speed></extensions>
      </trkpt>
      <trkpt lat="51.863010000" lon="7.594306000">
        <ele>58.0</ele>
        <time>2017-04-29T06:45:01</time>
        <extensions><speed>1.53</speed></extensions>
      </trkpt>
      <trkpt lat="51.863022000" lon="7.594308000">
        <ele>58.0</ele>
        <time>2017-04-29T06:45:02</time>
        <extensions><speed>1.49</speed></extensions>
      </trkpt>
      <trkpt lat="51.863037000" lon="7.594310000">
        <ele>58.0</ele>
        <time>2017-04-29T06:45:03</time>
        <extensions><speed>1.48</speed></extensions>
      </trkpt>
      <trkpt lat="51.863052000" lon="7.594313000">
        <ele>58.0</ele>
        <time>2017-04-29T06:45:04</time>
        <extensions><speed>1.49</speed></extensions>
      </trkpt>
      <trkpt lat="51.863064000" lon="7.594318000">
        <ele>58.0</ele>
        <time>2017-04-29T06:45:05</time>
        <extensions><speed>1.48</speed></extensions>
      </trkpt>
      <trkpt lat="51.863079000" lon="7.594325000">
        <ele>58.0</ele>
        <time>2017-04-29T06:45:06</time>
        <extensions><speed>1.45</speed></extensions>
      </trkpt>
      <trkpt lat="51.863091000" lon="7.594328000">
        <ele>58.0</ele>
        <time>2017-04-29T06:45:07</time>
        <extensions><speed>1.46</speed></extensions>
      </trkpt>
      <trkpt lat="51.863102000" lon="7.594334000">
        <ele>58.0</ele>
        <time>2017-04-29T06:45:08</time>
        <extensions><speed>1.46</speed></extensions>
      </trkpt>
      <trkpt lat="51.863113000" lon="7.594337000">
        <ele>58.1</ele>
        <time>2017-04-29T06:45:09</time>
        <extensions><speed>1.46</speed></extensions>
      </trkpt>
      <trkpt lat="51.863125000" lon="7.594340000">
        <ele>58.1</ele>
        <time>2017-04-29T06:45:10</time>
        <extensions><speed>1.46</speed></extensions>
      </trkpt>
      <trkpt lat="51.863140000" lon="7.594341000">
        <ele>58.1</ele>
        <time>2017-04-29T06:45:11</time>
        <extensions><speed>1.41</speed></extensions>
      </trkpt>
      <trkpt lat="51.863152000" lon="7.594341000">
        <ele>58.1</ele>
        <time>2017-04-29T06:45:12</time>
        <extensions><speed>1.46</speed></extensions>
      </trkpt>
      <trkpt lat="51.863171000" lon="7.594341000">
        <ele>58.1</ele>
        <time>2017-04-29T06:45:13</time>
        <extensions><speed>1.50</speed></extensions>
      </trkpt>
      <trkpt lat="51.863182000" lon="7.594341000">
        <ele>58.2</ele>
        <time>2017-04-29T06:45:14</time>
        <extensions><speed>1.48</speed></extensions>
      </trkpt>
      <trkpt lat="51.863194000" lon="7.594340000">
        <ele>58.2</ele>
        <time>2017-04-29T06:45:15</time>
        <extensions><speed>1.51</speed></extensions>
      </trkpt>
      <trkpt lat="51.863209000" lon="7.594340000">
        <ele>58.2</ele>
        <time>2017-04-29T06:45:16</time>
        <extensions><speed>1.51</speed></extensions>
      </trkpt>
      <trkpt lat="51.863220000" lon="7.594338000">
        <ele>58.2</ele>
        <time>2017-04-29T06:45:17</time>
        <extensions><speed>1.48</speed></extensions>
      </trkpt>
      <trkpt lat="51.863235000" lon="7.594337000">
        <ele>58.3</ele>
        <time>2017-04-29T06:45:18</time>
        <extensions><speed>1.45</speed></extensions>
      </trkpt>
      <trkpt lat="51.863247000" lon="7.594338000">
        <ele>58.3</ele>
        <time>2017-04-29T06:45:19</time>
        <extensions><speed>1.44</speed></extensions>
      </trkpt>
      <trkpt lat="51.863258000" lon="7.594341000">
        <ele>58.3</ele>
        <time>2017-04-29T06:45:20</time>
        <extensions><speed>1.44</speed></extensions>
      </trkpt>
      <trkpt lat="51.863270000" lon="7.594345000">
        <ele>58.3</ele>
        <time>2017-04-29T06:45:21</time>
        <extensions><speed>1.40</speed></extensions>
      </trkpt>
      <trkpt lat="51.863281000" lon="7.594350000">
        <ele>58.3</ele>
        <time>2017-04-29T06:45:22</time>
        <extensions><speed>1.36</speed></extensions>
      </trkpt>
      <trkpt lat="51.863297000" lon="7.594353000">
        <ele>58.3</ele>
        <time>2017-04-29T06:45:23</time>
        <extensions><speed>1.38</speed></extensions>
      </trkpt>
      <trkpt lat="51.863308000" lon="7.594357000">
        <ele>58.4</ele>
        <time>2017-04-29T06:45:24</time>
        <extensions><speed>1.43</speed></extensions>
      </trkpt>
      <trkpt lat="51.863319000" lon="7.594360000">
        <ele>58.4</ele>
        <time>2017-04-29T06:45:25</time>
        <extensions><speed>1.42</speed></extensions>
      </trkpt>
      <trkpt lat="51.863335000" lon="7.594364000">
        <ele>58.4</ele>
        <time>2017-04-29T06:45:26</time>
        <extensions><speed>1.49</speed></extensions>
      </trkpt>
      <trkpt lat="51.863346000" lon="7.594365000">
        <ele>58.4</ele>
        <time>2017-04-29T06:45:27</time>
        <extensions><speed>1.49</speed></extensions>
      </trkpt>
      <trkpt lat="51.863361000" lon="7.594367000">
        <ele>58.4</ele>
        <time>2017-04-29T06:45:28</time>
        <extensions><speed>1.51</speed></extensions>
      </trkpt>
      <trkpt lat="51.863377000" lon="7.594365000">
        <ele>58.5</ele>
        <time>2017-04-29T06:45:29</time>
        <extensions><speed>1.49</speed></extensions>
      </trkpt>
      <trkpt lat="51.863388000" lon="7.594365000">
        <ele>58.5</ele>
        <time>2017-04-29T06:45:30</time>
        <extensions><speed>1.52</speed></extensions>
      </trkpt>
      <trkpt lat="51.863403000" lon="7.594365000">
        <ele>58.5</ele>
        <time>2017-04-29T06:45:31</time>
        <extensions><speed>1.53</speed></extensions>
      </trkpt>
      <trkpt lat="51.863415000" lon="7.594365000">
        <ele>58.5</ele>
        <time>2017-04-29T06:45:32</time>
        <extensions><speed>1.53</speed></extensions>
      </trkpt>
      <trkpt lat="51.863430000" lon="7.594365000">
        <ele>58.5</ele>
        <time>2017-04-29T06:45:33</time>
        <extensions><speed>1.54</speed></extensions>
      </trkpt>
      <trkpt lat="51.863441000" lon="7.594364000">
        <ele>58.6</ele>
        <time>2017-04-29T06:45:34</time>
        <extensions><speed>1.53</speed></extensions>
      </trkpt>
      <trkpt lat="51.863453000" lon="7.594362000">
        <ele>58.6</ele>
        <time>2017-04-29T06:45:35</time>
        <extensions><speed>1.46</speed></extensions>
      </trkpt>
      <trkpt lat="51.863468000" lon="7.594362000">
        <ele>58.6</ele>
        <time>2017-04-29T06:45:36</time>
        <extensions><speed>1.47</speed></extensions>
      </trkpt>
      <trkpt lat="51.863480000" lon="7.594360000">
        <ele>58.6</ele>
        <time>2017-04-29T06:45:37</time>
        <extensions><speed>1.45</speed></extensions>
      </trkpt>
      <trkpt lat="51.863495000" lon="7.594360000">
        <ele>58.6</ele>
        <time>2017-04-29T06:45:38</time>
        <extensions><speed>1.42</speed></extensions>
      </trkpt>
      <trkpt lat="51.863506000" lon="7.594362000">
        <ele>58.6</ele>
        <time>2017-04-29T06:45:39</time>
        <extensions><speed>1.44</speed></extensions>
      </trkpt>
      <trkpt lat="51.863518000" lon="7.594365000">
        <ele>58.7</ele>
        <time>2017-04-29T06:45:40</time>
        <extensions><speed>1.45</speed></extensions>
      </trkpt>
      <trkpt lat="51.863533000" lon="7.594368000">
        <ele>58.7</ele>
        <time>2017-04-29T06:45:41</time>
        <extensions><speed>1.45</speed></extensions>
      </trkpt>
      <trkpt lat="51.863544000" lon="7.594370000">
        <ele>58.7</ele>
        <time>2017-04-29T06:45:42</time>
        <extensions><speed>1.45</speed></extensions>
      </trkpt>
      <trkpt lat="51.863556000" lon="7.594372000">
        <ele>58.7</ele>
        <time>2017-04-29T06:45:43</time>
        <extensions><speed>1.42</speed></extensions>
      </trkpt>
      <trkpt lat="51.863571000" lon="7.594373000">
        <ele>58.7</ele>
        <time>2017-04-29T06:45:44</time>
        <extensions><speed>1.47</speed></extensions>
      </trkpt>
      <trkpt lat="51.863583000" lon="7.594375000">
        <ele>58.7</ele>
        <time>2017-04-29T06:45:45</time>
        <extensions><speed>1.45</speed></extensions>
      </trkpt>
      <trkpt lat="51.863594000" lon="7.594377000">
        <ele>58.8</ele>
        <time>2017-04-29T06:45:46</time>
        <extensions><speed>1.44</speed></extensions>
      </trkpt>
      <trkpt lat="51.863609000" lon="7.594378000">
        <ele>58.8</ele>
        <time>2017-04-29T06:45:47</time>
        <extensions><speed>1.47</speed></extensions>
      </trkpt>
      <trkpt lat="51.863625000" lon="7.594378000">
        <ele>58.8</ele>
        <time>2017-04-29T06:45:48</time>
        <extensions><speed>1.46</speed></extensions>
      </trkpt>
      <trkpt lat="51.863636000" lon="7.594380000">
        <ele>58.8</ele>
        <time>2017-04-29T06:45:49</time>
        <extensions><speed>1.45</speed></extensions>
      </trkpt>
      <trkpt lat="51.863651000" lon="7.594378000">
        <ele>58.8</ele>
        <time>2017-04-29T06:45:50</time>
        <extensions><speed>1.51</speed></extensions>
      </trkpt>
      <trkpt lat="51.863667000" lon="7.594378000">
        <ele>58.8</ele>
        <time>2017-04-29T06:45:51</time>
        <extensions><speed>1.52</speed></extensions>
      </trkpt>
      <trkpt lat="51.863678000" lon="7.594381000">
        <ele>58.9</ele>
        <time>2017-04-29T06:45:52</time>
        <extensions><speed>1.55</speed></extensions>
      </trkpt>
      <trkpt lat="51.863697000" lon="7.594387000">
        <ele>58.9</ele>
        <time>2017-04-29T06:45:53</time>
        <extensions><speed>1.55</speed></extensions>
      </trkpt>
      <trkpt lat="51.863708000" lon="7.594387000">
        <ele>58.9</ele>
        <time>2017-04-29T06:45:54</time>
        <extensions><speed>1.63</speed></extensions>
      </trkpt>
      <trkpt lat="51.863724000" lon="7.594387000">
        <ele>58.9</ele>
        <time>2017-04-29T06:45:55</time>
        <extensions><speed>1.55</speed></extensions>
      </trkpt>
      <trkpt lat="51.863735000" lon="7.594385000">
        <ele>58.9</ele>
        <time>2017-04-29T06:45:56</time>
        <extensions><speed>1.52</speed></extensions>
      </trkpt>
      <trkpt lat="51.863750000" lon="7.594387000">
        <ele>59.0</ele>
        <time>2017-04-29T06:45:57</time>
        <extensions><speed>1.47</speed></extensions>
      </trkpt>
      <trkpt lat="51.863766000" lon="7.594388000">
        <ele>59.0</ele>
        <time>2017-04-29T06:45:58</time>
        <extensions><speed>1.53</speed></extensions>
      </trkpt>
      <trkpt lat="51.863777000" lon="7.594390000">
        <ele>59.0</ele>
        <time>2017-04-29T06:45:59</time>
        <extensions><speed>1.45</speed></extensions>
      </trkpt>
      <trkpt lat="51.863789000" lon="7.594390000">
        <ele>59.0</ele>
        <time>2017-04-29T06:46:00</time>
        <extensions><speed>1.46</speed></extensions>
      </trkpt>
      <trkpt lat="51.863800000" lon="7.594392000">
        <ele>59.0</ele>
        <time>2017-04-29T06:46:01</time>
        <extensions><speed>1.42</speed></extensions>
      </trkpt>
      <trkpt lat="51.863811000" lon="7.594393000">
        <ele>59.0</ele>
        <time>2017-04-29T06:46:02</time>
        <extensions><speed>1.42</speed></extensions>
      </trkpt>
      <trkpt lat="51.863827000" lon="7.594392000">
        <ele>59.0</ele>
        <time>2017-04-29T06:46:03</time>
        <extensions><speed>1.41</speed></extensions>
      </trkpt>
      <trkpt lat="51.863838000" lon="7.594392000">
        <ele>59.0</ele>
        <time>2017-04-29T06:46:04</time>
        <extensions><speed>1.46</speed></extensions>
      </trkpt>
      <trkpt lat="51.863857000" lon="7.594392000">
        <ele>59.0</ele>
        <time>2017-04-29T06:46:05</time>
        <extensions><speed>1.48</speed></extensions>
      </trkpt>
      <trkpt lat="51.863865000" lon="7.594392000">
        <ele>59.0</ele>
        <time>2017-04-29T06:46:06</time>
        <extensions><speed>1.48</speed></extensions>
      </trkpt>
      <trkpt lat="51.863880000" lon="7.594388000">
        <ele>59.0</ele>
        <time>2017-04-29T06:46:07</time>
        <extensions><speed>1.47</speed></extensions>
      </trkpt>
      <trkpt lat="51.863895000" lon="7.594388000">
        <ele>59.0</ele>
        <time>2017-04-29T06:46:08</time>
        <extensions><speed>1.46</speed></extensions>
      </trkpt>
      <trkpt lat="51.863907000" lon="7.594390000">
        <ele>59.0</ele>
        <time>2017-04-29T06:46:09</time>
        <extensions><speed>1.44</speed></extensions>
      </trkpt>
      <trkpt lat="51.863918000" lon="7.594388000">
        <ele>59.0</ele>
        <time>2017-04-29T06:46:10</time>
        <extensions><speed>1.43</speed></extensions>
      </trkpt>
      <trkpt lat="51.863930000" lon="7.594385000">
        <ele>59.0</ele>
        <time>2017-04-29T06:46:11</time>
        <extensions><speed>1.42</speed></extensions>
      </trkpt>
      <trkpt lat="51.863941000" lon="7.594385000">
        <ele>59.0</ele>
        <time>2017-04-29T06:46:12</time>
        <extensions><speed>1.37</speed></extensions>
      </trkpt>
      <trkpt lat="51.863956000" lon="7.594385000">
        <ele>59.0</ele>
        <time>2017-04-29T06:46:13</time>
        <extensions><speed>1.37</speed></extensions>
      </trkpt>
      <trkpt lat="51.863968000" lon="7.594387000">
        <ele>59.0</ele>
        <time>2017-04-29T06:46:14</time>
        <extensions><speed>1.38</speed></extensions>
      </trkpt>
      <trkpt lat="51.863983000" lon="7.594388000">
        <ele>59.0</ele>
        <time>2017-04-29T06:46:15</time>
        <extensions><speed>1.37</speed></extensions>
      </trkpt>
      <trkpt lat="51.863995000" lon="7.594387000">
        <ele>59.0</ele>
        <time>2017-04-29T06:46:16</time>
        <extensions><speed>1.42</speed></extensions>
      </trkpt>
      <trkpt lat="51.864006000" lon="7.594385000">
        <ele>59.0</ele>
        <time>2017-04-29T06:46:17</time>
        <extensions><speed>1.42</speed></extensions>
      </trkpt>
      <trkpt lat="51.864017000" lon="7.594383000">
        <ele>59.0</ele>
        <time>2017-04-29T06:46:18</time>
        <extensions><speed>1.40</speed></extensions>
      </trkpt>
      <trkpt lat="51.864029000" lon="7.594380000">
        <ele>59.0</ele>
        <time>2017-04-29T06:46:19</time>
        <extensions><speed>1.40</speed></extensions>
      </trkpt>
      <trkpt lat="51.864040000" lon="7.594378000">
        <ele>59.0</ele>
        <time>2017-04-29T06:46:20</time>
        <extensions><speed>1.38</speed></extensions>
      </trkpt>
      <trkpt lat="51.864056000" lon="7.594375000">
        <ele>59.0</ele>
        <time>2017-04-29T06:46:21</time>
        <extensions><speed>1.38</speed></extensions>
      </trkpt>
      <trkpt lat="51.864067000" lon="7.594370000">
        <ele>59.0</ele>
        <time>2017-04-29T06:46:22</time>
        <extensions><speed>1.42</speed></extensions>
      </trkpt>
      <trkpt lat="51.864082000" lon="7.594367000">
        <ele>59.0</ele>
        <time>2017-04-29T06:46:23</time>
        <extensions><speed>1.44</speed></extensions>
      </trkpt>
      <trkpt lat="51.864094000" lon="7.594364000">
        <ele>59.0</ele>
        <time>2017-04-29T06:46:24</time>
        <extensions><speed>1.50</speed></extensions>
      </trkpt>
      <trkpt lat="51.864105000" lon="7.594362000">
        <ele>59.0</ele>
        <time>2017-04-29T06:46:25</time>
        <extensions><speed>1.50</speed></extensions>
      </trkpt>
      <trkpt lat="51.864120000" lon="7.594358000">
        <ele>59.0</ele>
        <time>2017-04-29T06:46:26</time>
        <extensions><speed>1.49</speed></extensions>
      </trkpt>
      <trkpt lat="51.864132000" lon="7.594353000">
        <ele>59.0</ele>
        <time>2017-04-29T06:46:27</time>
        <extensions><speed>1.47</speed></extensions>
      </trkpt>
      <trkpt lat="51.864143000" lon="7.594348000">
        <ele>59.0</ele>
        <time>2017-04-29T06:46:28</time>
        <extensions><speed>1.43</speed></extensions>
      </trkpt>
      <trkpt lat="51.864159000" lon="7.594347000">
        <ele>59.0</ele>
        <time>2017-04-29T06:46:29</time>
        <extensions><speed>1.43</speed></extensions>
      </trkpt>
      <trkpt lat="51.864170000" lon="7.594347000">
        <ele>59.0</ele>
        <time>2017-04-29T06:46:30</time>
        <extensions><speed>1.44</speed></extensions>
      </trkpt>
      <trkpt lat="51.864185000" lon="7.594347000">
        <ele>59.0</ele>
        <time>2017-04-29T06:46:31</time>
        <extensions><speed>1.45</speed></extensions>
      </trkpt>
      <trkpt lat="51.864197000" lon="7.594345000">
        <ele>59.0</ele>
        <time>2017-04-29T06:46:32</time>
        <extensions><speed>1.49</speed></extensions>
      </trkpt>
      <trkpt lat="51.864212000" lon="7.594341000">
        <ele>59.0</ele>
        <time>2017-04-29T06:46:33</time>
        <extensions><speed>1.51</speed></extensions>
      </trkpt>
      <trkpt lat="51.864223000" lon="7.594338000">
        <ele>59.0</ele>
        <time>2017-04-29T06:46:34</time>
        <extensions><speed>1.48</speed></extensions>
      </trkpt>
      <trkpt lat="51.864239000" lon="7.594334000">
        <ele>59.0</ele>
        <time>2017-04-29T06:46:35</time>
        <extensions><speed>1.51</speed></extensions>
      </trkpt>
      <trkpt lat="51.864254000" lon="7.594332000">
        <ele>59.0</ele>
        <time>2017-04-29T06:46:36</time>
        <extensions><speed>1.51</speed></extensions>
      </trkpt>
      <trkpt lat="51.864265000" lon="7.594327000">
        <ele>59.0</ele>
        <time>2017-04-29T06:46:37</time>
        <extensions><speed>1.50</speed></extensions>
      </trkpt>
      <trkpt lat="51.864277000" lon="7.594322000">
        <ele>59.0</ele>
        <time>2017-04-29T06:46:38</time>
        <extensions><speed>1.49</speed></extensions>
      </trkpt>
      <trkpt lat="51.864288000" lon="7.594313000">
        <ele>59.0</ele>
        <time>2017-04-29T06:46:39</time>
        <extensions><speed>1.46</speed></extensions>
      </trkpt>
      <trkpt lat="51.864300000" lon="7.594308000">
        <ele>59.0</ele>
        <time>2017-04-29T06:46:40</time>
        <extensions><speed>1.43</speed></extensions>
      </trkpt>
      <trkpt lat="51.864315000" lon="7.594303000">
        <ele>59.0</ele>
        <time>2017-04-29T06:46:41</time>
        <extensions><speed>1.39</speed></extensions>
      </trkpt>
      <trkpt lat="51.864326000" lon="7.594299000">
        <ele>59.0</ele>
        <time>2017-04-29T06:46:42</time>
        <extensions><speed>1.40</speed></extensions>
      </trkpt>
      <trkpt lat="51.864342000" lon="7.594295000">
        <ele>59.0</ele>
        <time>2017-04-29T06:46:43</time>
        <extensions><speed>1.43</speed></extensions>
      </trkpt>
      <trkpt lat="51.864353000" lon="7.594292000">
        <ele>59.0</ele>
        <time>2017-04-29T06:46:44</time>
        <extensions><speed>1.44</speed></extensions>
      </trkpt>
      <trkpt lat="51.864365000" lon="7.594287000">
        <ele>59.0</ele>
        <time>2017-04-29T06:46:45</time>
        <extensions><speed>1.43</speed></extensions>
      </trkpt>
      <trkpt lat="51.864380000" lon="7.594282000">
        <ele>59.0</ele>
        <time>2017-04-29T06:46:46</time>
        <extensions><speed>1.43</speed></extensions>
      </trkpt>
      <trkpt lat="51.864388000" lon="7.594278000">
        <ele>59.0</ele>
        <time>2017-04-29T06:46:47</time>
        <extensions><speed>1.42</speed></extensions>
      </trkpt>
      <trkpt lat="51.864403000" lon="7.594271000">
        <ele>59.0</ele>
        <time>2017-04-29T06:46:48</time>
        <extensions><speed>1.42</speed></extensions>
      </trkpt>
      <trkpt lat="51.864418000" lon="7.594264000">
        <ele>59.0</ele>
        <time>2017-04-29T06:46:49</time>
        <extensions><speed>1.42</speed></extensions>
      </trkpt>
      <trkpt lat="51.864426000" lon="7.594257000">
        <ele>59.0</ele>
        <time>2017-04-29T06:46:50</time>
        <extensions><speed>1.42</speed></extensions>
      </trkpt>
      <trkpt lat="51.864437000" lon="7.594252000">
        <ele>59.0</ele>
        <time>2017-04-29T06:46:51</time>
        <extensions><speed>1.45</speed></extensions>
      </trkpt>
      <trkpt lat="51.864452000" lon="7.594245000">
        <ele>59.0</ele>
        <time>2017-04-29T06:46:52</time>
        <extensions><speed>1.45</speed></extensions>
      </trkpt>
      <trkpt lat="51.864464000" lon="7.594240000">
        <ele>59.0</ele>
        <time>2017-04-29T06:46:53</time>
        <extensions><speed>1.45</speed></extensions>
      </trkpt>
      <trkpt lat="51.864483000" lon="7.594234000">
        <ele>59.0</ele>
        <time>2017-04-29T06:46:54</time>
        <extensions><speed>1.46</speed></extensions>
      </trkpt>
      <trkpt lat="51.864491000" lon="7.594230000">
        <ele>58.9</ele>
        <time>2017-04-29T06:46:55</time>
        <extensions><speed>1.48</speed></extensions>
      </trkpt>
      <trkpt lat="51.864506000" lon="7.594227000">
        <ele>58.9</ele>
        <time>2017-04-29T06:46:56</time>
        <extensions><speed>1.45</speed></extensions>
      </trkpt>
      <trkpt lat="51.864517000" lon="7.594222000">
        <ele>58.9</ele>
        <time>2017-04-29T06:46:57</time>
        <extensions><speed>1.49</speed></extensions>
      </trkpt>
      <trkpt lat="51.864532000" lon="7.594215000">
        <ele>58.9</ele>
        <time>2017-04-29T06:46:58</time>
        <extensions><speed>1.48</speed></extensions>
      </trkpt>
      <trkpt lat="51.864548000" lon="7.594212000">
        <ele>58.9</ele>
        <time>2017-04-29T06:46:59</time>
        <extensions><speed>1.43</speed></extensions>
      </trkpt>
      <trkpt lat="51.864555000" lon="7.594206000">
        <ele>58.9</ele>
        <time>2017-04-29T06:47:00</time>
        <extensions><speed>1.40</speed></extensions>
      </trkpt>
      <trkpt lat="51.864567000" lon="7.594201000">
        <ele>58.9</ele>
        <time>2017-04-29T06:47:01</time>
        <extensions><speed>1.39</speed></extensions>
      </trkpt>
      <trkpt lat="51.864582000" lon="7.594197000">
        <ele>58.9</ele>
        <time>2017-04-29T06:47:02</time>
        <extensions><speed>1.39</speed></extensions>
      </trkpt>
      <trkpt lat="51.864594000" lon="7.594190000">
        <ele>58.9</ele>
        <time>2017-04-29T06:47:03</time>
        <extensions><speed>1.43</speed></extensions>
      </trkpt>
      <trkpt lat="51.864609000" lon="7.594182000">
        <ele>58.9</ele>
        <time>2017-04-29T06:47:04</time>
        <extensions><speed>1.43</speed></extensions>
      </trkpt>
      <trkpt lat="51.864620000" lon="7.594177000">
        <ele>58.9</ele>
        <time>2017-04-29T06:47:05</time>
        <extensions><speed>1.48</speed></extensions>
      </trkpt>
      <trkpt lat="51.864632000" lon="7.594172000">
        <ele>58.9</ele>
        <time>2017-04-29T06:47:06</time>
        <extensions><speed>1.48</speed></extensions>
      </trkpt>
      <trkpt lat="51.864647000" lon="7.594166000">
        <ele>58.9</ele>
        <time>2017-04-29T06:47:07</time>
        <extensions><speed>1.46</speed></extensions>
      </trkpt>
      <trkpt lat="51.864658000" lon="7.594161000">
        <ele>58.9</ele>
        <time>2017-04-29T06:47:08</time>
        <extensions><speed>1.46</speed></extensions>
      </trkpt>
      <trkpt lat="51.864674000" lon="7.594157000">
        <ele>58.9</ele>
        <time>2017-04-29T06:47:09</time>
        <extensions><speed>1.48</speed></extensions>
      </trkpt>
      <trkpt lat="51.864685000" lon="7.594153000">
        <ele>58.9</ele>
        <time>2017-04-29T06:47:10</time>
        <extensions><speed>1.49</speed></extensions>
      </trkpt>
      <trkpt lat="51.864700000" lon="7.594150000">
        <ele>58.9</ele>
        <time>2017-04-29T06:47:11</time>
        <extensions><speed>1.49</speed></extensions>
      </trkpt>
      <trkpt lat="51.864712000" lon="7.594145000">
        <ele>58.9</ele>
        <time>2017-04-29T06:47:12</time>
        <extensions><speed>1.46</speed></extensions>
      </trkpt>
      <trkpt lat="51.864723000" lon="7.594141000">
        <ele>58.9</ele>
        <time>2017-04-29T06:47:13</time>
        <extensions><speed>1.42</speed></extensions>
      </trkpt>
      <trkpt lat="51.864735000" lon="7.594133000">
        <ele>58.9</ele>
        <time>2017-04-29T06:47:14</time>
        <extensions><speed>1.40</speed></extensions>
      </trkpt>
      <trkpt lat="51.864746000" lon="7.594127000">
        <ele>58.9</ele>
        <time>2017-04-29T06:47:15</time>
        <extensions><speed>1.40</speed></extensions>
      </trkpt>
      <trkpt lat="51.864758000" lon="7.594119000">
        <ele>58.9</ele>
        <time>2017-04-29T06:47:16</time>
        <extensions><speed>1.40</speed></extensions>
      </trkpt>
      <trkpt lat="51.864773000" lon="7.594110000">
        <ele>58.9</ele>
        <time>2017-04-29T06:47:17</time>
        <extensions><speed>1.44</speed></extensions>
      </trkpt>
      <trkpt lat="51.864780000" lon="7.594105000">
        <ele>58.9</ele>
        <time>2017-04-29T06:47:18</time>
        <extensions><speed>1.42</speed></extensions>
      </trkpt>
      <trkpt lat="51.864796000" lon="7.594101000">
        <ele>58.9</ele>
        <time>2017-04-29T06:47:19</time>
        <extensions><speed>1.45</speed></extensions>
      </trkpt>
      <trkpt lat="51.864811000" lon="7.594098000">
        <ele>58.9</ele>
        <time>2017-04-29T06:47:20</time>
        <extensions><speed>1.45</speed></extensions>
      </trkpt>
      <trkpt lat="51.864819000" lon="7.594095000">
        <ele>58.9</ele>
        <time>2017-04-29T06:47:21</time>
        <extensions><speed>1.48</speed></extensions>
      </trkpt>
      <trkpt lat="51.864834000" lon="7.594090000">
        <ele>58.9</ele>
        <time>2017-04-29T06:47:22</time>
        <extensions><speed>1.49</speed></extensions>
      </trkpt>
      <trkpt lat="51.864845000" lon="7.594089000">
        <ele>58.9</ele>
        <time>2017-04-29T06:47:23</time>
        <extensions><speed>1.48</speed></extensions>
      </trkpt>
      <trkpt lat="51.864857000" lon="7.594085000">
        <ele>58.9</ele>
        <time>2017-04-29T06:47:24</time>
        <extensions><speed>1.46</speed></extensions>
      </trkpt>
      <trkpt lat="51.864872000" lon="7.594080000">
        <ele>58.9</ele>
        <time>2017-04-29T06:47:25</time>
        <extensions><speed>1.53</speed></extensions>
      </trkpt>
      <trkpt lat="51.864883000" lon="7.594075000">
        <ele>58.9</ele>
        <time>2017-04-29T06:47:26</time>
        <extensions><speed>1.48</speed></extensions>
      </trkpt>
      <trkpt lat="51.864899000" lon="7.594068000">
        <ele>58.9</ele>
        <time>2017-04-29T06:47:27</time>
        <extensions><speed>1.42</speed></extensions>
      </trkpt>
      <trkpt lat="51.864910000" lon="7.594063000">
        <ele>58.9</ele>
        <time>2017-04-29T06:47:28</time>
        <extensions><speed>1.43</speed></extensions>
      </trkpt>
      <trkpt lat="51.864922000" lon="7.594059000">
        <ele>58.9</ele>
        <time>2017-04-29T06:47:29</time>
        <extensions><speed>1.44</speed></extensions>
      </trkpt>
      <trkpt lat="51.864937000" lon="7.594052000">
        <ele>58.9</ele>
        <time>2017-04-29T06:47:30</time>
        <extensions><speed>1.44</speed></extensions>
      </trkpt>
      <trkpt lat="51.864944000" lon="7.594047000">
        <ele>58.9</ele>
        <time>2017-04-29T06:47:31</time>
        <extensions><speed>1.44</speed></extensions>
      </trkpt>
      <trkpt lat="51.864960000" lon="7.594042000">
        <ele>58.9</ele>
        <time>2017-04-29T06:47:32</time>
        <extensions><speed>1.47</speed></extensions>
      </trkpt>
      <trkpt lat="51.864975000" lon="7.594037000">
        <ele>58.9</ele>
        <time>2017-04-29T06:47:33</time>
        <extensions><speed>1.51</speed></extensions>
      </trkpt>
      <trkpt lat="51.864983000" lon="7.594033000">
        <ele>58.9</ele>
        <time>2017-04-29T06:47:34</time>
        <extensions><speed>1.49</speed></extensions>
      </trkpt>
      <trkpt lat="51.864998000" lon="7.594030000">
        <ele>58.9</ele>
        <time>2017-04-29T06:47:35</time>
        <extensions><speed>1.48</speed></extensions>
      </trkpt>
      <trkpt lat="51.865009000" lon="7.594024000">
        <ele>58.9</ele>
        <time>2017-04-29T06:47:36</time>
        <extensions><speed>1.48</speed></extensions>
      </trkpt>
      <trkpt lat="51.865025000" lon="7.594018000">
        <ele>58.9</ele>
        <time>2017-04-29T06:47:37</time>
        <extensions><speed>1.49</speed></extensions>
      </trkpt>
      <trkpt lat="51.865040000" lon="7.594015000">
        <ele>58.9</ele>
        <time>2017-04-29T06:47:38</time>
        <extensions><speed>1.50</speed></extensions>
      </trkpt>
      <trkpt lat="51.865047000" lon="7.594012000">
        <ele>58.9</ele>
        <time>2017-04-29T06:47:39</time>
        <extensions><speed>1.49</speed></extensions>
      </trkpt>
      <trkpt lat="51.865063000" lon="7.594007000">
        <ele>58.9</ele>
        <time>2017-04-29T06:47:40</time>
        <extensions><speed>1.50</speed></extensions>
      </trkpt>
      <trkpt lat="51.865074000" lon="7.594002000">
        <ele>59.0</ele>
        <time>2017-04-29T06:47:41</time>
        <extensions><speed>1.52</speed></extensions>
      </trkpt>
      <trkpt lat="51.865089000" lon="7.593997000">
        <ele>59.0</ele>
        <time>2017-04-29T06:47:42</time>
        <extensions><speed>1.49</speed></extensions>
      </trkpt>
      <trkpt lat="51.865101000" lon="7.593993000">
        <ele>59.0</ele>
        <time>2017-04-29T06:47:43</time>
        <extensions><speed>1.46</speed></extensions>
      </trkpt>
      <trkpt lat="51.865112000" lon="7.593989000">
        <ele>59.0</ele>
        <time>2017-04-29T06:47:44</time>
        <extensions><speed>1.49</speed></extensions>
      </trkpt>
      <trkpt lat="51.865128000" lon="7.593982000">
        <ele>59.0</ele>
        <time>2017-04-29T06:47:45</time>
        <extensions><speed>1.50</speed></extensions>
      </trkpt>
      <trkpt lat="51.865139000" lon="7.593978000">
        <ele>59.0</ele>
        <time>2017-04-29T06:47:46</time>
        <extensions><speed>1.56</speed></extensions>
      </trkpt>
      <trkpt lat="51.865154000" lon="7.593972000">
        <ele>59.0</ele>
        <time>2017-04-29T06:47:47</time>
        <extensions><speed>1.56</speed></extensions>
      </trkpt>
      <trkpt lat="51.865166000" lon="7.593965000">
        <ele>59.0</ele>
        <time>2017-04-29T06:47:48</time>
        <extensions><speed>1.57</speed></extensions>
      </trkpt>
      <trkpt lat="51.865177000" lon="7.593958000">
        <ele>59.0</ele>
        <time>2017-04-29T06:47:49</time>
        <extensions><speed>1.53</speed></extensions>
      </trkpt>
      <trkpt lat="51.865189000" lon="7.593954000">
        <ele>59.0</ele>
        <time>2017-04-29T06:47:50</time>
        <extensions><speed>1.45</speed></extensions>
      </trkpt>
      <trkpt lat="51.865204000" lon="7.593949000">
        <ele>59.0</ele>
        <time>2017-04-29T06:47:51</time>
        <extensions><speed>1.45</speed></extensions>
      </trkpt>
      <trkpt lat="51.865215000" lon="7.593944000">
        <ele>59.0</ele>
        <time>2017-04-29T06:47:52</time>
        <extensions><speed>1.45</speed></extensions>
      </trkpt>
      <trkpt lat="51.865231000" lon="7.593936000">
        <ele>59.0</ele>
        <time>2017-04-29T06:47:53</time>
        <extensions><speed>1.46</speed></extensions>
      </trkpt>
      <trkpt lat="51.865242000" lon="7.593930000">
        <ele>59.0</ele>
        <time>2017-04-29T06:47:54</time>
        <extensions><speed>1.49</speed></extensions>
      </trkpt>
      <trkpt lat="51.865253000" lon="7.593925000">
        <ele>59.0</ele>
        <time>2017-04-29T06:47:55</time>
        <extensions><speed>1.53</speed></extensions>
      </trkpt>
      <trkpt lat="51.865269000" lon="7.593920000">
        <ele>59.0</ele>
        <time>2017-04-29T06:47:56</time>
        <extensions><speed>1.50</speed></extensions>
      </trkpt>
      <trkpt lat="51.865276000" lon="7.593915000">
        <ele>59.0</ele>
        <time>2017-04-29T06:47:57</time>
        <extensions><speed>1.50</speed></extensions>
      </trkpt>
      <trkpt lat="51.865292000" lon="7.593910000">
        <ele>59.0</ele>
        <time>2017-04-29T06:47:58</time>
        <extensions><speed>1.50</speed></extensions>
      </trkpt>
      <trkpt lat="51.865303000" lon="7.593904000">
        <ele>59.0</ele>
        <time>2017-04-29T06:47:59</time>
        <extensions><speed>1.46</speed></extensions>
      </trkpt>
      <trkpt lat="51.865318000" lon="7.593900000">
        <ele>59.0</ele>
        <time>2017-04-29T06:48:00</time>
        <extensions><speed>1.48</speed></extensions>
      </trkpt>
      <trkpt lat="51.865330000" lon="7.593898000">
        <ele>59.0</ele>
        <time>2017-04-29T06:48:01</time>
        <extensions><speed>1.47</speed></extensions>
      </trkpt>
      <trkpt lat="51.865341000" lon="7.593893000">
        <ele>59.0</ele>
        <time>2017-04-29T06:48:02</time>
        <extensions><speed>1.46</speed></extensions>
      </trkpt>
      <trkpt lat="51.865356000" lon="7.593890000">
        <ele>59.0</ele>
        <time>2017-04-29T06:48:03</time>
        <extensions><speed>1.46</speed></extensions>
      </trkpt>
      <trkpt lat="51.865372000" lon="7.593884000">
        <ele>59.0</ele>
        <time>2017-04-29T06:48:04</time>
        <extensions><speed>1.53</speed></extensions>
      </trkpt>
      <trkpt lat="51.865383000" lon="7.593879000">
        <ele>59.0</ele>
        <time>2017-04-29T06:48:05</time>
        <extensions><speed>1.48</speed></extensions>
      </trkpt>
      <trkpt lat="51.865398000" lon="7.593872000">
        <ele>59.0</ele>
        <time>2017-04-29T06:48:06</time>
        <extensions><speed>1.50</speed></extensions>
      </trkpt>
      <trkpt lat="51.865410000" lon="7.593867000">
        <ele>59.0</ele>
        <time>2017-04-29T06:48:07</time>
        <extensions><speed>1.50</speed></extensions>
      </trkpt>
      <trkpt lat="51.865425000" lon="7.593860000">
        <ele>59.0</ele>
        <time>2017-04-29T06:48:08</time>
        <extensions><speed>1.48</speed></extensions>
      </trkpt>
      <trkpt lat="51.865437000" lon="7.593853000">
        <ele>59.0</ele>
        <time>2017-04-29T06:48:09</time>
        <extensions><speed>1.48</speed></extensions>
      </trkpt>
      <trkpt lat="51.865452000" lon="7.593849000">
        <ele>59.0</ele>
        <time>2017-04-29T06:48:10</time>
        <extensions><speed>1.51</speed></extensions>
      </trkpt>
      <trkpt lat="51.865463000" lon="7.593845000">
        <ele>59.0</ele>
        <time>2017-04-29T06:48:11</time>
        <extensions><speed>1.47</speed></extensions>
      </trkpt>
      <trkpt lat="51.865475000" lon="7.593840000">
        <ele>59.0</ele>
        <time>2017-04-29T06:48:12</time>
        <extensions><speed>1.47</speed></extensions>
      </trkpt>
      <trkpt lat="51.865490000" lon="7.593833000">
        <ele>59.0</ele>
        <time>2017-04-29T06:48:13</time>
        <extensions><speed>1.50</speed></extensions>
      </trkpt>
      <trkpt lat="51.865501000" lon="7.593830000">
        <ele>59.0</ele>
        <time>2017-04-29T06:48:14</time>
        <extensions><speed>1.48</speed></extensions>
      </trkpt>
      <trkpt lat="51.865517000" lon="7.593825000">
        <ele>59.0</ele>
        <time>2017-04-29T06:48:15</time>
        <extensions><speed>1.48</speed></extensions>
      </trkpt>
      <trkpt lat="51.865528000" lon="7.593818000">
        <ele>59.0</ele>
        <time>2017-04-29T06:48:16</time>
        <extensions><speed>1.49</speed></extensions>
      </trkpt>
      <trkpt lat="51.865540000" lon="7.593812000">
        <ele>59.0</ele>
        <time>2017-04-29T06:48:17</time>
        <extensions><speed>1.49</speed></extensions>
      </trkpt>
      <trkpt lat="51.865555000" lon="7.593805000">
        <ele>59.0</ele>
        <time>2017-04-29T06:48:18</time>
        <extensions><speed>1.49</speed></extensions>
      </trkpt>
      <trkpt lat="51.865566000" lon="7.593800000">
        <ele>59.0</ele>
        <time>2017-04-29T06:48:19</time>
        <extensions><speed>1.46</speed></extensions>
      </trkpt>
      <trkpt lat="51.865582000" lon="7.593795000">
        <ele>59.0</ele>
        <time>2017-04-29T06:48:20</time>
        <extensions><speed>1.50</speed></extensions>
      </trkpt>
      <trkpt lat="51.865593000" lon="7.593790000">
        <ele>59.0</ele>
        <time>2017-04-29T06:48:21</time>
        <extensions><speed>1.55</speed></extensions>
      </trkpt>
      <trkpt lat="51.865608000" lon="7.593786000">
        <ele>59.0</ele>
        <time>2017-04-29T06:48:22</time>
        <extensions><speed>1.57</speed></extensions>
      </trkpt>
      <trkpt lat="51.865620000" lon="7.593781000">
        <ele>59.0</ele>
        <time>2017-04-29T06:48:23</time>
        <extensions><speed>1.56</speed></extensions>
      </trkpt>
      <trkpt lat="51.865631000" lon="7.593773000">
        <ele>59.0</ele>
        <time>2017-04-29T06:48:24</time>
        <extensions><speed>1.56</speed></extensions>
      </trkpt>
      <trkpt lat="51.865646000" lon="7.593769000">
        <ele>59.0</ele>
        <time>2017-04-29T06:48:25</time>
        <extensions><speed>1.55</speed></extensions>
      </trkpt>
      <trkpt lat="51.865658000" lon="7.593763000">
        <ele>59.0</ele>
        <time>2017-04-29T06:48:26</time>
        <extensions><speed>1.50</speed></extensions>
      </trkpt>
      <trkpt lat="51.865673000" lon="7.593757000">
        <ele>59.0</ele>
        <time>2017-04-29T06:48:27</time>
        <extensions><speed>1.51</speed></extensions>
      </trkpt>
      <trkpt lat="51.865688000" lon="7.593751000">
        <ele>59.0</ele>
        <time>2017-04-29T06:48:28</time>
        <extensions><speed>1.50</speed></extensions>
      </trkpt>
      <trkpt lat="51.865700000" lon="7.593745000">
        <ele>59.0</ele>
        <time>2017-04-29T06:48:29</time>
        <extensions><speed>1.50</speed></extensions>
      </trkpt>
      <trkpt lat="51.865715000" lon="7.593737000">
        <ele>59.0</ele>
        <time>2017-04-29T06:48:30</time>
        <extensions><speed>1.50</speed></extensions>
      </trkpt>
      <trkpt lat="51.865726000" lon="7.593732000">
        <ele>59.0</ele>
        <time>2017-04-29T06:48:31</time>
        <extensions><speed>1.54</speed></extensions>
      </trkpt>
      <trkpt lat="51.865738000" lon="7.593725000">
        <ele>59.0</ele>
        <time>2017-04-29T06:48:32</time>
        <extensions><speed>1.54</speed></extensions>
      </trkpt>
      <trkpt lat="51.865753000" lon="7.593721000">
        <ele>59.0</ele>
        <time>2017-04-29T06:48:33</time>
        <extensions><speed>1.59</speed></extensions>
      </trkpt>
      <trkpt lat="51.865765000" lon="7.593716000">
        <ele>59.0</ele>
        <time>2017-04-29T06:48:34</time>
        <extensions><speed>1.60</speed></extensions>
      </trkpt>
      <trkpt lat="51.865784000" lon="7.593710000">
        <ele>59.0</ele>
        <time>2017-04-29T06:48:35</time>
        <extensions><speed>1.58</speed></extensions>
      </trkpt>
      <trkpt lat="51.865795000" lon="7.593704000">
        <ele>59.0</ele>
        <time>2017-04-29T06:48:36</time>
        <extensions><speed>1.58</speed></extensions>
      </trkpt>
      <trkpt lat="51.865807000" lon="7.593697000">
        <ele>59.0</ele>
        <time>2017-04-29T06:48:37</time>
        <extensions><speed>1.62</speed></extensions>
      </trkpt>
      <trkpt lat="51.865822000" lon="7.593692000">
        <ele>59.0</ele>
        <time>2017-04-29T06:48:38</time>
        <extensions><speed>1.62</speed></extensions>
      </trkpt>
      <trkpt lat="51.865833000" lon="7.593687000">
        <ele>59.0</ele>
        <time>2017-04-29T06:48:39</time>
        <extensions><speed>1.62</speed></extensions>
      </trkpt>
      <trkpt lat="51.865849000" lon="7.593683000">
        <ele>59.0</ele>
        <time>2017-04-29T06:48:40</time>
        <extensions><speed>1.57</speed></extensions>
      </trkpt>
      <trkpt lat="51.865860000" lon="7.593680000">
        <ele>59.0</ele>
        <time>2017-04-29T06:48:41</time>
        <extensions><speed>1.56</speed></extensions>
      </trkpt>
      <trkpt lat="51.865875000" lon="7.593676000">
        <ele>59.0</ele>
        <time>2017-04-29T06:48:42</time>
        <extensions><speed>1.52</speed></extensions>
      </trkpt>
      <trkpt lat="51.865887000" lon="7.593672000">
        <ele>59.0</ele>
        <time>2017-04-29T06:48:43</time>
        <extensions><speed>1.48</speed></extensions>
      </trkpt>
      <trkpt lat="51.865898000" lon="7.593667000">
        <ele>59.0</ele>
        <time>2017-04-29T06:48:44</time>
        <extensions><speed>1.47</speed></extensions>
      </trkpt>
      <trkpt lat="51.865910000" lon="7.593662000">
        <ele>59.0</ele>
        <time>2017-04-29T06:48:45</time>
        <extensions><speed>1.49</speed></extensions>
      </trkpt>
      <trkpt lat="51.865921000" lon="7.593657000">
        <ele>59.0</ele>
        <time>2017-04-29T06:48:46</time>
        <extensions><speed>1.50</speed></extensions>
      </trkpt>
      <trkpt lat="51.865936000" lon="7.593651000">
        <ele>59.0</ele>
        <time>2017-04-29T06:48:47</time>
        <extensions><speed>1.48</speed></extensions>
      </trkpt>
      <trkpt lat="51.865952000" lon="7.593647000">
        <ele>59.0</ele>
        <time>2017-04-29T06:48:48</time>
        <extensions><speed>1.48</speed></extensions>
      </trkpt>
      <trkpt lat="51.865963000" lon="7.593641000">
        <ele>59.0</ele>
        <time>2017-04-29T06:48:49</time>
        <extensions><speed>1.52</speed></extensions>
      </trkpt>
      <trkpt lat="51.865978000" lon="7.593637000">
        <ele>59.0</ele>
        <time>2017-04-29T06:48:50</time>
        <extensions><speed>1.48</speed></extensions>
      </trkpt>
      <trkpt lat="51.865986000" lon="7.593632000">
        <ele>59.0</ele>
        <time>2017-04-29T06:48:51</time>
        <extensions><speed>1.47</speed></extensions>
      </trkpt>
      <trkpt lat="51.866005000" lon="7.593626000">
        <ele>59.0</ele>
        <time>2017-04-29T06:48:52</time>
        <extensions><speed>1.49</speed></extensions>
      </trkpt>
      <trkpt lat="51.866016000" lon="7.593618000">
        <ele>59.0</ele>
        <time>2017-04-29T06:48:53</time>
        <extensions><speed>1.50</speed></extensions>
      </trkpt>
      <trkpt lat="51.866028000" lon="7.593611000">
        <ele>59.0</ele>
        <time>2017-04-29T06:48:54</time>
        <extensions><speed>1.50</speed></extensions>
      </trkpt>
      <trkpt lat="51.866039000" lon="7.593606000">
        <ele>59.0</ele>
        <time>2017-04-29T06:48:55</time>
        <extensions><speed>1.48</speed></extensions>
      </trkpt>
      <trkpt lat="51.866051000" lon="7.593597000">
        <ele>59.0</ele>
        <time>2017-04-29T06:48:56</time>
        <extensions><speed>1.48</speed></extensions>
      </trkpt>
      <trkpt lat="51.866062000" lon="7.593590000">
        <ele>59.0</ele>
        <time>2017-04-29T06:48:57</time>
        <extensions><speed>1.49</speed></extensions>
      </trkpt>
      <trkpt lat="51.866077000" lon="7.593583000">
        <ele>59.0</ele>
        <time>2017-04-29T06:48:58</time>
        <extensions><speed>1.48</speed></extensions>
      </trkpt>
      <trkpt lat="51.866089000" lon="7.593578000">
        <ele>59.0</ele>
        <time>2017-04-29T06:48:59</time>
        <extensions><speed>1.47</speed></extensions>
      </trkpt>
      <trkpt lat="51.866104000" lon="7.593573000">
        <ele>59.0</ele>
        <time>2017-04-29T06:49:00</time>
        <extensions><speed>1.54</speed></extensions>
      </trkpt>
      <trkpt lat="51.866116000" lon="7.593570000">
        <ele>59.0</ele>
        <time>2017-04-29T06:49:01</time>
        <extensions><speed>1.54</speed></extensions>
      </trkpt>
      <trkpt lat="51.866131000" lon="7.593567000">
        <ele>59.0</ele>
        <time>2017-04-29T06:49:02</time>
        <extensions><speed>1.51</speed></extensions>
      </trkpt>
      <trkpt lat="51.866146000" lon="7.593562000">
        <ele>59.0</ele>
        <time>2017-04-29T06:49:03</time>
        <extensions><speed>1.50</speed></extensions>
      </trkpt>
      <trkpt lat="51.866158000" lon="7.593560000">
        <ele>59.0</ele>
        <time>2017-04-29T06:49:04</time>
        <extensions><speed>1.45</speed></extensions>
      </trkpt>
      <trkpt lat="51.866169000" lon="7.593558000">
        <ele>59.0</ele>
        <time>2017-04-29T06:49:05</time>
        <extensions><speed>1.45</speed></extensions>
      </trkpt>
      <trkpt lat="51.866180000" lon="7.593552000">
        <ele>59.0</ele>
        <time>2017-04-29T06:49:06</time>
        <extensions><speed>1.48</speed></extensions>
      </trkpt>
      <trkpt lat="51.866196000" lon="7.593546000">
        <ele>59.0</ele>
        <time>2017-04-29T06:49:07</time>
        <extensions><speed>1.45</speed></extensions>
      </trkpt>
      <trkpt lat="51.866207000" lon="7.593541000">
        <ele>59.0</ele>
        <time>2017-04-29T06:49:08</time>
        <extensions><speed>1.45</speed></extensions>
      </trkpt>
      <trkpt lat="51.866219000" lon="7.593538000">
        <ele>59.0</ele>
        <time>2017-04-29T06:49:09</time>
        <extensions><speed>1.45</speed></extensions>
      </trkpt>
      <trkpt lat="51.866234000" lon="7.593534000">
        <ele>59.0</ele>
        <time>2017-04-29T06:49:10</time>
        <extensions><speed>1.44</speed></extensions>
      </trkpt>
      <trkpt lat="51.866245000" lon="7.593530000">
        <ele>59.1</ele>
        <time>2017-04-29T06:49:11</time>
        <extensions><speed>1.42</speed></extensions>
      </trkpt>
      <trkpt lat="51.866257000" lon="7.593527000">
        <ele>59.1</ele>
        <time>2017-04-29T06:49:12</time>
        <extensions><speed>1.43</speed></extensions>
      </trkpt>
      <trkpt lat="51.866268000" lon="7.593522000">
        <ele>59.1</ele>
        <time>2017-04-29T06:49:13</time>
        <extensions><speed>1.44</speed></extensions>
      </trkpt>
      <trkpt lat="51.866280000" lon="7.593513000">
        <ele>59.1</ele>
        <time>2017-04-29T06:49:14</time>
        <extensions><speed>1.45</speed></extensions>
      </trkpt>
      <trkpt lat="51.866295000" lon="7.593506000">
        <ele>59.1</ele>
        <time>2017-04-29T06:49:15</time>
        <extensions><speed>1.41</speed></extensions>
      </trkpt>
      <trkpt lat="51.866306000" lon="7.593503000">
        <ele>59.1</ele>
        <time>2017-04-29T06:49:16</time>
        <extensions><speed>1.44</speed></extensions>
      </trkpt>
      <trkpt lat="51.866318000" lon="7.593501000">
        <ele>59.1</ele>
        <time>2017-04-29T06:49:17</time>
        <extensions><speed>1.41</speed></extensions>
      </trkpt>
      <trkpt lat="51.866329000" lon="7.593495000">
        <ele>59.1</ele>
        <time>2017-04-29T06:49:18</time>
        <extensions><speed>1.40</speed></extensions>
      </trkpt>
      <trkpt lat="51.866341000" lon="7.593488000">
        <ele>59.1</ele>
        <time>2017-04-29T06:49:19</time>
        <extensions><speed>1.40</speed></extensions>
      </trkpt>
      <trkpt lat="51.866352000" lon="7.593482000">
        <ele>59.1</ele>
        <time>2017-04-29T06:49:20</time>
        <extensions><speed>1.44</speed></extensions>
      </trkpt>
      <trkpt lat="51.866367000" lon="7.593475000">
        <ele>59.1</ele>
        <time>2017-04-29T06:49:21</time>
        <extensions><speed>1.45</speed></extensions>
      </trkpt>
      <trkpt lat="51.866375000" lon="7.593468000">
        <ele>59.1</ele>
        <time>2017-04-29T06:49:22</time>
        <extensions><speed>1.47</speed></extensions>
      </trkpt>
      <trkpt lat="51.866386000" lon="7.593462000">
        <ele>59.1</ele>
        <time>2017-04-29T06:49:23</time>
        <extensions><speed>1.47</speed></extensions>
      </trkpt>
      <trkpt lat="51.866402000" lon="7.593455000">
        <ele>59.1</ele>
        <time>2017-04-29T06:49:24</time>
        <extensions><speed>1.47</speed></extensions>
      </trkpt>
      <trkpt lat="51.866413000" lon="7.593450000">
        <ele>59.2</ele>
        <time>2017-04-29T06:49:25</time>
        <extensions><speed>1.50</speed></extensions>
      </trkpt>
      <trkpt lat="51.866428000" lon="7.593445000">
        <ele>59.2</ele>
        <time>2017-04-29T06:49:26</time>
        <extensions><speed>1.50</speed></extensions>
      </trkpt>
      <trkpt lat="51.866440000" lon="7.593441000">
        <ele>59.2</ele>
        <time>2017-04-29T06:49:27</time>
        <extensions><speed>1.51</speed></extensions>
      </trkpt>
      <trkpt lat="51.866455000" lon="7.593436000">
        <ele>59.2</ele>
        <time>2017-04-29T06:49:28</time>
        <extensions><speed>1.53</speed></extensions>
      </trkpt>
      <trkpt lat="51.866470000" lon="7.593433000">
        <ele>59.2</ele>
        <time>2017-04-29T06:49:29</time>
        <extensions><speed>1.50</speed></extensions>
      </trkpt>
      <trkpt lat="51.866482000" lon="7.593429000">
        <ele>59.2</ele>
        <time>2017-04-29T06:49:30</time>
        <extensions><speed>1.50</speed></extensions>
      </trkpt>
      <trkpt lat="51.866497000" lon="7.593425000">
        <ele>59.2</ele>
        <time>2017-04-29T06:49:31</time>
        <extensions><speed>1.50</speed></extensions>
      </trkpt>
      <trkpt lat="51.866505000" lon="7.593420000">
        <ele>59.2</ele>
        <time>2017-04-29T06:49:32</time>
        <extensions><speed>1.53</speed></extensions>
      </trkpt>
      <trkpt lat="51.866520000" lon="7.593417000">
        <ele>59.2</ele>
        <time>2017-04-29T06:49:33</time>
        <extensions><speed>1.53</speed></extensions>
      </trkpt>
      <trkpt lat="51.866535000" lon="7.593417000">
        <ele>59.3</ele>
        <time>2017-04-29T06:49:34</time>
        <extensions><speed>1.57</speed></extensions>
      </trkpt>
      <trkpt lat="51.866547000" lon="7.593419000">
        <ele>59.3</ele>
        <time>2017-04-29T06:49:35</time>
        <extensions><speed>1.51</speed></extensions>
      </trkpt>
      <trkpt lat="51.866558000" lon="7.593425000">
        <ele>59.3</ele>
        <time>2017-04-29T06:49:36</time>
        <extensions><speed>1.51</speed></extensions>
      </trkpt>
      <trkpt lat="51.866566000" lon="7.593435000">
        <ele>59.3</ele>
        <time>2017-04-29T06:49:37</time>
        <extensions><speed>1.41</speed></extensions>
      </trkpt>
      <trkpt lat="51.866570000" lon="7.593447000">
        <ele>59.3</ele>
        <time>2017-04-29T06:49:38</time>
        <extensions><speed>1.37</speed></extensions>
      </trkpt>
      <trkpt lat="51.866577000" lon="7.593464000">
        <ele>59.3</ele>
        <time>2017-04-29T06:49:39</time>
        <extensions><speed>1.34</speed></extensions>
      </trkpt>
      <trkpt lat="51.866581000" lon="7.593482000">
        <ele>59.3</ele>
        <time>2017-04-29T06:49:40</time>
        <extensions><speed>1.34</speed></extensions>
      </trkpt>
      <trkpt lat="51.866585000" lon="7.593504000">
        <ele>59.3</ele>
        <time>2017-04-29T06:49:41</time>
        <extensions><speed>1.39</speed></extensions>
      </trkpt>
      <trkpt lat="51.866585000" lon="7.593525000">
        <ele>59.3</ele>
        <time>2017-04-29T06:49:42</time>
        <extensions><speed>1.43</speed></extensions>
      </trkpt>
      <trkpt lat="51.866581000" lon="7.593545000">
        <ele>59.2</ele>
        <time>2017-04-29T06:49:43</time>
        <extensions><speed>1.48</speed></extensions>
      </trkpt>
      <trkpt lat="51.866577000" lon="7.593565000">
        <ele>59.2</ele>
        <time>2017-04-29T06:49:44</time>
        <extensions><speed>1.49</speed></extensions>
      </trkpt>
      <trkpt lat="51.866573000" lon="7.593585000">
        <ele>59.2</ele>
        <time>2017-04-29T06:49:45</time>
        <extensions><speed>1.46</speed></extensions>
      </trkpt>
      <trkpt lat="51.866570000" lon="7.593604000">
        <ele>59.2</ele>
        <time>2017-04-29T06:49:46</time>
        <extensions><speed>1.42</speed></extensions>
      </trkpt>
      <trkpt lat="51.866566000" lon="7.593620000">
        <ele>59.1</ele>
        <time>2017-04-29T06:49:47</time>
        <extensions><speed>1.40</speed></extensions>
      </trkpt>
      <trkpt lat="51.866566000" lon="7.593637000">
        <ele>59.1</ele>
        <time>2017-04-29T06:49:48</time>
        <extensions><speed>1.34</speed></extensions>
      </trkpt>
      <trkpt lat="51.866562000" lon="7.593653000">
        <ele>59.1</ele>
        <time>2017-04-29T06:49:49</time>
        <extensions><speed>1.33</speed></extensions>
      </trkpt>
      <trkpt lat="51.866562000" lon="7.593676000">
        <ele>59.1</ele>
        <time>2017-04-29T06:49:50</time>
        <extensions><speed>1.37</speed></extensions>
      </trkpt>
      <trkpt lat="51.866554000" lon="7.593697000">
        <ele>59.0</ele>
        <time>2017-04-29T06:49:51</time>
        <extensions><speed>1.42</speed></extensions>
      </trkpt>
      <trkpt lat="51.866550000" lon="7.593713000">
        <ele>59.0</ele>
        <time>2017-04-29T06:49:52</time>
        <extensions><speed>1.40</speed></extensions>
      </trkpt>
      <trkpt lat="51.866543000" lon="7.593732000">
        <ele>59.0</ele>
        <time>2017-04-29T06:49:53</time>
        <extensions><speed>1.40</speed></extensions>
      </trkpt>
      <trkpt lat="51.866539000" lon="7.593753000">
        <ele>59.0</ele>
        <time>2017-04-29T06:49:54</time>
        <extensions><speed>1.42</speed></extensions>
      </trkpt>
      <trkpt lat="51.866535000" lon="7.593773000">
        <ele>59.0</ele>
        <time>2017-04-29T06:49:55</time>
        <extensions><speed>1.40</speed></extensions>
      </trkpt>
      <trkpt lat="51.866528000" lon="7.593791000">
        <ele>59.0</ele>
        <time>2017-04-29T06:49:56</time>
        <extensions><speed>1.40</speed></extensions>
      </trkpt>
      <trkpt lat="51.866516000" lon="7.593810000">
        <ele>59.0</ele>
        <time>2017-04-29T06:49:57</time>
        <extensions><speed>1.43</speed></extensions>
      </trkpt>
      <trkpt lat="51.866512000" lon="7.593828000">
        <ele>59.0</ele>
        <time>2017-04-29T06:49:58</time>
        <extensions><speed>1.43</speed></extensions>
      </trkpt>
      <trkpt lat="51.866505000" lon="7.593845000">
        <ele>59.0</ele>
        <time>2017-04-29T06:49:59</time>
        <extensions><speed>1.44</speed></extensions>
      </trkpt>
      <trkpt lat="51.866497000" lon="7.593863000">
        <ele>59.0</ele>
        <time>2017-04-29T06:50:00</time>
        <extensions><speed>1.46</speed></extensions>
      </trkpt>
      <trkpt lat="51.866486000" lon="7.593879000">
        <ele>59.0</ele>
        <time>2017-04-29T06:50:01</time>
        <extensions><speed>1.46</speed></extensions>
      </trkpt>
      <trkpt lat="51.866474000" lon="7.593895000">
        <ele>59.0</ele>
        <time>2017-04-29T06:50:02</time>
        <extensions><speed>1.47</speed></extensions>
      </trkpt>
      <trkpt lat="51.866467000" lon="7.593907000">
        <ele>59.0</ele>
        <time>2017-04-29T06:50:03</time>
        <extensions><speed>1.47</speed></extensions>
      </trkpt>
      <trkpt lat="51.866455000" lon="7.593919000">
        <ele>59.0</ele>
        <time>2017-04-29T06:50:04</time>
        <extensions><speed>1.46</speed></extensions>
      </trkpt>
      <trkpt lat="51.866444000" lon="7.593932000">
        <ele>59.0</ele>
        <time>2017-04-29T06:50:05</time>
        <extensions><speed>1.46</speed></extensions>
      </trkpt>
      <trkpt lat="51.866440000" lon="7.593947000">
        <ele>59.0</ele>
        <time>2017-04-29T06:50:06</time>
        <extensions><speed>1.45</speed></extensions>
      </trkpt>
      <trkpt lat="51.866428000" lon="7.593961000">
        <ele>59.0</ele>
        <time>2017-04-29T06:50:07</time>
        <extensions><speed>1.45</speed></extensions>
      </trkpt>
      <trkpt lat="51.866417000" lon="7.593977000">
        <ele>59.0</ele>
        <time>2017-04-29T06:50:08</time>
        <extensions><speed>1.43</speed></extensions>
      </trkpt>
      <trkpt lat="51.866409000" lon="7.593995000">
        <ele>59.0</ele>
        <time>2017-04-29T06:50:09</time>
        <extensions><speed>1.43</speed></extensions>
      </trkpt>
      <trkpt lat="51.866402000" lon="7.594014000">
        <ele>59.0</ele>
        <time>2017-04-29T06:50:10</time>
        <extensions><speed>1.46</speed></extensions>
      </trkpt>
      <trkpt lat="51.866394000" lon="7.594030000">
        <ele>59.0</ele>
        <time>2017-04-29T06:50:11</time>
        <extensions><speed>1.45</speed></extensions>
      </trkpt>
      <trkpt lat="51.866386000" lon="7.594045000">
        <ele>59.0</ele>
        <time>2017-04-29T06:50:12</time>
        <extensions><speed>1.43</speed></extensions>
      </trkpt>
      <trkpt lat="51.866375000" lon="7.594061000">
        <ele>59.0</ele>
        <time>2017-04-29T06:50:13</time>
        <extensions><speed>1.46</speed></extensions>
      </trkpt>
      <trkpt lat="51.866371000" lon="7.594077000">
        <ele>59.0</ele>
        <time>2017-04-29T06:50:14</time>
        <extensions><speed>1.45</speed></extensions>
      </trkpt>
      <trkpt lat="51.866360000" lon="7.594094000">
        <ele>59.0</ele>
        <time>2017-04-29T06:50:15</time>
        <extensions><speed>1.42</speed></extensions>
      </trkpt>
      <trkpt lat="51.866348000" lon="7.594110000">
        <ele>59.0</ele>
        <time>2017-04-29T06:50:16</time>
        <extensions><speed>1.42</speed></extensions>
      </trkpt>
      <trkpt lat="51.866341000" lon="7.594122000">
        <ele>59.0</ele>
        <time>2017-04-29T06:50:17</time>
        <extensions><speed>1.42</speed></extensions>
      </trkpt>
      <trkpt lat="51.866325000" lon="7.594133000">
        <ele>59.0</ele>
        <time>2017-04-29T06:50:18</time>
        <extensions><speed>1.42</speed></extensions>
      </trkpt>
      <trkpt lat="51.866318000" lon="7.594136000">
        <ele>59.0</ele>
        <time>2017-04-29T06:50:19</time>
      </trkpt>
      <trkpt lat="51.866310000" lon="7.594148000">
        <ele>59.0</ele>
        <time>2017-04-29T06:50:21</time>
        <extensions><speed>1.36</speed></extensions>
      </trkpt>
      <trkpt lat="51.866302000" lon="7.594164000">
        <ele>59.0</ele>
        <time>2017-04-29T06:50:22</time>
        <extensions><speed>1.33</speed></extensions>
      </trkpt>
      <trkpt lat="51.866295000" lon="7.594178000">
        <ele>59.0</ele>
        <time>2017-04-29T06:50:23</time>
        <extensions><speed>1.32</speed></extensions>
      </trkpt>
      <trkpt lat="51.866283000" lon="7.594195000">
        <ele>59.0</ele>
        <time>2017-04-29T06:50:24</time>
        <extensions><speed>1.36</speed></extensions>
      </trkpt>
      <trkpt lat="51.866276000" lon="7.594212000">
        <ele>59.0</ele>
        <time>2017-04-29T06:50:25</time>
        <extensions><speed>1.37</speed></extensions>
      </trkpt>
      <trkpt lat="51.866268000" lon="7.594227000">
        <ele>59.0</ele>
        <time>2017-04-29T06:50:26</time>
        <extensions><speed>1.39</speed></extensions>
      </trkpt>
      <trkpt lat="51.866253000" lon="7.594242000">
        <ele>59.0</ele>
        <time>2017-04-29T06:50:27</time>
        <extensions><speed>1.38</speed></extensions>
      </trkpt>
      <trkpt lat="51.866245000" lon="7.594255000">
        <ele>59.0</ele>
        <time>2017-04-29T06:50:28</time>
        <extensions><speed>1.40</speed></extensions>
      </trkpt>
      <trkpt lat="51.866238000" lon="7.594271000">
        <ele>59.0</ele>
        <time>2017-04-29T06:50:29</time>
        <extensions><speed>1.38</speed></extensions>
      </trkpt>
      <trkpt lat="51.866234000" lon="7.594292000">
        <ele>59.0</ele>
        <time>2017-04-29T06:50:30</time>
        <extensions><speed>1.41</speed></extensions>
      </trkpt>
      <trkpt lat="51.866226000" lon="7.594310000">
        <ele>59.0</ele>
        <time>2017-04-29T06:50:31</time>
        <extensions><speed>1.41</speed></extensions>
      </trkpt>
      <trkpt lat="51.866219000" lon="7.594327000">
        <ele>59.0</ele>
        <time>2017-04-29T06:50:32</time>
        <extensions><speed>1.44</speed></extensions>
      </trkpt>
      <trkpt lat="51.866211000" lon="7.594343000">
        <ele>59.0</ele>
        <time>2017-04-29T06:50:33</time>
        <extensions><speed>1.46</speed></extensions>
      </trkpt>
      <trkpt lat="51.866203000" lon="7.594362000">
        <ele>59.0</ele>
        <time>2017-04-29T06:50:34</time>
        <extensions><speed>1.46</speed></extensions>
      </trkpt>
      <trkpt lat="51.866196000" lon="7.594380000">
        <ele>59.0</ele>
        <time>2017-04-29T06:50:35</time>
        <extensions><speed>1.48</speed></extensions>
      </trkpt>
      <trkpt lat="51.866188000" lon="7.594397000">
        <ele>59.0</ele>
        <time>2017-04-29T06:50:36</time>
        <extensions><speed>1.45</speed></extensions>
      </trkpt>
      <trkpt lat="51.866180000" lon="7.594411000">
        <ele>59.0</ele>
        <time>2017-04-29T06:50:37</time>
        <extensions><speed>1.46</speed></extensions>
      </trkpt>
      <trkpt lat="51.866169000" lon="7.594429000">
        <ele>59.0</ele>
        <time>2017-04-29T06:50:38</time>
        <extensions><speed>1.47</speed></extensions>
      </trkpt>
      <trkpt lat="51.866158000" lon="7.594446000">
        <ele>59.0</ele>
        <time>2017-04-29T06:50:39</time>
        <extensions><speed>1.48</speed></extensions>
      </trkpt>
      <trkpt lat="51.866150000" lon="7.594463000">
        <ele>59.0</ele>
        <time>2017-04-29T06:50:40</time>
        <extensions><speed>1.46</speed></extensions>
      </trkpt>
      <trkpt lat="51.866142000" lon="7.594477000">
        <ele>59.0</ele>
        <time>2017-04-29T06:50:41</time>
        <extensions><speed>1.46</speed></extensions>
      </trkpt>
      <trkpt lat="51.866131000" lon="7.594493000">
        <ele>59.0</ele>
        <time>2017-04-29T06:50:42</time>
        <extensions><speed>1.47</speed></extensions>
      </trkpt>
      <trkpt lat="51.866123000" lon="7.594513000">
        <ele>59.0</ele>
        <time>2017-04-29T06:50:43</time>
        <extensions><speed>1.46</speed></extensions>
      </trkpt>
      <trkpt lat="51.866116000" lon="7.594533000">
        <ele>59.0</ele>
        <time>2017-04-29T06:50:44</time>
        <extensions><speed>1.49</speed></extensions>
      </trkpt>
      <trkpt lat="51.866112000" lon="7.594552000">
        <ele>59.0</ele>
        <time>2017-04-29T06:50:45</time>
        <extensions><speed>1.51</speed></extensions>
      </trkpt>
      <trkpt lat="51.866100000" lon="7.594570000">
        <ele>59.0</ele>
        <time>2017-04-29T06:50:46</time>
        <extensions><speed>1.51</speed></extensions>
      </trkpt>
      <trkpt lat="51.866093000" lon="7.594590000">
        <ele>59.0</ele>
        <time>2017-04-29T06:50:47</time>
        <extensions><speed>1.51</speed></extensions>
      </trkpt>
      <trkpt lat="51.866089000" lon="7.594607000">
        <ele>59.0</ele>
        <time>2017-04-29T06:50:48</time>
        <extensions><speed>1.50</speed></extensions>
      </trkpt>
      <trkpt lat="51.866081000" lon="7.594625000">
        <ele>59.0</ele>
        <time>2017-04-29T06:50:49</time>
        <extensions><speed>1.47</speed></extensions>
      </trkpt>
      <trkpt lat="51.866077000" lon="7.594646000">
        <ele>59.0</ele>
        <time>2017-04-29T06:50:50</time>
        <extensions><speed>1.44</speed></extensions>
      </trkpt>
      <trkpt lat="51.866074000" lon="7.594663000">
        <ele>59.0</ele>
        <time>2017-04-29T06:50:51</time>
        <extensions><speed>1.44</speed></extensions>
      </trkpt>
      <trkpt lat="51.866070000" lon="7.594686000">
        <ele>59.0</ele>
        <time>2017-04-29T06:50:52</time>
        <extensions><speed>1.44</speed></extensions>
      </trkpt>
      <trkpt lat="51.866070000" lon="7.594707000">
        <ele>59.0</ele>
        <time>2017-04-29T06:50:53</time>
        <extensions><speed>1.45</speed></extensions>
      </trkpt>
      <trkpt lat="51.866066000" lon="7.594725000">
        <ele>59.0</ele>
        <time>2017-04-29T06:50:54</time>
        <extensions><speed>1.43</speed></extensions>
      </trkpt>
      <trkpt lat="51.866066000" lon="7.594745000">
        <ele>59.0</ele>
        <time>2017-04-29T06:50:55</time>
        <extensions><speed>1.45</speed></extensions>
      </trkpt>
      <trkpt lat="51.866066000" lon="7.594765000">
        <ele>59.0</ele>
        <time>2017-04-29T06:50:56</time>
        <extensions><speed>1.47</speed></extensions>
      </trkpt>
      <trkpt lat="51.866066000" lon="7.594787000">
        <ele>59.0</ele>
        <time>2017-04-29T06:50:57</time>
        <extensions><speed>1.50</speed></extensions>
      </trkpt>
      <trkpt lat="51.866066000" lon="7.594809000">
        <ele>59.0</ele>
        <time>2017-04-29T06:50:58</time>
        <extensions><speed>1.53</speed></extensions>
      </trkpt>
      <trkpt lat="51.866070000" lon="7.594828000">
        <ele>59.0</ele>
        <time>2017-04-29T06:50:59</time>
        <extensions><speed>1.53</speed></extensions>
      </trkpt>
      <trkpt lat="51.866070000" lon="7.594849000">
        <ele>59.0</ele>
        <time>2017-04-29T06:51:00</time>
        <extensions><speed>1.52</speed></extensions>
      </trkpt>
      <trkpt lat="51.866074000" lon="7.594870000">
        <ele>59.0</ele>
        <time>2017-04-29T06:51:01</time>
        <extensions><speed>1.53</speed></extensions>
      </trkpt>
      <trkpt lat="51.866077000" lon="7.594892000">
        <ele>59.0</ele>
        <time>2017-04-29T06:51:02</time>
        <extensions><speed>1.53</speed></extensions>
      </trkpt>
      <trkpt lat="51.866081000" lon="7.594912000">
        <ele>59.0</ele>
        <time>2017-04-29T06:51:03</time>
        <extensions><speed>1.52</speed></extensions>
      </trkpt>
      <trkpt lat="51.866081000" lon="7.594930000">
        <ele>59.0</ele>
        <time>2017-04-29T06:51:04</time>
        <extensions><speed>1.52</speed></extensions>
      </trkpt>
      <trkpt lat="51.866085000" lon="7.594948000">
        <ele>59.0</ele>
        <time>2017-04-29T06:51:05</time>
        <extensions><speed>1.51</speed></extensions>
      </trkpt>
      <trkpt lat="51.866093000" lon="7.594965000">
        <ele>59.0</ele>
        <time>2017-04-29T06:51:06</time>
        <extensions><speed>1.48</speed></extensions>
      </trkpt>
      <trkpt lat="51.866096000" lon="7.594982000">
        <ele>59.0</ele>
        <time>2017-04-29T06:51:07</time>
        <extensions><speed>1.45</speed></extensions>
      </trkpt>
      <trkpt lat="51.866100000" lon="7.595001000">
        <ele>59.0</ele>
        <time>2017-04-29T06:51:08</time>
        <extensions><speed>1.42</speed></extensions>
      </trkpt>
      <trkpt lat="51.866100000" lon="7.595022000">
        <ele>59.0</ele>
        <time>2017-04-29T06:51:09</time>
        <extensions><speed>1.42</speed></extensions>
      </trkpt>
      <trkpt lat="51.866104000" lon="7.595040000">
        <ele>59.0</ele>
        <time>2017-04-29T06:51:10</time>
        <extensions><speed>1.41</speed></extensions>
      </trkpt>
      <trkpt lat="51.866108000" lon="7.595057000">
        <ele>59.0</ele>
        <time>2017-04-29T06:51:11</time>
        <extensions><speed>1.41</speed></extensions>
      </trkpt>
      <trkpt lat="51.866112000" lon="7.595073000">
        <ele>59.0</ele>
        <time>2017-04-29T06:51:12</time>
        <extensions><speed>1.41</speed></extensions>
      </trkpt>
      <trkpt lat="51.866116000" lon="7.595094000">
        <ele>59.0</ele>
        <time>2017-04-29T06:51:13</time>
        <extensions><speed>1.41</speed></extensions>
      </trkpt>
      <trkpt lat="51.866119000" lon="7.595108000">
        <ele>59.0</ele>
        <time>2017-04-29T06:51:14</time>
        <extensions><speed>1.38</speed></extensions>
      </trkpt>
      <trkpt lat="51.866123000" lon="7.595125000">
        <ele>59.0</ele>
        <time>2017-04-29T06:51:15</time>
        <extensions><speed>1.35</speed></extensions>
      </trkpt>
      <trkpt lat="51.866127000" lon="7.595145000">
        <ele>59.0</ele>
        <time>2017-04-29T06:51:16</time>
        <extensions><speed>1.39</speed></extensions>
      </trkpt>
      <trkpt lat="51.866131000" lon="7.595163000">
        <ele>59.0</ele>
        <time>2017-04-29T06:51:17</time>
        <extensions><speed>1.39</speed></extensions>
      </trkpt>
      <trkpt lat="51.866135000" lon="7.595183000">
        <ele>59.0</ele>
        <time>2017-04-29T06:51:18</time>
        <extensions><speed>1.42</speed></extensions>
      </trkpt>
      <trkpt lat="51.866138000" lon="7.595204000">
        <ele>59.0</ele>
        <time>2017-04-29T06:51:19</time>
        <extensions><speed>1.45</speed></extensions>
      </trkpt>
      <trkpt lat="51.866142000" lon="7.595225000">
        <ele>59.0</ele>
        <time>2017-04-29T06:51:20</time>
        <extensions><speed>1.48</speed></extensions>
      </trkpt>
      <trkpt lat="51.866142000" lon="7.595248000">
        <ele>59.0</ele>
        <time>2017-04-29T06:51:21</time>
        <extensions><speed>1.47</speed></extensions>
      </trkpt>
      <trkpt lat="51.866146000" lon="7.595265000">
        <ele>59.0</ele>
        <time>2017-04-29T06:51:22</time>
        <extensions><speed>1.44</speed></extensions>
      </trkpt>
      <trkpt lat="51.866150000" lon="7.595283000">
        <ele>59.0</ele>
        <time>2017-04-29T06:51:23</time>
        <extensions><speed>1.42</speed></extensions>
      </trkpt>
      <trkpt lat="51.866154000" lon="7.595302000">
        <ele>59.0</ele>
        <time>2017-04-29T06:51:24</time>
        <extensions><speed>1.39</speed></extensions>
      </trkpt>
      <trkpt lat="51.866161000" lon="7.595320000">
        <ele>59.0</ele>
        <time>2017-04-29T06:51:25</time>
        <extensions><speed>1.35</speed></extensions>
      </trkpt>
      <trkpt lat="51.866165000" lon="7.595340000">
        <ele>59.0</ele>
        <time>2017-04-29T06:51:26</time>
        <extensions><speed>1.35</speed></extensions>
      </trkpt>
      <trkpt lat="51.866165000" lon="7.595362000">
        <ele>59.0</ele>
        <time>2017-04-29T06:51:27</time>
        <extensions><speed>1.41</speed></extensions>
      </trkpt>
      <trkpt lat="51.866169000" lon="7.595382000">
        <ele>59.0</ele>
        <time>2017-04-29T06:51:28</time>
        <extensions><speed>1.36</speed></extensions>
      </trkpt>
      <trkpt lat="51.866173000" lon="7.595402000">
        <ele>59.0</ele>
        <time>2017-04-29T06:51:29</time>
        <extensions><speed>1.45</speed></extensions>
      </trkpt>
      <trkpt lat="51.866173000" lon="7.595421000">
        <ele>59.0</ele>
        <time>2017-04-29T06:51:30</time>
        <extensions><speed>1.48</speed></extensions>
      </trkpt>
      <trkpt lat="51.866177000" lon="7.595444000">
        <ele>59.0</ele>
        <time>2017-04-29T06:51:31</time>
        <extensions><speed>1.46</speed></extensions>
      </trkpt>
      <trkpt lat="51.866180000" lon="7.595465000">
        <ele>59.0</ele>
        <time>2017-04-29T06:51:32</time>
        <extensions><speed>1.47</speed></extensions>
      </trkpt>
      <trkpt lat="51.866180000" lon="7.595486000">
        <ele>59.0</ele>
        <time>2017-04-29T06:51:33</time>
        <extensions><speed>1.47</speed></extensions>
      </trkpt>
      <trkpt lat="51.866180000" lon="7.595507000">
        <ele>59.0</ele>
        <time>2017-04-29T06:51:34</time>
        <extensions><speed>1.43</speed></extensions>
      </trkpt>
      <trkpt lat="51.866180000" lon="7.595523000">
        <ele>59.0</ele>
        <time>2017-04-29T06:51:35</time>
        <extensions><speed>1.39</speed></extensions>
      </trkpt>
      <trkpt lat="51.866184000" lon="7.595543000">
        <ele>59.0</ele>
        <time>2017-04-29T06:51:36</time>
        <extensions><speed>1.35</speed></extensions>
      </trkpt>
      <trkpt lat="51.866184000" lon="7.595563000">
        <ele>59.0</ele>
        <time>2017-04-29T06:51:37</time>
        <extensions><speed>1.35</speed></extensions>
      </trkpt>
      <trkpt lat="51.866188000" lon="7.595582000">
        <ele>59.0</ele>
        <time>2017-04-29T06:51:38</time>
        <extensions><speed>1.33</speed></extensions>
      </trkpt>
      <trkpt lat="51.866188000" lon="7.595603000">
        <ele>59.0</ele>
        <time>2017-04-29T06:51:39</time>
        <extensions><speed>1.32</speed></extensions>
      </trkpt>
      <trkpt lat="51.866188000" lon="7.595625000">
        <ele>59.0</ele>
        <time>2017-04-29T06:51:40</time>
        <extensions><speed>1.36</speed></extensions>
      </trkpt>
      <trkpt lat="51.866188000" lon="7.595644000">
        <ele>59.0</ele>
        <time>2017-04-29T06:51:41</time>
        <extensions><speed>1.35</speed></extensions>
      </trkpt>
      <trkpt lat="51.866192000" lon="7.595663000">
        <ele>59.0</ele>
        <time>2017-04-29T06:51:42</time>
        <extensions><speed>1.35</speed></extensions>
      </trkpt>
      <trkpt lat="51.866192000" lon="7.595684000">
        <ele>59.0</ele>
        <time>2017-04-29T06:51:43</time>
        <extensions><speed>1.35</speed></extensions>
      </trkpt>
      <trkpt lat="51.866192000" lon="7.595703000">
        <ele>59.0</ele>
        <time>2017-04-29T06:51:44</time>
        <extensions><speed>1.40</speed></extensions>
      </trkpt>
      <trkpt lat="51.866196000" lon="7.595727000">
        <ele>59.0</ele>
        <time>2017-04-29T06:51:45</time>
        <extensions><speed>1.41</speed></extensions>
      </trkpt>
      <trkpt lat="51.866199000" lon="7.595748000">
        <ele>59.0</ele>
        <time>2017-04-29T06:51:46</time>
        <extensions><speed>1.45</speed></extensions>
      </trkpt>
      <trkpt lat="51.866199000" lon="7.595768000">
        <ele>59.0</ele>
        <time>2017-04-29T06:51:47</time>
        <extensions><speed>1.40</speed></extensions>
      </trkpt>
      <trkpt lat="51.866203000" lon="7.595787000">
        <ele>59.0</ele>
        <time>2017-04-29T06:51:48</time>
        <extensions><speed>1.42</speed></extensions>
      </trkpt>
      <trkpt lat="51.866203000" lon="7.595808000">
        <ele>59.0</ele>
        <time>2017-04-29T06:51:49</time>
        <extensions><speed>1.41</speed></extensions>
      </trkpt>
      <trkpt lat="51.866203000" lon="7.595829000">
        <ele>59.0</ele>
        <time>2017-04-29T06:51:50</time>
        <extensions><speed>1.41</speed></extensions>
      </trkpt>
      <trkpt lat="51.866203000" lon="7.595850000">
        <ele>59.0</ele>
        <time>2017-04-29T06:51:51</time>
        <extensions><speed>1.38</speed></extensions>
      </trkpt>
      <trkpt lat="51.866203000" lon="7.595870000">
        <ele>59.0</ele>
        <time>2017-04-29T06:51:52</time>
        <extensions><speed>1.38</speed></extensions>
      </trkpt>
      <trkpt lat="51.866207000" lon="7.595890000">
        <ele>59.0</ele>
        <time>2017-04-29T06:51:53</time>
        <extensions><speed>1.41</speed></extensions>
      </trkpt>
      <trkpt lat="51.866207000" lon="7.595910000">
        <ele>59.0</ele>
        <time>2017-04-29T06:51:54</time>
        <extensions><speed>1.40</speed></extensions>
      </trkpt>
      <trkpt lat="51.866207000" lon="7.595929000">
        <ele>59.0</ele>
        <time>2017-04-29T06:51:55</time>
        <extensions><speed>1.37</speed></extensions>
      </trkpt>
      <trkpt lat="51.866211000" lon="7.595946000">
        <ele>59.0</ele>
        <time>2017-04-29T06:51:56</time>
        <extensions><speed>1.38</speed></extensions>
      </trkpt>
      <trkpt lat="51.866211000" lon="7.595969000">
        <ele>59.0</ele>
        <time>2017-04-29T06:51:57</time>
        <extensions><speed>1.38</speed></extensions>
      </trkpt>
      <trkpt lat="51.866215000" lon="7.595988000">
        <ele>59.0</ele>
        <time>2017-04-29T06:51:58</time>
        <extensions><speed>1.38</speed></extensions>
      </trkpt>
      <trkpt lat="51.866215000" lon="7.596010000">
        <ele>59.0</ele>
        <time>2017-04-29T06:51:59</time>
        <extensions><speed>1.40</speed></extensions>
      </trkpt>
      <trkpt lat="51.866215000" lon="7.596030000">
        <ele>59.0</ele>
        <time>2017-04-29T06:52:00</time>
        <extensions><speed>1.43</speed></extensions>
      </trkpt>
      <trkpt lat="51.866219000" lon="7.596051000">
        <ele>59.0</ele>
        <time>2017-04-29T06:52:01</time>
        <extensions><speed>1.46</speed></extensions>
      </trkpt>
      <trkpt lat="51.866219000" lon="7.596072000">
        <ele>59.0</ele>
        <time>2017-04-29T06:52:02</time>
        <extensions><speed>1.46</speed></extensions>
      </trkpt>
      <trkpt lat="51.866222000" lon="7.596093000">
        <ele>59.0</ele>
        <time>2017-04-29T06:52:03</time>
        <extensions><speed>1.47</speed></extensions>
      </trkpt>
      <trkpt lat="51.866219000" lon="7.596113000">
        <ele>59.0</ele>
        <time>2017-04-29T06:52:04</time>
        <extensions><speed>1.46</speed></extensions>
      </trkpt>
      <trkpt lat="51.866219000" lon="7.596135000">
        <ele>59.0</ele>
        <time>2017-04-29T06:52:05</time>
        <extensions><speed>1.48</speed></extensions>
      </trkpt>
      <trkpt lat="51.866219000" lon="7.596157000">
        <ele>59.0</ele>
        <time>2017-04-29T06:52:06</time>
        <extensions><speed>1.47</speed></extensions>
      </trkpt>
      <trkpt lat="51.866222000" lon="7.596177000">
        <ele>59.0</ele>
        <time>2017-04-29T06:52:07</time>
        <extensions><speed>1.48</speed></extensions>
      </trkpt>
      <trkpt lat="51.866230000" lon="7.596197000">
        <ele>59.0</ele>
        <time>2017-04-29T06:52:08</time>
        <extensions><speed>1.47</speed></extensions>
      </trkpt>
      <trkpt lat="51.866230000" lon="7.596215000">
        <ele>59.0</ele>
        <time>2017-04-29T06:52:09</time>
        <extensions><speed>1.45</speed></extensions>
      </trkpt>
      <trkpt lat="51.866234000" lon="7.596235000">
        <ele>59.0</ele>
        <time>2017-04-29T06:52:10</time>
        <extensions><speed>1.42</speed></extensions>
      </trkpt>
      <trkpt lat="51.866234000" lon="7.596258000">
        <ele>59.0</ele>
        <time>2017-04-29T06:52:11</time>
        <extensions><speed>1.45</speed></extensions>
      </trkpt>
      <trkpt lat="51.866234000" lon="7.596280000">
        <ele>59.0</ele>
        <time>2017-04-29T06:52:12</time>
        <extensions><speed>1.42</speed></extensions>
      </trkpt>
      <trkpt lat="51.866238000" lon="7.596300000">
        <ele>59.0</ele>
        <time>2017-04-29T06:52:13</time>
        <extensions><speed>1.42</speed></extensions>
      </trkpt>
      <trkpt lat="51.866241000" lon="7.596321000">
        <ele>59.0</ele>
        <time>2017-04-29T06:52:14</time>
        <extensions><speed>1.43</speed></extensions>
      </trkpt>
      <trkpt lat="51.866238000" lon="7.596342000">
        <ele>59.0</ele>
        <time>2017-04-29T06:52:15</time>
        <extensions><speed>1.43</speed></extensions>
      </trkpt>
      <trkpt lat="51.866238000" lon="7.596361000">
        <ele>59.0</ele>
        <time>2017-04-29T06:52:16</time>
        <extensions><speed>1.42</speed></extensions>
      </trkpt>
      <trkpt lat="51.866241000" lon="7.596380000">
        <ele>59.0</ele>
        <time>2017-04-29T06:52:17</time>
        <extensions><speed>1.40</speed></extensions>
      </trkpt>
      <trkpt lat="51.866241000" lon="7.596400000">
        <ele>59.0</ele>
        <time>2017-04-29T06:52:18</time>
        <extensions><speed>1.40</speed></extensions>
      </trkpt>
      <trkpt lat="51.866245000" lon="7.596420000">
        <ele>59.0</ele>
        <time>2017-04-29T06:52:19</time>
        <extensions><speed>1.40</speed></extensions>
      </trkpt>
      <trkpt lat="51.866245000" lon="7.596440000">
        <ele>59.0</ele>
        <time>2017-04-29T06:52:20</time>
        <extensions><speed>1.41</speed></extensions>
      </trkpt>
      <trkpt lat="51.866245000" lon="7.596460000">
        <ele>59.0</ele>
        <time>2017-04-29T06:52:21</time>
        <extensions><speed>1.43</speed></extensions>
      </trkpt>
      <trkpt lat="51.866249000" lon="7.596480000">
        <ele>59.0</ele>
        <time>2017-04-29T06:52:22</time>
        <extensions><speed>1.43</speed></extensions>
      </trkpt>
      <trkpt lat="51.866253000" lon="7.596498000">
        <ele>59.0</ele>
        <time>2017-04-29T06:52:23</time>
        <extensions><speed>1.44</speed></extensions>
      </trkpt>
      <trkpt lat="51.866249000" lon="7.596520000">
        <ele>59.0</ele>
        <time>2017-04-29T06:52:24</time>
        <extensions><speed>1.44</speed></extensions>
      </trkpt>
      <trkpt lat="51.866249000" lon="7.596540000">
        <ele>59.0</ele>
        <time>2017-04-29T06:52:25</time>
        <extensions><speed>1.42</speed></extensions>
      </trkpt>
      <trkpt lat="51.866249000" lon="7.596560000">
        <ele>59.0</ele>
        <time>2017-04-29T06:52:26</time>
        <extensions><speed>1.42</speed></extensions>
      </trkpt>
      <trkpt lat="51.866249000" lon="7.596581000">
        <ele>59.0</ele>
        <time>2017-04-29T06:52:27</time>
        <extensions><speed>1.45</speed></extensions>
      </trkpt>
      <trkpt lat="51.866245000" lon="7.596603000">
        <ele>59.0</ele>
        <time>2017-04-29T06:52:28</time>
        <extensions><speed>1.45</speed></extensions>
      </trkpt>
      <trkpt lat="51.866249000" lon="7.596623000">
        <ele>59.0</ele>
        <time>2017-04-29T06:52:29</time>
        <extensions><speed>1.44</speed></extensions>
      </trkpt>
      <trkpt lat="51.866253000" lon="7.596645000">
        <ele>59.0</ele>
        <time>2017-04-29T06:52:30</time>
        <extensions><speed>1.45</speed></extensions>
      </trkpt>
      <trkpt lat="51.866253000" lon="7.596667000">
        <ele>59.0</ele>
        <time>2017-04-29T06:52:31</time>
        <extensions><speed>1.47</speed></extensions>
      </trkpt>
      <trkpt lat="51.866257000" lon="7.596687000">
        <ele>59.0</ele>
        <time>2017-04-29T06:52:32</time>
        <extensions><speed>1.45</speed></extensions>
      </trkpt>
      <trkpt lat="51.866261000" lon="7.596704000">
        <ele>59.0</ele>
        <time>2017-04-29T06:52:33</time>
        <extensions><speed>1.45</speed></extensions>
      </trkpt>
      <trkpt lat="51.866264000" lon="7.596725000">
        <ele>59.0</ele>
        <time>2017-04-29T06:52:34</time>
        <extensions><speed>1.46</speed></extensions>
      </trkpt>
      <trkpt lat="51.866268000" lon="7.596746000">
        <ele>59.0</ele>
        <time>2017-04-29T06:52:35</time>
        <extensions><speed>1.46</speed></extensions>
      </trkpt>
      <trkpt lat="51.866268000" lon="7.596769000">
        <ele>59.0</ele>
        <time>2017-04-29T06:52:36</time>
        <extensions><speed>1.47</speed></extensions>
      </trkpt>
      <trkpt lat="51.866272000" lon="7.596790000">
        <ele>59.0</ele>
        <time>2017-04-29T06:52:37</time>
        <extensions><speed>1.49</speed></extensions>
      </trkpt>
      <trkpt lat="51.866276000" lon="7.596811000">
        <ele>59.0</ele>
        <time>2017-04-29T06:52:38</time>
        <extensions><speed>1.52</speed></extensions>
      </trkpt>
      <trkpt lat="51.866280000" lon="7.596830000">
        <ele>59.0</ele>
        <time>2017-04-29T06:52:39</time>
        <extensions><speed>1.49</speed></extensions>
      </trkpt>
      <trkpt lat="51.866280000" lon="7.596850000">
        <ele>59.0</ele>
        <time>2017-04-29T06:52:40</time>
        <extensions><speed>1.48</speed></extensions>
      </trkpt>
      <trkpt lat="51.866280000" lon="7.596872000">
        <ele>59.0</ele>
        <time>2017-04-29T06:52:41</time>
        <extensions><speed>1.46</speed></extensions>
      </trkpt>
      <trkpt lat="51.866283000" lon="7.596893000">
        <ele>59.0</ele>
        <time>2017-04-29T06:52:42</time>
        <extensions><speed>1.49</speed></extensions>
      </trkpt>
      <trkpt lat="51.866283000" lon="7.596918000">
        <ele>59.0</ele>
        <time>2017-04-29T06:52:43</time>
        <extensions><speed>1.50</speed></extensions>
      </trkpt>
      <trkpt lat="51.866283000" lon="7.596942000">
        <ele>59.0</ele>
        <time>2017-04-29T06:52:44</time>
        <extensions><speed>1.53</speed></extensions>
      </trkpt>
      <trkpt lat="51.866287000" lon="7.596963000">
        <ele>59.0</ele>
        <time>2017-04-29T06:52:45</time>
        <extensions><speed>1.53</speed></extensions>
      </trkpt>
      <trkpt lat="51.866287000" lon="7.596983000">
        <ele>59.0</ele>
        <time>2017-04-29T06:52:46</time>
        <extensions><speed>1.52</speed></extensions>
      </trkpt>
      <trkpt lat="51.866291000" lon="7.597002000">
        <ele>59.0</ele>
        <time>2017-04-29T06:52:47</time>
        <extensions><speed>1.44</speed></extensions>
      </trkpt>
      <trkpt lat="51.866295000" lon="7.597018000">
        <ele>59.0</ele>
        <time>2017-04-29T06:52:48</time>
        <extensions><speed>1.39</speed></extensions>
      </trkpt>
      <trkpt lat="51.866295000" lon="7.597035000">
        <ele>59.0</ele>
        <time>2017-04-29T06:52:49</time>
        <extensions><speed>1.31</speed></extensions>
      </trkpt>
      <trkpt lat="51.866295000" lon="7.597050000">
        <ele>59.0</ele>
        <time>2017-04-29T06:52:50</time>
        <extensions><speed>1.25</speed></extensions>
      </trkpt>
      <trkpt lat="51.866291000" lon="7.597062000">
        <ele>59.0</ele>
        <time>2017-04-29T06:52:51</time>
        <extensions><speed>1.17</speed></extensions>
      </trkpt>
      <trkpt lat="51.866287000" lon="7.597078000">
        <ele>59.0</ele>
        <time>2017-04-29T06:52:52</time>
        <extensions><speed>1.17</speed></extensions>
      </trkpt>
      <trkpt lat="51.866283000" lon="7.597096000">
        <ele>59.0</ele>
        <time>2017-04-29T06:52:53</time>
        <extensions><speed>1.18</speed></extensions>
      </trkpt>
      <trkpt lat="51.866283000" lon="7.597117000">
        <ele>59.0</ele>
        <time>2017-04-29T06:52:54</time>
        <extensions><speed>1.25</speed></extensions>
      </trkpt>
      <trkpt lat="51.866287000" lon="7.597136000">
        <ele>59.0</ele>
        <time>2017-04-29T06:52:55</time>
        <extensions><speed>1.29</speed></extensions>
      </trkpt>
      <trkpt lat="51.866287000" lon="7.597156000">
        <ele>59.0</ele>
        <time>2017-04-29T06:52:56</time>
        <extensions><speed>1.29</speed></extensions>
      </trkpt>
      <trkpt lat="51.866295000" lon="7.597170000">
        <ele>59.0</ele>
        <time>2017-04-29T06:52:57</time>
        <extensions><speed>1.29</speed></extensions>
      </trkpt>
      <trkpt lat="51.866299000" lon="7.597185000">
        <ele>59.0</ele>
        <time>2017-04-29T06:52:58</time>
        <extensions><speed>1.22</speed></extensions>
      </trkpt>
      <trkpt lat="51.866302000" lon="7.597201000">
        <ele>59.0</ele>
        <time>2017-04-29T06:52:59</time>
        <extensions><speed>1.22</speed></extensions>
      </trkpt>
      <trkpt lat="51.866310000" lon="7.597220000">
        <ele>59.0</ele>
        <time>2017-04-29T06:53:00</time>
        <extensions><speed>1.23</speed></extensions>
      </trkpt>
      <trkpt lat="51.866314000" lon="7.597238000">
        <ele>59.0</ele>
        <time>2017-04-29T06:53:01</time>
        <extensions><speed>1.28</speed></extensions>
      </trkpt>
      <trkpt lat="51.866322000" lon="7.597257000">
        <ele>59.0</ele>
        <time>2017-04-29T06:53:02</time>
        <extensions><speed>1.33</speed></extensions>
      </trkpt>
      <trkpt lat="51.866329000" lon="7.597277000">
        <ele>59.0</ele>
        <time>2017-04-29T06:53:03</time>
        <extensions><speed>1.44</speed></extensions>
      </trkpt>
      <trkpt lat="51.866337000" lon="7.597296000">
        <ele>59.0</ele>
        <time>2017-04-29T06:53:04</time>
        <extensions><speed>1.52</speed></extensions>
      </trkpt>
      <trkpt lat="51.866344000" lon="7.597317000">
        <ele>59.0</ele>
        <time>2017-04-29T06:53:05</time>
        <extensions><speed>1.56</speed></extensions>
      </trkpt>
      <trkpt lat="51.866344000" lon="7.597336000">
        <ele>59.0</ele>
        <time>2017-04-29T06:53:06</time>
        <extensions><speed>1.60</speed></extensions>
      </trkpt>
      <trkpt lat="51.866352000" lon="7.597359000">
        <ele>59.0</ele>
        <time>2017-04-29T06:53:07</time>
        <extensions><speed>1.59</speed></extensions>
      </trkpt>
      <trkpt lat="51.866356000" lon="7.597380000">
        <ele>59.0</ele>
        <time>2017-04-29T06:53:08</time>
        <extensions><speed>1.55</speed></extensions>
      </trkpt>
      <trkpt lat="51.866360000" lon="7.597401000">
        <ele>59.0</ele>
        <time>2017-04-29T06:53:09</time>
        <extensions><speed>1.51</speed></extensions>
      </trkpt>
      <trkpt lat="51.866364000" lon="7.597420000">
        <ele>59.0</ele>
        <time>2017-04-29T06:53:10</time>
        <extensions><speed>1.51</speed></extensions>
      </trkpt>
      <trkpt lat="51.866367000" lon="7.597440000">
        <ele>59.0</ele>
        <time>2017-04-29T06:53:11</time>
        <extensions><speed>1.51</speed></extensions>
      </trkpt>
      <trkpt lat="51.866375000" lon="7.597460000">
        <ele>59.0</ele>
        <time>2017-04-29T06:53:12</time>
        <extensions><speed>1.48</speed></extensions>
      </trkpt>
      <trkpt lat="51.866375000" lon="7.597480000">
        <ele>59.0</ele>
        <time>2017-04-29T06:53:13</time>
        <extensions><speed>1.51</speed></extensions>
      </trkpt>
      <trkpt lat="51.866379000" lon="7.597500000">
        <ele>59.0</ele>
        <time>2017-04-29T06:53:14</time>
        <extensions><speed>1.55</speed></extensions>
      </trkpt>
      <trkpt lat="51.866383000" lon="7.597522000">
        <ele>59.0</ele>
        <time>2017-04-29T06:53:15</time>
        <extensions><speed>1.55</speed></extensions>
      </trkpt>
      <trkpt lat="51.866386000" lon="7.597543000">
        <ele>59.0</ele>
        <time>2017-04-29T06:53:16</time>
        <extensions><speed>1.52</speed></extensions>
      </trkpt>
      <trkpt lat="51.866394000" lon="7.597563000">
        <ele>59.0</ele>
        <time>2017-04-29T06:53:17</time>
        <extensions><speed>1.55</speed></extensions>
      </trkpt>
      <trkpt lat="51.866402000" lon="7.597581000">
        <ele>59.0</ele>
        <time>2017-04-29T06:53:18</time>
        <extensions><speed>1.56</speed></extensions>
      </trkpt>
      <trkpt lat="51.866405000" lon="7.597604000">
        <ele>59.0</ele>
        <time>2017-04-29T06:53:19</time>
        <extensions><speed>1.56</speed></extensions>
      </trkpt>
      <trkpt lat="51.866409000" lon="7.597625000">
        <ele>59.0</ele>
        <time>2017-04-29T06:53:20</time>
        <extensions><speed>1.55</speed></extensions>
      </trkpt>
      <trkpt lat="51.866417000" lon="7.597644000">
        <ele>59.0</ele>
        <time>2017-04-29T06:53:21</time>
        <extensions><speed>1.60</speed></extensions>
      </trkpt>
      <trkpt lat="51.866428000" lon="7.597661000">
        <ele>59.0</ele>
        <time>2017-04-29T06:53:22</time>
        <extensions><speed>1.57</speed></extensions>
      </trkpt>
      <trkpt lat="51.866436000" lon="7.597679000">
        <ele>59.0</ele>
        <time>2017-04-29T06:53:23</time>
        <extensions><speed>1.53</speed></extensions>
      </trkpt>
      <trkpt lat="51.866440000" lon="7.597698000">
        <ele>59.0</ele>
        <time>2017-04-29T06:53:24</time>
        <extensions><speed>1.49</speed></extensions>
      </trkpt>
      <trkpt lat="51.866440000" lon="7.597722000">
        <ele>59.0</ele>
        <time>2017-04-29T06:53:25</time>
        <extensions><speed>1.54</speed></extensions>
      </trkpt>
      <trkpt lat="51.866440000" lon="7.597745000">
        <ele>59.0</ele>
        <time>2017-04-29T06:53:26</time>
        <extensions><speed>1.53</speed></extensions>
      </trkpt>
      <trkpt lat="51.866447000" lon="7.597767000">
        <ele>59.0</ele>
        <time>2017-04-29T06:53:27</time>
        <extensions><speed>1.54</speed></extensions>
      </trkpt>
      <trkpt lat="51.866451000" lon="7.597788000">
        <ele>59.0</ele>
        <time>2017-04-29T06:53:28</time>
        <extensions><speed>1.51</speed></extensions>
      </trkpt>
      <trkpt lat="51.866451000" lon="7.597808000">
        <ele>59.0</ele>
        <time>2017-04-29T06:53:29</time>
        <extensions><speed>1.53</speed></extensions>
      </trkpt>
      <trkpt lat="51.866455000" lon="7.597826000">
        <ele>59.0</ele>
        <time>2017-04-29T06:53:30</time>
        <extensions><speed>1.49</speed></extensions>
      </trkpt>
      <trkpt lat="51.866455000" lon="7.597847000">
        <ele>59.0</ele>
        <time>2017-04-29T06:53:31</time>
        <extensions><speed>1.48</speed></extensions>
      </trkpt>
      <trkpt lat="51.866455000" lon="7.597868000">
        <ele>59.0</ele>
        <time>2017-04-29T06:53:32</time>
        <extensions><speed>1.47</speed></extensions>
      </trkpt>
      <trkpt lat="51.866463000" lon="7.597910000">
        <ele>59.0</ele>
        <time>2017-04-29T06:53:34</time>
        <extensions><speed>1.52</speed></extensions>
      </trkpt>
      <trkpt lat="51.866467000" lon="7.597930000">
        <ele>59.0</ele>
        <time>2017-04-29T06:53:35</time>
        <extensions><speed>1.53</speed></extensions>
      </trkpt>
      <trkpt lat="51.866474000" lon="7.597950000">
        <ele>59.0</ele>
        <time>2017-04-29T06:53:36</time>
        <extensions><speed>1.52</speed></extensions>
      </trkpt>
      <trkpt lat="51.866474000" lon="7.597967000">
        <ele>59.0</ele>
        <time>2017-04-29T06:53:37</time>
        <extensions><speed>1.50</speed></extensions>
      </trkpt>
      <trkpt lat="51.866482000" lon="7.597980000">
        <ele>59.0</ele>
        <time>2017-04-29T06:53:38</time>
        <extensions><speed>1.44</speed></extensions>
      </trkpt>
      <trkpt lat="51.866489000" lon="7.597993000">
        <ele>59.0</ele>
        <time>2017-04-29T06:53:39</time>
        <extensions><speed>1.34</speed></extensions>
      </trkpt>
      <trkpt lat="51.866497000" lon="7.598007000">
        <ele>59.0</ele>
        <time>2017-04-29T06:53:40</time>
        <extensions><speed>1.26</speed></extensions>
      </trkpt>
      <trkpt lat="51.866505000" lon="7.598019000">
        <ele>59.0</ele>
        <time>2017-04-29T06:53:41</time>
        <extensions><speed>1.26</speed></extensions>
      </trkpt>
      <trkpt lat="51.866516000" lon="7.598035000">
        <ele>59.0</ele>
        <time>2017-04-29T06:53:42</time>
        <extensions><speed>1.34</speed></extensions>
      </trkpt>
      <trkpt lat="51.866524000" lon="7.598047000">
        <ele>59.0</ele>
        <time>2017-04-29T06:53:43</time>
        <extensions><speed>1.35</speed></extensions>
      </trkpt>
      <trkpt lat="51.866531000" lon="7.598059000">
        <ele>59.0</ele>
        <time>2017-04-29T06:53:44</time>
        <extensions><speed>1.38</speed></extensions>
      </trkpt>
      <trkpt lat="51.866539000" lon="7.598072000">
        <ele>59.0</ele>
        <time>2017-04-29T06:53:45</time>
        <extensions><speed>1.45</speed></extensions>
      </trkpt>
      <trkpt lat="51.866550000" lon="7.598082000">
        <ele>59.0</ele>
        <time>2017-04-29T06:53:46</time>
        <extensions><speed>1.33</speed></extensions>
      </trkpt>
      <trkpt lat="51.866562000" lon="7.598092000">
        <ele>59.0</ele>
        <time>2017-04-29T06:53:47</time>
        <extensions><speed>1.33</speed></extensions>
      </trkpt>
      <trkpt lat="51.866570000" lon="7.598100000">
        <ele>59.0</ele>
        <time>2017-04-29T06:53:48</time>
        <extensions><speed>1.41</speed></extensions>
      </trkpt>
      <trkpt lat="51.866581000" lon="7.598101000">
        <ele>59.0</ele>
        <time>2017-04-29T06:53:49</time>
        <extensions><speed>1.45</speed></extensions>
      </trkpt>
      <trkpt lat="51.866596000" lon="7.598101000">
        <ele>59.0</ele>
        <time>2017-04-29T06:53:50</time>
        <extensions><speed>1.50</speed></extensions>
      </trkpt>
      <trkpt lat="51.866608000" lon="7.598105000">
        <ele>59.0</ele>
        <time>2017-04-29T06:53:51</time>
        <extensions><speed>1.58</speed></extensions>
      </trkpt>
      <trkpt lat="51.866623000" lon="7.598108000">
        <ele>59.0</ele>
        <time>2017-04-29T06:53:52</time>
        <extensions><speed>1.61</speed></extensions>
      </trkpt>
      <trkpt lat="51.866638000" lon="7.598112000">
        <ele>59.0</ele>
        <time>2017-04-29T06:53:53</time>
        <extensions><speed>1.62</speed></extensions>
      </trkpt>
      <trkpt lat="51.866650000" lon="7.598117000">
        <ele>59.0</ele>
        <time>2017-04-29T06:53:54</time>
        <extensions><speed>1.62</speed></extensions>
      </trkpt>
      <trkpt lat="51.866657000" lon="7.598127000">
        <ele>59.0</ele>
        <time>2017-04-29T06:53:55</time>
        <extensions><speed>1.54</speed></extensions>
      </trkpt>
      <trkpt lat="51.866669000" lon="7.598138000">
        <ele>59.0</ele>
        <time>2017-04-29T06:53:56</time>
        <extensions><speed>1.41</speed></extensions>
      </trkpt>
      <trkpt lat="51.866676000" lon="7.598150000">
        <ele>59.0</ele>
        <time>2017-04-29T06:53:57</time>
        <extensions><speed>1.44</speed></extensions>
      </trkpt>
      <trkpt lat="51.866692000" lon="7.598160000">
        <ele>59.0</ele>
        <time>2017-04-29T06:53:58</time>
        <extensions><speed>1.42</speed></extensions>
      </trkpt>
      <trkpt lat="51.866703000" lon="7.598168000">
        <ele>59.0</ele>
        <time>2017-04-29T06:53:59</time>
        <extensions><speed>1.56</speed></extensions>
      </trkpt>
      <trkpt lat="51.866714000" lon="7.598178000">
        <ele>59.0</ele>
        <time>2017-04-29T06:54:00</time>
        <extensions><speed>1.60</speed></extensions>
      </trkpt>
      <trkpt lat="51.866730000" lon="7.598187000">
        <ele>59.0</ele>
        <time>2017-04-29T06:54:01</time>
        <extensions><speed>1.63</speed></extensions>
      </trkpt>
      <trkpt lat="51.866737000" lon="7.598197000">
        <ele>59.0</ele>
        <time>2017-04-29T06:54:02</time>
        <extensions><speed>1.58</speed></extensions>
      </trkpt>
      <trkpt lat="51.866753000" lon="7.598208000">
        <ele>59.0</ele>
        <time>2017-04-29T06:54:03</time>
        <extensions><speed>1.55</speed></extensions>
      </trkpt>
      <trkpt lat="51.866764000" lon="7.598217000">
        <ele>59.0</ele>
        <time>2017-04-29T06:54:04</time>
        <extensions><speed>1.48</speed></extensions>
      </trkpt>
      <trkpt lat="51.866772000" lon="7.598225000">
        <ele>59.0</ele>
        <time>2017-04-29T06:54:05</time>
        <extensions><speed>1.44</speed></extensions>
      </trkpt>
      <trkpt lat="51.866783000" lon="7.598236000">
        <ele>59.0</ele>
        <time>2017-04-29T06:54:06</time>
        <extensions><speed>1.42</speed></extensions>
      </trkpt>
      <trkpt lat="51.866795000" lon="7.598243000">
        <ele>59.0</ele>
        <time>2017-04-29T06:54:07</time>
        <extensions><speed>1.41</speed></extensions>
      </trkpt>
      <trkpt lat="51.866802000" lon="7.598252000">
        <ele>59.0</ele>
        <time>2017-04-29T06:54:08</time>
        <extensions><speed>1.42</speed></extensions>
      </trkpt>
      <trkpt lat="51.866814000" lon="7.598260000">
        <ele>59.0</ele>
        <time>2017-04-29T06:54:09</time>
        <extensions><speed>1.44</speed></extensions>
      </trkpt>
      <trkpt lat="51.866825000" lon="7.598273000">
        <ele>59.0</ele>
        <time>2017-04-29T06:54:10</time>
        <extensions><speed>1.46</speed></extensions>
      </trkpt>
      <trkpt lat="51.866833000" lon="7.598283000">
        <ele>59.0</ele>
        <time>2017-04-29T06:54:11</time>
        <extensions><speed>1.45</speed></extensions>
      </trkpt>
      <trkpt lat="51.866840000" lon="7.598292000">
        <ele>59.0</ele>
        <time>2017-04-29T06:54:12</time>
        <extensions><speed>1.41</speed></extensions>
      </trkpt>
      <trkpt lat="51.866848000" lon="7.598300000">
        <ele>59.0</ele>
        <time>2017-04-29T06:54:13</time>
        <extensions><speed>1.22</speed></extensions>
      </trkpt>
      <trkpt lat="51.866852000" lon="7.598308000">
        <ele>59.0</ele>
        <time>2017-04-29T06:54:14</time>
        <extensions><speed>0.97</speed></extensions>
      </trkpt>
      <trkpt lat="51.866856000" lon="7.598313000">
        <ele>59.0</ele>
        <time>2017-04-29T06:54:15</time>
        <extensions><speed>0.71</speed></extensions>
      </trkpt>
      <trkpt lat="51.866856000" lon="7.598318000">
        <ele>59.0</ele>
        <time>2017-04-29T06:54:16</time>
        <extensions><speed>0.56</speed></extensions>
      </trkpt>
      <trkpt lat="51.866856000" lon="7.598321000">
        <ele>59.0</ele>
        <time>2017-04-29T06:54:17</time>
      </trkpt>
      <trkpt lat="51.866879000" lon="7.598523000">
        <ele>59.0</ele>
        <time>2017-04-29T06:56:03</time>
      </trkpt>
      <trkpt lat="51.866882000" lon="7.598544000">
        <ele>59.0</ele>
        <time>2017-04-29T06:56:05</time>
        <extensions><speed>1.43</speed></extensions>
      </trkpt>
      <trkpt lat="51.866882000" lon="7.598549000">
        <ele>59.0</ele>
        <time>2017-04-29T06:56:06</time>
        <extensions><speed>1.40</speed></extensions>
      </trkpt>
      <trkpt lat="51.866879000" lon="7.598580000">
        <ele>59.0</ele>
        <time>2017-04-29T06:56:07</time>
        <extensions><speed>1.41</speed></extensions>
      </trkpt>
      <trkpt lat="51.866882000" lon="7.598617000">
        <ele>59.0</ele>
        <time>2017-04-29T06:56:08</time>
        <extensions><speed>1.39</speed></extensions>
      </trkpt>
      <trkpt lat="51.866882000" lon="7.598649000">
        <ele>59.0</ele>
        <time>2017-04-29T06:56:09</time>
        <extensions><speed>1.40</speed></extensions>
      </trkpt>
      <trkpt lat="51.866882000" lon="7.598679000">
        <ele>59.0</ele>
        <time>2017-04-29T06:56:10</time>
        <extensions><speed>1.40</speed></extensions>
      </trkpt>
      <trkpt lat="51.866879000" lon="7.598709000">
        <ele>59.0</ele>
        <time>2017-04-29T06:56:11</time>
        <extensions><speed>1.39</speed></extensions>
      </trkpt>
      <trkpt lat="51.866879000" lon="7.598733000">
        <ele>59.0</ele>
        <time>2017-04-29T06:56:12</time>
        <extensions><speed>1.39</speed></extensions>
      </trkpt>
      <trkpt lat="51.866882000" lon="7.598758000">
        <ele>59.0</ele>
        <time>2017-04-29T06:56:13</time>
        <extensions><speed>1.36</speed></extensions>
      </trkpt>
      <trkpt lat="51.866886000" lon="7.598785000">
        <ele>59.0</ele>
        <time>2017-04-29T06:56:14</time>
        <extensions><speed>1.37</speed></extensions>
      </trkpt>
      <trkpt lat="51.866890000" lon="7.598810000">
        <ele>59.0</ele>
        <time>2017-04-29T06:56:15</time>
        <extensions><speed>1.41</speed></extensions>
      </trkpt>
      <trkpt lat="51.866890000" lon="7.598833000">
        <ele>59.0</ele>
        <time>2017-04-29T06:56:16</time>
        <extensions><speed>1.44</speed></extensions>
      </trkpt>
      <trkpt lat="51.866894000" lon="7.598850000">
        <ele>59.0</ele>
        <time>2017-04-29T06:56:17</time>
        <extensions><speed>1.42</speed></extensions>
      </trkpt>
      <trkpt lat="51.866898000" lon="7.598868000">
        <ele>59.0</ele>
        <time>2017-04-29T06:56:18</time>
        <extensions><speed>1.44</speed></extensions>
      </trkpt>
      <trkpt lat="51.866898000" lon="7.598892000">
        <ele>59.0</ele>
        <time>2017-04-29T06:56:19</time>
        <extensions><speed>1.44</speed></extensions>
      </trkpt>
      <trkpt lat="51.866901000" lon="7.598915000">
        <ele>59.0</ele>
        <time>2017-04-29T06:56:20</time>
        <extensions><speed>1.42</speed></extensions>
      </trkpt>
      <trkpt lat="51.866905000" lon="7.598933000">
        <ele>59.0</ele>
        <time>2017-04-29T06:56:21</time>
        <extensions><speed>1.43</speed></extensions>
      </trkpt>
      <trkpt lat="51.866913000" lon="7.598952000">
        <ele>59.0</ele>
        <time>2017-04-29T06:56:22</time>
        <extensions><speed>1.45</speed></extensions>
      </trkpt>
      <trkpt lat="51.866920000" lon="7.598971000">
        <ele>59.0</ele>
        <time>2017-04-29T06:56:23</time>
        <extensions><speed>1.45</speed></extensions>
      </trkpt>
      <trkpt lat="51.866928000" lon="7.598994000">
        <ele>59.0</ele>
        <time>2017-04-29T06:56:24</time>
        <extensions><speed>1.45</speed></extensions>
      </trkpt>
      <trkpt lat="51.866932000" lon="7.599015000">
        <ele>59.0</ele>
        <time>2017-04-29T06:56:25</time>
        <extensions><speed>1.45</speed></extensions>
      </trkpt>
      <trkpt lat="51.866940000" lon="7.599034000">
        <ele>59.0</ele>
        <time>2017-04-29T06:56:26</time>
        <extensions><speed>1.45</speed></extensions>
      </trkpt>
      <trkpt lat="51.866947000" lon="7.599050000">
        <ele>59.0</ele>
        <time>2017-04-29T06:56:27</time>
        <extensions><speed>1.44</speed></extensions>
      </trkpt>
      <trkpt lat="51.866951000" lon="7.599067000">
        <ele>59.0</ele>
        <time>2017-04-29T06:56:28</time>
        <extensions><speed>1.43</speed></extensions>
      </trkpt>
      <trkpt lat="51.866955000" lon="7.599083000">
        <ele>59.0</ele>
        <time>2017-04-29T06:56:29</time>
        <extensions><speed>1.43</speed></extensions>
      </trkpt>
      <trkpt lat="51.866962000" lon="7.599102000">
        <ele>59.0</ele>
        <time>2017-04-29T06:56:30</time>
        <extensions><speed>1.41</speed></extensions>
      </trkpt>
      <trkpt lat="51.866966000" lon="7.599118000">
        <ele>59.0</ele>
        <time>2017-04-29T06:56:31</time>
        <extensions><speed>1.38</speed></extensions>
      </trkpt>
      <trkpt lat="51.866974000" lon="7.599137000">
        <ele>59.0</ele>
        <time>2017-04-29T06:56:32</time>
        <extensions><speed>1.40</speed></extensions>
      </trkpt>
      <trkpt lat="51.866982000" lon="7.599155000">
        <ele>59.0</ele>
        <time>2017-04-29T06:56:33</time>
        <extensions><speed>1.40</speed></extensions>
      </trkpt>
      <trkpt lat="51.866989000" lon="7.599172000">
        <ele>59.0</ele>
        <time>2017-04-29T06:56:34</time>
        <extensions><speed>1.43</speed></extensions>
      </trkpt>
      <trkpt lat="51.866993000" lon="7.599190000">
        <ele>59.0</ele>
        <time>2017-04-29T06:56:35</time>
        <extensions><speed>1.42</speed></extensions>
      </trkpt>
      <trkpt lat="51.866997000" lon="7.599209000">
        <ele>59.0</ele>
        <time>2017-04-29T06:56:36</time>
        <extensions><speed>1.44</speed></extensions>
      </trkpt>
      <trkpt lat="51.867004000" lon="7.599225000">
        <ele>59.0</ele>
        <time>2017-04-29T06:56:37</time>
        <extensions><speed>1.43</speed></extensions>
      </trkpt>
      <trkpt lat="51.867016000" lon="7.599242000">
        <ele>59.1</ele>
        <time>2017-04-29T06:56:38</time>
        <extensions><speed>1.43</speed></extensions>
      </trkpt>
      <trkpt lat="51.867023000" lon="7.599257000">
        <ele>59.1</ele>
        <time>2017-04-29T06:56:39</time>
        <extensions><speed>1.42</speed></extensions>
      </trkpt>
      <trkpt lat="51.867027000" lon="7.599275000">
        <ele>59.1</ele>
        <time>2017-04-29T06:56:40</time>
        <extensions><speed>1.47</speed></extensions>
      </trkpt>
      <trkpt lat="51.867039000" lon="7.599295000">
        <ele>59.1</ele>
        <time>2017-04-29T06:56:41</time>
        <extensions><speed>1.51</speed></extensions>
      </trkpt>
      <trkpt lat="51.867046000" lon="7.599312000">
        <ele>59.2</ele>
        <time>2017-04-29T06:56:42</time>
        <extensions><speed>1.46</speed></extensions>
      </trkpt>
      <trkpt lat="51.867058000" lon="7.599330000">
        <ele>59.2</ele>
        <time>2017-04-29T06:56:43</time>
        <extensions><speed>1.52</speed></extensions>
      </trkpt>
      <trkpt lat="51.867062000" lon="7.599347000">
        <ele>59.2</ele>
        <time>2017-04-29T06:56:44</time>
        <extensions><speed>1.49</speed></extensions>
      </trkpt>
      <trkpt lat="51.867065000" lon="7.599367000">
        <ele>59.2</ele>
        <time>2017-04-29T06:56:45</time>
        <extensions><speed>1.49</speed></extensions>
      </trkpt>
      <trkpt lat="51.867069000" lon="7.599385000">
        <ele>59.3</ele>
        <time>2017-04-29T06:56:46</time>
        <extensions><speed>1.47</speed></extensions>
      </trkpt>
      <trkpt lat="51.867077000" lon="7.599407000">
        <ele>59.3</ele>
        <time>2017-04-29T06:56:47</time>
        <extensions><speed>1.54</speed></extensions>
      </trkpt>
      <trkpt lat="51.867085000" lon="7.599430000">
        <ele>59.3</ele>
        <time>2017-04-29T06:56:48</time>
        <extensions><speed>1.57</speed></extensions>
      </trkpt>
      <trkpt lat="51.867088000" lon="7.599454000">
        <ele>59.3</ele>
        <time>2017-04-29T06:56:49</time>
        <extensions><speed>1.63</speed></extensions>
      </trkpt>
      <trkpt lat="51.867088000" lon="7.599479000">
        <ele>59.4</ele>
        <time>2017-04-29T06:56:50</time>
        <extensions><speed>1.63</speed></extensions>
      </trkpt>
      <trkpt lat="51.867085000" lon="7.599500000">
        <ele>59.4</ele>
        <time>2017-04-29T06:56:51</time>
        <extensions><speed>1.63</speed></extensions>
      </trkpt>
      <trkpt lat="51.867081000" lon="7.599520000">
        <ele>59.4</ele>
        <time>2017-04-29T06:56:52</time>
        <extensions><speed>1.64</speed></extensions>
      </trkpt>
      <trkpt lat="51.867077000" lon="7.599544000">
        <ele>59.5</ele>
        <time>2017-04-29T06:56:53</time>
        <extensions><speed>1.61</speed></extensions>
      </trkpt>
      <trkpt lat="51.867073000" lon="7.599566000">
        <ele>59.5</ele>
        <time>2017-04-29T06:56:54</time>
        <extensions><speed>1.56</speed></extensions>
      </trkpt>
      <trkpt lat="51.867069000" lon="7.599589000">
        <ele>59.5</ele>
        <time>2017-04-29T06:56:55</time>
        <extensions><speed>1.52</speed></extensions>
      </trkpt>
      <trkpt lat="51.867062000" lon="7.599607000">
        <ele>59.6</ele>
        <time>2017-04-29T06:56:56</time>
        <extensions><speed>1.50</speed></extensions>
      </trkpt>
      <trkpt lat="51.867054000" lon="7.599625000">
        <ele>59.6</ele>
        <time>2017-04-29T06:56:57</time>
        <extensions><speed>1.50</speed></extensions>
      </trkpt>
      <trkpt lat="51.867043000" lon="7.599642000">
        <ele>59.6</ele>
        <time>2017-04-29T06:56:58</time>
        <extensions><speed>1.50</speed></extensions>
      </trkpt>
      <trkpt lat="51.867031000" lon="7.599657000">
        <ele>59.7</ele>
        <time>2017-04-29T06:56:59</time>
        <extensions><speed>1.53</speed></extensions>
      </trkpt>
      <trkpt lat="51.867023000" lon="7.599670000">
        <ele>59.7</ele>
        <time>2017-04-29T06:57:00</time>
        <extensions><speed>1.55</speed></extensions>
      </trkpt>
      <trkpt lat="51.867012000" lon="7.599685000">
        <ele>59.7</ele>
        <time>2017-04-29T06:57:01</time>
        <extensions><speed>1.56</speed></extensions>
      </trkpt>
      <trkpt lat="51.867001000" lon="7.599695000">
        <ele>59.7</ele>
        <time>2017-04-29T06:57:02</time>
        <extensions><speed>1.54</speed></extensions>
      </trkpt>
      <trkpt lat="51.866993000" lon="7.599703000">
        <ele>59.8</ele>
        <time>2017-04-29T06:57:03</time>
        <extensions><speed>1.54</speed></extensions>
      </trkpt>
      <trkpt lat="51.866982000" lon="7.599713000">
        <ele>59.8</ele>
        <time>2017-04-29T06:57:04</time>
        <extensions><speed>1.50</speed></extensions>
      </trkpt>
      <trkpt lat="51.866966000" lon="7.599723000">
        <ele>59.8</ele>
        <time>2017-04-29T06:57:05</time>
        <extensions><speed>1.50</speed></extensions>
      </trkpt>
      <trkpt lat="51.866959000" lon="7.599733000">
        <ele>59.8</ele>
        <time>2017-04-29T06:57:06</time>
        <extensions><speed>1.45</speed></extensions>
      </trkpt>
      <trkpt lat="51.866947000" lon="7.599743000">
        <ele>59.8</ele>
        <time>2017-04-29T06:57:07</time>
        <extensions><speed>1.41</speed></extensions>
      </trkpt>
      <trkpt lat="51.866936000" lon="7.599757000">
        <ele>59.9</ele>
        <time>2017-04-29T06:57:08</time>
        <extensions><speed>1.42</speed></extensions>
      </trkpt>
      <trkpt lat="51.866928000" lon="7.599771000">
        <ele>59.9</ele>
        <time>2017-04-29T06:57:09</time>
        <extensions><speed>1.43</speed></extensions>
      </trkpt>
      <trkpt lat="51.866917000" lon="7.599785000">
        <ele>59.9</ele>
        <time>2017-04-29T06:57:10</time>
        <extensions><speed>1.40</speed></extensions>
      </trkpt>
      <trkpt lat="51.866905000" lon="7.599797000">
        <ele>59.9</ele>
        <time>2017-04-29T06:57:11</time>
        <extensions><speed>1.43</speed></extensions>
      </trkpt>
      <trkpt lat="51.866898000" lon="7.599812000">
        <ele>59.9</ele>
        <time>2017-04-29T06:57:12</time>
        <extensions><speed>1.42</speed></extensions>
      </trkpt>
      <trkpt lat="51.866890000" lon="7.599827000">
        <ele>59.9</ele>
        <time>2017-04-29T06:57:13</time>
        <extensions><speed>1.42</speed></extensions>
      </trkpt>
      <trkpt lat="51.866882000" lon="7.599843000">
        <ele>60.0</ele>
        <time>2017-04-29T06:57:14</time>
        <extensions><speed>1.37</speed></extensions>
      </trkpt>
      <trkpt lat="51.866875000" lon="7.599860000">
        <ele>60.0</ele>
        <time>2017-04-29T06:57:15</time>
        <extensions><speed>1.38</speed></extensions>
      </trkpt>
      <trkpt lat="51.866871000" lon="7.599882000">
        <ele>60.0</ele>
        <time>2017-04-29T06:57:16</time>
        <extensions><speed>1.38</speed></extensions>
      </trkpt>
      <trkpt lat="51.866867000" lon="7.599900000">
        <ele>60.1</ele>
        <time>2017-04-29T06:57:17</time>
        <extensions><speed>1.37</speed></extensions>
      </trkpt>
      <trkpt lat="51.866863000" lon="7.599922000">
        <ele>60.1</ele>
        <time>2017-04-29T06:57:18</time>
        <extensions><speed>1.37</speed></extensions>
      </trkpt>
      <trkpt lat="51.866863000" lon="7.599943000">
        <ele>60.2</ele>
        <time>2017-04-29T06:57:19</time>
        <extensions><speed>1.40</speed></extensions>
      </trkpt>
      <trkpt lat="51.866863000" lon="7.599965000">
        <ele>60.2</ele>
        <time>2017-04-29T06:57:20</time>
        <extensions><speed>1.38</speed></extensions>
      </trkpt>
      <trkpt lat="51.866863000" lon="7.599983000">
        <ele>60.3</ele>
        <time>2017-04-29T06:57:21</time>
        <extensions><speed>1.38</speed></extensions>
      </trkpt>
      <trkpt lat="51.866863000" lon="7.600004000">
        <ele>60.3</ele>
        <time>2017-04-29T06:57:22</time>
        <extensions><speed>1.38</speed></extensions>
      </trkpt>
      <trkpt lat="51.866867000" lon="7.600025000">
        <ele>60.3</ele>
        <time>2017-04-29T06:57:23</time>
        <extensions><speed>1.38</speed></extensions>
      </trkpt>
      <trkpt lat="51.866867000" lon="7.600046000">
        <ele>60.4</ele>
        <time>2017-04-29T06:57:24</time>
        <extensions><speed>1.39</speed></extensions>
      </trkpt>
      <trkpt lat="51.866875000" lon="7.600067000">
        <ele>60.5</ele>
        <time>2017-04-29T06:57:25</time>
        <extensions><speed>1.45</speed></extensions>
      </trkpt>
      <trkpt lat="51.866879000" lon="7.600086000">
        <ele>60.6</ele>
        <time>2017-04-29T06:57:26</time>
        <extensions><speed>1.44</speed></extensions>
      </trkpt>
      <trkpt lat="51.866886000" lon="7.600110000">
        <ele>60.7</ele>
        <time>2017-04-29T06:57:27</time>
        <extensions><speed>1.47</speed></extensions>
      </trkpt>
      <trkpt lat="51.866886000" lon="7.600133000">
        <ele>60.8</ele>
        <time>2017-04-29T06:57:28</time>
        <extensions><speed>1.47</speed></extensions>
      </trkpt>
      <trkpt lat="51.866886000" lon="7.600156000">
        <ele>60.8</ele>
        <time>2017-04-29T06:57:29</time>
        <extensions><speed>1.50</speed></extensions>
      </trkpt>
      <trkpt lat="51.866890000" lon="7.600173000">
        <ele>60.9</ele>
        <time>2017-04-29T06:57:30</time>
        <extensions><speed>1.49</speed></extensions>
      </trkpt>
      <trkpt lat="51.866898000" lon="7.600192000">
        <ele>61.0</ele>
        <time>2017-04-29T06:57:31</time>
        <extensions><speed>1.49</speed></extensions>
      </trkpt>
      <trkpt lat="51.866901000" lon="7.600214000">
        <ele>61.1</ele>
        <time>2017-04-29T06:57:32</time>
        <extensions><speed>1.49</speed></extensions>
      </trkpt>
      <trkpt lat="51.866909000" lon="7.600235000">
        <ele>61.1</ele>
        <time>2017-04-29T06:57:33</time>
        <extensions><speed>1.52</speed></extensions>
      </trkpt>
      <trkpt lat="51.866917000" lon="7.600255000">
        <ele>61.2</ele>
        <time>2017-04-29T06:57:34</time>
        <extensions><speed>1.51</speed></extensions>
      </trkpt>
      <trkpt lat="51.866920000" lon="7.600278000">
        <ele>61.3</ele>
        <time>2017-04-29T06:57:35</time>
        <extensions><speed>1.51</speed></extensions>
      </trkpt>
      <trkpt lat="51.866924000" lon="7.600300000">
        <ele>61.3</ele>
        <time>2017-04-29T06:57:36</time>
        <extensions><speed>1.55</speed></extensions>
      </trkpt>
      <trkpt lat="51.866928000" lon="7.600318000">
        <ele>61.4</ele>
        <time>2017-04-29T06:57:37</time>
        <extensions><speed>1.50</speed></extensions>
      </trkpt>
      <trkpt lat="51.866928000" lon="7.600340000">
        <ele>61.5</ele>
        <time>2017-04-29T06:57:38</time>
        <extensions><speed>1.47</speed></extensions>
      </trkpt>
      <trkpt lat="51.866928000" lon="7.600361000">
        <ele>61.5</ele>
        <time>2017-04-29T06:57:39</time>
        <extensions><speed>1.48</speed></extensions>
      </trkpt>
      <trkpt lat="51.866932000" lon="7.600389000">
        <ele>61.6</ele>
        <time>2017-04-29T06:57:40</time>
        <extensions><speed>1.50</speed></extensions>
      </trkpt>
      <trkpt lat="51.866932000" lon="7.600410000">
        <ele>61.7</ele>
        <time>2017-04-29T06:57:41</time>
        <extensions><speed>1.49</speed></extensions>
      </trkpt>
      <trkpt lat="51.866928000" lon="7.600430000">
        <ele>61.7</ele>
        <time>2017-04-29T06:57:42</time>
        <extensions><speed>1.50</speed></extensions>
      </trkpt>
      <trkpt lat="51.866924000" lon="7.600450000">
        <ele>61.8</ele>
        <time>2017-04-29T06:57:43</time>
        <extensions><speed>1.50</speed></extensions>
      </trkpt>
      <trkpt lat="51.866920000" lon="7.600471000">
        <ele>61.9</ele>
        <time>2017-04-29T06:57:44</time>
        <extensions><speed>1.48</speed></extensions>
      </trkpt>
      <trkpt lat="51.866920000" lon="7.600487000">
        <ele>62.0</ele>
        <time>2017-04-29T06:57:45</time>
        <extensions><speed>1.46</speed></extensions>
      </trkpt>
      <trkpt lat="51.866917000" lon="7.600500000">
        <ele>62.0</ele>
        <time>2017-04-29T06:57:46</time>
        <extensions><speed>1.45</speed></extensions>
      </trkpt>
      <trkpt lat="51.866909000" lon="7.600518000">
        <ele>62.1</ele>
        <time>2017-04-29T06:57:47</time>
        <extensions><speed>1.45</speed></extensions>
      </trkpt>
      <trkpt lat="51.866901000" lon="7.600538000">
        <ele>62.2</ele>
        <time>2017-04-29T06:57:48</time>
        <extensions><speed>1.47</speed></extensions>
      </trkpt>
      <trkpt lat="51.866894000" lon="7.600554000">
        <ele>62.2</ele>
        <time>2017-04-29T06:57:49</time>
        <extensions><speed>1.54</speed></extensions>
      </trkpt>
      <trkpt lat="51.866882000" lon="7.600570000">
        <ele>62.3</ele>
        <time>2017-04-29T06:57:50</time>
        <extensions><speed>1.54</speed></extensions>
      </trkpt>
      <trkpt lat="51.866875000" lon="7.600583000">
        <ele>62.4</ele>
        <time>2017-04-29T06:57:51</time>
        <extensions><speed>1.54</speed></extensions>
      </trkpt>
      <trkpt lat="51.866867000" lon="7.600600000">
        <ele>62.4</ele>
        <time>2017-04-29T06:57:52</time>
        <extensions><speed>1.51</speed></extensions>
      </trkpt>
      <trkpt lat="51.866859000" lon="7.600615000">
        <ele>62.5</ele>
        <time>2017-04-29T06:57:53</time>
        <extensions><speed>1.46</speed></extensions>
      </trkpt>
      <trkpt lat="51.866852000" lon="7.600630000">
        <ele>62.5</ele>
        <time>2017-04-29T06:57:54</time>
        <extensions><speed>1.46</speed></extensions>
      </trkpt>
      <trkpt lat="51.866840000" lon="7.600640000">
        <ele>62.6</ele>
        <time>2017-04-29T06:57:55</time>
        <extensions><speed>1.44</speed></extensions>
      </trkpt>
      <trkpt lat="51.866829000" lon="7.600646000">
        <ele>62.7</ele>
        <time>2017-04-29T06:57:56</time>
        <extensions><speed>1.44</speed></extensions>
      </trkpt>
      <trkpt lat="51.866817000" lon="7.600652000">
        <ele>62.7</ele>
        <time>2017-04-29T06:57:57</time>
        <extensions><speed>1.41</speed></extensions>
      </trkpt>
      <trkpt lat="51.866806000" lon="7.600664000">
        <ele>62.8</ele>
        <time>2017-04-29T06:57:58</time>
        <extensions><speed>1.40</speed></extensions>
      </trkpt>
      <trkpt lat="51.866795000" lon="7.600673000">
        <ele>62.8</ele>
        <time>2017-04-29T06:57:59</time>
        <extensions><speed>1.40</speed></extensions>
      </trkpt>
      <trkpt lat="51.866783000" lon="7.600681000">
        <ele>62.9</ele>
        <time>2017-04-29T06:58:00</time>
        <extensions><speed>1.40</speed></extensions>
      </trkpt>
      <trkpt lat="51.866772000" lon="7.600687000">
        <ele>62.9</ele>
        <time>2017-04-29T06:58:01</time>
        <extensions><speed>1.40</speed></extensions>
      </trkpt>
      <trkpt lat="51.866764000" lon="7.600692000">
        <ele>63.0</ele>
        <time>2017-04-29T06:58:02</time>
        <extensions><speed>1.39</speed></extensions>
      </trkpt>
      <trkpt lat="51.866753000" lon="7.600700000">
        <ele>63.0</ele>
        <time>2017-04-29T06:58:03</time>
        <extensions><speed>1.39</speed></extensions>
      </trkpt>
      <trkpt lat="51.866737000" lon="7.600708000">
        <ele>63.0</ele>
        <time>2017-04-29T06:58:04</time>
        <extensions><speed>1.35</speed></extensions>
      </trkpt>
      <trkpt lat="51.866730000" lon="7.600717000">
        <ele>63.1</ele>
        <time>2017-04-29T06:58:05</time>
        <extensions><speed>1.36</speed></extensions>
      </trkpt>
      <trkpt lat="51.866718000" lon="7.600723000">
        <ele>63.1</ele>
        <time>2017-04-29T06:58:06</time>
        <extensions><speed>1.34</speed></extensions>
      </trkpt>
      <trkpt lat="51.866707000" lon="7.600732000">
        <ele>63.2</ele>
        <time>2017-04-29T06:58:07</time>
        <extensions><speed>1.37</speed></extensions>
      </trkpt>
      <trkpt lat="51.866695000" lon="7.600742000">
        <ele>63.2</ele>
        <time>2017-04-29T06:58:08</time>
        <extensions><speed>1.37</speed></extensions>
      </trkpt>
      <trkpt lat="51.866684000" lon="7.600750000">
        <ele>63.2</ele>
        <time>2017-04-29T06:58:09</time>
        <extensions><speed>1.40</speed></extensions>
      </trkpt>
      <trkpt lat="51.866669000" lon="7.600760000">
        <ele>63.3</ele>
        <time>2017-04-29T06:58:10</time>
        <extensions><speed>1.37</speed></extensions>
      </trkpt>
      <trkpt lat="51.866661000" lon="7.600770000">
        <ele>63.3</ele>
        <time>2017-04-29T06:58:11</time>
        <extensions><speed>1.37</speed></extensions>
      </trkpt>
      <trkpt lat="51.866653000" lon="7.600777000">
        <ele>63.4</ele>
        <time>2017-04-29T06:58:12</time>
        <extensions><speed>1.36</speed></extensions>
      </trkpt>
      <trkpt lat="51.866642000" lon="7.600788000">
        <ele>63.4</ele>
        <time>2017-04-29T06:58:13</time>
        <extensions><speed>1.35</speed></extensions>
      </trkpt>
      <trkpt lat="51.866634000" lon="7.600800000">
        <ele>63.4</ele>
        <time>2017-04-29T06:58:14</time>
        <extensions><speed>1.29</speed></extensions>
      </trkpt>
      <trkpt lat="51.866627000" lon="7.600811000">
        <ele>63.5</ele>
        <time>2017-04-29T06:58:15</time>
        <extensions><speed>1.27</speed></extensions>
      </trkpt>
      <trkpt lat="51.866611000" lon="7.600820000">
        <ele>63.5</ele>
        <time>2017-04-29T06:58:16</time>
        <extensions><speed>1.29</speed></extensions>
      </trkpt>
      <trkpt lat="51.866604000" lon="7.600835000">
        <ele>63.6</ele>
        <time>2017-04-29T06:58:17</time>
        <extensions><speed>1.38</speed></extensions>
      </trkpt>
      <trkpt lat="51.866592000" lon="7.600848000">
        <ele>63.6</ele>
        <time>2017-04-29T06:58:18</time>
        <extensions><speed>1.32</speed></extensions>
      </trkpt>
      <trkpt lat="51.866581000" lon="7.600856000">
        <ele>63.7</ele>
        <time>2017-04-29T06:58:19</time>
        <extensions><speed>1.30</speed></extensions>
      </trkpt>
      <trkpt lat="51.866570000" lon="7.600868000">
        <ele>63.7</ele>
        <time>2017-04-29T06:58:20</time>
        <extensions><speed>1.38</speed></extensions>
      </trkpt>
      <trkpt lat="51.866562000" lon="7.600881000">
        <ele>63.7</ele>
        <time>2017-04-29T06:58:21</time>
        <extensions><speed>1.35</speed></extensions>
      </trkpt>
      <trkpt lat="51.866550000" lon="7.600892000">
        <ele>63.7</ele>
        <time>2017-04-29T06:58:22</time>
        <extensions><speed>1.32</speed></extensions>
      </trkpt>
      <trkpt lat="51.866539000" lon="7.600904000">
        <ele>63.8</ele>
        <time>2017-04-29T06:58:23</time>
        <extensions><speed>1.40</speed></extensions>
      </trkpt>
      <trkpt lat="51.866528000" lon="7.600915000">
        <ele>63.8</ele>
        <time>2017-04-29T06:58:24</time>
        <extensions><speed>1.42</speed></extensions>
      </trkpt>
      <trkpt lat="51.866524000" lon="7.600930000">
        <ele>63.9</ele>
        <time>2017-04-29T06:58:25</time>
        <extensions><speed>1.40</speed></extensions>
      </trkpt>
      <trkpt lat="51.866516000" lon="7.600945000">
        <ele>64.0</ele>
        <time>2017-04-29T06:58:26</time>
        <extensions><speed>1.38</speed></extensions>
      </trkpt>
      <trkpt lat="51.866508000" lon="7.600963000">
        <ele>64.0</ele>
        <time>2017-04-29T06:58:27</time>
        <extensions><speed>1.34</speed></extensions>
      </trkpt>
      <trkpt lat="51.866505000" lon="7.600980000">
        <ele>64.1</ele>
        <time>2017-04-29T06:58:28</time>
        <extensions><speed>1.31</speed></extensions>
      </trkpt>
      <trkpt lat="51.866505000" lon="7.600998000">
        <ele>64.1</ele>
        <time>2017-04-29T06:58:29</time>
        <extensions><speed>1.29</speed></extensions>
      </trkpt>
      <trkpt lat="51.866505000" lon="7.601017000">
        <ele>64.2</ele>
        <time>2017-04-29T06:58:30</time>
        <extensions><speed>1.29</speed></extensions>
      </trkpt>
      <trkpt lat="51.866505000" lon="7.601040000">
        <ele>64.2</ele>
        <time>2017-04-29T06:58:31</time>
        <extensions><speed>1.33</speed></extensions>
      </trkpt>
      <trkpt lat="51.866505000" lon="7.601061000">
        <ele>64.3</ele>
        <time>2017-04-29T06:58:32</time>
        <extensions><speed>1.36</speed></extensions>
      </trkpt>
      <trkpt lat="51.866505000" lon="7.601077000">
        <ele>64.4</ele>
        <time>2017-04-29T06:58:33</time>
        <extensions><speed>1.34</speed></extensions>
      </trkpt>
      <trkpt lat="51.866505000" lon="7.601093000">
        <ele>64.4</ele>
        <time>2017-04-29T06:58:34</time>
        <extensions><speed>1.35</speed></extensions>
      </trkpt>
      <trkpt lat="51.866508000" lon="7.601113000">
        <ele>64.5</ele>
        <time>2017-04-29T06:58:35</time>
        <extensions><speed>1.33</speed></extensions>
      </trkpt>
      <trkpt lat="51.866508000" lon="7.601135000">
        <ele>64.5</ele>
        <time>2017-04-29T06:58:36</time>
        <extensions><speed>1.29</speed></extensions>
      </trkpt>
      <trkpt lat="51.866512000" lon="7.601153000">
        <ele>64.6</ele>
        <time>2017-04-29T06:58:37</time>
        <extensions><speed>1.29</speed></extensions>
      </trkpt>
      <trkpt lat="51.866516000" lon="7.601177000">
        <ele>64.6</ele>
        <time>2017-04-29T06:58:38</time>
        <extensions><speed>1.36</speed></extensions>
      </trkpt>
      <trkpt lat="51.866516000" lon="7.601196000">
        <ele>64.7</ele>
        <time>2017-04-29T06:58:39</time>
        <extensions><speed>1.34</speed></extensions>
      </trkpt>
      <trkpt lat="51.866516000" lon="7.601217000">
        <ele>64.7</ele>
        <time>2017-04-29T06:58:40</time>
        <extensions><speed>1.32</speed></extensions>
      </trkpt>
      <trkpt lat="51.866520000" lon="7.601238000">
        <ele>64.8</ele>
        <time>2017-04-29T06:58:41</time>
        <extensions><speed>1.33</speed></extensions>
      </trkpt>
      <trkpt lat="51.866516000" lon="7.601259000">
        <ele>64.9</ele>
        <time>2017-04-29T06:58:42</time>
        <extensions><speed>1.31</speed></extensions>
      </trkpt>
      <trkpt lat="51.866512000" lon="7.601280000">
        <ele>64.9</ele>
        <time>2017-04-29T06:58:43</time>
        <extensions><speed>1.31</speed></extensions>
      </trkpt>
      <trkpt lat="51.866512000" lon="7.601300000">
        <ele>65.0</ele>
        <time>2017-04-29T06:58:44</time>
        <extensions><speed>1.31</speed></extensions>
      </trkpt>
      <trkpt lat="51.866512000" lon="7.601322000">
        <ele>65.0</ele>
        <time>2017-04-29T06:58:45</time>
        <extensions><speed>1.34</speed></extensions>
      </trkpt>
      <trkpt lat="51.866512000" lon="7.601340000">
        <ele>65.1</ele>
        <time>2017-04-29T06:58:46</time>
        <extensions><speed>1.36</speed></extensions>
      </trkpt>
      <trkpt lat="51.866512000" lon="7.601357000">
        <ele>65.1</ele>
        <time>2017-04-29T06:58:47</time>
        <extensions><speed>1.34</speed></extensions>
      </trkpt>
      <trkpt lat="51.866512000" lon="7.601378000">
        <ele>65.2</ele>
        <time>2017-04-29T06:58:48</time>
        <extensions><speed>1.34</speed></extensions>
      </trkpt>
      <trkpt lat="51.866512000" lon="7.601402000">
        <ele>65.3</ele>
        <time>2017-04-29T06:58:49</time>
        <extensions><speed>1.41</speed></extensions>
      </trkpt>
      <trkpt lat="51.866516000" lon="7.601423000">
        <ele>65.3</ele>
        <time>2017-04-29T06:58:50</time>
        <extensions><speed>1.45</speed></extensions>
      </trkpt>
      <trkpt lat="51.866516000" lon="7.601441000">
        <ele>65.4</ele>
        <time>2017-04-29T06:58:51</time>
        <extensions><speed>1.45</speed></extensions>
      </trkpt>
      <trkpt lat="51.866516000" lon="7.601462000">
        <ele>65.4</ele>
        <time>2017-04-29T06:58:52</time>
        <extensions><speed>1.48</speed></extensions>
      </trkpt>
      <trkpt lat="51.866516000" lon="7.601481000">
        <ele>65.5</ele>
        <time>2017-04-29T06:58:53</time>
        <extensions><speed>1.47</speed></extensions>
      </trkpt>
      <trkpt lat="51.866520000" lon="7.601504000">
        <ele>65.6</ele>
        <time>2017-04-29T06:58:54</time>
        <extensions><speed>1.42</speed></extensions>
      </trkpt>
      <trkpt lat="51.866524000" lon="7.601523000">
        <ele>65.6</ele>
        <time>2017-04-29T06:58:55</time>
        <extensions><speed>1.45</speed></extensions>
      </trkpt>
      <trkpt lat="51.866528000" lon="7.601542000">
        <ele>65.7</ele>
        <time>2017-04-29T06:58:56</time>
        <extensions><speed>1.49</speed></extensions>
      </trkpt>
      <trkpt lat="51.866535000" lon="7.601560000">
        <ele>65.7</ele>
        <time>2017-04-29T06:58:57</time>
        <extensions><speed>1.46</speed></extensions>
      </trkpt>
      <trkpt lat="51.866539000" lon="7.601578000">
        <ele>65.8</ele>
        <time>2017-04-29T06:58:58</time>
        <extensions><speed>1.41</speed></extensions>
      </trkpt>
      <trkpt lat="51.866539000" lon="7.601595000">
        <ele>65.9</ele>
        <time>2017-04-29T06:58:59</time>
        <extensions><speed>1.39</speed></extensions>
      </trkpt>
      <trkpt lat="51.866543000" lon="7.601614000">
        <ele>65.9</ele>
        <time>2017-04-29T06:59:00</time>
        <extensions><speed>1.37</speed></extensions>
      </trkpt>
      <trkpt lat="51.866547000" lon="7.601635000">
        <ele>66.0</ele>
        <time>2017-04-29T06:59:01</time>
        <extensions><speed>1.37</speed></extensions>
      </trkpt>
      <trkpt lat="51.866550000" lon="7.601656000">
        <ele>66.0</ele>
        <time>2017-04-29T06:59:02</time>
        <extensions><speed>1.41</speed></extensions>
      </trkpt>
      <trkpt lat="51.866554000" lon="7.601679000">
        <ele>66.1</ele>
        <time>2017-04-29T06:59:03</time>
        <extensions><speed>1.48</speed></extensions>
      </trkpt>
      <trkpt lat="51.866558000" lon="7.601700000">
        <ele>66.1</ele>
        <time>2017-04-29T06:59:04</time>
        <extensions><speed>1.48</speed></extensions>
      </trkpt>
      <trkpt lat="51.866566000" lon="7.601718000">
        <ele>66.2</ele>
        <time>2017-04-29T06:59:05</time>
        <extensions><speed>1.49</speed></extensions>
      </trkpt>
      <trkpt lat="51.866570000" lon="7.601738000">
        <ele>66.2</ele>
        <time>2017-04-29T06:59:06</time>
        <extensions><speed>1.51</speed></extensions>
      </trkpt>
      <trkpt lat="51.866573000" lon="7.601755000">
        <ele>66.3</ele>
        <time>2017-04-29T06:59:07</time>
        <extensions><speed>1.46</speed></extensions>
      </trkpt>
      <trkpt lat="51.866577000" lon="7.601772000">
        <ele>66.3</ele>
        <time>2017-04-29T06:59:08</time>
        <extensions><speed>1.41</speed></extensions>
      </trkpt>
      <trkpt lat="51.866577000" lon="7.601786000">
        <ele>66.4</ele>
        <time>2017-04-29T06:59:09</time>
        <extensions><speed>1.34</speed></extensions>
      </trkpt>
      <trkpt lat="51.866577000" lon="7.601803000">
        <ele>66.4</ele>
        <time>2017-04-29T06:59:10</time>
        <extensions><speed>1.33</speed></extensions>
      </trkpt>
      <trkpt lat="51.866577000" lon="7.601819000">
        <ele>66.5</ele>
        <time>2017-04-29T06:59:11</time>
        <extensions><speed>1.20</speed></extensions>
      </trkpt>
      <trkpt lat="51.866577000" lon="7.601835000">
        <ele>66.5</ele>
        <time>2017-04-29T06:59:12</time>
        <extensions><speed>1.21</speed></extensions>
      </trkpt>
      <trkpt lat="51.866577000" lon="7.601849000">
        <ele>66.6</ele>
        <time>2017-04-29T06:59:13</time>
        <extensions><speed>1.09</speed></extensions>
      </trkpt>
      <trkpt lat="51.866581000" lon="7.601867000">
        <ele>66.6</ele>
        <time>2017-04-29T06:59:14</time>
        <extensions><speed>1.21</speed></extensions>
      </trkpt>
      <trkpt lat="51.866581000" lon="7.601889000">
        <ele>66.7</ele>
        <time>2017-04-29T06:59:15</time>
        <extensions><speed>1.21</speed></extensions>
      </trkpt>
      <trkpt lat="51.866581000" lon="7.601903000">
        <ele>66.7</ele>
        <time>2017-04-29T06:59:16</time>
        <extensions><speed>1.22</speed></extensions>
      </trkpt>
      <trkpt lat="51.866581000" lon="7.601917000">
        <ele>66.7</ele>
        <time>2017-04-29T06:59:17</time>
        <extensions><speed>1.26</speed></extensions>
      </trkpt>
      <trkpt lat="51.866589000" lon="7.601933000">
        <ele>66.8</ele>
        <time>2017-04-29T06:59:18</time>
        <extensions><speed>1.39</speed></extensions>
      </trkpt>
      <trkpt lat="51.866592000" lon="7.601952000">
        <ele>66.8</ele>
        <time>2017-04-29T06:59:19</time>
        <extensions><speed>1.43</speed></extensions>
      </trkpt>
      <trkpt lat="51.866596000" lon="7.601972000">
        <ele>66.8</ele>
        <time>2017-04-29T06:59:20</time>
        <extensions><speed>1.42</speed></extensions>
      </trkpt>
      <trkpt lat="51.866600000" lon="7.601992000">
        <ele>66.9</ele>
        <time>2017-04-29T06:59:21</time>
        <extensions><speed>1.47</speed></extensions>
      </trkpt>
      <trkpt lat="51.866604000" lon="7.602010000">
        <ele>66.9</ele>
        <time>2017-04-29T06:59:22</time>
        <extensions><speed>1.47</speed></extensions>
      </trkpt>
      <trkpt lat="51.866604000" lon="7.602030000">
        <ele>67.0</ele>
        <time>2017-04-29T06:59:23</time>
        <extensions><speed>1.41</speed></extensions>
      </trkpt>
      <trkpt lat="51.866611000" lon="7.602050000">
        <ele>67.1</ele>
        <time>2017-04-29T06:59:24</time>
        <extensions><speed>1.41</speed></extensions>
      </trkpt>
      <trkpt lat="51.866615000" lon="7.602070000">
        <ele>67.1</ele>
        <time>2017-04-29T06:59:25</time>
        <extensions><speed>1.47</speed></extensions>
      </trkpt>
      <trkpt lat="51.866623000" lon="7.602087000">
        <ele>67.2</ele>
        <time>2017-04-29T06:59:26</time>
        <extensions><speed>1.42</speed></extensions>
      </trkpt>
      <trkpt lat="51.866627000" lon="7.602105000">
        <ele>67.2</ele>
        <time>2017-04-29T06:59:27</time>
        <extensions><speed>1.40</speed></extensions>
      </trkpt>
      <trkpt lat="51.866634000" lon="7.602127000">
        <ele>67.3</ele>
        <time>2017-04-29T06:59:28</time>
        <extensions><speed>1.45</speed></extensions>
      </trkpt>
      <trkpt lat="51.866638000" lon="7.602148000">
        <ele>67.3</ele>
        <time>2017-04-29T06:59:29</time>
        <extensions><speed>1.44</speed></extensions>
      </trkpt>
      <trkpt lat="51.866642000" lon="7.602167000">
        <ele>67.4</ele>
        <time>2017-04-29T06:59:30</time>
        <extensions><speed>1.26</speed></extensions>
      </trkpt>
      <trkpt lat="51.866642000" lon="7.602183000">
        <ele>67.4</ele>
        <time>2017-04-29T06:59:31</time>
        <extensions><speed>1.35</speed></extensions>
      </trkpt>
      <trkpt lat="51.866646000" lon="7.602204000">
        <ele>67.5</ele>
        <time>2017-04-29T06:59:32</time>
        <extensions><speed>1.40</speed></extensions>
      </trkpt>
      <trkpt lat="51.866653000" lon="7.602223000">
        <ele>67.5</ele>
        <time>2017-04-29T06:59:33</time>
        <extensions><speed>1.37</speed></extensions>
      </trkpt>
      <trkpt lat="51.866661000" lon="7.602243000">
        <ele>67.6</ele>
        <time>2017-04-29T06:59:34</time>
        <extensions><speed>1.35</speed></extensions>
      </trkpt>
      <trkpt lat="51.866669000" lon="7.602265000">
        <ele>67.6</ele>
        <time>2017-04-29T06:59:35</time>
        <extensions><speed>1.39</speed></extensions>
      </trkpt>
      <trkpt lat="51.866669000" lon="7.602286000">
        <ele>67.7</ele>
        <time>2017-04-29T06:59:36</time>
        <extensions><speed>1.39</speed></extensions>
      </trkpt>
      <trkpt lat="51.866669000" lon="7.602310000">
        <ele>67.7</ele>
        <time>2017-04-29T06:59:37</time>
        <extensions><speed>1.39</speed></extensions>
      </trkpt>
      <trkpt lat="51.866669000" lon="7.602334000">
        <ele>67.8</ele>
        <time>2017-04-29T06:59:38</time>
        <extensions><speed>1.33</speed></extensions>
      </trkpt>
      <trkpt lat="51.866676000" lon="7.602352000">
        <ele>67.8</ele>
        <time>2017-04-29T06:59:39</time>
        <extensions><speed>1.30</speed></extensions>
      </trkpt>
      <trkpt lat="51.866680000" lon="7.602370000">
        <ele>67.9</ele>
        <time>2017-04-29T06:59:40</time>
        <extensions><speed>1.25</speed></extensions>
      </trkpt>
      <trkpt lat="51.866684000" lon="7.602390000">
        <ele>67.9</ele>
        <time>2017-04-29T06:59:41</time>
        <extensions><speed>1.33</speed></extensions>
      </trkpt>
      <trkpt lat="51.866688000" lon="7.602412000">
        <ele>68.0</ele>
        <time>2017-04-29T06:59:42</time>
        <extensions><speed>1.33</speed></extensions>
      </trkpt>
      <trkpt lat="51.866695000" lon="7.602433000">
        <ele>68.0</ele>
        <time>2017-04-29T06:59:43</time>
        <extensions><speed>1.36</speed></extensions>
      </trkpt>
      <trkpt lat="51.866699000" lon="7.602457000">
        <ele>68.1</ele>
        <time>2017-04-29T06:59:44</time>
        <extensions><speed>1.45</speed></extensions>
      </trkpt>
      <trkpt lat="51.866703000" lon="7.602483000">
        <ele>68.2</ele>
        <time>2017-04-29T06:59:45</time>
        <extensions><speed>1.57</speed></extensions>
      </trkpt>
      <trkpt lat="51.866703000" lon="7.602509000">
        <ele>68.2</ele>
        <time>2017-04-29T06:59:46</time>
        <extensions><speed>1.59</speed></extensions>
      </trkpt>
      <trkpt lat="51.866707000" lon="7.602528000">
        <ele>68.3</ele>
        <time>2017-04-29T06:59:47</time>
        <extensions><speed>1.53</speed></extensions>
      </trkpt>
      <trkpt lat="51.866711000" lon="7.602549000">
        <ele>68.3</ele>
        <time>2017-04-29T06:59:48</time>
        <extensions><speed>1.57</speed></extensions>
      </trkpt>
      <trkpt lat="51.866711000" lon="7.602568000">
        <ele>68.4</ele>
        <time>2017-04-29T06:59:49</time>
        <extensions><speed>1.44</speed></extensions>
      </trkpt>
      <trkpt lat="51.866718000" lon="7.602587000">
        <ele>68.4</ele>
        <time>2017-04-29T06:59:50</time>
        <extensions><speed>1.38</speed></extensions>
      </trkpt>
      <trkpt lat="51.866722000" lon="7.602607000">
        <ele>68.5</ele>
        <time>2017-04-29T06:59:51</time>
        <extensions><speed>1.37</speed></extensions>
      </trkpt>
      <trkpt lat="51.866726000" lon="7.602624000">
        <ele>68.6</ele>
        <time>2017-04-29T06:59:52</time>
        <extensions><speed>1.37</speed></extensions>
      </trkpt>
      <trkpt lat="51.866734000" lon="7.602643000">
        <ele>68.6</ele>
        <time>2017-04-29T06:59:53</time>
        <extensions><speed>1.26</speed></extensions>
      </trkpt>
      <trkpt lat="51.866734000" lon="7.602666000">
        <ele>68.7</ele>
        <time>2017-04-29T06:59:54</time>
        <extensions><speed>1.30</speed></extensions>
      </trkpt>
      <trkpt lat="51.866734000" lon="7.602690000">
        <ele>68.7</ele>
        <time>2017-04-29T06:59:55</time>
        <extensions><speed>1.32</speed></extensions>
      </trkpt>
      <trkpt lat="51.866737000" lon="7.602712000">
        <ele>68.8</ele>
        <time>2017-04-29T06:59:56</time>
        <extensions><speed>1.36</speed></extensions>
      </trkpt>
      <trkpt lat="51.866745000" lon="7.602733000">
        <ele>68.8</ele>
        <time>2017-04-29T06:59:57</time>
        <extensions><speed>1.42</speed></extensions>
      </trkpt>
      <trkpt lat="51.866749000" lon="7.602750000">
        <ele>68.9</ele>
        <time>2017-04-29T06:59:58</time>
        <extensions><speed>1.42</speed></extensions>
      </trkpt>
      <trkpt lat="51.866756000" lon="7.602763000">
        <ele>68.9</ele>
        <time>2017-04-29T06:59:59</time>
        <extensions><speed>1.27</speed></extensions>
      </trkpt>
      <trkpt lat="51.866756000" lon="7.602773000">
        <ele>69.0</ele>
        <time>2017-04-29T07:00:00</time>
        <extensions><speed>1.17</speed></extensions>
      </trkpt>
      <trkpt lat="51.866764000" lon="7.602785000">
        <ele>69.1</ele>
        <time>2017-04-29T07:00:01</time>
        <extensions><speed>1.09</speed></extensions>
      </trkpt>
      <trkpt lat="51.866768000" lon="7.602796000">
        <ele>69.1</ele>
        <time>2017-04-29T07:00:02</time>
        <extensions><speed>1.05</speed></extensions>
      </trkpt>
      <trkpt lat="51.866772000" lon="7.602803000">
        <ele>69.2</ele>
        <time>2017-04-29T07:00:03</time>
        <extensions><speed>0.95</speed></extensions>
      </trkpt>
      <trkpt lat="51.866772000" lon="7.602808000">
        <ele>69.2</ele>
        <time>2017-04-29T07:00:04</time>
        <extensions><speed>0.77</speed></extensions>
      </trkpt>
      <trkpt lat="51.866772000" lon="7.602813000">
        <ele>69.2</ele>
        <time>2017-04-29T07:00:05</time>
        <extensions><speed>0.62</speed></extensions>
      </trkpt>
      <trkpt lat="51.866776000" lon="7.602825000">
        <ele>69.3</ele>
        <time>2017-04-29T07:00:06</time>
        <extensions><speed>0.62</speed></extensions>
      </trkpt>
      <trkpt lat="51.866779000" lon="7.602837000">
        <ele>69.3</ele>
        <time>2017-04-29T07:00:07</time>
        <extensions><speed>0.56</speed></extensions>
      </trkpt>
      <trkpt lat="51.866783000" lon="7.602847000">
        <ele>69.3</ele>
        <time>2017-04-29T07:00:08</time>
        <extensions><speed>0.57</speed></extensions>
      </trkpt>
      <trkpt lat="51.866787000" lon="7.602859000">
        <ele>69.3</ele>
        <time>2017-04-29T07:00:09</time>
        <extensions><speed>0.71</speed></extensions>
      </trkpt>
      <trkpt lat="51.866791000" lon="7.602871000">
        <ele>69.3</ele>
        <time>2017-04-29T07:00:10</time>
        <extensions><speed>0.84</speed></extensions>
      </trkpt>
      <trkpt lat="51.866798000" lon="7.602885000">
        <ele>69.4</ele>
        <time>2017-04-29T07:00:11</time>
        <extensions><speed>0.93</speed></extensions>
      </trkpt>
      <trkpt lat="51.866810000" lon="7.602895000">
        <ele>69.4</ele>
        <time>2017-04-29T07:00:12</time>
        <extensions><speed>1.11</speed></extensions>
      </trkpt>
      <trkpt lat="51.866817000" lon="7.602908000">
        <ele>69.4</ele>
        <time>2017-04-29T07:00:13</time>
        <extensions><speed>1.20</speed></extensions>
      </trkpt>
      <trkpt lat="51.866821000" lon="7.602920000">
        <ele>69.4</ele>
        <time>2017-04-29T07:00:14</time>
        <extensions><speed>1.20</speed></extensions>
      </trkpt>
      <trkpt lat="51.866833000" lon="7.602934000">
        <ele>69.5</ele>
        <time>2017-04-29T07:00:15</time>
        <extensions><speed>1.16</speed></extensions>
      </trkpt>
      <trkpt lat="51.866837000" lon="7.602950000">
        <ele>69.5</ele>
        <time>2017-04-29T07:00:16</time>
        <extensions><speed>1.15</speed></extensions>
      </trkpt>
      <trkpt lat="51.866844000" lon="7.602967000">
        <ele>69.5</ele>
        <time>2017-04-29T07:00:17</time>
        <extensions><speed>1.18</speed></extensions>
      </trkpt>
      <trkpt lat="51.866856000" lon="7.602980000">
        <ele>69.5</ele>
        <time>2017-04-29T07:00:18</time>
        <extensions><speed>1.21</speed></extensions>
      </trkpt>
      <trkpt lat="51.866863000" lon="7.602988000">
        <ele>69.6</ele>
        <time>2017-04-29T07:00:19</time>
        <extensions><speed>1.23</speed></extensions>
      </trkpt>
      <trkpt lat="51.866863000" lon="7.602992000">
        <ele>69.6</ele>
        <time>2017-04-29T07:00:20</time>
        <extensions><speed>1.23</speed></extensions>
      </trkpt>
      <trkpt lat="51.866871000" lon="7.603004000">
        <ele>69.6</ele>
        <time>2017-04-29T07:00:21</time>
        <extensions><speed>1.20</speed></extensions>
      </trkpt>
      <trkpt lat="51.866882000" lon="7.603013000">
        <ele>69.6</ele>
        <time>2017-04-29T07:00:22</time>
        <extensions><speed>1.20</speed></extensions>
      </trkpt>
      <trkpt lat="51.866898000" lon="7.603027000">
        <ele>69.7</ele>
        <time>2017-04-29T07:00:23</time>
        <extensions><speed>1.23</speed></extensions>
      </trkpt>
      <trkpt lat="51.866905000" lon="7.603045000">
        <ele>69.7</ele>
        <time>2017-04-29T07:00:24</time>
        <extensions><speed>1.29</speed></extensions>
      </trkpt>
      <trkpt lat="51.866917000" lon="7.603069000">
        <ele>69.7</ele>
        <time>2017-04-29T07:00:25</time>
        <extensions><speed>1.40</speed></extensions>
      </trkpt>
      <trkpt lat="51.866932000" lon="7.603083000">
        <ele>69.7</ele>
        <time>2017-04-29T07:00:26</time>
        <extensions><speed>1.43</speed></extensions>
      </trkpt>
      <trkpt lat="51.866940000" lon="7.603092000">
        <ele>69.7</ele>
        <time>2017-04-29T07:00:27</time>
        <extensions><speed>1.43</speed></extensions>
      </trkpt>
      <trkpt lat="51.866951000" lon="7.603102000">
        <ele>69.8</ele>
        <time>2017-04-29T07:00:28</time>
        <extensions><speed>1.46</speed></extensions>
      </trkpt>
      <trkpt lat="51.866962000" lon="7.603117000">
        <ele>69.8</ele>
        <time>2017-04-29T07:00:29</time>
        <extensions><speed>1.50</speed></extensions>
      </trkpt>
      <trkpt lat="51.866978000" lon="7.603125000">
        <ele>69.8</ele>
        <time>2017-04-29T07:00:30</time>
        <extensions><speed>1.50</speed></extensions>
      </trkpt>
      <trkpt lat="51.866993000" lon="7.603138000">
        <ele>69.9</ele>
        <time>2017-04-29T07:00:31</time>
        <extensions><speed>1.52</speed></extensions>
      </trkpt>
      <trkpt lat="51.866997000" lon="7.603157000">
        <ele>69.9</ele>
        <time>2017-04-29T07:00:32</time>
        <extensions><speed>1.53</speed></extensions>
      </trkpt>
      <trkpt lat="51.867008000" lon="7.603170000">
        <ele>69.9</ele>
        <time>2017-04-29T07:00:33</time>
        <extensions><speed>1.52</speed></extensions>
      </trkpt>
      <trkpt lat="51.867020000" lon="7.603183000">
        <ele>69.9</ele>
        <time>2017-04-29T07:00:34</time>
        <extensions><speed>1.47</speed></extensions>
      </trkpt>
      <trkpt lat="51.867027000" lon="7.603193000">
        <ele>69.9</ele>
        <time>2017-04-29T07:00:35</time>
        <extensions><speed>1.32</speed></extensions>
      </trkpt>
      <trkpt lat="51.867035000" lon="7.603203000">
        <ele>70.0</ele>
        <time>2017-04-29T07:00:36</time>
        <extensions><speed>1.20</speed></extensions>
      </trkpt>
      <trkpt lat="51.867043000" lon="7.603210000">
        <ele>70.0</ele>
        <time>2017-04-29T07:00:37</time>
        <extensions><speed>1.09</speed></extensions>
      </trkpt>
      <trkpt lat="51.867050000" lon="7.603216000">
        <ele>70.0</ele>
        <time>2017-04-29T07:00:38</time>
        <extensions><speed>1.08</speed></extensions>
      </trkpt>
      <trkpt lat="51.867062000" lon="7.603223000">
        <ele>70.0</ele>
        <time>2017-04-29T07:00:39</time>
        <extensions><speed>1.14</speed></extensions>
      </trkpt>
      <trkpt lat="51.867073000" lon="7.603233000">
        <ele>70.1</ele>
        <time>2017-04-29T07:00:40</time>
        <extensions><speed>1.21</speed></extensions>
      </trkpt>
      <trkpt lat="51.867085000" lon="7.603247000">
        <ele>70.1</ele>
        <time>2017-04-29T07:00:41</time>
        <extensions><speed>1.27</speed></extensions>
      </trkpt>
      <trkpt lat="51.867092000" lon="7.603255000">
        <ele>70.1</ele>
        <time>2017-04-29T07:00:42</time>
        <extensions><speed>1.27</speed></extensions>
      </trkpt>
      <trkpt lat="51.867107000" lon="7.603265000">
        <ele>70.1</ele>
        <time>2017-04-29T07:00:43</time>
        <extensions><speed>1.37</speed></extensions>
      </trkpt>
      <trkpt lat="51.867119000" lon="7.603275000">
        <ele>70.1</ele>
        <time>2017-04-29T07:00:44</time>
        <extensions><speed>1.19</speed></extensions>
      </trkpt>
      <trkpt lat="51.867126000" lon="7.603285000">
        <ele>70.1</ele>
        <time>2017-04-29T07:00:45</time>
        <extensions><speed>1.25</speed></extensions>
      </trkpt>
      <trkpt lat="51.867134000" lon="7.603300000">
        <ele>70.1</ele>
        <time>2017-04-29T07:00:46</time>
        <extensions><speed>1.24</speed></extensions>
      </trkpt>
      <trkpt lat="51.867146000" lon="7.603318000">
        <ele>70.1</ele>
        <time>2017-04-29T07:00:47</time>
        <extensions><speed>1.43</speed></extensions>
      </trkpt>
      <trkpt lat="51.867157000" lon="7.603338000">
        <ele>70.1</ele>
        <time>2017-04-29T07:00:48</time>
        <extensions><speed>1.44</speed></extensions>
      </trkpt>
      <trkpt lat="51.867172000" lon="7.603360000">
        <ele>70.1</ele>
        <time>2017-04-29T07:00:49</time>
        <extensions><speed>1.47</speed></extensions>
      </trkpt>
      <trkpt lat="51.867184000" lon="7.603374000">
        <ele>70.1</ele>
        <time>2017-04-29T07:00:50</time>
        <extensions><speed>1.49</speed></extensions>
      </trkpt>
      <trkpt lat="51.867199000" lon="7.603385000">
        <ele>70.1</ele>
        <time>2017-04-29T07:00:51</time>
        <extensions><speed>1.55</speed></extensions>
      </trkpt>
      <trkpt lat="51.867210000" lon="7.603391000">
        <ele>70.1</ele>
        <time>2017-04-29T07:00:52</time>
        <extensions><speed>1.53</speed></extensions>
      </trkpt>
      <trkpt lat="51.867218000" lon="7.603403000">
        <ele>70.1</ele>
        <time>2017-04-29T07:00:53</time>
        <extensions><speed>1.51</speed></extensions>
      </trkpt>
      <trkpt lat="51.867222000" lon="7.603417000">
        <ele>70.1</ele>
        <time>2017-04-29T07:00:54</time>
        <extensions><speed>1.35</speed></extensions>
      </trkpt>
      <trkpt lat="51.867226000" lon="7.603425000">
        <ele>70.1</ele>
        <time>2017-04-29T07:00:55</time>
        <extensions><speed>1.22</speed></extensions>
      </trkpt>
      <trkpt lat="51.867233000" lon="7.603433000">
        <ele>70.1</ele>
        <time>2017-04-29T07:00:56</time>
        <extensions><speed>1.09</speed></extensions>
      </trkpt>
      <trkpt lat="51.867241000" lon="7.603445000">
        <ele>70.1</ele>
        <time>2017-04-29T07:00:57</time>
        <extensions><speed>1.09</speed></extensions>
      </trkpt>
      <trkpt lat="51.867249000" lon="7.603461000">
        <ele>70.1</ele>
        <time>2017-04-29T07:00:58</time>
        <extensions><speed>1.24</speed></extensions>
      </trkpt>
      <trkpt lat="51.867256000" lon="7.603477000">
        <ele>70.1</ele>
        <time>2017-04-29T07:00:59</time>
        <extensions><speed>1.31</speed></extensions>
      </trkpt>
      <trkpt lat="51.867271000" lon="7.603492000">
        <ele>70.1</ele>
        <time>2017-04-29T07:01:00</time>
        <extensions><speed>1.45</speed></extensions>
      </trkpt>
      <trkpt lat="51.867287000" lon="7.603507000">
        <ele>70.1</ele>
        <time>2017-04-29T07:01:01</time>
        <extensions><speed>1.51</speed></extensions>
      </trkpt>
      <trkpt lat="51.867294000" lon="7.603515000">
        <ele>70.1</ele>
        <time>2017-04-29T07:01:02</time>
        <extensions><speed>1.50</speed></extensions>
      </trkpt>
      <trkpt lat="51.867298000" lon="7.603524000">
        <ele>70.1</ele>
        <time>2017-04-29T07:01:03</time>
        <extensions><speed>1.19</speed></extensions>
      </trkpt>
      <trkpt lat="51.867306000" lon="7.603537000">
        <ele>70.1</ele>
        <time>2017-04-29T07:01:04</time>
        <extensions><speed>1.04</speed></extensions>
      </trkpt>
      <trkpt lat="51.867302000" lon="7.603541000">
        <ele>70.1</ele>
        <time>2017-04-29T07:01:05</time>
        <extensions><speed>0.69</speed></extensions>
      </trkpt>
      <trkpt lat="51.867302000" lon="7.603550000">
        <ele>70.1</ele>
        <time>2017-04-29T07:01:06</time>
        <extensions><speed>0.69</speed></extensions>
      </trkpt>
      <trkpt lat="51.867310000" lon="7.603561000">
        <ele>70.1</ele>
        <time>2017-04-29T07:01:07</time>
        <extensions><speed>0.84</speed></extensions>
      </trkpt>
      <trkpt lat="51.867321000" lon="7.603571000">
        <ele>70.1</ele>
        <time>2017-04-29T07:01:08</time>
        <extensions><speed>1.02</speed></extensions>
      </trkpt>
      <trkpt lat="51.867336000" lon="7.603582000">
        <ele>70.1</ele>
        <time>2017-04-29T07:01:09</time>
        <extensions><speed>1.13</speed></extensions>
      </trkpt>
      <trkpt lat="51.867352000" lon="7.603590000">
        <ele>70.1</ele>
        <time>2017-04-29T07:01:10</time>
        <extensions><speed>1.18</speed></extensions>
      </trkpt>
      <trkpt lat="51.867363000" lon="7.603601000">
        <ele>70.1</ele>
        <time>2017-04-29T07:01:11</time>
        <extensions><speed>1.23</speed></extensions>
      </trkpt>
      <trkpt lat="51.867382000" lon="7.603611000">
        <ele>70.1</ele>
        <time>2017-04-29T07:01:12</time>
        <extensions><speed>1.27</speed></extensions>
      </trkpt>
      <trkpt lat="51.867393000" lon="7.603625000">
        <ele>70.1</ele>
        <time>2017-04-29T07:01:13</time>
        <extensions><speed>1.25</speed></extensions>
      </trkpt>
      <trkpt lat="51.867405000" lon="7.603640000">
        <ele>70.1</ele>
        <time>2017-04-29T07:01:14</time>
        <extensions><speed>1.21</speed></extensions>
      </trkpt>
      <trkpt lat="51.867409000" lon="7.603647000">
        <ele>70.1</ele>
        <time>2017-04-29T07:01:15</time>
      </trkpt>
      <trkpt lat="51.867420000" lon="7.603662000">
        <ele>70.1</ele>
        <time>2017-04-29T07:01:17</time>
        <extensions><speed>0.91</speed></extensions>
      </trkpt>
      <trkpt lat="51.867428000" lon="7.603678000">
        <ele>70.1</ele>
        <time>2017-04-29T07:01:18</time>
        <extensions><speed>0.95</speed></extensions>
      </trkpt>
      <trkpt lat="51.867439000" lon="7.603693000">
        <ele>70.1</ele>
        <time>2017-04-29T07:01:19</time>
        <extensions><speed>1.11</speed></extensions>
      </trkpt>
      <trkpt lat="51.867451000" lon="7.603704000">
        <ele>70.1</ele>
        <time>2017-04-29T07:01:20</time>
        <extensions><speed>1.39</speed></extensions>
      </trkpt>
      <trkpt lat="51.867466000" lon="7.603717000">
        <ele>70.1</ele>
        <time>2017-04-29T07:01:21</time>
        <extensions><speed>1.39</speed></extensions>
      </trkpt>
      <trkpt lat="51.867474000" lon="7.603732000">
        <ele>70.1</ele>
        <time>2017-04-29T07:01:22</time>
        <extensions><speed>1.18</speed></extensions>
      </trkpt>
      <trkpt lat="51.867485000" lon="7.603743000">
        <ele>70.1</ele>
        <time>2017-04-29T07:01:23</time>
        <extensions><speed>1.05</speed></extensions>
      </trkpt>
      <trkpt lat="51.867493000" lon="7.603752000">
        <ele>70.1</ele>
        <time>2017-04-29T07:01:24</time>
        <extensions><speed>0.93</speed></extensions>
      </trkpt>
      <trkpt lat="51.867504000" lon="7.603764000">
        <ele>70.1</ele>
        <time>2017-04-29T07:01:25</time>
        <extensions><speed>0.93</speed></extensions>
      </trkpt>
      <trkpt lat="51.867516000" lon="7.603778000">
        <ele>70.1</ele>
        <time>2017-04-29T07:01:26</time>
        <extensions><speed>1.11</speed></extensions>
      </trkpt>
      <trkpt lat="51.867527000" lon="7.603790000">
        <ele>70.1</ele>
        <time>2017-04-29T07:01:27</time>
        <extensions><speed>1.11</speed></extensions>
      </trkpt>
      <trkpt lat="51.867535000" lon="7.603798000">
        <ele>70.1</ele>
        <time>2017-04-29T07:01:28</time>
        <extensions><speed>1.16</speed></extensions>
      </trkpt>
      <trkpt lat="51.867542000" lon="7.603800000">
        <ele>70.1</ele>
        <time>2017-04-29T07:01:29</time>
        <extensions><speed>1.14</speed></extensions>
      </trkpt>
      <trkpt lat="51.867550000" lon="7.603800000">
        <ele>70.1</ele>
        <time>2017-04-29T07:01:30</time>
        <extensions><speed>0.92</speed></extensions>
      </trkpt>
      <trkpt lat="51.867554000" lon="7.603802000">
        <ele>70.1</ele>
        <time>2017-04-29T07:01:31</time>
        <extensions><speed>0.80</speed></extensions>
      </trkpt>
      <trkpt lat="51.867561000" lon="7.603798000">
        <ele>70.1</ele>
        <time>2017-04-29T07:01:32</time>
        <extensions><speed>0.89</speed></extensions>
      </trkpt>
      <trkpt lat="51.867569000" lon="7.603790000">
        <ele>70.1</ele>
        <time>2017-04-29T07:01:33</time>
        <extensions><speed>0.89</speed></extensions>
      </trkpt>
      <trkpt lat="51.867577000" lon="7.603783000">
        <ele>70.1</ele>
        <time>2017-04-29T07:01:34</time>
        <extensions><speed>0.83</speed></extensions>
      </trkpt>
      <trkpt lat="51.867580000" lon="7.603775000">
        <ele>70.1</ele>
        <time>2017-04-29T07:01:35</time>
        <extensions><speed>0.89</speed></extensions>
      </trkpt>
      <trkpt lat="51.867580000" lon="7.603762000">
        <ele>70.1</ele>
        <time>2017-04-29T07:01:36</time>
        <extensions><speed>0.95</speed></extensions>
      </trkpt>
      <trkpt lat="51.867588000" lon="7.603750000">
        <ele>70.1</ele>
        <time>2017-04-29T07:01:37</time>
        <extensions><speed>0.98</speed></extensions>
      </trkpt>
      <trkpt lat="51.867592000" lon="7.603752000">
        <ele>70.0</ele>
        <time>2017-04-29T07:01:39</time>
      </trkpt>
      <trkpt lat="51.867603000" lon="7.603754000">
        <ele>70.0</ele>
        <time>2017-04-29T07:01:41</time>
        <extensions><speed>0.52</speed></extensions>
      </trkpt>
      <trkpt lat="51.867615000" lon="7.603758000">
        <ele>70.0</ele>
        <time>2017-04-29T07:01:42</time>
        <extensions><speed>0.60</speed></extensions>
      </trkpt>
      <trkpt lat="51.867626000" lon="7.603764000">
        <ele>70.0</ele>
        <time>2017-04-29T07:01:43</time>
        <extensions><speed>1.05</speed></extensions>
      </trkpt>
      <trkpt lat="51.867641000" lon="7.603770000">
        <ele>70.0</ele>
        <time>2017-04-29T07:01:44</time>
        <extensions><speed>1.35</speed></extensions>
      </trkpt>
      <trkpt lat="51.867649000" lon="7.603771000">
        <ele>69.9</ele>
        <time>2017-04-29T07:01:45</time>
        <extensions><speed>1.35</speed></extensions>
      </trkpt>
      <trkpt lat="51.867653000" lon="7.603764000">
        <ele>69.9</ele>
        <time>2017-04-29T07:01:46</time>
        <extensions><speed>1.27</speed></extensions>
      </trkpt>
      <trkpt lat="51.867664000" lon="7.603762000">
        <ele>69.9</ele>
        <time>2017-04-29T07:01:47</time>
        <extensions><speed>1.18</speed></extensions>
      </trkpt>
      <trkpt lat="51.867680000" lon="7.603767000">
        <ele>69.9</ele>
        <time>2017-04-29T07:01:48</time>
        <extensions><speed>1.14</speed></extensions>
      </trkpt>
      <trkpt lat="51.867691000" lon="7.603773000">
        <ele>69.9</ele>
        <time>2017-04-29T07:01:49</time>
        <extensions><speed>1.03</speed></extensions>
      </trkpt>
      <trkpt lat="51.867695000" lon="7.603775000">
        <ele>69.9</ele>
        <time>2017-04-29T07:01:50</time>
      </trkpt>
      <trkpt lat="51.867714000" lon="7.603785000">
        <ele>69.9</ele>
        <time>2017-04-29T07:01:52</time>
        <extensions><speed>1.08</speed></extensions>
      </trkpt>
      <trkpt lat="51.867722000" lon="7.603792000">
        <ele>69.9</ele>
        <time>2017-04-29T07:01:53</time>
        <extensions><speed>0.98</speed></extensions>
      </trkpt>
      <trkpt lat="51.867725000" lon="7.603790000">
        <ele>69.8</ele>
        <time>2017-04-29T07:01:54</time>
        <extensions><speed>0.80</speed></extensions>
      </trkpt>
      <trkpt lat="51.867737000" lon="7.603792000">
        <ele>69.8</ele>
        <time>2017-04-29T07:01:55</time>
        <extensions><speed>0.88</speed></extensions>
      </trkpt>
      <trkpt lat="51.867744000" lon="7.603795000">
        <ele>69.8</ele>
        <time>2017-04-29T07:01:56</time>
        <extensions><speed>0.77</speed></extensions>
      </trkpt>
      <trkpt lat="51.867748000" lon="7.603800000">
        <ele>69.8</ele>
        <time>2017-04-29T07:01:57</time>
        <extensions><speed>0.69</speed></extensions>
      </trkpt>
      <trkpt lat="51.867756000" lon="7.603813000">
        <ele>69.8</ele>
        <time>2017-04-29T07:01:58</time>
        <extensions><speed>0.69</speed></extensions>
      </trkpt>
      <trkpt lat="51.867874000" lon="7.603815000">
        <ele>69.8</ele>
        <time>2017-04-29T07:02:41</time>
      </trkpt>
      <trkpt lat="51.867889000" lon="7.603813000">
        <ele>69.7</ele>
        <time>2017-04-29T07:02:43</time>
        <extensions><speed>0.97</speed></extensions>
      </trkpt>
      <trkpt lat="51.867905000" lon="7.603810000">
        <ele>69.7</ele>
        <time>2017-04-29T07:02:44</time>
        <extensions><speed>1.11</speed></extensions>
      </trkpt>
      <trkpt lat="51.867920000" lon="7.603810000">
        <ele>69.7</ele>
        <time>2017-04-29T07:02:45</time>
        <extensions><speed>1.24</speed></extensions>
      </trkpt>
      <trkpt lat="51.867935000" lon="7.603806000">
        <ele>69.6</ele>
        <time>2017-04-29T07:02:46</time>
        <extensions><speed>1.34</speed></extensions>
      </trkpt>
      <trkpt lat="51.867950000" lon="7.603802000">
        <ele>69.6</ele>
        <time>2017-04-29T07:02:47</time>
        <extensions><speed>1.32</speed></extensions>
      </trkpt>
      <trkpt lat="51.867966000" lon="7.603798000">
        <ele>69.5</ele>
        <time>2017-04-29T07:02:48</time>
        <extensions><speed>1.36</speed></extensions>
      </trkpt>
      <trkpt lat="51.867981000" lon="7.603797000">
        <ele>69.5</ele>
        <time>2017-04-29T07:02:49</time>
        <extensions><speed>1.39</speed></extensions>
      </trkpt>
      <trkpt lat="51.868000000" lon="7.603798000">
        <ele>69.4</ele>
        <time>2017-04-29T07:02:50</time>
        <extensions><speed>1.39</speed></extensions>
      </trkpt>
      <trkpt lat="51.868011000" lon="7.603804000">
        <ele>69.4</ele>
        <time>2017-04-29T07:02:51</time>
        <extensions><speed>1.34</speed></extensions>
      </trkpt>
      <trkpt lat="51.868031000" lon="7.603804000">
        <ele>69.3</ele>
        <time>2017-04-29T07:02:52</time>
        <extensions><speed>1.35</speed></extensions>
      </trkpt>
      <trkpt lat="51.868042000" lon="7.603800000">
        <ele>69.3</ele>
        <time>2017-04-29T07:02:53</time>
        <extensions><speed>1.30</speed></extensions>
      </trkpt>
      <trkpt lat="51.868061000" lon="7.603792000">
        <ele>69.2</ele>
        <time>2017-04-29T07:02:54</time>
        <extensions><speed>1.30</speed></extensions>
      </trkpt>
      <trkpt lat="51.868073000" lon="7.603783000">
        <ele>69.2</ele>
        <time>2017-04-29T07:02:55</time>
        <extensions><speed>1.32</speed></extensions>
      </trkpt>
      <trkpt lat="51.868084000" lon="7.603780000">
        <ele>69.1</ele>
        <time>2017-04-29T07:02:56</time>
        <extensions><speed>1.32</speed></extensions>
      </trkpt>
      <trkpt lat="51.868099000" lon="7.603776000">
        <ele>69.1</ele>
        <time>2017-04-29T07:02:57</time>
        <extensions><speed>1.28</speed></extensions>
      </trkpt>
      <trkpt lat="51.868111000" lon="7.603776000">
        <ele>69.0</ele>
        <time>2017-04-29T07:02:58</time>
        <extensions><speed>1.26</speed></extensions>
      </trkpt>
      <trkpt lat="51.868122000" lon="7.603776000">
        <ele>68.9</ele>
        <time>2017-04-29T07:02:59</time>
        <extensions><speed>1.21</speed></extensions>
      </trkpt>
      <trkpt lat="51.868134000" lon="7.603775000">
        <ele>68.9</ele>
        <time>2017-04-29T07:03:00</time>
        <extensions><speed>1.21</speed></extensions>
      </trkpt>
      <trkpt lat="51.868153000" lon="7.603775000">
        <ele>68.8</ele>
        <time>2017-04-29T07:03:01</time>
        <extensions><speed>1.23</speed></extensions>
      </trkpt>
      <trkpt lat="51.868168000" lon="7.603771000">
        <ele>68.8</ele>
        <time>2017-04-29T07:03:02</time>
        <extensions><speed>1.32</speed></extensions>
      </trkpt>
      <trkpt lat="51.868183000" lon="7.603770000">
        <ele>68.7</ele>
        <time>2017-04-29T07:03:03</time>
        <extensions><speed>1.39</speed></extensions>
      </trkpt>
      <trkpt lat="51.868198000" lon="7.603767000">
        <ele>68.7</ele>
        <time>2017-04-29T07:03:04</time>
        <extensions><speed>1.42</speed></extensions>
      </trkpt>
      <trkpt lat="51.868214000" lon="7.603765000">
        <ele>68.6</ele>
        <time>2017-04-29T07:03:05</time>
        <extensions><speed>1.42</speed></extensions>
      </trkpt>
      <trkpt lat="51.868233000" lon="7.603765000">
        <ele>68.6</ele>
        <time>2017-04-29T07:03:06</time>
        <extensions><speed>1.41</speed></extensions>
      </trkpt>
      <trkpt lat="51.868244000" lon="7.603764000">
        <ele>68.5</ele>
        <time>2017-04-29T07:03:07</time>
        <extensions><speed>1.33</speed></extensions>
      </trkpt>
      <trkpt lat="51.868256000" lon="7.603764000">
        <ele>68.5</ele>
        <time>2017-04-29T07:03:08</time>
        <extensions><speed>1.33</speed></extensions>
      </trkpt>
      <trkpt lat="51.868271000" lon="7.603765000">
        <ele>68.4</ele>
        <time>2017-04-29T07:03:09</time>
        <extensions><speed>1.36</speed></extensions>
      </trkpt>
      <trkpt lat="51.868286000" lon="7.603760000">
        <ele>68.4</ele>
        <time>2017-04-29T07:03:10</time>
        <extensions><speed>1.38</speed></extensions>
      </trkpt>
      <trkpt lat="51.868298000" lon="7.603754000">
        <ele>68.3</ele>
        <time>2017-04-29T07:03:11</time>
        <extensions><speed>1.40</speed></extensions>
      </trkpt>
      <trkpt lat="51.868313000" lon="7.603743000">
        <ele>68.3</ele>
        <time>2017-04-29T07:03:12</time>
        <extensions><speed>1.46</speed></extensions>
      </trkpt>
      <trkpt lat="51.868324000" lon="7.603734000">
        <ele>68.2</ele>
        <time>2017-04-29T07:03:13</time>
        <extensions><speed>1.44</speed></extensions>
      </trkpt>
      <trkpt lat="51.868332000" lon="7.603725000">
        <ele>68.1</ele>
        <time>2017-04-29T07:03:14</time>
        <extensions><speed>1.39</speed></extensions>
      </trkpt>
      <trkpt lat="51.868336000" lon="7.603715000">
        <ele>68.1</ele>
        <time>2017-04-29T07:03:15</time>
        <extensions><speed>1.34</speed></extensions>
      </trkpt>
      <trkpt lat="51.868347000" lon="7.603706000">
        <ele>68.0</ele>
        <time>2017-04-29T07:03:16</time>
        <extensions><speed>1.19</speed></extensions>
      </trkpt>
      <trkpt lat="51.868359000" lon="7.603697000">
        <ele>68.0</ele>
        <time>2017-04-29T07:03:17</time>
        <extensions><speed>1.11</speed></extensions>
      </trkpt>
      <trkpt lat="51.868366000" lon="7.603687000">
        <ele>67.9</ele>
        <time>2017-04-29T07:03:18</time>
        <extensions><speed>1.03</speed></extensions>
      </trkpt>
      <trkpt lat="51.868378000" lon="7.603683000">
        <ele>67.8</ele>
        <time>2017-04-29T07:03:19</time>
        <extensions><speed>1.03</speed></extensions>
      </trkpt>
      <trkpt lat="51.868389000" lon="7.603687000">
        <ele>67.8</ele>
        <time>2017-04-29T07:03:20</time>
        <extensions><speed>1.04</speed></extensions>
      </trkpt>
      <trkpt lat="51.868397000" lon="7.603690000">
        <ele>67.7</ele>
        <time>2017-04-29T07:03:21</time>
        <extensions><speed>1.06</speed></extensions>
      </trkpt>
      <trkpt lat="51.868412000" lon="7.603692000">
        <ele>67.6</ele>
        <time>2017-04-29T07:03:22</time>
        <extensions><speed>1.06</speed></extensions>
      </trkpt>
      <trkpt lat="51.868427000" lon="7.603692000">
        <ele>67.6</ele>
        <time>2017-04-29T07:03:23</time>
        <extensions><speed>1.16</speed></extensions>
      </trkpt>
      <trkpt lat="51.868439000" lon="7.603690000">
        <ele>67.5</ele>
        <time>2017-04-29T07:03:24</time>
        <extensions><speed>1.26</speed></extensions>
      </trkpt>
      <trkpt lat="51.868454000" lon="7.603692000">
        <ele>67.5</ele>
        <time>2017-04-29T07:03:25</time>
        <extensions><speed>1.35</speed></extensions>
      </trkpt>
      <trkpt lat="51.868462000" lon="7.603690000">
        <ele>67.5</ele>
        <time>2017-04-29T07:03:26</time>
        <extensions><speed>1.35</speed></extensions>
      </trkpt>
      <trkpt lat="51.868477000" lon="7.603688000">
        <ele>67.4</ele>
        <time>2017-04-29T07:03:27</time>
        <extensions><speed>1.33</speed></extensions>
      </trkpt>
      <trkpt lat="51.868496000" lon="7.603690000">
        <ele>67.4</ele>
        <time>2017-04-29T07:03:28</time>
        <extensions><speed>1.39</speed></extensions>
      </trkpt>
      <trkpt lat="51.868504000" lon="7.603690000">
        <ele>67.3</ele>
        <time>2017-04-29T07:03:29</time>
        <extensions><speed>1.26</speed></extensions>
      </trkpt>
      <trkpt lat="51.868519000" lon="7.603688000">
        <ele>67.3</ele>
        <time>2017-04-29T07:03:30</time>
        <extensions><speed>1.35</speed></extensions>
      </trkpt>
      <trkpt lat="51.868538000" lon="7.603688000">
        <ele>67.2</ele>
        <time>2017-04-29T07:03:31</time>
        <extensions><speed>1.62</speed></extensions>
      </trkpt>
      <trkpt lat="51.868553000" lon="7.603687000">
        <ele>67.2</ele>
        <time>2017-04-29T07:03:32</time>
        <extensions><speed>1.51</speed></extensions>
      </trkpt>
      <trkpt lat="51.868561000" lon="7.603685000">
        <ele>67.1</ele>
        <time>2017-04-29T07:03:33</time>
        <extensions><speed>1.16</speed></extensions>
      </trkpt>
      <trkpt lat="51.868576000" lon="7.603687000">
        <ele>67.1</ele>
        <time>2017-04-29T07:03:34</time>
        <extensions><speed>1.33</speed></extensions>
      </trkpt>
      <trkpt lat="51.868591000" lon="7.603688000">
        <ele>67.0</ele>
        <time>2017-04-29T07:03:35</time>
        <extensions><speed>1.21</speed></extensions>
      </trkpt>
      <trkpt lat="51.868599000" lon="7.603688000">
        <ele>67.0</ele>
        <time>2017-04-29T07:03:36</time>
        <extensions><speed>1.10</speed></extensions>
      </trkpt>
      <trkpt lat="51.868610000" lon="7.603688000">
        <ele>67.0</ele>
        <time>2017-04-29T07:03:37</time>
        <extensions><speed>1.24</speed></extensions>
      </trkpt>
      <trkpt lat="51.868622000" lon="7.603687000">
        <ele>66.9</ele>
        <time>2017-04-29T07:03:38</time>
        <extensions><speed>1.29</speed></extensions>
      </trkpt>
      <trkpt lat="51.868633000" lon="7.603685000">
        <ele>66.9</ele>
        <time>2017-04-29T07:03:39</time>
        <extensions><speed>1.28</speed></extensions>
      </trkpt>
      <trkpt lat="51.868645000" lon="7.603682000">
        <ele>66.9</ele>
        <time>2017-04-29T07:03:40</time>
        <extensions><speed>1.27</speed></extensions>
      </trkpt>
      <trkpt lat="51.868656000" lon="7.603678000">
        <ele>66.9</ele>
        <time>2017-04-29T07:03:41</time>
        <extensions><speed>1.27</speed></extensions>
      </trkpt>
      <trkpt lat="51.868664000" lon="7.603680000">
        <ele>66.8</ele>
        <time>2017-04-29T07:03:42</time>
        <extensions><speed>1.28</speed></extensions>
      </trkpt>
      <trkpt lat="51.868675000" lon="7.603680000">
        <ele>66.8</ele>
        <time>2017-04-29T07:03:43</time>
        <extensions><speed>1.24</speed></extensions>
      </trkpt>
      <trkpt lat="51.868683000" lon="7.603676000">
        <ele>66.8</ele>
        <time>2017-04-29T07:03:44</time>
        <extensions><speed>1.10</speed></extensions>
      </trkpt>
      <trkpt lat="51.868690000" lon="7.603672000">
        <ele>66.8</ele>
        <time>2017-04-29T07:03:45</time>
        <extensions><speed>1.10</speed></extensions>
      </trkpt>
      <trkpt lat="51.868702000" lon="7.603665000">
        <ele>66.7</ele>
        <time>2017-04-29T07:03:46</time>
        <extensions><speed>1.17</speed></extensions>
      </trkpt>
      <trkpt lat="51.868713000" lon="7.603662000">
        <ele>66.7</ele>
        <time>2017-04-29T07:03:47</time>
        <extensions><speed>1.13</speed></extensions>
      </trkpt>
      <trkpt lat="51.868725000" lon="7.603657000">
        <ele>66.7</ele>
        <time>2017-04-29T07:03:48</time>
        <extensions><speed>1.30</speed></extensions>
      </trkpt>
      <trkpt lat="51.868740000" lon="7.603653000">
        <ele>66.6</ele>
        <time>2017-04-29T07:03:49</time>
        <extensions><speed>1.34</speed></extensions>
      </trkpt>
      <trkpt lat="51.868752000" lon="7.603655000">
        <ele>66.6</ele>
        <time>2017-04-29T07:03:50</time>
        <extensions><speed>1.27</speed></extensions>
      </trkpt>
      <trkpt lat="51.868763000" lon="7.603653000">
        <ele>66.6</ele>
        <time>2017-04-29T07:03:51</time>
        <extensions><speed>1.22</speed></extensions>
      </trkpt>
      <trkpt lat="51.868778000" lon="7.603652000">
        <ele>66.5</ele>
        <time>2017-04-29T07:03:52</time>
        <extensions><speed>1.25</speed></extensions>
      </trkpt>
      <trkpt lat="51.868790000" lon="7.603647000">
        <ele>66.5</ele>
        <time>2017-04-29T07:03:53</time>
        <extensions><speed>1.24</speed></extensions>
      </trkpt>
      <trkpt lat="51.868801000" lon="7.603638000">
        <ele>66.4</ele>
        <time>2017-04-29T07:03:54</time>
        <extensions><speed>1.22</speed></extensions>
      </trkpt>
      <trkpt lat="51.868809000" lon="7.603625000">
        <ele>66.4</ele>
        <time>2017-04-29T07:03:55</time>
        <extensions><speed>1.22</speed></extensions>
      </trkpt>
      <trkpt lat="51.868813000" lon="7.603611000">
        <ele>66.4</ele>
        <time>2017-04-29T07:03:56</time>
        <extensions><speed>1.23</speed></extensions>
      </trkpt>
      <trkpt lat="51.868828000" lon="7.603598000">
        <ele>66.3</ele>
        <time>2017-04-29T07:03:57</time>
        <extensions><speed>1.26</speed></extensions>
      </trkpt>
      <trkpt lat="51.868843000" lon="7.603589000">
        <ele>66.3</ele>
        <time>2017-04-29T07:03:58</time>
        <extensions><speed>1.26</speed></extensions>
      </trkpt>
      <trkpt lat="51.868855000" lon="7.603580000">
        <ele>66.2</ele>
        <time>2017-04-29T07:03:59</time>
        <extensions><speed>1.26</speed></extensions>
      </trkpt>
      <trkpt lat="51.868866000" lon="7.603575000">
        <ele>66.2</ele>
        <time>2017-04-29T07:04:00</time>
        <extensions><speed>1.25</speed></extensions>
      </trkpt>
      <trkpt lat="51.868877000" lon="7.603573000">
        <ele>66.1</ele>
        <time>2017-04-29T07:04:01</time>
        <extensions><speed>1.26</speed></extensions>
      </trkpt>
      <trkpt lat="51.868881000" lon="7.603565000">
        <ele>66.0</ele>
        <time>2017-04-29T07:04:02</time>
        <extensions><speed>1.19</speed></extensions>
      </trkpt>
      <trkpt lat="51.868889000" lon="7.603557000">
        <ele>65.9</ele>
        <time>2017-04-29T07:04:03</time>
        <extensions><speed>1.11</speed></extensions>
      </trkpt>
      <trkpt lat="51.868904000" lon="7.603550000">
        <ele>65.9</ele>
        <time>2017-04-29T07:04:04</time>
        <extensions><speed>1.05</speed></extensions>
      </trkpt>
      <trkpt lat="51.868919000" lon="7.603545000">
        <ele>65.8</ele>
        <time>2017-04-29T07:04:05</time>
        <extensions><speed>1.12</speed></extensions>
      </trkpt>
      <trkpt lat="51.868931000" lon="7.603541000">
        <ele>65.7</ele>
        <time>2017-04-29T07:04:06</time>
        <extensions><speed>1.09</speed></extensions>
      </trkpt>
      <trkpt lat="51.868946000" lon="7.603538000">
        <ele>65.7</ele>
        <time>2017-04-29T07:04:07</time>
        <extensions><speed>1.14</speed></extensions>
      </trkpt>
      <trkpt lat="51.868950000" lon="7.603529000">
        <ele>65.6</ele>
        <time>2017-04-29T07:04:08</time>
        <extensions><speed>1.22</speed></extensions>
      </trkpt>
      <trkpt lat="51.868965000" lon="7.603518000">
        <ele>65.6</ele>
        <time>2017-04-29T07:04:09</time>
        <extensions><speed>1.28</speed></extensions>
      </trkpt>
      <trkpt lat="51.868984000" lon="7.603508000">
        <ele>65.5</ele>
        <time>2017-04-29T07:04:10</time>
        <extensions><speed>1.28</speed></extensions>
      </trkpt>
      <trkpt lat="51.868996000" lon="7.603500000">
        <ele>65.5</ele>
        <time>2017-04-29T07:04:11</time>
        <extensions><speed>1.32</speed></extensions>
      </trkpt>
      <trkpt lat="51.869011000" lon="7.603487000">
        <ele>65.4</ele>
        <time>2017-04-29T07:04:12</time>
        <extensions><speed>1.32</speed></extensions>
      </trkpt>
      <trkpt lat="51.869019000" lon="7.603478000">
        <ele>65.3</ele>
        <time>2017-04-29T07:04:13</time>
        <extensions><speed>1.32</speed></extensions>
      </trkpt>
      <trkpt lat="51.869034000" lon="7.603472000">
        <ele>65.3</ele>
        <time>2017-04-29T07:04:14</time>
        <extensions><speed>1.32</speed></extensions>
      </trkpt>
      <trkpt lat="51.869049000" lon="7.603465000">
        <ele>65.2</ele>
        <time>2017-04-29T07:04:15</time>
        <extensions><speed>1.37</speed></extensions>
      </trkpt>
      <trkpt lat="51.869061000" lon="7.603457000">
        <ele>65.1</ele>
        <time>2017-04-29T07:04:16</time>
        <extensions><speed>1.34</speed></extensions>
      </trkpt>
      <trkpt lat="51.869076000" lon="7.603448000">
        <ele>65.0</ele>
        <time>2017-04-29T07:04:17</time>
        <extensions><speed>1.36</speed></extensions>
      </trkpt>
      <trkpt lat="51.869083000" lon="7.603438000">
        <ele>65.0</ele>
        <time>2017-04-29T07:04:18</time>
        <extensions><speed>1.36</speed></extensions>
      </trkpt>
      <trkpt lat="51.869095000" lon="7.603430000">
        <ele>64.9</ele>
        <time>2017-04-29T07:04:19</time>
        <extensions><speed>1.36</speed></extensions>
      </trkpt>
      <trkpt lat="51.869106000" lon="7.603420000">
        <ele>64.8</ele>
        <time>2017-04-29T07:04:20</time>
        <extensions><speed>1.32</speed></extensions>
      </trkpt>
      <trkpt lat="51.869118000" lon="7.603412000">
        <ele>64.7</ele>
        <time>2017-04-29T07:04:21</time>
        <extensions><speed>1.36</speed></extensions>
      </trkpt>
      <trkpt lat="51.869137000" lon="7.603407000">
        <ele>64.7</ele>
        <time>2017-04-29T07:04:22</time>
        <extensions><speed>1.40</speed></extensions>
      </trkpt>
      <trkpt lat="51.869148000" lon="7.603403000">
        <ele>64.6</ele>
        <time>2017-04-29T07:04:23</time>
        <extensions><speed>1.40</speed></extensions>
      </trkpt>
      <trkpt lat="51.869152000" lon="7.603395000">
        <ele>64.6</ele>
        <time>2017-04-29T07:04:24</time>
        <extensions><speed>1.30</speed></extensions>
      </trkpt>
      <trkpt lat="51.869164000" lon="7.603382000">
        <ele>64.5</ele>
        <time>2017-04-29T07:04:25</time>
        <extensions><speed>1.34</speed></extensions>
      </trkpt>
      <trkpt lat="51.869175000" lon="7.603368000">
        <ele>64.4</ele>
        <time>2017-04-29T07:04:26</time>
        <extensions><speed>1.32</speed></extensions>
      </trkpt>
      <trkpt lat="51.869183000" lon="7.603354000">
        <ele>64.3</ele>
        <time>2017-04-29T07:04:27</time>
        <extensions><speed>1.25</speed></extensions>
      </trkpt>
      <trkpt lat="51.869194000" lon="7.603345000">
        <ele>64.2</ele>
        <time>2017-04-29T07:04:28</time>
        <extensions><speed>1.25</speed></extensions>
      </trkpt>
      <trkpt lat="51.869205000" lon="7.603338000">
        <ele>64.1</ele>
        <time>2017-04-29T07:04:29</time>
        <extensions><speed>1.28</speed></extensions>
      </trkpt>
      <trkpt lat="51.869213000" lon="7.603335000">
        <ele>64.0</ele>
        <time>2017-04-29T07:04:30</time>
        <extensions><speed>1.28</speed></extensions>
      </trkpt>
      <trkpt lat="51.869225000" lon="7.603335000">
        <ele>63.9</ele>
        <time>2017-04-29T07:04:31</time>
        <extensions><speed>1.24</speed></extensions>
      </trkpt>
      <trkpt lat="51.869232000" lon="7.603332000">
        <ele>63.9</ele>
        <time>2017-04-29T07:04:32</time>
        <extensions><speed>1.17</speed></extensions>
      </trkpt>
      <trkpt lat="51.869244000" lon="7.603330000">
        <ele>63.8</ele>
        <time>2017-04-29T07:04:33</time>
        <extensions><speed>1.27</speed></extensions>
      </trkpt>
      <trkpt lat="51.869251000" lon="7.603330000">
        <ele>63.8</ele>
        <time>2017-04-29T07:04:34</time>
        <extensions><speed>1.18</speed></extensions>
      </trkpt>
      <trkpt lat="51.869267000" lon="7.603328000">
        <ele>63.7</ele>
        <time>2017-04-29T07:04:35</time>
        <extensions><speed>1.18</speed></extensions>
      </trkpt>
      <trkpt lat="51.869278000" lon="7.603332000">
        <ele>63.7</ele>
        <time>2017-04-29T07:04:36</time>
        <extensions><speed>1.23</speed></extensions>
      </trkpt>
      <trkpt lat="51.869289000" lon="7.603335000">
        <ele>63.7</ele>
        <time>2017-04-29T07:04:37</time>
        <extensions><speed>1.23</speed></extensions>
      </trkpt>
      <trkpt lat="51.869297000" lon="7.603335000">
        <ele>63.7</ele>
        <time>2017-04-29T07:04:38</time>
        <extensions><speed>1.07</speed></extensions>
      </trkpt>
      <trkpt lat="51.869305000" lon="7.603335000">
        <ele>63.7</ele>
        <time>2017-04-29T07:04:39</time>
        <extensions><speed>1.02</speed></extensions>
      </trkpt>
      <trkpt lat="51.869308000" lon="7.603337000">
        <ele>63.8</ele>
        <time>2017-04-29T07:04:40</time>
      </trkpt>
      <trkpt lat="51.869320000" lon="7.603338000">
        <ele>63.8</ele>
        <time>2017-04-29T07:04:42</time>
        <extensions><speed>0.87</speed></extensions>
      </trkpt>
      <trkpt lat="51.869335000" lon="7.603342000">
        <ele>63.9</ele>
        <time>2017-04-29T07:04:43</time>
        <extensions><speed>0.94</speed></extensions>
      </trkpt>
      <trkpt lat="51.869343000" lon="7.603345000">
        <ele>63.9</ele>
        <time>2017-04-29T07:04:44</time>
        <extensions><speed>1.10</speed></extensions>
      </trkpt>
      <trkpt lat="51.869350000" lon="7.603350000">
        <ele>63.9</ele>
        <time>2017-04-29T07:04:45</time>
        <extensions><speed>1.22</speed></extensions>
      </trkpt>
      <trkpt lat="51.869362000" lon="7.603358000">
        <ele>63.9</ele>
        <time>2017-04-29T07:04:46</time>
        <extensions><speed>1.30</speed></extensions>
      </trkpt>
      <trkpt lat="51.869373000" lon="7.603365000">
        <ele>64.0</ele>
        <time>2017-04-29T07:04:47</time>
        <extensions><speed>1.26</speed></extensions>
      </trkpt>
      <trkpt lat="51.869381000" lon="7.603372000">
        <ele>64.0</ele>
        <time>2017-04-29T07:04:48</time>
        <extensions><speed>1.26</speed></extensions>
      </trkpt>
      <trkpt lat="51.869392000" lon="7.603377000">
        <ele>64.1</ele>
        <time>2017-04-29T07:04:49</time>
        <extensions><speed>1.26</speed></extensions>
      </trkpt>
      <trkpt lat="51.869408000" lon="7.603382000">
        <ele>64.1</ele>
        <time>2017-04-29T07:04:50</time>
        <extensions><speed>1.28</speed></extensions>
      </trkpt>
      <trkpt lat="51.869415000" lon="7.603387000">
        <ele>64.2</ele>
        <time>2017-04-29T07:04:51</time>
        <extensions><speed>1.17</speed></extensions>
      </trkpt>
      <trkpt lat="51.869423000" lon="7.603391000">
        <ele>64.2</ele>
        <time>2017-04-29T07:04:52</time>
        <extensions><speed>1.16</speed></extensions>
      </trkpt>
      <trkpt lat="51.869434000" lon="7.603398000">
        <ele>64.3</ele>
        <time>2017-04-29T07:04:53</time>
        <extensions><speed>1.19</speed></extensions>
      </trkpt>
      <trkpt lat="51.869438000" lon="7.603405000">
        <ele>64.3</ele>
        <time>2017-04-29T07:04:54</time>
        <extensions><speed>1.03</speed></extensions>
      </trkpt>
      <trkpt lat="51.869446000" lon="7.603415000">
        <ele>64.4</ele>
        <time>2017-04-29T07:04:55</time>
        <extensions><speed>1.03</speed></extensions>
      </trkpt>
      <trkpt lat="51.869457000" lon="7.603430000">
        <ele>64.5</ele>
        <time>2017-04-29T07:04:56</time>
        <extensions><speed>1.06</speed></extensions>
      </trkpt>
      <trkpt lat="51.869465000" lon="7.603444000">
        <ele>64.5</ele>
        <time>2017-04-29T07:04:57</time>
        <extensions><speed>1.04</speed></extensions>
      </trkpt>
      <trkpt lat="51.869476000" lon="7.603456000">
        <ele>64.6</ele>
        <time>2017-04-29T07:04:58</time>
        <extensions><speed>1.14</speed></extensions>
      </trkpt>
      <trkpt lat="51.869488000" lon="7.603463000">
        <ele>64.6</ele>
        <time>2017-04-29T07:04:59</time>
        <extensions><speed>1.23</speed></extensions>
      </trkpt>
      <trkpt lat="51.869495000" lon="7.603470000">
        <ele>64.6</ele>
        <time>2017-04-29T07:05:00</time>
        <extensions><speed>1.24</speed></extensions>
      </trkpt>
      <trkpt lat="51.869507000" lon="7.603480000">
        <ele>64.7</ele>
        <time>2017-04-29T07:05:01</time>
        <extensions><speed>1.33</speed></extensions>
      </trkpt>
      <trkpt lat="51.869507000" lon="7.603477000">
        <ele>64.9</ele>
        <time>2017-04-29T07:05:02</time>
      </trkpt>
      <trkpt lat="51.869518000" lon="7.603480000">
        <ele>65.0</ele>
        <time>2017-04-29T07:05:04</time>
        <extensions><speed>0.99</speed></extensions>
      </trkpt>
      <trkpt lat="51.869526000" lon="7.603485000">
        <ele>65.0</ele>
        <time>2017-04-29T07:05:05</time>
        <extensions><speed>0.85</speed></extensions>
      </trkpt>
      <trkpt lat="51.869537000" lon="7.603495000">
        <ele>65.1</ele>
        <time>2017-04-29T07:05:06</time>
        <extensions><speed>0.85</speed></extensions>
      </trkpt>
      <trkpt lat="51.869549000" lon="7.603505000">
        <ele>65.2</ele>
        <time>2017-04-29T07:05:07</time>
        <extensions><speed>0.97</speed></extensions>
      </trkpt>
      <trkpt lat="51.869560000" lon="7.603515000">
        <ele>65.2</ele>
        <time>2017-04-29T07:05:08</time>
        <extensions><speed>1.16</speed></extensions>
      </trkpt>
      <trkpt lat="51.869572000" lon="7.603527000">
        <ele>65.2</ele>
        <time>2017-04-29T07:05:09</time>
        <extensions><speed>1.22</speed></extensions>
      </trkpt>
      <trkpt lat="51.869576000" lon="7.603531000">
        <ele>65.3</ele>
        <time>2017-04-29T07:05:10</time>
      </trkpt>
      <trkpt lat="51.869587000" lon="7.603540000">
        <ele>65.4</ele>
        <time>2017-04-29T07:05:12</time>
        <extensions><speed>1.16</speed></extensions>
      </trkpt>
      <trkpt lat="51.869602000" lon="7.603549000">
        <ele>65.5</ele>
        <time>2017-04-29T07:05:13</time>
        <extensions><speed>1.12</speed></extensions>
      </trkpt>
      <trkpt lat="51.869621000" lon="7.603557000">
        <ele>65.5</ele>
        <time>2017-04-29T07:05:14</time>
        <extensions><speed>1.20</speed></extensions>
      </trkpt>
      <trkpt lat="51.869637000" lon="7.603568000">
        <ele>65.6</ele>
        <time>2017-04-29T07:05:15</time>
        <extensions><speed>1.22</speed></extensions>
      </trkpt>
      <trkpt lat="51.869648000" lon="7.603580000">
        <ele>65.6</ele>
        <time>2017-04-29T07:05:16</time>
        <extensions><speed>1.28</speed></extensions>
      </trkpt>
      <trkpt lat="51.869659000" lon="7.603585000">
        <ele>65.7</ele>
        <time>2017-04-29T07:05:17</time>
        <extensions><speed>1.20</speed></extensions>
      </trkpt>
      <trkpt lat="51.869667000" lon="7.603583000">
        <ele>65.7</ele>
        <time>2017-04-29T07:05:18</time>
        <extensions><speed>1.17</speed></extensions>
      </trkpt>
      <trkpt lat="51.869678000" lon="7.603590000">
        <ele>65.8</ele>
        <time>2017-04-29T07:05:19</time>
        <extensions><speed>1.17</speed></extensions>
      </trkpt>
      <trkpt lat="51.869694000" lon="7.603603000">
        <ele>65.9</ele>
        <time>2017-04-29T07:05:20</time>
        <extensions><speed>1.25</speed></extensions>
      </trkpt>
      <trkpt lat="51.869709000" lon="7.603615000">
        <ele>66.0</ele>
        <time>2017-04-29T07:05:21</time>
        <extensions><speed>1.31</speed></extensions>
      </trkpt>
      <trkpt lat="51.869724000" lon="7.603615000">
        <ele>66.0</ele>
        <time>2017-04-29T07:05:22</time>
        <extensions><speed>1.31</speed></extensions>
      </trkpt>
      <trkpt lat="51.869728000" lon="7.603620000">
        <ele>66.1</ele>
        <time>2017-04-29T07:05:23</time>
      </trkpt>
      <trkpt lat="51.869743000" lon="7.603631000">
        <ele>66.1</ele>
        <time>2017-04-29T07:05:25</time>
        <extensions><speed>0.95</speed></extensions>
      </trkpt>
      <trkpt lat="51.869759000" lon="7.603635000">
        <ele>66.2</ele>
        <time>2017-04-29T07:05:26</time>
        <extensions><speed>0.87</speed></extensions>
      </trkpt>
      <trkpt lat="51.869770000" lon="7.603635000">
        <ele>66.3</ele>
        <time>2017-04-29T07:05:27</time>
        <extensions><speed>0.99</speed></extensions>
      </trkpt>
      <trkpt lat="51.869785000" lon="7.603640000">
        <ele>66.3</ele>
        <time>2017-04-29T07:05:28</time>
        <extensions><speed>1.22</speed></extensions>
      </trkpt>
      <trkpt lat="51.869793000" lon="7.603642000">
        <ele>66.4</ele>
        <time>2017-04-29T07:05:29</time>
        <extensions><speed>1.22</speed></extensions>
      </trkpt>
      <trkpt lat="51.869804000" lon="7.603647000">
        <ele>66.4</ele>
        <time>2017-04-29T07:05:30</time>
        <extensions><speed>1.15</speed></extensions>
      </trkpt>
      <trkpt lat="51.869816000" lon="7.603655000">
        <ele>66.5</ele>
        <time>2017-04-29T07:05:31</time>
        <extensions><speed>1.16</speed></extensions>
      </trkpt>
      <trkpt lat="51.869823000" lon="7.603660000">
        <ele>66.5</ele>
        <time>2017-04-29T07:05:32</time>
        <extensions><speed>1.07</speed></extensions>
      </trkpt>
      <trkpt lat="51.869831000" lon="7.603664000">
        <ele>66.6</ele>
        <time>2017-04-29T07:05:33</time>
        <extensions><speed>1.00</speed></extensions>
      </trkpt>
      <trkpt lat="51.869843000" lon="7.603668000">
        <ele>66.6</ele>
        <time>2017-04-29T07:05:34</time>
        <extensions><speed>1.02</speed></extensions>
      </trkpt>
      <trkpt lat="51.869858000" lon="7.603678000">
        <ele>66.7</ele>
        <time>2017-04-29T07:05:35</time>
        <extensions><speed>1.07</speed></extensions>
      </trkpt>
      <trkpt lat="51.869873000" lon="7.603692000">
        <ele>66.7</ele>
        <time>2017-04-29T07:05:36</time>
        <extensions><speed>1.18</speed></extensions>
      </trkpt>
      <trkpt lat="51.869888000" lon="7.603701000">
        <ele>66.7</ele>
        <time>2017-04-29T07:05:37</time>
        <extensions><speed>1.25</speed></extensions>
      </trkpt>
      <trkpt lat="51.869896000" lon="7.603710000">
        <ele>66.8</ele>
        <time>2017-04-29T07:05:38</time>
        <extensions><speed>1.25</speed></extensions>
      </trkpt>
      <trkpt lat="51.869911000" lon="7.603718000">
        <ele>66.8</ele>
        <time>2017-04-29T07:05:39</time>
        <extensions><speed>1.26</speed></extensions>
      </trkpt>
      <trkpt lat="51.869923000" lon="7.603722000">
        <ele>66.9</ele>
        <time>2017-04-29T07:05:40</time>
        <extensions><speed>1.24</speed></extensions>
      </trkpt>
      <trkpt lat="51.869930000" lon="7.603730000">
        <ele>67.0</ele>
        <time>2017-04-29T07:05:41</time>
        <extensions><speed>1.17</speed></extensions>
      </trkpt>
      <trkpt lat="51.869946000" lon="7.603735000">
        <ele>67.0</ele>
        <time>2017-04-29T07:05:42</time>
        <extensions><speed>1.24</speed></extensions>
      </trkpt>
      <trkpt lat="51.869961000" lon="7.603735000">
        <ele>67.1</ele>
        <time>2017-04-29T07:05:43</time>
        <extensions><speed>1.30</speed></extensions>
      </trkpt>
      <trkpt lat="51.869980000" lon="7.603736000">
        <ele>67.1</ele>
        <time>2017-04-29T07:05:44</time>
        <extensions><speed>1.23</speed></extensions>
      </trkpt>
      <trkpt lat="51.869991000" lon="7.603741000">
        <ele>67.2</ele>
        <time>2017-04-29T07:05:45</time>
        <extensions><speed>1.18</speed></extensions>
      </trkpt>
      <trkpt lat="51.869999000" lon="7.603746000">
        <ele>67.2</ele>
        <time>2017-04-29T07:05:46</time>
        <extensions><speed>1.31</speed></extensions>
      </trkpt>
      <trkpt lat="51.870018000" lon="7.603752000">
        <ele>67.3</ele>
        <time>2017-04-29T07:05:47</time>
        <extensions><speed>1.31</speed></extensions>
      </trkpt>
      <trkpt lat="51.870033000" lon="7.603757000">
        <ele>67.3</ele>
        <time>2017-04-29T07:05:48</time>
        <extensions><speed>1.37</speed></extensions>
      </trkpt>
      <trkpt lat="51.870052000" lon="7.603764000">
        <ele>67.4</ele>
        <time>2017-04-29T07:05:49</time>
        <extensions><speed>1.44</speed></extensions>
      </trkpt>
      <trkpt lat="51.870064000" lon="7.603767000">
        <ele>67.4</ele>
        <time>2017-04-29T07:05:50</time>
        <extensions><speed>1.44</speed></extensions>
      </trkpt>
      <trkpt lat="51.870079000" lon="7.603765000">
        <ele>67.4</ele>
        <time>2017-04-29T07:05:51</time>
        <extensions><speed>1.42</speed></extensions>
      </trkpt>
      <trkpt lat="51.870090000" lon="7.603765000">
        <ele>67.5</ele>
        <time>2017-04-29T07:05:52</time>
        <extensions><speed>1.30</speed></extensions>
      </trkpt>
      <trkpt lat="51.870098000" lon="7.603767000">
        <ele>67.5</ele>
        <time>2017-04-29T07:05:53</time>
        <extensions><speed>1.28</speed></extensions>
      </trkpt>
      <trkpt lat="51.870117000" lon="7.603770000">
        <ele>67.5</ele>
        <time>2017-04-29T07:05:54</time>
        <extensions><speed>1.28</speed></extensions>
      </trkpt>
      <trkpt lat="51.870129000" lon="7.603775000">
        <ele>67.6</ele>
        <time>2017-04-29T07:05:55</time>
        <extensions><speed>1.27</speed></extensions>
      </trkpt>
      <trkpt lat="51.870140000" lon="7.603780000">
        <ele>67.6</ele>
        <time>2017-04-29T07:05:56</time>
        <extensions><speed>1.39</speed></extensions>
      </trkpt>
      <trkpt lat="51.870152000" lon="7.603783000">
        <ele>67.6</ele>
        <time>2017-04-29T07:05:57</time>
        <extensions><speed>1.39</speed></extensions>
      </trkpt>
      <trkpt lat="51.870163000" lon="7.603785000">
        <ele>67.7</ele>
        <time>2017-04-29T07:05:58</time>
        <extensions><speed>1.35</speed></extensions>
      </trkpt>
      <trkpt lat="51.870178000" lon="7.603786000">
        <ele>67.7</ele>
        <time>2017-04-29T07:05:59</time>
        <extensions><speed>1.34</speed></extensions>
      </trkpt>
      <trkpt lat="51.870190000" lon="7.603788000">
        <ele>67.7</ele>
        <time>2017-04-29T07:06:00</time>
        <extensions><speed>1.36</speed></extensions>
      </trkpt>
      <trkpt lat="51.870205000" lon="7.603797000">
        <ele>67.8</ele>
        <time>2017-04-29T07:06:01</time>
        <extensions><speed>1.34</speed></extensions>
      </trkpt>
      <trkpt lat="51.870216000" lon="7.603806000">
        <ele>67.8</ele>
        <time>2017-04-29T07:06:02</time>
        <extensions><speed>1.33</speed></extensions>
      </trkpt>
      <trkpt lat="51.870228000" lon="7.603820000">
        <ele>67.8</ele>
        <time>2017-04-29T07:06:03</time>
        <extensions><speed>1.42</speed></extensions>
      </trkpt>
      <trkpt lat="51.870247000" lon="7.603827000">
        <ele>67.9</ele>
        <time>2017-04-29T07:06:04</time>
        <extensions><speed>1.35</speed></extensions>
      </trkpt>
      <trkpt lat="51.870258000" lon="7.603830000">
        <ele>67.9</ele>
        <time>2017-04-29T07:06:05</time>
        <extensions><speed>1.33</speed></extensions>
      </trkpt>
      <trkpt lat="51.870270000" lon="7.603837000">
        <ele>67.9</ele>
        <time>2017-04-29T07:06:06</time>
        <extensions><speed>1.31</speed></extensions>
      </trkpt>
      <trkpt lat="51.870285000" lon="7.603841000">
        <ele>68.0</ele>
        <time>2017-04-29T07:06:07</time>
        <extensions><speed>1.35</speed></extensions>
      </trkpt>
      <trkpt lat="51.870293000" lon="7.603843000">
        <ele>68.0</ele>
        <time>2017-04-29T07:06:08</time>
        <extensions><speed>1.35</speed></extensions>
      </trkpt>
      <trkpt lat="51.870304000" lon="7.603850000">
        <ele>68.1</ele>
        <time>2017-04-29T07:06:09</time>
        <extensions><speed>1.38</speed></extensions>
      </trkpt>
      <trkpt lat="51.870312000" lon="7.603855000">
        <ele>68.2</ele>
        <time>2017-04-29T07:06:10</time>
      </trkpt>
      <trkpt lat="51.870327000" lon="7.603858000">
        <ele>68.2</ele>
        <time>2017-04-29T07:06:12</time>
        <extensions><speed>1.40</speed></extensions>
      </trkpt>
      <trkpt lat="51.870342000" lon="7.603864000">
        <ele>68.3</ele>
        <time>2017-04-29T07:06:13</time>
        <extensions><speed>1.39</speed></extensions>
      </trkpt>
      <trkpt lat="51.870354000" lon="7.603865000">
        <ele>68.3</ele>
        <time>2017-04-29T07:06:14</time>
        <extensions><speed>1.40</speed></extensions>
      </trkpt>
      <trkpt lat="51.870369000" lon="7.603865000">
        <ele>68.3</ele>
        <time>2017-04-29T07:06:15</time>
        <extensions><speed>1.46</speed></extensions>
      </trkpt>
      <trkpt lat="51.870384000" lon="7.603865000">
        <ele>68.4</ele>
        <time>2017-04-29T07:06:16</time>
        <extensions><speed>1.40</speed></extensions>
      </trkpt>
      <trkpt lat="51.870396000" lon="7.603867000">
        <ele>68.4</ele>
        <time>2017-04-29T07:06:17</time>
        <extensions><speed>1.37</speed></extensions>
      </trkpt>
      <trkpt lat="51.870411000" lon="7.603865000">
        <ele>68.4</ele>
        <time>2017-04-29T07:06:18</time>
        <extensions><speed>1.37</speed></extensions>
      </trkpt>
      <trkpt lat="51.870419000" lon="7.603872000">
        <ele>68.4</ele>
        <time>2017-04-29T07:06:19</time>
        <extensions><speed>1.37</speed></extensions>
      </trkpt>
      <trkpt lat="51.870430000" lon="7.603878000">
        <ele>68.5</ele>
        <time>2017-04-29T07:06:20</time>
        <extensions><speed>1.31</speed></extensions>
      </trkpt>
      <trkpt lat="51.870445000" lon="7.603881000">
        <ele>68.5</ele>
        <time>2017-04-29T07:06:21</time>
        <extensions><speed>1.37</speed></extensions>
      </trkpt>
      <trkpt lat="51.870453000" lon="7.603888000">
        <ele>68.5</ele>
        <time>2017-04-29T07:06:22</time>
        <extensions><speed>1.36</speed></extensions>
      </trkpt>
      <trkpt lat="51.870468000" lon="7.603893000">
        <ele>68.6</ele>
        <time>2017-04-29T07:06:23</time>
        <extensions><speed>1.30</speed></extensions>
      </trkpt>
      <trkpt lat="51.870480000" lon="7.603900000">
        <ele>68.6</ele>
        <time>2017-04-29T07:06:24</time>
        <extensions><speed>1.21</speed></extensions>
      </trkpt>
      <trkpt lat="51.870487000" lon="7.603905000">
        <ele>68.6</ele>
        <time>2017-04-29T07:06:25</time>
        <extensions><speed>1.20</speed></extensions>
      </trkpt>
      <trkpt lat="51.870495000" lon="7.603909000">
        <ele>68.7</ele>
        <time>2017-04-29T07:06:26</time>
        <extensions><speed>1.13</speed></extensions>
      </trkpt>
      <trkpt lat="51.870506000" lon="7.603909000">
        <ele>68.7</ele>
        <time>2017-04-29T07:06:27</time>
        <extensions><speed>1.08</speed></extensions>
      </trkpt>
      <trkpt lat="51.870518000" lon="7.603909000">
        <ele>68.7</ele>
        <time>2017-04-29T07:06:28</time>
      </trkpt>
      <trkpt lat="51.870525000" lon="7.603911000">
        <ele>68.8</ele>
        <time>2017-04-29T07:06:30</time>
        <extensions><speed>1.14</speed></extensions>
      </trkpt>
      <trkpt lat="51.870541000" lon="7.603915000">
        <ele>68.8</ele>
        <time>2017-04-29T07:06:31</time>
        <extensions><speed>1.24</speed></extensions>
      </trkpt>
      <trkpt lat="51.870548000" lon="7.603918000">
        <ele>68.9</ele>
        <time>2017-04-29T07:06:32</time>
      </trkpt>
      <trkpt lat="51.870560000" lon="7.603918000">
        <ele>68.9</ele>
        <time>2017-04-29T07:06:34</time>
        <extensions><speed>1.15</speed></extensions>
      </trkpt>
      <trkpt lat="51.870575000" lon="7.603917000">
        <ele>68.9</ele>
        <time>2017-04-29T07:06:35</time>
        <extensions><speed>1.05</speed></extensions>
      </trkpt>
      <trkpt lat="51.870583000" lon="7.603920000">
        <ele>68.9</ele>
        <time>2017-04-29T07:06:36</time>
        <extensions><speed>0.90</speed></extensions>
      </trkpt>
      <trkpt lat="51.870598000" lon="7.603923000">
        <ele>69.0</ele>
        <time>2017-04-29T07:06:37</time>
        <extensions><speed>1.02</speed></extensions>
      </trkpt>
      <trkpt lat="51.870609000" lon="7.603923000">
        <ele>69.0</ele>
        <time>2017-04-29T07:06:38</time>
        <extensions><speed>0.90</speed></extensions>
      </trkpt>
      <trkpt lat="51.870613000" lon="7.603920000">
        <ele>69.0</ele>
        <time>2017-04-29T07:06:39</time>
        <extensions><speed>0.86</speed></extensions>
      </trkpt>
      <trkpt lat="51.870625000" lon="7.603920000">
        <ele>69.0</ele>
        <time>2017-04-29T07:06:40</time>
        <extensions><speed>0.87</speed></extensions>
      </trkpt>
      <trkpt lat="51.870640000" lon="7.603920000">
        <ele>69.0</ele>
        <time>2017-04-29T07:06:41</time>
        <extensions><speed>0.95</speed></extensions>
      </trkpt>
      <trkpt lat="51.870647000" lon="7.603917000">
        <ele>69.0</ele>
        <time>2017-04-29T07:06:42</time>
        <extensions><speed>0.95</speed></extensions>
      </trkpt>
      <trkpt lat="51.870667000" lon="7.603917000">
        <ele>69.0</ele>
        <time>2017-04-29T07:06:43</time>
        <extensions><speed>1.12</speed></extensions>
      </trkpt>
      <trkpt lat="51.870682000" lon="7.603917000">
        <ele>69.0</ele>
        <time>2017-04-29T07:06:44</time>
        <extensions><speed>1.28</speed></extensions>
      </trkpt>
      <trkpt lat="51.870693000" lon="7.603913000">
        <ele>69.0</ele>
        <time>2017-04-29T07:06:45</time>
        <extensions><speed>1.30</speed></extensions>
      </trkpt>
      <trkpt lat="51.870708000" lon="7.603911000">
        <ele>69.0</ele>
        <time>2017-04-29T07:06:46</time>
        <extensions><speed>1.47</speed></extensions>
      </trkpt>
      <trkpt lat="51.870720000" lon="7.603909000">
        <ele>68.9</ele>
        <time>2017-04-29T07:06:47</time>
        <extensions><speed>1.53</speed></extensions>
      </trkpt>
      <trkpt lat="51.870739000" lon="7.603907000">
        <ele>68.9</ele>
        <time>2017-04-29T07:06:48</time>
        <extensions><speed>1.53</speed></extensions>
      </trkpt>
      <trkpt lat="51.870750000" lon="7.603904000">
        <ele>68.9</ele>
        <time>2017-04-29T07:06:49</time>
        <extensions><speed>1.56</speed></extensions>
      </trkpt>
      <trkpt lat="51.870766000" lon="7.603900000">
        <ele>68.8</ele>
        <time>2017-04-29T07:06:50</time>
        <extensions><speed>1.57</speed></extensions>
      </trkpt>
      <trkpt lat="51.870777000" lon="7.603893000">
        <ele>68.8</ele>
        <time>2017-04-29T07:06:51</time>
        <extensions><speed>1.55</speed></extensions>
      </trkpt>
      <trkpt lat="51.870792000" lon="7.603888000">
        <ele>68.8</ele>
        <time>2017-04-29T07:06:52</time>
        <extensions><speed>1.53</speed></extensions>
      </trkpt>
      <trkpt lat="51.870808000" lon="7.603885000">
        <ele>68.8</ele>
        <time>2017-04-29T07:06:53</time>
        <extensions><speed>1.47</speed></extensions>
      </trkpt>
      <trkpt lat="51.870819000" lon="7.603885000">
        <ele>68.7</ele>
        <time>2017-04-29T07:06:54</time>
        <extensions><speed>1.40</speed></extensions>
      </trkpt>
      <trkpt lat="51.870831000" lon="7.603888000">
        <ele>68.7</ele>
        <time>2017-04-29T07:06:55</time>
        <extensions><speed>1.32</speed></extensions>
      </trkpt>
      <trkpt lat="51.870842000" lon="7.603895000">
        <ele>68.6</ele>
        <time>2017-04-29T07:06:56</time>
        <extensions><speed>1.26</speed></extensions>
      </trkpt>
      <trkpt lat="51.870850000" lon="7.603902000">
        <ele>68.6</ele>
        <time>2017-04-29T07:06:57</time>
        <extensions><speed>1.21</speed></extensions>
      </trkpt>
      <trkpt lat="51.870861000" lon="7.603911000">
        <ele>68.6</ele>
        <time>2017-04-29T07:06:58</time>
        <extensions><speed>1.14</speed></extensions>
      </trkpt>
      <trkpt lat="51.870869000" lon="7.603911000">
        <ele>68.6</ele>
        <time>2017-04-29T07:06:59</time>
        <extensions><speed>1.03</speed></extensions>
      </trkpt>
      <trkpt lat="51.870876000" lon="7.603911000">
        <ele>68.6</ele>
        <time>2017-04-29T07:07:01</time>
      </trkpt>
      <trkpt lat="51.870888000" lon="7.603911000">
        <ele>68.6</ele>
        <time>2017-04-29T07:07:03</time>
        <extensions><speed>0.35</speed></extensions>
      </trkpt>
      <trkpt lat="51.870903000" lon="7.603911000">
        <ele>68.6</ele>
        <time>2017-04-29T07:07:04</time>
        <extensions><speed>0.65</speed></extensions>
      </trkpt>
      <trkpt lat="51.870914000" lon="7.603909000">
        <ele>68.6</ele>
        <time>2017-04-29T07:07:05</time>
        <extensions><speed>1.04</speed></extensions>
      </trkpt>
      <trkpt lat="51.870926000" lon="7.603905000">
        <ele>68.6</ele>
        <time>2017-04-29T07:07:06</time>
        <extensions><speed>1.42</speed></extensions>
      </trkpt>
      <trkpt lat="51.870937000" lon="7.603899000">
        <ele>68.6</ele>
        <time>2017-04-29T07:07:07</time>
        <extensions><speed>1.42</speed></extensions>
      </trkpt>
      <trkpt lat="51.870945000" lon="7.603892000">
        <ele>68.5</ele>
        <time>2017-04-29T07:07:08</time>
        <extensions><speed>1.29</speed></extensions>
      </trkpt>
      <trkpt lat="51.870960000" lon="7.603885000">
        <ele>68.5</ele>
        <time>2017-04-29T07:07:09</time>
        <extensions><speed>1.24</speed></extensions>
      </trkpt>
      <trkpt lat="51.870972000" lon="7.603880000">
        <ele>68.5</ele>
        <time>2017-04-29T07:07:10</time>
        <extensions><speed>1.26</speed></extensions>
      </trkpt>
      <trkpt lat="51.870983000" lon="7.603878000">
        <ele>68.5</ele>
        <time>2017-04-29T07:07:11</time>
        <extensions><speed>1.26</speed></extensions>
      </trkpt>
      <trkpt lat="51.870998000" lon="7.603876000">
        <ele>68.4</ele>
        <time>2017-04-29T07:07:12</time>
        <extensions><speed>1.26</speed></extensions>
      </trkpt>
      <trkpt lat="51.871010000" lon="7.603874000">
        <ele>68.4</ele>
        <time>2017-04-29T07:07:13</time>
        <extensions><speed>1.21</speed></extensions>
      </trkpt>
      <trkpt lat="51.871017000" lon="7.603868000">
        <ele>68.3</ele>
        <time>2017-04-29T07:07:14</time>
        <extensions><speed>1.12</speed></extensions>
      </trkpt>
      <trkpt lat="51.871033000" lon="7.603867000">
        <ele>68.3</ele>
        <time>2017-04-29T07:07:15</time>
        <extensions><speed>1.18</speed></extensions>
      </trkpt>
      <trkpt lat="51.871040000" lon="7.603867000">
        <ele>68.3</ele>
        <time>2017-04-29T07:07:16</time>
        <extensions><speed>1.05</speed></extensions>
      </trkpt>
      <trkpt lat="51.871052000" lon="7.603870000">
        <ele>68.2</ele>
        <time>2017-04-29T07:07:17</time>
        <extensions><speed>1.05</speed></extensions>
      </trkpt>
      <trkpt lat="51.871063000" lon="7.603870000">
        <ele>68.2</ele>
        <time>2017-04-29T07:07:18</time>
        <extensions><speed>1.01</speed></extensions>
      </trkpt>
      <trkpt lat="51.871075000" lon="7.603868000">
        <ele>68.2</ele>
        <time>2017-04-29T07:07:19</time>
        <extensions><speed>1.02</speed></extensions>
      </trkpt>
      <trkpt lat="51.871090000" lon="7.603867000">
        <ele>68.2</ele>
        <time>2017-04-29T07:07:20</time>
        <extensions><speed>0.98</speed></extensions>
      </trkpt>
      <trkpt lat="51.871101000" lon="7.603864000">
        <ele>68.1</ele>
        <time>2017-04-29T07:07:21</time>
        <extensions><speed>1.04</speed></extensions>
      </trkpt>
      <trkpt lat="51.871117000" lon="7.603857000">
        <ele>68.1</ele>
        <time>2017-04-29T07:07:22</time>
        <extensions><speed>1.10</speed></extensions>
      </trkpt>
      <trkpt lat="51.871132000" lon="7.603855000">
        <ele>68.1</ele>
        <time>2017-04-29T07:07:23</time>
        <extensions><speed>1.18</speed></extensions>
      </trkpt>
      <trkpt lat="51.871143000" lon="7.603851000">
        <ele>68.1</ele>
        <time>2017-04-29T07:07:24</time>
        <extensions><speed>1.22</speed></extensions>
      </trkpt>
      <trkpt lat="51.871159000" lon="7.603850000">
        <ele>68.1</ele>
        <time>2017-04-29T07:07:25</time>
        <extensions><speed>1.33</speed></extensions>
      </trkpt>
      <trkpt lat="51.871174000" lon="7.603851000">
        <ele>68.1</ele>
        <time>2017-04-29T07:07:26</time>
        <extensions><speed>1.45</speed></extensions>
      </trkpt>
      <trkpt lat="51.871193000" lon="7.603847000">
        <ele>68.0</ele>
        <time>2017-04-29T07:07:27</time>
        <extensions><speed>1.58</speed></extensions>
      </trkpt>
      <trkpt lat="51.871204000" lon="7.603841000">
        <ele>68.0</ele>
        <time>2017-04-29T07:07:28</time>
        <extensions><speed>1.48</speed></extensions>
      </trkpt>
      <trkpt lat="51.871216000" lon="7.603839000">
        <ele>67.9</ele>
        <time>2017-04-29T07:07:29</time>
        <extensions><speed>1.47</speed></extensions>
      </trkpt>
      <trkpt lat="51.871231000" lon="7.603839000">
        <ele>67.9</ele>
        <time>2017-04-29T07:07:30</time>
        <extensions><speed>1.39</speed></extensions>
      </trkpt>
      <trkpt lat="51.871243000" lon="7.603835000">
        <ele>67.9</ele>
        <time>2017-04-29T07:07:31</time>
        <extensions><speed>1.26</speed></extensions>
      </trkpt>
      <trkpt lat="51.871254000" lon="7.603832000">
        <ele>67.8</ele>
        <time>2017-04-29T07:07:32</time>
        <extensions><speed>1.21</speed></extensions>
      </trkpt>
      <trkpt lat="51.871269000" lon="7.603830000">
        <ele>67.8</ele>
        <time>2017-04-29T07:07:33</time>
        <extensions><speed>1.26</speed></extensions>
      </trkpt>
      <trkpt lat="51.871288000" lon="7.603828000">
        <ele>67.8</ele>
        <time>2017-04-29T07:07:34</time>
        <extensions><speed>1.32</speed></extensions>
      </trkpt>
      <trkpt lat="51.871300000" lon="7.603827000">
        <ele>67.7</ele>
        <time>2017-04-29T07:07:35</time>
        <extensions><speed>1.28</speed></extensions>
      </trkpt>
      <trkpt lat="51.871315000" lon="7.603822000">
        <ele>67.7</ele>
        <time>2017-04-29T07:07:36</time>
        <extensions><speed>1.33</speed></extensions>
      </trkpt>
      <trkpt lat="51.871326000" lon="7.603817000">
        <ele>67.7</ele>
        <time>2017-04-29T07:07:37</time>
        <extensions><speed>1.33</speed></extensions>
      </trkpt>
      <trkpt lat="51.871338000" lon="7.603815000">
        <ele>67.6</ele>
        <time>2017-04-29T07:07:38</time>
        <extensions><speed>1.25</speed></extensions>
      </trkpt>
      <trkpt lat="51.871346000" lon="7.603813000">
        <ele>67.6</ele>
        <time>2017-04-29T07:07:39</time>
        <extensions><speed>1.16</speed></extensions>
      </trkpt>
      <trkpt lat="51.871353000" lon="7.603810000">
        <ele>67.5</ele>
        <time>2017-04-29T07:07:40</time>
        <extensions><speed>0.95</speed></extensions>
      </trkpt>
      <trkpt lat="51.871361000" lon="7.603808000">
        <ele>67.5</ele>
        <time>2017-04-29T07:07:41</time>
        <extensions><speed>0.74</speed></extensions>
      </trkpt>
      <trkpt lat="51.871365000" lon="7.603802000">
        <ele>67.4</ele>
        <time>2017-04-29T07:07:42</time>
        <extensions><speed>0.65</speed></extensions>
      </trkpt>
      <trkpt lat="51.871380000" lon="7.603795000">
        <ele>67.4</ele>
        <time>2017-04-29T07:07:43</time>
        <extensions><speed>0.65</speed></extensions>
      </trkpt>
      <trkpt lat="51.871395000" lon="7.603788000">
        <ele>67.4</ele>
        <time>2017-04-29T07:07:44</time>
        <extensions><speed>0.84</speed></extensions>
      </trkpt>
      <trkpt lat="51.871407000" lon="7.603785000">
        <ele>67.3</ele>
        <time>2017-04-29T07:07:45</time>
        <extensions><speed>1.03</speed></extensions>
      </trkpt>
      <trkpt lat="51.871418000" lon="7.603778000">
        <ele>67.3</ele>
        <time>2017-04-29T07:07:46</time>
        <extensions><speed>1.18</speed></extensions>
      </trkpt>
      <trkpt lat="51.871429000" lon="7.603770000">
        <ele>67.2</ele>
        <time>2017-04-29T07:07:47</time>
        <extensions><speed>1.18</speed></extensions>
      </trkpt>
      <trkpt lat="51.871441000" lon="7.603764000">
        <ele>67.2</ele>
        <time>2017-04-29T07:07:48</time>
        <extensions><speed>1.18</speed></extensions>
      </trkpt>
      <trkpt lat="51.871456000" lon="7.603762000">
        <ele>67.1</ele>
        <time>2017-04-29T07:07:49</time>
        <extensions><speed>1.20</speed></extensions>
      </trkpt>
      <trkpt lat="51.871464000" lon="7.603758000">
        <ele>67.1</ele>
        <time>2017-04-29T07:07:50</time>
        <extensions><speed>1.24</speed></extensions>
      </trkpt>
      <trkpt lat="51.871479000" lon="7.603754000">
        <ele>67.0</ele>
        <time>2017-04-29T07:07:51</time>
        <extensions><speed>1.25</speed></extensions>
      </trkpt>
      <trkpt lat="51.871494000" lon="7.603743000">
        <ele>67.0</ele>
        <time>2017-04-29T07:07:52</time>
        <extensions><speed>1.29</speed></extensions>
      </trkpt>
      <trkpt lat="51.871506000" lon="7.603734000">
        <ele>66.9</ele>
        <time>2017-04-29T07:07:53</time>
        <extensions><speed>1.29</speed></extensions>
      </trkpt>
      <trkpt lat="51.871521000" lon="7.603727000">
        <ele>66.9</ele>
        <time>2017-04-29T07:07:54</time>
        <extensions><speed>1.32</speed></extensions>
      </trkpt>
      <trkpt lat="51.871529000" lon="7.603724000">
        <ele>66.8</ele>
        <time>2017-04-29T07:07:55</time>
        <extensions><speed>1.30</speed></extensions>
      </trkpt>
      <trkpt lat="51.871544000" lon="7.603715000">
        <ele>66.8</ele>
        <time>2017-04-29T07:07:56</time>
        <extensions><speed>1.27</speed></extensions>
      </trkpt>
      <trkpt lat="51.871559000" lon="7.603710000">
        <ele>66.7</ele>
        <time>2017-04-29T07:07:57</time>
        <extensions><speed>1.31</speed></extensions>
      </trkpt>
      <trkpt lat="51.871567000" lon="7.603708000">
        <ele>66.6</ele>
        <time>2017-04-29T07:07:58</time>
        <extensions><speed>1.28</speed></extensions>
      </trkpt>
      <trkpt lat="51.871582000" lon="7.603703000">
        <ele>66.6</ele>
        <time>2017-04-29T07:07:59</time>
        <extensions><speed>1.27</speed></extensions>
      </trkpt>
      <trkpt lat="51.871593000" lon="7.603697000">
        <ele>66.5</ele>
        <time>2017-04-29T07:08:00</time>
        <extensions><speed>1.29</speed></extensions>
      </trkpt>
      <trkpt lat="51.871609000" lon="7.603693000">
        <ele>66.5</ele>
        <time>2017-04-29T07:08:01</time>
        <extensions><speed>1.32</speed></extensions>
      </trkpt>
      <trkpt lat="51.871624000" lon="7.603687000">
        <ele>66.4</ele>
        <time>2017-04-29T07:08:02</time>
        <extensions><speed>1.31</speed></extensions>
      </trkpt>
      <trkpt lat="51.871635000" lon="7.603683000">
        <ele>66.4</ele>
        <time>2017-04-29T07:08:03</time>
        <extensions><speed>1.33</speed></extensions>
      </trkpt>
      <trkpt lat="51.871651000" lon="7.603682000">
        <ele>66.3</ele>
        <time>2017-04-29T07:08:04</time>
        <extensions><speed>1.33</speed></extensions>
      </trkpt>
      <trkpt lat="51.871662000" lon="7.603678000">
        <ele>66.3</ele>
        <time>2017-04-29T07:08:05</time>
        <extensions><speed>1.33</speed></extensions>
      </trkpt>
      <trkpt lat="51.871674000" lon="7.603672000">
        <ele>66.2</ele>
        <time>2017-04-29T07:08:06</time>
        <extensions><speed>1.33</speed></extensions>
      </trkpt>
      <trkpt lat="51.871689000" lon="7.603665000">
        <ele>66.2</ele>
        <time>2017-04-29T07:08:07</time>
        <extensions><speed>1.37</speed></extensions>
      </trkpt>
      <trkpt lat="51.871704000" lon="7.603662000">
        <ele>66.1</ele>
        <time>2017-04-29T07:08:08</time>
        <extensions><speed>1.34</speed></extensions>
      </trkpt>
      <trkpt lat="51.871719000" lon="7.603655000">
        <ele>66.1</ele>
        <time>2017-04-29T07:08:09</time>
        <extensions><speed>1.34</speed></extensions>
      </trkpt>
      <trkpt lat="51.871723000" lon="7.603645000">
        <ele>66.0</ele>
        <time>2017-04-29T07:08:10</time>
        <extensions><speed>1.30</speed></extensions>
      </trkpt>
      <trkpt lat="51.871735000" lon="7.603631000">
        <ele>66.0</ele>
        <time>2017-04-29T07:08:11</time>
        <extensions><speed>1.23</speed></extensions>
      </trkpt>
      <trkpt lat="51.871742000" lon="7.603613000">
        <ele>65.9</ele>
        <time>2017-04-29T07:08:12</time>
        <extensions><speed>1.22</speed></extensions>
      </trkpt>
      <trkpt lat="51.871746000" lon="7.603596000">
        <ele>65.9</ele>
        <time>2017-04-29T07:08:13</time>
        <extensions><speed>1.24</speed></extensions>
      </trkpt>
      <trkpt lat="51.871754000" lon="7.603580000">
        <ele>65.8</ele>
        <time>2017-04-29T07:08:14</time>
        <extensions><speed>1.27</speed></extensions>
      </trkpt>
      <trkpt lat="51.871765000" lon="7.603568000">
        <ele>65.8</ele>
        <time>2017-04-29T07:08:15</time>
        <extensions><speed>1.27</speed></extensions>
      </trkpt>
      <trkpt lat="51.871777000" lon="7.603557000">
        <ele>65.7</ele>
        <time>2017-04-29T07:08:16</time>
        <extensions><speed>1.27</speed></extensions>
      </trkpt>
      <trkpt lat="51.871788000" lon="7.603549000">
        <ele>65.6</ele>
        <time>2017-04-29T07:08:17</time>
        <extensions><speed>1.27</speed></extensions>
      </trkpt>
      <trkpt lat="51.871792000" lon="7.603537000">
        <ele>65.6</ele>
        <time>2017-04-29T07:08:18</time>
        <extensions><speed>1.27</speed></extensions>
      </trkpt>
      <trkpt lat="51.871803000" lon="7.603522000">
        <ele>65.5</ele>
        <time>2017-04-29T07:08:19</time>
        <extensions><speed>1.26</speed></extensions>
      </trkpt>
      <trkpt lat="51.871811000" lon="7.603508000">
        <ele>65.4</ele>
        <time>2017-04-29T07:08:20</time>
        <extensions><speed>1.27</speed></extensions>
      </trkpt>
      <trkpt lat="51.871819000" lon="7.603493000">
        <ele>65.4</ele>
        <time>2017-04-29T07:08:21</time>
        <extensions><speed>1.29</speed></extensions>
      </trkpt>
      <trkpt lat="51.871830000" lon="7.603478000">
        <ele>65.3</ele>
        <time>2017-04-29T07:08:22</time>
        <extensions><speed>1.29</speed></extensions>
      </trkpt>
      <trkpt lat="51.871845000" lon="7.603465000">
        <ele>65.3</ele>
        <time>2017-04-29T07:08:23</time>
        <extensions><speed>1.29</speed></extensions>
      </trkpt>
      <trkpt lat="51.871853000" lon="7.603450000">
        <ele>65.3</ele>
        <time>2017-04-29T07:08:24</time>
        <extensions><speed>1.30</speed></extensions>
      </trkpt>
      <trkpt lat="51.871864000" lon="7.603435000">
        <ele>65.2</ele>
        <time>2017-04-29T07:08:25</time>
        <extensions><speed>1.30</speed></extensions>
      </trkpt>
      <trkpt lat="51.871872000" lon="7.603423000">
        <ele>65.1</ele>
        <time>2017-04-29T07:08:26</time>
        <extensions><speed>1.29</speed></extensions>
      </trkpt>
      <trkpt lat="51.871880000" lon="7.603410000">
        <ele>65.1</ele>
        <time>2017-04-29T07:08:27</time>
        <extensions><speed>1.25</speed></extensions>
      </trkpt>
      <trkpt lat="51.871887000" lon="7.603396000">
        <ele>65.0</ele>
        <time>2017-04-29T07:08:28</time>
        <extensions><speed>1.26</speed></extensions>
      </trkpt>
      <trkpt lat="51.871899000" lon="7.603384000">
        <ele>64.9</ele>
        <time>2017-04-29T07:08:29</time>
        <extensions><speed>1.25</speed></extensions>
      </trkpt>
      <trkpt lat="51.871914000" lon="7.603365000">
        <ele>64.8</ele>
        <time>2017-04-29T07:08:30</time>
        <extensions><speed>1.25</speed></extensions>
      </trkpt>
      <trkpt lat="51.871922000" lon="7.603347000">
        <ele>64.8</ele>
        <time>2017-04-29T07:08:31</time>
        <extensions><speed>1.25</speed></extensions>
      </trkpt>
      <trkpt lat="51.871925000" lon="7.603345000">
        <ele>64.7</ele>
        <time>2017-04-29T07:08:32</time>
        <extensions><speed>1.16</speed></extensions>
      </trkpt>
      <trkpt lat="51.871937000" lon="7.603343000">
        <ele>64.6</ele>
        <time>2017-04-29T07:08:33</time>
        <extensions><speed>1.12</speed></extensions>
      </trkpt>
      <trkpt lat="51.871944000" lon="7.603335000">
        <ele>64.6</ele>
        <time>2017-04-29T07:08:34</time>
        <extensions><speed>1.12</speed></extensions>
      </trkpt>
      <trkpt lat="51.871956000" lon="7.603323000">
        <ele>64.5</ele>
        <time>2017-04-29T07:08:35</time>
        <extensions><speed>1.12</speed></extensions>
      </trkpt>
      <trkpt lat="51.871971000" lon="7.603310000">
        <ele>64.5</ele>
        <time>2017-04-29T07:08:36</time>
        <extensions><speed>1.29</speed></extensions>
      </trkpt>
      <trkpt lat="51.871983000" lon="7.603297000">
        <ele>64.4</ele>
        <time>2017-04-29T07:08:37</time>
        <extensions><speed>1.36</speed></extensions>
      </trkpt>
      <trkpt lat="51.871994000" lon="7.603285000">
        <ele>64.4</ele>
        <time>2017-04-29T07:08:38</time>
        <extensions><speed>1.36</speed></extensions>
      </trkpt>
      <trkpt lat="51.872005000" lon="7.603275000">
        <ele>64.3</ele>
        <time>2017-04-29T07:08:39</time>
        <extensions><speed>1.37</speed></extensions>
      </trkpt>
      <trkpt lat="51.872013000" lon="7.603263000">
        <ele>64.3</ele>
        <time>2017-04-29T07:08:40</time>
        <extensions><speed>1.39</speed></extensions>
      </trkpt>
      <trkpt lat="51.872025000" lon="7.603250000">
        <ele>64.2</ele>
        <time>2017-04-29T07:08:41</time>
        <extensions><speed>1.39</speed></extensions>
      </trkpt>
      <trkpt lat="51.872040000" lon="7.603239000">
        <ele>64.2</ele>
        <time>2017-04-29T07:08:42</time>
        <extensions><speed>1.41</speed></extensions>
      </trkpt>
      <trkpt lat="51.872047000" lon="7.603227000">
        <ele>64.1</ele>
        <time>2017-04-29T07:08:43</time>
        <extensions><speed>1.42</speed></extensions>
      </trkpt>
      <trkpt lat="51.872063000" lon="7.603215000">
        <ele>64.1</ele>
        <time>2017-04-29T07:08:44</time>
        <extensions><speed>1.43</speed></extensions>
      </trkpt>
      <trkpt lat="51.872078000" lon="7.603207000">
        <ele>64.0</ele>
        <time>2017-04-29T07:08:45</time>
        <extensions><speed>1.43</speed></extensions>
      </trkpt>
      <trkpt lat="51.872086000" lon="7.603197000">
        <ele>64.0</ele>
        <time>2017-04-29T07:08:46</time>
        <extensions><speed>1.42</speed></extensions>
      </trkpt>
      <trkpt lat="51.872097000" lon="7.603185000">
        <ele>63.9</ele>
        <time>2017-04-29T07:08:47</time>
        <extensions><speed>1.41</speed></extensions>
      </trkpt>
      <trkpt lat="51.872108000" lon="7.603179000">
        <ele>63.9</ele>
        <time>2017-04-29T07:08:48</time>
        <extensions><speed>1.39</speed></extensions>
      </trkpt>
      <trkpt lat="51.872120000" lon="7.603170000">
        <ele>63.8</ele>
        <time>2017-04-29T07:08:49</time>
        <extensions><speed>1.39</speed></extensions>
      </trkpt>
      <trkpt lat="51.872135000" lon="7.603158000">
        <ele>63.8</ele>
        <time>2017-04-29T07:08:50</time>
        <extensions><speed>1.38</speed></extensions>
      </trkpt>
      <trkpt lat="51.872147000" lon="7.603148000">
        <ele>63.7</ele>
        <time>2017-04-29T07:08:51</time>
        <extensions><speed>1.35</speed></extensions>
      </trkpt>
      <trkpt lat="51.872154000" lon="7.603135000">
        <ele>63.7</ele>
        <time>2017-04-29T07:08:52</time>
        <extensions><speed>1.35</speed></extensions>
      </trkpt>
      <trkpt lat="51.872166000" lon="7.603125000">
        <ele>63.7</ele>
        <time>2017-04-29T07:08:53</time>
        <extensions><speed>1.37</speed></extensions>
      </trkpt>
      <trkpt lat="51.872177000" lon="7.603117000">
        <ele>63.6</ele>
        <time>2017-04-29T07:08:54</time>
        <extensions><speed>1.38</speed></extensions>
      </trkpt>
      <trkpt lat="51.872192000" lon="7.603109000">
        <ele>63.6</ele>
        <time>2017-04-29T07:08:55</time>
        <extensions><speed>1.32</speed></extensions>
      </trkpt>
      <trkpt lat="51.872204000" lon="7.603102000">
        <ele>63.5</ele>
        <time>2017-04-29T07:08:56</time>
        <extensions><speed>1.32</speed></extensions>
      </trkpt>
      <trkpt lat="51.872211000" lon="7.603090000">
        <ele>63.5</ele>
        <time>2017-04-29T07:08:57</time>
        <extensions><speed>1.35</speed></extensions>
      </trkpt>
      <trkpt lat="51.872223000" lon="7.603081000">
        <ele>63.5</ele>
        <time>2017-04-29T07:08:58</time>
        <extensions><speed>1.30</speed></extensions>
      </trkpt>
      <trkpt lat="51.872234000" lon="7.603075000">
        <ele>63.4</ele>
        <time>2017-04-29T07:08:59</time>
        <extensions><speed>1.28</speed></extensions>
      </trkpt>
      <trkpt lat="51.872246000" lon="7.603070000">
        <ele>63.4</ele>
        <time>2017-04-29T07:09:00</time>
        <extensions><speed>1.30</speed></extensions>
      </trkpt>
      <trkpt lat="51.872261000" lon="7.603064000">
        <ele>63.3</ele>
        <time>2017-04-29T07:09:01</time>
        <extensions><speed>1.31</speed></extensions>
      </trkpt>
      <trkpt lat="51.872272000" lon="7.603053000">
        <ele>63.3</ele>
        <time>2017-04-29T07:09:02</time>
        <extensions><speed>1.33</speed></extensions>
      </trkpt>
      <trkpt lat="51.872280000" lon="7.603041000">
        <ele>63.3</ele>
        <time>2017-04-29T07:09:03</time>
        <extensions><speed>1.35</speed></extensions>
      </trkpt>
      <trkpt lat="51.872292000" lon="7.603032000">
        <ele>63.3</ele>
        <time>2017-04-29T07:09:04</time>
        <extensions><speed>1.35</speed></extensions>
      </trkpt>
      <trkpt lat="51.872303000" lon="7.603024000">
        <ele>63.2</ele>
        <time>2017-04-29T07:09:05</time>
        <extensions><speed>1.37</speed></extensions>
      </trkpt>
      <trkpt lat="51.872314000" lon="7.603013000">
        <ele>63.2</ele>
        <time>2017-04-29T07:09:06</time>
        <extensions><speed>1.39</speed></extensions>
      </trkpt>
      <trkpt lat="51.872330000" lon="7.603006000">
        <ele>63.2</ele>
        <time>2017-04-29T07:09:07</time>
        <extensions><speed>1.36</speed></extensions>
      </trkpt>
      <trkpt lat="51.872341000" lon="7.603002000">
        <ele>63.1</ele>
        <time>2017-04-29T07:09:08</time>
        <extensions><speed>1.34</speed></extensions>
      </trkpt>
      <trkpt lat="51.872356000" lon="7.602995000">
        <ele>63.1</ele>
        <time>2017-04-29T07:09:09</time>
        <extensions><speed>1.40</speed></extensions>
      </trkpt>
      <trkpt lat="51.872368000" lon="7.602985000">
        <ele>63.1</ele>
        <time>2017-04-29T07:09:10</time>
        <extensions><speed>1.41</speed></extensions>
      </trkpt>
      <trkpt lat="51.872375000" lon="7.602973000">
        <ele>63.0</ele>
        <time>2017-04-29T07:09:11</time>
        <extensions><speed>1.40</speed></extensions>
      </trkpt>
      <trkpt lat="51.872391000" lon="7.602963000">
        <ele>63.0</ele>
        <time>2017-04-29T07:09:12</time>
        <extensions><speed>1.36</speed></extensions>
      </trkpt>
      <trkpt lat="51.872402000" lon="7.602952000">
        <ele>63.0</ele>
        <time>2017-04-29T07:09:13</time>
        <extensions><speed>1.40</speed></extensions>
      </trkpt>
      <trkpt lat="51.872410000" lon="7.602940000">
        <ele>62.9</ele>
        <time>2017-04-29T07:09:14</time>
        <extensions><speed>1.37</speed></extensions>
      </trkpt>
      <trkpt lat="51.872421000" lon="7.602929000">
        <ele>62.9</ele>
        <time>2017-04-29T07:09:15</time>
        <extensions><speed>1.36</speed></extensions>
      </trkpt>
      <trkpt lat="51.872433000" lon="7.602915000">
        <ele>62.9</ele>
        <time>2017-04-29T07:09:16</time>
        <extensions><speed>1.36</speed></extensions>
      </trkpt>
      <trkpt lat="51.872440000" lon="7.602903000">
        <ele>62.9</ele>
        <time>2017-04-29T07:09:17</time>
        <extensions><speed>1.36</speed></extensions>
      </trkpt>
      <trkpt lat="51.872452000" lon="7.602892000">
        <ele>62.8</ele>
        <time>2017-04-29T07:09:18</time>
        <extensions><speed>1.32</speed></extensions>
      </trkpt>
      <trkpt lat="51.872463000" lon="7.602883000">
        <ele>62.8</ele>
        <time>2017-04-29T07:09:19</time>
        <extensions><speed>1.33</speed></extensions>
      </trkpt>
      <trkpt lat="51.872471000" lon="7.602875000">
        <ele>62.8</ele>
        <time>2017-04-29T07:09:20</time>
        <extensions><speed>1.30</speed></extensions>
      </trkpt>
      <trkpt lat="51.872482000" lon="7.602868000">
        <ele>62.7</ele>
        <time>2017-04-29T07:09:21</time>
        <extensions><speed>1.27</speed></extensions>
      </trkpt>
      <trkpt lat="51.872494000" lon="7.602859000">
        <ele>62.7</ele>
        <time>2017-04-29T07:09:22</time>
        <extensions><speed>1.29</speed></extensions>
      </trkpt>
      <trkpt lat="51.872505000" lon="7.602850000">
        <ele>62.7</ele>
        <time>2017-04-29T07:09:23</time>
        <extensions><speed>1.29</speed></extensions>
      </trkpt>
      <trkpt lat="51.872513000" lon="7.602840000">
        <ele>62.6</ele>
        <time>2017-04-29T07:09:24</time>
        <extensions><speed>1.25</speed></extensions>
      </trkpt>
      <trkpt lat="51.872524000" lon="7.602831000">
        <ele>62.6</ele>
        <time>2017-04-29T07:09:25</time>
        <extensions><speed>1.23</speed></extensions>
      </trkpt>
      <trkpt lat="51.872536000" lon="7.602820000">
        <ele>62.6</ele>
        <time>2017-04-29T07:09:26</time>
        <extensions><speed>1.22</speed></extensions>
      </trkpt>
      <trkpt lat="51.872540000" lon="7.602808000">
        <ele>62.6</ele>
        <time>2017-04-29T07:09:27</time>
        <extensions><speed>1.22</speed></extensions>
      </trkpt>
      <trkpt lat="51.872551000" lon="7.602800000">
        <ele>62.6</ele>
        <time>2017-04-29T07:09:28</time>
        <extensions><speed>1.24</speed></extensions>
      </trkpt>
      <trkpt lat="51.872566000" lon="7.602790000">
        <ele>62.5</ele>
        <time>2017-04-29T07:09:29</time>
        <extensions><speed>1.27</speed></extensions>
      </trkpt>
      <trkpt lat="51.872570000" lon="7.602784000">
        <ele>62.5</ele>
        <time>2017-04-29T07:09:30</time>
        <extensions><speed>1.28</speed></extensions>
      </trkpt>
      <trkpt lat="51.872581000" lon="7.602778000">
        <ele>62.5</ele>
        <time>2017-04-29T07:09:31</time>
        <extensions><speed>1.28</speed></extensions>
      </trkpt>
      <trkpt lat="51.872597000" lon="7.602771000">
        <ele>62.5</ele>
        <time>2017-04-29T07:09:32</time>
        <extensions><speed>1.27</speed></extensions>
      </trkpt>
      <trkpt lat="51.872604000" lon="7.602761000">
        <ele>62.4</ele>
        <time>2017-04-29T07:09:33</time>
        <extensions><speed>1.25</speed></extensions>
      </trkpt>
      <trkpt lat="51.872616000" lon="7.602750000">
        <ele>62.4</ele>
        <time>2017-04-29T07:09:34</time>
        <extensions><speed>1.25</speed></extensions>
      </trkpt>
      <trkpt lat="51.872627000" lon="7.602738000">
        <ele>62.4</ele>
        <time>2017-04-29T07:09:35</time>
        <extensions><speed>1.25</speed></extensions>
      </trkpt>
      <trkpt lat="51.872635000" lon="7.602730000">
        <ele>62.4</ele>
        <time>2017-04-29T07:09:36</time>
        <extensions><speed>1.25</speed></extensions>
      </trkpt>
      <trkpt lat="51.872646000" lon="7.602718000">
        <ele>62.4</ele>
        <time>2017-04-29T07:09:37</time>
        <extensions><speed>1.32</speed></extensions>
      </trkpt>
      <trkpt lat="51.872658000" lon="7.602708000">
        <ele>62.3</ele>
        <time>2017-04-29T07:09:38</time>
        <extensions><speed>1.36</speed></extensions>
      </trkpt>
      <trkpt lat="51.872669000" lon="7.602696000">
        <ele>62.3</ele>
        <time>2017-04-29T07:09:39</time>
        <extensions><speed>1.34</speed></extensions>
      </trkpt>
      <trkpt lat="51.872681000" lon="7.602687000">
        <ele>62.3</ele>
        <time>2017-04-29T07:09:40</time>
        <extensions><speed>1.38</speed></extensions>
      </trkpt>
      <trkpt lat="51.872692000" lon="7.602677000">
        <ele>62.3</ele>
        <time>2017-04-29T07:09:41</time>
        <extensions><speed>1.38</speed></extensions>
      </trkpt>
      <trkpt lat="51.872700000" lon="7.602668000">
        <ele>62.3</ele>
        <time>2017-04-29T07:09:42</time>
        <extensions><speed>1.38</speed></extensions>
      </trkpt>
      <trkpt lat="51.872715000" lon="7.602660000">
        <ele>62.3</ele>
        <time>2017-04-29T07:09:43</time>
        <extensions><speed>1.39</speed></extensions>
      </trkpt>
      <trkpt lat="51.872730000" lon="7.602655000">
        <ele>62.3</ele>
        <time>2017-04-29T07:09:44</time>
        <extensions><speed>1.39</speed></extensions>
      </trkpt>
      <trkpt lat="51.872742000" lon="7.602650000">
        <ele>62.3</ele>
        <time>2017-04-29T07:09:45</time>
        <extensions><speed>1.41</speed></extensions>
      </trkpt>
      <trkpt lat="51.872757000" lon="7.602647000">
        <ele>62.3</ele>
        <time>2017-04-29T07:09:46</time>
        <extensions><speed>1.46</speed></extensions>
      </trkpt>
      <trkpt lat="51.872768000" lon="7.602640000">
        <ele>62.3</ele>
        <time>2017-04-29T07:09:47</time>
        <extensions><speed>1.44</speed></extensions>
      </trkpt>
      <trkpt lat="51.872780000" lon="7.602632000">
        <ele>62.3</ele>
        <time>2017-04-29T07:09:48</time>
        <extensions><speed>1.44</speed></extensions>
      </trkpt>
      <trkpt lat="51.872795000" lon="7.602623000">
        <ele>62.3</ele>
        <time>2017-04-29T07:09:49</time>
        <extensions><speed>1.47</speed></extensions>
      </trkpt>
      <trkpt lat="51.872803000" lon="7.602613000">
        <ele>62.3</ele>
        <time>2017-04-29T07:09:50</time>
        <extensions><speed>1.42</speed></extensions>
      </trkpt>
      <trkpt lat="51.872814000" lon="7.602607000">
        <ele>62.3</ele>
        <time>2017-04-29T07:09:51</time>
        <extensions><speed>1.42</speed></extensions>
      </trkpt>
      <trkpt lat="51.872829000" lon="7.602600000">
        <ele>62.3</ele>
        <time>2017-04-29T07:09:52</time>
        <extensions><speed>1.46</speed></extensions>
      </trkpt>
      <trkpt lat="51.872845000" lon="7.602596000">
        <ele>62.3</ele>
        <time>2017-04-29T07:09:53</time>
        <extensions><speed>1.50</speed></extensions>
      </trkpt>
      <trkpt lat="51.872860000" lon="7.602592000">
        <ele>62.3</ele>
        <time>2017-04-29T07:09:54</time>
        <extensions><speed>1.48</speed></extensions>
      </trkpt>
      <trkpt lat="51.872868000" lon="7.602588000">
        <ele>62.3</ele>
        <time>2017-04-29T07:09:55</time>
        <extensions><speed>1.48</speed></extensions>
      </trkpt>
      <trkpt lat="51.872879000" lon="7.602582000">
        <ele>62.3</ele>
        <time>2017-04-29T07:09:56</time>
        <extensions><speed>1.46</speed></extensions>
      </trkpt>
      <trkpt lat="51.872894000" lon="7.602579000">
        <ele>62.3</ele>
        <time>2017-04-29T07:09:57</time>
        <extensions><speed>1.44</speed></extensions>
      </trkpt>
      <trkpt lat="51.872902000" lon="7.602573000">
        <ele>62.4</ele>
        <time>2017-04-29T07:09:58</time>
        <extensions><speed>1.35</speed></extensions>
      </trkpt>
      <trkpt lat="51.872913000" lon="7.602567000">
        <ele>62.4</ele>
        <time>2017-04-29T07:09:59</time>
        <extensions><speed>1.36</speed></extensions>
      </trkpt>
      <trkpt lat="51.872925000" lon="7.602561000">
        <ele>62.4</ele>
        <time>2017-04-29T07:10:00</time>
        <extensions><speed>1.44</speed></extensions>
      </trkpt>
      <trkpt lat="51.872936000" lon="7.602558000">
        <ele>62.4</ele>
        <time>2017-04-29T07:10:01</time>
        <extensions><speed>1.43</speed></extensions>
      </trkpt>
      <trkpt lat="51.872952000" lon="7.602553000">
        <ele>62.4</ele>
        <time>2017-04-29T07:10:02</time>
        <extensions><speed>1.42</speed></extensions>
      </trkpt>
      <trkpt lat="51.872963000" lon="7.602547000">
        <ele>62.4</ele>
        <time>2017-04-29T07:10:03</time>
        <extensions><speed>1.42</speed></extensions>
      </trkpt>
      <trkpt lat="51.872971000" lon="7.602543000">
        <ele>62.4</ele>
        <time>2017-04-29T07:10:04</time>
        <extensions><speed>1.36</speed></extensions>
      </trkpt>
      <trkpt lat="51.872982000" lon="7.602543000">
        <ele>62.4</ele>
        <time>2017-04-29T07:10:05</time>
        <extensions><speed>1.36</speed></extensions>
      </trkpt>
      <trkpt lat="51.872993000" lon="7.602542000">
        <ele>62.4</ele>
        <time>2017-04-29T07:10:06</time>
        <extensions><speed>1.32</speed></extensions>
      </trkpt>
      <trkpt lat="51.873005000" lon="7.602539000">
        <ele>62.5</ele>
        <time>2017-04-29T07:10:07</time>
        <extensions><speed>1.32</speed></extensions>
      </trkpt>
      <trkpt lat="51.873020000" lon="7.602537000">
        <ele>62.5</ele>
        <time>2017-04-29T07:10:08</time>
        <extensions><speed>1.37</speed></extensions>
      </trkpt>
      <trkpt lat="51.873028000" lon="7.602533000">
        <ele>62.5</ele>
        <time>2017-04-29T07:10:09</time>
        <extensions><speed>1.37</speed></extensions>
      </trkpt>
      <trkpt lat="51.873039000" lon="7.602528000">
        <ele>62.5</ele>
        <time>2017-04-29T07:10:10</time>
        <extensions><speed>1.37</speed></extensions>
      </trkpt>
      <trkpt lat="51.873055000" lon="7.602521000">
        <ele>62.5</ele>
        <time>2017-04-29T07:10:11</time>
        <extensions><speed>1.43</speed></extensions>
      </trkpt>
      <trkpt lat="51.873062000" lon="7.602517000">
        <ele>62.5</ele>
        <time>2017-04-29T07:10:12</time>
        <extensions><speed>1.38</speed></extensions>
      </trkpt>
      <trkpt lat="51.873077000" lon="7.602514000">
        <ele>62.6</ele>
        <time>2017-04-29T07:10:13</time>
        <extensions><speed>1.39</speed></extensions>
      </trkpt>
      <trkpt lat="51.873093000" lon="7.602512000">
        <ele>62.6</ele>
        <time>2017-04-29T07:10:14</time>
        <extensions><speed>1.43</speed></extensions>
      </trkpt>
      <trkpt lat="51.873100000" lon="7.602510000">
        <ele>62.6</ele>
        <time>2017-04-29T07:10:15</time>
        <extensions><speed>1.40</speed></extensions>
      </trkpt>
      <trkpt lat="51.873116000" lon="7.602505000">
        <ele>62.6</ele>
        <time>2017-04-29T07:10:16</time>
        <extensions><speed>1.38</speed></extensions>
      </trkpt>
      <trkpt lat="51.873123000" lon="7.602499000">
        <ele>62.6</ele>
        <time>2017-04-29T07:10:17</time>
        <extensions><speed>1.38</speed></extensions>
      </trkpt>
      <trkpt lat="51.873138000" lon="7.602491000">
        <ele>62.7</ele>
        <time>2017-04-29T07:10:18</time>
        <extensions><speed>1.40</speed></extensions>
      </trkpt>
      <trkpt lat="51.873150000" lon="7.602486000">
        <ele>62.7</ele>
        <time>2017-04-29T07:10:19</time>
        <extensions><speed>1.35</speed></extensions>
      </trkpt>
      <trkpt lat="51.873165000" lon="7.602477000">
        <ele>62.7</ele>
        <time>2017-04-29T07:10:20</time>
        <extensions><speed>1.35</speed></extensions>
      </trkpt>
      <trkpt lat="51.873177000" lon="7.602468000">
        <ele>62.7</ele>
        <time>2017-04-29T07:10:21</time>
        <extensions><speed>1.36</speed></extensions>
      </trkpt>
      <trkpt lat="51.873188000" lon="7.602458000">
        <ele>62.7</ele>
        <time>2017-04-29T07:10:22</time>
        <extensions><speed>1.35</speed></extensions>
      </trkpt>
      <trkpt lat="51.873196000" lon="7.602447000">
        <ele>62.8</ele>
        <time>2017-04-29T07:10:23</time>
        <extensions><speed>1.35</speed></extensions>
      </trkpt>
      <trkpt lat="51.873211000" lon="7.602435000">
        <ele>62.8</ele>
        <time>2017-04-29T07:10:24</time>
        <extensions><speed>1.40</speed></extensions>
      </trkpt>
      <trkpt lat="51.873222000" lon="7.602421000">
        <ele>62.8</ele>
        <time>2017-04-29T07:10:25</time>
        <extensions><speed>1.42</speed></extensions>
      </trkpt>
      <trkpt lat="51.873230000" lon="7.602409000">
        <ele>62.9</ele>
        <time>2017-04-29T07:10:26</time>
        <extensions><speed>1.44</speed></extensions>
      </trkpt>
      <trkpt lat="51.873238000" lon="7.602392000">
        <ele>62.9</ele>
        <time>2017-04-29T07:10:27</time>
        <extensions><speed>1.44</speed></extensions>
      </trkpt>
      <trkpt lat="51.873245000" lon="7.602376000">
        <ele>62.9</ele>
        <time>2017-04-29T07:10:28</time>
        <extensions><speed>1.40</speed></extensions>
      </trkpt>
      <trkpt lat="51.873253000" lon="7.602356000">
        <ele>62.9</ele>
        <time>2017-04-29T07:10:29</time>
        <extensions><speed>1.41</speed></extensions>
      </trkpt>
      <trkpt lat="51.873257000" lon="7.602340000">
        <ele>63.0</ele>
        <time>2017-04-29T07:10:30</time>
        <extensions><speed>1.45</speed></extensions>
      </trkpt>
      <trkpt lat="51.873264000" lon="7.602322000">
        <ele>63.0</ele>
        <time>2017-04-29T07:10:31</time>
        <extensions><speed>1.45</speed></extensions>
      </trkpt>
      <trkpt lat="51.873272000" lon="7.602304000">
        <ele>63.0</ele>
        <time>2017-04-29T07:10:32</time>
        <extensions><speed>1.48</speed></extensions>
      </trkpt>
      <trkpt lat="51.873276000" lon="7.602285000">
        <ele>63.1</ele>
        <time>2017-04-29T07:10:33</time>
        <extensions><speed>1.48</speed></extensions>
      </trkpt>
      <trkpt lat="51.873280000" lon="7.602267000">
        <ele>63.1</ele>
        <time>2017-04-29T07:10:34</time>
        <extensions><speed>1.46</speed></extensions>
      </trkpt>
      <trkpt lat="51.873283000" lon="7.602245000">
        <ele>63.2</ele>
        <time>2017-04-29T07:10:35</time>
        <extensions><speed>1.45</speed></extensions>
      </trkpt>
      <trkpt lat="51.873287000" lon="7.602223000">
        <ele>63.2</ele>
        <time>2017-04-29T07:10:36</time>
        <extensions><speed>1.45</speed></extensions>
      </trkpt>
      <trkpt lat="51.873291000" lon="7.602201000">
        <ele>63.2</ele>
        <time>2017-04-29T07:10:37</time>
        <extensions><speed>1.47</speed></extensions>
      </trkpt>
      <trkpt lat="51.873302000" lon="7.602181000">
        <ele>63.3</ele>
        <time>2017-04-29T07:10:38</time>
        <extensions><speed>1.50</speed></extensions>
      </trkpt>
      <trkpt lat="51.873314000" lon="7.602167000">
        <ele>63.3</ele>
        <time>2017-04-29T07:10:39</time>
        <extensions><speed>1.52</speed></extensions>
      </trkpt>
      <trkpt lat="51.873322000" lon="7.602150000">
        <ele>63.3</ele>
        <time>2017-04-29T07:10:40</time>
        <extensions><speed>1.53</speed></extensions>
      </trkpt>
      <trkpt lat="51.873322000" lon="7.602129000">
        <ele>63.4</ele>
        <time>2017-04-29T07:10:41</time>
        <extensions><speed>1.52</speed></extensions>
      </trkpt>
      <trkpt lat="51.873333000" lon="7.602110000">
        <ele>63.4</ele>
        <time>2017-04-29T07:10:42</time>
        <extensions><speed>1.50</speed></extensions>
      </trkpt>
      <trkpt lat="51.873341000" lon="7.602094000">
        <ele>63.5</ele>
        <time>2017-04-29T07:10:43</time>
        <extensions><speed>1.50</speed></extensions>
      </trkpt>
      <trkpt lat="51.873352000" lon="7.602077000">
        <ele>63.5</ele>
        <time>2017-04-29T07:10:44</time>
        <extensions><speed>1.51</speed></extensions>
      </trkpt>
      <trkpt lat="51.873356000" lon="7.602058000">
        <ele>63.5</ele>
        <time>2017-04-29T07:10:45</time>
        <extensions><speed>1.50</speed></extensions>
      </trkpt>
      <trkpt lat="51.873367000" lon="7.602043000">
        <ele>63.6</ele>
        <time>2017-04-29T07:10:46</time>
        <extensions><speed>1.49</speed></extensions>
      </trkpt>
      <trkpt lat="51.873375000" lon="7.602029000">
        <ele>63.7</ele>
        <time>2017-04-29T07:10:47</time>
        <extensions><speed>1.50</speed></extensions>
      </trkpt>
      <trkpt lat="51.873386000" lon="7.602012000">
        <ele>63.7</ele>
        <time>2017-04-29T07:10:48</time>
        <extensions><speed>1.45</speed></extensions>
      </trkpt>
      <trkpt lat="51.873386000" lon="7.601995000">
        <ele>63.8</ele>
        <time>2017-04-29T07:10:49</time>
        <extensions><speed>1.40</speed></extensions>
      </trkpt>
      <trkpt lat="51.873398000" lon="7.601980000">
        <ele>63.8</ele>
        <time>2017-04-29T07:10:50</time>
        <extensions><speed>1.39</speed></extensions>
      </trkpt>
      <trkpt lat="51.873405000" lon="7.601964000">
        <ele>63.9</ele>
        <time>2017-04-29T07:10:51</time>
        <extensions><speed>1.39</speed></extensions>
      </trkpt>
      <trkpt lat="51.873413000" lon="7.601950000">
        <ele>64.0</ele>
        <time>2017-04-29T07:10:52</time>
        <extensions><speed>1.36</speed></extensions>
      </trkpt>
      <trkpt lat="51.873417000" lon="7.601933000">
        <ele>64.0</ele>
        <time>2017-04-29T07:10:53</time>
        <extensions><speed>1.38</speed></extensions>
      </trkpt>
      <trkpt lat="51.873432000" lon="7.601917000">
        <ele>64.1</ele>
        <time>2017-04-29T07:10:54</time>
        <extensions><speed>1.38</speed></extensions>
      </trkpt>
      <trkpt lat="51.873444000" lon="7.601903000">
        <ele>64.1</ele>
        <time>2017-04-29T07:10:55</time>
        <extensions><speed>1.36</speed></extensions>
      </trkpt>
      <trkpt lat="51.873451000" lon="7.601891000">
        <ele>64.2</ele>
        <time>2017-04-29T07:10:56</time>
        <extensions><speed>1.36</speed></extensions>
      </trkpt>
      <trkpt lat="51.873455000" lon="7.601879000">
        <ele>64.3</ele>
        <time>2017-04-29T07:10:57</time>
        <extensions><speed>1.37</speed></extensions>
      </trkpt>
      <trkpt lat="51.873466000" lon="7.601865000">
        <ele>64.3</ele>
        <time>2017-04-29T07:10:58</time>
        <extensions><speed>1.35</speed></extensions>
      </trkpt>
      <trkpt lat="51.873478000" lon="7.601852000">
        <ele>64.4</ele>
        <time>2017-04-29T07:10:59</time>
        <extensions><speed>1.35</speed></extensions>
      </trkpt>
      <trkpt lat="51.873486000" lon="7.601833000">
        <ele>64.4</ele>
        <time>2017-04-29T07:11:00</time>
        <extensions><speed>1.43</speed></extensions>
      </trkpt>
      <trkpt lat="51.873497000" lon="7.601815000">
        <ele>64.5</ele>
        <time>2017-04-29T07:11:01</time>
        <extensions><speed>1.49</speed></extensions>
      </trkpt>
      <trkpt lat="51.873505000" lon="7.601800000">
        <ele>64.5</ele>
        <time>2017-04-29T07:11:02</time>
        <extensions><speed>1.55</speed></extensions>
      </trkpt>
      <trkpt lat="51.873516000" lon="7.601784000">
        <ele>64.6</ele>
        <time>2017-04-29T07:11:03</time>
        <extensions><speed>1.55</speed></extensions>
      </trkpt>
      <trkpt lat="51.873520000" lon="7.601770000">
        <ele>64.6</ele>
        <time>2017-04-29T07:11:04</time>
        <extensions><speed>1.50</speed></extensions>
      </trkpt>
      <trkpt lat="51.873531000" lon="7.601758000">
        <ele>64.7</ele>
        <time>2017-04-29T07:11:05</time>
        <extensions><speed>1.44</speed></extensions>
      </trkpt>
      <trkpt lat="51.873539000" lon="7.601745000">
        <ele>64.7</ele>
        <time>2017-04-29T07:11:06</time>
        <extensions><speed>1.37</speed></extensions>
      </trkpt>
      <trkpt lat="51.873543000" lon="7.601730000">
        <ele>64.7</ele>
        <time>2017-04-29T07:11:07</time>
        <extensions><speed>1.34</speed></extensions>
      </trkpt>
      <trkpt lat="51.873547000" lon="7.601712000">
        <ele>64.7</ele>
        <time>2017-04-29T07:11:08</time>
        <extensions><speed>1.36</speed></extensions>
      </trkpt>
      <trkpt lat="51.873550000" lon="7.601693000">
        <ele>64.8</ele>
        <time>2017-04-29T07:11:09</time>
        <extensions><speed>1.27</speed></extensions>
      </trkpt>
      <trkpt lat="51.873558000" lon="7.601677000">
        <ele>64.8</ele>
        <time>2017-04-29T07:11:10</time>
        <extensions><speed>1.32</speed></extensions>
      </trkpt>
      <trkpt lat="51.873562000" lon="7.601665000">
        <ele>64.8</ele>
        <time>2017-04-29T07:11:11</time>
        <extensions><speed>1.31</speed></extensions>
      </trkpt>
      <trkpt lat="51.873573000" lon="7.601656000">
        <ele>64.8</ele>
        <time>2017-04-29T07:11:12</time>
        <extensions><speed>1.23</speed></extensions>
      </trkpt>
      <trkpt lat="51.873577000" lon="7.601640000">
        <ele>64.8</ele>
        <time>2017-04-29T07:11:13</time>
        <extensions><speed>1.19</speed></extensions>
      </trkpt>
      <trkpt lat="51.873577000" lon="7.601622000">
        <ele>64.8</ele>
        <time>2017-04-29T07:11:14</time>
        <extensions><speed>1.24</speed></extensions>
      </trkpt>
      <trkpt lat="51.873581000" lon="7.601605000">
        <ele>64.8</ele>
        <time>2017-04-29T07:11:15</time>
        <extensions><speed>1.20</speed></extensions>
      </trkpt>
      <trkpt lat="51.873585000" lon="7.601588000">
        <ele>64.8</ele>
        <time>2017-04-29T07:11:16</time>
        <extensions><speed>1.20</speed></extensions>
      </trkpt>
      <trkpt lat="51.873589000" lon="7.601577000">
        <ele>64.8</ele>
        <time>2017-04-29T07:11:17</time>
        <extensions><speed>1.17</speed></extensions>
      </trkpt>
      <trkpt lat="51.873592000" lon="7.601567000">
        <ele>64.8</ele>
        <time>2017-04-29T07:11:20</time>
      </trkpt>
      <trkpt lat="51.873592000" lon="7.601557000">
        <ele>64.8</ele>
        <time>2017-04-29T07:11:22</time>
        <extensions><speed>0.15</speed></extensions>
      </trkpt>
      <trkpt lat="51.873596000" lon="7.601548000">
        <ele>64.8</ele>
        <time>2017-04-29T07:11:23</time>
      </trkpt>
      <trkpt lat="51.873608000" lon="7.601537000">
        <ele>64.8</ele>
        <time>2017-04-29T07:11:25</time>
        <extensions><speed>0.88</speed></extensions>
      </trkpt>
      <trkpt lat="51.873611000" lon="7.601533000">
        <ele>64.8</ele>
        <time>2017-04-29T07:11:26</time>
        <extensions><speed>0.94</speed></extensions>
      </trkpt>
      <trkpt lat="51.873619000" lon="7.601533000">
        <ele>64.8</ele>
        <time>2017-04-29T07:11:30</time>
      </trkpt>
      <trkpt lat="51.873631000" lon="7.601529000">
        <ele>64.8</ele>
        <time>2017-04-29T07:11:32</time>
        <extensions><speed>0.61</speed></extensions>
      </trkpt>
      <trkpt lat="51.873642000" lon="7.601523000">
        <ele>64.8</ele>
        <time>2017-04-29T07:11:33</time>
        <extensions><speed>0.78</speed></extensions>
      </trkpt>
      <trkpt lat="51.873650000" lon="7.601515000">
        <ele>64.8</ele>
        <time>2017-04-29T07:11:34</time>
        <extensions><speed>0.92</speed></extensions>
      </trkpt>
      <trkpt lat="51.873669000" lon="7.601510000">
        <ele>64.8</ele>
        <time>2017-04-29T07:11:35</time>
        <extensions><speed>1.19</speed></extensions>
      </trkpt>
      <trkpt lat="51.873680000" lon="7.601504000">
        <ele>64.8</ele>
        <time>2017-04-29T07:11:36</time>
        <extensions><speed>1.22</speed></extensions>
      </trkpt>
      <trkpt lat="51.873692000" lon="7.601499000">
        <ele>64.9</ele>
        <time>2017-04-29T07:11:37</time>
        <extensions><speed>1.33</speed></extensions>
      </trkpt>
      <trkpt lat="51.873707000" lon="7.601493000">
        <ele>64.9</ele>
        <time>2017-04-29T07:11:38</time>
        <extensions><speed>1.50</speed></extensions>
      </trkpt>
      <trkpt lat="51.873718000" lon="7.601492000">
        <ele>64.9</ele>
        <time>2017-04-29T07:11:39</time>
        <extensions><speed>1.42</speed></extensions>
      </trkpt>
      <trkpt lat="51.873730000" lon="7.601488000">
        <ele>65.0</ele>
        <time>2017-04-29T07:11:40</time>
        <extensions><speed>1.29</speed></extensions>
      </trkpt>
      <trkpt lat="51.873741000" lon="7.601485000">
        <ele>65.0</ele>
        <time>2017-04-29T07:11:41</time>
        <extensions><speed>1.40</speed></extensions>
      </trkpt>
      <trkpt lat="51.873749000" lon="7.601478000">
        <ele>65.1</ele>
        <time>2017-04-29T07:11:42</time>
        <extensions><speed>1.37</speed></extensions>
      </trkpt>
      <trkpt lat="51.873760000" lon="7.601472000">
        <ele>65.1</ele>
        <time>2017-04-29T07:11:43</time>
        <extensions><speed>1.25</speed></extensions>
      </trkpt>
      <trkpt lat="51.873775000" lon="7.601467000">
        <ele>65.2</ele>
        <time>2017-04-29T07:11:44</time>
        <extensions><speed>1.24</speed></extensions>
      </trkpt>
      <trkpt lat="51.873783000" lon="7.601460000">
        <ele>65.2</ele>
        <time>2017-04-29T07:11:45</time>
        <extensions><speed>1.23</speed></extensions>
      </trkpt>
      <trkpt lat="51.873787000" lon="7.601453000">
        <ele>65.3</ele>
        <time>2017-04-29T07:11:46</time>
      </trkpt>
      <trkpt lat="51.873791000" lon="7.601455000">
        <ele>65.4</ele>
        <time>2017-04-29T07:11:49</time>
      </trkpt>
      <trkpt lat="51.873802000" lon="7.601453000">
        <ele>65.4</ele>
        <time>2017-04-29T07:11:51</time>
        <extensions><speed>0.66</speed></extensions>
      </trkpt>
      <trkpt lat="51.873810000" lon="7.601448000">
        <ele>65.4</ele>
        <time>2017-04-29T07:11:52</time>
        <extensions><speed>0.78</speed></extensions>
      </trkpt>
      <trkpt lat="51.873821000" lon="7.601445000">
        <ele>65.5</ele>
        <time>2017-04-29T07:11:53</time>
        <extensions><speed>1.18</speed></extensions>
      </trkpt>
      <trkpt lat="51.873833000" lon="7.601437000">
        <ele>65.5</ele>
        <time>2017-04-29T07:11:54</time>
        <extensions><speed>1.28</speed></extensions>
      </trkpt>
      <trkpt lat="51.873840000" lon="7.601429000">
        <ele>65.5</ele>
        <time>2017-04-29T07:11:55</time>
        <extensions><speed>1.28</speed></extensions>
      </trkpt>
      <trkpt lat="51.873856000" lon="7.601423000">
        <ele>65.5</ele>
        <time>2017-04-29T07:11:56</time>
        <extensions><speed>1.33</speed></extensions>
      </trkpt>
      <trkpt lat="51.873867000" lon="7.601417000">
        <ele>65.5</ele>
        <time>2017-04-29T07:11:57</time>
        <extensions><speed>1.27</speed></extensions>
      </trkpt>
      <trkpt lat="51.873875000" lon="7.601410000">
        <ele>65.6</ele>
        <time>2017-04-29T07:11:58</time>
        <extensions><speed>1.27</speed></extensions>
      </trkpt>
      <trkpt lat="51.873890000" lon="7.601405000">
        <ele>65.6</ele>
        <time>2017-04-29T07:11:59</time>
        <extensions><speed>1.21</speed></extensions>
      </trkpt>
      <trkpt lat="51.873901000" lon="7.601397000">
        <ele>65.6</ele>
        <time>2017-04-29T07:12:00</time>
        <extensions><speed>1.24</speed></extensions>
      </trkpt>
      <trkpt lat="51.873913000" lon="7.601390000">
        <ele>65.7</ele>
        <time>2017-04-29T07:12:01</time>
        <extensions><speed>1.25</speed></extensions>
      </trkpt>
      <trkpt lat="51.873928000" lon="7.601382000">
        <ele>65.7</ele>
        <time>2017-04-29T07:12:02</time>
        <extensions><speed>1.34</speed></extensions>
      </trkpt>
      <trkpt lat="51.873940000" lon="7.601369000">
        <ele>65.8</ele>
        <time>2017-04-29T07:12:03</time>
        <extensions><speed>1.31</speed></extensions>
      </trkpt>
      <trkpt lat="51.873959000" lon="7.601360000">
        <ele>65.8</ele>
        <time>2017-04-29T07:12:04</time>
        <extensions><speed>1.37</speed></extensions>
      </trkpt>
      <trkpt lat="51.873970000" lon="7.601353000">
        <ele>65.8</ele>
        <time>2017-04-29T07:12:05</time>
        <extensions><speed>1.37</speed></extensions>
      </trkpt>
      <trkpt lat="51.873970000" lon="7.601346000">
        <ele>65.9</ele>
        <time>2017-04-29T07:12:06</time>
      </trkpt>
      <trkpt lat="51.873974000" lon="7.601343000">
        <ele>66.0</ele>
        <time>2017-04-29T07:12:08</time>
      </trkpt>
      <trkpt lat="51.873989000" lon="7.601338000">
        <ele>66.1</ele>
        <time>2017-04-29T07:12:10</time>
        <extensions><speed>0.58</speed></extensions>
      </trkpt>
      <trkpt lat="51.874004000" lon="7.601335000">
        <ele>66.1</ele>
        <time>2017-04-29T07:12:11</time>
        <extensions><speed>1.03</speed></extensions>
      </trkpt>
      <trkpt lat="51.874016000" lon="7.601335000">
        <ele>66.1</ele>
        <time>2017-04-29T07:12:12</time>
        <extensions><speed>1.23</speed></extensions>
      </trkpt>
      <trkpt lat="51.874031000" lon="7.601332000">
        <ele>66.1</ele>
        <time>2017-04-29T07:12:13</time>
        <extensions><speed>1.23</speed></extensions>
      </trkpt>
      <trkpt lat="51.874039000" lon="7.601327000">
        <ele>66.1</ele>
        <time>2017-04-29T07:12:14</time>
        <extensions><speed>1.21</speed></extensions>
      </trkpt>
      <trkpt lat="51.874050000" lon="7.601316000">
        <ele>66.2</ele>
        <time>2017-04-29T07:12:15</time>
        <extensions><speed>1.13</speed></extensions>
      </trkpt>
      <trkpt lat="51.874058000" lon="7.601308000">
        <ele>66.2</ele>
        <time>2017-04-29T07:12:16</time>
        <extensions><speed>0.99</speed></extensions>
      </trkpt>
      <trkpt lat="51.874069000" lon="7.601305000">
        <ele>66.2</ele>
        <time>2017-04-29T07:12:17</time>
        <extensions><speed>0.99</speed></extensions>
      </trkpt>
      <trkpt lat="51.874081000" lon="7.601299000">
        <ele>66.3</ele>
        <time>2017-04-29T07:12:18</time>
        <extensions><speed>0.99</speed></extensions>
      </trkpt>
      <trkpt lat="51.874088000" lon="7.601295000">
        <ele>66.3</ele>
        <time>2017-04-29T07:12:19</time>
        <extensions><speed>0.97</speed></extensions>
      </trkpt>
      <trkpt lat="51.874100000" lon="7.601292000">
        <ele>66.3</ele>
        <time>2017-04-29T07:12:20</time>
        <extensions><speed>0.83</speed></extensions>
      </trkpt>
      <trkpt lat="51.874107000" lon="7.601287000">
        <ele>66.4</ele>
        <time>2017-04-29T07:12:21</time>
        <extensions><speed>0.86</speed></extensions>
      </trkpt>
      <trkpt lat="51.874119000" lon="7.601280000">
        <ele>66.4</ele>
        <time>2017-04-29T07:12:22</time>
        <extensions><speed>0.72</speed></extensions>
      </trkpt>
      <trkpt lat="51.874130000" lon="7.601272000">
        <ele>66.4</ele>
        <time>2017-04-29T07:12:23</time>
        <extensions><speed>0.84</speed></extensions>
      </trkpt>
      <trkpt lat="51.874146000" lon="7.601264000">
        <ele>66.4</ele>
        <time>2017-04-29T07:12:24</time>
        <extensions><speed>0.94</speed></extensions>
      </trkpt>
      <trkpt lat="51.874165000" lon="7.601260000">
        <ele>66.5</ele>
        <time>2017-04-29T07:12:25</time>
        <extensions><speed>1.21</speed></extensions>
      </trkpt>
      <trkpt lat="51.874172000" lon="7.601255000">
        <ele>66.5</ele>
        <time>2017-04-29T07:12:26</time>
        <extensions><speed>1.25</speed></extensions>
      </trkpt>
      <trkpt lat="51.874180000" lon="7.601248000">
        <ele>66.5</ele>
        <time>2017-04-29T07:12:27</time>
        <extensions><speed>1.33</speed></extensions>
      </trkpt>
      <trkpt lat="51.874191000" lon="7.601243000">
        <ele>66.5</ele>
        <time>2017-04-29T07:12:28</time>
        <extensions><speed>1.33</speed></extensions>
      </trkpt>
      <trkpt lat="51.874203000" lon="7.601240000">
        <ele>66.5</ele>
        <time>2017-04-29T07:12:29</time>
        <extensions><speed>1.26</speed></extensions>
      </trkpt>
      <trkpt lat="51.874210000" lon="7.601240000">
        <ele>66.6</ele>
        <time>2017-04-29T07:12:31</time>
      </trkpt>
      <trkpt lat="51.874218000" lon="7.601242000">
        <ele>66.7</ele>
        <time>2017-04-29T07:12:33</time>
      </trkpt>
      <trkpt lat="51.874226000" lon="7.601238000">
        <ele>66.7</ele>
        <time>2017-04-29T07:12:35</time>
        <extensions><speed>0.37</speed></extensions>
      </trkpt>
      <trkpt lat="51.874229000" lon="7.601233000">
        <ele>66.7</ele>
        <time>2017-04-29T07:12:36</time>
        <extensions><speed>0.71</speed></extensions>
      </trkpt>
      <trkpt lat="51.874229000" lon="7.601215000">
        <ele>66.7</ele>
        <time>2017-04-29T07:12:37</time>
        <extensions><speed>0.78</speed></extensions>
      </trkpt>
      <trkpt lat="51.874233000" lon="7.601202000">
        <ele>66.7</ele>
        <time>2017-04-29T07:12:38</time>
        <extensions><speed>0.91</speed></extensions>
      </trkpt>
      <trkpt lat="51.874241000" lon="7.601194000">
        <ele>66.7</ele>
        <time>2017-04-29T07:12:39</time>
        <extensions><speed>0.93</speed></extensions>
      </trkpt>
      <trkpt lat="51.874256000" lon="7.601192000">
        <ele>66.7</ele>
        <time>2017-04-29T07:12:40</time>
        <extensions><speed>1.07</speed></extensions>
      </trkpt>
      <trkpt lat="51.874264000" lon="7.601182000">
        <ele>66.7</ele>
        <time>2017-04-29T07:12:41</time>
        <extensions><speed>1.08</speed></extensions>
      </trkpt>
      <trkpt lat="51.874275000" lon="7.601168000">
        <ele>66.7</ele>
        <time>2017-04-29T07:12:42</time>
        <extensions><speed>1.06</speed></extensions>
      </trkpt>
      <trkpt lat="51.874287000" lon="7.601159000">
        <ele>66.8</ele>
        <time>2017-04-29T07:12:43</time>
        <extensions><speed>1.06</speed></extensions>
      </trkpt>
      <trkpt lat="51.874298000" lon="7.601155000">
        <ele>66.8</ele>
        <time>2017-04-29T07:12:44</time>
        <extensions><speed>1.03</speed></extensions>
      </trkpt>
      <trkpt lat="51.874306000" lon="7.601150000">
        <ele>66.8</ele>
        <time>2017-04-29T07:12:45</time>
        <extensions><speed>1.00</speed></extensions>
      </trkpt>
      <trkpt lat="51.874317000" lon="7.601141000">
        <ele>66.8</ele>
        <time>2017-04-29T07:12:46</time>
        <extensions><speed>1.00</speed></extensions>
      </trkpt>
      <trkpt lat="51.874329000" lon="7.601137000">
        <ele>66.8</ele>
        <time>2017-04-29T07:12:47</time>
        <extensions><speed>1.00</speed></extensions>
      </trkpt>
      <trkpt lat="51.874344000" lon="7.601135000">
        <ele>66.8</ele>
        <time>2017-04-29T07:12:48</time>
        <extensions><speed>1.02</speed></extensions>
      </trkpt>
      <trkpt lat="51.874355000" lon="7.601135000">
        <ele>66.8</ele>
        <time>2017-04-29T07:12:49</time>
        <extensions><speed>1.08</speed></extensions>
      </trkpt>
      <trkpt lat="51.874367000" lon="7.601130000">
        <ele>66.8</ele>
        <time>2017-04-29T07:12:50</time>
        <extensions><speed>1.08</speed></extensions>
      </trkpt>
      <trkpt lat="51.874378000" lon="7.601124000">
        <ele>66.8</ele>
        <time>2017-04-29T07:12:51</time>
        <extensions><speed>1.01</speed></extensions>
      </trkpt>
      <trkpt lat="51.874386000" lon="7.601126000">
        <ele>66.9</ele>
        <time>2017-04-29T07:12:52</time>
        <extensions><speed>0.98</speed></extensions>
      </trkpt>
      <trkpt lat="51.874397000" lon="7.601131000">
        <ele>66.9</ele>
        <time>2017-04-29T07:12:53</time>
        <extensions><speed>0.95</speed></extensions>
      </trkpt>
      <trkpt lat="51.874405000" lon="7.601131000">
        <ele>66.9</ele>
        <time>2017-04-29T07:12:54</time>
        <extensions><speed>0.95</speed></extensions>
      </trkpt>
      <trkpt lat="51.874416000" lon="7.601130000">
        <ele>66.9</ele>
        <time>2017-04-29T07:12:55</time>
        <extensions><speed>0.96</speed></extensions>
      </trkpt>
      <trkpt lat="51.874428000" lon="7.601126000">
        <ele>67.0</ele>
        <time>2017-04-29T07:12:56</time>
        <extensions><speed>0.99</speed></extensions>
      </trkpt>
      <trkpt lat="51.874443000" lon="7.601117000">
        <ele>67.0</ele>
        <time>2017-04-29T07:12:57</time>
        <extensions><speed>1.06</speed></extensions>
      </trkpt>
      <trkpt lat="51.874451000" lon="7.601105000">
        <ele>67.0</ele>
        <time>2017-04-29T07:12:58</time>
        <extensions><speed>1.09</speed></extensions>
      </trkpt>
      <trkpt lat="51.874462000" lon="7.601097000">
        <ele>67.0</ele>
        <time>2017-04-29T07:12:59</time>
        <extensions><speed>1.14</speed></extensions>
      </trkpt>
      <trkpt lat="51.874474000" lon="7.601085000">
        <ele>67.1</ele>
        <time>2017-04-29T07:13:00</time>
        <extensions><speed>1.16</speed></extensions>
      </trkpt>
      <trkpt lat="51.874485000" lon="7.601075000">
        <ele>67.1</ele>
        <time>2017-04-29T07:13:01</time>
        <extensions><speed>1.13</speed></extensions>
      </trkpt>
      <trkpt lat="51.874496000" lon="7.601065000">
        <ele>67.1</ele>
        <time>2017-04-29T07:13:02</time>
        <extensions><speed>1.10</speed></extensions>
      </trkpt>
      <trkpt lat="51.874512000" lon="7.601056000">
        <ele>67.1</ele>
        <time>2017-04-29T07:13:03</time>
        <extensions><speed>1.12</speed></extensions>
      </trkpt>
      <trkpt lat="51.874527000" lon="7.601048000">
        <ele>67.1</ele>
        <time>2017-04-29T07:13:04</time>
        <extensions><speed>1.12</speed></extensions>
      </trkpt>
      <trkpt lat="51.874535000" lon="7.601040000">
        <ele>67.1</ele>
        <time>2017-04-29T07:13:05</time>
        <extensions><speed>1.04</speed></extensions>
      </trkpt>
      <trkpt lat="51.874546000" lon="7.601035000">
        <ele>67.1</ele>
        <time>2017-04-29T07:13:06</time>
        <extensions><speed>1.08</speed></extensions>
      </trkpt>
      <trkpt lat="51.874557000" lon="7.601028000">
        <ele>67.1</ele>
        <time>2017-04-29T07:13:07</time>
        <extensions><speed>1.08</speed></extensions>
      </trkpt>
      <trkpt lat="51.874569000" lon="7.601020000">
        <ele>67.1</ele>
        <time>2017-04-29T07:13:08</time>
        <extensions><speed>1.02</speed></extensions>
      </trkpt>
      <trkpt lat="51.874584000" lon="7.601017000">
        <ele>67.2</ele>
        <time>2017-04-29T07:13:09</time>
        <extensions><speed>0.96</speed></extensions>
      </trkpt>
      <trkpt lat="51.874596000" lon="7.601014000">
        <ele>67.2</ele>
        <time>2017-04-29T07:13:10</time>
        <extensions><speed>1.03</speed></extensions>
      </trkpt>
      <trkpt lat="51.874611000" lon="7.601005000">
        <ele>67.2</ele>
        <time>2017-04-29T07:13:11</time>
        <extensions><speed>0.96</speed></extensions>
      </trkpt>
      <trkpt lat="51.874619000" lon="7.600990000">
        <ele>67.2</ele>
        <time>2017-04-29T07:13:12</time>
        <extensions><speed>1.02</speed></extensions>
      </trkpt>
      <trkpt lat="51.874626000" lon="7.600974000">
        <ele>67.2</ele>
        <time>2017-04-29T07:13:13</time>
        <extensions><speed>0.97</speed></extensions>
      </trkpt>
      <trkpt lat="51.874634000" lon="7.600963000">
        <ele>67.2</ele>
        <time>2017-04-29T07:13:14</time>
        <extensions><speed>0.89</speed></extensions>
      </trkpt>
      <trkpt lat="51.874641000" lon="7.600956000">
        <ele>67.2</ele>
        <time>2017-04-29T07:13:15</time>
        <extensions><speed>0.75</speed></extensions>
      </trkpt>
      <trkpt lat="51.874657000" lon="7.600951000">
        <ele>67.2</ele>
        <time>2017-04-29T07:13:16</time>
        <extensions><speed>0.89</speed></extensions>
      </trkpt>
      <trkpt lat="51.874668000" lon="7.600949000">
        <ele>67.2</ele>
        <time>2017-04-29T07:13:17</time>
        <extensions><speed>0.91</speed></extensions>
      </trkpt>
      <trkpt lat="51.874683000" lon="7.600942000">
        <ele>67.3</ele>
        <time>2017-04-29T07:13:18</time>
        <extensions><speed>1.11</speed></extensions>
      </trkpt>
      <trkpt lat="51.874699000" lon="7.600937000">
        <ele>67.3</ele>
        <time>2017-04-29T07:13:19</time>
        <extensions><speed>1.27</speed></extensions>
      </trkpt>
      <trkpt lat="51.874714000" lon="7.600932000">
        <ele>67.3</ele>
        <time>2017-04-29T07:13:20</time>
        <extensions><speed>1.27</speed></extensions>
      </trkpt>
      <trkpt lat="51.874725000" lon="7.600928000">
        <ele>67.3</ele>
        <time>2017-04-29T07:13:21</time>
        <extensions><speed>1.25</speed></extensions>
      </trkpt>
      <trkpt lat="51.874741000" lon="7.600925000">
        <ele>67.3</ele>
        <time>2017-04-29T07:13:22</time>
        <extensions><speed>1.19</speed></extensions>
      </trkpt>
      <trkpt lat="51.874752000" lon="7.600923000">
        <ele>67.3</ele>
        <time>2017-04-29T07:13:23</time>
        <extensions><speed>1.15</speed></extensions>
      </trkpt>
      <trkpt lat="51.874763000" lon="7.600923000">
        <ele>67.3</ele>
        <time>2017-04-29T07:13:24</time>
        <extensions><speed>1.11</speed></extensions>
      </trkpt>
      <trkpt lat="51.874783000" lon="7.600925000">
        <ele>67.4</ele>
        <time>2017-04-29T07:13:25</time>
        <extensions><speed>1.06</speed></extensions>
      </trkpt>
      <trkpt lat="51.874790000" lon="7.600920000">
        <ele>67.4</ele>
        <time>2017-04-29T07:13:26</time>
        <extensions><speed>1.06</speed></extensions>
      </trkpt>
      <trkpt lat="51.874802000" lon="7.600914000">
        <ele>67.4</ele>
        <time>2017-04-29T07:13:27</time>
        <extensions><speed>1.06</speed></extensions>
      </trkpt>
      <trkpt lat="51.874817000" lon="7.600909000">
        <ele>67.5</ele>
        <time>2017-04-29T07:13:28</time>
        <extensions><speed>1.04</speed></extensions>
      </trkpt>
      <trkpt lat="51.874821000" lon="7.600904000">
        <ele>67.5</ele>
        <time>2017-04-29T07:13:29</time>
        <extensions><speed>1.02</speed></extensions>
      </trkpt>
      <trkpt lat="51.874836000" lon="7.600892000">
        <ele>67.5</ele>
        <time>2017-04-29T07:13:30</time>
        <extensions><speed>1.16</speed></extensions>
      </trkpt>
      <trkpt lat="51.874847000" lon="7.600881000">
        <ele>67.5</ele>
        <time>2017-04-29T07:13:31</time>
        <extensions><speed>1.27</speed></extensions>
      </trkpt>
      <trkpt lat="51.874859000" lon="7.600867000">
        <ele>67.5</ele>
        <time>2017-04-29T07:13:32</time>
        <extensions><speed>1.12</speed></extensions>
      </trkpt>
      <trkpt lat="51.874870000" lon="7.600858000">
        <ele>67.6</ele>
        <time>2017-04-29T07:13:33</time>
        <extensions><speed>1.01</speed></extensions>
      </trkpt>
      <trkpt lat="51.874878000" lon="7.600856000">
        <ele>67.6</ele>
        <time>2017-04-29T07:13:34</time>
        <extensions><speed>0.91</speed></extensions>
      </trkpt>
      <trkpt lat="51.874886000" lon="7.600860000">
        <ele>67.6</ele>
        <time>2017-04-29T07:13:35</time>
      </trkpt>
      <trkpt lat="51.874889000" lon="7.600865000">
        <ele>67.6</ele>
        <time>2017-04-29T07:13:37</time>
      </trkpt>
      <trkpt lat="51.874897000" lon="7.600863000">
        <ele>67.6</ele>
        <time>2017-04-29T07:13:39</time>
        <extensions><speed>0.45</speed></extensions>
      </trkpt>
      <trkpt lat="51.874908000" lon="7.600856000">
        <ele>67.6</ele>
        <time>2017-04-29T07:13:40</time>
        <extensions><speed>0.71</speed></extensions>
      </trkpt>
      <trkpt lat="51.874920000" lon="7.600855000">
        <ele>67.7</ele>
        <time>2017-04-29T07:13:41</time>
        <extensions><speed>0.73</speed></extensions>
      </trkpt>
      <trkpt lat="51.874935000" lon="7.600853000">
        <ele>67.7</ele>
        <time>2017-04-29T07:13:42</time>
        <extensions><speed>0.92</speed></extensions>
      </trkpt>
      <trkpt lat="51.874954000" lon="7.600848000">
        <ele>67.7</ele>
        <time>2017-04-29T07:13:43</time>
        <extensions><speed>1.08</speed></extensions>
      </trkpt>
      <trkpt lat="51.874966000" lon="7.600840000">
        <ele>67.7</ele>
        <time>2017-04-29T07:13:44</time>
        <extensions><speed>1.19</speed></extensions>
      </trkpt>
      <trkpt lat="51.874981000" lon="7.600835000">
        <ele>67.7</ele>
        <time>2017-04-29T07:13:45</time>
        <extensions><speed>1.24</speed></extensions>
      </trkpt>
      <trkpt lat="51.874992000" lon="7.600832000">
        <ele>67.8</ele>
        <time>2017-04-29T07:13:46</time>
        <extensions><speed>1.31</speed></extensions>
      </trkpt>
      <trkpt lat="51.875008000" lon="7.600827000">
        <ele>67.8</ele>
        <time>2017-04-29T07:13:47</time>
        <extensions><speed>1.27</speed></extensions>
      </trkpt>
      <trkpt lat="51.875023000" lon="7.600816000">
        <ele>67.8</ele>
        <time>2017-04-29T07:13:48</time>
        <extensions><speed>1.27</speed></extensions>
      </trkpt>
      <trkpt lat="51.875042000" lon="7.600803000">
        <ele>67.8</ele>
        <time>2017-04-29T07:13:49</time>
        <extensions><speed>1.38</speed></extensions>
      </trkpt>
      <trkpt lat="51.875057000" lon="7.600797000">
        <ele>67.9</ele>
        <time>2017-04-29T07:13:50</time>
        <extensions><speed>1.38</speed></extensions>
      </trkpt>
      <trkpt lat="51.875069000" lon="7.600791000">
        <ele>67.9</ele>
        <time>2017-04-29T07:13:51</time>
        <extensions><speed>1.36</speed></extensions>
      </trkpt>
      <trkpt lat="51.875080000" lon="7.600787000">
        <ele>67.9</ele>
        <time>2017-04-29T07:13:52</time>
        <extensions><speed>1.43</speed></extensions>
      </trkpt>
      <trkpt lat="51.875099000" lon="7.600781000">
        <ele>67.9</ele>
        <time>2017-04-29T07:13:53</time>
        <extensions><speed>1.36</speed></extensions>
      </trkpt>
      <trkpt lat="51.875114000" lon="7.600783000">
        <ele>67.9</ele>
        <time>2017-04-29T07:13:54</time>
        <extensions><speed>1.36</speed></extensions>
      </trkpt>
      <trkpt lat="51.875134000" lon="7.600780000">
        <ele>68.0</ele>
        <time>2017-04-29T07:13:55</time>
        <extensions><speed>1.36</speed></extensions>
      </trkpt>
      <trkpt lat="51.875145000" lon="7.600774000">
        <ele>68.0</ele>
        <time>2017-04-29T07:13:56</time>
        <extensions><speed>1.35</speed></extensions>
      </trkpt>
      <trkpt lat="51.875160000" lon="7.600769000">
        <ele>68.0</ele>
        <time>2017-04-29T07:13:57</time>
        <extensions><speed>1.33</speed></extensions>
      </trkpt>
      <trkpt lat="51.875179000" lon="7.600765000">
        <ele>68.1</ele>
        <time>2017-04-29T07:13:58</time>
        <extensions><speed>1.31</speed></extensions>
      </trkpt>
      <trkpt lat="51.875187000" lon="7.600762000">
        <ele>68.1</ele>
        <time>2017-04-29T07:13:59</time>
        <extensions><speed>1.20</speed></extensions>
      </trkpt>
      <trkpt lat="51.875206000" lon="7.600753000">
        <ele>68.1</ele>
        <time>2017-04-29T07:14:00</time>
        <extensions><speed>1.24</speed></extensions>
      </trkpt>
      <trkpt lat="51.875214000" lon="7.600746000">
        <ele>68.2</ele>
        <time>2017-04-29T07:14:01</time>
        <extensions><speed>1.25</speed></extensions>
      </trkpt>
      <trkpt lat="51.875221000" lon="7.600740000">
        <ele>68.2</ele>
        <time>2017-04-29T07:14:02</time>
        <extensions><speed>1.15</speed></extensions>
      </trkpt>
      <trkpt lat="51.875233000" lon="7.600742000">
        <ele>68.2</ele>
        <time>2017-04-29T07:14:03</time>
        <extensions><speed>1.15</speed></extensions>
      </trkpt>
      <trkpt lat="51.875244000" lon="7.600743000">
        <ele>68.2</ele>
        <time>2017-04-29T07:14:04</time>
        <extensions><speed>1.20</speed></extensions>
      </trkpt>
      <trkpt lat="51.875259000" lon="7.600737000">
        <ele>68.3</ele>
        <time>2017-04-29T07:14:05</time>
        <extensions><speed>1.14</speed></extensions>
      </trkpt>
      <trkpt lat="51.875267000" lon="7.600732000">
        <ele>68.3</ele>
        <time>2017-04-29T07:14:06</time>
        <extensions><speed>1.15</speed></extensions>
      </trkpt>
      <trkpt lat="51.875278000" lon="7.600727000">
        <ele>68.3</ele>
        <time>2017-04-29T07:14:07</time>
        <extensions><speed>1.21</speed></extensions>
      </trkpt>
      <trkpt lat="51.875290000" lon="7.600723000">
        <ele>68.3</ele>
        <time>2017-04-29T07:14:08</time>
        <extensions><speed>1.19</speed></extensions>
      </trkpt>
      <trkpt lat="51.875301000" lon="7.600718000">
        <ele>68.3</ele>
        <time>2017-04-29T07:14:09</time>
        <extensions><speed>1.13</speed></extensions>
      </trkpt>
      <trkpt lat="51.875309000" lon="7.600711000">
        <ele>68.4</ele>
        <time>2017-04-29T07:14:10</time>
        <extensions><speed>1.09</speed></extensions>
      </trkpt>
      <trkpt lat="51.875320000" lon="7.600705000">
        <ele>68.4</ele>
        <time>2017-04-29T07:14:11</time>
        <extensions><speed>1.04</speed></extensions>
      </trkpt>
      <trkpt lat="51.875332000" lon="7.600702000">
        <ele>68.4</ele>
        <time>2017-04-29T07:14:12</time>
        <extensions><speed>0.88</speed></extensions>
      </trkpt>
      <trkpt lat="51.875347000" lon="7.600702000">
        <ele>68.4</ele>
        <time>2017-04-29T07:14:13</time>
        <extensions><speed>0.88</speed></extensions>
      </trkpt>
      <trkpt lat="51.875370000" lon="7.600702000">
        <ele>68.4</ele>
        <time>2017-04-29T07:14:14</time>
        <extensions><speed>1.01</speed></extensions>
      </trkpt>
      <trkpt lat="51.875385000" lon="7.600700000">
        <ele>68.5</ele>
        <time>2017-04-29T07:14:15</time>
        <extensions><speed>1.19</speed></extensions>
      </trkpt>
      <trkpt lat="51.875401000" lon="7.600698000">
        <ele>68.5</ele>
        <time>2017-04-29T07:14:16</time>
        <extensions><speed>1.41</speed></extensions>
      </trkpt>
      <trkpt lat="51.875416000" lon="7.600693000">
        <ele>68.5</ele>
        <time>2017-04-29T07:14:17</time>
        <extensions><speed>1.47</speed></extensions>
      </trkpt>
      <trkpt lat="51.875435000" lon="7.600688000">
        <ele>68.5</ele>
        <time>2017-04-29T07:14:18</time>
        <extensions><speed>1.47</speed></extensions>
      </trkpt>
      <trkpt lat="51.875450000" lon="7.600685000">
        <ele>68.6</ele>
        <time>2017-04-29T07:14:19</time>
        <extensions><speed>1.55</speed></extensions>
      </trkpt>
      <trkpt lat="51.875465000" lon="7.600678000">
        <ele>68.6</ele>
        <time>2017-04-29T07:14:20</time>
        <extensions><speed>1.55</speed></extensions>
      </trkpt>
      <trkpt lat="51.875473000" lon="7.600673000">
        <ele>68.7</ele>
        <time>2017-04-29T07:14:21</time>
        <extensions><speed>1.44</speed></extensions>
      </trkpt>
      <trkpt lat="51.875481000" lon="7.600673000">
        <ele>68.7</ele>
        <time>2017-04-29T07:14:22</time>
        <extensions><speed>1.35</speed></extensions>
      </trkpt>
      <trkpt lat="51.875492000" lon="7.600670000">
        <ele>68.7</ele>
        <time>2017-04-29T07:14:23</time>
        <extensions><speed>1.24</speed></extensions>
      </trkpt>
      <trkpt lat="51.875504000" lon="7.600673000">
        <ele>68.7</ele>
        <time>2017-04-29T07:14:24</time>
        <extensions><speed>1.23</speed></extensions>
      </trkpt>
      <trkpt lat="51.875523000" lon="7.600675000">
        <ele>68.8</ele>
        <time>2017-04-29T07:14:25</time>
        <extensions><speed>1.23</speed></extensions>
      </trkpt>
      <trkpt lat="51.875538000" lon="7.600670000">
        <ele>68.8</ele>
        <time>2017-04-29T07:14:26</time>
        <extensions><speed>1.26</speed></extensions>
      </trkpt>
      <trkpt lat="51.875549000" lon="7.600665000">
        <ele>68.8</ele>
        <time>2017-04-29T07:14:27</time>
        <extensions><speed>1.34</speed></extensions>
      </trkpt>
      <trkpt lat="51.875565000" lon="7.600658000">
        <ele>68.8</ele>
        <time>2017-04-29T07:14:28</time>
        <extensions><speed>1.39</speed></extensions>
      </trkpt>
      <trkpt lat="51.875576000" lon="7.600655000">
        <ele>68.9</ele>
        <time>2017-04-29T07:14:29</time>
        <extensions><speed>1.41</speed></extensions>
      </trkpt>
      <trkpt lat="51.875591000" lon="7.600650000">
        <ele>68.9</ele>
        <time>2017-04-29T07:14:30</time>
        <extensions><speed>1.41</speed></extensions>
      </trkpt>
      <trkpt lat="51.875603000" lon="7.600646000">
        <ele>68.9</ele>
        <time>2017-04-29T07:14:31</time>
        <extensions><speed>1.43</speed></extensions>
      </trkpt>
      <trkpt lat="51.875610000" lon="7.600645000">
        <ele>68.9</ele>
        <time>2017-04-29T07:14:32</time>
        <extensions><speed>1.37</speed></extensions>
      </trkpt>
      <trkpt lat="51.875626000" lon="7.600646000">
        <ele>69.0</ele>
        <time>2017-04-29T07:14:33</time>
        <extensions><speed>1.36</speed></extensions>
      </trkpt>
      <trkpt lat="51.875637000" lon="7.600643000">
        <ele>69.0</ele>
        <time>2017-04-29T07:14:34</time>
        <extensions><speed>1.39</speed></extensions>
      </trkpt>
      <trkpt lat="51.875656000" lon="7.600640000">
        <ele>69.0</ele>
        <time>2017-04-29T07:14:35</time>
        <extensions><speed>1.36</speed></extensions>
      </trkpt>
      <trkpt lat="51.875668000" lon="7.600640000">
        <ele>69.0</ele>
        <time>2017-04-29T07:14:36</time>
        <extensions><speed>1.26</speed></extensions>
      </trkpt>
      <trkpt lat="51.875679000" lon="7.600638000">
        <ele>69.1</ele>
        <time>2017-04-29T07:14:37</time>
        <extensions><speed>1.32</speed></extensions>
      </trkpt>
      <trkpt lat="51.875698000" lon="7.600637000">
        <ele>69.1</ele>
        <time>2017-04-29T07:14:38</time>
        <extensions><speed>1.28</speed></extensions>
      </trkpt>
      <trkpt lat="51.875710000" lon="7.600636000">
        <ele>69.1</ele>
        <time>2017-04-29T07:14:39</time>
        <extensions><speed>1.28</speed></extensions>
      </trkpt>
      <trkpt lat="51.875725000" lon="7.600637000">
        <ele>69.2</ele>
        <time>2017-04-29T07:14:40</time>
        <extensions><speed>1.21</speed></extensions>
      </trkpt>
      <trkpt lat="51.875740000" lon="7.600638000">
        <ele>69.2</ele>
        <time>2017-04-29T07:14:41</time>
        <extensions><speed>1.30</speed></extensions>
      </trkpt>
      <trkpt lat="51.875748000" lon="7.600634000">
        <ele>69.2</ele>
        <time>2017-04-29T07:14:42</time>
        <extensions><speed>1.25</speed></extensions>
      </trkpt>
      <trkpt lat="51.875759000" lon="7.600636000">
        <ele>69.3</ele>
        <time>2017-04-29T07:14:43</time>
        <extensions><speed>1.28</speed></extensions>
      </trkpt>
      <trkpt lat="51.875771000" lon="7.600637000">
        <ele>69.3</ele>
        <time>2017-04-29T07:14:44</time>
        <extensions><speed>1.24</speed></extensions>
      </trkpt>
      <trkpt lat="51.875786000" lon="7.600637000">
        <ele>69.3</ele>
        <time>2017-04-29T07:14:45</time>
        <extensions><speed>1.32</speed></extensions>
      </trkpt>
      <trkpt lat="51.875801000" lon="7.600634000">
        <ele>69.4</ele>
        <time>2017-04-29T07:14:46</time>
        <extensions><speed>1.28</speed></extensions>
      </trkpt>
      <trkpt lat="51.875824000" lon="7.600628000">
        <ele>69.4</ele>
        <time>2017-04-29T07:14:47</time>
        <extensions><speed>1.34</speed></extensions>
      </trkpt>
      <trkpt lat="51.875839000" lon="7.600625000">
        <ele>69.4</ele>
        <time>2017-04-29T07:14:48</time>
        <extensions><speed>1.39</speed></extensions>
      </trkpt>
      <trkpt lat="51.875858000" lon="7.600622000">
        <ele>69.5</ele>
        <time>2017-04-29T07:14:49</time>
        <extensions><speed>1.49</speed></extensions>
      </trkpt>
      <trkpt lat="51.875870000" lon="7.600618000">
        <ele>69.5</ele>
        <time>2017-04-29T07:14:50</time>
        <extensions><speed>1.44</speed></extensions>
      </trkpt>
      <trkpt lat="51.875885000" lon="7.600610000">
        <ele>69.5</ele>
        <time>2017-04-29T07:14:51</time>
        <extensions><speed>1.44</speed></extensions>
      </trkpt>
      <trkpt lat="51.875896000" lon="7.600600000">
        <ele>69.6</ele>
        <time>2017-04-29T07:14:52</time>
        <extensions><speed>1.29</speed></extensions>
      </trkpt>
      <trkpt lat="51.875908000" lon="7.600595000">
        <ele>69.6</ele>
        <time>2017-04-29T07:14:53</time>
        <extensions><speed>1.23</speed></extensions>
      </trkpt>
      <trkpt lat="51.875923000" lon="7.600594000">
        <ele>69.6</ele>
        <time>2017-04-29T07:14:54</time>
        <extensions><speed>1.18</speed></extensions>
      </trkpt>
      <trkpt lat="51.875935000" lon="7.600590000">
        <ele>69.7</ele>
        <time>2017-04-29T07:14:55</time>
        <extensions><speed>1.20</speed></extensions>
      </trkpt>
      <trkpt lat="51.875946000" lon="7.600585000">
        <ele>69.7</ele>
        <time>2017-04-29T07:14:56</time>
        <extensions><speed>1.20</speed></extensions>
      </trkpt>
      <trkpt lat="51.875957000" lon="7.600576000">
        <ele>69.7</ele>
        <time>2017-04-29T07:14:57</time>
        <extensions><speed>1.25</speed></extensions>
      </trkpt>
      <trkpt lat="51.875969000" lon="7.600568000">
        <ele>69.7</ele>
        <time>2017-04-29T07:14:58</time>
        <extensions><speed>1.22</speed></extensions>
      </trkpt>
      <trkpt lat="51.875988000" lon="7.600564000">
        <ele>69.8</ele>
        <time>2017-04-29T07:14:59</time>
        <extensions><speed>1.31</speed></extensions>
      </trkpt>
      <trkpt lat="51.876003000" lon="7.600565000">
        <ele>69.8</ele>
        <time>2017-04-29T07:15:00</time>
        <extensions><speed>1.39</speed></extensions>
      </trkpt>
      <trkpt lat="51.876022000" lon="7.600568000">
        <ele>69.8</ele>
        <time>2017-04-29T07:15:01</time>
        <extensions><speed>1.55</speed></extensions>
      </trkpt>
      <trkpt lat="51.876026000" lon="7.600571000">
        <ele>69.9</ele>
        <time>2017-04-29T07:15:02</time>
      </trkpt>
      <trkpt lat="51.876041000" lon="7.600568000">
        <ele>69.9</ele>
        <time>2017-04-29T07:15:04</time>
        <extensions><speed>1.33</speed></extensions>
      </trkpt>
      <trkpt lat="51.876053000" lon="7.600562000">
        <ele>69.9</ele>
        <time>2017-04-29T07:15:05</time>
        <extensions><speed>1.23</speed></extensions>
      </trkpt>
      <trkpt lat="51.876068000" lon="7.600559000">
        <ele>70.0</ele>
        <time>2017-04-29T07:15:06</time>
        <extensions><speed>1.14</speed></extensions>
      </trkpt>
      <trkpt lat="51.876080000" lon="7.600559000">
        <ele>70.0</ele>
        <time>2017-04-29T07:15:07</time>
        <extensions><speed>1.29</speed></extensions>
      </trkpt>
      <trkpt lat="51.876091000" lon="7.600554000">
        <ele>70.0</ele>
        <time>2017-04-29T07:15:08</time>
        <extensions><speed>1.33</speed></extensions>
      </trkpt>
      <trkpt lat="51.876102000" lon="7.600546000">
        <ele>70.0</ele>
        <time>2017-04-29T07:15:09</time>
        <extensions><speed>1.33</speed></extensions>
      </trkpt>
      <trkpt lat="51.876110000" lon="7.600543000">
        <ele>70.1</ele>
        <time>2017-04-29T07:15:10</time>
      </trkpt>
      <trkpt lat="51.876125000" lon="7.600538000">
        <ele>70.1</ele>
        <time>2017-04-29T07:15:12</time>
        <extensions><speed>1.18</speed></extensions>
      </trkpt>
      <trkpt lat="51.876137000" lon="7.600536000">
        <ele>70.1</ele>
        <time>2017-04-29T07:15:13</time>
        <extensions><speed>1.16</speed></extensions>
      </trkpt>
      <trkpt lat="51.876152000" lon="7.600534000">
        <ele>70.1</ele>
        <time>2017-04-29T07:15:14</time>
        <extensions><speed>1.16</speed></extensions>
      </trkpt>
      <trkpt lat="51.876167000" lon="7.600530000">
        <ele>70.1</ele>
        <time>2017-04-29T07:15:15</time>
        <extensions><speed>1.21</speed></extensions>
      </trkpt>
      <trkpt lat="51.876186000" lon="7.600529000">
        <ele>70.0</ele>
        <time>2017-04-29T07:15:16</time>
        <extensions><speed>1.29</speed></extensions>
      </trkpt>
      <trkpt lat="51.876202000" lon="7.600529000">
        <ele>70.0</ele>
        <time>2017-04-29T07:15:17</time>
        <extensions><speed>1.35</speed></extensions>
      </trkpt>
      <trkpt lat="51.876217000" lon="7.600527000">
        <ele>70.0</ele>
        <time>2017-04-29T07:15:18</time>
        <extensions><speed>1.39</speed></extensions>
      </trkpt>
      <trkpt lat="51.876228000" lon="7.600523000">
        <ele>70.0</ele>
        <time>2017-04-29T07:15:19</time>
        <extensions><speed>1.42</speed></extensions>
      </trkpt>
      <trkpt lat="51.876247000" lon="7.600518000">
        <ele>70.0</ele>
        <time>2017-04-29T07:15:20</time>
        <extensions><speed>1.43</speed></extensions>
      </trkpt>
      <trkpt lat="51.876255000" lon="7.600513000">
        <ele>69.9</ele>
        <time>2017-04-29T07:15:21</time>
        <extensions><speed>1.40</speed></extensions>
      </trkpt>
      <trkpt lat="51.876270000" lon="7.600508000">
        <ele>69.9</ele>
        <time>2017-04-29T07:15:22</time>
        <extensions><speed>1.38</speed></extensions>
      </trkpt>
      <trkpt lat="51.876286000" lon="7.600503000">
        <ele>69.9</ele>
        <time>2017-04-29T07:15:23</time>
        <extensions><speed>1.40</speed></extensions>
      </trkpt>
      <trkpt lat="51.876305000" lon="7.600497000">
        <ele>69.9</ele>
        <time>2017-04-29T07:15:24</time>
        <extensions><speed>1.39</speed></extensions>
      </trkpt>
      <trkpt lat="51.876320000" lon="7.600490000">
        <ele>69.8</ele>
        <time>2017-04-29T07:15:25</time>
        <extensions><speed>1.41</speed></extensions>
      </trkpt>
      <trkpt lat="51.876331000" lon="7.600485000">
        <ele>69.8</ele>
        <time>2017-04-29T07:15:26</time>
        <extensions><speed>1.42</speed></extensions>
      </trkpt>
      <trkpt lat="51.876347000" lon="7.600478000">
        <ele>69.8</ele>
        <time>2017-04-29T07:15:27</time>
        <extensions><speed>1.45</speed></extensions>
      </trkpt>
      <trkpt lat="51.876358000" lon="7.600470000">
        <ele>69.7</ele>
        <time>2017-04-29T07:15:28</time>
        <extensions><speed>1.42</speed></extensions>
      </trkpt>
      <trkpt lat="51.876369000" lon="7.600468000">
        <ele>69.7</ele>
        <time>2017-04-29T07:15:29</time>
        <extensions><speed>1.42</speed></extensions>
      </trkpt>
      <trkpt lat="51.876385000" lon="7.600466000">
        <ele>69.7</ele>
        <time>2017-04-29T07:15:30</time>
        <extensions><speed>1.38</speed></extensions>
      </trkpt>
      <trkpt lat="51.876392000" lon="7.600465000">
        <ele>69.7</ele>
        <time>2017-04-29T07:15:31</time>
        <extensions><speed>1.28</speed></extensions>
      </trkpt>
      <trkpt lat="51.876404000" lon="7.600462000">
        <ele>69.6</ele>
        <time>2017-04-29T07:15:32</time>
        <extensions><speed>1.21</speed></extensions>
      </trkpt>
      <trkpt lat="51.876415000" lon="7.600455000">
        <ele>69.6</ele>
        <time>2017-04-29T07:15:33</time>
        <extensions><speed>1.16</speed></extensions>
      </trkpt>
      <trkpt lat="51.876431000" lon="7.600455000">
        <ele>69.6</ele>
        <time>2017-04-29T07:15:34</time>
        <extensions><speed>1.16</speed></extensions>
      </trkpt>
      <trkpt lat="51.876446000" lon="7.600453000">
        <ele>69.6</ele>
        <time>2017-04-29T07:15:35</time>
        <extensions><speed>1.22</speed></extensions>
      </trkpt>
      <trkpt lat="51.876461000" lon="7.600449000">
        <ele>69.5</ele>
        <time>2017-04-29T07:15:36</time>
        <extensions><speed>1.22</speed></extensions>
      </trkpt>
      <trkpt lat="51.876476000" lon="7.600447000">
        <ele>69.5</ele>
        <time>2017-04-29T07:15:37</time>
        <extensions><speed>1.26</speed></extensions>
      </trkpt>
      <trkpt lat="51.876492000" lon="7.600452000">
        <ele>69.5</ele>
        <time>2017-04-29T07:15:38</time>
        <extensions><speed>1.26</speed></extensions>
      </trkpt>
      <trkpt lat="51.876503000" lon="7.600450000">
        <ele>69.5</ele>
        <time>2017-04-29T07:15:39</time>
        <extensions><speed>1.26</speed></extensions>
      </trkpt>
      <trkpt lat="51.876514000" lon="7.600449000">
        <ele>69.4</ele>
        <time>2017-04-29T07:15:40</time>
        <extensions><speed>1.13</speed></extensions>
      </trkpt>
      <trkpt lat="51.876530000" lon="7.600443000">
        <ele>69.4</ele>
        <time>2017-04-29T07:15:41</time>
        <extensions><speed>1.26</speed></extensions>
      </trkpt>
      <trkpt lat="51.876549000" lon="7.600440000">
        <ele>69.4</ele>
        <time>2017-04-29T07:15:42</time>
        <extensions><speed>1.32</speed></extensions>
      </trkpt>
      <trkpt lat="51.876549000" lon="7.600435000">
        <ele>69.3</ele>
        <time>2017-04-29T07:15:43</time>
      </trkpt>
      <trkpt lat="51.876564000" lon="7.600429000">
        <ele>69.3</ele>
        <time>2017-04-29T07:15:45</time>
        <extensions><speed>1.21</speed></extensions>
      </trkpt>
      <trkpt lat="51.876575000" lon="7.600424000">
        <ele>69.3</ele>
        <time>2017-04-29T07:15:46</time>
        <extensions><speed>1.05</speed></extensions>
      </trkpt>
      <trkpt lat="51.876579000" lon="7.600425000">
        <ele>69.2</ele>
        <time>2017-04-29T07:15:48</time>
      </trkpt>
      <trkpt lat="51.876595000" lon="7.600425000">
        <ele>69.2</ele>
        <time>2017-04-29T07:15:50</time>
        <extensions><speed>0.43</speed></extensions>
      </trkpt>
      <trkpt lat="51.876606000" lon="7.600422000">
        <ele>69.2</ele>
        <time>2017-04-29T07:15:51</time>
        <extensions><speed>0.43</speed></extensions>
      </trkpt>
      <trkpt lat="51.876614000" lon="7.600417000">
        <ele>69.2</ele>
        <time>2017-04-29T07:15:52</time>
        <extensions><speed>0.69</speed></extensions>
      </trkpt>
      <trkpt lat="51.876637000" lon="7.600417000">
        <ele>69.2</ele>
        <time>2017-04-29T07:15:53</time>
        <extensions><speed>0.91</speed></extensions>
      </trkpt>
      <trkpt lat="51.876656000" lon="7.600413000">
        <ele>69.2</ele>
        <time>2017-04-29T07:15:54</time>
        <extensions><speed>1.06</speed></extensions>
      </trkpt>
      <trkpt lat="51.876671000" lon="7.600410000">
        <ele>69.2</ele>
        <time>2017-04-29T07:15:55</time>
        <extensions><speed>1.33</speed></extensions>
      </trkpt>
      <trkpt lat="51.876682000" lon="7.600408000">
        <ele>69.1</ele>
        <time>2017-04-29T07:15:56</time>
        <extensions><speed>1.40</speed></extensions>
      </trkpt>
      <trkpt lat="51.876694000" lon="7.600408000">
        <ele>69.1</ele>
        <time>2017-04-29T07:15:57</time>
      </trkpt>
      <trkpt lat="51.876709000" lon="7.600403000">
        <ele>69.1</ele>
        <time>2017-04-29T07:15:59</time>
        <extensions><speed>1.34</speed></extensions>
      </trkpt>
      <trkpt lat="51.876717000" lon="7.600401000">
        <ele>69.0</ele>
        <time>2017-04-29T07:16:00</time>
        <extensions><speed>1.10</speed></extensions>
      </trkpt>
      <trkpt lat="51.876728000" lon="7.600401000">
        <ele>69.0</ele>
        <time>2017-04-29T07:16:01</time>
        <extensions><speed>0.99</speed></extensions>
      </trkpt>
      <trkpt lat="51.876736000" lon="7.600407000">
        <ele>69.0</ele>
        <time>2017-04-29T07:16:02</time>
        <extensions><speed>0.99</speed></extensions>
      </trkpt>
      <trkpt lat="51.876743000" lon="7.600410000">
        <ele>69.0</ele>
        <time>2017-04-29T07:16:03</time>
        <extensions><speed>0.99</speed></extensions>
      </trkpt>
      <trkpt lat="51.876762000" lon="7.600405000">
        <ele>69.0</ele>
        <time>2017-04-29T07:16:04</time>
        <extensions><speed>1.08</speed></extensions>
      </trkpt>
      <trkpt lat="51.876774000" lon="7.600395000">
        <ele>69.0</ele>
        <time>2017-04-29T07:16:05</time>
        <extensions><speed>1.07</speed></extensions>
      </trkpt>
      <trkpt lat="51.876785000" lon="7.600389000">
        <ele>68.9</ele>
        <time>2017-04-29T07:16:06</time>
        <extensions><speed>1.09</speed></extensions>
      </trkpt>
      <trkpt lat="51.876804000" lon="7.600385000">
        <ele>68.9</ele>
        <time>2017-04-29T07:16:07</time>
        <extensions><speed>1.26</speed></extensions>
      </trkpt>
      <trkpt lat="51.876812000" lon="7.600379000">
        <ele>68.9</ele>
        <time>2017-04-29T07:16:08</time>
        <extensions><speed>1.27</speed></extensions>
      </trkpt>
      <trkpt lat="51.876816000" lon="7.600371000">
        <ele>68.8</ele>
        <time>2017-04-29T07:16:10</time>
      </trkpt>
      <trkpt lat="51.876823000" lon="7.600365000">
        <ele>68.8</ele>
        <time>2017-04-29T07:16:12</time>
        <extensions><speed>0.45</speed></extensions>
      </trkpt>
      <trkpt lat="51.876835000" lon="7.600359000">
        <ele>68.8</ele>
        <time>2017-04-29T07:16:13</time>
        <extensions><speed>0.45</speed></extensions>
      </trkpt>
      <trkpt lat="51.876846000" lon="7.600354000">
        <ele>68.8</ele>
        <time>2017-04-29T07:16:14</time>
        <extensions><speed>0.80</speed></extensions>
      </trkpt>
      <trkpt lat="51.876865000" lon="7.600348000">
        <ele>68.8</ele>
        <time>2017-04-29T07:16:15</time>
        <extensions><speed>1.02</speed></extensions>
      </trkpt>
      <trkpt lat="51.876881000" lon="7.600338000">
        <ele>68.7</ele>
        <time>2017-04-29T07:16:16</time>
        <extensions><speed>1.22</speed></extensions>
      </trkpt>
      <trkpt lat="51.876892000" lon="7.600330000">
        <ele>68.7</ele>
        <time>2017-04-29T07:16:17</time>
        <extensions><speed>1.28</speed></extensions>
      </trkpt>
      <trkpt lat="51.876907000" lon="7.600320000">
        <ele>68.7</ele>
        <time>2017-04-29T07:16:18</time>
        <extensions><speed>1.29</speed></extensions>
      </trkpt>
      <trkpt lat="51.876923000" lon="7.600312000">
        <ele>68.7</ele>
        <time>2017-04-29T07:16:19</time>
        <extensions><speed>1.32</speed></extensions>
      </trkpt>
      <trkpt lat="51.876938000" lon="7.600307000">
        <ele>68.6</ele>
        <time>2017-04-29T07:16:20</time>
        <extensions><speed>1.25</speed></extensions>
      </trkpt>
      <trkpt lat="51.876953000" lon="7.600300000">
        <ele>68.6</ele>
        <time>2017-04-29T07:16:21</time>
        <extensions><speed>1.16</speed></extensions>
      </trkpt>
      <trkpt lat="51.876968000" lon="7.600295000">
        <ele>68.6</ele>
        <time>2017-04-29T07:16:22</time>
        <extensions><speed>1.16</speed></extensions>
      </trkpt>
      <trkpt lat="51.876991000" lon="7.600300000">
        <ele>68.5</ele>
        <time>2017-04-29T07:16:23</time>
        <extensions><speed>1.14</speed></extensions>
      </trkpt>
      <trkpt lat="51.877007000" lon="7.600307000">
        <ele>68.5</ele>
        <time>2017-04-29T07:16:24</time>
        <extensions><speed>1.11</speed></extensions>
      </trkpt>
      <trkpt lat="51.877026000" lon="7.600312000">
        <ele>68.4</ele>
        <time>2017-04-29T07:16:25</time>
        <extensions><speed>1.15</speed></extensions>
      </trkpt>
      <trkpt lat="51.877041000" lon="7.600324000">
        <ele>68.4</ele>
        <time>2017-04-29T07:16:26</time>
        <extensions><speed>1.18</speed></extensions>
      </trkpt>
      <trkpt lat="51.877056000" lon="7.600338000">
        <ele>68.4</ele>
        <time>2017-04-29T07:16:27</time>
        <extensions><speed>1.16</speed></extensions>
      </trkpt>
      <trkpt lat="51.877068000" lon="7.600354000">
        <ele>68.3</ele>
        <time>2017-04-29T07:16:28</time>
        <extensions><speed>1.19</speed></extensions>
      </trkpt>
      <trkpt lat="51.877079000" lon="7.600365000">
        <ele>68.3</ele>
        <time>2017-04-29T07:16:29</time>
        <extensions><speed>1.22</speed></extensions>
      </trkpt>
      <trkpt lat="51.877090000" lon="7.600379000">
        <ele>68.3</ele>
        <time>2017-04-29T07:16:30</time>
        <extensions><speed>1.29</speed></extensions>
      </trkpt>
      <trkpt lat="51.877098000" lon="7.600389000">
        <ele>68.3</ele>
        <time>2017-04-29T07:16:31</time>
        <extensions><speed>1.26</speed></extensions>
      </trkpt>
      <trkpt lat="51.877113000" lon="7.600398000">
        <ele>68.3</ele>
        <time>2017-04-29T07:16:32</time>
        <extensions><speed>1.36</speed></extensions>
      </trkpt>
      <trkpt lat="51.877129000" lon="7.600408000">
        <ele>68.3</ele>
        <time>2017-04-29T07:16:33</time>
        <extensions><speed>1.34</speed></extensions>
      </trkpt>
      <trkpt lat="51.877140000" lon="7.600422000">
        <ele>68.3</ele>
        <time>2017-04-29T07:16:34</time>
        <extensions><speed>1.42</speed></extensions>
      </trkpt>
      <trkpt lat="51.877159000" lon="7.600440000">
        <ele>68.3</ele>
        <time>2017-04-29T07:16:35</time>
        <extensions><speed>1.49</speed></extensions>
      </trkpt>
      <trkpt lat="51.877174000" lon="7.600450000">
        <ele>68.3</ele>
        <time>2017-04-29T07:16:36</time>
        <extensions><speed>1.59</speed></extensions>
      </trkpt>
      <trkpt lat="51.877193000" lon="7.600462000">
        <ele>68.3</ele>
        <time>2017-04-29T07:16:37</time>
        <extensions><speed>1.46</speed></extensions>
      </trkpt>
      <trkpt lat="51.877201000" lon="7.600473000">
        <ele>68.3</ele>
        <time>2017-04-29T07:16:38</time>
        <extensions><speed>1.49</speed></extensions>
      </trkpt>
      <trkpt lat="51.877216000" lon="7.600482000">
        <ele>68.3</ele>
        <time>2017-04-29T07:16:39</time>
        <extensions><speed>1.45</speed></extensions>
      </trkpt>
      <trkpt lat="51.877232000" lon="7.600492000">
        <ele>68.3</ele>
        <time>2017-04-29T07:16:40</time>
        <extensions><speed>1.44</speed></extensions>
      </trkpt>
      <trkpt lat="51.877247000" lon="7.600503000">
        <ele>68.3</ele>
        <time>2017-04-29T07:16:41</time>
        <extensions><speed>1.45</speed></extensions>
      </trkpt>
      <trkpt lat="51.877266000" lon="7.600515000">
        <ele>68.3</ele>
        <time>2017-04-29T07:16:42</time>
        <extensions><speed>1.52</speed></extensions>
      </trkpt>
      <trkpt lat="51.877277000" lon="7.600525000">
        <ele>68.3</ele>
        <time>2017-04-29T07:16:43</time>
        <extensions><speed>1.52</speed></extensions>
      </trkpt>
      <trkpt lat="51.877293000" lon="7.600536000">
        <ele>68.3</ele>
        <time>2017-04-29T07:16:44</time>
        <extensions><speed>1.59</speed></extensions>
      </trkpt>
      <trkpt lat="51.877308000" lon="7.600548000">
        <ele>68.3</ele>
        <time>2017-04-29T07:16:45</time>
        <extensions><speed>1.69</speed></extensions>
      </trkpt>
      <trkpt lat="51.877327000" lon="7.600562000">
        <ele>68.3</ele>
        <time>2017-04-29T07:16:46</time>
        <extensions><speed>1.74</speed></extensions>
      </trkpt>
      <trkpt lat="51.877342000" lon="7.600575000">
        <ele>68.4</ele>
        <time>2017-04-29T07:16:47</time>
        <extensions><speed>1.60</speed></extensions>
      </trkpt>
      <trkpt lat="51.877361000" lon="7.600585000">
        <ele>68.4</ele>
        <time>2017-04-29T07:16:48</time>
        <extensions><speed>1.70</speed></extensions>
      </trkpt>
      <trkpt lat="51.877373000" lon="7.600599000">
        <ele>68.4</ele>
        <time>2017-04-29T07:16:49</time>
        <extensions><speed>1.68</speed></extensions>
      </trkpt>
      <trkpt lat="51.877384000" lon="7.600615000">
        <ele>68.4</ele>
        <time>2017-04-29T07:16:50</time>
        <extensions><speed>1.62</speed></extensions>
      </trkpt>
      <trkpt lat="51.877396000" lon="7.600630000">
        <ele>68.4</ele>
        <time>2017-04-29T07:16:51</time>
        <extensions><speed>1.57</speed></extensions>
      </trkpt>
      <trkpt lat="51.877411000" lon="7.600643000">
        <ele>68.4</ele>
        <time>2017-04-29T07:16:52</time>
        <extensions><speed>1.57</speed></extensions>
      </trkpt>
      <trkpt lat="51.877426000" lon="7.600658000">
        <ele>68.4</ele>
        <time>2017-04-29T07:16:53</time>
        <extensions><speed>1.57</speed></extensions>
      </trkpt>
      <trkpt lat="51.877441000" lon="7.600675000">
        <ele>68.4</ele>
        <time>2017-04-29T07:16:54</time>
        <extensions><speed>1.60</speed></extensions>
      </trkpt>
      <trkpt lat="51.877445000" lon="7.600693000">
        <ele>68.5</ele>
        <time>2017-04-29T07:16:55</time>
        <extensions><speed>1.55</speed></extensions>
      </trkpt>
      <trkpt lat="51.877457000" lon="7.600711000">
        <ele>68.5</ele>
        <time>2017-04-29T07:16:56</time>
        <extensions><speed>1.54</speed></extensions>
      </trkpt>
      <trkpt lat="51.877464000" lon="7.600729000">
        <ele>68.5</ele>
        <time>2017-04-29T07:16:57</time>
        <extensions><speed>1.54</speed></extensions>
      </trkpt>
      <trkpt lat="51.877480000" lon="7.600745000">
        <ele>68.5</ele>
        <time>2017-04-29T07:16:58</time>
        <extensions><speed>1.48</speed></extensions>
      </trkpt>
      <trkpt lat="51.877491000" lon="7.600757000">
        <ele>68.6</ele>
        <time>2017-04-29T07:16:59</time>
        <extensions><speed>1.45</speed></extensions>
      </trkpt>
      <trkpt lat="51.877502000" lon="7.600769000">
        <ele>68.6</ele>
        <time>2017-04-29T07:17:00</time>
        <extensions><speed>1.47</speed></extensions>
      </trkpt>
      <trkpt lat="51.877514000" lon="7.600781000">
        <ele>68.6</ele>
        <time>2017-04-29T07:17:01</time>
        <extensions><speed>1.44</speed></extensions>
      </trkpt>
      <trkpt lat="51.877525000" lon="7.600795000">
        <ele>68.7</ele>
        <time>2017-04-29T07:17:02</time>
        <extensions><speed>1.39</speed></extensions>
      </trkpt>
      <trkpt lat="51.877533000" lon="7.600807000">
        <ele>68.7</ele>
        <time>2017-04-29T07:17:03</time>
        <extensions><speed>1.38</speed></extensions>
      </trkpt>
      <trkpt lat="51.877548000" lon="7.600821000">
        <ele>68.7</ele>
        <time>2017-04-29T07:17:04</time>
        <extensions><speed>1.44</speed></extensions>
      </trkpt>
      <trkpt lat="51.877560000" lon="7.600837000">
        <ele>68.7</ele>
        <time>2017-04-29T07:17:05</time>
        <extensions><speed>1.48</speed></extensions>
      </trkpt>
      <trkpt lat="51.877575000" lon="7.600850000">
        <ele>68.7</ele>
        <time>2017-04-29T07:17:06</time>
        <extensions><speed>1.49</speed></extensions>
      </trkpt>
      <trkpt lat="51.877586000" lon="7.600862000">
        <ele>68.7</ele>
        <time>2017-04-29T07:17:07</time>
        <extensions><speed>1.49</speed></extensions>
      </trkpt>
      <trkpt lat="51.877594000" lon="7.600872000">
        <ele>68.7</ele>
        <time>2017-04-29T07:17:08</time>
        <extensions><speed>1.49</speed></extensions>
      </trkpt>
      <trkpt lat="51.877605000" lon="7.600881000">
        <ele>68.7</ele>
        <time>2017-04-29T07:17:09</time>
        <extensions><speed>1.40</speed></extensions>
      </trkpt>
      <trkpt lat="51.877613000" lon="7.600893000">
        <ele>68.8</ele>
        <time>2017-04-29T07:17:10</time>
        <extensions><speed>1.34</speed></extensions>
      </trkpt>
      <trkpt lat="51.877625000" lon="7.600907000">
        <ele>68.8</ele>
        <time>2017-04-29T07:17:11</time>
        <extensions><speed>1.31</speed></extensions>
      </trkpt>
      <trkpt lat="51.877632000" lon="7.600925000">
        <ele>68.8</ele>
        <time>2017-04-29T07:17:12</time>
        <extensions><speed>1.32</speed></extensions>
      </trkpt>
      <trkpt lat="51.877644000" lon="7.600942000">
        <ele>68.8</ele>
        <time>2017-04-29T07:17:13</time>
        <extensions><speed>1.32</speed></extensions>
      </trkpt>
      <trkpt lat="51.877655000" lon="7.600955000">
        <ele>68.8</ele>
        <time>2017-04-29T07:17:14</time>
        <extensions><speed>1.38</speed></extensions>
      </trkpt>
      <trkpt lat="51.877659000" lon="7.600968000">
        <ele>68.8</ele>
        <time>2017-04-29T07:17:15</time>
        <extensions><speed>1.41</speed></extensions>
      </trkpt>
      <trkpt lat="51.877674000" lon="7.600986000">
        <ele>68.8</ele>
        <time>2017-04-29T07:17:16</time>
        <extensions><speed>1.45</speed></extensions>
      </trkpt>
      <trkpt lat="51.877682000" lon="7.601003000">
        <ele>68.8</ele>
        <time>2017-04-29T07:17:17</time>
        <extensions><speed>1.45</speed></extensions>
      </trkpt>
      <trkpt lat="51.877689000" lon="7.601020000">
        <ele>68.8</ele>
        <time>2017-04-29T07:17:18</time>
        <extensions><speed>1.44</speed></extensions>
      </trkpt>
      <trkpt lat="51.877697000" lon="7.601035000">
        <ele>68.9</ele>
        <time>2017-04-29T07:17:19</time>
        <extensions><speed>1.40</speed></extensions>
      </trkpt>
      <trkpt lat="51.877712000" lon="7.601048000">
        <ele>68.9</ele>
        <time>2017-04-29T07:17:20</time>
        <extensions><speed>1.42</speed></extensions>
      </trkpt>
      <trkpt lat="51.877720000" lon="7.601060000">
        <ele>68.9</ele>
        <time>2017-04-29T07:17:21</time>
        <extensions><speed>1.42</speed></extensions>
      </trkpt>
      <trkpt lat="51.877728000" lon="7.601072000">
        <ele>68.9</ele>
        <time>2017-04-29T07:17:22</time>
        <extensions><speed>1.45</speed></extensions>
      </trkpt>
      <trkpt lat="51.877739000" lon="7.601087000">
        <ele>68.9</ele>
        <time>2017-04-29T07:17:23</time>
        <extensions><speed>1.52</speed></extensions>
      </trkpt>
      <trkpt lat="51.877750000" lon="7.601103000">
        <ele>68.9</ele>
        <time>2017-04-29T07:17:24</time>
        <extensions><speed>1.58</speed></extensions>
      </trkpt>
      <trkpt lat="51.877758000" lon="7.601117000">
        <ele>68.9</ele>
        <time>2017-04-29T07:17:25</time>
        <extensions><speed>1.59</speed></extensions>
      </trkpt>
      <trkpt lat="51.877766000" lon="7.601126000">
        <ele>68.9</ele>
        <time>2017-04-29T07:17:26</time>
        <extensions><speed>1.54</speed></extensions>
      </trkpt>
      <trkpt lat="51.877773000" lon="7.601137000">
        <ele>68.9</ele>
        <time>2017-04-29T07:17:27</time>
        <extensions><speed>1.47</speed></extensions>
      </trkpt>
      <trkpt lat="51.877785000" lon="7.601152000">
        <ele>69.0</ele>
        <time>2017-04-29T07:17:28</time>
        <extensions><speed>1.46</speed></extensions>
      </trkpt>
      <trkpt lat="51.877792000" lon="7.601166000">
        <ele>69.0</ele>
        <time>2017-04-29T07:17:29</time>
        <extensions><speed>1.45</speed></extensions>
      </trkpt>
      <trkpt lat="51.877804000" lon="7.601180000">
        <ele>69.0</ele>
        <time>2017-04-29T07:17:30</time>
        <extensions><speed>1.47</speed></extensions>
      </trkpt>
      <trkpt lat="51.877815000" lon="7.601194000">
        <ele>69.0</ele>
        <time>2017-04-29T07:17:31</time>
        <extensions><speed>1.50</speed></extensions>
      </trkpt>
      <trkpt lat="51.877827000" lon="7.601208000">
        <ele>69.0</ele>
        <time>2017-04-29T07:17:32</time>
        <extensions><speed>1.51</speed></extensions>
      </trkpt>
      <trkpt lat="51.877838000" lon="7.601222000">
        <ele>69.0</ele>
        <time>2017-04-29T07:17:33</time>
        <extensions><speed>1.46</speed></extensions>
      </trkpt>
      <trkpt lat="51.877850000" lon="7.601235000">
        <ele>69.0</ele>
        <time>2017-04-29T07:17:34</time>
        <extensions><speed>1.45</speed></extensions>
      </trkpt>
      <trkpt lat="51.877857000" lon="7.601248000">
        <ele>69.0</ele>
        <time>2017-04-29T07:17:35</time>
        <extensions><speed>1.45</speed></extensions>
      </trkpt>
      <trkpt lat="51.877872000" lon="7.601260000">
        <ele>69.0</ele>
        <time>2017-04-29T07:17:36</time>
        <extensions><speed>1.49</speed></extensions>
      </trkpt>
      <trkpt lat="51.877884000" lon="7.601275000">
        <ele>69.0</ele>
        <time>2017-04-29T07:17:37</time>
        <extensions><speed>1.54</speed></extensions>
      </trkpt>
      <trkpt lat="51.877895000" lon="7.601288000">
        <ele>69.0</ele>
        <time>2017-04-29T07:17:38</time>
        <extensions><speed>1.54</speed></extensions>
      </trkpt>
      <trkpt lat="51.877911000" lon="7.601303000">
        <ele>69.0</ele>
        <time>2017-04-29T07:17:39</time>
        <extensions><speed>1.52</speed></extensions>
      </trkpt>
      <trkpt lat="51.877922000" lon="7.601315000">
        <ele>69.0</ele>
        <time>2017-04-29T07:17:40</time>
        <extensions><speed>1.48</speed></extensions>
      </trkpt>
      <trkpt lat="51.877930000" lon="7.601329000">
        <ele>68.9</ele>
        <time>2017-04-29T07:17:41</time>
        <extensions><speed>1.43</speed></extensions>
      </trkpt>
      <trkpt lat="51.877945000" lon="7.601341000">
        <ele>68.9</ele>
        <time>2017-04-29T07:17:42</time>
        <extensions><speed>1.43</speed></extensions>
      </trkpt>
      <trkpt lat="51.877953000" lon="7.601355000">
        <ele>68.9</ele>
        <time>2017-04-29T07:17:43</time>
        <extensions><speed>1.47</speed></extensions>
      </trkpt>
      <trkpt lat="51.877968000" lon="7.601369000">
        <ele>68.9</ele>
        <time>2017-04-29T07:17:44</time>
        <extensions><speed>1.53</speed></extensions>
      </trkpt>
      <trkpt lat="51.877983000" lon="7.601382000">
        <ele>68.9</ele>
        <time>2017-04-29T07:17:45</time>
        <extensions><speed>1.55</speed></extensions>
      </trkpt>
      <trkpt lat="51.877991000" lon="7.601395000">
        <ele>68.9</ele>
        <time>2017-04-29T07:17:46</time>
        <extensions><speed>1.55</speed></extensions>
      </trkpt>
      <trkpt lat="51.877998000" lon="7.601406000">
        <ele>68.9</ele>
        <time>2017-04-29T07:17:47</time>
        <extensions><speed>1.51</speed></extensions>
      </trkpt>
      <trkpt lat="51.878010000" lon="7.601420000">
        <ele>68.9</ele>
        <time>2017-04-29T07:17:48</time>
        <extensions><speed>1.45</speed></extensions>
      </trkpt>
      <trkpt lat="51.878021000" lon="7.601435000">
        <ele>68.8</ele>
        <time>2017-04-29T07:17:49</time>
        <extensions><speed>1.40</speed></extensions>
      </trkpt>
      <trkpt lat="51.878033000" lon="7.601450000">
        <ele>68.8</ele>
        <time>2017-04-29T07:17:50</time>
        <extensions><speed>1.40</speed></extensions>
      </trkpt>
      <trkpt lat="51.878044000" lon="7.601463000">
        <ele>68.8</ele>
        <time>2017-04-29T07:17:51</time>
        <extensions><speed>1.38</speed></extensions>
      </trkpt>
      <trkpt lat="51.878048000" lon="7.601476000">
        <ele>68.8</ele>
        <time>2017-04-29T07:17:52</time>
        <extensions><speed>1.40</speed></extensions>
      </trkpt>
      <trkpt lat="51.878063000" lon="7.601493000">
        <ele>68.8</ele>
        <time>2017-04-29T07:17:53</time>
        <extensions><speed>1.46</speed></extensions>
      </trkpt>
      <trkpt lat="51.878075000" lon="7.601510000">
        <ele>68.8</ele>
        <time>2017-04-29T07:17:54</time>
        <extensions><speed>1.53</speed></extensions>
      </trkpt>
      <trkpt lat="51.878086000" lon="7.601527000">
        <ele>68.8</ele>
        <time>2017-04-29T07:17:55</time>
        <extensions><speed>1.52</speed></extensions>
      </trkpt>
      <trkpt lat="51.878101000" lon="7.601542000">
        <ele>68.7</ele>
        <time>2017-04-29T07:17:56</time>
        <extensions><speed>1.52</speed></extensions>
      </trkpt>
      <trkpt lat="51.878113000" lon="7.601557000">
        <ele>68.7</ele>
        <time>2017-04-29T07:17:57</time>
        <extensions><speed>1.54</speed></extensions>
      </trkpt>
      <trkpt lat="51.878120000" lon="7.601572000">
        <ele>68.7</ele>
        <time>2017-04-29T07:17:58</time>
        <extensions><speed>1.56</speed></extensions>
      </trkpt>
      <trkpt lat="51.878132000" lon="7.601585000">
        <ele>68.7</ele>
        <time>2017-04-29T07:17:59</time>
        <extensions><speed>1.50</speed></extensions>
      </trkpt>
      <trkpt lat="51.878147000" lon="7.601597000">
        <ele>68.7</ele>
        <time>2017-04-29T07:18:00</time>
        <extensions><speed>1.51</speed></extensions>
      </trkpt>
      <trkpt lat="51.878166000" lon="7.601609000">
        <ele>68.7</ele>
        <time>2017-04-29T07:18:01</time>
        <extensions><speed>1.60</speed></extensions>
      </trkpt>
      <trkpt lat="51.878178000" lon="7.601620000">
        <ele>68.6</ele>
        <time>2017-04-29T07:18:02</time>
        <extensions><speed>1.56</speed></extensions>
      </trkpt>
      <trkpt lat="51.878193000" lon="7.601635000">
        <ele>68.6</ele>
        <time>2017-04-29T07:18:03</time>
        <extensions><speed>1.58</speed></extensions>
      </trkpt>
      <trkpt lat="51.878204000" lon="7.601650000">
        <ele>68.6</ele>
        <time>2017-04-29T07:18:04</time>
        <extensions><speed>1.64</speed></extensions>
      </trkpt>
      <trkpt lat="51.878212000" lon="7.601667000">
        <ele>68.6</ele>
        <time>2017-04-29T07:18:05</time>
        <extensions><speed>1.59</speed></extensions>
      </trkpt>
      <trkpt lat="51.878227000" lon="7.601683000">
        <ele>68.6</ele>
        <time>2017-04-29T07:18:06</time>
        <extensions><speed>1.59</speed></extensions>
      </trkpt>
      <trkpt lat="51.878242000" lon="7.601700000">
        <ele>68.6</ele>
        <time>2017-04-29T07:18:07</time>
        <extensions><speed>1.67</speed></extensions>
      </trkpt>
      <trkpt lat="51.878254000" lon="7.601716000">
        <ele>68.5</ele>
        <time>2017-04-29T07:18:08</time>
        <extensions><speed>1.64</speed></extensions>
      </trkpt>
      <trkpt lat="51.878265000" lon="7.601730000">
        <ele>68.5</ele>
        <time>2017-04-29T07:18:09</time>
        <extensions><speed>1.61</speed></extensions>
      </trkpt>
      <trkpt lat="51.878273000" lon="7.601745000">
        <ele>68.5</ele>
        <time>2017-04-29T07:18:10</time>
        <extensions><speed>1.58</speed></extensions>
      </trkpt>
      <trkpt lat="51.878281000" lon="7.601761000">
        <ele>68.5</ele>
        <time>2017-04-29T07:18:11</time>
        <extensions><speed>1.48</speed></extensions>
      </trkpt>
      <trkpt lat="51.878288000" lon="7.601772000">
        <ele>68.5</ele>
        <time>2017-04-29T07:18:12</time>
        <extensions><speed>1.41</speed></extensions>
      </trkpt>
      <trkpt lat="51.878300000" lon="7.601782000">
        <ele>68.5</ele>
        <time>2017-04-29T07:18:13</time>
        <extensions><speed>1.41</speed></extensions>
      </trkpt>
      <trkpt lat="51.878315000" lon="7.601795000">
        <ele>68.5</ele>
        <time>2017-04-29T07:18:14</time>
        <extensions><speed>1.51</speed></extensions>
      </trkpt>
      <trkpt lat="51.878326000" lon="7.601810000">
        <ele>68.5</ele>
        <time>2017-04-29T07:18:15</time>
        <extensions><speed>1.57</speed></extensions>
      </trkpt>
      <trkpt lat="51.878342000" lon="7.601825000">
        <ele>68.4</ele>
        <time>2017-04-29T07:18:16</time>
        <extensions><speed>1.62</speed></extensions>
      </trkpt>
      <trkpt lat="51.878349000" lon="7.601837000">
        <ele>68.4</ele>
        <time>2017-04-29T07:18:17</time>
        <extensions><speed>1.62</speed></extensions>
      </trkpt>
      <trkpt lat="51.878368000" lon="7.601851000">
        <ele>68.4</ele>
        <time>2017-04-29T07:18:18</time>
        <extensions><speed>1.65</speed></extensions>
      </trkpt>
      <trkpt lat="51.878376000" lon="7.601863000">
        <ele>68.4</ele>
        <time>2017-04-29T07:18:19</time>
        <extensions><speed>1.61</speed></extensions>
      </trkpt>
      <trkpt lat="51.878387000" lon="7.601877000">
        <ele>68.4</ele>
        <time>2017-04-29T07:18:20</time>
        <extensions><speed>1.53</speed></extensions>
      </trkpt>
      <trkpt lat="51.878403000" lon="7.601891000">
        <ele>68.4</ele>
        <time>2017-04-29T07:18:21</time>
        <extensions><speed>1.55</speed></extensions>
      </trkpt>
      <trkpt lat="51.878410000" lon="7.601902000">
        <ele>68.3</ele>
        <time>2017-04-29T07:18:22</time>
        <extensions><speed>1.59</speed></extensions>
      </trkpt>
      <trkpt lat="51.878422000" lon="7.601917000">
        <ele>68.3</ele>
        <time>2017-04-29T07:18:23</time>
        <extensions><speed>1.60</speed></extensions>
      </trkpt>
      <trkpt lat="51.878437000" lon="7.601932000">
        <ele>68.3</ele>
        <time>2017-04-29T07:18:24</time>
        <extensions><speed>1.66</speed></extensions>
      </trkpt>
      <trkpt lat="51.878445000" lon="7.601947000">
        <ele>68.3</ele>
        <time>2017-04-29T07:18:25</time>
        <extensions><speed>1.66</speed></extensions>
      </trkpt>
      <trkpt lat="51.878456000" lon="7.601961000">
        <ele>68.2</ele>
        <time>2017-04-29T07:18:26</time>
        <extensions><speed>1.60</speed></extensions>
      </trkpt>
      <trkpt lat="51.878468000" lon="7.601977000">
        <ele>68.2</ele>
        <time>2017-04-29T07:18:27</time>
        <extensions><speed>1.50</speed></extensions>
      </trkpt>
      <trkpt lat="51.878471000" lon="7.601990000">
        <ele>68.2</ele>
        <time>2017-04-29T07:18:28</time>
        <extensions><speed>1.40</speed></extensions>
      </trkpt>
      <trkpt lat="51.878483000" lon="7.602006000">
        <ele>68.1</ele>
        <time>2017-04-29T07:18:29</time>
        <extensions><speed>1.40</speed></extensions>
      </trkpt>
      <trkpt lat="51.878494000" lon="7.602022000">
        <ele>68.1</ele>
        <time>2017-04-29T07:18:30</time>
        <extensions><speed>1.52</speed></extensions>
      </trkpt>
      <trkpt lat="51.878502000" lon="7.602036000">
        <ele>68.1</ele>
        <time>2017-04-29T07:18:31</time>
        <extensions><speed>1.42</speed></extensions>
      </trkpt>
      <trkpt lat="51.878510000" lon="7.602052000">
        <ele>68.0</ele>
        <time>2017-04-29T07:18:32</time>
        <extensions><speed>1.48</speed></extensions>
      </trkpt>
      <trkpt lat="51.878521000" lon="7.602062000">
        <ele>68.0</ele>
        <time>2017-04-29T07:18:33</time>
        <extensions><speed>1.47</speed></extensions>
      </trkpt>
      <trkpt lat="51.878529000" lon="7.602068000">
        <ele>68.0</ele>
        <time>2017-04-29T07:18:34</time>
        <extensions><speed>1.33</speed></extensions>
      </trkpt>
      <trkpt lat="51.878536000" lon="7.602080000">
        <ele>68.0</ele>
        <time>2017-04-29T07:18:35</time>
        <extensions><speed>1.33</speed></extensions>
      </trkpt>
      <trkpt lat="51.878551000" lon="7.602092000">
        <ele>67.9</ele>
        <time>2017-04-29T07:18:36</time>
        <extensions><speed>1.44</speed></extensions>
      </trkpt>
      <trkpt lat="51.878559000" lon="7.602105000">
        <ele>67.9</ele>
        <time>2017-04-29T07:18:37</time>
        <extensions><speed>1.43</speed></extensions>
      </trkpt>
      <trkpt lat="51.878567000" lon="7.602117000">
        <ele>67.8</ele>
        <time>2017-04-29T07:18:38</time>
        <extensions><speed>1.42</speed></extensions>
      </trkpt>
      <trkpt lat="51.878574000" lon="7.602127000">
        <ele>67.8</ele>
        <time>2017-04-29T07:18:39</time>
        <extensions><speed>1.42</speed></extensions>
      </trkpt>
      <trkpt lat="51.878586000" lon="7.602138000">
        <ele>67.8</ele>
        <time>2017-04-29T07:18:40</time>
        <extensions><speed>1.34</speed></extensions>
      </trkpt>
      <trkpt lat="51.878597000" lon="7.602152000">
        <ele>67.7</ele>
        <time>2017-04-29T07:18:41</time>
        <extensions><speed>1.34</speed></extensions>
      </trkpt>
      <trkpt lat="51.878605000" lon="7.602167000">
        <ele>67.7</ele>
        <time>2017-04-29T07:18:42</time>
        <extensions><speed>1.39</speed></extensions>
      </trkpt>
      <trkpt lat="51.878624000" lon="7.602183000">
        <ele>67.6</ele>
        <time>2017-04-29T07:18:43</time>
        <extensions><speed>1.48</speed></extensions>
      </trkpt>
      <trkpt lat="51.878632000" lon="7.602197000">
        <ele>67.6</ele>
        <time>2017-04-29T07:18:44</time>
        <extensions><speed>1.55</speed></extensions>
      </trkpt>
      <trkpt lat="51.878639000" lon="7.602210000">
        <ele>67.5</ele>
        <time>2017-04-29T07:18:45</time>
        <extensions><speed>1.55</speed></extensions>
      </trkpt>
      <trkpt lat="51.878651000" lon="7.602225000">
        <ele>67.5</ele>
        <time>2017-04-29T07:18:46</time>
        <extensions><speed>1.47</speed></extensions>
      </trkpt>
      <trkpt lat="51.878658000" lon="7.602240000">
        <ele>67.4</ele>
        <time>2017-04-29T07:18:47</time>
        <extensions><speed>1.45</speed></extensions>
      </trkpt>
      <trkpt lat="51.878666000" lon="7.602253000">
        <ele>67.4</ele>
        <time>2017-04-29T07:18:48</time>
        <extensions><speed>1.42</speed></extensions>
      </trkpt>
      <trkpt lat="51.878677000" lon="7.602269000">
        <ele>67.3</ele>
        <time>2017-04-29T07:18:49</time>
        <extensions><speed>1.42</speed></extensions>
      </trkpt>
      <trkpt lat="51.878689000" lon="7.602282000">
        <ele>67.3</ele>
        <time>2017-04-29T07:18:50</time>
        <extensions><speed>1.50</speed></extensions>
      </trkpt>
      <trkpt lat="51.878696000" lon="7.602295000">
        <ele>67.2</ele>
        <time>2017-04-29T07:18:51</time>
        <extensions><speed>1.52</speed></extensions>
      </trkpt>
      <trkpt lat="51.878708000" lon="7.602307000">
        <ele>67.2</ele>
        <time>2017-04-29T07:18:52</time>
        <extensions><speed>1.50</speed></extensions>
      </trkpt>
      <trkpt lat="51.878723000" lon="7.602320000">
        <ele>67.1</ele>
        <time>2017-04-29T07:18:53</time>
        <extensions><speed>1.58</speed></extensions>
      </trkpt>
      <trkpt lat="51.878735000" lon="7.602332000">
        <ele>67.1</ele>
        <time>2017-04-29T07:18:54</time>
        <extensions><speed>1.59</speed></extensions>
      </trkpt>
      <trkpt lat="51.878746000" lon="7.602343000">
        <ele>67.0</ele>
        <time>2017-04-29T07:18:55</time>
        <extensions><speed>1.51</speed></extensions>
      </trkpt>
      <trkpt lat="51.878757000" lon="7.602355000">
        <ele>66.9</ele>
        <time>2017-04-29T07:18:56</time>
        <extensions><speed>1.49</speed></extensions>
      </trkpt>
      <trkpt lat="51.878765000" lon="7.602367000">
        <ele>66.9</ele>
        <time>2017-04-29T07:18:57</time>
        <extensions><speed>1.55</speed></extensions>
      </trkpt>
      <trkpt lat="51.878777000" lon="7.602381000">
        <ele>66.8</ele>
        <time>2017-04-29T07:18:58</time>
        <extensions><speed>1.50</speed></extensions>
      </trkpt>
      <trkpt lat="51.878788000" lon="7.602396000">
        <ele>66.7</ele>
        <time>2017-04-29T07:18:59</time>
        <extensions><speed>1.47</speed></extensions>
      </trkpt>
      <trkpt lat="51.878799000" lon="7.602412000">
        <ele>66.7</ele>
        <time>2017-04-29T07:19:00</time>
        <extensions><speed>1.52</speed></extensions>
      </trkpt>
      <trkpt lat="51.878815000" lon="7.602423000">
        <ele>66.6</ele>
        <time>2017-04-29T07:19:01</time>
        <extensions><speed>1.55</speed></extensions>
      </trkpt>
      <trkpt lat="51.878826000" lon="7.602437000">
        <ele>66.5</ele>
        <time>2017-04-29T07:19:02</time>
        <extensions><speed>1.50</speed></extensions>
      </trkpt>
      <trkpt lat="51.878834000" lon="7.602451000">
        <ele>66.5</ele>
        <time>2017-04-29T07:19:03</time>
        <extensions><speed>1.42</speed></extensions>
      </trkpt>
      <trkpt lat="51.878841000" lon="7.602467000">
        <ele>66.4</ele>
        <time>2017-04-29T07:19:04</time>
        <extensions><speed>1.40</speed></extensions>
      </trkpt>
      <trkpt lat="51.878853000" lon="7.602482000">
        <ele>66.3</ele>
        <time>2017-04-29T07:19:05</time>
        <extensions><speed>1.37</speed></extensions>
      </trkpt>
      <trkpt lat="51.878864000" lon="7.602497000">
        <ele>66.3</ele>
        <time>2017-04-29T07:19:06</time>
        <extensions><speed>1.37</speed></extensions>
      </trkpt>
      <trkpt lat="51.878880000" lon="7.602510000">
        <ele>66.3</ele>
        <time>2017-04-29T07:19:07</time>
        <extensions><speed>1.50</speed></extensions>
      </trkpt>
      <trkpt lat="51.878891000" lon="7.602521000">
        <ele>66.3</ele>
        <time>2017-04-29T07:19:08</time>
        <extensions><speed>1.50</speed></extensions>
      </trkpt>
      <trkpt lat="51.878899000" lon="7.602530000">
        <ele>66.3</ele>
        <time>2017-04-29T07:19:09</time>
        <extensions><speed>1.56</speed></extensions>
      </trkpt>
      <trkpt lat="51.878902000" lon="7.602542000">
        <ele>66.3</ele>
        <time>2017-04-29T07:19:10</time>
        <extensions><speed>1.49</speed></extensions>
      </trkpt>
      <trkpt lat="51.878910000" lon="7.602555000">
        <ele>66.3</ele>
        <time>2017-04-29T07:19:11</time>
        <extensions><speed>1.42</speed></extensions>
      </trkpt>
      <trkpt lat="51.878925000" lon="7.602568000">
        <ele>66.3</ele>
        <time>2017-04-29T07:19:12</time>
        <extensions><speed>1.40</speed></extensions>
      </trkpt>
      <trkpt lat="51.878933000" lon="7.602582000">
        <ele>66.3</ele>
        <time>2017-04-29T07:19:13</time>
        <extensions><speed>1.44</speed></extensions>
      </trkpt>
      <trkpt lat="51.878944000" lon="7.602596000">
        <ele>66.4</ele>
        <time>2017-04-29T07:19:14</time>
        <extensions><speed>1.40</speed></extensions>
      </trkpt>
      <trkpt lat="51.878956000" lon="7.602610000">
        <ele>66.4</ele>
        <time>2017-04-29T07:19:15</time>
        <extensions><speed>1.40</speed></extensions>
      </trkpt>
      <trkpt lat="51.878963000" lon="7.602623000">
        <ele>66.4</ele>
        <time>2017-04-29T07:19:16</time>
        <extensions><speed>1.45</speed></extensions>
      </trkpt>
      <trkpt lat="51.878979000" lon="7.602640000">
        <ele>66.5</ele>
        <time>2017-04-29T07:19:17</time>
        <extensions><speed>1.46</speed></extensions>
      </trkpt>
      <trkpt lat="51.878990000" lon="7.602654000">
        <ele>66.5</ele>
        <time>2017-04-29T07:19:18</time>
        <extensions><speed>1.51</speed></extensions>
      </trkpt>
      <trkpt lat="51.878998000" lon="7.602668000">
        <ele>66.5</ele>
        <time>2017-04-29T07:19:19</time>
        <extensions><speed>1.60</speed></extensions>
      </trkpt>
      <trkpt lat="51.879009000" lon="7.602684000">
        <ele>66.6</ele>
        <time>2017-04-29T07:19:20</time>
        <extensions><speed>1.60</speed></extensions>
      </trkpt>
      <trkpt lat="51.879021000" lon="7.602696000">
        <ele>66.6</ele>
        <time>2017-04-29T07:19:21</time>
        <extensions><speed>1.63</speed></extensions>
      </trkpt>
      <trkpt lat="51.879032000" lon="7.602706000">
        <ele>66.7</ele>
        <time>2017-04-29T07:19:22</time>
        <extensions><speed>1.54</speed></extensions>
      </trkpt>
      <trkpt lat="51.879044000" lon="7.602717000">
        <ele>66.7</ele>
        <time>2017-04-29T07:19:23</time>
        <extensions><speed>1.48</speed></extensions>
      </trkpt>
      <trkpt lat="51.879059000" lon="7.602728000">
        <ele>66.7</ele>
        <time>2017-04-29T07:19:24</time>
        <extensions><speed>1.47</speed></extensions>
      </trkpt>
      <trkpt lat="51.879070000" lon="7.602740000">
        <ele>66.8</ele>
        <time>2017-04-29T07:19:25</time>
        <extensions><speed>1.56</speed></extensions>
      </trkpt>
      <trkpt lat="51.879086000" lon="7.602754000">
        <ele>66.8</ele>
        <time>2017-04-29T07:19:26</time>
        <extensions><speed>1.56</speed></extensions>
      </trkpt>
      <trkpt lat="51.879101000" lon="7.602765000">
        <ele>66.9</ele>
        <time>2017-04-29T07:19:27</time>
        <extensions><speed>1.63</speed></extensions>
      </trkpt>
      <trkpt lat="51.879112000" lon="7.602777000">
        <ele>66.9</ele>
        <time>2017-04-29T07:19:28</time>
        <extensions><speed>1.63</speed></extensions>
      </trkpt>
      <trkpt lat="51.879124000" lon="7.602788000">
        <ele>66.9</ele>
        <time>2017-04-29T07:19:29</time>
        <extensions><speed>1.61</speed></extensions>
      </trkpt>
      <trkpt lat="51.879131000" lon="7.602801000">
        <ele>67.0</ele>
        <time>2017-04-29T07:19:30</time>
        <extensions><speed>1.55</speed></extensions>
      </trkpt>
      <trkpt lat="51.879143000" lon="7.602815000">
        <ele>67.0</ele>
        <time>2017-04-29T07:19:31</time>
        <extensions><speed>1.46</speed></extensions>
      </trkpt>
      <trkpt lat="51.879154000" lon="7.602829000">
        <ele>67.1</ele>
        <time>2017-04-29T07:19:32</time>
        <extensions><speed>1.39</speed></extensions>
      </trkpt>
      <trkpt lat="51.879162000" lon="7.602840000">
        <ele>67.1</ele>
        <time>2017-04-29T07:19:33</time>
        <extensions><speed>1.36</speed></extensions>
      </trkpt>
      <trkpt lat="51.879173000" lon="7.602853000">
        <ele>67.1</ele>
        <time>2017-04-29T07:19:34</time>
        <extensions><speed>1.33</speed></extensions>
      </trkpt>
      <trkpt lat="51.879185000" lon="7.602866000">
        <ele>67.2</ele>
        <time>2017-04-29T07:19:35</time>
        <extensions><speed>1.33</speed></extensions>
      </trkpt>
      <trkpt lat="51.879189000" lon="7.602880000">
        <ele>67.2</ele>
        <time>2017-04-29T07:19:36</time>
        <extensions><speed>1.35</speed></extensions>
      </trkpt>
      <trkpt lat="51.879196000" lon="7.602894000">
        <ele>67.2</ele>
        <time>2017-04-29T07:19:37</time>
        <extensions><speed>1.34</speed></extensions>
      </trkpt>
      <trkpt lat="51.879208000" lon="7.602905000">
        <ele>67.3</ele>
        <time>2017-04-29T07:19:38</time>
        <extensions><speed>1.38</speed></extensions>
      </trkpt>
      <trkpt lat="51.879219000" lon="7.602918000">
        <ele>67.3</ele>
        <time>2017-04-29T07:19:39</time>
        <extensions><speed>1.39</speed></extensions>
      </trkpt>
      <trkpt lat="51.879227000" lon="7.602932000">
        <ele>67.3</ele>
        <time>2017-04-29T07:19:40</time>
        <extensions><speed>1.37</speed></extensions>
      </trkpt>
      <trkpt lat="51.879242000" lon="7.602943000">
        <ele>67.4</ele>
        <time>2017-04-29T07:19:41</time>
        <extensions><speed>1.40</speed></extensions>
      </trkpt>
      <trkpt lat="51.879253000" lon="7.602959000">
        <ele>67.4</ele>
        <time>2017-04-29T07:19:42</time>
        <extensions><speed>1.44</speed></extensions>
      </trkpt>
      <trkpt lat="51.879261000" lon="7.602975000">
        <ele>67.4</ele>
        <time>2017-04-29T07:19:43</time>
        <extensions><speed>1.48</speed></extensions>
      </trkpt>
      <trkpt lat="51.879272000" lon="7.602990000">
        <ele>67.4</ele>
        <time>2017-04-29T07:19:44</time>
        <extensions><speed>1.56</speed></extensions>
      </trkpt>
      <trkpt lat="51.879288000" lon="7.603002000">
        <ele>67.5</ele>
        <time>2017-04-29T07:19:45</time>
        <extensions><speed>1.64</speed></extensions>
      </trkpt>
      <trkpt lat="51.879292000" lon="7.603015000">
        <ele>67.5</ele>
        <time>2017-04-29T07:19:46</time>
        <extensions><speed>1.62</speed></extensions>
      </trkpt>
      <trkpt lat="51.879303000" lon="7.603028000">
        <ele>67.5</ele>
        <time>2017-04-29T07:19:47</time>
        <extensions><speed>1.62</speed></extensions>
      </trkpt>
      <trkpt lat="51.879314000" lon="7.603040000">
        <ele>67.5</ele>
        <time>2017-04-29T07:19:48</time>
        <extensions><speed>1.58</speed></extensions>
      </trkpt>
      <trkpt lat="51.879322000" lon="7.603055000">
        <ele>67.6</ele>
        <time>2017-04-29T07:19:49</time>
        <extensions><speed>1.52</speed></extensions>
      </trkpt>
      <trkpt lat="51.879333000" lon="7.603070000">
        <ele>67.6</ele>
        <time>2017-04-29T07:19:50</time>
        <extensions><speed>1.50</speed></extensions>
      </trkpt>
      <trkpt lat="51.879349000" lon="7.603083000">
        <ele>67.6</ele>
        <time>2017-04-29T07:19:51</time>
        <extensions><speed>1.52</speed></extensions>
      </trkpt>
      <trkpt lat="51.879360000" lon="7.603095000">
        <ele>67.6</ele>
        <time>2017-04-29T07:19:52</time>
        <extensions><speed>1.53</speed></extensions>
      </trkpt>
      <trkpt lat="51.879372000" lon="7.603109000">
        <ele>67.6</ele>
        <time>2017-04-29T07:19:53</time>
        <extensions><speed>1.53</speed></extensions>
      </trkpt>
      <trkpt lat="51.879383000" lon="7.603123000">
        <ele>67.7</ele>
        <time>2017-04-29T07:19:54</time>
        <extensions><speed>1.55</speed></extensions>
      </trkpt>
      <trkpt lat="51.879391000" lon="7.603135000">
        <ele>67.7</ele>
        <time>2017-04-29T07:19:55</time>
        <extensions><speed>1.55</speed></extensions>
      </trkpt>
      <trkpt lat="51.879406000" lon="7.603145000">
        <ele>67.7</ele>
        <time>2017-04-29T07:19:56</time>
        <extensions><speed>1.54</speed></extensions>
      </trkpt>
      <trkpt lat="51.879414000" lon="7.603158000">
        <ele>67.7</ele>
        <time>2017-04-29T07:19:57</time>
        <extensions><speed>1.48</speed></extensions>
      </trkpt>
      <trkpt lat="51.879421000" lon="7.603170000">
        <ele>67.7</ele>
        <time>2017-04-29T07:19:58</time>
        <extensions><speed>1.43</speed></extensions>
      </trkpt>
      <trkpt lat="51.879429000" lon="7.603183000">
        <ele>67.8</ele>
        <time>2017-04-29T07:19:59</time>
        <extensions><speed>1.43</speed></extensions>
      </trkpt>
      <trkpt lat="51.879440000" lon="7.603199000">
        <ele>67.8</ele>
        <time>2017-04-29T07:20:00</time>
        <extensions><speed>1.43</speed></extensions>
      </trkpt>
      <trkpt lat="51.879448000" lon="7.603210000">
        <ele>67.8</ele>
        <time>2017-04-29T07:20:01</time>
        <extensions><speed>1.43</speed></extensions>
      </trkpt>
      <trkpt lat="51.879459000" lon="7.603221000">
        <ele>67.8</ele>
        <time>2017-04-29T07:20:02</time>
        <extensions><speed>1.50</speed></extensions>
      </trkpt>
      <trkpt lat="51.879478000" lon="7.603233000">
        <ele>67.8</ele>
        <time>2017-04-29T07:20:03</time>
        <extensions><speed>1.62</speed></extensions>
      </trkpt>
      <trkpt lat="51.879490000" lon="7.603245000">
        <ele>67.8</ele>
        <time>2017-04-29T07:20:04</time>
        <extensions><speed>1.61</speed></extensions>
      </trkpt>
      <trkpt lat="51.879505000" lon="7.603253000">
        <ele>67.9</ele>
        <time>2017-04-29T07:20:05</time>
        <extensions><speed>1.66</speed></extensions>
      </trkpt>
      <trkpt lat="51.879517000" lon="7.603263000">
        <ele>67.9</ele>
        <time>2017-04-29T07:20:06</time>
        <extensions><speed>1.66</speed></extensions>
      </trkpt>
      <trkpt lat="51.879532000" lon="7.603275000">
        <ele>67.9</ele>
        <time>2017-04-29T07:20:07</time>
        <extensions><speed>1.64</speed></extensions>
      </trkpt>
      <trkpt lat="51.879547000" lon="7.603285000">
        <ele>67.9</ele>
        <time>2017-04-29T07:20:08</time>
        <extensions><speed>1.60</speed></extensions>
      </trkpt>
      <trkpt lat="51.879555000" lon="7.603293000">
        <ele>67.9</ele>
        <time>2017-04-29T07:20:09</time>
        <extensions><speed>1.55</speed></extensions>
      </trkpt>
      <trkpt lat="51.879566000" lon="7.603300000">
        <ele>68.0</ele>
        <time>2017-04-29T07:20:10</time>
        <extensions><speed>1.49</speed></extensions>
      </trkpt>
      <trkpt lat="51.879578000" lon="7.603312000">
        <ele>68.0</ele>
        <time>2017-04-29T07:20:11</time>
        <extensions><speed>1.45</speed></extensions>
      </trkpt>
      <trkpt lat="51.879589000" lon="7.603325000">
        <ele>68.0</ele>
        <time>2017-04-29T07:20:12</time>
        <extensions><speed>1.44</speed></extensions>
      </trkpt>
      <trkpt lat="51.879601000" lon="7.603337000">
        <ele>68.1</ele>
        <time>2017-04-29T07:20:13</time>
        <extensions><speed>1.45</speed></extensions>
      </trkpt>
      <trkpt lat="51.879612000" lon="7.603349000">
        <ele>68.1</ele>
        <time>2017-04-29T07:20:14</time>
        <extensions><speed>1.46</speed></extensions>
      </trkpt>
      <trkpt lat="51.879616000" lon="7.603360000">
        <ele>68.1</ele>
        <time>2017-04-29T07:20:15</time>
        <extensions><speed>1.46</speed></extensions>
      </trkpt>
      <trkpt lat="51.879627000" lon="7.603372000">
        <ele>68.2</ele>
        <time>2017-04-29T07:20:16</time>
        <extensions><speed>1.43</speed></extensions>
      </trkpt>
      <trkpt lat="51.879639000" lon="7.603384000">
        <ele>68.2</ele>
        <time>2017-04-29T07:20:17</time>
        <extensions><speed>1.42</speed></extensions>
      </trkpt>
      <trkpt lat="51.879646000" lon="7.603398000">
        <ele>68.2</ele>
        <time>2017-04-29T07:20:18</time>
        <extensions><speed>1.41</speed></extensions>
      </trkpt>
      <trkpt lat="51.879658000" lon="7.603412000">
        <ele>68.2</ele>
        <time>2017-04-29T07:20:19</time>
        <extensions><speed>1.37</speed></extensions>
      </trkpt>
      <trkpt lat="51.879669000" lon="7.603425000">
        <ele>68.2</ele>
        <time>2017-04-29T07:20:20</time>
        <extensions><speed>1.39</speed></extensions>
      </trkpt>
      <trkpt lat="51.879677000" lon="7.603438000">
        <ele>68.3</ele>
        <time>2017-04-29T07:20:21</time>
        <extensions><speed>1.40</speed></extensions>
      </trkpt>
      <trkpt lat="51.879684000" lon="7.603448000">
        <ele>68.3</ele>
        <time>2017-04-29T07:20:22</time>
        <extensions><speed>1.37</speed></extensions>
      </trkpt>
      <trkpt lat="51.879696000" lon="7.603460000">
        <ele>68.3</ele>
        <time>2017-04-29T07:20:23</time>
        <extensions><speed>1.35</speed></extensions>
      </trkpt>
      <trkpt lat="51.879707000" lon="7.603473000">
        <ele>68.3</ele>
        <time>2017-04-29T07:20:24</time>
        <extensions><speed>1.42</speed></extensions>
      </trkpt>
      <trkpt lat="51.879715000" lon="7.603485000">
        <ele>68.3</ele>
        <time>2017-04-29T07:20:25</time>
        <extensions><speed>1.39</speed></extensions>
      </trkpt>
      <trkpt lat="51.879726000" lon="7.603495000">
        <ele>68.3</ele>
        <time>2017-04-29T07:20:26</time>
        <extensions><speed>1.39</speed></extensions>
      </trkpt>
      <trkpt lat="51.879738000" lon="7.603507000">
        <ele>68.3</ele>
        <time>2017-04-29T07:20:27</time>
        <extensions><speed>1.39</speed></extensions>
      </trkpt>
      <trkpt lat="51.879742000" lon="7.603518000">
        <ele>68.3</ele>
        <time>2017-04-29T07:20:28</time>
        <extensions><speed>1.37</speed></extensions>
      </trkpt>
      <trkpt lat="51.879753000" lon="7.603528000">
        <ele>68.3</ele>
        <time>2017-04-29T07:20:29</time>
        <extensions><speed>1.34</speed></extensions>
      </trkpt>
      <trkpt lat="51.879765000" lon="7.603538000">
        <ele>68.3</ele>
        <time>2017-04-29T07:20:30</time>
        <extensions><speed>1.33</speed></extensions>
      </trkpt>
      <trkpt lat="51.879776000" lon="7.603549000">
        <ele>68.3</ele>
        <time>2017-04-29T07:20:31</time>
        <extensions><speed>1.28</speed></extensions>
      </trkpt>
      <trkpt lat="51.879784000" lon="7.603555000">
        <ele>68.3</ele>
        <time>2017-04-29T07:20:32</time>
        <extensions><speed>1.29</speed></extensions>
      </trkpt>
      <trkpt lat="51.879795000" lon="7.603563000">
        <ele>68.3</ele>
        <time>2017-04-29T07:20:33</time>
        <extensions><speed>1.22</speed></extensions>
      </trkpt>
      <trkpt lat="51.879803000" lon="7.603570000">
        <ele>68.3</ele>
        <time>2017-04-29T07:20:34</time>
        <extensions><speed>1.21</speed></extensions>
      </trkpt>
      <trkpt lat="51.879807000" lon="7.603582000">
        <ele>68.3</ele>
        <time>2017-04-29T07:20:35</time>
        <extensions><speed>1.21</speed></extensions>
      </trkpt>
      <trkpt lat="51.879818000" lon="7.603590000">
        <ele>68.3</ele>
        <time>2017-04-29T07:20:36</time>
        <extensions><speed>1.29</speed></extensions>
      </trkpt>
      <trkpt lat="51.879829000" lon="7.603598000">
        <ele>68.4</ele>
        <time>2017-04-29T07:20:37</time>
        <extensions><speed>1.29</speed></extensions>
      </trkpt>
      <trkpt lat="51.879841000" lon="7.603607000">
        <ele>68.4</ele>
        <time>2017-04-29T07:20:38</time>
        <extensions><speed>1.32</speed></extensions>
      </trkpt>
      <trkpt lat="51.879848000" lon="7.603615000">
        <ele>68.4</ele>
        <time>2017-04-29T07:20:39</time>
        <extensions><speed>1.30</speed></extensions>
      </trkpt>
      <trkpt lat="51.879864000" lon="7.603622000">
        <ele>68.4</ele>
        <time>2017-04-29T07:20:40</time>
        <extensions><speed>1.34</speed></extensions>
      </trkpt>
      <trkpt lat="51.879871000" lon="7.603625000">
        <ele>68.4</ele>
        <time>2017-04-29T07:20:41</time>
        <extensions><speed>1.31</speed></extensions>
      </trkpt>
      <trkpt lat="51.879875000" lon="7.603633000">
        <ele>68.4</ele>
        <time>2017-04-29T07:20:42</time>
        <extensions><speed>1.23</speed></extensions>
      </trkpt>
      <trkpt lat="51.879887000" lon="7.603638000">
        <ele>68.4</ele>
        <time>2017-04-29T07:20:43</time>
        <extensions><speed>1.08</speed></extensions>
      </trkpt>
      <trkpt lat="51.879898000" lon="7.603635000">
        <ele>68.4</ele>
        <time>2017-04-29T07:20:44</time>
        <extensions><speed>1.12</speed></extensions>
      </trkpt>
      <trkpt lat="51.879913000" lon="7.603631000">
        <ele>68.4</ele>
        <time>2017-04-29T07:20:45</time>
        <extensions><speed>1.09</speed></extensions>
      </trkpt>
      <trkpt lat="51.879929000" lon="7.603625000">
        <ele>68.4</ele>
        <time>2017-04-29T07:20:46</time>
        <extensions><speed>1.17</speed></extensions>
      </trkpt>
      <trkpt lat="51.879936000" lon="7.603620000">
        <ele>68.4</ele>
        <time>2017-04-29T07:20:47</time>
        <extensions><speed>1.23</speed></extensions>
      </trkpt>
      <trkpt lat="51.879951000" lon="7.603615000">
        <ele>68.4</ele>
        <time>2017-04-29T07:20:48</time>
        <extensions><speed>1.37</speed></extensions>
      </trkpt>
      <trkpt lat="51.879971000" lon="7.603608000">
        <ele>68.5</ele>
        <time>2017-04-29T07:20:49</time>
        <extensions><speed>1.37</speed></extensions>
      </trkpt>
      <trkpt lat="51.879982000" lon="7.603603000">
        <ele>68.5</ele>
        <time>2017-04-29T07:20:50</time>
        <extensions><speed>1.47</speed></extensions>
      </trkpt>
      <trkpt lat="51.879993000" lon="7.603600000">
        <ele>68.5</ele>
        <time>2017-04-29T07:20:51</time>
        <extensions><speed>1.47</speed></extensions>
      </trkpt>
      <trkpt lat="51.880005000" lon="7.603598000">
        <ele>68.6</ele>
        <time>2017-04-29T07:20:52</time>
        <extensions><speed>1.55</speed></extensions>
      </trkpt>
      <trkpt lat="51.880123000" lon="7.603673000">
        <ele>68.9</ele>
        <time>2017-04-29T07:21:43</time>
      </trkpt>
      <trkpt lat="51.880138000" lon="7.603688000">
        <ele>68.9</ele>
        <time>2017-04-29T07:21:45</time>
        <extensions><speed>1.50</speed></extensions>
      </trkpt>
      <trkpt lat="51.880154000" lon="7.603704000">
        <ele>68.9</ele>
        <time>2017-04-29T07:21:46</time>
        <extensions><speed>1.49</speed></extensions>
      </trkpt>
      <trkpt lat="51.880165000" lon="7.603718000">
        <ele>68.9</ele>
        <time>2017-04-29T07:21:47</time>
        <extensions><speed>1.58</speed></extensions>
      </trkpt>
      <trkpt lat="51.880177000" lon="7.603727000">
        <ele>68.9</ele>
        <time>2017-04-29T07:21:48</time>
        <extensions><speed>1.58</speed></extensions>
      </trkpt>
      <trkpt lat="51.880188000" lon="7.603732000">
        <ele>68.9</ele>
        <time>2017-04-29T07:21:49</time>
        <extensions><speed>1.51</speed></extensions>
      </trkpt>
      <trkpt lat="51.880199000" lon="7.603740000">
        <ele>68.9</ele>
        <time>2017-04-29T07:21:50</time>
        <extensions><speed>1.51</speed></extensions>
      </trkpt>
      <trkpt lat="51.880207000" lon="7.603748000">
        <ele>68.8</ele>
        <time>2017-04-29T07:21:51</time>
        <extensions><speed>1.44</speed></extensions>
      </trkpt>
      <trkpt lat="51.880219000" lon="7.603758000">
        <ele>68.8</ele>
        <time>2017-04-29T07:21:52</time>
        <extensions><speed>1.38</speed></extensions>
      </trkpt>
      <trkpt lat="51.880219000" lon="7.603762000">
        <ele>68.8</ele>
        <time>2017-04-29T07:21:53</time>
      </trkpt>
      <trkpt lat="51.880222000" lon="7.603769000">
        <ele>68.7</ele>
        <time>2017-04-29T07:21:55</time>
        <extensions><speed>0.63</speed></extensions>
      </trkpt>
      <trkpt lat="51.880226000" lon="7.603775000">
        <ele>68.7</ele>
        <time>2017-04-29T07:21:56</time>
        <extensions><speed>0.62</speed></extensions>
      </trkpt>
      <trkpt lat="51.880230000" lon="7.603782000">
        <ele>68.6</ele>
        <time>2017-04-29T07:21:57</time>
        <extensions><speed>0.65</speed></extensions>
      </trkpt>
      <trkpt lat="51.880241000" lon="7.603792000">
        <ele>68.6</ele>
        <time>2017-04-29T07:21:58</time>
        <extensions><speed>0.91</speed></extensions>
      </trkpt>
      <trkpt lat="51.880253000" lon="7.603804000">
        <ele>68.6</ele>
        <time>2017-04-29T07:21:59</time>
        <extensions><speed>1.07</speed></extensions>
      </trkpt>
      <trkpt lat="51.880264000" lon="7.603815000">
        <ele>68.5</ele>
        <time>2017-04-29T07:22:00</time>
        <extensions><speed>1.28</speed></extensions>
      </trkpt>
      <trkpt lat="51.880276000" lon="7.603827000">
        <ele>68.5</ele>
        <time>2017-04-29T07:22:01</time>
        <extensions><speed>1.28</speed></extensions>
      </trkpt>
      <trkpt lat="51.880287000" lon="7.603839000">
        <ele>68.4</ele>
        <time>2017-04-29T07:22:02</time>
        <extensions><speed>1.31</speed></extensions>
      </trkpt>
      <trkpt lat="51.880295000" lon="7.603850000">
        <ele>68.4</ele>
        <time>2017-04-29T07:22:03</time>
        <extensions><speed>1.38</speed></extensions>
      </trkpt>
      <trkpt lat="51.880306000" lon="7.603862000">
        <ele>68.3</ele>
        <time>2017-04-29T07:22:04</time>
        <extensions><speed>1.42</speed></extensions>
      </trkpt>
      <trkpt lat="51.880322000" lon="7.603875000">
        <ele>68.2</ele>
        <time>2017-04-29T07:22:05</time>
        <extensions><speed>1.45</speed></extensions>
      </trkpt>
      <trkpt lat="51.880329000" lon="7.603890000">
        <ele>68.1</ele>
        <time>2017-04-29T07:22:06</time>
        <extensions><speed>1.50</speed></extensions>
      </trkpt>
      <trkpt lat="51.880341000" lon="7.603904000">
        <ele>68.0</ele>
        <time>2017-04-29T07:22:07</time>
        <extensions><speed>1.58</speed></extensions>
      </trkpt>
      <trkpt lat="51.880352000" lon="7.603915000">
        <ele>68.0</ele>
        <time>2017-04-29T07:22:08</time>
        <extensions><speed>1.56</speed></extensions>
      </trkpt>
      <trkpt lat="51.880363000" lon="7.603930000">
        <ele>67.9</ele>
        <time>2017-04-29T07:22:09</time>
        <extensions><speed>1.56</speed></extensions>
      </trkpt>
      <trkpt lat="51.880371000" lon="7.603945000">
        <ele>67.8</ele>
        <time>2017-04-29T07:22:10</time>
        <extensions><speed>1.59</speed></extensions>
      </trkpt>
      <trkpt lat="51.880386000" lon="7.603951000">
        <ele>67.7</ele>
        <time>2017-04-29T07:22:11</time>
        <extensions><speed>1.55</speed></extensions>
      </trkpt>
      <trkpt lat="51.880398000" lon="7.603958000">
        <ele>67.6</ele>
        <time>2017-04-29T07:22:12</time>
        <extensions><speed>1.53</speed></extensions>
      </trkpt>
      <trkpt lat="51.880413000" lon="7.603965000">
        <ele>67.6</ele>
        <time>2017-04-29T07:22:13</time>
        <extensions><speed>1.58</speed></extensions>
      </trkpt>
      <trkpt lat="51.880424000" lon="7.603975000">
        <ele>67.5</ele>
        <time>2017-04-29T07:22:14</time>
        <extensions><speed>1.53</speed></extensions>
      </trkpt>
      <trkpt lat="51.880436000" lon="7.603985000">
        <ele>67.4</ele>
        <time>2017-04-29T07:22:15</time>
        <extensions><speed>1.52</speed></extensions>
      </trkpt>
      <trkpt lat="51.880451000" lon="7.603995000">
        <ele>67.4</ele>
        <time>2017-04-29T07:22:16</time>
        <extensions><speed>1.58</speed></extensions>
      </trkpt>
      <trkpt lat="51.880459000" lon="7.604005000">
        <ele>67.3</ele>
        <time>2017-04-29T07:22:17</time>
        <extensions><speed>1.52</speed></extensions>
      </trkpt>
      <trkpt lat="51.880470000" lon="7.604014000">
        <ele>67.2</ele>
        <time>2017-04-29T07:22:18</time>
        <extensions><speed>1.57</speed></extensions>
      </trkpt>
      <trkpt lat="51.880482000" lon="7.604022000">
        <ele>67.2</ele>
        <time>2017-04-29T07:22:19</time>
        <extensions><speed>1.46</speed></extensions>
      </trkpt>
      <trkpt lat="51.880493000" lon="7.604032000">
        <ele>67.1</ele>
        <time>2017-04-29T07:22:20</time>
        <extensions><speed>1.43</speed></extensions>
      </trkpt>
      <trkpt lat="51.880505000" lon="7.604043000">
        <ele>67.1</ele>
        <time>2017-04-29T07:22:21</time>
        <extensions><speed>1.43</speed></extensions>
      </trkpt>
      <trkpt lat="51.880516000" lon="7.604055000">
        <ele>67.0</ele>
        <time>2017-04-29T07:22:22</time>
        <extensions><speed>1.54</speed></extensions>
      </trkpt>
      <trkpt lat="51.880524000" lon="7.604067000">
        <ele>67.0</ele>
        <time>2017-04-29T07:22:23</time>
        <extensions><speed>1.53</speed></extensions>
      </trkpt>
      <trkpt lat="51.880539000" lon="7.604077000">
        <ele>66.9</ele>
        <time>2017-04-29T07:22:24</time>
        <extensions><speed>1.56</speed></extensions>
      </trkpt>
      <trkpt lat="51.880554000" lon="7.604090000">
        <ele>66.9</ele>
        <time>2017-04-29T07:22:25</time>
        <extensions><speed>1.56</speed></extensions>
      </trkpt>
      <trkpt lat="51.880566000" lon="7.604102000">
        <ele>66.8</ele>
        <time>2017-04-29T07:22:26</time>
        <extensions><speed>1.55</speed></extensions>
      </trkpt>
      <trkpt lat="51.880577000" lon="7.604112000">
        <ele>66.8</ele>
        <time>2017-04-29T07:22:27</time>
        <extensions><speed>1.51</speed></extensions>
      </trkpt>
      <trkpt lat="51.880589000" lon="7.604121000">
        <ele>66.7</ele>
        <time>2017-04-29T07:22:28</time>
        <extensions><speed>1.54</speed></extensions>
      </trkpt>
      <trkpt lat="51.880600000" lon="7.604128000">
        <ele>66.6</ele>
        <time>2017-04-29T07:22:29</time>
        <extensions><speed>1.50</speed></extensions>
      </trkpt>
      <trkpt lat="51.880611000" lon="7.604135000">
        <ele>66.6</ele>
        <time>2017-04-29T07:22:30</time>
        <extensions><speed>1.51</speed></extensions>
      </trkpt>
      <trkpt lat="51.880623000" lon="7.604149000">
        <ele>66.5</ele>
        <time>2017-04-29T07:22:31</time>
        <extensions><speed>1.52</speed></extensions>
      </trkpt>
      <trkpt lat="51.880634000" lon="7.604160000">
        <ele>66.5</ele>
        <time>2017-04-29T07:22:32</time>
        <extensions><speed>1.53</speed></extensions>
      </trkpt>
      <trkpt lat="51.880646000" lon="7.604170000">
        <ele>66.4</ele>
        <time>2017-04-29T07:22:33</time>
        <extensions><speed>1.40</speed></extensions>
      </trkpt>
      <trkpt lat="51.880653000" lon="7.604182000">
        <ele>66.4</ele>
        <time>2017-04-29T07:22:34</time>
        <extensions><speed>1.45</speed></extensions>
      </trkpt>
      <trkpt lat="51.880657000" lon="7.604195000">
        <ele>66.3</ele>
        <time>2017-04-29T07:22:35</time>
        <extensions><speed>1.35</speed></extensions>
      </trkpt>
      <trkpt lat="51.880669000" lon="7.604210000">
        <ele>66.3</ele>
        <time>2017-04-29T07:22:36</time>
        <extensions><speed>1.35</speed></extensions>
      </trkpt>
      <trkpt lat="51.880676000" lon="7.604231000">
        <ele>66.3</ele>
        <time>2017-04-29T07:22:37</time>
        <extensions><speed>1.39</speed></extensions>
      </trkpt>
      <trkpt lat="51.880684000" lon="7.604250000">
        <ele>66.2</ele>
        <time>2017-04-29T07:22:38</time>
        <extensions><speed>1.37</speed></extensions>
      </trkpt>
      <trkpt lat="51.880692000" lon="7.604259000">
        <ele>66.2</ele>
        <time>2017-04-29T07:22:39</time>
        <extensions><speed>1.33</speed></extensions>
      </trkpt>
      <trkpt lat="51.880707000" lon="7.604270000">
        <ele>66.1</ele>
        <time>2017-04-29T07:22:40</time>
        <extensions><speed>1.49</speed></extensions>
      </trkpt>
      <trkpt lat="51.880722000" lon="7.604289000">
        <ele>66.1</ele>
        <time>2017-04-29T07:22:41</time>
        <extensions><speed>1.51</speed></extensions>
      </trkpt>
      <trkpt lat="51.880737000" lon="7.604301000">
        <ele>66.0</ele>
        <time>2017-04-29T07:22:42</time>
        <extensions><speed>1.37</speed></extensions>
      </trkpt>
      <trkpt lat="51.880753000" lon="7.604310000">
        <ele>66.0</ele>
        <time>2017-04-29T07:22:43</time>
        <extensions><speed>1.45</speed></extensions>
      </trkpt>
      <trkpt lat="51.880764000" lon="7.604320000">
        <ele>65.9</ele>
        <time>2017-04-29T07:22:44</time>
        <extensions><speed>1.58</speed></extensions>
      </trkpt>
      <trkpt lat="51.880783000" lon="7.604327000">
        <ele>65.9</ele>
        <time>2017-04-29T07:22:45</time>
        <extensions><speed>1.55</speed></extensions>
      </trkpt>
      <trkpt lat="51.880795000" lon="7.604335000">
        <ele>65.8</ele>
        <time>2017-04-29T07:22:46</time>
        <extensions><speed>1.55</speed></extensions>
      </trkpt>
      <trkpt lat="51.880810000" lon="7.604345000">
        <ele>65.8</ele>
        <time>2017-04-29T07:22:47</time>
        <extensions><speed>1.55</speed></extensions>
      </trkpt>
      <trkpt lat="51.880825000" lon="7.604355000">
        <ele>65.7</ele>
        <time>2017-04-29T07:22:48</time>
        <extensions><speed>1.58</speed></extensions>
      </trkpt>
      <trkpt lat="51.880840000" lon="7.604363000">
        <ele>65.7</ele>
        <time>2017-04-29T07:22:49</time>
        <extensions><speed>1.56</speed></extensions>
      </trkpt>
      <trkpt lat="51.880856000" lon="7.604372000">
        <ele>65.6</ele>
        <time>2017-04-29T07:22:50</time>
        <extensions><speed>1.63</speed></extensions>
      </trkpt>
      <trkpt lat="51.880871000" lon="7.604380000">
        <ele>65.6</ele>
        <time>2017-04-29T07:22:51</time>
        <extensions><speed>1.59</speed></extensions>
      </trkpt>
      <trkpt lat="51.880886000" lon="7.604387000">
        <ele>65.5</ele>
        <time>2017-04-29T07:22:52</time>
        <extensions><speed>1.59</speed></extensions>
      </trkpt>
      <trkpt lat="51.880901000" lon="7.604395000">
        <ele>65.5</ele>
        <time>2017-04-29T07:22:53</time>
        <extensions><speed>1.62</speed></extensions>
      </trkpt>
      <trkpt lat="51.880913000" lon="7.604405000">
        <ele>65.4</ele>
        <time>2017-04-29T07:22:54</time>
        <extensions><speed>1.60</speed></extensions>
      </trkpt>
      <trkpt lat="51.880924000" lon="7.604415000">
        <ele>65.4</ele>
        <time>2017-04-29T07:22:55</time>
        <extensions><speed>1.53</speed></extensions>
      </trkpt>
      <trkpt lat="51.880939000" lon="7.604425000">
        <ele>65.3</ele>
        <time>2017-04-29T07:22:56</time>
        <extensions><speed>1.51</speed></extensions>
      </trkpt>
      <trkpt lat="51.880951000" lon="7.604434000">
        <ele>65.3</ele>
        <time>2017-04-29T07:22:57</time>
        <extensions><speed>1.53</speed></extensions>
      </trkpt>
      <trkpt lat="51.880966000" lon="7.604446000">
        <ele>65.2</ele>
        <time>2017-04-29T07:22:58</time>
        <extensions><speed>1.53</speed></extensions>
      </trkpt>
      <trkpt lat="51.880981000" lon="7.604455000">
        <ele>65.2</ele>
        <time>2017-04-29T07:22:59</time>
        <extensions><speed>1.55</speed></extensions>
      </trkpt>
      <trkpt lat="51.880997000" lon="7.604466000">
        <ele>65.1</ele>
        <time>2017-04-29T07:23:00</time>
        <extensions><speed>1.59</speed></extensions>
      </trkpt>
      <trkpt lat="51.881008000" lon="7.604483000">
        <ele>65.1</ele>
        <time>2017-04-29T07:23:01</time>
        <extensions><speed>1.59</speed></extensions>
      </trkpt>
      <trkpt lat="51.881016000" lon="7.604495000">
        <ele>65.0</ele>
        <time>2017-04-29T07:23:02</time>
        <extensions><speed>1.60</speed></extensions>
      </trkpt>
      <trkpt lat="51.881027000" lon="7.604499000">
        <ele>65.0</ele>
        <time>2017-04-29T07:23:03</time>
        <extensions><speed>1.56</speed></extensions>
      </trkpt>
      <trkpt lat="51.881039000" lon="7.604501000">
        <ele>64.9</ele>
        <time>2017-04-29T07:23:04</time>
        <extensions><speed>1.56</speed></extensions>
      </trkpt>
      <trkpt lat="51.881050000" lon="7.604508000">
        <ele>64.8</ele>
        <time>2017-04-29T07:23:05</time>
        <extensions><speed>1.52</speed></extensions>
      </trkpt>
      <trkpt lat="51.881062000" lon="7.604517000">
        <ele>64.8</ele>
        <time>2017-04-29T07:23:06</time>
        <extensions><speed>1.44</speed></extensions>
      </trkpt>
      <trkpt lat="51.881081000" lon="7.604527000">
        <ele>64.7</ele>
        <time>2017-04-29T07:23:07</time>
        <extensions><speed>1.44</speed></extensions>
      </trkpt>
      <trkpt lat="51.881092000" lon="7.604536000">
        <ele>64.7</ele>
        <time>2017-04-29T07:23:08</time>
        <extensions><speed>1.35</speed></extensions>
      </trkpt>
      <trkpt lat="51.881100000" lon="7.604547000">
        <ele>64.6</ele>
        <time>2017-04-29T07:23:09</time>
        <extensions><speed>1.40</speed></extensions>
      </trkpt>
      <trkpt lat="51.881107000" lon="7.604558000">
        <ele>64.6</ele>
        <time>2017-04-29T07:23:10</time>
        <extensions><speed>1.31</speed></extensions>
      </trkpt>
      <trkpt lat="51.881115000" lon="7.604568000">
        <ele>64.6</ele>
        <time>2017-04-29T07:23:11</time>
        <extensions><speed>1.31</speed></extensions>
      </trkpt>
      <trkpt lat="51.881126000" lon="7.604580000">
        <ele>64.5</ele>
        <time>2017-04-29T07:23:12</time>
        <extensions><speed>1.31</speed></extensions>
      </trkpt>
      <trkpt lat="51.881138000" lon="7.604590000">
        <ele>64.5</ele>
        <time>2017-04-29T07:23:13</time>
        <extensions><speed>1.36</speed></extensions>
      </trkpt>
      <trkpt lat="51.881149000" lon="7.604606000">
        <ele>64.4</ele>
        <time>2017-04-29T07:23:14</time>
        <extensions><speed>1.37</speed></extensions>
      </trkpt>
      <trkpt lat="51.881161000" lon="7.604625000">
        <ele>64.4</ele>
        <time>2017-04-29T07:23:15</time>
        <extensions><speed>1.46</speed></extensions>
      </trkpt>
      <trkpt lat="51.881172000" lon="7.604641000">
        <ele>64.3</ele>
        <time>2017-04-29T07:23:16</time>
        <extensions><speed>1.50</speed></extensions>
      </trkpt>
      <trkpt lat="51.881184000" lon="7.604653000">
        <ele>64.3</ele>
        <time>2017-04-29T07:23:17</time>
        <extensions><speed>1.53</speed></extensions>
      </trkpt>
      <trkpt lat="51.881195000" lon="7.604662000">
        <ele>64.3</ele>
        <time>2017-04-29T07:23:18</time>
        <extensions><speed>1.53</speed></extensions>
      </trkpt>
      <trkpt lat="51.881207000" lon="7.604669000">
        <ele>64.2</ele>
        <time>2017-04-29T07:23:19</time>
        <extensions><speed>1.45</speed></extensions>
      </trkpt>
      <trkpt lat="51.881218000" lon="7.604678000">
        <ele>64.2</ele>
        <time>2017-04-29T07:23:20</time>
        <extensions><speed>1.44</speed></extensions>
      </trkpt>
      <trkpt lat="51.881229000" lon="7.604687000">
        <ele>64.1</ele>
        <time>2017-04-29T07:23:21</time>
        <extensions><speed>1.41</speed></extensions>
      </trkpt>
      <trkpt lat="51.881241000" lon="7.604693000">
        <ele>64.0</ele>
        <time>2017-04-29T07:23:22</time>
        <extensions><speed>1.33</speed></extensions>
      </trkpt>
      <trkpt lat="51.881252000" lon="7.604702000">
        <ele>64.0</ele>
        <time>2017-04-29T07:23:23</time>
        <extensions><speed>1.33</speed></extensions>
      </trkpt>
      <trkpt lat="51.881264000" lon="7.604713000">
        <ele>64.0</ele>
        <time>2017-04-29T07:23:24</time>
        <extensions><speed>1.35</speed></extensions>
      </trkpt>
      <trkpt lat="51.881275000" lon="7.604723000">
        <ele>63.9</ele>
        <time>2017-04-29T07:23:25</time>
        <extensions><speed>1.35</speed></extensions>
      </trkpt>
      <trkpt lat="51.881283000" lon="7.604732000">
        <ele>63.9</ele>
        <time>2017-04-29T07:23:26</time>
        <extensions><speed>1.36</speed></extensions>
      </trkpt>
      <trkpt lat="51.881298000" lon="7.604744000">
        <ele>63.8</ele>
        <time>2017-04-29T07:23:27</time>
        <extensions><speed>1.44</speed></extensions>
      </trkpt>
      <trkpt lat="51.881306000" lon="7.604753000">
        <ele>63.8</ele>
        <time>2017-04-29T07:23:28</time>
        <extensions><speed>1.44</speed></extensions>
      </trkpt>
      <trkpt lat="51.881317000" lon="7.604765000">
        <ele>63.7</ele>
        <time>2017-04-29T07:23:29</time>
        <extensions><speed>1.49</speed></extensions>
      </trkpt>
      <trkpt lat="51.881329000" lon="7.604777000">
        <ele>63.7</ele>
        <time>2017-04-29T07:23:30</time>
        <extensions><speed>1.48</speed></extensions>
      </trkpt>
      <trkpt lat="51.881336000" lon="7.604790000">
        <ele>63.7</ele>
        <time>2017-04-29T07:23:31</time>
        <extensions><speed>1.45</speed></extensions>
      </trkpt>
      <trkpt lat="51.881340000" lon="7.604804000">
        <ele>63.6</ele>
        <time>2017-04-29T07:23:32</time>
        <extensions><speed>1.39</speed></extensions>
      </trkpt>
      <trkpt lat="51.881351000" lon="7.604814000">
        <ele>63.6</ele>
        <time>2017-04-29T07:23:33</time>
        <extensions><speed>1.42</speed></extensions>
      </trkpt>
      <trkpt lat="51.881367000" lon="7.604821000">
        <ele>63.6</ele>
        <time>2017-04-29T07:23:34</time>
        <extensions><speed>1.40</speed></extensions>
      </trkpt>
      <trkpt lat="51.881378000" lon="7.604828000">
        <ele>63.5</ele>
        <time>2017-04-29T07:23:35</time>
        <extensions><speed>1.40</speed></extensions>
      </trkpt>
      <trkpt lat="51.881393000" lon="7.604835000">
        <ele>63.5</ele>
        <time>2017-04-29T07:23:36</time>
        <extensions><speed>1.38</speed></extensions>
      </trkpt>
      <trkpt lat="51.881401000" lon="7.604849000">
        <ele>63.5</ele>
        <time>2017-04-29T07:23:37</time>
        <extensions><speed>1.46</speed></extensions>
      </trkpt>
      <trkpt lat="51.881409000" lon="7.604862000">
        <ele>63.5</ele>
        <time>2017-04-29T07:23:38</time>
        <extensions><speed>1.42</speed></extensions>
      </trkpt>
      <trkpt lat="51.881416000" lon="7.604865000">
        <ele>63.4</ele>
        <time>2017-04-29T07:23:39</time>
        <extensions><speed>1.36</speed></extensions>
      </trkpt>
      <trkpt lat="51.881428000" lon="7.604867000">
        <ele>63.4</ele>
        <time>2017-04-29T07:23:40</time>
        <extensions><speed>1.24</speed></extensions>
      </trkpt>
      <trkpt lat="51.881439000" lon="7.604875000">
        <ele>63.4</ele>
        <time>2017-04-29T07:23:41</time>
        <extensions><speed>1.24</speed></extensions>
      </trkpt>
      <trkpt lat="51.881447000" lon="7.604887000">
        <ele>63.3</ele>
        <time>2017-04-29T07:23:42</time>
        <extensions><speed>1.24</speed></extensions>
      </trkpt>
      <trkpt lat="51.881462000" lon="7.604900000">
        <ele>63.3</ele>
        <time>2017-04-29T07:23:43</time>
        <extensions><speed>1.30</speed></extensions>
      </trkpt>
      <trkpt lat="51.881470000" lon="7.604914000">
        <ele>63.3</ele>
        <time>2017-04-29T07:23:44</time>
        <extensions><speed>1.34</speed></extensions>
      </trkpt>
      <trkpt lat="51.881477000" lon="7.604927000">
        <ele>63.3</ele>
        <time>2017-04-29T07:23:45</time>
        <extensions><speed>1.42</speed></extensions>
      </trkpt>
      <trkpt lat="51.881489000" lon="7.604940000">
        <ele>63.2</ele>
        <time>2017-04-29T07:23:46</time>
        <extensions><speed>1.53</speed></extensions>
      </trkpt>
      <trkpt lat="51.881504000" lon="7.604950000">
        <ele>63.2</ele>
        <time>2017-04-29T07:23:47</time>
        <extensions><speed>1.53</speed></extensions>
      </trkpt>
      <trkpt lat="51.881512000" lon="7.604958000">
        <ele>63.2</ele>
        <time>2017-04-29T07:23:48</time>
        <extensions><speed>1.59</speed></extensions>
      </trkpt>
      <trkpt lat="51.881527000" lon="7.604970000">
        <ele>63.2</ele>
        <time>2017-04-29T07:23:49</time>
        <extensions><speed>1.59</speed></extensions>
      </trkpt>
      <trkpt lat="51.881535000" lon="7.604979000">
        <ele>63.1</ele>
        <time>2017-04-29T07:23:50</time>
        <extensions><speed>1.53</speed></extensions>
      </trkpt>
      <trkpt lat="51.881546000" lon="7.604990000">
        <ele>63.1</ele>
        <time>2017-04-29T07:23:51</time>
        <extensions><speed>1.48</speed></extensions>
      </trkpt>
      <trkpt lat="51.881557000" lon="7.605003000">
        <ele>63.1</ele>
        <time>2017-04-29T07:23:52</time>
        <extensions><speed>1.48</speed></extensions>
      </trkpt>
      <trkpt lat="51.881569000" lon="7.605013000">
        <ele>63.1</ele>
        <time>2017-04-29T07:23:53</time>
        <extensions><speed>1.41</speed></extensions>
      </trkpt>
      <trkpt lat="51.881584000" lon="7.605026000">
        <ele>63.1</ele>
        <time>2017-04-29T07:23:54</time>
        <extensions><speed>1.41</speed></extensions>
      </trkpt>
      <trkpt lat="51.881596000" lon="7.605040000">
        <ele>63.0</ele>
        <time>2017-04-29T07:23:55</time>
        <extensions><speed>1.41</speed></extensions>
      </trkpt>
      <trkpt lat="51.881603000" lon="7.605052000">
        <ele>63.0</ele>
        <time>2017-04-29T07:23:56</time>
        <extensions><speed>1.38</speed></extensions>
      </trkpt>
      <trkpt lat="51.881615000" lon="7.605063000">
        <ele>63.0</ele>
        <time>2017-04-29T07:23:57</time>
        <extensions><speed>1.38</speed></extensions>
      </trkpt>
      <trkpt lat="51.881626000" lon="7.605072000">
        <ele>63.0</ele>
        <time>2017-04-29T07:23:58</time>
        <extensions><speed>1.48</speed></extensions>
      </trkpt>
      <trkpt lat="51.881645000" lon="7.605080000">
        <ele>63.0</ele>
        <time>2017-04-29T07:23:59</time>
        <extensions><speed>1.56</speed></extensions>
      </trkpt>
      <trkpt lat="51.881664000" lon="7.605089000">
        <ele>63.0</ele>
        <time>2017-04-29T07:24:00</time>
        <extensions><speed>1.66</speed></extensions>
      </trkpt>
      <trkpt lat="51.881676000" lon="7.605100000">
        <ele>63.0</ele>
        <time>2017-04-29T07:24:01</time>
        <extensions><speed>1.66</speed></extensions>
      </trkpt>
      <trkpt lat="51.881691000" lon="7.605112000">
        <ele>63.0</ele>
        <time>2017-04-29T07:24:02</time>
        <extensions><speed>1.63</speed></extensions>
      </trkpt>
      <trkpt lat="51.881702000" lon="7.605122000">
        <ele>63.0</ele>
        <time>2017-04-29T07:24:03</time>
        <extensions><speed>1.57</speed></extensions>
      </trkpt>
      <trkpt lat="51.881714000" lon="7.605128000">
        <ele>63.0</ele>
        <time>2017-04-29T07:24:04</time>
        <extensions><speed>1.48</speed></extensions>
      </trkpt>
      <trkpt lat="51.881725000" lon="7.605138000">
        <ele>63.0</ele>
        <time>2017-04-29T07:24:05</time>
        <extensions><speed>1.41</speed></extensions>
      </trkpt>
      <trkpt lat="51.881737000" lon="7.605150000">
        <ele>63.0</ele>
        <time>2017-04-29T07:24:06</time>
        <extensions><speed>1.38</speed></extensions>
      </trkpt>
      <trkpt lat="51.881748000" lon="7.605157000">
        <ele>63.0</ele>
        <time>2017-04-29T07:24:07</time>
        <extensions><speed>1.28</speed></extensions>
      </trkpt>
      <trkpt lat="51.881763000" lon="7.605163000">
        <ele>63.0</ele>
        <time>2017-04-29T07:24:08</time>
        <extensions><speed>1.28</speed></extensions>
      </trkpt>
      <trkpt lat="51.881775000" lon="7.605176000">
        <ele>63.0</ele>
        <time>2017-04-29T07:24:09</time>
        <extensions><speed>1.31</speed></extensions>
      </trkpt>
      <trkpt lat="51.881786000" lon="7.605196000">
        <ele>63.0</ele>
        <time>2017-04-29T07:24:10</time>
        <extensions><speed>1.46</speed></extensions>
      </trkpt>
      <trkpt lat="51.881798000" lon="7.605213000">
        <ele>63.0</ele>
        <time>2017-04-29T07:24:11</time>
        <extensions><speed>1.55</speed></extensions>
      </trkpt>
      <trkpt lat="51.881805000" lon="7.605227000">
        <ele>63.0</ele>
        <time>2017-04-29T07:24:12</time>
        <extensions><speed>1.55</speed></extensions>
      </trkpt>
      <trkpt lat="51.881813000" lon="7.605240000">
        <ele>63.0</ele>
        <time>2017-04-29T07:24:13</time>
        <extensions><speed>1.52</speed></extensions>
      </trkpt>
      <trkpt lat="51.881821000" lon="7.605252000">
        <ele>63.0</ele>
        <time>2017-04-29T07:24:14</time>
        <extensions><speed>1.35</speed></extensions>
      </trkpt>
      <trkpt lat="51.881824000" lon="7.605260000">
        <ele>63.0</ele>
        <time>2017-04-29T07:24:15</time>
        <extensions><speed>1.17</speed></extensions>
      </trkpt>
      <trkpt lat="51.881828000" lon="7.605268000">
        <ele>63.0</ele>
        <time>2017-04-29T07:24:16</time>
      </trkpt>
      <trkpt lat="51.881832000" lon="7.605283000">
        <ele>63.0</ele>
        <time>2017-04-29T07:24:18</time>
        <extensions><speed>0.96</speed></extensions>
      </trkpt>
      <trkpt lat="51.881847000" lon="7.605299000">
        <ele>63.0</ele>
        <time>2017-04-29T07:24:19</time>
        <extensions><speed>1.07</speed></extensions>
      </trkpt>
      <trkpt lat="51.881863000" lon="7.605313000">
        <ele>63.0</ele>
        <time>2017-04-29T07:24:20</time>
        <extensions><speed>1.30</speed></extensions>
      </trkpt>
      <trkpt lat="51.881870000" lon="7.605330000">
        <ele>63.0</ele>
        <time>2017-04-29T07:24:21</time>
        <extensions><speed>1.45</speed></extensions>
      </trkpt>
      <trkpt lat="51.881878000" lon="7.605345000">
        <ele>63.0</ele>
        <time>2017-04-29T07:24:22</time>
        <extensions><speed>1.50</speed></extensions>
      </trkpt>
      <trkpt lat="51.881893000" lon="7.605362000">
        <ele>63.0</ele>
        <time>2017-04-29T07:24:23</time>
        <extensions><speed>1.54</speed></extensions>
      </trkpt>
      <trkpt lat="51.881905000" lon="7.605373000">
        <ele>63.0</ele>
        <time>2017-04-29T07:24:24</time>
        <extensions><speed>1.57</speed></extensions>
      </trkpt>
      <trkpt lat="51.881916000" lon="7.605375000">
        <ele>63.0</ele>
        <time>2017-04-29T07:24:25</time>
        <extensions><speed>1.54</speed></extensions>
      </trkpt>
      <trkpt lat="51.881927000" lon="7.605378000">
        <ele>63.0</ele>
        <time>2017-04-29T07:24:26</time>
        <extensions><speed>1.45</speed></extensions>
      </trkpt>
      <trkpt lat="51.881939000" lon="7.605387000">
        <ele>63.0</ele>
        <time>2017-04-29T07:24:27</time>
        <extensions><speed>1.47</speed></extensions>
      </trkpt>
      <trkpt lat="51.881954000" lon="7.605392000">
        <ele>63.0</ele>
        <time>2017-04-29T07:24:28</time>
        <extensions><speed>1.46</speed></extensions>
      </trkpt>
      <trkpt lat="51.881966000" lon="7.605397000">
        <ele>62.9</ele>
        <time>2017-04-29T07:24:29</time>
        <extensions><speed>1.43</speed></extensions>
      </trkpt>
      <trkpt lat="51.881981000" lon="7.605406000">
        <ele>62.9</ele>
        <time>2017-04-29T07:24:30</time>
        <extensions><speed>1.53</speed></extensions>
      </trkpt>
      <trkpt lat="51.881996000" lon="7.605420000">
        <ele>62.9</ele>
        <time>2017-04-29T07:24:31</time>
        <extensions><speed>1.53</speed></extensions>
      </trkpt>
      <trkpt lat="51.882008000" lon="7.605432000">
        <ele>62.9</ele>
        <time>2017-04-29T07:24:32</time>
        <extensions><speed>1.56</speed></extensions>
      </trkpt>
      <trkpt lat="51.882023000" lon="7.605444000">
        <ele>62.9</ele>
        <time>2017-04-29T07:24:33</time>
        <extensions><speed>1.52</speed></extensions>
      </trkpt>
      <trkpt lat="51.882038000" lon="7.605458000">
        <ele>62.9</ele>
        <time>2017-04-29T07:24:34</time>
        <extensions><speed>1.59</speed></extensions>
      </trkpt>
      <trkpt lat="51.882053000" lon="7.605467000">
        <ele>62.9</ele>
        <time>2017-04-29T07:24:35</time>
        <extensions><speed>1.54</speed></extensions>
      </trkpt>
      <trkpt lat="51.882061000" lon="7.605475000">
        <ele>62.9</ele>
        <time>2017-04-29T07:24:36</time>
        <extensions><speed>1.56</speed></extensions>
      </trkpt>
      <trkpt lat="51.882076000" lon="7.605488000">
        <ele>62.9</ele>
        <time>2017-04-29T07:24:37</time>
        <extensions><speed>1.40</speed></extensions>
      </trkpt>
      <trkpt lat="51.882088000" lon="7.605504000">
        <ele>62.9</ele>
        <time>2017-04-29T07:24:38</time>
        <extensions><speed>1.43</speed></extensions>
      </trkpt>
      <trkpt lat="51.882099000" lon="7.605513000">
        <ele>62.8</ele>
        <time>2017-04-29T07:24:39</time>
        <extensions><speed>1.39</speed></extensions>
      </trkpt>
      <trkpt lat="51.882111000" lon="7.605525000">
        <ele>62.8</ele>
        <time>2017-04-29T07:24:40</time>
        <extensions><speed>1.41</speed></extensions>
      </trkpt>
      <trkpt lat="51.882122000" lon="7.605538000">
        <ele>62.8</ele>
        <time>2017-04-29T07:24:41</time>
        <extensions><speed>1.34</speed></extensions>
      </trkpt>
      <trkpt lat="51.882133000" lon="7.605551000">
        <ele>62.8</ele>
        <time>2017-04-29T07:24:42</time>
        <extensions><speed>1.42</speed></extensions>
      </trkpt>
      <trkpt lat="51.882145000" lon="7.605563000">
        <ele>62.8</ele>
        <time>2017-04-29T07:24:43</time>
        <extensions><speed>1.35</speed></extensions>
      </trkpt>
      <trkpt lat="51.882156000" lon="7.605574000">
        <ele>62.7</ele>
        <time>2017-04-29T07:24:44</time>
        <extensions><speed>1.39</speed></extensions>
      </trkpt>
      <trkpt lat="51.882175000" lon="7.605580000">
        <ele>62.7</ele>
        <time>2017-04-29T07:24:45</time>
        <extensions><speed>1.43</speed></extensions>
      </trkpt>
      <trkpt lat="51.882187000" lon="7.605590000">
        <ele>62.7</ele>
        <time>2017-04-29T07:24:46</time>
        <extensions><speed>1.43</speed></extensions>
      </trkpt>
      <trkpt lat="51.882198000" lon="7.605600000">
        <ele>62.7</ele>
        <time>2017-04-29T07:24:47</time>
        <extensions><speed>1.42</speed></extensions>
      </trkpt>
      <trkpt lat="51.882214000" lon="7.605610000">
        <ele>62.7</ele>
        <time>2017-04-29T07:24:48</time>
        <extensions><speed>1.46</speed></extensions>
      </trkpt>
      <trkpt lat="51.882225000" lon="7.605618000">
        <ele>62.6</ele>
        <time>2017-04-29T07:24:49</time>
        <extensions><speed>1.44</speed></extensions>
      </trkpt>
      <trkpt lat="51.882240000" lon="7.605627000">
        <ele>62.6</ele>
        <time>2017-04-29T07:24:50</time>
        <extensions><speed>1.45</speed></extensions>
      </trkpt>
      <trkpt lat="51.882252000" lon="7.605637000">
        <ele>62.6</ele>
        <time>2017-04-29T07:24:51</time>
        <extensions><speed>1.47</speed></extensions>
      </trkpt>
      <trkpt lat="51.882256000" lon="7.605651000">
        <ele>62.6</ele>
        <time>2017-04-29T07:24:52</time>
        <extensions><speed>1.48</speed></extensions>
      </trkpt>
      <trkpt lat="51.882267000" lon="7.605665000">
        <ele>62.6</ele>
        <time>2017-04-29T07:24:53</time>
        <extensions><speed>1.48</speed></extensions>
      </trkpt>
      <trkpt lat="51.882278000" lon="7.605673000">
        <ele>62.5</ele>
        <time>2017-04-29T07:24:54</time>
        <extensions><speed>1.45</speed></extensions>
      </trkpt>
      <trkpt lat="51.882290000" lon="7.605686000">
        <ele>62.5</ele>
        <time>2017-04-29T07:24:55</time>
        <extensions><speed>1.45</speed></extensions>
      </trkpt>
      <trkpt lat="51.882301000" lon="7.605698000">
        <ele>62.5</ele>
        <time>2017-04-29T07:24:56</time>
        <extensions><speed>1.43</speed></extensions>
      </trkpt>
      <trkpt lat="51.882317000" lon="7.605707000">
        <ele>62.5</ele>
        <time>2017-04-29T07:24:57</time>
        <extensions><speed>1.35</speed></extensions>
      </trkpt>
      <trkpt lat="51.882320000" lon="7.605714000">
        <ele>62.4</ele>
        <time>2017-04-29T07:24:58</time>
        <extensions><speed>1.39</speed></extensions>
      </trkpt>
      <trkpt lat="51.882336000" lon="7.605723000">
        <ele>62.4</ele>
        <time>2017-04-29T07:24:59</time>
        <extensions><speed>1.40</speed></extensions>
      </trkpt>
      <trkpt lat="51.882347000" lon="7.605733000">
        <ele>62.4</ele>
        <time>2017-04-29T07:25:00</time>
        <extensions><speed>1.37</speed></extensions>
      </trkpt>
      <trkpt lat="51.882359000" lon="7.605743000">
        <ele>62.4</ele>
        <time>2017-04-29T07:25:01</time>
        <extensions><speed>1.37</speed></extensions>
      </trkpt>
      <trkpt lat="51.882370000" lon="7.605754000">
        <ele>62.4</ele>
        <time>2017-04-29T07:25:02</time>
        <extensions><speed>1.38</speed></extensions>
      </trkpt>
      <trkpt lat="51.882381000" lon="7.605767000">
        <ele>62.3</ele>
        <time>2017-04-29T07:25:03</time>
        <extensions><speed>1.36</speed></extensions>
      </trkpt>
      <trkpt lat="51.882385000" lon="7.605780000">
        <ele>62.3</ele>
        <time>2017-04-29T07:25:04</time>
        <extensions><speed>1.37</speed></extensions>
      </trkpt>
      <trkpt lat="51.882397000" lon="7.605793000">
        <ele>62.3</ele>
        <time>2017-04-29T07:25:05</time>
        <extensions><speed>1.39</speed></extensions>
      </trkpt>
      <trkpt lat="51.882408000" lon="7.605805000">
        <ele>62.3</ele>
        <time>2017-04-29T07:25:06</time>
        <extensions><speed>1.35</speed></extensions>
      </trkpt>
      <trkpt lat="51.882416000" lon="7.605815000">
        <ele>62.3</ele>
        <time>2017-04-29T07:25:07</time>
        <extensions><speed>1.36</speed></extensions>
      </trkpt>
      <trkpt lat="51.882431000" lon="7.605822000">
        <ele>62.3</ele>
        <time>2017-04-29T07:25:08</time>
        <extensions><speed>1.39</speed></extensions>
      </trkpt>
      <trkpt lat="51.882442000" lon="7.605828000">
        <ele>62.2</ele>
        <time>2017-04-29T07:25:09</time>
        <extensions><speed>1.35</speed></extensions>
      </trkpt>
      <trkpt lat="51.882450000" lon="7.605835000">
        <ele>62.2</ele>
        <time>2017-04-29T07:25:10</time>
        <extensions><speed>1.26</speed></extensions>
      </trkpt>
      <trkpt lat="51.882458000" lon="7.605838000">
        <ele>62.2</ele>
        <time>2017-04-29T07:25:11</time>
        <extensions><speed>1.25</speed></extensions>
      </trkpt>
      <trkpt lat="51.882473000" lon="7.605840000">
        <ele>62.2</ele>
        <time>2017-04-29T07:25:12</time>
        <extensions><speed>1.23</speed></extensions>
      </trkpt>
      <trkpt lat="51.882488000" lon="7.605844000">
        <ele>62.2</ele>
        <time>2017-04-29T07:25:13</time>
        <extensions><speed>1.23</speed></extensions>
      </trkpt>
      <trkpt lat="51.882500000" lon="7.605852000">
        <ele>62.2</ele>
        <time>2017-04-29T07:25:14</time>
        <extensions><speed>1.27</speed></extensions>
      </trkpt>
      <trkpt lat="51.882511000" lon="7.605861000">
        <ele>62.1</ele>
        <time>2017-04-29T07:25:15</time>
        <extensions><speed>1.30</speed></extensions>
      </trkpt>
      <trkpt lat="51.882523000" lon="7.605873000">
        <ele>62.1</ele>
        <time>2017-04-29T07:25:16</time>
        <extensions><speed>1.33</speed></extensions>
      </trkpt>
      <trkpt lat="51.882534000" lon="7.605885000">
        <ele>62.1</ele>
        <time>2017-04-29T07:25:17</time>
        <extensions><speed>1.39</speed></extensions>
      </trkpt>
      <trkpt lat="51.882545000" lon="7.605896000">
        <ele>62.1</ele>
        <time>2017-04-29T07:25:18</time>
        <extensions><speed>1.45</speed></extensions>
      </trkpt>
      <trkpt lat="51.882561000" lon="7.605906000">
        <ele>62.1</ele>
        <time>2017-04-29T07:25:19</time>
        <extensions><speed>1.48</speed></extensions>
      </trkpt>
      <trkpt lat="51.882576000" lon="7.605915000">
        <ele>62.1</ele>
        <time>2017-04-29T07:25:20</time>
        <extensions><speed>1.42</speed></extensions>
      </trkpt>
      <trkpt lat="51.882584000" lon="7.605924000">
        <ele>62.1</ele>
        <time>2017-04-29T07:25:21</time>
        <extensions><speed>1.44</speed></extensions>
      </trkpt>
      <trkpt lat="51.882599000" lon="7.605929000">
        <ele>62.1</ele>
        <time>2017-04-29T07:25:22</time>
        <extensions><speed>1.43</speed></extensions>
      </trkpt>
      <trkpt lat="51.882801000" lon="7.605950000">
        <ele>62.0</ele>
        <time>2017-04-29T07:25:48</time>
      </trkpt>
      <trkpt lat="51.882922040" lon="7.606056647">
        <ele>59.4</ele>
      </trkpt>
      <trkpt lat="51.883093785" lon="7.606138480">
        <ele>59.3</ele>
      </trkpt>
      <trkpt lat="51.883354003" lon="7.606101386">
        <ele>59.2</ele>
      </trkpt>
      <trkpt lat="51.883726725" lon="7.605697709">
        <ele>58.7</ele>
      </trkpt>
      <trkpt lat="51.884064539" lon="7.605382251">
        <ele>58.2</ele>
      </trkpt>
      <trkpt lat="51.884456950" lon="7.605123195">
        <ele>57.7</ele>
      </trkpt>
      <trkpt lat="51.884706290" lon="7.604926662">
        <ele>57.2</ele>
      </trkpt>
      <trkpt lat="51.885043413" lon="7.604553114">
        <ele>56.7</ele>
      </trkpt>
      <trkpt lat="51.886212022" lon="7.603049915">
        <ele>55.9</ele>
      </trkpt>
      <trkpt lat="51.887576727" lon="7.601409825">
        <ele>58.9</ele>
      </trkpt>
      <trkpt lat="51.888080052" lon="7.601408731">
        <ele>56.9</ele>
      </trkpt>
      <trkpt lat="51.888250937" lon="7.601417954">
        <ele>57.1</ele>
      </trkpt>
      <trkpt lat="51.888356512" lon="7.601225845">
        <ele>57.9</ele>
      </trkpt>
      <trkpt lat="51.888287751" lon="7.600734108">
        <ele>57.3</ele>
      </trkpt>
      <trkpt lat="51.888278773" lon="7.599979054">
        <ele>57.3</ele>
      </trkpt>
      <trkpt lat="51.888282056" lon="7.598744274">
        <ele>57.1</ele>
      </trkpt>
      <trkpt lat="51.888217081" lon="7.597816656">
        <ele>57.2</ele>
      </trkpt>
      <trkpt lat="51.888069504" lon="7.596746356">
        <ele>57.2</ele>
      </trkpt>
      <trkpt lat="51.888146559" lon="7.596424394">
        <ele>57.6</ele>
      </trkpt>
      <trkpt lat="51.888359251" lon="7.596170835">
        <ele>58.0</ele>
      </trkpt>
      <trkpt lat="51.888749562" lon="7.595737430">
        <ele>58.3</ele>
      </trkpt>
      <trkpt lat="51.888538926" lon="7.595409901">
        <ele>58.1</ele>
      </trkpt>
      <trkpt lat="51.888407073" lon="7.594905612">
        <ele>58.2</ele>
      </trkpt>
      <trkpt lat="51.888384943" lon="7.594557686">
        <ele>58.4</ele>
      </trkpt>
      <trkpt lat="51.889138629" lon="7.594447027">
        <ele>59.5</ele>
      </trkpt>
      <trkpt lat="51.889937933" lon="7.594393047">
        <ele>60.7</ele>
      </trkpt>
      <trkpt lat="51.890335520" lon="7.594569488">
        <ele>60.8</ele>
      </trkpt>
      <trkpt lat="51.891012677" lon="7.594824374">
        <ele>61.8</ele>
      </trkpt>
      <trkpt lat="51.891916533" lon="7.595246521">
        <ele>62.0</ele>
      </trkpt>
      <trkpt lat="51.892693908" lon="7.595614518">
        <ele>61.8</ele>
      </trkpt>
      <trkpt lat="51.894520025" lon="7.594235589">
        <ele>64.6</ele>
      </trkpt>
      <trkpt lat="51.895312216" lon="7.593586174">
        <ele>65.5</ele>
      </trkpt>
      <trkpt lat="51.895926790" lon="7.593116620">
        <ele>65.8</ele>
      </trkpt>
      <trkpt lat="51.896089731" lon="7.593213229">
        <ele>65.7</ele>
      </trkpt>
      <trkpt lat="51.896338742" lon="7.593742999">
        <ele>65.7</ele>
      </trkpt>
      <trkpt lat="51.896644780" lon="7.594532505">
        <ele>64.6</ele>
      </trkpt>
      <trkpt lat="51.896856979" lon="7.594990794">
        <ele>64.1</ele>
      </trkpt>
      <trkpt lat="51.897620832" lon="7.594226014">
        <ele>65.1</ele>
      </trkpt>
      <trkpt lat="51.897656771" lon="7.594224892">
        <ele>65.1</ele>
      </trkpt>
      <trkpt lat="51.897703256" lon="7.594354200">
        <ele>65.0</ele>
      </trkpt>
      <trkpt lat="51.898201785" lon="7.595457366">
        <ele>63.1</ele>
      </trkpt>
      <trkpt lat="51.898206290" lon="7.595834975">
        <ele>62.5</ele>
      </trkpt>
      <trkpt lat="51.898173122" lon="7.596068470">
        <ele>62.1</ele>
      </trkpt>
      <trkpt lat="51.898435606" lon="7.596975611">
        <ele>60.5</ele>
      </trkpt>
      <trkpt lat="51.898759592" lon="7.597764617">
        <ele>59.4</ele>
      </trkpt>
      <trkpt lat="51.898842359" lon="7.597921860">
        <ele>59.3</ele>
      </trkpt>
      <trkpt lat="51.899465588" lon="7.597423000">
        <ele>59.1</ele>
      </trkpt>
      <trkpt lat="51.900390837" lon="7.596624129">
        <ele>59.3</ele>
      </trkpt>
      <trkpt lat="51.901367736" lon="7.595634726">
        <ele>58.9</ele>
      </trkpt>
      <trkpt lat="51.901758217" lon="7.595215714">
        <ele>58.7</ele>
      </trkpt>
      <trkpt lat="51.902376089" lon="7.595022083">
        <ele>59.3</ele>
      </trkpt>
      <trkpt lat="51.903351447" lon="7.594657461">
        <ele>58.6</ele>
      </trkpt>
      <trkpt lat="51.903329836" lon="7.594352995">
        <ele>58.8</ele>
      </trkpt>
      <trkpt lat="51.903366260" lon="7.593639864">
        <ele>59.3</ele>
      </trkpt>
      <trkpt lat="51.903370559" lon="7.593247406">
        <ele>59.6</ele>
      </trkpt>
      <trkpt lat="51.903273246" lon="7.592625635">
        <ele>60.3</ele>
      </trkpt>
      <trkpt lat="51.903203926" lon="7.592090175">
        <ele>60.9</ele>
      </trkpt>
      <trkpt lat="51.902699567" lon="7.589752032">
        <ele>63.1</ele>
      </trkpt>
      <trkpt lat="51.902553482" lon="7.588812140">
        <ele>63.4</ele>
      </trkpt>
      <trkpt lat="51.902288940" lon="7.586989627">
        <ele>64.2</ele>
      </trkpt>
      <trkpt lat="51.902996472" lon="7.586778538">
        <ele>63.1</ele>
      </trkpt>
      <trkpt lat="51.903256333" lon="7.586712264">
        <ele>62.6</ele>
      </trkpt>
      <trkpt lat="51.903512532" lon="7.586340962">
        <ele>62.5</ele>
      </trkpt>
      <trkpt lat="51.902249514" lon="7.585203656">
        <ele>63.9</ele>
      </trkpt>
      <trkpt lat="51.901829579" lon="7.584664704">
        <ele>64.2</ele>
      </trkpt>
      <trkpt lat="51.901889853" lon="7.584444860">
        <ele>64.3</ele>
      </trkpt>
      <trkpt lat="51.902605841" lon="7.584189876">
        <ele>64.0</ele>
      </trkpt>
      <trkpt lat="51.903601055" lon="7.583984229">
        <ele>63.1</ele>
      </trkpt>
      <trkpt lat="51.904343821" lon="7.583713855">
        <ele>62.3</ele>
      </trkpt>
      <trkpt lat="51.904800122" lon="7.583539667">
        <ele>61.9</ele>
      </trkpt>
      <trkpt lat="51.905138572" lon="7.583281995">
        <ele>61.7</ele>
      </trkpt>
      <trkpt lat="51.906309756" lon="7.581268877">
        <ele>61.9</ele>
      </trkpt>
      <trkpt lat="51.906883435" lon="7.580393439">
        <ele>62.0</ele>
      </trkpt>
      <trkpt lat="51.907693338" lon="7.579728507">
        <ele>62.1</ele>
      </trkpt>
      <trkpt lat="51.907877940" lon="7.580129581">
        <ele>62.1</ele>
      </trkpt>
      <trkpt lat="51.908323323" lon="7.579795833">
        <ele>61.6</ele>
      </trkpt>
      <trkpt lat="51.908554999" lon="7.579628673">
        <ele>61.7</ele>
      </trkpt>
      <trkpt lat="51.908621443" lon="7.579176078">
        <ele>61.5</ele>
      </trkpt>
      <trkpt lat="51.909080057" lon="7.578449524">
        <ele>61.5</ele>
      </trkpt>
      <trkpt lat="51.909389611" lon="7.578032844">
        <ele>61.6</ele>
      </trkpt>
      <trkpt lat="51.909898056" lon="7.577711604">
        <ele>61.4</ele>
      </trkpt>
      <trkpt lat="51.910077400" lon="7.577676875">
        <ele>61.5</ele>
      </trkpt>
      <trkpt lat="51.910544463" lon="7.576906416">
        <ele>61.7</ele>
      </trkpt>
      <trkpt lat="51.911165864" lon="7.575520673">
        <ele>61.9</ele>
      </trkpt>
      <trkpt lat="51.911325129" lon="7.575312172">
        <ele>61.9</ele>
      </trkpt>
      <trkpt lat="51.911824757" lon="7.575005699">
        <ele>61.9</ele>
      </trkpt>
      <trkpt lat="51.911504148" lon="7.573765994">
        <ele>62.4</ele>
      </trkpt>
      <trkpt lat="51.911454648" lon="7.573389700">
        <ele>62.6</ele>
      </trkpt>
      <trkpt lat="51.911556830" lon="7.572921401">
        <ele>62.8</ele>
      </trkpt>
      <trkpt lat="51.911863369" lon="7.572257689">
        <ele>63.2</ele>
      </trkpt>
      <trkpt lat="51.912018000" lon="7.571888000">
        <ele>62.0</ele>
        <time>2017-04-29T09:11:52</time>
      </trkpt>
      <trkpt lat="51.912151000" lon="7.571900000">
        <ele>71.7</ele>
        <time>2017-04-29T09:11:52</time>
      </trkpt>
      <trkpt lat="51.912159000" lon="7.571888000">
        <ele>71.7</ele>
        <time>2017-04-29T09:11:54</time>
        <extensions><speed>0.19</speed></extensions>
      </trkpt>
      <trkpt lat="51.912178000" lon="7.571872000">
        <ele>71.7</ele>
        <time>2017-04-29T09:11:55</time>
        <extensions><speed>0.18</speed></extensions>
      </trkpt>
      <trkpt lat="51.912148000" lon="7.571702000">
        <ele>71.8</ele>
        <time>2017-04-29T09:22:34</time>
      </trkpt>
      <trkpt lat="51.912151000" lon="7.571695000">
        <ele>71.8</ele>
        <time>2017-04-29T09:22:36</time>
      </trkpt>
      <trkpt lat="51.912155000" lon="7.571683000">
        <ele>71.8</ele>
        <time>2017-04-29T09:22:38</time>
        <extensions><speed>0.56</speed></extensions>
      </trkpt>
      <trkpt lat="51.912155000" lon="7.571667000">
        <ele>71.8</ele>
        <time>2017-04-29T09:22:39</time>
        <extensions><speed>0.56</speed></extensions>
      </trkpt>
      <trkpt lat="51.912159000" lon="7.571653000">
        <ele>71.8</ele>
        <time>2017-04-29T09:22:40</time>
        <extensions><speed>0.78</speed></extensions>
      </trkpt>
      <trkpt lat="51.912163000" lon="7.571639000">
        <ele>71.8</ele>
        <time>2017-04-29T09:22:41</time>
        <extensions><speed>0.82</speed></extensions>
      </trkpt>
      <trkpt lat="51.912167000" lon="7.571621000">
        <ele>71.8</ele>
        <time>2017-04-29T09:22:42</time>
        <extensions><speed>0.82</speed></extensions>
      </trkpt>
      <trkpt lat="51.912174000" lon="7.571607000">
        <ele>71.8</ele>
        <time>2017-04-29T09:22:43</time>
        <extensions><speed>0.85</speed></extensions>
      </trkpt>
      <trkpt lat="51.912178000" lon="7.571592000">
        <ele>71.8</ele>
        <time>2017-04-29T09:22:44</time>
        <extensions><speed>0.88</speed></extensions>
      </trkpt>
      <trkpt lat="51.912182000" lon="7.571572000">
        <ele>71.9</ele>
        <time>2017-04-29T09:22:45</time>
        <extensions><speed>0.97</speed></extensions>
      </trkpt>
      <trkpt lat="51.912186000" lon="7.571553000">
        <ele>71.9</ele>
        <time>2017-04-29T09:22:46</time>
        <extensions><speed>1.05</speed></extensions>
      </trkpt>
      <trkpt lat="51.912189000" lon="7.571552000">
        <ele>71.9</ele>
        <time>2017-04-29T09:22:47</time>
      </trkpt>
      <trkpt lat="51.912201000" lon="7.571539000">
        <ele>71.9</ele>
        <time>2017-04-29T09:22:49</time>
        <extensions><speed>0.97</speed></extensions>
      </trkpt>
      <trkpt lat="51.912209000" lon="7.571523000">
        <ele>72.0</ele>
        <time>2017-04-29T09:22:50</time>
        <extensions><speed>0.93</speed></extensions>
      </trkpt>
      <trkpt lat="51.912212000" lon="7.571508000">
        <ele>72.0</ele>
        <time>2017-04-29T09:22:51</time>
        <extensions><speed>0.81</speed></extensions>
      </trkpt>
      <trkpt lat="51.912216000" lon="7.571508000">
        <ele>72.0</ele>
        <time>2017-04-29T09:22:52</time>
      </trkpt>
      <trkpt lat="51.912220000" lon="7.571505000">
        <ele>72.0</ele>
        <time>2017-04-29T09:22:54</time>
        <extensions><speed>0.63</speed></extensions>
      </trkpt>
      <trkpt lat="51.912224000" lon="7.571500000">
        <ele>72.0</ele>
        <time>2017-04-29T09:22:55</time>
      </trkpt>
      <trkpt lat="51.912231000" lon="7.571497000">
        <ele>72.0</ele>
        <time>2017-04-29T09:22:57</time>
        <extensions><speed>0.64</speed></extensions>
      </trkpt>
      <trkpt lat="51.912231000" lon="7.571492000">
        <ele>72.0</ele>
        <time>2017-04-29T09:22:58</time>
      </trkpt>
      <trkpt lat="51.912319000" lon="7.571376000">
        <ele>72.1</ele>
        <time>2017-04-29T09:23:25</time>
      </trkpt>
      <trkpt lat="51.912331000" lon="7.571373000">
        <ele>72.1</ele>
        <time>2017-04-29T09:23:27</time>
        <extensions><speed>1.28</speed></extensions>
      </trkpt>
      <trkpt lat="51.912342000" lon="7.571372000">
        <ele>72.1</ele>
        <time>2017-04-29T09:23:28</time>
        <extensions><speed>1.27</speed></extensions>
      </trkpt>
      <trkpt lat="51.912354000" lon="7.571368000">
        <ele>72.1</ele>
        <time>2017-04-29T09:23:29</time>
        <extensions><speed>1.30</speed></extensions>
      </trkpt>
      <trkpt lat="51.912369000" lon="7.571366000">
        <ele>72.1</ele>
        <time>2017-04-29T09:23:30</time>
        <extensions><speed>1.27</speed></extensions>
      </trkpt>
      <trkpt lat="51.912376000" lon="7.571364000">
        <ele>72.1</ele>
        <time>2017-04-29T09:23:31</time>
        <extensions><speed>1.30</speed></extensions>
      </trkpt>
      <trkpt lat="51.912388000" lon="7.571362000">
        <ele>72.1</ele>
        <time>2017-04-29T09:23:32</time>
        <extensions><speed>1.32</speed></extensions>
      </trkpt>
      <trkpt lat="51.912399000" lon="7.571362000">
        <ele>72.1</ele>
        <time>2017-04-29T09:23:33</time>
        <extensions><speed>1.24</speed></extensions>
      </trkpt>
      <trkpt lat="51.912407000" lon="7.571366000">
        <ele>72.0</ele>
        <time>2017-04-29T09:23:34</time>
        <extensions><speed>1.17</speed></extensions>
      </trkpt>
      <trkpt lat="51.912415000" lon="7.571373000">
        <ele>72.0</ele>
        <time>2017-04-29T09:23:35</time>
        <extensions><speed>1.17</speed></extensions>
      </trkpt>
      <trkpt lat="51.912426000" lon="7.571370000">
        <ele>72.0</ele>
        <time>2017-04-29T09:23:36</time>
        <extensions><speed>1.15</speed></extensions>
      </trkpt>
      <trkpt lat="51.912441000" lon="7.571364000">
        <ele>72.0</ele>
        <time>2017-04-29T09:23:37</time>
        <extensions><speed>1.15</speed></extensions>
      </trkpt>
      <trkpt lat="51.912441000" lon="7.571368000">
        <ele>71.9</ele>
        <time>2017-04-29T09:23:40</time>
      </trkpt>
      <trkpt lat="51.912441000" lon="7.571370000">
        <ele>71.9</ele>
        <time>2017-04-29T09:23:42</time>
        <extensions><speed>0.12</speed></extensions>
      </trkpt>
      <trkpt lat="51.912453000" lon="7.571370000">
        <ele>71.9</ele>
        <time>2017-04-29T09:23:43</time>
        <extensions><speed>0.28</speed></extensions>
      </trkpt>
      <trkpt lat="51.912464000" lon="7.571372000">
        <ele>71.9</ele>
        <time>2017-04-29T09:23:44</time>
        <extensions><speed>0.69</speed></extensions>
      </trkpt>
      <trkpt lat="51.912476000" lon="7.571373000">
        <ele>71.8</ele>
        <time>2017-04-29T09:23:45</time>
        <extensions><speed>0.95</speed></extensions>
      </trkpt>
      <trkpt lat="51.912487000" lon="7.571375000">
        <ele>71.8</ele>
        <time>2017-04-29T09:23:46</time>
        <extensions><speed>1.23</speed></extensions>
      </trkpt>
      <trkpt lat="51.912502000" lon="7.571375000">
        <ele>71.8</ele>
        <time>2017-04-29T09:23:47</time>
        <extensions><speed>1.36</speed></extensions>
      </trkpt>
      <trkpt lat="51.912514000" lon="7.571373000">
        <ele>71.8</ele>
        <time>2017-04-29T09:23:48</time>
        <extensions><speed>1.40</speed></extensions>
      </trkpt>
      <trkpt lat="51.912529000" lon="7.571372000">
        <ele>71.8</ele>
        <time>2017-04-29T09:23:49</time>
        <extensions><speed>1.44</speed></extensions>
      </trkpt>
      <trkpt lat="51.912540000" lon="7.571372000">
        <ele>71.7</ele>
        <time>2017-04-29T09:23:50</time>
        <extensions><speed>1.52</speed></extensions>
      </trkpt>
      <trkpt lat="51.912560000" lon="7.571368000">
        <ele>71.7</ele>
        <time>2017-04-29T09:23:51</time>
        <extensions><speed>1.49</speed></extensions>
      </trkpt>
      <trkpt lat="51.912571000" lon="7.571366000">
        <ele>71.7</ele>
        <time>2017-04-29T09:23:52</time>
        <extensions><speed>1.42</speed></extensions>
      </trkpt>
      <trkpt lat="51.912579000" lon="7.571364000">
        <ele>71.6</ele>
        <time>2017-04-29T09:23:53</time>
        <extensions><speed>1.36</speed></extensions>
      </trkpt>
      <trkpt lat="51.912594000" lon="7.571364000">
        <ele>71.6</ele>
        <time>2017-04-29T09:23:54</time>
        <extensions><speed>1.39</speed></extensions>
      </trkpt>
      <trkpt lat="51.912605000" lon="7.571362000">
        <ele>71.5</ele>
        <time>2017-04-29T09:23:55</time>
        <extensions><speed>1.33</speed></extensions>
      </trkpt>
      <trkpt lat="51.912617000" lon="7.571359000">
        <ele>71.5</ele>
        <time>2017-04-29T09:23:56</time>
        <extensions><speed>1.33</speed></extensions>
      </trkpt>
      <trkpt lat="51.912632000" lon="7.571355000">
        <ele>71.4</ele>
        <time>2017-04-29T09:23:57</time>
        <extensions><speed>1.39</speed></extensions>
      </trkpt>
      <trkpt lat="51.912643000" lon="7.571355000">
        <ele>71.4</ele>
        <time>2017-04-29T09:23:58</time>
        <extensions><speed>1.44</speed></extensions>
      </trkpt>
      <trkpt lat="51.912655000" lon="7.571353000">
        <ele>71.4</ele>
        <time>2017-04-29T09:23:59</time>
        <extensions><speed>1.40</speed></extensions>
      </trkpt>
      <trkpt lat="51.912666000" lon="7.571348000">
        <ele>71.3</ele>
        <time>2017-04-29T09:24:00</time>
        <extensions><speed>1.43</speed></extensions>
      </trkpt>
      <trkpt lat="51.912674000" lon="7.571347000">
        <ele>71.3</ele>
        <time>2017-04-29T09:24:01</time>
        <extensions><speed>1.36</speed></extensions>
      </trkpt>
      <trkpt lat="51.912685000" lon="7.571350000">
        <ele>71.3</ele>
        <time>2017-04-29T09:24:02</time>
        <extensions><speed>1.33</speed></extensions>
      </trkpt>
      <trkpt lat="51.912701000" lon="7.571350000">
        <ele>71.2</ele>
        <time>2017-04-29T09:24:03</time>
        <extensions><speed>1.24</speed></extensions>
      </trkpt>
      <trkpt lat="51.912708000" lon="7.571345000">
        <ele>71.2</ele>
        <time>2017-04-29T09:24:04</time>
        <extensions><speed>1.24</speed></extensions>
      </trkpt>
      <trkpt lat="51.912720000" lon="7.571345000">
        <ele>71.2</ele>
        <time>2017-04-29T09:24:05</time>
        <extensions><speed>1.09</speed></extensions>
      </trkpt>
      <trkpt lat="51.912724000" lon="7.571345000">
        <ele>71.1</ele>
        <time>2017-04-29T09:24:06</time>
        <extensions><speed>0.92</speed></extensions>
      </trkpt>
      <trkpt lat="51.912735000" lon="7.571345000">
        <ele>71.1</ele>
        <time>2017-04-29T09:24:07</time>
        <extensions><speed>0.92</speed></extensions>
      </trkpt>
      <trkpt lat="51.912746000" lon="7.571345000">
        <ele>71.0</ele>
        <time>2017-04-29T09:24:08</time>
        <extensions><speed>1.07</speed></extensions>
      </trkpt>
      <trkpt lat="51.912766000" lon="7.571347000">
        <ele>71.0</ele>
        <time>2017-04-29T09:24:09</time>
        <extensions><speed>1.14</speed></extensions>
      </trkpt>
      <trkpt lat="51.912777000" lon="7.571347000">
        <ele>71.0</ele>
        <time>2017-04-29T09:24:10</time>
        <extensions><speed>1.33</speed></extensions>
      </trkpt>
      <trkpt lat="51.912788000" lon="7.571343000">
        <ele>70.9</ele>
        <time>2017-04-29T09:24:11</time>
        <extensions><speed>1.33</speed></extensions>
      </trkpt>
      <trkpt lat="51.912796000" lon="7.571336000">
        <ele>70.9</ele>
        <time>2017-04-29T09:24:12</time>
        <extensions><speed>1.21</speed></extensions>
      </trkpt>
      <trkpt lat="51.912804000" lon="7.571336000">
        <ele>70.9</ele>
        <time>2017-04-29T09:24:13</time>
        <extensions><speed>1.21</speed></extensions>
      </trkpt>
      <trkpt lat="51.912815000" lon="7.571340000">
        <ele>70.8</ele>
        <time>2017-04-29T09:24:14</time>
        <extensions><speed>1.22</speed></extensions>
      </trkpt>
      <trkpt lat="51.912830000" lon="7.571343000">
        <ele>70.8</ele>
        <time>2017-04-29T09:24:15</time>
        <extensions><speed>1.17</speed></extensions>
      </trkpt>
      <trkpt lat="51.912842000" lon="7.571342000">
        <ele>70.7</ele>
        <time>2017-04-29T09:24:16</time>
        <extensions><speed>1.35</speed></extensions>
      </trkpt>
      <trkpt lat="51.912857000" lon="7.571336000">
        <ele>70.7</ele>
        <time>2017-04-29T09:24:17</time>
        <extensions><speed>1.40</speed></extensions>
      </trkpt>
      <trkpt lat="51.912868000" lon="7.571335000">
        <ele>70.7</ele>
        <time>2017-04-29T09:24:18</time>
        <extensions><speed>1.38</speed></extensions>
      </trkpt>
      <trkpt lat="51.912884000" lon="7.571333000">
        <ele>70.6</ele>
        <time>2017-04-29T09:24:19</time>
        <extensions><speed>1.38</speed></extensions>
      </trkpt>
      <trkpt lat="51.912899000" lon="7.571330000">
        <ele>70.6</ele>
        <time>2017-04-29T09:24:20</time>
        <extensions><speed>1.49</speed></extensions>
      </trkpt>
      <trkpt lat="51.912914000" lon="7.571327000">
        <ele>70.5</ele>
        <time>2017-04-29T09:24:21</time>
        <extensions><speed>1.45</speed></extensions>
      </trkpt>
      <trkpt lat="51.912926000" lon="7.571325000">
        <ele>70.5</ele>
        <time>2017-04-29T09:24:22</time>
        <extensions><speed>1.42</speed></extensions>
      </trkpt>
      <trkpt lat="51.912937000" lon="7.571325000">
        <ele>70.5</ele>
        <time>2017-04-29T09:24:23</time>
        <extensions><speed>1.48</speed></extensions>
      </trkpt>
      <trkpt lat="51.912949000" lon="7.571323000">
        <ele>70.4</ele>
        <time>2017-04-29T09:24:24</time>
        <extensions><speed>1.27</speed></extensions>
      </trkpt>
      <trkpt lat="51.912960000" lon="7.571322000">
        <ele>70.4</ele>
        <time>2017-04-29T09:24:25</time>
        <extensions><speed>1.14</speed></extensions>
      </trkpt>
      <trkpt lat="51.912968000" lon="7.571320000">
        <ele>70.4</ele>
        <time>2017-04-29T09:24:26</time>
        <extensions><speed>1.26</speed></extensions>
      </trkpt>
      <trkpt lat="51.912979000" lon="7.571320000">
        <ele>70.3</ele>
        <time>2017-04-29T09:24:27</time>
        <extensions><speed>1.21</speed></extensions>
      </trkpt>
      <trkpt lat="51.912994000" lon="7.571317000">
        <ele>70.3</ele>
        <time>2017-04-29T09:24:28</time>
        <extensions><speed>1.21</speed></extensions>
      </trkpt>
      <trkpt lat="51.913010000" lon="7.571313000">
        <ele>70.2</ele>
        <time>2017-04-29T09:24:29</time>
        <extensions><speed>1.29</speed></extensions>
      </trkpt>
      <trkpt lat="51.913021000" lon="7.571310000">
        <ele>70.2</ele>
        <time>2017-04-29T09:24:30</time>
        <extensions><speed>1.29</speed></extensions>
      </trkpt>
      <trkpt lat="51.913033000" lon="7.571305000">
        <ele>70.1</ele>
        <time>2017-04-29T09:24:31</time>
        <extensions><speed>1.35</speed></extensions>
      </trkpt>
      <trkpt lat="51.913048000" lon="7.571300000">
        <ele>70.1</ele>
        <time>2017-04-29T09:24:32</time>
        <extensions><speed>1.43</speed></extensions>
      </trkpt>
      <trkpt lat="51.913059000" lon="7.571298000">
        <ele>70.0</ele>
        <time>2017-04-29T09:24:33</time>
        <extensions><speed>1.43</speed></extensions>
      </trkpt>
      <trkpt lat="51.913074000" lon="7.571298000">
        <ele>70.0</ele>
        <time>2017-04-29T09:24:34</time>
        <extensions><speed>1.41</speed></extensions>
      </trkpt>
      <trkpt lat="51.913090000" lon="7.571296000">
        <ele>70.0</ele>
        <time>2017-04-29T09:24:35</time>
        <extensions><speed>1.50</speed></extensions>
      </trkpt>
      <trkpt lat="51.913101000" lon="7.571294000">
        <ele>69.9</ele>
        <time>2017-04-29T09:24:36</time>
        <extensions><speed>1.41</speed></extensions>
      </trkpt>
      <trkpt lat="51.913116000" lon="7.571290000">
        <ele>69.9</ele>
        <time>2017-04-29T09:24:37</time>
        <extensions><speed>1.48</speed></extensions>
      </trkpt>
      <trkpt lat="51.913128000" lon="7.571289000">
        <ele>69.8</ele>
        <time>2017-04-29T09:24:38</time>
        <extensions><speed>1.35</speed></extensions>
      </trkpt>
      <trkpt lat="51.913143000" lon="7.571287000">
        <ele>69.8</ele>
        <time>2017-04-29T09:24:39</time>
        <extensions><speed>1.39</speed></extensions>
      </trkpt>
      <trkpt lat="51.913155000" lon="7.571285000">
        <ele>69.7</ele>
        <time>2017-04-29T09:24:40</time>
        <extensions><speed>1.22</speed></extensions>
      </trkpt>
      <trkpt lat="51.913162000" lon="7.571287000">
        <ele>69.7</ele>
        <time>2017-04-29T09:24:41</time>
        <extensions><speed>1.31</speed></extensions>
      </trkpt>
      <trkpt lat="51.913181000" lon="7.571287000">
        <ele>69.6</ele>
        <time>2017-04-29T09:24:42</time>
        <extensions><speed>1.31</speed></extensions>
      </trkpt>
      <trkpt lat="51.913193000" lon="7.571285000">
        <ele>69.6</ele>
        <time>2017-04-29T09:24:43</time>
        <extensions><speed>1.37</speed></extensions>
      </trkpt>
      <trkpt lat="51.913208000" lon="7.571282000">
        <ele>69.6</ele>
        <time>2017-04-29T09:24:44</time>
        <extensions><speed>1.36</speed></extensions>
      </trkpt>
      <trkpt lat="51.913219000" lon="7.571282000">
        <ele>69.5</ele>
        <time>2017-04-29T09:24:45</time>
        <extensions><speed>1.36</speed></extensions>
      </trkpt>
      <trkpt lat="51.913227000" lon="7.571279000">
        <ele>69.5</ele>
        <time>2017-04-29T09:24:46</time>
        <extensions><speed>1.35</speed></extensions>
      </trkpt>
      <trkpt lat="51.913242000" lon="7.571275000">
        <ele>69.4</ele>
        <time>2017-04-29T09:24:47</time>
        <extensions><speed>1.35</speed></extensions>
      </trkpt>
      <trkpt lat="51.913254000" lon="7.571273000">
        <ele>69.4</ele>
        <time>2017-04-29T09:24:48</time>
        <extensions><speed>1.35</speed></extensions>
      </trkpt>
      <trkpt lat="51.913265000" lon="7.571270000">
        <ele>69.4</ele>
        <time>2017-04-29T09:24:49</time>
        <extensions><speed>1.38</speed></extensions>
      </trkpt>
      <trkpt lat="51.913280000" lon="7.571268000">
        <ele>69.3</ele>
        <time>2017-04-29T09:24:50</time>
        <extensions><speed>1.38</speed></extensions>
      </trkpt>
      <trkpt lat="51.913292000" lon="7.571270000">
        <ele>69.3</ele>
        <time>2017-04-29T09:24:51</time>
        <extensions><speed>1.36</speed></extensions>
      </trkpt>
      <trkpt lat="51.913303000" lon="7.571275000">
        <ele>69.3</ele>
        <time>2017-04-29T09:24:52</time>
        <extensions><speed>1.28</speed></extensions>
      </trkpt>
      <trkpt lat="51.913319000" lon="7.571277000">
        <ele>69.2</ele>
        <time>2017-04-29T09:24:53</time>
        <extensions><speed>1.25</speed></extensions>
      </trkpt>
      <trkpt lat="51.913326000" lon="7.571275000">
        <ele>69.2</ele>
        <time>2017-04-29T09:24:54</time>
        <extensions><speed>1.20</speed></extensions>
      </trkpt>
      <trkpt lat="51.913334000" lon="7.571273000">
        <ele>69.2</ele>
        <time>2017-04-29T09:24:55</time>
        <extensions><speed>1.20</speed></extensions>
      </trkpt>
      <trkpt lat="51.913349000" lon="7.571268000">
        <ele>69.1</ele>
        <time>2017-04-29T09:24:56</time>
        <extensions><speed>1.19</speed></extensions>
      </trkpt>
      <trkpt lat="51.913361000" lon="7.571266000">
        <ele>69.1</ele>
        <time>2017-04-29T09:24:57</time>
        <extensions><speed>1.19</speed></extensions>
      </trkpt>
      <trkpt lat="51.913372000" lon="7.571266000">
        <ele>69.1</ele>
        <time>2017-04-29T09:24:58</time>
        <extensions><speed>1.21</speed></extensions>
      </trkpt>
      <trkpt lat="51.913387000" lon="7.571266000">
        <ele>69.0</ele>
        <time>2017-04-29T09:24:59</time>
        <extensions><speed>1.18</speed></extensions>
      </trkpt>
      <trkpt lat="51.913395000" lon="7.571266000">
        <ele>69.0</ele>
        <time>2017-04-29T09:25:00</time>
        <extensions><speed>1.20</speed></extensions>
      </trkpt>
      <trkpt lat="51.913410000" lon="7.571268000">
        <ele>69.0</ele>
        <time>2017-04-29T09:25:01</time>
        <extensions><speed>1.24</speed></extensions>
      </trkpt>
      <trkpt lat="51.913418000" lon="7.571268000">
        <ele>68.9</ele>
        <time>2017-04-29T09:25:02</time>
        <extensions><speed>1.21</speed></extensions>
      </trkpt>
      <trkpt lat="51.913429000" lon="7.571266000">
        <ele>68.9</ele>
        <time>2017-04-29T09:25:03</time>
        <extensions><speed>1.16</speed></extensions>
      </trkpt>
      <trkpt lat="51.913441000" lon="7.571268000">
        <ele>68.9</ele>
        <time>2017-04-29T09:25:04</time>
        <extensions><speed>1.16</speed></extensions>
      </trkpt>
      <trkpt lat="51.913452000" lon="7.571271000">
        <ele>68.8</ele>
        <time>2017-04-29T09:25:05</time>
        <extensions><speed>1.15</speed></extensions>
      </trkpt>
      <trkpt lat="51.913467000" lon="7.571270000">
        <ele>68.8</ele>
        <time>2017-04-29T09:25:06</time>
        <extensions><speed>1.15</speed></extensions>
      </trkpt>
      <trkpt lat="51.913483000" lon="7.571270000">
        <ele>68.8</ele>
        <time>2017-04-29T09:25:07</time>
        <extensions><speed>1.15</speed></extensions>
      </trkpt>
      <trkpt lat="51.913494000" lon="7.571270000">
        <ele>68.7</ele>
        <time>2017-04-29T09:25:08</time>
        <extensions><speed>1.21</speed></extensions>
      </trkpt>
      <trkpt lat="51.913506000" lon="7.571271000">
        <ele>68.7</ele>
        <time>2017-04-29T09:25:09</time>
        <extensions><speed>1.21</speed></extensions>
      </trkpt>
      <trkpt lat="51.913517000" lon="7.571270000">
        <ele>68.7</ele>
        <time>2017-04-29T09:25:10</time>
        <extensions><speed>1.21</speed></extensions>
      </trkpt>
      <trkpt lat="51.913528000" lon="7.571268000">
        <ele>68.6</ele>
        <time>2017-04-29T09:25:11</time>
        <extensions><speed>1.21</speed></extensions>
      </trkpt>
      <trkpt lat="51.913540000" lon="7.571268000">
        <ele>68.6</ele>
        <time>2017-04-29T09:25:12</time>
        <extensions><speed>1.12</speed></extensions>
      </trkpt>
      <trkpt lat="51.913551000" lon="7.571266000">
        <ele>68.5</ele>
        <time>2017-04-29T09:25:13</time>
        <extensions><speed>1.03</speed></extensions>
      </trkpt>
      <trkpt lat="51.913563000" lon="7.571266000">
        <ele>68.5</ele>
        <time>2017-04-29T09:25:14</time>
        <extensions><speed>1.10</speed></extensions>
      </trkpt>
      <trkpt lat="51.913578000" lon="7.571266000">
        <ele>68.5</ele>
        <time>2017-04-29T09:25:15</time>
        <extensions><speed>1.21</speed></extensions>
      </trkpt>
      <trkpt lat="51.913589000" lon="7.571266000">
        <ele>68.4</ele>
        <time>2017-04-29T09:25:16</time>
        <extensions><speed>1.16</speed></extensions>
      </trkpt>
      <trkpt lat="51.913601000" lon="7.571268000">
        <ele>68.4</ele>
        <time>2017-04-29T09:25:17</time>
        <extensions><speed>1.21</speed></extensions>
      </trkpt>
      <trkpt lat="51.913616000" lon="7.571270000">
        <ele>68.4</ele>
        <time>2017-04-29T09:25:18</time>
        <extensions><speed>1.27</speed></extensions>
      </trkpt>
      <trkpt lat="51.913628000" lon="7.571271000">
        <ele>68.3</ele>
        <time>2017-04-29T09:25:19</time>
        <extensions><speed>1.27</speed></extensions>
      </trkpt>
      <trkpt lat="51.913643000" lon="7.571270000">
        <ele>68.3</ele>
        <time>2017-04-29T09:25:20</time>
        <extensions><speed>1.28</speed></extensions>
      </trkpt>
      <trkpt lat="51.913651000" lon="7.571270000">
        <ele>68.3</ele>
        <time>2017-04-29T09:25:21</time>
        <extensions><speed>1.31</speed></extensions>
      </trkpt>
      <trkpt lat="51.913666000" lon="7.571270000">
        <ele>68.2</ele>
        <time>2017-04-29T09:25:22</time>
        <extensions><speed>1.32</speed></extensions>
      </trkpt>
      <trkpt lat="51.913681000" lon="7.571268000">
        <ele>68.2</ele>
        <time>2017-04-29T09:25:23</time>
        <extensions><speed>1.31</speed></extensions>
      </trkpt>
      <trkpt lat="51.913692000" lon="7.571266000">
        <ele>68.2</ele>
        <time>2017-04-29T09:25:24</time>
        <extensions><speed>1.33</speed></extensions>
      </trkpt>
      <trkpt lat="51.913708000" lon="7.571265000">
        <ele>68.1</ele>
        <time>2017-04-29T09:25:25</time>
        <extensions><speed>1.31</speed></extensions>
      </trkpt>
      <trkpt lat="51.913715000" lon="7.571261000">
        <ele>68.1</ele>
        <time>2017-04-29T09:25:26</time>
        <extensions><speed>1.29</speed></extensions>
      </trkpt>
      <trkpt lat="51.913731000" lon="7.571259000">
        <ele>68.0</ele>
        <time>2017-04-29T09:25:27</time>
        <extensions><speed>1.29</speed></extensions>
      </trkpt>
      <trkpt lat="51.913746000" lon="7.571259000">
        <ele>68.0</ele>
        <time>2017-04-29T09:25:28</time>
        <extensions><speed>1.29</speed></extensions>
      </trkpt>
      <trkpt lat="51.913757000" lon="7.571261000">
        <ele>68.0</ele>
        <time>2017-04-29T09:25:29</time>
        <extensions><speed>1.29</speed></extensions>
      </trkpt>
      <trkpt lat="51.913773000" lon="7.571261000">
        <ele>68.0</ele>
        <time>2017-04-29T09:25:30</time>
        <extensions><speed>1.26</speed></extensions>
      </trkpt>
      <trkpt lat="51.913780000" lon="7.571261000">
        <ele>67.9</ele>
        <time>2017-04-29T09:25:31</time>
        <extensions><speed>1.24</speed></extensions>
      </trkpt>
      <trkpt lat="51.913795000" lon="7.571263000">
        <ele>67.9</ele>
        <time>2017-04-29T09:25:32</time>
        <extensions><speed>1.24</speed></extensions>
      </trkpt>
      <trkpt lat="51.913803000" lon="7.571263000">
        <ele>67.8</ele>
        <time>2017-04-29T09:25:33</time>
      </trkpt>
      <trkpt lat="51.913815000" lon="7.571263000">
        <ele>67.8</ele>
        <time>2017-04-29T09:25:35</time>
        <extensions><speed>1.28</speed></extensions>
      </trkpt>
      <trkpt lat="51.913830000" lon="7.571263000">
        <ele>67.7</ele>
        <time>2017-04-29T09:25:36</time>
        <extensions><speed>1.21</speed></extensions>
      </trkpt>
      <trkpt lat="51.913845000" lon="7.571261000">
        <ele>67.7</ele>
        <time>2017-04-29T09:25:37</time>
        <extensions><speed>1.16</speed></extensions>
      </trkpt>
      <trkpt lat="51.913853000" lon="7.571259000">
        <ele>67.7</ele>
        <time>2017-04-29T09:25:38</time>
        <extensions><speed>1.19</speed></extensions>
      </trkpt>
      <trkpt lat="51.913860000" lon="7.571260000">
        <ele>67.6</ele>
        <time>2017-04-29T09:25:39</time>
        <extensions><speed>1.09</speed></extensions>
      </trkpt>
      <trkpt lat="51.913872000" lon="7.571261000">
        <ele>67.6</ele>
        <time>2017-04-29T09:25:40</time>
        <extensions><speed>0.95</speed></extensions>
      </trkpt>
      <trkpt lat="51.913876000" lon="7.571259000">
        <ele>67.6</ele>
        <time>2017-04-29T09:25:41</time>
        <extensions><speed>0.88</speed></extensions>
      </trkpt>
      <trkpt lat="51.913887000" lon="7.571257000">
        <ele>67.6</ele>
        <time>2017-04-29T09:25:42</time>
        <extensions><speed>0.87</speed></extensions>
      </trkpt>
      <trkpt lat="51.913902000" lon="7.571257000">
        <ele>67.5</ele>
        <time>2017-04-29T09:25:43</time>
        <extensions><speed>0.87</speed></extensions>
      </trkpt>
      <trkpt lat="51.913914000" lon="7.571259000">
        <ele>67.5</ele>
        <time>2017-04-29T09:25:44</time>
        <extensions><speed>0.99</speed></extensions>
      </trkpt>
      <trkpt lat="51.913925000" lon="7.571259000">
        <ele>67.5</ele>
        <time>2017-04-29T09:25:45</time>
        <extensions><speed>1.10</speed></extensions>
      </trkpt>
      <trkpt lat="51.913940000" lon="7.571261000">
        <ele>67.5</ele>
        <time>2017-04-29T09:25:46</time>
        <extensions><speed>1.17</speed></extensions>
      </trkpt>
      <trkpt lat="51.913948000" lon="7.571261000">
        <ele>67.4</ele>
        <time>2017-04-29T09:25:47</time>
        <extensions><speed>1.17</speed></extensions>
      </trkpt>
      <trkpt lat="51.913960000" lon="7.571260000">
        <ele>67.4</ele>
        <time>2017-04-29T09:25:48</time>
        <extensions><speed>1.14</speed></extensions>
      </trkpt>
      <trkpt lat="51.913971000" lon="7.571255000">
        <ele>67.4</ele>
        <time>2017-04-29T09:25:49</time>
        <extensions><speed>1.14</speed></extensions>
      </trkpt>
      <trkpt lat="51.913982000" lon="7.571252000">
        <ele>67.4</ele>
        <time>2017-04-29T09:25:50</time>
        <extensions><speed>1.18</speed></extensions>
      </trkpt>
      <trkpt lat="51.913990000" lon="7.571249000">
        <ele>67.3</ele>
        <time>2017-04-29T09:25:51</time>
        <extensions><speed>1.13</speed></extensions>
      </trkpt>
      <trkpt lat="51.914001000" lon="7.571247000">
        <ele>67.3</ele>
        <time>2017-04-29T09:25:52</time>
        <extensions><speed>1.15</speed></extensions>
      </trkpt>
      <trkpt lat="51.914013000" lon="7.571247000">
        <ele>67.3</ele>
        <time>2017-04-29T09:25:53</time>
        <extensions><speed>1.22</speed></extensions>
      </trkpt>
      <trkpt lat="51.914032000" lon="7.571247000">
        <ele>67.3</ele>
        <time>2017-04-29T09:25:54</time>
        <extensions><speed>1.23</speed></extensions>
      </trkpt>
      <trkpt lat="51.914043000" lon="7.571243000">
        <ele>67.2</ele>
        <time>2017-04-29T09:25:55</time>
        <extensions><speed>1.21</speed></extensions>
      </trkpt>
      <trkpt lat="51.914055000" lon="7.571242000">
        <ele>67.2</ele>
        <time>2017-04-29T09:25:56</time>
        <extensions><speed>1.22</speed></extensions>
      </trkpt>
      <trkpt lat="51.914070000" lon="7.571245000">
        <ele>67.2</ele>
        <time>2017-04-29T09:25:57</time>
        <extensions><speed>1.27</speed></extensions>
      </trkpt>
      <trkpt lat="51.914078000" lon="7.571240000">
        <ele>67.2</ele>
        <time>2017-04-29T09:25:58</time>
        <extensions><speed>1.22</speed></extensions>
      </trkpt>
      <trkpt lat="51.914093000" lon="7.571235000">
        <ele>67.1</ele>
        <time>2017-04-29T09:25:59</time>
        <extensions><speed>1.22</speed></extensions>
      </trkpt>
      <trkpt lat="51.914104000" lon="7.571228000">
        <ele>67.1</ele>
        <time>2017-04-29T09:26:00</time>
        <extensions><speed>1.19</speed></extensions>
      </trkpt>
      <trkpt lat="51.914120000" lon="7.571222000">
        <ele>67.1</ele>
        <time>2017-04-29T09:26:01</time>
        <extensions><speed>1.25</speed></extensions>
      </trkpt>
      <trkpt lat="51.914135000" lon="7.571220000">
        <ele>67.1</ele>
        <time>2017-04-29T09:26:02</time>
        <extensions><speed>1.25</speed></extensions>
      </trkpt>
      <trkpt lat="51.914143000" lon="7.571218000">
        <ele>67.0</ele>
        <time>2017-04-29T09:26:03</time>
        <extensions><speed>1.25</speed></extensions>
      </trkpt>
      <trkpt lat="51.914158000" lon="7.571215000">
        <ele>67.0</ele>
        <time>2017-04-29T09:26:04</time>
        <extensions><speed>1.20</speed></extensions>
      </trkpt>
      <trkpt lat="51.914169000" lon="7.571212000">
        <ele>67.0</ele>
        <time>2017-04-29T09:26:05</time>
        <extensions><speed>1.17</speed></extensions>
      </trkpt>
      <trkpt lat="51.914177000" lon="7.571212000">
        <ele>67.0</ele>
        <time>2017-04-29T09:26:06</time>
        <extensions><speed>1.16</speed></extensions>
      </trkpt>
      <trkpt lat="51.914192000" lon="7.571212000">
        <ele>66.9</ele>
        <time>2017-04-29T09:26:07</time>
        <extensions><speed>1.12</speed></extensions>
      </trkpt>
      <trkpt lat="51.914204000" lon="7.571212000">
        <ele>66.9</ele>
        <time>2017-04-29T09:26:08</time>
        <extensions><speed>1.16</speed></extensions>
      </trkpt>
      <trkpt lat="51.914207000" lon="7.571212000">
        <ele>66.8</ele>
        <time>2017-04-29T09:26:10</time>
      </trkpt>
      <trkpt lat="51.914223000" lon="7.571212000">
        <ele>66.8</ele>
        <time>2017-04-29T09:26:12</time>
        <extensions><speed>0.71</speed></extensions>
      </trkpt>
      <trkpt lat="51.914234000" lon="7.571210000">
        <ele>66.8</ele>
        <time>2017-04-29T09:26:13</time>
        <extensions><speed>0.68</speed></extensions>
      </trkpt>
      <trkpt lat="51.914249000" lon="7.571205000">
        <ele>66.8</ele>
        <time>2017-04-29T09:26:14</time>
        <extensions><speed>1.05</speed></extensions>
      </trkpt>
      <trkpt lat="51.914265000" lon="7.571203000">
        <ele>66.7</ele>
        <time>2017-04-29T09:26:15</time>
        <extensions><speed>1.14</speed></extensions>
      </trkpt>
      <trkpt lat="51.914272000" lon="7.571201000">
        <ele>66.7</ele>
        <time>2017-04-29T09:26:16</time>
        <extensions><speed>1.12</speed></extensions>
      </trkpt>
      <trkpt lat="51.914288000" lon="7.571200000">
        <ele>66.7</ele>
        <time>2017-04-29T09:26:17</time>
        <extensions><speed>1.23</speed></extensions>
      </trkpt>
      <trkpt lat="51.914303000" lon="7.571201000">
        <ele>66.7</ele>
        <time>2017-04-29T09:26:18</time>
        <extensions><speed>1.34</speed></extensions>
      </trkpt>
      <trkpt lat="51.914322000" lon="7.571200000">
        <ele>66.7</ele>
        <time>2017-04-29T09:26:19</time>
        <extensions><speed>1.35</speed></extensions>
      </trkpt>
      <trkpt lat="51.914326000" lon="7.571197000">
        <ele>66.6</ele>
        <time>2017-04-29T09:26:20</time>
      </trkpt>
      <trkpt lat="51.914333000" lon="7.571191000">
        <ele>66.6</ele>
        <time>2017-04-29T09:26:22</time>
        <extensions><speed>0.86</speed></extensions>
      </trkpt>
      <trkpt lat="51.914337000" lon="7.571187000">
        <ele>66.5</ele>
        <time>2017-04-29T09:26:23</time>
        <extensions><speed>0.71</speed></extensions>
      </trkpt>
      <trkpt lat="51.914349000" lon="7.571184000">
        <ele>66.5</ele>
        <time>2017-04-29T09:26:24</time>
        <extensions><speed>0.69</speed></extensions>
      </trkpt>
      <trkpt lat="51.914364000" lon="7.571184000">
        <ele>66.5</ele>
        <time>2017-04-29T09:26:25</time>
        <extensions><speed>0.86</speed></extensions>
      </trkpt>
      <trkpt lat="51.914375000" lon="7.571184000">
        <ele>66.5</ele>
        <time>2017-04-29T09:26:26</time>
        <extensions><speed>0.96</speed></extensions>
      </trkpt>
      <trkpt lat="51.914391000" lon="7.571182000">
        <ele>66.5</ele>
        <time>2017-04-29T09:26:27</time>
        <extensions><speed>1.08</speed></extensions>
      </trkpt>
      <trkpt lat="51.914402000" lon="7.571177000">
        <ele>66.5</ele>
        <time>2017-04-29T09:26:28</time>
        <extensions><speed>1.12</speed></extensions>
      </trkpt>
      <trkpt lat="51.914413000" lon="7.571175000">
        <ele>66.4</ele>
        <time>2017-04-29T09:26:29</time>
        <extensions><speed>1.22</speed></extensions>
      </trkpt>
      <trkpt lat="51.914429000" lon="7.571175000">
        <ele>66.4</ele>
        <time>2017-04-29T09:26:30</time>
        <extensions><speed>1.24</speed></extensions>
      </trkpt>
      <trkpt lat="51.914444000" lon="7.571173000">
        <ele>66.4</ele>
        <time>2017-04-29T09:26:31</time>
        <extensions><speed>1.25</speed></extensions>
      </trkpt>
      <trkpt lat="51.914455000" lon="7.571173000">
        <ele>66.3</ele>
        <time>2017-04-29T09:26:32</time>
        <extensions><speed>1.20</speed></extensions>
      </trkpt>
      <trkpt lat="51.914467000" lon="7.571172000">
        <ele>66.3</ele>
        <time>2017-04-29T09:26:33</time>
        <extensions><speed>1.22</speed></extensions>
      </trkpt>
      <trkpt lat="51.914482000" lon="7.571170000">
        <ele>66.3</ele>
        <time>2017-04-29T09:26:34</time>
        <extensions><speed>1.16</speed></extensions>
      </trkpt>
      <trkpt lat="51.914494000" lon="7.571167000">
        <ele>66.2</ele>
        <time>2017-04-29T09:26:35</time>
        <extensions><speed>1.15</speed></extensions>
      </trkpt>
      <trkpt lat="51.914505000" lon="7.571167000">
        <ele>66.2</ele>
        <time>2017-04-29T09:26:36</time>
        <extensions><speed>1.15</speed></extensions>
      </trkpt>
      <trkpt lat="51.914520000" lon="7.571167000">
        <ele>66.2</ele>
        <time>2017-04-29T09:26:37</time>
        <extensions><speed>1.15</speed></extensions>
      </trkpt>
      <trkpt lat="51.914532000" lon="7.571165000">
        <ele>66.1</ele>
        <time>2017-04-29T09:26:38</time>
        <extensions><speed>1.14</speed></extensions>
      </trkpt>
      <trkpt lat="51.914547000" lon="7.571161000">
        <ele>66.1</ele>
        <time>2017-04-29T09:26:39</time>
        <extensions><speed>1.15</speed></extensions>
      </trkpt>
      <trkpt lat="51.914562000" lon="7.571157000">
        <ele>66.1</ele>
        <time>2017-04-29T09:26:40</time>
        <extensions><speed>1.14</speed></extensions>
      </trkpt>
      <trkpt lat="51.914570000" lon="7.571156000">
        <ele>66.0</ele>
        <time>2017-04-29T09:26:41</time>
        <extensions><speed>1.12</speed></extensions>
      </trkpt>
      <trkpt lat="51.914581000" lon="7.571152000">
        <ele>66.0</ele>
        <time>2017-04-29T09:26:42</time>
        <extensions><speed>1.05</speed></extensions>
      </trkpt>
      <trkpt lat="51.914593000" lon="7.571150000">
        <ele>66.0</ele>
        <time>2017-04-29T09:26:43</time>
        <extensions><speed>1.10</speed></extensions>
      </trkpt>
      <trkpt lat="51.914604000" lon="7.571148000">
        <ele>66.0</ele>
        <time>2017-04-29T09:26:44</time>
        <extensions><speed>1.04</speed></extensions>
      </trkpt>
      <trkpt lat="51.914619000" lon="7.571147000">
        <ele>66.0</ele>
        <time>2017-04-29T09:26:45</time>
        <extensions><speed>1.11</speed></extensions>
      </trkpt>
      <trkpt lat="51.914635000" lon="7.571145000">
        <ele>65.9</ele>
        <time>2017-04-29T09:26:46</time>
        <extensions><speed>1.29</speed></extensions>
      </trkpt>
      <trkpt lat="51.914650000" lon="7.571144000">
        <ele>65.9</ele>
        <time>2017-04-29T09:26:47</time>
        <extensions><speed>1.35</speed></extensions>
      </trkpt>
      <trkpt lat="51.914658000" lon="7.571144000">
        <ele>65.9</ele>
        <time>2017-04-29T09:26:48</time>
      </trkpt>
      <trkpt lat="51.914673000" lon="7.571140000">
        <ele>65.9</ele>
        <time>2017-04-29T09:26:50</time>
        <extensions><speed>1.30</speed></extensions>
      </trkpt>
      <trkpt lat="51.914692000" lon="7.571136000">
        <ele>65.8</ele>
        <time>2017-04-29T09:26:51</time>
        <extensions><speed>1.27</speed></extensions>
      </trkpt>
      <trkpt lat="51.914703000" lon="7.571135000">
        <ele>65.8</ele>
        <time>2017-04-29T09:26:52</time>
        <extensions><speed>1.28</speed></extensions>
      </trkpt>
      <trkpt lat="51.914719000" lon="7.571132000">
        <ele>65.8</ele>
        <time>2017-04-29T09:26:53</time>
        <extensions><speed>1.39</speed></extensions>
      </trkpt>
      <trkpt lat="51.914730000" lon="7.571128000">
        <ele>65.8</ele>
        <time>2017-04-29T09:26:54</time>
        <extensions><speed>1.40</speed></extensions>
      </trkpt>
      <trkpt lat="51.914749000" lon="7.571130000">
        <ele>65.8</ele>
        <time>2017-04-29T09:26:55</time>
        <extensions><speed>1.40</speed></extensions>
      </trkpt>
      <trkpt lat="51.914761000" lon="7.571128000">
        <ele>65.8</ele>
        <time>2017-04-29T09:26:56</time>
        <extensions><speed>1.39</speed></extensions>
      </trkpt>
      <trkpt lat="51.914776000" lon="7.571125000">
        <ele>65.7</ele>
        <time>2017-04-29T09:26:57</time>
        <extensions><speed>1.38</speed></extensions>
      </trkpt>
      <trkpt lat="51.914787000" lon="7.571121000">
        <ele>65.7</ele>
        <time>2017-04-29T09:26:58</time>
        <extensions><speed>1.31</speed></extensions>
      </trkpt>
      <trkpt lat="51.914799000" lon="7.571117000">
        <ele>65.7</ele>
        <time>2017-04-29T09:26:59</time>
        <extensions><speed>1.28</speed></extensions>
      </trkpt>
      <trkpt lat="51.914814000" lon="7.571115000">
        <ele>65.7</ele>
        <time>2017-04-29T09:27:00</time>
        <extensions><speed>1.26</speed></extensions>
      </trkpt>
      <trkpt lat="51.914822000" lon="7.571110000">
        <ele>65.6</ele>
        <time>2017-04-29T09:27:01</time>
      </trkpt>
      <trkpt lat="51.914822000" lon="7.571102000">
        <ele>65.6</ele>
        <time>2017-04-29T09:27:03</time>
        <extensions><speed>0.85</speed></extensions>
      </trkpt>
      <trkpt lat="51.914829000" lon="7.571096000">
        <ele>65.6</ele>
        <time>2017-04-29T09:27:04</time>
        <extensions><speed>0.68</speed></extensions>
      </trkpt>
      <trkpt lat="51.914837000" lon="7.571095000">
        <ele>65.6</ele>
        <time>2017-04-29T09:27:05</time>
        <extensions><speed>0.64</speed></extensions>
      </trkpt>
      <trkpt lat="51.914845000" lon="7.571093000">
        <ele>65.6</ele>
        <time>2017-04-29T09:27:06</time>
        <extensions><speed>0.69</speed></extensions>
      </trkpt>
      <trkpt lat="51.914856000" lon="7.571090000">
        <ele>65.6</ele>
        <time>2017-04-29T09:27:07</time>
        <extensions><speed>0.69</speed></extensions>
      </trkpt>
      <trkpt lat="51.914871000" lon="7.571086000">
        <ele>65.6</ele>
        <time>2017-04-29T09:27:08</time>
        <extensions><speed>0.81</speed></extensions>
      </trkpt>
      <trkpt lat="51.914883000" lon="7.571088000">
        <ele>65.6</ele>
        <time>2017-04-29T09:27:09</time>
        <extensions><speed>0.84</speed></extensions>
      </trkpt>
      <trkpt lat="51.914894000" lon="7.571090000">
        <ele>65.5</ele>
        <time>2017-04-29T09:27:10</time>
        <extensions><speed>0.97</speed></extensions>
      </trkpt>
      <trkpt lat="51.914909000" lon="7.571090000">
        <ele>65.5</ele>
        <time>2017-04-29T09:27:11</time>
        <extensions><speed>1.12</speed></extensions>
      </trkpt>
      <trkpt lat="51.914921000" lon="7.571085000">
        <ele>65.5</ele>
        <time>2017-04-29T09:27:12</time>
        <extensions><speed>1.24</speed></extensions>
      </trkpt>
      <trkpt lat="51.914936000" lon="7.571080000">
        <ele>65.5</ele>
        <time>2017-04-29T09:27:13</time>
        <extensions><speed>1.17</speed></extensions>
      </trkpt>
      <trkpt lat="51.914951000" lon="7.571079000">
        <ele>65.5</ele>
        <time>2017-04-29T09:27:14</time>
        <extensions><speed>1.32</speed></extensions>
      </trkpt>
      <trkpt lat="51.914963000" lon="7.571077000">
        <ele>65.5</ele>
        <time>2017-04-29T09:27:15</time>
        <extensions><speed>1.32</speed></extensions>
      </trkpt>
      <trkpt lat="51.914974000" lon="7.571075000">
        <ele>65.4</ele>
        <time>2017-04-29T09:27:16</time>
        <extensions><speed>1.27</speed></extensions>
      </trkpt>
      <trkpt lat="51.914986000" lon="7.571074000">
        <ele>65.4</ele>
        <time>2017-04-29T09:27:17</time>
        <extensions><speed>1.21</speed></extensions>
      </trkpt>
      <trkpt lat="51.915001000" lon="7.571072000">
        <ele>65.4</ele>
        <time>2017-04-29T09:27:18</time>
        <extensions><speed>1.27</speed></extensions>
      </trkpt>
      <trkpt lat="51.915016000" lon="7.571072000">
        <ele>65.4</ele>
        <time>2017-04-29T09:27:19</time>
        <extensions><speed>1.31</speed></extensions>
      </trkpt>
      <trkpt lat="51.915035000" lon="7.571068000">
        <ele>65.4</ele>
        <time>2017-04-29T09:27:20</time>
        <extensions><speed>1.29</speed></extensions>
      </trkpt>
      <trkpt lat="51.915047000" lon="7.571067000">
        <ele>65.3</ele>
        <time>2017-04-29T09:27:21</time>
        <extensions><speed>1.30</speed></extensions>
      </trkpt>
      <trkpt lat="51.915058000" lon="7.571063000">
        <ele>65.3</ele>
        <time>2017-04-29T09:27:22</time>
        <extensions><speed>1.33</speed></extensions>
      </trkpt>
      <trkpt lat="51.915077000" lon="7.571060000">
        <ele>65.3</ele>
        <time>2017-04-29T09:27:23</time>
        <extensions><speed>1.30</speed></extensions>
      </trkpt>
      <trkpt lat="51.915089000" lon="7.571058000">
        <ele>65.3</ele>
        <time>2017-04-29T09:27:24</time>
        <extensions><speed>1.30</speed></extensions>
      </trkpt>
      <trkpt lat="51.915104000" lon="7.571058000">
        <ele>65.3</ele>
        <time>2017-04-29T09:27:25</time>
        <extensions><speed>1.34</speed></extensions>
      </trkpt>
      <trkpt lat="51.915119000" lon="7.571060000">
        <ele>65.2</ele>
        <time>2017-04-29T09:27:26</time>
        <extensions><speed>1.35</speed></extensions>
      </trkpt>
      <trkpt lat="51.915134000" lon="7.571060000">
        <ele>65.2</ele>
        <time>2017-04-29T09:27:27</time>
        <extensions><speed>1.35</speed></extensions>
      </trkpt>
      <trkpt lat="51.915150000" lon="7.571056000">
        <ele>65.2</ele>
        <time>2017-04-29T09:27:28</time>
        <extensions><speed>1.36</speed></extensions>
      </trkpt>
      <trkpt lat="51.915165000" lon="7.571054000">
        <ele>65.2</ele>
        <time>2017-04-29T09:27:29</time>
        <extensions><speed>1.37</speed></extensions>
      </trkpt>
      <trkpt lat="51.915180000" lon="7.571054000">
        <ele>65.2</ele>
        <time>2017-04-29T09:27:30</time>
        <extensions><speed>1.35</speed></extensions>
      </trkpt>
      <trkpt lat="51.915192000" lon="7.571051000">
        <ele>65.2</ele>
        <time>2017-04-29T09:27:31</time>
        <extensions><speed>1.34</speed></extensions>
      </trkpt>
      <trkpt lat="51.915203000" lon="7.571049000">
        <ele>65.1</ele>
        <time>2017-04-29T09:27:32</time>
        <extensions><speed>1.31</speed></extensions>
      </trkpt>
      <trkpt lat="51.915211000" lon="7.571047000">
        <ele>65.1</ele>
        <time>2017-04-29T09:27:33</time>
        <extensions><speed>1.25</speed></extensions>
      </trkpt>
      <trkpt lat="51.915226000" lon="7.571045000">
        <ele>65.1</ele>
        <time>2017-04-29T09:27:34</time>
        <extensions><speed>1.19</speed></extensions>
      </trkpt>
      <trkpt lat="51.915245000" lon="7.571043000">
        <ele>65.1</ele>
        <time>2017-04-29T09:27:35</time>
        <extensions><speed>1.19</speed></extensions>
      </trkpt>
      <trkpt lat="51.915257000" lon="7.571042000">
        <ele>65.0</ele>
        <time>2017-04-29T09:27:36</time>
        <extensions><speed>1.28</speed></extensions>
      </trkpt>
      <trkpt lat="51.915276000" lon="7.571038000">
        <ele>65.0</ele>
        <time>2017-04-29T09:27:37</time>
        <extensions><speed>1.41</speed></extensions>
      </trkpt>
      <trkpt lat="51.915287000" lon="7.571040000">
        <ele>65.0</ele>
        <time>2017-04-29T09:27:38</time>
        <extensions><speed>1.39</speed></extensions>
      </trkpt>
      <trkpt lat="51.915306000" lon="7.571042000">
        <ele>65.0</ele>
        <time>2017-04-29T09:27:39</time>
        <extensions><speed>1.39</speed></extensions>
      </trkpt>
      <trkpt lat="51.915314000" lon="7.571040000">
        <ele>65.0</ele>
        <time>2017-04-29T09:27:40</time>
        <extensions><speed>1.30</speed></extensions>
      </trkpt>
      <trkpt lat="51.915329000" lon="7.571037000">
        <ele>65.0</ele>
        <time>2017-04-29T09:27:41</time>
        <extensions><speed>1.27</speed></extensions>
      </trkpt>
      <trkpt lat="51.915344000" lon="7.571033000">
        <ele>65.0</ele>
        <time>2017-04-29T09:27:42</time>
        <extensions><speed>1.24</speed></extensions>
      </trkpt>
      <trkpt lat="51.915356000" lon="7.571026000">
        <ele>65.0</ele>
        <time>2017-04-29T09:27:43</time>
        <extensions><speed>1.25</speed></extensions>
      </trkpt>
      <trkpt lat="51.915375000" lon="7.571022000">
        <ele>65.0</ele>
        <time>2017-04-29T09:27:44</time>
        <extensions><speed>1.31</speed></extensions>
      </trkpt>
      <trkpt lat="51.915386000" lon="7.571020000">
        <ele>65.0</ele>
        <time>2017-04-29T09:27:45</time>
        <extensions><speed>1.35</speed></extensions>
      </trkpt>
      <trkpt lat="51.915405000" lon="7.571018000">
        <ele>65.0</ele>
        <time>2017-04-29T09:27:46</time>
        <extensions><speed>1.36</speed></extensions>
      </trkpt>
      <trkpt lat="51.915421000" lon="7.571016000">
        <ele>65.0</ele>
        <time>2017-04-29T09:27:47</time>
        <extensions><speed>1.37</speed></extensions>
      </trkpt>
      <trkpt lat="51.915440000" lon="7.571015000">
        <ele>65.0</ele>
        <time>2017-04-29T09:27:48</time>
        <extensions><speed>1.37</speed></extensions>
      </trkpt>
      <trkpt lat="51.915451000" lon="7.571013000">
        <ele>65.0</ele>
        <time>2017-04-29T09:27:49</time>
        <extensions><speed>1.38</speed></extensions>
      </trkpt>
      <trkpt lat="51.915466000" lon="7.571012000">
        <ele>65.0</ele>
        <time>2017-04-29T09:27:50</time>
        <extensions><speed>1.41</speed></extensions>
      </trkpt>
      <trkpt lat="51.915482000" lon="7.571010000">
        <ele>65.0</ele>
        <time>2017-04-29T09:27:51</time>
        <extensions><speed>1.41</speed></extensions>
      </trkpt>
      <trkpt lat="51.915501000" lon="7.571007000">
        <ele>65.0</ele>
        <time>2017-04-29T09:27:52</time>
        <extensions><speed>1.42</speed></extensions>
      </trkpt>
      <trkpt lat="51.915516000" lon="7.571007000">
        <ele>65.0</ele>
        <time>2017-04-29T09:27:53</time>
        <extensions><speed>1.42</speed></extensions>
      </trkpt>
      <trkpt lat="51.915527000" lon="7.571003000">
        <ele>65.0</ele>
        <time>2017-04-29T09:27:54</time>
        <extensions><speed>1.44</speed></extensions>
      </trkpt>
      <trkpt lat="51.915543000" lon="7.571003000">
        <ele>65.0</ele>
        <time>2017-04-29T09:27:55</time>
        <extensions><speed>1.40</speed></extensions>
      </trkpt>
      <trkpt lat="51.915558000" lon="7.570998000">
        <ele>65.0</ele>
        <time>2017-04-29T09:27:56</time>
        <extensions><speed>1.40</speed></extensions>
      </trkpt>
      <trkpt lat="51.915569000" lon="7.570997000">
        <ele>65.0</ele>
        <time>2017-04-29T09:27:57</time>
        <extensions><speed>1.40</speed></extensions>
      </trkpt>
      <trkpt lat="51.915585000" lon="7.570993000">
        <ele>65.0</ele>
        <time>2017-04-29T09:27:58</time>
        <extensions><speed>1.45</speed></extensions>
      </trkpt>
      <trkpt lat="51.915604000" lon="7.570993000">
        <ele>65.0</ele>
        <time>2017-04-29T09:27:59</time>
        <extensions><speed>1.45</speed></extensions>
      </trkpt>
      <trkpt lat="51.915619000" lon="7.570992000">
        <ele>65.0</ele>
        <time>2017-04-29T09:28:00</time>
        <extensions><speed>1.42</speed></extensions>
      </trkpt>
      <trkpt lat="51.915634000" lon="7.570988000">
        <ele>65.0</ele>
        <time>2017-04-29T09:28:01</time>
        <extensions><speed>1.37</speed></extensions>
      </trkpt>
      <trkpt lat="51.915642000" lon="7.570983000">
        <ele>65.0</ele>
        <time>2017-04-29T09:28:02</time>
        <extensions><speed>1.36</speed></extensions>
      </trkpt>
      <trkpt lat="51.915657000" lon="7.570981000">
        <ele>65.0</ele>
        <time>2017-04-29T09:28:03</time>
        <extensions><speed>1.37</speed></extensions>
      </trkpt>
      <trkpt lat="51.915668000" lon="7.570981000">
        <ele>65.0</ele>
        <time>2017-04-29T09:28:04</time>
        <extensions><speed>1.27</speed></extensions>
      </trkpt>
      <trkpt lat="51.915684000" lon="7.570979000">
        <ele>65.0</ele>
        <time>2017-04-29T09:28:05</time>
        <extensions><speed>1.34</speed></extensions>
      </trkpt>
      <trkpt lat="51.915691000" lon="7.570979000">
        <ele>65.0</ele>
        <time>2017-04-29T09:28:06</time>
      </trkpt>
      <trkpt lat="51.915707000" lon="7.570977000">
        <ele>65.0</ele>
        <time>2017-04-29T09:28:08</time>
        <extensions><speed>1.23</speed></extensions>
      </trkpt>
      <trkpt lat="51.915718000" lon="7.570975000">
        <ele>65.0</ele>
        <time>2017-04-29T09:28:09</time>
        <extensions><speed>1.29</speed></extensions>
      </trkpt>
      <trkpt lat="51.915733000" lon="7.570973000">
        <ele>65.0</ele>
        <time>2017-04-29T09:28:10</time>
        <extensions><speed>1.29</speed></extensions>
      </trkpt>
      <trkpt lat="51.915749000" lon="7.570970000">
        <ele>65.0</ele>
        <time>2017-04-29T09:28:11</time>
        <extensions><speed>1.33</speed></extensions>
      </trkpt>
      <trkpt lat="51.915768000" lon="7.570965000">
        <ele>65.0</ele>
        <time>2017-04-29T09:28:12</time>
        <extensions><speed>1.32</speed></extensions>
      </trkpt>
      <trkpt lat="51.915779000" lon="7.570963000">
        <ele>65.0</ele>
        <time>2017-04-29T09:28:13</time>
        <extensions><speed>1.39</speed></extensions>
      </trkpt>
      <trkpt lat="51.915798000" lon="7.570963000">
        <ele>65.0</ele>
        <time>2017-04-29T09:28:14</time>
        <extensions><speed>1.40</speed></extensions>
      </trkpt>
      <trkpt lat="51.915806000" lon="7.570960000">
        <ele>65.0</ele>
        <time>2017-04-29T09:28:15</time>
        <extensions><speed>1.40</speed></extensions>
      </trkpt>
      <trkpt lat="51.915825000" lon="7.570955000">
        <ele>65.0</ele>
        <time>2017-04-29T09:28:16</time>
        <extensions><speed>1.40</speed></extensions>
      </trkpt>
      <trkpt lat="51.915836000" lon="7.570950000">
        <ele>65.0</ele>
        <time>2017-04-29T09:28:17</time>
        <extensions><speed>1.40</speed></extensions>
      </trkpt>
      <trkpt lat="51.915852000" lon="7.570947000">
        <ele>65.0</ele>
        <time>2017-04-29T09:28:18</time>
        <extensions><speed>1.34</speed></extensions>
      </trkpt>
      <trkpt lat="51.915863000" lon="7.570947000">
        <ele>65.0</ele>
        <time>2017-04-29T09:28:19</time>
        <extensions><speed>1.32</speed></extensions>
      </trkpt>
      <trkpt lat="51.915874000" lon="7.570947000">
        <ele>65.0</ele>
        <time>2017-04-29T09:28:20</time>
        <extensions><speed>1.30</speed></extensions>
      </trkpt>
      <trkpt lat="51.915890000" lon="7.570942000">
        <ele>65.0</ele>
        <time>2017-04-29T09:28:21</time>
        <extensions><speed>1.28</speed></extensions>
      </trkpt>
      <trkpt lat="51.915897000" lon="7.570940000">
        <ele>65.0</ele>
        <time>2017-04-29T09:28:22</time>
        <extensions><speed>1.24</speed></extensions>
      </trkpt>
      <trkpt lat="51.915909000" lon="7.570940000">
        <ele>65.0</ele>
        <time>2017-04-29T09:28:23</time>
        <extensions><speed>1.18</speed></extensions>
      </trkpt>
      <trkpt lat="51.915924000" lon="7.570939000">
        <ele>65.0</ele>
        <time>2017-04-29T09:28:24</time>
        <extensions><speed>1.18</speed></extensions>
      </trkpt>
      <trkpt lat="51.915932000" lon="7.570935000">
        <ele>65.0</ele>
        <time>2017-04-29T09:28:25</time>
        <extensions><speed>1.13</speed></extensions>
      </trkpt>
      <trkpt lat="51.915943000" lon="7.570935000">
        <ele>65.0</ele>
        <time>2017-04-29T09:28:26</time>
        <extensions><speed>1.18</speed></extensions>
      </trkpt>
      <trkpt lat="51.915958000" lon="7.570935000">
        <ele>65.0</ele>
        <time>2017-04-29T09:28:27</time>
        <extensions><speed>1.18</speed></extensions>
      </trkpt>
      <trkpt lat="51.915970000" lon="7.570932000">
        <ele>65.0</ele>
        <time>2017-04-29T09:28:28</time>
        <extensions><speed>1.24</speed></extensions>
      </trkpt>
      <trkpt lat="51.915989000" lon="7.570932000">
        <ele>65.1</ele>
        <time>2017-04-29T09:28:29</time>
        <extensions><speed>1.30</speed></extensions>
      </trkpt>
      <trkpt lat="51.916000000" lon="7.570932000">
        <ele>65.2</ele>
        <time>2017-04-29T09:28:30</time>
        <extensions><speed>1.36</speed></extensions>
      </trkpt>
      <trkpt lat="51.916012000" lon="7.570932000">
        <ele>65.2</ele>
        <time>2017-04-29T09:28:31</time>
        <extensions><speed>1.43</speed></extensions>
      </trkpt>
      <trkpt lat="51.916027000" lon="7.570933000">
        <ele>65.3</ele>
        <time>2017-04-29T09:28:32</time>
        <extensions><speed>1.43</speed></extensions>
      </trkpt>
      <trkpt lat="51.916039000" lon="7.570932000">
        <ele>65.4</ele>
        <time>2017-04-29T09:28:33</time>
        <extensions><speed>1.35</speed></extensions>
      </trkpt>
      <trkpt lat="51.916054000" lon="7.570927000">
        <ele>65.5</ele>
        <time>2017-04-29T09:28:34</time>
        <extensions><speed>1.27</speed></extensions>
      </trkpt>
      <trkpt lat="51.916065000" lon="7.570921000">
        <ele>65.6</ele>
        <time>2017-04-29T09:28:35</time>
        <extensions><speed>1.22</speed></extensions>
      </trkpt>
      <trkpt lat="51.916077000" lon="7.570920000">
        <ele>65.7</ele>
        <time>2017-04-29T09:28:36</time>
        <extensions><speed>1.22</speed></extensions>
      </trkpt>
      <trkpt lat="51.916092000" lon="7.570920000">
        <ele>65.7</ele>
        <time>2017-04-29T09:28:37</time>
        <extensions><speed>1.24</speed></extensions>
      </trkpt>
      <trkpt lat="51.916103000" lon="7.570918000">
        <ele>65.8</ele>
        <time>2017-04-29T09:28:38</time>
        <extensions><speed>1.21</speed></extensions>
      </trkpt>
      <trkpt lat="51.916119000" lon="7.570920000">
        <ele>65.9</ele>
        <time>2017-04-29T09:28:39</time>
        <extensions><speed>1.30</speed></extensions>
      </trkpt>
      <trkpt lat="51.916134000" lon="7.570920000">
        <ele>66.0</ele>
        <time>2017-04-29T09:28:40</time>
        <extensions><speed>1.37</speed></extensions>
      </trkpt>
      <trkpt lat="51.916145000" lon="7.570921000">
        <ele>66.0</ele>
        <time>2017-04-29T09:28:41</time>
        <extensions><speed>1.30</speed></extensions>
      </trkpt>
      <trkpt lat="51.916153000" lon="7.570928000">
        <ele>66.1</ele>
        <time>2017-04-29T09:28:42</time>
        <extensions><speed>1.18</speed></extensions>
      </trkpt>
      <trkpt lat="51.916157000" lon="7.570928000">
        <ele>66.2</ele>
        <time>2017-04-29T09:28:43</time>
        <extensions><speed>1.07</speed></extensions>
      </trkpt>
      <trkpt lat="51.916172000" lon="7.570928000">
        <ele>66.3</ele>
        <time>2017-04-29T09:28:44</time>
        <extensions><speed>1.05</speed></extensions>
      </trkpt>
      <trkpt lat="51.916183000" lon="7.570928000">
        <ele>66.3</ele>
        <time>2017-04-29T09:28:45</time>
        <extensions><speed>0.97</speed></extensions>
      </trkpt>
      <trkpt lat="51.916195000" lon="7.570928000">
        <ele>66.4</ele>
        <time>2017-04-29T09:28:46</time>
        <extensions><speed>1.11</speed></extensions>
      </trkpt>
      <trkpt lat="51.916214000" lon="7.570927000">
        <ele>66.5</ele>
        <time>2017-04-29T09:28:47</time>
        <extensions><speed>1.27</speed></extensions>
      </trkpt>
      <trkpt lat="51.916222000" lon="7.570927000">
        <ele>66.5</ele>
        <time>2017-04-29T09:28:48</time>
        <extensions><speed>1.27</speed></extensions>
      </trkpt>
      <trkpt lat="51.916237000" lon="7.570928000">
        <ele>66.6</ele>
        <time>2017-04-29T09:28:49</time>
        <extensions><speed>1.32</speed></extensions>
      </trkpt>
      <trkpt lat="51.916252000" lon="7.570930000">
        <ele>66.7</ele>
        <time>2017-04-29T09:28:50</time>
        <extensions><speed>1.39</speed></extensions>
      </trkpt>
      <trkpt lat="51.916264000" lon="7.570930000">
        <ele>66.7</ele>
        <time>2017-04-29T09:28:51</time>
        <extensions><speed>1.37</speed></extensions>
      </trkpt>
      <trkpt lat="51.916279000" lon="7.570930000">
        <ele>66.8</ele>
        <time>2017-04-29T09:28:52</time>
        <extensions><speed>1.28</speed></extensions>
      </trkpt>
      <trkpt lat="51.916286000" lon="7.570932000">
        <ele>66.9</ele>
        <time>2017-04-29T09:28:53</time>
        <extensions><speed>1.34</speed></extensions>
      </trkpt>
      <trkpt lat="51.916306000" lon="7.570932000">
        <ele>66.9</ele>
        <time>2017-04-29T09:28:54</time>
        <extensions><speed>1.34</speed></extensions>
      </trkpt>
      <trkpt lat="51.916321000" lon="7.570932000">
        <ele>67.0</ele>
        <time>2017-04-29T09:28:55</time>
        <extensions><speed>1.31</speed></extensions>
      </trkpt>
      <trkpt lat="51.916332000" lon="7.570930000">
        <ele>67.1</ele>
        <time>2017-04-29T09:28:56</time>
        <extensions><speed>1.36</speed></extensions>
      </trkpt>
      <trkpt lat="51.916344000" lon="7.570923000">
        <ele>67.2</ele>
        <time>2017-04-29T09:28:57</time>
        <extensions><speed>1.36</speed></extensions>
      </trkpt>
      <trkpt lat="51.916355000" lon="7.570921000">
        <ele>67.3</ele>
        <time>2017-04-29T09:28:58</time>
        <extensions><speed>1.28</speed></extensions>
      </trkpt>
      <trkpt lat="51.916363000" lon="7.570920000">
        <ele>67.3</ele>
        <time>2017-04-29T09:28:59</time>
        <extensions><speed>1.28</speed></extensions>
      </trkpt>
      <trkpt lat="51.916378000" lon="7.570916000">
        <ele>67.4</ele>
        <time>2017-04-29T09:29:00</time>
        <extensions><speed>1.14</speed></extensions>
      </trkpt>
      <trkpt lat="51.916386000" lon="7.570912000">
        <ele>67.5</ele>
        <time>2017-04-29T09:29:01</time>
        <extensions><speed>1.03</speed></extensions>
      </trkpt>
      <trkpt lat="51.916401000" lon="7.570913000">
        <ele>67.6</ele>
        <time>2017-04-29T09:29:02</time>
        <extensions><speed>1.21</speed></extensions>
      </trkpt>
      <trkpt lat="51.916416000" lon="7.570915000">
        <ele>67.6</ele>
        <time>2017-04-29T09:29:03</time>
        <extensions><speed>1.23</speed></extensions>
      </trkpt>
      <trkpt lat="51.916424000" lon="7.570916000">
        <ele>67.7</ele>
        <time>2017-04-29T09:29:04</time>
        <extensions><speed>1.20</speed></extensions>
      </trkpt>
      <trkpt lat="51.916439000" lon="7.570920000">
        <ele>67.7</ele>
        <time>2017-04-29T09:29:05</time>
        <extensions><speed>1.27</speed></extensions>
      </trkpt>
      <trkpt lat="51.916451000" lon="7.570923000">
        <ele>67.8</ele>
        <time>2017-04-29T09:29:06</time>
        <extensions><speed>1.27</speed></extensions>
      </trkpt>
      <trkpt lat="51.916462000" lon="7.570923000">
        <ele>67.9</ele>
        <time>2017-04-29T09:29:07</time>
        <extensions><speed>1.19</speed></extensions>
      </trkpt>
      <trkpt lat="51.916473000" lon="7.570920000">
        <ele>68.0</ele>
        <time>2017-04-29T09:29:08</time>
        <extensions><speed>1.17</speed></extensions>
      </trkpt>
      <trkpt lat="51.916485000" lon="7.570916000">
        <ele>68.0</ele>
        <time>2017-04-29T09:29:09</time>
        <extensions><speed>1.16</speed></extensions>
      </trkpt>
      <trkpt lat="51.916500000" lon="7.570918000">
        <ele>68.1</ele>
        <time>2017-04-29T09:29:10</time>
        <extensions><speed>1.16</speed></extensions>
      </trkpt>
      <trkpt lat="51.916515000" lon="7.570916000">
        <ele>68.2</ele>
        <time>2017-04-29T09:29:11</time>
        <extensions><speed>1.22</speed></extensions>
      </trkpt>
      <trkpt lat="51.916534000" lon="7.570913000">
        <ele>68.2</ele>
        <time>2017-04-29T09:29:12</time>
        <extensions><speed>1.22</speed></extensions>
      </trkpt>
      <trkpt lat="51.916550000" lon="7.570912000">
        <ele>68.3</ele>
        <time>2017-04-29T09:29:13</time>
        <extensions><speed>1.22</speed></extensions>
      </trkpt>
      <trkpt lat="51.916557000" lon="7.570910000">
        <ele>68.4</ele>
        <time>2017-04-29T09:29:14</time>
        <extensions><speed>1.26</speed></extensions>
      </trkpt>
      <trkpt lat="51.916576000" lon="7.570909000">
        <ele>68.5</ele>
        <time>2017-04-29T09:29:15</time>
        <extensions><speed>1.38</speed></extensions>
      </trkpt>
      <trkpt lat="51.916588000" lon="7.570905000">
        <ele>68.5</ele>
        <time>2017-04-29T09:29:16</time>
        <extensions><speed>1.35</speed></extensions>
      </trkpt>
      <trkpt lat="51.916603000" lon="7.570904000">
        <ele>68.6</ele>
        <time>2017-04-29T09:29:17</time>
        <extensions><speed>1.36</speed></extensions>
      </trkpt>
      <trkpt lat="51.916615000" lon="7.570904000">
        <ele>68.7</ele>
        <time>2017-04-29T09:29:18</time>
        <extensions><speed>1.40</speed></extensions>
      </trkpt>
      <trkpt lat="51.916634000" lon="7.570905000">
        <ele>68.8</ele>
        <time>2017-04-29T09:29:19</time>
        <extensions><speed>1.37</speed></extensions>
      </trkpt>
      <trkpt lat="51.916645000" lon="7.570909000">
        <ele>68.9</ele>
        <time>2017-04-29T09:29:20</time>
        <extensions><speed>1.35</speed></extensions>
      </trkpt>
      <trkpt lat="51.916656000" lon="7.570910000">
        <ele>68.9</ele>
        <time>2017-04-29T09:29:21</time>
        <extensions><speed>1.31</speed></extensions>
      </trkpt>
      <trkpt lat="51.916676000" lon="7.570912000">
        <ele>69.0</ele>
        <time>2017-04-29T09:29:22</time>
        <extensions><speed>1.35</speed></extensions>
      </trkpt>
      <trkpt lat="51.916687000" lon="7.570907000">
        <ele>69.1</ele>
        <time>2017-04-29T09:29:23</time>
        <extensions><speed>1.34</speed></extensions>
      </trkpt>
      <trkpt lat="51.916698000" lon="7.570904000">
        <ele>69.2</ele>
        <time>2017-04-29T09:29:24</time>
        <extensions><speed>1.34</speed></extensions>
      </trkpt>
      <trkpt lat="51.916710000" lon="7.570905000">
        <ele>69.3</ele>
        <time>2017-04-29T09:29:25</time>
        <extensions><speed>1.30</speed></extensions>
      </trkpt>
      <trkpt lat="51.916725000" lon="7.570907000">
        <ele>69.3</ele>
        <time>2017-04-29T09:29:26</time>
        <extensions><speed>1.34</speed></extensions>
      </trkpt>
      <trkpt lat="51.916740000" lon="7.570907000">
        <ele>69.3</ele>
        <time>2017-04-29T09:29:27</time>
        <extensions><speed>1.32</speed></extensions>
      </trkpt>
      <trkpt lat="51.916756000" lon="7.570907000">
        <ele>69.4</ele>
        <time>2017-04-29T09:29:28</time>
        <extensions><speed>1.36</speed></extensions>
      </trkpt>
      <trkpt lat="51.916771000" lon="7.570909000">
        <ele>69.5</ele>
        <time>2017-04-29T09:29:29</time>
        <extensions><speed>1.37</speed></extensions>
      </trkpt>
      <trkpt lat="51.916779000" lon="7.570912000">
        <ele>69.6</ele>
        <time>2017-04-29T09:29:30</time>
        <extensions><speed>1.42</speed></extensions>
      </trkpt>
      <trkpt lat="51.916794000" lon="7.570912000">
        <ele>69.7</ele>
        <time>2017-04-29T09:29:31</time>
        <extensions><speed>1.41</speed></extensions>
      </trkpt>
      <trkpt lat="51.916809000" lon="7.570913000">
        <ele>69.8</ele>
        <time>2017-04-29T09:29:32</time>
        <extensions><speed>1.46</speed></extensions>
      </trkpt>
      <trkpt lat="51.916821000" lon="7.570912000">
        <ele>69.9</ele>
        <time>2017-04-29T09:29:33</time>
        <extensions><speed>1.41</speed></extensions>
      </trkpt>
      <trkpt lat="51.916832000" lon="7.570909000">
        <ele>70.0</ele>
        <time>2017-04-29T09:29:34</time>
        <extensions><speed>1.38</speed></extensions>
      </trkpt>
      <trkpt lat="51.916843000" lon="7.570907000">
        <ele>70.0</ele>
        <time>2017-04-29T09:29:35</time>
        <extensions><speed>1.39</speed></extensions>
      </trkpt>
      <trkpt lat="51.916862000" lon="7.570907000">
        <ele>70.1</ele>
        <time>2017-04-29T09:29:36</time>
        <extensions><speed>1.43</speed></extensions>
      </trkpt>
      <trkpt lat="51.916874000" lon="7.570905000">
        <ele>70.2</ele>
        <time>2017-04-29T09:29:37</time>
        <extensions><speed>1.33</speed></extensions>
      </trkpt>
      <trkpt lat="51.916889000" lon="7.570907000">
        <ele>70.3</ele>
        <time>2017-04-29T09:29:38</time>
        <extensions><speed>1.27</speed></extensions>
      </trkpt>
      <trkpt lat="51.916904000" lon="7.570913000">
        <ele>70.3</ele>
        <time>2017-04-29T09:29:39</time>
        <extensions><speed>1.27</speed></extensions>
      </trkpt>
      <trkpt lat="51.916912000" lon="7.570918000">
        <ele>70.4</ele>
        <time>2017-04-29T09:29:40</time>
        <extensions><speed>1.21</speed></extensions>
      </trkpt>
      <trkpt lat="51.916916000" lon="7.570920000">
        <ele>70.6</ele>
        <time>2017-04-29T09:29:41</time>
      </trkpt>
      <trkpt lat="51.916935000" lon="7.570921000">
        <ele>70.7</ele>
        <time>2017-04-29T09:29:43</time>
        <extensions><speed>1.04</speed></extensions>
      </trkpt>
      <trkpt lat="51.916950000" lon="7.570925000">
        <ele>70.7</ele>
        <time>2017-04-29T09:29:44</time>
        <extensions><speed>1.08</speed></extensions>
      </trkpt>
      <trkpt lat="51.916965000" lon="7.570928000">
        <ele>70.8</ele>
        <time>2017-04-29T09:29:45</time>
        <extensions><speed>1.08</speed></extensions>
      </trkpt>
      <trkpt lat="51.916977000" lon="7.570932000">
        <ele>70.9</ele>
        <time>2017-04-29T09:29:46</time>
        <extensions><speed>1.24</speed></extensions>
      </trkpt>
      <trkpt lat="51.916992000" lon="7.570937000">
        <ele>70.9</ele>
        <time>2017-04-29T09:29:47</time>
        <extensions><speed>1.35</speed></extensions>
      </trkpt>
      <trkpt lat="51.917007000" lon="7.570940000">
        <ele>71.0</ele>
        <time>2017-04-29T09:29:48</time>
        <extensions><speed>1.39</speed></extensions>
      </trkpt>
      <trkpt lat="51.917019000" lon="7.570944000">
        <ele>71.1</ele>
        <time>2017-04-29T09:29:49</time>
        <extensions><speed>1.39</speed></extensions>
      </trkpt>
      <trkpt lat="51.917034000" lon="7.570942000">
        <ele>71.1</ele>
        <time>2017-04-29T09:29:50</time>
        <extensions><speed>1.32</speed></extensions>
      </trkpt>
      <trkpt lat="51.917042000" lon="7.570944000">
        <ele>71.3</ele>
        <time>2017-04-29T09:29:51</time>
      </trkpt>
      <trkpt lat="51.917057000" lon="7.570947000">
        <ele>71.4</ele>
        <time>2017-04-29T09:29:53</time>
        <extensions><speed>1.26</speed></extensions>
      </trkpt>
      <trkpt lat="51.917072000" lon="7.570951000">
        <ele>71.5</ele>
        <time>2017-04-29T09:29:54</time>
        <extensions><speed>1.33</speed></extensions>
      </trkpt>
      <trkpt lat="51.917080000" lon="7.570957000">
        <ele>71.5</ele>
        <time>2017-04-29T09:29:55</time>
        <extensions><speed>1.21</speed></extensions>
      </trkpt>
      <trkpt lat="51.917099000" lon="7.570965000">
        <ele>71.6</ele>
        <time>2017-04-29T09:29:56</time>
        <extensions><speed>1.38</speed></extensions>
      </trkpt>
      <trkpt lat="51.917110000" lon="7.570973000">
        <ele>71.7</ele>
        <time>2017-04-29T09:29:57</time>
        <extensions><speed>1.21</speed></extensions>
      </trkpt>
      <trkpt lat="51.917122000" lon="7.570979000">
        <ele>71.7</ele>
        <time>2017-04-29T09:29:58</time>
        <extensions><speed>1.12</speed></extensions>
      </trkpt>
      <trkpt lat="51.917137000" lon="7.570983000">
        <ele>71.8</ele>
        <time>2017-04-29T09:29:59</time>
        <extensions><speed>1.15</speed></extensions>
      </trkpt>
      <trkpt lat="51.917149000" lon="7.570983000">
        <ele>71.9</ele>
        <time>2017-04-29T09:30:00</time>
        <extensions><speed>1.29</speed></extensions>
      </trkpt>
      <trkpt lat="51.917164000" lon="7.570990000">
        <ele>72.0</ele>
        <time>2017-04-29T09:30:01</time>
        <extensions><speed>1.29</speed></extensions>
      </trkpt>
      <trkpt lat="51.917179000" lon="7.570995000">
        <ele>72.1</ele>
        <time>2017-04-29T09:30:02</time>
        <extensions><speed>1.35</speed></extensions>
      </trkpt>
      <trkpt lat="51.917198000" lon="7.571005000">
        <ele>72.2</ele>
        <time>2017-04-29T09:30:03</time>
        <extensions><speed>1.38</speed></extensions>
      </trkpt>
      <trkpt lat="51.917210000" lon="7.571015000">
        <ele>72.2</ele>
        <time>2017-04-29T09:30:04</time>
        <extensions><speed>1.38</speed></extensions>
      </trkpt>
      <trkpt lat="51.917221000" lon="7.571022000">
        <ele>72.3</ele>
        <time>2017-04-29T09:30:05</time>
        <extensions><speed>1.29</speed></extensions>
      </trkpt>
      <trkpt lat="51.917233000" lon="7.571032000">
        <ele>72.4</ele>
        <time>2017-04-29T09:30:06</time>
        <extensions><speed>1.27</speed></extensions>
      </trkpt>
      <trkpt lat="51.917248000" lon="7.571042000">
        <ele>72.5</ele>
        <time>2017-04-29T09:30:07</time>
        <extensions><speed>1.33</speed></extensions>
      </trkpt>
      <trkpt lat="51.917267000" lon="7.571051000">
        <ele>72.6</ele>
        <time>2017-04-29T09:30:08</time>
        <extensions><speed>1.33</speed></extensions>
      </trkpt>
      <trkpt lat="51.917286000" lon="7.571058000">
        <ele>72.7</ele>
        <time>2017-04-29T09:30:09</time>
        <extensions><speed>1.43</speed></extensions>
      </trkpt>
      <trkpt lat="51.917297000" lon="7.571062000">
        <ele>72.8</ele>
        <time>2017-04-29T09:30:10</time>
        <extensions><speed>1.52</speed></extensions>
      </trkpt>
      <trkpt lat="51.917316000" lon="7.571062000">
        <ele>72.9</ele>
        <time>2017-04-29T09:30:11</time>
        <extensions><speed>1.62</speed></extensions>
      </trkpt>
      <trkpt lat="51.917332000" lon="7.571062000">
        <ele>73.0</ele>
        <time>2017-04-29T09:30:12</time>
        <extensions><speed>1.58</speed></extensions>
      </trkpt>
      <trkpt lat="51.917347000" lon="7.571067000">
        <ele>73.0</ele>
        <time>2017-04-29T09:30:13</time>
        <extensions><speed>1.56</speed></extensions>
      </trkpt>
      <trkpt lat="51.917366000" lon="7.571068000">
        <ele>73.1</ele>
        <time>2017-04-29T09:30:14</time>
        <extensions><speed>1.55</speed></extensions>
      </trkpt>
      <trkpt lat="51.917377000" lon="7.571074000">
        <ele>73.1</ele>
        <time>2017-04-29T09:30:15</time>
        <extensions><speed>1.47</speed></extensions>
      </trkpt>
      <trkpt lat="51.917397000" lon="7.571079000">
        <ele>73.2</ele>
        <time>2017-04-29T09:30:16</time>
        <extensions><speed>1.44</speed></extensions>
      </trkpt>
      <trkpt lat="51.917408000" lon="7.571084000">
        <ele>73.2</ele>
        <time>2017-04-29T09:30:17</time>
        <extensions><speed>1.45</speed></extensions>
      </trkpt>
      <trkpt lat="51.917423000" lon="7.571091000">
        <ele>73.2</ele>
        <time>2017-04-29T09:30:18</time>
        <extensions><speed>1.45</speed></extensions>
      </trkpt>
      <trkpt lat="51.917431000" lon="7.571095000">
        <ele>73.2</ele>
        <time>2017-04-29T09:30:19</time>
        <extensions><speed>1.48</speed></extensions>
      </trkpt>
      <trkpt lat="51.917446000" lon="7.571100000">
        <ele>73.2</ele>
        <time>2017-04-29T09:30:20</time>
        <extensions><speed>1.52</speed></extensions>
      </trkpt>
      <trkpt lat="51.917461000" lon="7.571105000">
        <ele>73.2</ele>
        <time>2017-04-29T09:30:21</time>
        <extensions><speed>1.49</speed></extensions>
      </trkpt>
      <trkpt lat="51.917477000" lon="7.571103000">
        <ele>73.2</ele>
        <time>2017-04-29T09:30:22</time>
        <extensions><speed>1.49</speed></extensions>
      </trkpt>
      <trkpt lat="51.917492000" lon="7.571105000">
        <ele>73.2</ele>
        <time>2017-04-29T09:30:23</time>
        <extensions><speed>1.48</speed></extensions>
      </trkpt>
      <trkpt lat="51.917503000" lon="7.571107000">
        <ele>73.2</ele>
        <time>2017-04-29T09:30:24</time>
        <extensions><speed>1.46</speed></extensions>
      </trkpt>
      <trkpt lat="51.917515000" lon="7.571112000">
        <ele>73.2</ele>
        <time>2017-04-29T09:30:25</time>
        <extensions><speed>1.40</speed></extensions>
      </trkpt>
      <trkpt lat="51.917526000" lon="7.571119000">
        <ele>73.2</ele>
        <time>2017-04-29T09:30:26</time>
        <extensions><speed>1.40</speed></extensions>
      </trkpt>
      <trkpt lat="51.917542000" lon="7.571123000">
        <ele>73.2</ele>
        <time>2017-04-29T09:30:27</time>
        <extensions><speed>1.40</speed></extensions>
      </trkpt>
      <trkpt lat="51.917549000" lon="7.571126000">
        <ele>73.2</ele>
        <time>2017-04-29T09:30:28</time>
      </trkpt>
      <trkpt lat="51.917561000" lon="7.571130000">
        <ele>73.2</ele>
        <time>2017-04-29T09:30:30</time>
        <extensions><speed>1.35</speed></extensions>
      </trkpt>
      <trkpt lat="51.917572000" lon="7.571136000">
        <ele>73.2</ele>
        <time>2017-04-29T09:30:31</time>
      </trkpt>
      <trkpt lat="51.917587000" lon="7.571148000">
        <ele>73.2</ele>
        <time>2017-04-29T09:30:33</time>
        <extensions><speed>1.31</speed></extensions>
      </trkpt>
      <trkpt lat="51.917591000" lon="7.571154000">
        <ele>73.3</ele>
        <time>2017-04-29T09:30:34</time>
      </trkpt>
      <trkpt lat="51.917603000" lon="7.571163000">
        <ele>73.3</ele>
        <time>2017-04-29T09:30:36</time>
        <extensions><speed>1.22</speed></extensions>
      </trkpt>
      <trkpt lat="51.917618000" lon="7.571172000">
        <ele>73.3</ele>
        <time>2017-04-29T09:30:37</time>
        <extensions><speed>1.22</speed></extensions>
      </trkpt>
      <trkpt lat="51.917637000" lon="7.571177000">
        <ele>73.3</ele>
        <time>2017-04-29T09:30:38</time>
        <extensions><speed>1.28</speed></extensions>
      </trkpt>
      <trkpt lat="51.917656000" lon="7.571184000">
        <ele>73.3</ele>
        <time>2017-04-29T09:30:39</time>
        <extensions><speed>1.38</speed></extensions>
      </trkpt>
      <trkpt lat="51.917667000" lon="7.571190000">
        <ele>73.3</ele>
        <time>2017-04-29T09:30:40</time>
        <extensions><speed>1.33</speed></extensions>
      </trkpt>
      <trkpt lat="51.917683000" lon="7.571195000">
        <ele>73.3</ele>
        <time>2017-04-29T09:30:41</time>
        <extensions><speed>1.36</speed></extensions>
      </trkpt>
      <trkpt lat="51.917690000" lon="7.571197000">
        <ele>73.3</ele>
        <time>2017-04-29T09:30:42</time>
        <extensions><speed>1.26</speed></extensions>
      </trkpt>
      <trkpt lat="51.917706000" lon="7.571201000">
        <ele>73.3</ele>
        <time>2017-04-29T09:30:43</time>
        <extensions><speed>1.21</speed></extensions>
      </trkpt>
      <trkpt lat="51.917721000" lon="7.571207000">
        <ele>73.3</ele>
        <time>2017-04-29T09:30:44</time>
        <extensions><speed>1.21</speed></extensions>
      </trkpt>
      <trkpt lat="51.917732000" lon="7.571212000">
        <ele>73.3</ele>
        <time>2017-04-29T09:30:45</time>
        <extensions><speed>1.25</speed></extensions>
      </trkpt>
      <trkpt lat="51.917747000" lon="7.571220000">
        <ele>73.3</ele>
        <time>2017-04-29T09:30:46</time>
        <extensions><speed>1.30</speed></extensions>
      </trkpt>
      <trkpt lat="51.917763000" lon="7.571228000">
        <ele>73.4</ele>
        <time>2017-04-29T09:30:47</time>
        <extensions><speed>1.42</speed></extensions>
      </trkpt>
      <trkpt lat="51.917778000" lon="7.571237000">
        <ele>73.4</ele>
        <time>2017-04-29T09:30:48</time>
        <extensions><speed>1.42</speed></extensions>
      </trkpt>
      <trkpt lat="51.917789000" lon="7.571242000">
        <ele>73.4</ele>
        <time>2017-04-29T09:30:49</time>
        <extensions><speed>1.35</speed></extensions>
      </trkpt>
      <trkpt lat="51.917805000" lon="7.571247000">
        <ele>73.4</ele>
        <time>2017-04-29T09:30:50</time>
        <extensions><speed>1.41</speed></extensions>
      </trkpt>
      <trkpt lat="51.917820000" lon="7.571254000">
        <ele>73.4</ele>
        <time>2017-04-29T09:30:51</time>
        <extensions><speed>1.35</speed></extensions>
      </trkpt>
      <trkpt lat="51.917839000" lon="7.571257000">
        <ele>73.4</ele>
        <time>2017-04-29T09:30:52</time>
        <extensions><speed>1.35</speed></extensions>
      </trkpt>
      <trkpt lat="51.917854000" lon="7.571263000">
        <ele>73.4</ele>
        <time>2017-04-29T09:30:53</time>
        <extensions><speed>1.47</speed></extensions>
      </trkpt>
      <trkpt lat="51.917873000" lon="7.571275000">
        <ele>73.4</ele>
        <time>2017-04-29T09:30:54</time>
        <extensions><speed>1.49</speed></extensions>
      </trkpt>
      <trkpt lat="51.917885000" lon="7.571285000">
        <ele>73.4</ele>
        <time>2017-04-29T09:30:55</time>
        <extensions><speed>1.42</speed></extensions>
      </trkpt>
      <trkpt lat="51.917896000" lon="7.571295000">
        <ele>73.4</ele>
        <time>2017-04-29T09:30:56</time>
        <extensions><speed>1.41</speed></extensions>
      </trkpt>
      <trkpt lat="51.917908000" lon="7.571305000">
        <ele>73.4</ele>
        <time>2017-04-29T09:30:57</time>
        <extensions><speed>1.38</speed></extensions>
      </trkpt>
      <trkpt lat="51.917919000" lon="7.571313000">
        <ele>73.5</ele>
        <time>2017-04-29T09:30:58</time>
        <extensions><speed>1.35</speed></extensions>
      </trkpt>
      <trkpt lat="51.917934000" lon="7.571320000">
        <ele>73.5</ele>
        <time>2017-04-29T09:30:59</time>
        <extensions><speed>1.32</speed></extensions>
      </trkpt>
      <trkpt lat="51.917942000" lon="7.571325000">
        <ele>73.5</ele>
        <time>2017-04-29T09:31:00</time>
      </trkpt>
      <trkpt lat="51.917953000" lon="7.571338000">
        <ele>73.5</ele>
        <time>2017-04-29T09:31:02</time>
        <extensions><speed>1.31</speed></extensions>
      </trkpt>
      <trkpt lat="51.917969000" lon="7.571352000">
        <ele>73.5</ele>
        <time>2017-04-29T09:31:03</time>
        <extensions><speed>1.02</speed></extensions>
      </trkpt>
      <trkpt lat="51.917984000" lon="7.571364000">
        <ele>73.5</ele>
        <time>2017-04-29T09:31:04</time>
        <extensions><speed>0.97</speed></extensions>
      </trkpt>
      <trkpt lat="51.917992000" lon="7.571368000">
        <ele>73.5</ele>
        <time>2017-04-29T09:31:05</time>
        <extensions><speed>0.97</speed></extensions>
      </trkpt>
      <trkpt lat="51.917999000" lon="7.571372000">
        <ele>73.5</ele>
        <time>2017-04-29T09:31:06</time>
        <extensions><speed>0.85</speed></extensions>
      </trkpt>
      <trkpt lat="51.918015000" lon="7.571375000">
        <ele>73.5</ele>
        <time>2017-04-29T09:31:07</time>
        <extensions><speed>0.85</speed></extensions>
      </trkpt>
      <trkpt lat="51.918030000" lon="7.571382000">
        <ele>73.5</ele>
        <time>2017-04-29T09:31:08</time>
        <extensions><speed>1.12</speed></extensions>
      </trkpt>
      <trkpt lat="51.918045000" lon="7.571390000">
        <ele>73.5</ele>
        <time>2017-04-29T09:31:09</time>
        <extensions><speed>1.08</speed></extensions>
      </trkpt>
      <trkpt lat="51.918056000" lon="7.571403000">
        <ele>73.5</ele>
        <time>2017-04-29T09:31:10</time>
        <extensions><speed>1.25</speed></extensions>
      </trkpt>
      <trkpt lat="51.918068000" lon="7.571413000">
        <ele>73.5</ele>
        <time>2017-04-29T09:31:11</time>
        <extensions><speed>1.37</speed></extensions>
      </trkpt>
      <trkpt lat="51.918083000" lon="7.571420000">
        <ele>73.5</ele>
        <time>2017-04-29T09:31:12</time>
      </trkpt>
      <trkpt lat="51.918098000" lon="7.571429000">
        <ele>73.5</ele>
        <time>2017-04-29T09:31:14</time>
        <extensions><speed>1.41</speed></extensions>
      </trkpt>
      <trkpt lat="51.918118000" lon="7.571434000">
        <ele>73.5</ele>
        <time>2017-04-29T09:31:15</time>
        <extensions><speed>1.51</speed></extensions>
      </trkpt>
      <trkpt lat="51.918133000" lon="7.571443000">
        <ele>73.5</ele>
        <time>2017-04-29T09:31:16</time>
        <extensions><speed>1.46</speed></extensions>
      </trkpt>
      <trkpt lat="51.918148000" lon="7.571452000">
        <ele>73.4</ele>
        <time>2017-04-29T09:31:17</time>
        <extensions><speed>1.51</speed></extensions>
      </trkpt>
      <trkpt lat="51.918163000" lon="7.571457000">
        <ele>73.4</ele>
        <time>2017-04-29T09:31:18</time>
        <extensions><speed>1.50</speed></extensions>
      </trkpt>
      <trkpt lat="51.918179000" lon="7.571464000">
        <ele>73.4</ele>
        <time>2017-04-29T09:31:19</time>
        <extensions><speed>1.50</speed></extensions>
      </trkpt>
      <trkpt lat="51.918190000" lon="7.571475000">
        <ele>73.4</ele>
        <time>2017-04-29T09:31:20</time>
        <extensions><speed>1.50</speed></extensions>
      </trkpt>
      <trkpt lat="51.918209000" lon="7.571483000">
        <ele>73.4</ele>
        <time>2017-04-29T09:31:21</time>
        <extensions><speed>1.50</speed></extensions>
      </trkpt>
      <trkpt lat="51.918221000" lon="7.571492000">
        <ele>73.3</ele>
        <time>2017-04-29T09:31:22</time>
        <extensions><speed>1.51</speed></extensions>
      </trkpt>
      <trkpt lat="51.918236000" lon="7.571498000">
        <ele>73.3</ele>
        <time>2017-04-29T09:31:23</time>
        <extensions><speed>1.51</speed></extensions>
      </trkpt>
      <trkpt lat="51.918243000" lon="7.571505000">
        <ele>73.2</ele>
        <time>2017-04-29T09:31:24</time>
      </trkpt>
      <trkpt lat="51.918259000" lon="7.571515000">
        <ele>73.2</ele>
        <time>2017-04-29T09:31:26</time>
        <extensions><speed>1.37</speed></extensions>
      </trkpt>
      <trkpt lat="51.918274000" lon="7.571520000">
        <ele>73.2</ele>
        <time>2017-04-29T09:31:27</time>
        <extensions><speed>1.27</speed></extensions>
      </trkpt>
      <trkpt lat="51.918285000" lon="7.571527000">
        <ele>73.2</ele>
        <time>2017-04-29T09:31:28</time>
        <extensions><speed>1.37</speed></extensions>
      </trkpt>
      <trkpt lat="51.918304000" lon="7.571539000">
        <ele>73.2</ele>
        <time>2017-04-29T09:31:29</time>
        <extensions><speed>1.47</speed></extensions>
      </trkpt>
      <trkpt lat="51.918312000" lon="7.571548000">
        <ele>73.1</ele>
        <time>2017-04-29T09:31:30</time>
        <extensions><speed>1.45</speed></extensions>
      </trkpt>
      <trkpt lat="51.918327000" lon="7.571557000">
        <ele>73.1</ele>
        <time>2017-04-29T09:31:31</time>
        <extensions><speed>1.34</speed></extensions>
      </trkpt>
      <trkpt lat="51.918343000" lon="7.571565000">
        <ele>73.1</ele>
        <time>2017-04-29T09:31:32</time>
        <extensions><speed>1.38</speed></extensions>
      </trkpt>
      <trkpt lat="51.918354000" lon="7.571573000">
        <ele>73.1</ele>
        <time>2017-04-29T09:31:33</time>
        <extensions><speed>1.36</speed></extensions>
      </trkpt>
      <trkpt lat="51.918369000" lon="7.571583000">
        <ele>73.0</ele>
        <time>2017-04-29T09:31:34</time>
        <extensions><speed>1.36</speed></extensions>
      </trkpt>
      <trkpt lat="51.918381000" lon="7.571588000">
        <ele>73.0</ele>
        <time>2017-04-29T09:31:35</time>
        <extensions><speed>1.27</speed></extensions>
      </trkpt>
      <trkpt lat="51.918396000" lon="7.571593000">
        <ele>72.9</ele>
        <time>2017-04-29T09:31:36</time>
        <extensions><speed>1.40</speed></extensions>
      </trkpt>
      <trkpt lat="51.918407000" lon="7.571599000">
        <ele>72.9</ele>
        <time>2017-04-29T09:31:37</time>
        <extensions><speed>1.48</speed></extensions>
      </trkpt>
      <trkpt lat="51.918427000" lon="7.571604000">
        <ele>72.9</ele>
        <time>2017-04-29T09:31:38</time>
        <extensions><speed>1.42</speed></extensions>
      </trkpt>
      <trkpt lat="51.918438000" lon="7.571609000">
        <ele>72.8</ele>
        <time>2017-04-29T09:31:39</time>
      </trkpt>
      <trkpt lat="51.918449000" lon="7.571618000">
        <ele>72.7</ele>
        <time>2017-04-29T09:31:41</time>
        <extensions><speed>1.31</speed></extensions>
      </trkpt>
      <trkpt lat="51.918468000" lon="7.571621000">
        <ele>72.7</ele>
        <time>2017-04-29T09:31:42</time>
        <extensions><speed>1.34</speed></extensions>
      </trkpt>
      <trkpt lat="51.918480000" lon="7.571625000">
        <ele>72.7</ele>
        <time>2017-04-29T09:31:43</time>
        <extensions><speed>1.39</speed></extensions>
      </trkpt>
      <trkpt lat="51.918495000" lon="7.571632000">
        <ele>72.6</ele>
        <time>2017-04-29T09:31:44</time>
        <extensions><speed>1.45</speed></extensions>
      </trkpt>
      <trkpt lat="51.918507000" lon="7.571639000">
        <ele>72.6</ele>
        <time>2017-04-29T09:31:45</time>
        <extensions><speed>1.45</speed></extensions>
      </trkpt>
      <trkpt lat="51.918522000" lon="7.571645000">
        <ele>72.6</ele>
        <time>2017-04-29T09:31:46</time>
        <extensions><speed>1.43</speed></extensions>
      </trkpt>
      <trkpt lat="51.918537000" lon="7.571660000">
        <ele>72.5</ele>
        <time>2017-04-29T09:31:47</time>
        <extensions><speed>1.43</speed></extensions>
      </trkpt>
      <trkpt lat="51.918545000" lon="7.571677000">
        <ele>72.5</ele>
        <time>2017-04-29T09:31:48</time>
        <extensions><speed>1.36</speed></extensions>
      </trkpt>
      <trkpt lat="51.918556000" lon="7.571688000">
        <ele>72.5</ele>
        <time>2017-04-29T09:31:49</time>
        <extensions><speed>1.30</speed></extensions>
      </trkpt>
      <trkpt lat="51.918568000" lon="7.571700000">
        <ele>72.4</ele>
        <time>2017-04-29T09:31:50</time>
        <extensions><speed>1.29</speed></extensions>
      </trkpt>
      <trkpt lat="51.918571000" lon="7.571709000">
        <ele>72.4</ele>
        <time>2017-04-29T09:31:51</time>
        <extensions><speed>1.22</speed></extensions>
      </trkpt>
      <trkpt lat="51.918583000" lon="7.571716000">
        <ele>72.3</ele>
        <time>2017-04-29T09:31:52</time>
        <extensions><speed>1.22</speed></extensions>
      </trkpt>
      <trkpt lat="51.918598000" lon="7.571727000">
        <ele>72.3</ele>
        <time>2017-04-29T09:31:53</time>
        <extensions><speed>1.29</speed></extensions>
      </trkpt>
      <trkpt lat="51.918610000" lon="7.571737000">
        <ele>72.2</ele>
        <time>2017-04-29T09:31:54</time>
        <extensions><speed>1.33</speed></extensions>
      </trkpt>
      <trkpt lat="51.918625000" lon="7.571748000">
        <ele>72.2</ele>
        <time>2017-04-29T09:31:55</time>
        <extensions><speed>1.33</speed></extensions>
      </trkpt>
      <trkpt lat="51.918636000" lon="7.571762000">
        <ele>72.1</ele>
        <time>2017-04-29T09:31:56</time>
        <extensions><speed>1.36</speed></extensions>
      </trkpt>
      <trkpt lat="51.918648000" lon="7.571770000">
        <ele>72.1</ele>
        <time>2017-04-29T09:31:57</time>
        <extensions><speed>1.38</speed></extensions>
      </trkpt>
      <trkpt lat="51.918659000" lon="7.571780000">
        <ele>72.0</ele>
        <time>2017-04-29T09:31:58</time>
        <extensions><speed>1.35</speed></extensions>
      </trkpt>
      <trkpt lat="51.918667000" lon="7.571790000">
        <ele>72.0</ele>
        <time>2017-04-29T09:31:59</time>
        <extensions><speed>1.34</speed></extensions>
      </trkpt>
      <trkpt lat="51.918678000" lon="7.571800000">
        <ele>71.9</ele>
        <time>2017-04-29T09:32:00</time>
        <extensions><speed>1.29</speed></extensions>
      </trkpt>
      <trkpt lat="51.918694000" lon="7.571810000">
        <ele>71.9</ele>
        <time>2017-04-29T09:32:01</time>
        <extensions><speed>1.29</speed></extensions>
      </trkpt>
      <trkpt lat="51.918705000" lon="7.571821000">
        <ele>71.8</ele>
        <time>2017-04-29T09:32:02</time>
        <extensions><speed>1.28</speed></extensions>
      </trkpt>
      <trkpt lat="51.918720000" lon="7.571828000">
        <ele>71.7</ele>
        <time>2017-04-29T09:32:03</time>
        <extensions><speed>1.25</speed></extensions>
      </trkpt>
      <trkpt lat="51.918732000" lon="7.571837000">
        <ele>71.7</ele>
        <time>2017-04-29T09:32:04</time>
        <extensions><speed>1.23</speed></extensions>
      </trkpt>
      <trkpt lat="51.918736000" lon="7.571840000">
        <ele>71.5</ele>
        <time>2017-04-29T09:32:06</time>
      </trkpt>
      <trkpt lat="51.918751000" lon="7.571849000">
        <ele>71.4</ele>
        <time>2017-04-29T09:32:08</time>
        <extensions><speed>0.81</speed></extensions>
      </trkpt>
      <trkpt lat="51.918766000" lon="7.571855000">
        <ele>71.4</ele>
        <time>2017-04-29T09:32:09</time>
        <extensions><speed>0.88</speed></extensions>
      </trkpt>
      <trkpt lat="51.918781000" lon="7.571860000">
        <ele>71.3</ele>
        <time>2017-04-29T09:32:10</time>
        <extensions><speed>1.36</speed></extensions>
      </trkpt>
      <trkpt lat="51.918797000" lon="7.571865000">
        <ele>71.3</ele>
        <time>2017-04-29T09:32:11</time>
        <extensions><speed>1.41</speed></extensions>
      </trkpt>
      <trkpt lat="51.918804000" lon="7.571867000">
        <ele>71.2</ele>
        <time>2017-04-29T09:32:12</time>
        <extensions><speed>1.41</speed></extensions>
      </trkpt>
      <trkpt lat="51.918816000" lon="7.571874000">
        <ele>71.2</ele>
        <time>2017-04-29T09:32:13</time>
        <extensions><speed>1.41</speed></extensions>
      </trkpt>
      <trkpt lat="51.918831000" lon="7.571884000">
        <ele>71.1</ele>
        <time>2017-04-29T09:32:14</time>
        <extensions><speed>1.42</speed></extensions>
      </trkpt>
      <trkpt lat="51.918846000" lon="7.571893000">
        <ele>71.0</ele>
        <time>2017-04-29T09:32:15</time>
        <extensions><speed>1.45</speed></extensions>
      </trkpt>
      <trkpt lat="51.918861000" lon="7.571900000">
        <ele>71.0</ele>
        <time>2017-04-29T09:32:16</time>
        <extensions><speed>1.40</speed></extensions>
      </trkpt>
      <trkpt lat="51.918869000" lon="7.571907000">
        <ele>70.9</ele>
        <time>2017-04-29T09:32:17</time>
        <extensions><speed>1.53</speed></extensions>
      </trkpt>
      <trkpt lat="51.918880000" lon="7.571915000">
        <ele>70.8</ele>
        <time>2017-04-29T09:32:18</time>
        <extensions><speed>1.45</speed></extensions>
      </trkpt>
      <trkpt lat="51.918896000" lon="7.571920000">
        <ele>70.7</ele>
        <time>2017-04-29T09:32:19</time>
        <extensions><speed>1.54</speed></extensions>
      </trkpt>
      <trkpt lat="51.918907000" lon="7.571923000">
        <ele>70.7</ele>
        <time>2017-04-29T09:32:20</time>
        <extensions><speed>1.47</speed></extensions>
      </trkpt>
      <trkpt lat="51.918926000" lon="7.571927000">
        <ele>70.6</ele>
        <time>2017-04-29T09:32:21</time>
        <extensions><speed>1.53</speed></extensions>
      </trkpt>
      <trkpt lat="51.918934000" lon="7.571931000">
        <ele>70.5</ele>
        <time>2017-04-29T09:32:22</time>
        <extensions><speed>1.41</speed></extensions>
      </trkpt>
      <trkpt lat="51.918945000" lon="7.571939000">
        <ele>70.4</ele>
        <time>2017-04-29T09:32:23</time>
        <extensions><speed>1.41</speed></extensions>
      </trkpt>
      <trkpt lat="51.918957000" lon="7.571950000">
        <ele>70.4</ele>
        <time>2017-04-29T09:32:24</time>
        <extensions><speed>1.40</speed></extensions>
      </trkpt>
      <trkpt lat="51.918968000" lon="7.571958000">
        <ele>70.3</ele>
        <time>2017-04-29T09:32:25</time>
        <extensions><speed>1.41</speed></extensions>
      </trkpt>
      <trkpt lat="51.918983000" lon="7.571963000">
        <ele>70.2</ele>
        <time>2017-04-29T09:32:26</time>
        <extensions><speed>1.40</speed></extensions>
      </trkpt>
      <trkpt lat="51.918995000" lon="7.571967000">
        <ele>70.1</ele>
        <time>2017-04-29T09:32:27</time>
        <extensions><speed>1.46</speed></extensions>
      </trkpt>
      <trkpt lat="51.919006000" lon="7.571973000">
        <ele>70.1</ele>
        <time>2017-04-29T09:32:28</time>
        <extensions><speed>1.46</speed></extensions>
      </trkpt>
      <trkpt lat="51.919018000" lon="7.571982000">
        <ele>70.1</ele>
        <time>2017-04-29T09:32:29</time>
        <extensions><speed>1.41</speed></extensions>
      </trkpt>
      <trkpt lat="51.919025000" lon="7.571991000">
        <ele>70.0</ele>
        <time>2017-04-29T09:32:30</time>
        <extensions><speed>1.38</speed></extensions>
      </trkpt>
      <trkpt lat="51.919041000" lon="7.572005000">
        <ele>69.9</ele>
        <time>2017-04-29T09:32:31</time>
        <extensions><speed>1.45</speed></extensions>
      </trkpt>
      <trkpt lat="51.919060000" lon="7.572019000">
        <ele>69.8</ele>
        <time>2017-04-29T09:32:32</time>
        <extensions><speed>1.45</speed></extensions>
      </trkpt>
      <trkpt lat="51.919071000" lon="7.572026000">
        <ele>69.7</ele>
        <time>2017-04-29T09:32:33</time>
        <extensions><speed>1.49</speed></extensions>
      </trkpt>
      <trkpt lat="51.919086000" lon="7.572030000">
        <ele>69.6</ele>
        <time>2017-04-29T09:32:34</time>
        <extensions><speed>1.49</speed></extensions>
      </trkpt>
      <trkpt lat="51.919094000" lon="7.572035000">
        <ele>69.5</ele>
        <time>2017-04-29T09:32:35</time>
        <extensions><speed>1.40</speed></extensions>
      </trkpt>
      <trkpt lat="51.919106000" lon="7.572040000">
        <ele>69.4</ele>
        <time>2017-04-29T09:32:36</time>
        <extensions><speed>1.33</speed></extensions>
      </trkpt>
      <trkpt lat="51.919125000" lon="7.572045000">
        <ele>69.3</ele>
        <time>2017-04-29T09:32:37</time>
        <extensions><speed>1.29</speed></extensions>
      </trkpt>
      <trkpt lat="51.919125000" lon="7.572050000">
        <ele>69.2</ele>
        <time>2017-04-29T09:32:38</time>
      </trkpt>
      <trkpt lat="51.919136000" lon="7.572063000">
        <ele>69.1</ele>
        <time>2017-04-29T09:32:40</time>
        <extensions><speed>1.21</speed></extensions>
      </trkpt>
      <trkpt lat="51.919147000" lon="7.572073000">
        <ele>69.0</ele>
        <time>2017-04-29T09:32:41</time>
        <extensions><speed>1.18</speed></extensions>
      </trkpt>
      <trkpt lat="51.919159000" lon="7.572082000">
        <ele>69.0</ele>
        <time>2017-04-29T09:32:42</time>
        <extensions><speed>1.18</speed></extensions>
      </trkpt>
      <trkpt lat="51.919178000" lon="7.572090000">
        <ele>68.9</ele>
        <time>2017-04-29T09:32:43</time>
        <extensions><speed>1.29</speed></extensions>
      </trkpt>
      <trkpt lat="51.919189000" lon="7.572102000">
        <ele>68.8</ele>
        <time>2017-04-29T09:32:44</time>
        <extensions><speed>1.29</speed></extensions>
      </trkpt>
      <trkpt lat="51.919197000" lon="7.572112000">
        <ele>68.8</ele>
        <time>2017-04-29T09:32:45</time>
        <extensions><speed>1.31</speed></extensions>
      </trkpt>
      <trkpt lat="51.919205000" lon="7.572118000">
        <ele>68.6</ele>
        <time>2017-04-29T09:32:46</time>
      </trkpt>
      <trkpt lat="51.919216000" lon="7.572130000">
        <ele>68.5</ele>
        <time>2017-04-29T09:32:48</time>
        <extensions><speed>1.33</speed></extensions>
      </trkpt>
      <trkpt lat="51.919224000" lon="7.572142000">
        <ele>68.5</ele>
        <time>2017-04-29T09:32:49</time>
        <extensions><speed>1.39</speed></extensions>
      </trkpt>
      <trkpt lat="51.919243000" lon="7.572145000">
        <ele>68.4</ele>
        <time>2017-04-29T09:32:50</time>
        <extensions><speed>1.39</speed></extensions>
      </trkpt>
      <trkpt lat="51.919258000" lon="7.572154000">
        <ele>68.3</ele>
        <time>2017-04-29T09:32:51</time>
        <extensions><speed>1.39</speed></extensions>
      </trkpt>
      <trkpt lat="51.919273000" lon="7.572162000">
        <ele>68.3</ele>
        <time>2017-04-29T09:32:52</time>
        <extensions><speed>1.39</speed></extensions>
      </trkpt>
      <trkpt lat="51.919285000" lon="7.572170000">
        <ele>68.2</ele>
        <time>2017-04-29T09:32:53</time>
        <extensions><speed>1.37</speed></extensions>
      </trkpt>
      <trkpt lat="51.919289000" lon="7.572175000">
        <ele>68.0</ele>
        <time>2017-04-29T09:32:54</time>
      </trkpt>
      <trkpt lat="51.919300000" lon="7.572190000">
        <ele>67.9</ele>
        <time>2017-04-29T09:32:56</time>
        <extensions><speed>1.32</speed></extensions>
      </trkpt>
      <trkpt lat="51.919315000" lon="7.572199000">
        <ele>67.8</ele>
        <time>2017-04-29T09:32:57</time>
        <extensions><speed>1.29</speed></extensions>
      </trkpt>
      <trkpt lat="51.919327000" lon="7.572205000">
        <ele>67.8</ele>
        <time>2017-04-29T09:32:58</time>
        <extensions><speed>1.29</speed></extensions>
      </trkpt>
      <trkpt lat="51.919338000" lon="7.572213000">
        <ele>67.7</ele>
        <time>2017-04-29T09:32:59</time>
        <extensions><speed>1.37</speed></extensions>
      </trkpt>
      <trkpt lat="51.919350000" lon="7.572224000">
        <ele>67.6</ele>
        <time>2017-04-29T09:33:00</time>
        <extensions><speed>1.37</speed></extensions>
      </trkpt>
      <trkpt lat="51.919361000" lon="7.572234000">
        <ele>67.6</ele>
        <time>2017-04-29T09:33:01</time>
        <extensions><speed>1.32</speed></extensions>
      </trkpt>
      <trkpt lat="51.919376000" lon="7.572245000">
        <ele>67.5</ele>
        <time>2017-04-29T09:33:02</time>
        <extensions><speed>1.33</speed></extensions>
      </trkpt>
      <trkpt lat="51.919388000" lon="7.572257000">
        <ele>67.4</ele>
        <time>2017-04-29T09:33:03</time>
        <extensions><speed>1.37</speed></extensions>
      </trkpt>
      <trkpt lat="51.919403000" lon="7.572267000">
        <ele>67.3</ele>
        <time>2017-04-29T09:33:04</time>
        <extensions><speed>1.33</speed></extensions>
      </trkpt>
      <trkpt lat="51.919415000" lon="7.572273000">
        <ele>67.2</ele>
        <time>2017-04-29T09:33:05</time>
        <extensions><speed>1.30</speed></extensions>
      </trkpt>
      <trkpt lat="51.919426000" lon="7.572281000">
        <ele>67.1</ele>
        <time>2017-04-29T09:33:06</time>
        <extensions><speed>1.35</speed></extensions>
      </trkpt>
      <trkpt lat="51.919445000" lon="7.572289000">
        <ele>67.0</ele>
        <time>2017-04-29T09:33:07</time>
        <extensions><speed>1.37</speed></extensions>
      </trkpt>
      <trkpt lat="51.919453000" lon="7.572297000">
        <ele>66.9</ele>
        <time>2017-04-29T09:33:08</time>
        <extensions><speed>1.28</speed></extensions>
      </trkpt>
      <trkpt lat="51.919464000" lon="7.572304000">
        <ele>66.8</ele>
        <time>2017-04-29T09:33:09</time>
        <extensions><speed>1.29</speed></extensions>
      </trkpt>
      <trkpt lat="51.919476000" lon="7.572309000">
        <ele>66.7</ele>
        <time>2017-04-29T09:33:10</time>
        <extensions><speed>1.34</speed></extensions>
      </trkpt>
      <trkpt lat="51.919487000" lon="7.572320000">
        <ele>66.6</ele>
        <time>2017-04-29T09:33:11</time>
        <extensions><speed>1.34</speed></extensions>
      </trkpt>
      <trkpt lat="51.919495000" lon="7.572329000">
        <ele>66.4</ele>
        <time>2017-04-29T09:33:12</time>
      </trkpt>
      <trkpt lat="51.919510000" lon="7.572337000">
        <ele>66.3</ele>
        <time>2017-04-29T09:33:14</time>
        <extensions><speed>1.34</speed></extensions>
      </trkpt>
      <trkpt lat="51.919518000" lon="7.572341000">
        <ele>66.2</ele>
        <time>2017-04-29T09:33:15</time>
        <extensions><speed>1.30</speed></extensions>
      </trkpt>
      <trkpt lat="51.919533000" lon="7.572348000">
        <ele>66.2</ele>
        <time>2017-04-29T09:33:16</time>
        <extensions><speed>1.30</speed></extensions>
      </trkpt>
      <trkpt lat="51.919548000" lon="7.572348000">
        <ele>66.1</ele>
        <time>2017-04-29T09:33:17</time>
        <extensions><speed>1.32</speed></extensions>
      </trkpt>
      <trkpt lat="51.919559000" lon="7.572346000">
        <ele>66.0</ele>
        <time>2017-04-29T09:33:18</time>
        <extensions><speed>1.24</speed></extensions>
      </trkpt>
      <trkpt lat="51.919571000" lon="7.572348000">
        <ele>66.0</ele>
        <time>2017-04-29T09:33:19</time>
        <extensions><speed>1.21</speed></extensions>
      </trkpt>
      <trkpt lat="51.919582000" lon="7.572359000">
        <ele>65.9</ele>
        <time>2017-04-29T09:33:20</time>
        <extensions><speed>1.34</speed></extensions>
      </trkpt>
      <trkpt lat="51.919601000" lon="7.572371000">
        <ele>65.8</ele>
        <time>2017-04-29T09:33:21</time>
        <extensions><speed>1.29</speed></extensions>
      </trkpt>
      <trkpt lat="51.919613000" lon="7.572381000">
        <ele>65.7</ele>
        <time>2017-04-29T09:33:22</time>
        <extensions><speed>1.31</speed></extensions>
      </trkpt>
      <trkpt lat="51.919628000" lon="7.572392000">
        <ele>65.7</ele>
        <time>2017-04-29T09:33:23</time>
        <extensions><speed>1.45</speed></extensions>
      </trkpt>
      <trkpt lat="51.919640000" lon="7.572402000">
        <ele>65.6</ele>
        <time>2017-04-29T09:33:24</time>
        <extensions><speed>1.45</speed></extensions>
      </trkpt>
      <trkpt lat="51.919651000" lon="7.572405000">
        <ele>65.5</ele>
        <time>2017-04-29T09:33:25</time>
        <extensions><speed>1.35</speed></extensions>
      </trkpt>
      <trkpt lat="51.919666000" lon="7.572409000">
        <ele>65.4</ele>
        <time>2017-04-29T09:33:26</time>
        <extensions><speed>1.31</speed></extensions>
      </trkpt>
      <trkpt lat="51.919678000" lon="7.572410000">
        <ele>65.3</ele>
        <time>2017-04-29T09:33:27</time>
        <extensions><speed>1.24</speed></extensions>
      </trkpt>
      <trkpt lat="51.919685000" lon="7.572416000">
        <ele>65.3</ele>
        <time>2017-04-29T09:33:28</time>
        <extensions><speed>1.18</speed></extensions>
      </trkpt>
      <trkpt lat="51.919701000" lon="7.572427000">
        <ele>65.2</ele>
        <time>2017-04-29T09:33:29</time>
        <extensions><speed>1.20</speed></extensions>
      </trkpt>
      <trkpt lat="51.919712000" lon="7.572437000">
        <ele>65.1</ele>
        <time>2017-04-29T09:33:30</time>
        <extensions><speed>1.25</speed></extensions>
      </trkpt>
      <trkpt lat="51.919724000" lon="7.572446000">
        <ele>65.0</ele>
        <time>2017-04-29T09:33:31</time>
        <extensions><speed>1.30</speed></extensions>
      </trkpt>
      <trkpt lat="51.919727000" lon="7.572452000">
        <ele>64.8</ele>
        <time>2017-04-29T09:33:32</time>
      </trkpt>
      <trkpt lat="51.919743000" lon="7.572456000">
        <ele>64.7</ele>
        <time>2017-04-29T09:33:34</time>
        <extensions><speed>1.27</speed></extensions>
      </trkpt>
      <trkpt lat="51.919754000" lon="7.572464000">
        <ele>64.7</ele>
        <time>2017-04-29T09:33:35</time>
        <extensions><speed>1.34</speed></extensions>
      </trkpt>
      <trkpt lat="51.919769000" lon="7.572472000">
        <ele>64.6</ele>
        <time>2017-04-29T09:33:36</time>
        <extensions><speed>1.32</speed></extensions>
      </trkpt>
      <trkpt lat="51.919785000" lon="7.572481000">
        <ele>64.5</ele>
        <time>2017-04-29T09:33:37</time>
        <extensions><speed>1.40</speed></extensions>
      </trkpt>
      <trkpt lat="51.919796000" lon="7.572488000">
        <ele>64.5</ele>
        <time>2017-04-29T09:33:38</time>
        <extensions><speed>1.40</speed></extensions>
      </trkpt>
      <trkpt lat="51.919807000" lon="7.572497000">
        <ele>64.4</ele>
        <time>2017-04-29T09:33:39</time>
        <extensions><speed>1.43</speed></extensions>
      </trkpt>
      <trkpt lat="51.919823000" lon="7.572509000">
        <ele>64.3</ele>
        <time>2017-04-29T09:33:40</time>
        <extensions><speed>1.43</speed></extensions>
      </trkpt>
      <trkpt lat="51.919834000" lon="7.572520000">
        <ele>64.3</ele>
        <time>2017-04-29T09:33:41</time>
        <extensions><speed>1.38</speed></extensions>
      </trkpt>
      <trkpt lat="51.919842000" lon="7.572528000">
        <ele>64.2</ele>
        <time>2017-04-29T09:33:42</time>
        <extensions><speed>1.36</speed></extensions>
      </trkpt>
      <trkpt lat="51.919857000" lon="7.572537000">
        <ele>64.1</ele>
        <time>2017-04-29T09:33:43</time>
        <extensions><speed>1.39</speed></extensions>
      </trkpt>
      <trkpt lat="51.919872000" lon="7.572542000">
        <ele>64.0</ele>
        <time>2017-04-29T09:33:44</time>
        <extensions><speed>1.37</speed></extensions>
      </trkpt>
      <trkpt lat="51.919884000" lon="7.572548000">
        <ele>63.9</ele>
        <time>2017-04-29T09:33:45</time>
        <extensions><speed>1.37</speed></extensions>
      </trkpt>
      <trkpt lat="51.919899000" lon="7.572558000">
        <ele>63.8</ele>
        <time>2017-04-29T09:33:46</time>
        <extensions><speed>1.39</speed></extensions>
      </trkpt>
      <trkpt lat="51.919907000" lon="7.572567000">
        <ele>63.7</ele>
        <time>2017-04-29T09:33:47</time>
        <extensions><speed>1.38</speed></extensions>
      </trkpt>
      <trkpt lat="51.919922000" lon="7.572574000">
        <ele>63.6</ele>
        <time>2017-04-29T09:33:48</time>
        <extensions><speed>1.38</speed></extensions>
      </trkpt>
      <trkpt lat="51.919933000" lon="7.572578000">
        <ele>63.6</ele>
        <time>2017-04-29T09:33:49</time>
        <extensions><speed>1.42</speed></extensions>
      </trkpt>
      <trkpt lat="51.919945000" lon="7.572585000">
        <ele>63.5</ele>
        <time>2017-04-29T09:33:50</time>
        <extensions><speed>1.42</speed></extensions>
      </trkpt>
      <trkpt lat="51.919960000" lon="7.572593000">
        <ele>63.4</ele>
        <time>2017-04-29T09:33:51</time>
        <extensions><speed>1.40</speed></extensions>
      </trkpt>
      <trkpt lat="51.919971000" lon="7.572603000">
        <ele>63.3</ele>
        <time>2017-04-29T09:33:52</time>
        <extensions><speed>1.46</speed></extensions>
      </trkpt>
      <trkpt lat="51.919983000" lon="7.572614000">
        <ele>63.2</ele>
        <time>2017-04-29T09:33:53</time>
        <extensions><speed>1.54</speed></extensions>
      </trkpt>
      <trkpt lat="51.919998000" lon="7.572623000">
        <ele>63.1</ele>
        <time>2017-04-29T09:33:54</time>
        <extensions><speed>1.54</speed></extensions>
      </trkpt>
      <trkpt lat="51.920010000" lon="7.572630000">
        <ele>63.1</ele>
        <time>2017-04-29T09:33:55</time>
        <extensions><speed>1.48</speed></extensions>
      </trkpt>
      <trkpt lat="51.920021000" lon="7.572635000">
        <ele>63.0</ele>
        <time>2017-04-29T09:33:56</time>
        <extensions><speed>1.47</speed></extensions>
      </trkpt>
      <trkpt lat="51.920036000" lon="7.572644000">
        <ele>62.9</ele>
        <time>2017-04-29T09:33:57</time>
        <extensions><speed>1.37</speed></extensions>
      </trkpt>
      <trkpt lat="51.920044000" lon="7.572652000">
        <ele>62.8</ele>
        <time>2017-04-29T09:33:58</time>
        <extensions><speed>1.33</speed></extensions>
      </trkpt>
      <trkpt lat="51.920059000" lon="7.572656000">
        <ele>62.7</ele>
        <time>2017-04-29T09:33:59</time>
        <extensions><speed>1.30</speed></extensions>
      </trkpt>
      <trkpt lat="51.920071000" lon="7.572663000">
        <ele>62.6</ele>
        <time>2017-04-29T09:34:00</time>
        <extensions><speed>1.33</speed></extensions>
      </trkpt>
      <trkpt lat="51.920082000" lon="7.572673000">
        <ele>62.6</ele>
        <time>2017-04-29T09:34:01</time>
        <extensions><speed>1.33</speed></extensions>
      </trkpt>
      <trkpt lat="51.920097000" lon="7.572682000">
        <ele>62.5</ele>
        <time>2017-04-29T09:34:02</time>
        <extensions><speed>1.33</speed></extensions>
      </trkpt>
      <trkpt lat="51.920109000" lon="7.572691000">
        <ele>62.5</ele>
        <time>2017-04-29T09:34:03</time>
        <extensions><speed>1.37</speed></extensions>
      </trkpt>
      <trkpt lat="51.920120000" lon="7.572700000">
        <ele>62.5</ele>
        <time>2017-04-29T09:34:04</time>
        <extensions><speed>1.37</speed></extensions>
      </trkpt>
      <trkpt lat="51.920132000" lon="7.572710000">
        <ele>62.5</ele>
        <time>2017-04-29T09:34:05</time>
        <extensions><speed>1.29</speed></extensions>
      </trkpt>
      <trkpt lat="51.920147000" lon="7.572719000">
        <ele>62.5</ele>
        <time>2017-04-29T09:34:06</time>
        <extensions><speed>1.37</speed></extensions>
      </trkpt>
      <trkpt lat="51.920158000" lon="7.572726000">
        <ele>62.4</ele>
        <time>2017-04-29T09:34:07</time>
        <extensions><speed>1.32</speed></extensions>
      </trkpt>
      <trkpt lat="51.920170000" lon="7.572735000">
        <ele>62.4</ele>
        <time>2017-04-29T09:34:08</time>
        <extensions><speed>1.29</speed></extensions>
      </trkpt>
      <trkpt lat="51.920185000" lon="7.572742000">
        <ele>62.4</ele>
        <time>2017-04-29T09:34:09</time>
        <extensions><speed>1.30</speed></extensions>
      </trkpt>
      <trkpt lat="51.920200000" lon="7.572749000">
        <ele>62.4</ele>
        <time>2017-04-29T09:34:10</time>
        <extensions><speed>1.38</speed></extensions>
      </trkpt>
      <trkpt lat="51.920208000" lon="7.572755000">
        <ele>62.4</ele>
        <time>2017-04-29T09:34:11</time>
        <extensions><speed>1.37</speed></extensions>
      </trkpt>
      <trkpt lat="51.920223000" lon="7.572763000">
        <ele>62.3</ele>
        <time>2017-04-29T09:34:12</time>
        <extensions><speed>1.37</speed></extensions>
      </trkpt>
      <trkpt lat="51.920235000" lon="7.572772000">
        <ele>62.3</ele>
        <time>2017-04-29T09:34:13</time>
        <extensions><speed>1.35</speed></extensions>
      </trkpt>
      <trkpt lat="51.920246000" lon="7.572782000">
        <ele>62.3</ele>
        <time>2017-04-29T09:34:14</time>
        <extensions><speed>1.35</speed></extensions>
      </trkpt>
      <trkpt lat="51.920258000" lon="7.572791000">
        <ele>62.3</ele>
        <time>2017-04-29T09:34:15</time>
        <extensions><speed>1.32</speed></extensions>
      </trkpt>
      <trkpt lat="51.920269000" lon="7.572800000">
        <ele>62.3</ele>
        <time>2017-04-29T09:34:16</time>
        <extensions><speed>1.32</speed></extensions>
      </trkpt>
      <trkpt lat="51.920284000" lon="7.572807000">
        <ele>62.3</ele>
        <time>2017-04-29T09:34:17</time>
        <extensions><speed>1.36</speed></extensions>
      </trkpt>
      <trkpt lat="51.920300000" lon="7.572815000">
        <ele>62.2</ele>
        <time>2017-04-29T09:34:18</time>
        <extensions><speed>1.38</speed></extensions>
      </trkpt>
      <trkpt lat="51.920311000" lon="7.572824000">
        <ele>62.2</ele>
        <time>2017-04-29T09:34:19</time>
        <extensions><speed>1.39</speed></extensions>
      </trkpt>
      <trkpt lat="51.920322000" lon="7.572833000">
        <ele>62.2</ele>
        <time>2017-04-29T09:34:20</time>
        <extensions><speed>1.39</speed></extensions>
      </trkpt>
      <trkpt lat="51.920334000" lon="7.572840000">
        <ele>62.2</ele>
        <time>2017-04-29T09:34:21</time>
        <extensions><speed>1.39</speed></extensions>
      </trkpt>
      <trkpt lat="51.920349000" lon="7.572844000">
        <ele>62.2</ele>
        <time>2017-04-29T09:34:22</time>
        <extensions><speed>1.36</speed></extensions>
      </trkpt>
      <trkpt lat="51.920364000" lon="7.572848000">
        <ele>62.2</ele>
        <time>2017-04-29T09:34:23</time>
        <extensions><speed>1.35</speed></extensions>
      </trkpt>
      <trkpt lat="51.920376000" lon="7.572855000">
        <ele>62.2</ele>
        <time>2017-04-29T09:34:24</time>
        <extensions><speed>1.36</speed></extensions>
      </trkpt>
      <trkpt lat="51.920391000" lon="7.572863000">
        <ele>62.2</ele>
        <time>2017-04-29T09:34:25</time>
        <extensions><speed>1.39</speed></extensions>
      </trkpt>
      <trkpt lat="51.920399000" lon="7.572873000">
        <ele>62.1</ele>
        <time>2017-04-29T09:34:26</time>
        <extensions><speed>1.39</speed></extensions>
      </trkpt>
      <trkpt lat="51.920414000" lon="7.572882000">
        <ele>62.1</ele>
        <time>2017-04-29T09:34:27</time>
        <extensions><speed>1.41</speed></extensions>
      </trkpt>
      <trkpt lat="51.920425000" lon="7.572888000">
        <ele>62.1</ele>
        <time>2017-04-29T09:34:28</time>
        <extensions><speed>1.41</speed></extensions>
      </trkpt>
      <trkpt lat="51.920437000" lon="7.572896000">
        <ele>62.1</ele>
        <time>2017-04-29T09:34:29</time>
        <extensions><speed>1.39</speed></extensions>
      </trkpt>
      <trkpt lat="51.920452000" lon="7.572903000">
        <ele>62.1</ele>
        <time>2017-04-29T09:34:30</time>
        <extensions><speed>1.39</speed></extensions>
      </trkpt>
      <trkpt lat="51.920464000" lon="7.572912000">
        <ele>62.1</ele>
        <time>2017-04-29T09:34:31</time>
        <extensions><speed>1.41</speed></extensions>
      </trkpt>
      <trkpt lat="51.920475000" lon="7.572920000">
        <ele>62.1</ele>
        <time>2017-04-29T09:34:32</time>
        <extensions><speed>1.40</speed></extensions>
      </trkpt>
      <trkpt lat="51.920490000" lon="7.572929000">
        <ele>62.1</ele>
        <time>2017-04-29T09:34:33</time>
        <extensions><speed>1.39</speed></extensions>
      </trkpt>
      <trkpt lat="51.920498000" lon="7.572938000">
        <ele>62.1</ele>
        <time>2017-04-29T09:34:34</time>
        <extensions><speed>1.40</speed></extensions>
      </trkpt>
      <trkpt lat="51.920513000" lon="7.572948000">
        <ele>62.1</ele>
        <time>2017-04-29T09:34:35</time>
        <extensions><speed>1.35</speed></extensions>
      </trkpt>
      <trkpt lat="51.920525000" lon="7.572955000">
        <ele>62.1</ele>
        <time>2017-04-29T09:34:36</time>
        <extensions><speed>1.35</speed></extensions>
      </trkpt>
      <trkpt lat="51.920536000" lon="7.572966000">
        <ele>62.0</ele>
        <time>2017-04-29T09:34:37</time>
        <extensions><speed>1.34</speed></extensions>
      </trkpt>
      <trkpt lat="51.920547000" lon="7.572975000">
        <ele>62.0</ele>
        <time>2017-04-29T09:34:38</time>
        <extensions><speed>1.38</speed></extensions>
      </trkpt>
      <trkpt lat="51.920559000" lon="7.572987000">
        <ele>62.0</ele>
        <time>2017-04-29T09:34:39</time>
        <extensions><speed>1.40</speed></extensions>
      </trkpt>
      <trkpt lat="51.920567000" lon="7.572995000">
        <ele>62.0</ele>
        <time>2017-04-29T09:34:40</time>
        <extensions><speed>1.40</speed></extensions>
      </trkpt>
      <trkpt lat="51.920574000" lon="7.572999000">
        <ele>62.0</ele>
        <time>2017-04-29T09:34:41</time>
      </trkpt>
      <trkpt lat="51.920593000" lon="7.573007000">
        <ele>62.0</ele>
        <time>2017-04-29T09:34:43</time>
        <extensions><speed>1.37</speed></extensions>
      </trkpt>
      <trkpt lat="51.920601000" lon="7.573017000">
        <ele>62.0</ele>
        <time>2017-04-29T09:34:44</time>
        <extensions><speed>1.39</speed></extensions>
      </trkpt>
      <trkpt lat="51.920620000" lon="7.573022000">
        <ele>62.0</ele>
        <time>2017-04-29T09:34:45</time>
        <extensions><speed>1.44</speed></extensions>
      </trkpt>
      <trkpt lat="51.920628000" lon="7.573030000">
        <ele>62.0</ele>
        <time>2017-04-29T09:34:46</time>
        <extensions><speed>1.44</speed></extensions>
      </trkpt>
      <trkpt lat="51.920643000" lon="7.573036000">
        <ele>62.0</ele>
        <time>2017-04-29T09:34:47</time>
        <extensions><speed>1.43</speed></extensions>
      </trkpt>
      <trkpt lat="51.920658000" lon="7.573041000">
        <ele>62.0</ele>
        <time>2017-04-29T09:34:48</time>
        <extensions><speed>1.40</speed></extensions>
      </trkpt>
      <trkpt lat="51.920666000" lon="7.573047000">
        <ele>62.0</ele>
        <time>2017-04-29T09:34:49</time>
        <extensions><speed>1.37</speed></extensions>
      </trkpt>
      <trkpt lat="51.920681000" lon="7.573053000">
        <ele>62.0</ele>
        <time>2017-04-29T09:34:50</time>
        <extensions><speed>1.38</speed></extensions>
      </trkpt>
      <trkpt lat="51.920692000" lon="7.573062000">
        <ele>62.0</ele>
        <time>2017-04-29T09:34:51</time>
        <extensions><speed>1.41</speed></extensions>
      </trkpt>
      <trkpt lat="51.920708000" lon="7.573069000">
        <ele>62.0</ele>
        <time>2017-04-29T09:34:52</time>
        <extensions><speed>1.40</speed></extensions>
      </trkpt>
      <trkpt lat="51.920723000" lon="7.573076000">
        <ele>62.0</ele>
        <time>2017-04-29T09:34:53</time>
        <extensions><speed>1.47</speed></extensions>
      </trkpt>
      <trkpt lat="51.920734000" lon="7.573087000">
        <ele>62.0</ele>
        <time>2017-04-29T09:34:54</time>
        <extensions><speed>1.47</speed></extensions>
      </trkpt>
      <trkpt lat="51.920746000" lon="7.573099000">
        <ele>62.0</ele>
        <time>2017-04-29T09:34:55</time>
        <extensions><speed>1.45</speed></extensions>
      </trkpt>
      <trkpt lat="51.920757000" lon="7.573106000">
        <ele>62.0</ele>
        <time>2017-04-29T09:34:56</time>
        <extensions><speed>1.48</speed></extensions>
      </trkpt>
      <trkpt lat="51.920773000" lon="7.573116000">
        <ele>62.0</ele>
        <time>2017-04-29T09:34:57</time>
        <extensions><speed>1.51</speed></extensions>
      </trkpt>
      <trkpt lat="51.920788000" lon="7.573125000">
        <ele>62.0</ele>
        <time>2017-04-29T09:34:58</time>
        <extensions><speed>1.50</speed></extensions>
      </trkpt>
      <trkpt lat="51.920799000" lon="7.573133000">
        <ele>62.0</ele>
        <time>2017-04-29T09:34:59</time>
        <extensions><speed>1.51</speed></extensions>
      </trkpt>
      <trkpt lat="51.920815000" lon="7.573139000">
        <ele>62.1</ele>
        <time>2017-04-29T09:35:00</time>
        <extensions><speed>1.50</speed></extensions>
      </trkpt>
      <trkpt lat="51.920822000" lon="7.573146000">
        <ele>62.1</ele>
        <time>2017-04-29T09:35:01</time>
        <extensions><speed>1.46</speed></extensions>
      </trkpt>
      <trkpt lat="51.920830000" lon="7.573157000">
        <ele>62.1</ele>
        <time>2017-04-29T09:35:02</time>
        <extensions><speed>1.41</speed></extensions>
      </trkpt>
      <trkpt lat="51.920845000" lon="7.573164000">
        <ele>62.1</ele>
        <time>2017-04-29T09:35:03</time>
        <extensions><speed>1.41</speed></extensions>
      </trkpt>
      <trkpt lat="51.920856000" lon="7.573170000">
        <ele>62.1</ele>
        <time>2017-04-29T09:35:04</time>
        <extensions><speed>1.39</speed></extensions>
      </trkpt>
      <trkpt lat="51.920872000" lon="7.573178000">
        <ele>62.2</ele>
        <time>2017-04-29T09:35:05</time>
        <extensions><speed>1.36</speed></extensions>
      </trkpt>
      <trkpt lat="51.920883000" lon="7.573185000">
        <ele>62.2</ele>
        <time>2017-04-29T09:35:06</time>
        <extensions><speed>1.37</speed></extensions>
      </trkpt>
      <trkpt lat="51.920895000" lon="7.573194000">
        <ele>62.2</ele>
        <time>2017-04-29T09:35:07</time>
        <extensions><speed>1.48</speed></extensions>
      </trkpt>
      <trkpt lat="51.920910000" lon="7.573204000">
        <ele>62.2</ele>
        <time>2017-04-29T09:35:08</time>
        <extensions><speed>1.45</speed></extensions>
      </trkpt>
      <trkpt lat="51.920914000" lon="7.573207000">
        <ele>62.2</ele>
        <time>2017-04-29T09:35:09</time>
      </trkpt>
      <trkpt lat="51.920921000" lon="7.573211000">
        <ele>62.3</ele>
        <time>2017-04-29T09:35:11</time>
        <extensions><speed>1.21</speed></extensions>
      </trkpt>
      <trkpt lat="51.920933000" lon="7.573220000">
        <ele>62.3</ele>
        <time>2017-04-29T09:35:12</time>
        <extensions><speed>1.14</speed></extensions>
      </trkpt>
      <trkpt lat="51.920948000" lon="7.573228000">
        <ele>62.3</ele>
        <time>2017-04-29T09:35:13</time>
        <extensions><speed>1.12</speed></extensions>
      </trkpt>
      <trkpt lat="51.920956000" lon="7.573237000">
        <ele>62.3</ele>
        <time>2017-04-29T09:35:14</time>
        <extensions><speed>1.25</speed></extensions>
      </trkpt>
      <trkpt lat="51.920967000" lon="7.573244000">
        <ele>62.3</ele>
        <time>2017-04-29T09:35:15</time>
        <extensions><speed>1.33</speed></extensions>
      </trkpt>
      <trkpt lat="51.920982000" lon="7.573248000">
        <ele>62.3</ele>
        <time>2017-04-29T09:35:16</time>
        <extensions><speed>1.36</speed></extensions>
      </trkpt>
      <trkpt lat="51.920994000" lon="7.573253000">
        <ele>62.3</ele>
        <time>2017-04-29T09:35:17</time>
        <extensions><speed>1.36</speed></extensions>
      </trkpt>
      <trkpt lat="51.921009000" lon="7.573258000">
        <ele>62.3</ele>
        <time>2017-04-29T09:35:18</time>
        <extensions><speed>1.36</speed></extensions>
      </trkpt>
      <trkpt lat="51.921017000" lon="7.573263000">
        <ele>62.4</ele>
        <time>2017-04-29T09:35:19</time>
        <extensions><speed>1.39</speed></extensions>
      </trkpt>
      <trkpt lat="51.921028000" lon="7.573274000">
        <ele>62.4</ele>
        <time>2017-04-29T09:35:20</time>
        <extensions><speed>1.39</speed></extensions>
      </trkpt>
      <trkpt lat="51.921043000" lon="7.573281000">
        <ele>62.4</ele>
        <time>2017-04-29T09:35:21</time>
        <extensions><speed>1.36</speed></extensions>
      </trkpt>
      <trkpt lat="51.921051000" lon="7.573292000">
        <ele>62.4</ele>
        <time>2017-04-29T09:35:22</time>
        <extensions><speed>1.35</speed></extensions>
      </trkpt>
      <trkpt lat="51.921062000" lon="7.573304000">
        <ele>62.4</ele>
        <time>2017-04-29T09:35:23</time>
        <extensions><speed>1.39</speed></extensions>
      </trkpt>
      <trkpt lat="51.921074000" lon="7.573316000">
        <ele>62.5</ele>
        <time>2017-04-29T09:35:24</time>
        <extensions><speed>1.33</speed></extensions>
      </trkpt>
      <trkpt lat="51.921085000" lon="7.573327000">
        <ele>62.5</ele>
        <time>2017-04-29T09:35:25</time>
        <extensions><speed>1.38</speed></extensions>
      </trkpt>
      <trkpt lat="51.921097000" lon="7.573337000">
        <ele>62.5</ele>
        <time>2017-04-29T09:35:26</time>
        <extensions><speed>1.43</speed></extensions>
      </trkpt>
      <trkpt lat="51.921108000" lon="7.573345000">
        <ele>62.5</ele>
        <time>2017-04-29T09:35:27</time>
        <extensions><speed>1.48</speed></extensions>
      </trkpt>
      <trkpt lat="51.921120000" lon="7.573355000">
        <ele>62.5</ele>
        <time>2017-04-29T09:35:28</time>
        <extensions><speed>1.51</speed></extensions>
      </trkpt>
      <trkpt lat="51.921135000" lon="7.573365000">
        <ele>62.5</ele>
        <time>2017-04-29T09:35:29</time>
        <extensions><speed>1.51</speed></extensions>
      </trkpt>
      <trkpt lat="51.921146000" lon="7.573375000">
        <ele>62.6</ele>
        <time>2017-04-29T09:35:30</time>
        <extensions><speed>1.49</speed></extensions>
      </trkpt>
      <trkpt lat="51.921162000" lon="7.573382000">
        <ele>62.6</ele>
        <time>2017-04-29T09:35:31</time>
        <extensions><speed>1.43</speed></extensions>
      </trkpt>
      <trkpt lat="51.921177000" lon="7.573388000">
        <ele>62.6</ele>
        <time>2017-04-29T09:35:32</time>
        <extensions><speed>1.48</speed></extensions>
      </trkpt>
      <trkpt lat="51.921188000" lon="7.573393000">
        <ele>62.6</ele>
        <time>2017-04-29T09:35:33</time>
        <extensions><speed>1.40</speed></extensions>
      </trkpt>
      <trkpt lat="51.921204000" lon="7.573397000">
        <ele>62.6</ele>
        <time>2017-04-29T09:35:34</time>
        <extensions><speed>1.34</speed></extensions>
      </trkpt>
      <trkpt lat="51.921215000" lon="7.573398000">
        <ele>62.6</ele>
        <time>2017-04-29T09:35:35</time>
        <extensions><speed>1.30</speed></extensions>
      </trkpt>
      <trkpt lat="51.921230000" lon="7.573409000">
        <ele>62.7</ele>
        <time>2017-04-29T09:35:36</time>
        <extensions><speed>1.37</speed></extensions>
      </trkpt>
      <trkpt lat="51.921246000" lon="7.573415000">
        <ele>62.7</ele>
        <time>2017-04-29T09:35:37</time>
        <extensions><speed>1.23</speed></extensions>
      </trkpt>
      <trkpt lat="51.921257000" lon="7.573420000">
        <ele>62.7</ele>
        <time>2017-04-29T09:35:38</time>
        <extensions><speed>1.33</speed></extensions>
      </trkpt>
      <trkpt lat="51.921276000" lon="7.573428000">
        <ele>62.7</ele>
        <time>2017-04-29T09:35:39</time>
        <extensions><speed>1.49</speed></extensions>
      </trkpt>
      <trkpt lat="51.921291000" lon="7.573431000">
        <ele>62.7</ele>
        <time>2017-04-29T09:35:40</time>
        <extensions><speed>1.48</speed></extensions>
      </trkpt>
      <trkpt lat="51.921303000" lon="7.573438000">
        <ele>62.8</ele>
        <time>2017-04-29T09:35:41</time>
        <extensions><speed>1.39</speed></extensions>
      </trkpt>
      <trkpt lat="51.921310000" lon="7.573447000">
        <ele>62.8</ele>
        <time>2017-04-29T09:35:42</time>
        <extensions><speed>1.42</speed></extensions>
      </trkpt>
      <trkpt lat="51.921322000" lon="7.573452000">
        <ele>62.8</ele>
        <time>2017-04-29T09:35:43</time>
      </trkpt>
      <trkpt lat="51.921337000" lon="7.573458000">
        <ele>62.8</ele>
        <time>2017-04-29T09:35:45</time>
        <extensions><speed>1.32</speed></extensions>
      </trkpt>
      <trkpt lat="51.921352000" lon="7.573465000">
        <ele>62.9</ele>
        <time>2017-04-29T09:35:46</time>
        <extensions><speed>1.36</speed></extensions>
      </trkpt>
      <trkpt lat="51.921368000" lon="7.573472000">
        <ele>62.9</ele>
        <time>2017-04-29T09:35:47</time>
        <extensions><speed>1.42</speed></extensions>
      </trkpt>
      <trkpt lat="51.921379000" lon="7.573475000">
        <ele>62.9</ele>
        <time>2017-04-29T09:35:48</time>
        <extensions><speed>1.43</speed></extensions>
      </trkpt>
      <trkpt lat="51.921398000" lon="7.573477000">
        <ele>62.9</ele>
        <time>2017-04-29T09:35:49</time>
        <extensions><speed>1.38</speed></extensions>
      </trkpt>
      <trkpt lat="51.921413000" lon="7.573480000">
        <ele>62.9</ele>
        <time>2017-04-29T09:35:50</time>
        <extensions><speed>1.47</speed></extensions>
      </trkpt>
      <trkpt lat="51.921429000" lon="7.573483000">
        <ele>62.9</ele>
        <time>2017-04-29T09:35:51</time>
        <extensions><speed>1.55</speed></extensions>
      </trkpt>
      <trkpt lat="51.921440000" lon="7.573488000">
        <ele>63.0</ele>
        <time>2017-04-29T09:35:52</time>
        <extensions><speed>1.52</speed></extensions>
      </trkpt>
      <trkpt lat="51.921455000" lon="7.573495000">
        <ele>63.0</ele>
        <time>2017-04-29T09:35:53</time>
        <extensions><speed>1.52</speed></extensions>
      </trkpt>
      <trkpt lat="51.921471000" lon="7.573502000">
        <ele>63.0</ele>
        <time>2017-04-29T09:35:54</time>
        <extensions><speed>1.53</speed></extensions>
      </trkpt>
      <trkpt lat="51.921482000" lon="7.573507000">
        <ele>63.0</ele>
        <time>2017-04-29T09:35:55</time>
        <extensions><speed>1.49</speed></extensions>
      </trkpt>
      <trkpt lat="51.921501000" lon="7.573514000">
        <ele>63.0</ele>
        <time>2017-04-29T09:35:56</time>
        <extensions><speed>1.49</speed></extensions>
      </trkpt>
      <trkpt lat="51.921509000" lon="7.573524000">
        <ele>63.0</ele>
        <time>2017-04-29T09:35:57</time>
        <extensions><speed>1.46</speed></extensions>
      </trkpt>
      <trkpt lat="51.921520000" lon="7.573535000">
        <ele>63.0</ele>
        <time>2017-04-29T09:35:58</time>
        <extensions><speed>1.48</speed></extensions>
      </trkpt>
      <trkpt lat="51.921535000" lon="7.573542000">
        <ele>63.0</ele>
        <time>2017-04-29T09:35:59</time>
        <extensions><speed>1.46</speed></extensions>
      </trkpt>
      <trkpt lat="51.921547000" lon="7.573547000">
        <ele>63.0</ele>
        <time>2017-04-29T09:36:00</time>
        <extensions><speed>1.47</speed></extensions>
      </trkpt>
      <trkpt lat="51.921566000" lon="7.573552000">
        <ele>63.0</ele>
        <time>2017-04-29T09:36:01</time>
        <extensions><speed>1.46</speed></extensions>
      </trkpt>
      <trkpt lat="51.921570000" lon="7.573550000">
        <ele>63.0</ele>
        <time>2017-04-29T09:36:02</time>
      </trkpt>
      <trkpt lat="51.921577000" lon="7.573552000">
        <ele>63.0</ele>
        <time>2017-04-29T09:36:04</time>
        <extensions><speed>0.97</speed></extensions>
      </trkpt>
      <trkpt lat="51.921585000" lon="7.573554000">
        <ele>63.0</ele>
        <time>2017-04-29T09:36:05</time>
        <extensions><speed>0.79</speed></extensions>
      </trkpt>
      <trkpt lat="51.921597000" lon="7.573557000">
        <ele>63.0</ele>
        <time>2017-04-29T09:36:06</time>
      </trkpt>
      <trkpt lat="51.921612000" lon="7.573560000">
        <ele>63.0</ele>
        <time>2017-04-29T09:36:08</time>
        <extensions><speed>1.10</speed></extensions>
      </trkpt>
      <trkpt lat="51.921627000" lon="7.573565000">
        <ele>63.0</ele>
        <time>2017-04-29T09:36:09</time>
        <extensions><speed>1.26</speed></extensions>
      </trkpt>
      <trkpt lat="51.921638000" lon="7.573566000">
        <ele>63.0</ele>
        <time>2017-04-29T09:36:10</time>
        <extensions><speed>1.40</speed></extensions>
      </trkpt>
      <trkpt lat="51.921646000" lon="7.573568000">
        <ele>63.0</ele>
        <time>2017-04-29T09:36:11</time>
      </trkpt>
      <trkpt lat="51.921658000" lon="7.573568000">
        <ele>63.0</ele>
        <time>2017-04-29T09:36:13</time>
        <extensions><speed>1.26</speed></extensions>
      </trkpt>
      <trkpt lat="51.921673000" lon="7.573573000">
        <ele>63.0</ele>
        <time>2017-04-29T09:36:14</time>
        <extensions><speed>1.26</speed></extensions>
      </trkpt>
      <trkpt lat="51.921688000" lon="7.573578000">
        <ele>63.0</ele>
        <time>2017-04-29T09:36:15</time>
        <extensions><speed>1.26</speed></extensions>
      </trkpt>
      <trkpt lat="51.921703000" lon="7.573582000">
        <ele>63.0</ele>
        <time>2017-04-29T09:36:16</time>
        <extensions><speed>1.39</speed></extensions>
      </trkpt>
      <trkpt lat="51.921719000" lon="7.573584000">
        <ele>63.0</ele>
        <time>2017-04-29T09:36:17</time>
        <extensions><speed>1.39</speed></extensions>
      </trkpt>
      <trkpt lat="51.921734000" lon="7.573585000">
        <ele>63.0</ele>
        <time>2017-04-29T09:36:18</time>
        <extensions><speed>1.45</speed></extensions>
      </trkpt>
      <trkpt lat="51.921749000" lon="7.573589000">
        <ele>63.0</ele>
        <time>2017-04-29T09:36:19</time>
        <extensions><speed>1.50</speed></extensions>
      </trkpt>
      <trkpt lat="51.921764000" lon="7.573589000">
        <ele>63.0</ele>
        <time>2017-04-29T09:36:20</time>
        <extensions><speed>1.46</speed></extensions>
      </trkpt>
      <trkpt lat="51.921780000" lon="7.573585000">
        <ele>63.0</ele>
        <time>2017-04-29T09:36:21</time>
        <extensions><speed>1.39</speed></extensions>
      </trkpt>
      <trkpt lat="51.921795000" lon="7.573582000">
        <ele>63.0</ele>
        <time>2017-04-29T09:36:22</time>
        <extensions><speed>1.45</speed></extensions>
      </trkpt>
      <trkpt lat="51.921806000" lon="7.573580000">
        <ele>63.0</ele>
        <time>2017-04-29T09:36:23</time>
        <extensions><speed>1.40</speed></extensions>
      </trkpt>
      <trkpt lat="51.921822000" lon="7.573584000">
        <ele>63.0</ele>
        <time>2017-04-29T09:36:24</time>
        <extensions><speed>1.36</speed></extensions>
      </trkpt>
      <trkpt lat="51.921837000" lon="7.573585000">
        <ele>63.0</ele>
        <time>2017-04-29T09:36:25</time>
        <extensions><speed>1.39</speed></extensions>
      </trkpt>
      <trkpt lat="51.921848000" lon="7.573584000">
        <ele>63.0</ele>
        <time>2017-04-29T09:36:26</time>
        <extensions><speed>1.39</speed></extensions>
      </trkpt>
      <trkpt lat="51.921864000" lon="7.573582000">
        <ele>63.0</ele>
        <time>2017-04-29T09:36:27</time>
        <extensions><speed>1.39</speed></extensions>
      </trkpt>
      <trkpt lat="51.921879000" lon="7.573578000">
        <ele>63.0</ele>
        <time>2017-04-29T09:36:28</time>
        <extensions><speed>1.42</speed></extensions>
      </trkpt>
      <trkpt lat="51.921894000" lon="7.573575000">
        <ele>63.0</ele>
        <time>2017-04-29T09:36:29</time>
        <extensions><speed>1.43</speed></extensions>
      </trkpt>
      <trkpt lat="51.921909000" lon="7.573575000">
        <ele>63.0</ele>
        <time>2017-04-29T09:36:30</time>
        <extensions><speed>1.40</speed></extensions>
      </trkpt>
      <trkpt lat="51.921925000" lon="7.573577000">
        <ele>63.0</ele>
        <time>2017-04-29T09:36:31</time>
        <extensions><speed>1.41</speed></extensions>
      </trkpt>
      <trkpt lat="51.921936000" lon="7.573575000">
        <ele>63.0</ele>
        <time>2017-04-29T09:36:32</time>
        <extensions><speed>1.41</speed></extensions>
      </trkpt>
      <trkpt lat="51.921955000" lon="7.573570000">
        <ele>63.0</ele>
        <time>2017-04-29T09:36:33</time>
        <extensions><speed>1.43</speed></extensions>
      </trkpt>
      <trkpt lat="51.921967000" lon="7.573568000">
        <ele>63.0</ele>
        <time>2017-04-29T09:36:34</time>
        <extensions><speed>1.44</speed></extensions>
      </trkpt>
      <trkpt lat="51.921982000" lon="7.573568000">
        <ele>63.0</ele>
        <time>2017-04-29T09:36:35</time>
        <extensions><speed>1.45</speed></extensions>
      </trkpt>
      <trkpt lat="51.921993000" lon="7.573566000">
        <ele>63.0</ele>
        <time>2017-04-29T09:36:36</time>
        <extensions><speed>1.45</speed></extensions>
      </trkpt>
      <trkpt lat="51.922009000" lon="7.573563000">
        <ele>63.0</ele>
        <time>2017-04-29T09:36:37</time>
        <extensions><speed>1.44</speed></extensions>
      </trkpt>
      <trkpt lat="51.922024000" lon="7.573557000">
        <ele>63.0</ele>
        <time>2017-04-29T09:36:38</time>
        <extensions><speed>1.42</speed></extensions>
      </trkpt>
      <trkpt lat="51.922035000" lon="7.573552000">
        <ele>63.0</ele>
        <time>2017-04-29T09:36:39</time>
        <extensions><speed>1.42</speed></extensions>
      </trkpt>
      <trkpt lat="51.922050000" lon="7.573545000">
        <ele>63.0</ele>
        <time>2017-04-29T09:36:40</time>
        <extensions><speed>1.37</speed></extensions>
      </trkpt>
      <trkpt lat="51.922062000" lon="7.573536000">
        <ele>63.0</ele>
        <time>2017-04-29T09:36:41</time>
        <extensions><speed>1.32</speed></extensions>
      </trkpt>
      <trkpt lat="51.922073000" lon="7.573530000">
        <ele>63.0</ele>
        <time>2017-04-29T09:36:42</time>
        <extensions><speed>1.32</speed></extensions>
      </trkpt>
      <trkpt lat="51.922089000" lon="7.573524000">
        <ele>63.0</ele>
        <time>2017-04-29T09:36:43</time>
        <extensions><speed>1.36</speed></extensions>
      </trkpt>
      <trkpt lat="51.922100000" lon="7.573526000">
        <ele>63.0</ele>
        <time>2017-04-29T09:36:44</time>
        <extensions><speed>1.24</speed></extensions>
      </trkpt>
      <trkpt lat="51.922115000" lon="7.573524000">
        <ele>63.0</ele>
        <time>2017-04-29T09:36:45</time>
        <extensions><speed>1.24</speed></extensions>
      </trkpt>
      <trkpt lat="51.922127000" lon="7.573520000">
        <ele>63.0</ele>
        <time>2017-04-29T09:36:46</time>
        <extensions><speed>1.36</speed></extensions>
      </trkpt>
      <trkpt lat="51.922142000" lon="7.573514000">
        <ele>63.0</ele>
        <time>2017-04-29T09:36:47</time>
        <extensions><speed>1.38</speed></extensions>
      </trkpt>
      <trkpt lat="51.922157000" lon="7.573508000">
        <ele>63.0</ele>
        <time>2017-04-29T09:36:48</time>
        <extensions><speed>1.43</speed></extensions>
      </trkpt>
      <trkpt lat="51.922176000" lon="7.573505000">
        <ele>63.0</ele>
        <time>2017-04-29T09:36:49</time>
        <extensions><speed>1.52</speed></extensions>
      </trkpt>
      <trkpt lat="51.922188000" lon="7.573502000">
        <ele>63.0</ele>
        <time>2017-04-29T09:36:50</time>
        <extensions><speed>1.54</speed></extensions>
      </trkpt>
      <trkpt lat="51.922203000" lon="7.573500000">
        <ele>63.0</ele>
        <time>2017-04-29T09:36:51</time>
        <extensions><speed>1.52</speed></extensions>
      </trkpt>
      <trkpt lat="51.922218000" lon="7.573502000">
        <ele>63.0</ele>
        <time>2017-04-29T09:36:52</time>
        <extensions><speed>1.49</speed></extensions>
      </trkpt>
      <trkpt lat="51.922230000" lon="7.573505000">
        <ele>63.0</ele>
        <time>2017-04-29T09:36:53</time>
        <extensions><speed>1.46</speed></extensions>
      </trkpt>
      <trkpt lat="51.922245000" lon="7.573507000">
        <ele>63.0</ele>
        <time>2017-04-29T09:36:54</time>
        <extensions><speed>1.42</speed></extensions>
      </trkpt>
      <trkpt lat="51.922260000" lon="7.573505000">
        <ele>63.0</ele>
        <time>2017-04-29T09:36:55</time>
        <extensions><speed>1.42</speed></extensions>
      </trkpt>
      <trkpt lat="51.922276000" lon="7.573505000">
        <ele>63.0</ele>
        <time>2017-04-29T09:36:56</time>
        <extensions><speed>1.42</speed></extensions>
      </trkpt>
      <trkpt lat="51.922287000" lon="7.573503000">
        <ele>63.0</ele>
        <time>2017-04-29T09:36:57</time>
        <extensions><speed>1.35</speed></extensions>
      </trkpt>
      <trkpt lat="51.922298000" lon="7.573496000">
        <ele>63.0</ele>
        <time>2017-04-29T09:36:58</time>
        <extensions><speed>1.32</speed></extensions>
      </trkpt>
      <trkpt lat="51.922318000" lon="7.573493000">
        <ele>63.0</ele>
        <time>2017-04-29T09:36:59</time>
        <extensions><speed>1.36</speed></extensions>
      </trkpt>
      <trkpt lat="51.922329000" lon="7.573490000">
        <ele>63.0</ele>
        <time>2017-04-29T09:37:00</time>
        <extensions><speed>1.35</speed></extensions>
      </trkpt>
      <trkpt lat="51.922344000" lon="7.573483000">
        <ele>63.0</ele>
        <time>2017-04-29T09:37:01</time>
        <extensions><speed>1.35</speed></extensions>
      </trkpt>
      <trkpt lat="51.922352000" lon="7.573482000">
        <ele>63.0</ele>
        <time>2017-04-29T09:37:02</time>
        <extensions><speed>1.46</speed></extensions>
      </trkpt>
      <trkpt lat="51.922367000" lon="7.573482000">
        <ele>63.0</ele>
        <time>2017-04-29T09:37:03</time>
        <extensions><speed>1.43</speed></extensions>
      </trkpt>
      <trkpt lat="51.922382000" lon="7.573482000">
        <ele>63.0</ele>
        <time>2017-04-29T09:37:04</time>
        <extensions><speed>1.32</speed></extensions>
      </trkpt>
      <trkpt lat="51.922390000" lon="7.573482000">
        <ele>63.0</ele>
        <time>2017-04-29T09:37:05</time>
        <extensions><speed>1.21</speed></extensions>
      </trkpt>
      <trkpt lat="51.922401000" lon="7.573480000">
        <ele>63.0</ele>
        <time>2017-04-29T09:37:06</time>
        <extensions><speed>1.19</speed></extensions>
      </trkpt>
      <trkpt lat="51.922417000" lon="7.573480000">
        <ele>63.0</ele>
        <time>2017-04-29T09:37:07</time>
        <extensions><speed>1.19</speed></extensions>
      </trkpt>
      <trkpt lat="51.922432000" lon="7.573475000">
        <ele>63.0</ele>
        <time>2017-04-29T09:37:08</time>
        <extensions><speed>1.26</speed></extensions>
      </trkpt>
      <trkpt lat="51.922447000" lon="7.573470000">
        <ele>63.0</ele>
        <time>2017-04-29T09:37:09</time>
        <extensions><speed>1.34</speed></extensions>
      </trkpt>
      <trkpt lat="51.922459000" lon="7.573465000">
        <ele>63.0</ele>
        <time>2017-04-29T09:37:10</time>
        <extensions><speed>1.40</speed></extensions>
      </trkpt>
      <trkpt lat="51.922470000" lon="7.573456000">
        <ele>63.0</ele>
        <time>2017-04-29T09:37:11</time>
        <extensions><speed>1.40</speed></extensions>
      </trkpt>
      <trkpt lat="51.922482000" lon="7.573451000">
        <ele>63.0</ele>
        <time>2017-04-29T09:37:12</time>
        <extensions><speed>1.40</speed></extensions>
      </trkpt>
      <trkpt lat="51.922497000" lon="7.573442000">
        <ele>63.0</ele>
        <time>2017-04-29T09:37:13</time>
        <extensions><speed>1.40</speed></extensions>
      </trkpt>
      <trkpt lat="51.922508000" lon="7.573433000">
        <ele>63.0</ele>
        <time>2017-04-29T09:37:14</time>
        <extensions><speed>1.40</speed></extensions>
      </trkpt>
      <trkpt lat="51.922523000" lon="7.573430000">
        <ele>63.0</ele>
        <time>2017-04-29T09:37:15</time>
        <extensions><speed>1.39</speed></extensions>
      </trkpt>
      <trkpt lat="51.922539000" lon="7.573423000">
        <ele>63.0</ele>
        <time>2017-04-29T09:37:16</time>
        <extensions><speed>1.41</speed></extensions>
      </trkpt>
      <trkpt lat="51.922546000" lon="7.573418000">
        <ele>63.0</ele>
        <time>2017-04-29T09:37:17</time>
        <extensions><speed>1.38</speed></extensions>
      </trkpt>
      <trkpt lat="51.922558000" lon="7.573414000">
        <ele>63.0</ele>
        <time>2017-04-29T09:37:18</time>
        <extensions><speed>1.38</speed></extensions>
      </trkpt>
      <trkpt lat="51.922573000" lon="7.573409000">
        <ele>63.0</ele>
        <time>2017-04-29T09:37:19</time>
        <extensions><speed>1.44</speed></extensions>
      </trkpt>
      <trkpt lat="51.922585000" lon="7.573403000">
        <ele>63.0</ele>
        <time>2017-04-29T09:37:20</time>
        <extensions><speed>1.43</speed></extensions>
      </trkpt>
      <trkpt lat="51.922600000" lon="7.573397000">
        <ele>63.0</ele>
        <time>2017-04-29T09:37:21</time>
        <extensions><speed>1.39</speed></extensions>
      </trkpt>
      <trkpt lat="51.922611000" lon="7.573390000">
        <ele>63.0</ele>
        <time>2017-04-29T09:37:22</time>
        <extensions><speed>1.39</speed></extensions>
      </trkpt>
      <trkpt lat="51.922623000" lon="7.573383000">
        <ele>63.0</ele>
        <time>2017-04-29T09:37:23</time>
        <extensions><speed>1.26</speed></extensions>
      </trkpt>
      <trkpt lat="51.922634000" lon="7.573379000">
        <ele>63.0</ele>
        <time>2017-04-29T09:37:24</time>
        <extensions><speed>1.26</speed></extensions>
      </trkpt>
      <trkpt lat="51.922649000" lon="7.573372000">
        <ele>63.0</ele>
        <time>2017-04-29T09:37:25</time>
        <extensions><speed>1.35</speed></extensions>
      </trkpt>
      <trkpt lat="51.922665000" lon="7.573365000">
        <ele>63.0</ele>
        <time>2017-04-29T09:37:26</time>
        <extensions><speed>1.40</speed></extensions>
      </trkpt>
      <trkpt lat="51.922680000" lon="7.573358000">
        <ele>63.0</ele>
        <time>2017-04-29T09:37:27</time>
        <extensions><speed>1.57</speed></extensions>
      </trkpt>
      <trkpt lat="51.922691000" lon="7.573355000">
        <ele>63.0</ele>
        <time>2017-04-29T09:37:28</time>
        <extensions><speed>1.57</speed></extensions>
      </trkpt>
      <trkpt lat="51.922707000" lon="7.573353000">
        <ele>63.0</ele>
        <time>2017-04-29T09:37:29</time>
        <extensions><speed>1.46</speed></extensions>
      </trkpt>
      <trkpt lat="51.922714000" lon="7.573349000">
        <ele>63.0</ele>
        <time>2017-04-29T09:37:30</time>
        <extensions><speed>1.39</speed></extensions>
      </trkpt>
      <trkpt lat="51.922729000" lon="7.573345000">
        <ele>63.0</ele>
        <time>2017-04-29T09:37:31</time>
        <extensions><speed>1.37</speed></extensions>
      </trkpt>
      <trkpt lat="51.922745000" lon="7.573342000">
        <ele>63.0</ele>
        <time>2017-04-29T09:37:32</time>
        <extensions><speed>1.37</speed></extensions>
      </trkpt>
      <trkpt lat="51.922760000" lon="7.573342000">
        <ele>63.0</ele>
        <time>2017-04-29T09:37:33</time>
        <extensions><speed>1.35</speed></extensions>
      </trkpt>
      <trkpt lat="51.922771000" lon="7.573340000">
        <ele>63.0</ele>
        <time>2017-04-29T09:37:34</time>
        <extensions><speed>1.32</speed></extensions>
      </trkpt>
      <trkpt lat="51.922783000" lon="7.573335000">
        <ele>63.0</ele>
        <time>2017-04-29T09:37:35</time>
        <extensions><speed>1.33</speed></extensions>
      </trkpt>
      <trkpt lat="51.922794000" lon="7.573330000">
        <ele>63.0</ele>
        <time>2017-04-29T09:37:36</time>
        <extensions><speed>1.26</speed></extensions>
      </trkpt>
      <trkpt lat="51.922810000" lon="7.573323000">
        <ele>63.0</ele>
        <time>2017-04-29T09:37:37</time>
        <extensions><speed>1.25</speed></extensions>
      </trkpt>
      <trkpt lat="51.922821000" lon="7.573314000">
        <ele>63.0</ele>
        <time>2017-04-29T09:37:38</time>
        <extensions><speed>1.30</speed></extensions>
      </trkpt>
      <trkpt lat="51.922832000" lon="7.573305000">
        <ele>63.0</ele>
        <time>2017-04-29T09:37:39</time>
        <extensions><speed>1.33</speed></extensions>
      </trkpt>
      <trkpt lat="51.922844000" lon="7.573297000">
        <ele>63.0</ele>
        <time>2017-04-29T09:37:40</time>
        <extensions><speed>1.33</speed></extensions>
      </trkpt>
      <trkpt lat="51.922859000" lon="7.573288000">
        <ele>63.0</ele>
        <time>2017-04-29T09:37:41</time>
        <extensions><speed>1.38</speed></extensions>
      </trkpt>
      <trkpt lat="51.922871000" lon="7.573283000">
        <ele>63.0</ele>
        <time>2017-04-29T09:37:42</time>
        <extensions><speed>1.36</speed></extensions>
      </trkpt>
      <trkpt lat="51.922882000" lon="7.573279000">
        <ele>63.0</ele>
        <time>2017-04-29T09:37:43</time>
        <extensions><speed>1.34</speed></extensions>
      </trkpt>
      <trkpt lat="51.922897000" lon="7.573272000">
        <ele>63.0</ele>
        <time>2017-04-29T09:37:44</time>
        <extensions><speed>1.38</speed></extensions>
      </trkpt>
      <trkpt lat="51.922905000" lon="7.573267000">
        <ele>63.0</ele>
        <time>2017-04-29T09:37:45</time>
        <extensions><speed>1.34</speed></extensions>
      </trkpt>
      <trkpt lat="51.922920000" lon="7.573263000">
        <ele>63.0</ele>
        <time>2017-04-29T09:37:46</time>
        <extensions><speed>1.30</speed></extensions>
      </trkpt>
      <trkpt lat="51.922935000" lon="7.573255000">
        <ele>63.0</ele>
        <time>2017-04-29T09:37:47</time>
        <extensions><speed>1.29</speed></extensions>
      </trkpt>
      <trkpt lat="51.922947000" lon="7.573250000">
        <ele>63.0</ele>
        <time>2017-04-29T09:37:48</time>
        <extensions><speed>1.33</speed></extensions>
      </trkpt>
      <trkpt lat="51.922962000" lon="7.573246000">
        <ele>63.0</ele>
        <time>2017-04-29T09:37:49</time>
        <extensions><speed>1.27</speed></extensions>
      </trkpt>
      <trkpt lat="51.922970000" lon="7.573242000">
        <ele>63.0</ele>
        <time>2017-04-29T09:37:50</time>
        <extensions><speed>1.27</speed></extensions>
      </trkpt>
      <trkpt lat="51.922985000" lon="7.573235000">
        <ele>63.0</ele>
        <time>2017-04-29T09:37:51</time>
        <extensions><speed>1.26</speed></extensions>
      </trkpt>
      <trkpt lat="51.922997000" lon="7.573226000">
        <ele>63.0</ele>
        <time>2017-04-29T09:37:52</time>
        <extensions><speed>1.23</speed></extensions>
      </trkpt>
      <trkpt lat="51.923004000" lon="7.573218000">
        <ele>63.0</ele>
        <time>2017-04-29T09:37:53</time>
        <extensions><speed>1.20</speed></extensions>
      </trkpt>
      <trkpt lat="51.923016000" lon="7.573210000">
        <ele>63.0</ele>
        <time>2017-04-29T09:37:54</time>
        <extensions><speed>1.20</speed></extensions>
      </trkpt>
      <trkpt lat="51.923027000" lon="7.573205000">
        <ele>63.0</ele>
        <time>2017-04-29T09:37:55</time>
        <extensions><speed>1.23</speed></extensions>
      </trkpt>
      <trkpt lat="51.923038000" lon="7.573202000">
        <ele>63.0</ele>
        <time>2017-04-29T09:37:56</time>
        <extensions><speed>1.24</speed></extensions>
      </trkpt>
      <trkpt lat="51.923054000" lon="7.573198000">
        <ele>63.0</ele>
        <time>2017-04-29T09:37:57</time>
        <extensions><speed>1.31</speed></extensions>
      </trkpt>
      <trkpt lat="51.923069000" lon="7.573197000">
        <ele>63.0</ele>
        <time>2017-04-29T09:37:58</time>
        <extensions><speed>1.36</speed></extensions>
      </trkpt>
      <trkpt lat="51.923080000" lon="7.573197000">
        <ele>63.0</ele>
        <time>2017-04-29T09:37:59</time>
        <extensions><speed>1.39</speed></extensions>
      </trkpt>
      <trkpt lat="51.923100000" lon="7.573194000">
        <ele>63.0</ele>
        <time>2017-04-29T09:38:00</time>
        <extensions><speed>1.43</speed></extensions>
      </trkpt>
      <trkpt lat="51.923111000" lon="7.573190000">
        <ele>63.0</ele>
        <time>2017-04-29T09:38:01</time>
        <extensions><speed>1.45</speed></extensions>
      </trkpt>
      <trkpt lat="51.923126000" lon="7.573186000">
        <ele>63.0</ele>
        <time>2017-04-29T09:38:02</time>
        <extensions><speed>1.45</speed></extensions>
      </trkpt>
      <trkpt lat="51.923138000" lon="7.573180000">
        <ele>63.0</ele>
        <time>2017-04-29T09:38:03</time>
        <extensions><speed>1.43</speed></extensions>
      </trkpt>
      <trkpt lat="51.923153000" lon="7.573174000">
        <ele>63.0</ele>
        <time>2017-04-29T09:38:04</time>
        <extensions><speed>1.41</speed></extensions>
      </trkpt>
      <trkpt lat="51.923168000" lon="7.573174000">
        <ele>63.0</ele>
        <time>2017-04-29T09:38:05</time>
        <extensions><speed>1.41</speed></extensions>
      </trkpt>
      <trkpt lat="51.923180000" lon="7.573174000">
        <ele>63.0</ele>
        <time>2017-04-29T09:38:06</time>
        <extensions><speed>1.42</speed></extensions>
      </trkpt>
      <trkpt lat="51.923191000" lon="7.573174000">
        <ele>63.0</ele>
        <time>2017-04-29T09:38:07</time>
        <extensions><speed>1.44</speed></extensions>
      </trkpt>
      <trkpt lat="51.923203000" lon="7.573172000">
        <ele>63.0</ele>
        <time>2017-04-29T09:38:08</time>
        <extensions><speed>1.48</speed></extensions>
      </trkpt>
      <trkpt lat="51.923218000" lon="7.573170000">
        <ele>63.0</ele>
        <time>2017-04-29T09:38:09</time>
        <extensions><speed>1.46</speed></extensions>
      </trkpt>
      <trkpt lat="51.923233000" lon="7.573164000">
        <ele>63.0</ele>
        <time>2017-04-29T09:38:10</time>
        <extensions><speed>1.46</speed></extensions>
      </trkpt>
      <trkpt lat="51.923244000" lon="7.573157000">
        <ele>63.0</ele>
        <time>2017-04-29T09:38:11</time>
        <extensions><speed>1.48</speed></extensions>
      </trkpt>
      <trkpt lat="51.923260000" lon="7.573152000">
        <ele>63.0</ele>
        <time>2017-04-29T09:38:12</time>
        <extensions><speed>1.44</speed></extensions>
      </trkpt>
      <trkpt lat="51.923271000" lon="7.573146000">
        <ele>63.0</ele>
        <time>2017-04-29T09:38:13</time>
        <extensions><speed>1.46</speed></extensions>
      </trkpt>
      <trkpt lat="51.923286000" lon="7.573143000">
        <ele>63.0</ele>
        <time>2017-04-29T09:38:14</time>
        <extensions><speed>1.46</speed></extensions>
      </trkpt>
      <trkpt lat="51.923397000" lon="7.573197000">
        <ele>63.0</ele>
        <time>2017-04-29T09:38:49</time>
      </trkpt>
      <trkpt lat="51.923405000" lon="7.573178000">
        <ele>63.0</ele>
        <time>2017-04-29T09:38:51</time>
        <extensions><speed>1.22</speed></extensions>
      </trkpt>
      <trkpt lat="51.923409000" lon="7.573176000">
        <ele>63.0</ele>
        <time>2017-04-29T09:38:52</time>
      </trkpt>
      <trkpt lat="51.923420000" lon="7.573174000">
        <ele>63.0</ele>
        <time>2017-04-29T09:38:54</time>
        <extensions><speed>0.82</speed></extensions>
      </trkpt>
      <trkpt lat="51.923428000" lon="7.573170000">
        <ele>63.0</ele>
        <time>2017-04-29T09:38:55</time>
        <extensions><speed>0.81</speed></extensions>
      </trkpt>
      <trkpt lat="51.923439000" lon="7.573165000">
        <ele>63.0</ele>
        <time>2017-04-29T09:38:56</time>
        <extensions><speed>0.98</speed></extensions>
      </trkpt>
      <trkpt lat="51.923447000" lon="7.573160000">
        <ele>63.0</ele>
        <time>2017-04-29T09:38:57</time>
      </trkpt>
      <trkpt lat="51.923458000" lon="7.573155000">
        <ele>63.0</ele>
        <time>2017-04-29T09:38:59</time>
        <extensions><speed>0.96</speed></extensions>
      </trkpt>
      <trkpt lat="51.923470000" lon="7.573153000">
        <ele>63.0</ele>
        <time>2017-04-29T09:39:00</time>
        <extensions><speed>1.16</speed></extensions>
      </trkpt>
      <trkpt lat="51.923489000" lon="7.573152000">
        <ele>63.0</ele>
        <time>2017-04-29T09:39:01</time>
        <extensions><speed>1.14</speed></extensions>
      </trkpt>
      <trkpt lat="51.923500000" lon="7.573148000">
        <ele>63.0</ele>
        <time>2017-04-29T09:39:02</time>
        <extensions><speed>1.20</speed></extensions>
      </trkpt>
      <trkpt lat="51.923515000" lon="7.573146000">
        <ele>63.0</ele>
        <time>2017-04-29T09:39:03</time>
        <extensions><speed>1.26</speed></extensions>
      </trkpt>
      <trkpt lat="51.923527000" lon="7.573143000">
        <ele>63.0</ele>
        <time>2017-04-29T09:39:04</time>
        <extensions><speed>1.35</speed></extensions>
      </trkpt>
      <trkpt lat="51.923534000" lon="7.573145000">
        <ele>63.0</ele>
        <time>2017-04-29T09:39:05</time>
        <extensions><speed>1.28</speed></extensions>
      </trkpt>
      <trkpt lat="51.923550000" lon="7.573148000">
        <ele>63.0</ele>
        <time>2017-04-29T09:39:06</time>
        <extensions><speed>1.27</speed></extensions>
      </trkpt>
      <trkpt lat="51.923561000" lon="7.573146000">
        <ele>63.1</ele>
        <time>2017-04-29T09:39:07</time>
        <extensions><speed>1.32</speed></extensions>
      </trkpt>
      <trkpt lat="51.923576000" lon="7.573143000">
        <ele>63.1</ele>
        <time>2017-04-29T09:39:08</time>
        <extensions><speed>1.31</speed></extensions>
      </trkpt>
      <trkpt lat="51.923588000" lon="7.573141000">
        <ele>63.1</ele>
        <time>2017-04-29T09:39:09</time>
        <extensions><speed>1.28</speed></extensions>
      </trkpt>
      <trkpt lat="51.923599000" lon="7.573139000">
        <ele>63.1</ele>
        <time>2017-04-29T09:39:10</time>
        <extensions><speed>1.32</speed></extensions>
      </trkpt>
      <trkpt lat="51.923611000" lon="7.573135000">
        <ele>63.1</ele>
        <time>2017-04-29T09:39:11</time>
        <extensions><speed>1.28</speed></extensions>
      </trkpt>
      <trkpt lat="51.923618000" lon="7.573133000">
        <ele>63.2</ele>
        <time>2017-04-29T09:39:12</time>
      </trkpt>
      <trkpt lat="51.923626000" lon="7.573129000">
        <ele>63.2</ele>
        <time>2017-04-29T09:39:14</time>
        <extensions><speed>1.21</speed></extensions>
      </trkpt>
      <trkpt lat="51.923641000" lon="7.573123000">
        <ele>63.2</ele>
        <time>2017-04-29T09:39:15</time>
        <extensions><speed>1.21</speed></extensions>
      </trkpt>
      <trkpt lat="51.923656000" lon="7.573123000">
        <ele>63.2</ele>
        <time>2017-04-29T09:39:16</time>
        <extensions><speed>1.32</speed></extensions>
      </trkpt>
      <trkpt lat="51.923672000" lon="7.573122000">
        <ele>63.2</ele>
        <time>2017-04-29T09:39:17</time>
        <extensions><speed>1.35</speed></extensions>
      </trkpt>
      <trkpt lat="51.923687000" lon="7.573120000">
        <ele>63.3</ele>
        <time>2017-04-29T09:39:18</time>
        <extensions><speed>1.37</speed></extensions>
      </trkpt>
      <trkpt lat="51.923698000" lon="7.573123000">
        <ele>63.3</ele>
        <time>2017-04-29T09:39:19</time>
        <extensions><speed>1.48</speed></extensions>
      </trkpt>
      <trkpt lat="51.923717000" lon="7.573127000">
        <ele>63.3</ele>
        <time>2017-04-29T09:39:20</time>
        <extensions><speed>1.46</speed></extensions>
      </trkpt>
      <trkpt lat="51.923729000" lon="7.573132000">
        <ele>63.3</ele>
        <time>2017-04-29T09:39:21</time>
        <extensions><speed>1.42</speed></extensions>
      </trkpt>
      <trkpt lat="51.923740000" lon="7.573132000">
        <ele>63.3</ele>
        <time>2017-04-29T09:39:22</time>
        <extensions><speed>1.42</speed></extensions>
      </trkpt>
      <trkpt lat="51.923756000" lon="7.573127000">
        <ele>63.3</ele>
        <time>2017-04-29T09:39:23</time>
        <extensions><speed>1.40</speed></extensions>
      </trkpt>
      <trkpt lat="51.923767000" lon="7.573123000">
        <ele>63.4</ele>
        <time>2017-04-29T09:39:24</time>
        <extensions><speed>1.35</speed></extensions>
      </trkpt>
      <trkpt lat="51.923779000" lon="7.573122000">
        <ele>63.4</ele>
        <time>2017-04-29T09:39:25</time>
        <extensions><speed>1.32</speed></extensions>
      </trkpt>
      <trkpt lat="51.923790000" lon="7.573118000">
        <ele>63.4</ele>
        <time>2017-04-29T09:39:26</time>
        <extensions><speed>1.29</speed></extensions>
      </trkpt>
      <trkpt lat="51.923805000" lon="7.573118000">
        <ele>63.4</ele>
        <time>2017-04-29T09:39:27</time>
        <extensions><speed>1.29</speed></extensions>
      </trkpt>
      <trkpt lat="51.923817000" lon="7.573116000">
        <ele>63.4</ele>
        <time>2017-04-29T09:39:28</time>
        <extensions><speed>1.29</speed></extensions>
      </trkpt>
      <trkpt lat="51.923828000" lon="7.573115000">
        <ele>63.5</ele>
        <time>2017-04-29T09:39:29</time>
        <extensions><speed>1.30</speed></extensions>
      </trkpt>
      <trkpt lat="51.923843000" lon="7.573113000">
        <ele>63.5</ele>
        <time>2017-04-29T09:39:30</time>
        <extensions><speed>1.30</speed></extensions>
      </trkpt>
      <trkpt lat="51.923851000" lon="7.573115000">
        <ele>63.5</ele>
        <time>2017-04-29T09:39:31</time>
        <extensions><speed>1.29</speed></extensions>
      </trkpt>
      <trkpt lat="51.923866000" lon="7.573115000">
        <ele>63.5</ele>
        <time>2017-04-29T09:39:32</time>
        <extensions><speed>1.26</speed></extensions>
      </trkpt>
      <trkpt lat="51.923874000" lon="7.573115000">
        <ele>63.5</ele>
        <time>2017-04-29T09:39:33</time>
        <extensions><speed>1.24</speed></extensions>
      </trkpt>
      <trkpt lat="51.923885000" lon="7.573113000">
        <ele>63.5</ele>
        <time>2017-04-29T09:39:34</time>
        <extensions><speed>1.15</speed></extensions>
      </trkpt>
      <trkpt lat="51.923897000" lon="7.573110000">
        <ele>63.6</ele>
        <time>2017-04-29T09:39:35</time>
        <extensions><speed>1.10</speed></extensions>
      </trkpt>
      <trkpt lat="51.923912000" lon="7.573106000">
        <ele>63.6</ele>
        <time>2017-04-29T09:39:36</time>
        <extensions><speed>1.10</speed></extensions>
      </trkpt>
      <trkpt lat="51.923927000" lon="7.573110000">
        <ele>63.6</ele>
        <time>2017-04-29T09:39:37</time>
        <extensions><speed>1.17</speed></extensions>
      </trkpt>
      <trkpt lat="51.923943000" lon="7.573115000">
        <ele>63.6</ele>
        <time>2017-04-29T09:39:38</time>
        <extensions><speed>1.29</speed></extensions>
      </trkpt>
      <trkpt lat="51.923954000" lon="7.573116000">
        <ele>63.6</ele>
        <time>2017-04-29T09:39:39</time>
        <extensions><speed>1.41</speed></extensions>
      </trkpt>
      <trkpt lat="51.923973000" lon="7.573116000">
        <ele>63.7</ele>
        <time>2017-04-29T09:39:40</time>
        <extensions><speed>1.41</speed></extensions>
      </trkpt>
      <trkpt lat="51.923985000" lon="7.573115000">
        <ele>63.7</ele>
        <time>2017-04-29T09:39:41</time>
        <extensions><speed>1.38</speed></extensions>
      </trkpt>
      <trkpt lat="51.924000000" lon="7.573115000">
        <ele>63.7</ele>
        <time>2017-04-29T09:39:42</time>
        <extensions><speed>1.38</speed></extensions>
      </trkpt>
      <trkpt lat="51.924015000" lon="7.573116000">
        <ele>63.7</ele>
        <time>2017-04-29T09:39:43</time>
        <extensions><speed>1.34</speed></extensions>
      </trkpt>
      <trkpt lat="51.924026000" lon="7.573115000">
        <ele>63.7</ele>
        <time>2017-04-29T09:39:44</time>
        <extensions><speed>1.34</speed></extensions>
      </trkpt>
      <trkpt lat="51.924042000" lon="7.573120000">
        <ele>63.8</ele>
        <time>2017-04-29T09:39:45</time>
        <extensions><speed>1.28</speed></extensions>
      </trkpt>
      <trkpt lat="51.924046000" lon="7.573129000">
        <ele>63.8</ele>
        <time>2017-04-29T09:39:46</time>
        <extensions><speed>1.36</speed></extensions>
      </trkpt>
      <trkpt lat="51.924061000" lon="7.573129000">
        <ele>63.8</ele>
        <time>2017-04-29T09:39:47</time>
        <extensions><speed>1.32</speed></extensions>
      </trkpt>
      <trkpt lat="51.924076000" lon="7.573130000">
        <ele>63.8</ele>
        <time>2017-04-29T09:39:48</time>
        <extensions><speed>1.32</speed></extensions>
      </trkpt>
      <trkpt lat="51.924088000" lon="7.573130000">
        <ele>63.8</ele>
        <time>2017-04-29T09:39:49</time>
        <extensions><speed>1.32</speed></extensions>
      </trkpt>
      <trkpt lat="51.924103000" lon="7.573129000">
        <ele>63.9</ele>
        <time>2017-04-29T09:39:50</time>
        <extensions><speed>1.34</speed></extensions>
      </trkpt>
      <trkpt lat="51.924114000" lon="7.573122000">
        <ele>63.9</ele>
        <time>2017-04-29T09:39:51</time>
        <extensions><speed>1.31</speed></extensions>
      </trkpt>
      <trkpt lat="51.924126000" lon="7.573116000">
        <ele>63.9</ele>
        <time>2017-04-29T09:39:52</time>
        <extensions><speed>1.26</speed></extensions>
      </trkpt>
      <trkpt lat="51.924141000" lon="7.573118000">
        <ele>63.9</ele>
        <time>2017-04-29T09:39:53</time>
        <extensions><speed>1.32</speed></extensions>
      </trkpt>
      <trkpt lat="51.924152000" lon="7.573120000">
        <ele>63.9</ele>
        <time>2017-04-29T09:39:54</time>
        <extensions><speed>1.32</speed></extensions>
      </trkpt>
      <trkpt lat="51.924164000" lon="7.573122000">
        <ele>63.9</ele>
        <time>2017-04-29T09:39:55</time>
        <extensions><speed>1.35</speed></extensions>
      </trkpt>
      <trkpt lat="51.924179000" lon="7.573120000">
        <ele>64.0</ele>
        <time>2017-04-29T09:39:56</time>
        <extensions><speed>1.42</speed></extensions>
      </trkpt>
      <trkpt lat="51.924194000" lon="7.573116000">
        <ele>64.0</ele>
        <time>2017-04-29T09:39:57</time>
        <extensions><speed>1.42</speed></extensions>
      </trkpt>
      <trkpt lat="51.924210000" lon="7.573113000">
        <ele>64.0</ele>
        <time>2017-04-29T09:39:58</time>
        <extensions><speed>1.40</speed></extensions>
      </trkpt>
      <trkpt lat="51.924221000" lon="7.573108000">
        <ele>64.0</ele>
        <time>2017-04-29T09:39:59</time>
        <extensions><speed>1.40</speed></extensions>
      </trkpt>
      <trkpt lat="51.924232000" lon="7.573104000">
        <ele>64.0</ele>
        <time>2017-04-29T09:40:00</time>
        <extensions><speed>1.42</speed></extensions>
      </trkpt>
      <trkpt lat="51.924248000" lon="7.573102000">
        <ele>64.0</ele>
        <time>2017-04-29T09:40:01</time>
        <extensions><speed>1.42</speed></extensions>
      </trkpt>
      <trkpt lat="51.924263000" lon="7.573102000">
        <ele>64.0</ele>
        <time>2017-04-29T09:40:02</time>
        <extensions><speed>1.42</speed></extensions>
      </trkpt>
      <trkpt lat="51.924274000" lon="7.573102000">
        <ele>64.0</ele>
        <time>2017-04-29T09:40:03</time>
        <extensions><speed>1.43</speed></extensions>
      </trkpt>
      <trkpt lat="51.924290000" lon="7.573104000">
        <ele>64.0</ele>
        <time>2017-04-29T09:40:04</time>
        <extensions><speed>1.40</speed></extensions>
      </trkpt>
      <trkpt lat="51.924301000" lon="7.573106000">
        <ele>64.0</ele>
        <time>2017-04-29T09:40:05</time>
        <extensions><speed>1.36</speed></extensions>
      </trkpt>
      <trkpt lat="51.924309000" lon="7.573106000">
        <ele>64.0</ele>
        <time>2017-04-29T09:40:06</time>
        <extensions><speed>1.35</speed></extensions>
      </trkpt>
      <trkpt lat="51.924324000" lon="7.573106000">
        <ele>64.0</ele>
        <time>2017-04-29T09:40:07</time>
        <extensions><speed>1.35</speed></extensions>
      </trkpt>
      <trkpt lat="51.924335000" lon="7.573106000">
        <ele>64.0</ele>
        <time>2017-04-29T09:40:08</time>
        <extensions><speed>1.29</speed></extensions>
      </trkpt>
      <trkpt lat="51.924343000" lon="7.573108000">
        <ele>64.0</ele>
        <time>2017-04-29T09:40:09</time>
        <extensions><speed>1.32</speed></extensions>
      </trkpt>
      <trkpt lat="51.924358000" lon="7.573108000">
        <ele>64.0</ele>
        <time>2017-04-29T09:40:10</time>
        <extensions><speed>1.32</speed></extensions>
      </trkpt>
      <trkpt lat="51.924370000" lon="7.573108000">
        <ele>64.0</ele>
        <time>2017-04-29T09:40:11</time>
        <extensions><speed>1.27</speed></extensions>
      </trkpt>
      <trkpt lat="51.924381000" lon="7.573106000">
        <ele>64.0</ele>
        <time>2017-04-29T09:40:12</time>
        <extensions><speed>1.27</speed></extensions>
      </trkpt>
      <trkpt lat="51.924393000" lon="7.573106000">
        <ele>64.0</ele>
        <time>2017-04-29T09:40:13</time>
        <extensions><speed>1.31</speed></extensions>
      </trkpt>
      <trkpt lat="51.924408000" lon="7.573104000">
        <ele>64.0</ele>
        <time>2017-04-29T09:40:14</time>
        <extensions><speed>1.27</speed></extensions>
      </trkpt>
      <trkpt lat="51.924416000" lon="7.573102000">
        <ele>64.0</ele>
        <time>2017-04-29T09:40:15</time>
        <extensions><speed>1.29</speed></extensions>
      </trkpt>
      <trkpt lat="51.924431000" lon="7.573102000">
        <ele>64.0</ele>
        <time>2017-04-29T09:40:16</time>
        <extensions><speed>1.34</speed></extensions>
      </trkpt>
      <trkpt lat="51.924442000" lon="7.573104000">
        <ele>64.0</ele>
        <time>2017-04-29T09:40:17</time>
        <extensions><speed>1.36</speed></extensions>
      </trkpt>
      <trkpt lat="51.924461000" lon="7.573104000">
        <ele>64.0</ele>
        <time>2017-04-29T09:40:18</time>
        <extensions><speed>1.36</speed></extensions>
      </trkpt>
      <trkpt lat="51.924473000" lon="7.573102000">
        <ele>64.0</ele>
        <time>2017-04-29T09:40:19</time>
        <extensions><speed>1.44</speed></extensions>
      </trkpt>
      <trkpt lat="51.924488000" lon="7.573102000">
        <ele>64.0</ele>
        <time>2017-04-29T09:40:20</time>
        <extensions><speed>1.42</speed></extensions>
      </trkpt>
      <trkpt lat="51.924500000" lon="7.573102000">
        <ele>64.0</ele>
        <time>2017-04-29T09:40:21</time>
        <extensions><speed>1.42</speed></extensions>
      </trkpt>
      <trkpt lat="51.924503000" lon="7.573102000">
        <ele>64.0</ele>
        <time>2017-04-29T09:40:22</time>
        <extensions><speed>1.34</speed></extensions>
      </trkpt>
      <trkpt lat="51.924519000" lon="7.573100000">
        <ele>64.0</ele>
        <time>2017-04-29T09:40:23</time>
        <extensions><speed>1.28</speed></extensions>
      </trkpt>
      <trkpt lat="51.924530000" lon="7.573099000">
        <ele>64.0</ele>
        <time>2017-04-29T09:40:24</time>
        <extensions><speed>1.25</speed></extensions>
      </trkpt>
      <trkpt lat="51.924541000" lon="7.573097000">
        <ele>64.0</ele>
        <time>2017-04-29T09:40:25</time>
        <extensions><speed>1.21</speed></extensions>
      </trkpt>
      <trkpt lat="51.924557000" lon="7.573097000">
        <ele>64.0</ele>
        <time>2017-04-29T09:40:26</time>
        <extensions><speed>1.21</speed></extensions>
      </trkpt>
      <trkpt lat="51.924568000" lon="7.573097000">
        <ele>64.0</ele>
        <time>2017-04-29T09:40:27</time>
        <extensions><speed>1.25</speed></extensions>
      </trkpt>
      <trkpt lat="51.924580000" lon="7.573095000">
        <ele>64.0</ele>
        <time>2017-04-29T09:40:28</time>
        <extensions><speed>1.32</speed></extensions>
      </trkpt>
      <trkpt lat="51.924595000" lon="7.573095000">
        <ele>64.0</ele>
        <time>2017-04-29T09:40:29</time>
        <extensions><speed>1.38</speed></extensions>
      </trkpt>
      <trkpt lat="51.924606000" lon="7.573095000">
        <ele>64.0</ele>
        <time>2017-04-29T09:40:30</time>
        <extensions><speed>1.39</speed></extensions>
      </trkpt>
      <trkpt lat="51.924622000" lon="7.573093000">
        <ele>64.0</ele>
        <time>2017-04-29T09:40:31</time>
        <extensions><speed>1.37</speed></extensions>
      </trkpt>
      <trkpt lat="51.924633000" lon="7.573093000">
        <ele>64.0</ele>
        <time>2017-04-29T09:40:32</time>
        <extensions><speed>1.38</speed></extensions>
      </trkpt>
      <trkpt lat="51.924644000" lon="7.573095000">
        <ele>64.0</ele>
        <time>2017-04-29T09:40:33</time>
        <extensions><speed>1.35</speed></extensions>
      </trkpt>
      <trkpt lat="51.924656000" lon="7.573095000">
        <ele>64.0</ele>
        <time>2017-04-29T09:40:34</time>
        <extensions><speed>1.31</speed></extensions>
      </trkpt>
      <trkpt lat="51.924667000" lon="7.573092000">
        <ele>64.0</ele>
        <time>2017-04-29T09:40:35</time>
        <extensions><speed>1.28</speed></extensions>
      </trkpt>
      <trkpt lat="51.924679000" lon="7.573092000">
        <ele>64.0</ele>
        <time>2017-04-29T09:40:36</time>
        <extensions><speed>1.24</speed></extensions>
      </trkpt>
      <trkpt lat="51.924686000" lon="7.573092000">
        <ele>64.0</ele>
        <time>2017-04-29T09:40:37</time>
        <extensions><speed>1.15</speed></extensions>
      </trkpt>
      <trkpt lat="51.924698000" lon="7.573092000">
        <ele>64.0</ele>
        <time>2017-04-29T09:40:38</time>
        <extensions><speed>1.08</speed></extensions>
      </trkpt>
      <trkpt lat="51.924706000" lon="7.573095000">
        <ele>64.0</ele>
        <time>2017-04-29T09:40:39</time>
        <extensions><speed>0.99</speed></extensions>
      </trkpt>
      <trkpt lat="51.924717000" lon="7.573097000">
        <ele>64.0</ele>
        <time>2017-04-29T09:40:40</time>
        <extensions><speed>0.99</speed></extensions>
      </trkpt>
      <trkpt lat="51.924728000" lon="7.573097000">
        <ele>64.0</ele>
        <time>2017-04-29T09:40:41</time>
        <extensions><speed>1.03</speed></extensions>
      </trkpt>
      <trkpt lat="51.924740000" lon="7.573099000">
        <ele>64.0</ele>
        <time>2017-04-29T09:40:42</time>
        <extensions><speed>1.11</speed></extensions>
      </trkpt>
      <trkpt lat="51.924751000" lon="7.573100000">
        <ele>64.0</ele>
        <time>2017-04-29T09:40:43</time>
        <extensions><speed>1.21</speed></extensions>
      </trkpt>
      <trkpt lat="51.924767000" lon="7.573102000">
        <ele>64.0</ele>
        <time>2017-04-29T09:40:44</time>
        <extensions><speed>1.27</speed></extensions>
      </trkpt>
      <trkpt lat="51.924778000" lon="7.573104000">
        <ele>64.0</ele>
        <time>2017-04-29T09:40:45</time>
        <extensions><speed>1.27</speed></extensions>
      </trkpt>
      <trkpt lat="51.924789000" lon="7.573106000">
        <ele>64.0</ele>
        <time>2017-04-29T09:40:46</time>
        <extensions><speed>1.27</speed></extensions>
      </trkpt>
      <trkpt lat="51.924801000" lon="7.573110000">
        <ele>64.0</ele>
        <time>2017-04-29T09:40:47</time>
        <extensions><speed>1.26</speed></extensions>
      </trkpt>
      <trkpt lat="51.924809000" lon="7.573116000">
        <ele>64.0</ele>
        <time>2017-04-29T09:40:48</time>
      </trkpt>
      <trkpt lat="51.924809000" lon="7.573120000">
        <ele>64.0</ele>
        <time>2017-04-29T09:40:50</time>
      </trkpt>
      <trkpt lat="51.924812000" lon="7.573129000">
        <ele>64.0</ele>
        <time>2017-04-29T09:40:52</time>
        <extensions><speed>0.56</speed></extensions>
      </trkpt>
      <trkpt lat="51.924919000" lon="7.573202000">
        <ele>64.0</ele>
        <time>2017-04-29T09:42:25</time>
      </trkpt>
      <trkpt lat="51.924927000" lon="7.573195000">
        <ele>64.0</ele>
        <time>2017-04-29T09:42:27</time>
        <extensions><speed>1.45</speed></extensions>
      </trkpt>
      <trkpt lat="51.924942000" lon="7.573188000">
        <ele>64.0</ele>
        <time>2017-04-29T09:42:28</time>
        <extensions><speed>1.38</speed></extensions>
      </trkpt>
      <trkpt lat="51.924953000" lon="7.573186000">
        <ele>64.0</ele>
        <time>2017-04-29T09:42:29</time>
        <extensions><speed>1.27</speed></extensions>
      </trkpt>
      <trkpt lat="51.924965000" lon="7.573180000">
        <ele>64.0</ele>
        <time>2017-04-29T09:42:30</time>
        <extensions><speed>1.27</speed></extensions>
      </trkpt>
      <trkpt lat="51.924980000" lon="7.573172000">
        <ele>64.0</ele>
        <time>2017-04-29T09:42:31</time>
        <extensions><speed>1.29</speed></extensions>
      </trkpt>
      <trkpt lat="51.924992000" lon="7.573164000">
        <ele>64.0</ele>
        <time>2017-04-29T09:42:32</time>
        <extensions><speed>1.23</speed></extensions>
      </trkpt>
      <trkpt lat="51.924995000" lon="7.573153000">
        <ele>64.0</ele>
        <time>2017-04-29T09:42:33</time>
        <extensions><speed>1.21</speed></extensions>
      </trkpt>
      <trkpt lat="51.925003000" lon="7.573140000">
        <ele>64.0</ele>
        <time>2017-04-29T09:42:34</time>
        <extensions><speed>1.21</speed></extensions>
      </trkpt>
      <trkpt lat="51.925007000" lon="7.573125000">
        <ele>64.0</ele>
        <time>2017-04-29T09:42:35</time>
        <extensions><speed>1.06</speed></extensions>
      </trkpt>
      <trkpt lat="51.925014000" lon="7.573113000">
        <ele>64.0</ele>
        <time>2017-04-29T09:42:36</time>
        <extensions><speed>1.01</speed></extensions>
      </trkpt>
      <trkpt lat="51.925026000" lon="7.573102000">
        <ele>64.0</ele>
        <time>2017-04-29T09:42:37</time>
        <extensions><speed>1.01</speed></extensions>
      </trkpt>
      <trkpt lat="51.925030000" lon="7.573093000">
        <ele>64.0</ele>
        <time>2017-04-29T09:42:38</time>
        <extensions><speed>0.94</speed></extensions>
      </trkpt>
      <trkpt lat="51.925034000" lon="7.573090000">
        <ele>64.0</ele>
        <time>2017-04-29T09:42:39</time>
      </trkpt>
      <trkpt lat="51.925045000" lon="7.573083000">
        <ele>64.0</ele>
        <time>2017-04-29T09:42:41</time>
        <extensions><speed>0.88</speed></extensions>
      </trkpt>
      <trkpt lat="51.925056000" lon="7.573078000">
        <ele>64.0</ele>
        <time>2017-04-29T09:42:42</time>
        <extensions><speed>0.88</speed></extensions>
      </trkpt>
      <trkpt lat="51.925068000" lon="7.573073000">
        <ele>64.0</ele>
        <time>2017-04-29T09:42:43</time>
        <extensions><speed>1.15</speed></extensions>
      </trkpt>
      <trkpt lat="51.925087000" lon="7.573067000">
        <ele>64.0</ele>
        <time>2017-04-29T09:42:44</time>
        <extensions><speed>1.33</speed></extensions>
      </trkpt>
      <trkpt lat="51.925098000" lon="7.573067000">
        <ele>64.0</ele>
        <time>2017-04-29T09:42:45</time>
        <extensions><speed>1.34</speed></extensions>
      </trkpt>
      <trkpt lat="51.925114000" lon="7.573067000">
        <ele>64.0</ele>
        <time>2017-04-29T09:42:46</time>
        <extensions><speed>1.43</speed></extensions>
      </trkpt>
      <trkpt lat="51.925125000" lon="7.573065000">
        <ele>64.0</ele>
        <time>2017-04-29T09:42:47</time>
        <extensions><speed>1.43</speed></extensions>
      </trkpt>
      <trkpt lat="51.925140000" lon="7.573067000">
        <ele>64.0</ele>
        <time>2017-04-29T09:42:48</time>
        <extensions><speed>1.39</speed></extensions>
      </trkpt>
      <trkpt lat="51.925148000" lon="7.573065000">
        <ele>64.0</ele>
        <time>2017-04-29T09:42:49</time>
        <extensions><speed>1.31</speed></extensions>
      </trkpt>
      <trkpt lat="51.925156000" lon="7.573063000">
        <ele>64.0</ele>
        <time>2017-04-29T09:42:50</time>
        <extensions><speed>1.30</speed></extensions>
      </trkpt>
      <trkpt lat="51.925171000" lon="7.573062000">
        <ele>64.0</ele>
        <time>2017-04-29T09:42:51</time>
        <extensions><speed>1.23</speed></extensions>
      </trkpt>
      <trkpt lat="51.925186000" lon="7.573059000">
        <ele>64.0</ele>
        <time>2017-04-29T09:42:52</time>
        <extensions><speed>1.10</speed></extensions>
      </trkpt>
      <trkpt lat="51.925198000" lon="7.573055000">
        <ele>64.0</ele>
        <time>2017-04-29T09:42:53</time>
        <extensions><speed>1.10</speed></extensions>
      </trkpt>
      <trkpt lat="51.925209000" lon="7.573051000">
        <ele>64.0</ele>
        <time>2017-04-29T09:42:54</time>
        <extensions><speed>1.21</speed></extensions>
      </trkpt>
      <trkpt lat="51.925224000" lon="7.573048000">
        <ele>64.0</ele>
        <time>2017-04-29T09:42:55</time>
        <extensions><speed>1.25</speed></extensions>
      </trkpt>
      <trkpt lat="51.925240000" lon="7.573048000">
        <ele>64.0</ele>
        <time>2017-04-29T09:42:56</time>
        <extensions><speed>1.34</speed></extensions>
      </trkpt>
      <trkpt lat="51.925255000" lon="7.573051000">
        <ele>64.0</ele>
        <time>2017-04-29T09:42:57</time>
        <extensions><speed>1.34</speed></extensions>
      </trkpt>
      <trkpt lat="51.925266000" lon="7.573055000">
        <ele>64.0</ele>
        <time>2017-04-29T09:42:58</time>
        <extensions><speed>1.38</speed></extensions>
      </trkpt>
      <trkpt lat="51.925282000" lon="7.573055000">
        <ele>64.0</ele>
        <time>2017-04-29T09:42:59</time>
        <extensions><speed>1.37</speed></extensions>
      </trkpt>
      <trkpt lat="51.925297000" lon="7.573051000">
        <ele>64.0</ele>
        <time>2017-04-29T09:43:00</time>
        <extensions><speed>1.37</speed></extensions>
      </trkpt>
      <trkpt lat="51.925316000" lon="7.573050000">
        <ele>64.0</ele>
        <time>2017-04-29T09:43:01</time>
        <extensions><speed>1.37</speed></extensions>
      </trkpt>
      <trkpt lat="51.925327000" lon="7.573050000">
        <ele>64.0</ele>
        <time>2017-04-29T09:43:02</time>
        <extensions><speed>1.38</speed></extensions>
      </trkpt>
      <trkpt lat="51.925339000" lon="7.573050000">
        <ele>64.0</ele>
        <time>2017-04-29T09:43:03</time>
        <extensions><speed>1.32</speed></extensions>
      </trkpt>
      <trkpt lat="51.925350000" lon="7.573050000">
        <ele>64.0</ele>
        <time>2017-04-29T09:43:04</time>
        <extensions><speed>1.31</speed></extensions>
      </trkpt>
      <trkpt lat="51.925365000" lon="7.573050000">
        <ele>64.0</ele>
        <time>2017-04-29T09:43:05</time>
        <extensions><speed>1.31</speed></extensions>
      </trkpt>
      <trkpt lat="51.925381000" lon="7.573048000">
        <ele>64.0</ele>
        <time>2017-04-29T09:43:06</time>
        <extensions><speed>1.26</speed></extensions>
      </trkpt>
      <trkpt lat="51.925396000" lon="7.573047000">
        <ele>64.0</ele>
        <time>2017-04-29T09:43:07</time>
        <extensions><speed>1.26</speed></extensions>
      </trkpt>
      <trkpt lat="51.925411000" lon="7.573043000">
        <ele>64.0</ele>
        <time>2017-04-29T09:43:08</time>
        <extensions><speed>1.32</speed></extensions>
      </trkpt>
      <trkpt lat="51.925426000" lon="7.573038000">
        <ele>64.0</ele>
        <time>2017-04-29T09:43:09</time>
        <extensions><speed>1.40</speed></extensions>
      </trkpt>
      <trkpt lat="51.925446000" lon="7.573036000">
        <ele>64.0</ele>
        <time>2017-04-29T09:43:10</time>
        <extensions><speed>1.40</speed></extensions>
      </trkpt>
      <trkpt lat="51.925457000" lon="7.573036000">
        <ele>64.0</ele>
        <time>2017-04-29T09:43:11</time>
        <extensions><speed>1.45</speed></extensions>
      </trkpt>
      <trkpt lat="51.925476000" lon="7.573036000">
        <ele>64.0</ele>
        <time>2017-04-29T09:43:12</time>
        <extensions><speed>1.50</speed></extensions>
      </trkpt>
      <trkpt lat="51.925488000" lon="7.573036000">
        <ele>64.0</ele>
        <time>2017-04-29T09:43:13</time>
        <extensions><speed>1.49</speed></extensions>
      </trkpt>
      <trkpt lat="51.925507000" lon="7.573036000">
        <ele>64.0</ele>
        <time>2017-04-29T09:43:14</time>
        <extensions><speed>1.50</speed></extensions>
      </trkpt>
      <trkpt lat="51.925518000" lon="7.573038000">
        <ele>64.0</ele>
        <time>2017-04-29T09:43:15</time>
        <extensions><speed>1.52</speed></extensions>
      </trkpt>
      <trkpt lat="51.925537000" lon="7.573036000">
        <ele>64.0</ele>
        <time>2017-04-29T09:43:16</time>
        <extensions><speed>1.53</speed></extensions>
      </trkpt>
      <trkpt lat="51.925549000" lon="7.573034000">
        <ele>64.0</ele>
        <time>2017-04-29T09:43:17</time>
        <extensions><speed>1.51</speed></extensions>
      </trkpt>
      <trkpt lat="51.925568000" lon="7.573032000">
        <ele>64.0</ele>
        <time>2017-04-29T09:43:18</time>
        <extensions><speed>1.51</speed></extensions>
      </trkpt>
      <trkpt lat="51.925583000" lon="7.573032000">
        <ele>64.0</ele>
        <time>2017-04-29T09:43:19</time>
        <extensions><speed>1.48</speed></extensions>
      </trkpt>
      <trkpt lat="51.925598000" lon="7.573030000">
        <ele>64.0</ele>
        <time>2017-04-29T09:43:20</time>
        <extensions><speed>1.48</speed></extensions>
      </trkpt>
      <trkpt lat="51.925613000" lon="7.573027000">
        <ele>64.0</ele>
        <time>2017-04-29T09:43:21</time>
        <extensions><speed>1.44</speed></extensions>
      </trkpt>
      <trkpt lat="51.925625000" lon="7.573023000">
        <ele>64.0</ele>
        <time>2017-04-29T09:43:22</time>
        <extensions><speed>1.42</speed></extensions>
      </trkpt>
      <trkpt lat="51.925636000" lon="7.573019000">
        <ele>64.0</ele>
        <time>2017-04-29T09:43:23</time>
        <extensions><speed>1.41</speed></extensions>
      </trkpt>
      <trkpt lat="51.925648000" lon="7.573017000">
        <ele>64.0</ele>
        <time>2017-04-29T09:43:24</time>
        <extensions><speed>1.42</speed></extensions>
      </trkpt>
      <trkpt lat="51.925659000" lon="7.573017000">
        <ele>64.0</ele>
        <time>2017-04-29T09:43:25</time>
        <extensions><speed>1.41</speed></extensions>
      </trkpt>
      <trkpt lat="51.925674000" lon="7.573017000">
        <ele>64.0</ele>
        <time>2017-04-29T09:43:26</time>
        <extensions><speed>1.43</speed></extensions>
      </trkpt>
      <trkpt lat="51.925686000" lon="7.573019000">
        <ele>64.0</ele>
        <time>2017-04-29T09:43:27</time>
        <extensions><speed>1.43</speed></extensions>
      </trkpt>
      <trkpt lat="51.925701000" lon="7.573013000">
        <ele>64.0</ele>
        <time>2017-04-29T09:43:28</time>
        <extensions><speed>1.46</speed></extensions>
      </trkpt>
      <trkpt lat="51.925716000" lon="7.573008000">
        <ele>64.0</ele>
        <time>2017-04-29T09:43:29</time>
        <extensions><speed>1.46</speed></extensions>
      </trkpt>
      <trkpt lat="51.925735000" lon="7.573005000">
        <ele>64.0</ele>
        <time>2017-04-29T09:43:30</time>
        <extensions><speed>1.46</speed></extensions>
      </trkpt>
      <trkpt lat="51.925747000" lon="7.573001000">
        <ele>64.0</ele>
        <time>2017-04-29T09:43:31</time>
        <extensions><speed>1.46</speed></extensions>
      </trkpt>
      <trkpt lat="51.925758000" lon="7.573000000">
        <ele>64.0</ele>
        <time>2017-04-29T09:43:32</time>
        <extensions><speed>1.46</speed></extensions>
      </trkpt>
      <trkpt lat="51.925774000" lon="7.573000000">
        <ele>64.0</ele>
        <time>2017-04-29T09:43:33</time>
        <extensions><speed>1.38</speed></extensions>
      </trkpt>
      <trkpt lat="51.925785000" lon="7.572999000">
        <ele>64.0</ele>
        <time>2017-04-29T09:43:34</time>
        <extensions><speed>1.34</speed></extensions>
      </trkpt>
      <trkpt lat="51.925797000" lon="7.572999000">
        <ele>64.0</ele>
        <time>2017-04-29T09:43:35</time>
        <extensions><speed>1.28</speed></extensions>
      </trkpt>
      <trkpt lat="51.925804000" lon="7.572999000">
        <ele>64.0</ele>
        <time>2017-04-29T09:43:36</time>
      </trkpt>
      <trkpt lat="51.925812000" lon="7.573000000">
        <ele>64.0</ele>
        <time>2017-04-29T09:43:38</time>
        <extensions><speed>1.05</speed></extensions>
      </trkpt>
      <trkpt lat="51.925823000" lon="7.573005000">
        <ele>64.0</ele>
        <time>2017-04-29T09:43:39</time>
        <extensions><speed>1.05</speed></extensions>
      </trkpt>
      <trkpt lat="51.925838000" lon="7.573011000">
        <ele>64.0</ele>
        <time>2017-04-29T09:43:40</time>
        <extensions><speed>1.12</speed></extensions>
      </trkpt>
      <trkpt lat="51.925846000" lon="7.573020000">
        <ele>64.0</ele>
        <time>2017-04-29T09:43:41</time>
        <extensions><speed>1.19</speed></extensions>
      </trkpt>
      <trkpt lat="51.925861000" lon="7.573027000">
        <ele>64.0</ele>
        <time>2017-04-29T09:43:42</time>
        <extensions><speed>1.29</speed></extensions>
      </trkpt>
      <trkpt lat="51.925873000" lon="7.573027000">
        <ele>64.0</ele>
        <time>2017-04-29T09:43:43</time>
        <extensions><speed>1.35</speed></extensions>
      </trkpt>
      <trkpt lat="51.925888000" lon="7.573022000">
        <ele>64.0</ele>
        <time>2017-04-29T09:43:44</time>
        <extensions><speed>1.35</speed></extensions>
      </trkpt>
      <trkpt lat="51.925900000" lon="7.573017000">
        <ele>64.0</ele>
        <time>2017-04-29T09:43:45</time>
        <extensions><speed>1.25</speed></extensions>
      </trkpt>
      <trkpt lat="51.925907000" lon="7.573011000">
        <ele>64.0</ele>
        <time>2017-04-29T09:43:46</time>
        <extensions><speed>1.21</speed></extensions>
      </trkpt>
      <trkpt lat="51.925919000" lon="7.573003000">
        <ele>64.0</ele>
        <time>2017-04-29T09:43:47</time>
        <extensions><speed>1.14</speed></extensions>
      </trkpt>
      <trkpt lat="51.925930000" lon="7.572995000">
        <ele>64.0</ele>
        <time>2017-04-29T09:43:48</time>
        <extensions><speed>1.14</speed></extensions>
      </trkpt>
      <trkpt lat="51.925941000" lon="7.572989000">
        <ele>64.0</ele>
        <time>2017-04-29T09:43:49</time>
        <extensions><speed>1.15</speed></extensions>
      </trkpt>
      <trkpt lat="51.925957000" lon="7.572987000">
        <ele>64.0</ele>
        <time>2017-04-29T09:43:50</time>
        <extensions><speed>1.23</speed></extensions>
      </trkpt>
      <trkpt lat="51.925968000" lon="7.572983000">
        <ele>64.0</ele>
        <time>2017-04-29T09:43:51</time>
        <extensions><speed>1.28</speed></extensions>
      </trkpt>
      <trkpt lat="51.925983000" lon="7.572982000">
        <ele>64.0</ele>
        <time>2017-04-29T09:43:52</time>
        <extensions><speed>1.35</speed></extensions>
      </trkpt>
      <trkpt lat="51.925995000" lon="7.572978000">
        <ele>64.0</ele>
        <time>2017-04-29T09:43:53</time>
        <extensions><speed>1.35</speed></extensions>
      </trkpt>
      <trkpt lat="51.926006000" lon="7.572975000">
        <ele>64.0</ele>
        <time>2017-04-29T09:43:54</time>
        <extensions><speed>1.35</speed></extensions>
      </trkpt>
      <trkpt lat="51.926022000" lon="7.572971000">
        <ele>64.0</ele>
        <time>2017-04-29T09:43:55</time>
        <extensions><speed>1.35</speed></extensions>
      </trkpt>
      <trkpt lat="51.926033000" lon="7.572970000">
        <ele>64.0</ele>
        <time>2017-04-29T09:43:56</time>
        <extensions><speed>1.34</speed></extensions>
      </trkpt>
      <trkpt lat="51.926044000" lon="7.572968000">
        <ele>64.0</ele>
        <time>2017-04-29T09:43:57</time>
        <extensions><speed>1.38</speed></extensions>
      </trkpt>
      <trkpt lat="51.926060000" lon="7.572968000">
        <ele>64.0</ele>
        <time>2017-04-29T09:43:58</time>
        <extensions><speed>1.42</speed></extensions>
      </trkpt>
      <trkpt lat="51.926067000" lon="7.572968000">
        <ele>63.9</ele>
        <time>2017-04-29T09:43:59</time>
        <extensions><speed>1.42</speed></extensions>
      </trkpt>
      <trkpt lat="51.926083000" lon="7.572966000">
        <ele>63.9</ele>
        <time>2017-04-29T09:44:00</time>
        <extensions><speed>1.41</speed></extensions>
      </trkpt>
      <trkpt lat="51.926102000" lon="7.572964000">
        <ele>63.9</ele>
        <time>2017-04-29T09:44:01</time>
        <extensions><speed>1.47</speed></extensions>
      </trkpt>
      <trkpt lat="51.926113000" lon="7.572962000">
        <ele>63.9</ele>
        <time>2017-04-29T09:44:02</time>
        <extensions><speed>1.41</speed></extensions>
      </trkpt>
      <trkpt lat="51.926128000" lon="7.572966000">
        <ele>63.9</ele>
        <time>2017-04-29T09:44:03</time>
        <extensions><speed>1.37</speed></extensions>
      </trkpt>
      <trkpt lat="51.926140000" lon="7.572966000">
        <ele>63.9</ele>
        <time>2017-04-29T09:44:04</time>
        <extensions><speed>1.38</speed></extensions>
      </trkpt>
      <trkpt lat="51.926155000" lon="7.572962000">
        <ele>63.9</ele>
        <time>2017-04-29T09:44:05</time>
        <extensions><speed>1.40</speed></extensions>
      </trkpt>
      <trkpt lat="51.926167000" lon="7.572964000">
        <ele>63.9</ele>
        <time>2017-04-29T09:44:06</time>
        <extensions><speed>1.30</speed></extensions>
      </trkpt>
      <trkpt lat="51.926182000" lon="7.572966000">
        <ele>63.9</ele>
        <time>2017-04-29T09:44:07</time>
        <extensions><speed>1.32</speed></extensions>
      </trkpt>
      <trkpt lat="51.926197000" lon="7.572968000">
        <ele>63.9</ele>
        <time>2017-04-29T09:44:08</time>
        <extensions><speed>1.43</speed></extensions>
      </trkpt>
      <trkpt lat="51.926208000" lon="7.572968000">
        <ele>63.9</ele>
        <time>2017-04-29T09:44:09</time>
        <extensions><speed>1.41</speed></extensions>
      </trkpt>
      <trkpt lat="51.926224000" lon="7.572970000">
        <ele>63.9</ele>
        <time>2017-04-29T09:44:10</time>
        <extensions><speed>1.38</speed></extensions>
      </trkpt>
      <trkpt lat="51.926239000" lon="7.572975000">
        <ele>63.9</ele>
        <time>2017-04-29T09:44:11</time>
        <extensions><speed>1.40</speed></extensions>
      </trkpt>
      <trkpt lat="51.926250000" lon="7.572978000">
        <ele>63.9</ele>
        <time>2017-04-29T09:44:12</time>
        <extensions><speed>1.40</speed></extensions>
      </trkpt>
      <trkpt lat="51.926266000" lon="7.572980000">
        <ele>63.9</ele>
        <time>2017-04-29T09:44:13</time>
        <extensions><speed>1.36</speed></extensions>
      </trkpt>
      <trkpt lat="51.926277000" lon="7.572978000">
        <ele>63.9</ele>
        <time>2017-04-29T09:44:14</time>
        <extensions><speed>1.40</speed></extensions>
      </trkpt>
      <trkpt lat="51.926296000" lon="7.572978000">
        <ele>63.9</ele>
        <time>2017-04-29T09:44:15</time>
        <extensions><speed>1.38</speed></extensions>
      </trkpt>
      <trkpt lat="51.926308000" lon="7.572977000">
        <ele>63.9</ele>
        <time>2017-04-29T09:44:16</time>
        <extensions><speed>1.41</speed></extensions>
      </trkpt>
      <trkpt lat="51.926323000" lon="7.572971000">
        <ele>63.9</ele>
        <time>2017-04-29T09:44:17</time>
        <extensions><speed>1.41</speed></extensions>
      </trkpt>
      <trkpt lat="51.926331000" lon="7.572970000">
        <ele>63.9</ele>
        <time>2017-04-29T09:44:18</time>
        <extensions><speed>1.43</speed></extensions>
      </trkpt>
      <trkpt lat="51.926346000" lon="7.572968000">
        <ele>63.8</ele>
        <time>2017-04-29T09:44:19</time>
        <extensions><speed>1.42</speed></extensions>
      </trkpt>
      <trkpt lat="51.926361000" lon="7.572970000">
        <ele>63.8</ele>
        <time>2017-04-29T09:44:20</time>
        <extensions><speed>1.44</speed></extensions>
      </trkpt>
      <trkpt lat="51.926373000" lon="7.572968000">
        <ele>63.8</ele>
        <time>2017-04-29T09:44:21</time>
        <extensions><speed>1.41</speed></extensions>
      </trkpt>
      <trkpt lat="51.926388000" lon="7.572964000">
        <ele>63.8</ele>
        <time>2017-04-29T09:44:22</time>
        <extensions><speed>1.41</speed></extensions>
      </trkpt>
      <trkpt lat="51.926395000" lon="7.572960000">
        <ele>63.8</ele>
        <time>2017-04-29T09:44:23</time>
        <extensions><speed>1.43</speed></extensions>
      </trkpt>
      <trkpt lat="51.926414000" lon="7.572957000">
        <ele>63.7</ele>
        <time>2017-04-29T09:44:24</time>
        <extensions><speed>1.43</speed></extensions>
      </trkpt>
      <trkpt lat="51.926430000" lon="7.572953000">
        <ele>63.7</ele>
        <time>2017-04-29T09:44:25</time>
        <extensions><speed>1.45</speed></extensions>
      </trkpt>
      <trkpt lat="51.926445000" lon="7.572948000">
        <ele>63.7</ele>
        <time>2017-04-29T09:44:26</time>
        <extensions><speed>1.52</speed></extensions>
      </trkpt>
      <trkpt lat="51.926460000" lon="7.572943000">
        <ele>63.7</ele>
        <time>2017-04-29T09:44:27</time>
        <extensions><speed>1.53</speed></extensions>
      </trkpt>
      <trkpt lat="51.926472000" lon="7.572941000">
        <ele>63.7</ele>
        <time>2017-04-29T09:44:28</time>
        <extensions><speed>1.53</speed></extensions>
      </trkpt>
      <trkpt lat="51.926487000" lon="7.572943000">
        <ele>63.6</ele>
        <time>2017-04-29T09:44:29</time>
        <extensions><speed>1.50</speed></extensions>
      </trkpt>
      <trkpt lat="51.926498000" lon="7.572947000">
        <ele>63.6</ele>
        <time>2017-04-29T09:44:30</time>
        <extensions><speed>1.45</speed></extensions>
      </trkpt>
      <trkpt lat="51.926510000" lon="7.572950000">
        <ele>63.6</ele>
        <time>2017-04-29T09:44:31</time>
        <extensions><speed>1.41</speed></extensions>
      </trkpt>
      <trkpt lat="51.926525000" lon="7.572952000">
        <ele>63.6</ele>
        <time>2017-04-29T09:44:32</time>
        <extensions><speed>1.36</speed></extensions>
      </trkpt>
      <trkpt lat="51.926533000" lon="7.572952000">
        <ele>63.5</ele>
        <time>2017-04-29T09:44:33</time>
        <extensions><speed>1.32</speed></extensions>
      </trkpt>
      <trkpt lat="51.926544000" lon="7.572950000">
        <ele>63.5</ele>
        <time>2017-04-29T09:44:34</time>
        <extensions><speed>1.28</speed></extensions>
      </trkpt>
      <trkpt lat="51.926559000" lon="7.572950000">
        <ele>63.5</ele>
        <time>2017-04-29T09:44:35</time>
        <extensions><speed>1.28</speed></extensions>
      </trkpt>
      <trkpt lat="51.926571000" lon="7.572950000">
        <ele>63.5</ele>
        <time>2017-04-29T09:44:36</time>
        <extensions><speed>1.19</speed></extensions>
      </trkpt>
      <trkpt lat="51.926582000" lon="7.572948000">
        <ele>63.5</ele>
        <time>2017-04-29T09:44:37</time>
        <extensions><speed>1.22</speed></extensions>
      </trkpt>
      <trkpt lat="51.926590000" lon="7.572945000">
        <ele>63.5</ele>
        <time>2017-04-29T09:44:38</time>
        <extensions><speed>1.22</speed></extensions>
      </trkpt>
      <trkpt lat="51.926594000" lon="7.572940000">
        <ele>63.5</ele>
        <time>2017-04-29T09:44:39</time>
        <extensions><speed>1.05</speed></extensions>
      </trkpt>
      <trkpt lat="51.926598000" lon="7.572933000">
        <ele>63.4</ele>
        <time>2017-04-29T09:44:40</time>
        <extensions><speed>0.84</speed></extensions>
      </trkpt>
      <trkpt lat="51.926605000" lon="7.572924000">
        <ele>63.4</ele>
        <time>2017-04-29T09:44:41</time>
        <extensions><speed>0.72</speed></extensions>
      </trkpt>
      <trkpt lat="51.926617000" lon="7.572917000">
        <ele>63.4</ele>
        <time>2017-04-29T09:44:42</time>
        <extensions><speed>0.72</speed></extensions>
      </trkpt>
      <trkpt lat="51.926628000" lon="7.572917000">
        <ele>63.4</ele>
        <time>2017-04-29T09:44:43</time>
        <extensions><speed>0.89</speed></extensions>
      </trkpt>
      <trkpt lat="51.926643000" lon="7.572917000">
        <ele>63.4</ele>
        <time>2017-04-29T09:44:44</time>
        <extensions><speed>1.08</speed></extensions>
      </trkpt>
      <trkpt lat="51.926659000" lon="7.572918000">
        <ele>63.4</ele>
        <time>2017-04-29T09:44:45</time>
        <extensions><speed>1.21</speed></extensions>
      </trkpt>
      <trkpt lat="51.926674000" lon="7.572917000">
        <ele>63.3</ele>
        <time>2017-04-29T09:44:46</time>
        <extensions><speed>1.35</speed></extensions>
      </trkpt>
      <trkpt lat="51.926689000" lon="7.572917000">
        <ele>63.3</ele>
        <time>2017-04-29T09:44:47</time>
        <extensions><speed>1.37</speed></extensions>
      </trkpt>
      <trkpt lat="51.926704000" lon="7.572918000">
        <ele>63.3</ele>
        <time>2017-04-29T09:44:48</time>
        <extensions><speed>1.46</speed></extensions>
      </trkpt>
      <trkpt lat="51.926720000" lon="7.572915000">
        <ele>63.3</ele>
        <time>2017-04-29T09:44:49</time>
        <extensions><speed>1.46</speed></extensions>
      </trkpt>
      <trkpt lat="51.926731000" lon="7.572913000">
        <ele>63.3</ele>
        <time>2017-04-29T09:44:50</time>
        <extensions><speed>1.46</speed></extensions>
      </trkpt>
      <trkpt lat="51.926743000" lon="7.572908000">
        <ele>63.3</ele>
        <time>2017-04-29T09:44:51</time>
        <extensions><speed>1.33</speed></extensions>
      </trkpt>
      <trkpt lat="51.926754000" lon="7.572905000">
        <ele>63.2</ele>
        <time>2017-04-29T09:44:52</time>
        <extensions><speed>1.37</speed></extensions>
      </trkpt>
      <trkpt lat="51.926773000" lon="7.572900000">
        <ele>63.2</ele>
        <time>2017-04-29T09:44:53</time>
        <extensions><speed>1.39</speed></extensions>
      </trkpt>
      <trkpt lat="51.926788000" lon="7.572896000">
        <ele>63.2</ele>
        <time>2017-04-29T09:44:54</time>
        <extensions><speed>1.38</speed></extensions>
      </trkpt>
      <trkpt lat="51.926804000" lon="7.572890000">
        <ele>63.2</ele>
        <time>2017-04-29T09:44:55</time>
        <extensions><speed>1.39</speed></extensions>
      </trkpt>
      <trkpt lat="51.926819000" lon="7.572885000">
        <ele>63.2</ele>
        <time>2017-04-29T09:44:56</time>
        <extensions><speed>1.47</speed></extensions>
      </trkpt>
      <trkpt lat="51.926830000" lon="7.572884000">
        <ele>63.2</ele>
        <time>2017-04-29T09:44:57</time>
        <extensions><speed>1.50</speed></extensions>
      </trkpt>
      <trkpt lat="51.926846000" lon="7.572882000">
        <ele>63.1</ele>
        <time>2017-04-29T09:44:58</time>
        <extensions><speed>1.45</speed></extensions>
      </trkpt>
      <trkpt lat="51.926853000" lon="7.572880000">
        <ele>63.1</ele>
        <time>2017-04-29T09:44:59</time>
        <extensions><speed>1.39</speed></extensions>
      </trkpt>
      <trkpt lat="51.926868000" lon="7.572878000">
        <ele>63.1</ele>
        <time>2017-04-29T09:45:00</time>
        <extensions><speed>1.45</speed></extensions>
      </trkpt>
      <trkpt lat="51.926884000" lon="7.572876000">
        <ele>63.1</ele>
        <time>2017-04-29T09:45:01</time>
        <extensions><speed>1.49</speed></extensions>
      </trkpt>
      <trkpt lat="51.926895000" lon="7.572875000">
        <ele>63.1</ele>
        <time>2017-04-29T09:45:02</time>
        <extensions><speed>1.43</speed></extensions>
      </trkpt>
      <trkpt lat="51.926907000" lon="7.572873000">
        <ele>63.1</ele>
        <time>2017-04-29T09:45:03</time>
        <extensions><speed>1.40</speed></extensions>
      </trkpt>
      <trkpt lat="51.926918000" lon="7.572876000">
        <ele>63.0</ele>
        <time>2017-04-29T09:45:04</time>
        <extensions><speed>1.42</speed></extensions>
      </trkpt>
      <trkpt lat="51.926933000" lon="7.572875000">
        <ele>63.0</ele>
        <time>2017-04-29T09:45:05</time>
        <extensions><speed>1.33</speed></extensions>
      </trkpt>
      <trkpt lat="51.926949000" lon="7.572873000">
        <ele>63.0</ele>
        <time>2017-04-29T09:45:06</time>
        <extensions><speed>1.32</speed></extensions>
      </trkpt>
      <trkpt lat="51.926960000" lon="7.572870000">
        <ele>63.0</ele>
        <time>2017-04-29T09:45:07</time>
        <extensions><speed>1.35</speed></extensions>
      </trkpt>
      <trkpt lat="51.926975000" lon="7.572863000">
        <ele>63.0</ele>
        <time>2017-04-29T09:45:08</time>
        <extensions><speed>1.35</speed></extensions>
      </trkpt>
      <trkpt lat="51.926987000" lon="7.572859000">
        <ele>63.0</ele>
        <time>2017-04-29T09:45:09</time>
        <extensions><speed>1.35</speed></extensions>
      </trkpt>
      <trkpt lat="51.927006000" lon="7.572855000">
        <ele>63.0</ele>
        <time>2017-04-29T09:45:10</time>
        <extensions><speed>1.41</speed></extensions>
      </trkpt>
      <trkpt lat="51.927010000" lon="7.572857000">
        <ele>63.0</ele>
        <time>2017-04-29T09:45:11</time>
      </trkpt>
      <trkpt lat="51.927021000" lon="7.572855000">
        <ele>63.0</ele>
        <time>2017-04-29T09:45:13</time>
        <extensions><speed>1.39</speed></extensions>
      </trkpt>
      <trkpt lat="51.927036000" lon="7.572852000">
        <ele>63.0</ele>
        <time>2017-04-29T09:45:14</time>
        <extensions><speed>1.28</speed></extensions>
      </trkpt>
      <trkpt lat="51.927048000" lon="7.572848000">
        <ele>63.0</ele>
        <time>2017-04-29T09:45:15</time>
        <extensions><speed>1.28</speed></extensions>
      </trkpt>
      <trkpt lat="51.927063000" lon="7.572844000">
        <ele>63.0</ele>
        <time>2017-04-29T09:45:16</time>
        <extensions><speed>1.40</speed></extensions>
      </trkpt>
      <trkpt lat="51.927078000" lon="7.572838000">
        <ele>63.0</ele>
        <time>2017-04-29T09:45:17</time>
        <extensions><speed>1.50</speed></extensions>
      </trkpt>
      <trkpt lat="51.927094000" lon="7.572835000">
        <ele>63.0</ele>
        <time>2017-04-29T09:45:18</time>
        <extensions><speed>1.51</speed></extensions>
      </trkpt>
      <trkpt lat="51.927113000" lon="7.572833000">
        <ele>62.9</ele>
        <time>2017-04-29T09:45:19</time>
        <extensions><speed>1.51</speed></extensions>
      </trkpt>
      <trkpt lat="51.927124000" lon="7.572831000">
        <ele>62.9</ele>
        <time>2017-04-29T09:45:20</time>
        <extensions><speed>1.49</speed></extensions>
      </trkpt>
      <trkpt lat="51.927143000" lon="7.572826000">
        <ele>62.9</ele>
        <time>2017-04-29T09:45:21</time>
        <extensions><speed>1.49</speed></extensions>
      </trkpt>
      <trkpt lat="51.927151000" lon="7.572824000">
        <ele>62.9</ele>
        <time>2017-04-29T09:45:22</time>
        <extensions><speed>1.43</speed></extensions>
      </trkpt>
      <trkpt lat="51.927166000" lon="7.572822000">
        <ele>62.9</ele>
        <time>2017-04-29T09:45:23</time>
        <extensions><speed>1.38</speed></extensions>
      </trkpt>
      <trkpt lat="51.927177000" lon="7.572815000">
        <ele>62.9</ele>
        <time>2017-04-29T09:45:24</time>
        <extensions><speed>1.33</speed></extensions>
      </trkpt>
      <trkpt lat="51.927189000" lon="7.572810000">
        <ele>62.9</ele>
        <time>2017-04-29T09:45:25</time>
        <extensions><speed>1.33</speed></extensions>
      </trkpt>
      <trkpt lat="51.927204000" lon="7.572807000">
        <ele>62.9</ele>
        <time>2017-04-29T09:45:26</time>
        <extensions><speed>1.33</speed></extensions>
      </trkpt>
      <trkpt lat="51.927212000" lon="7.572800000">
        <ele>62.9</ele>
        <time>2017-04-29T09:45:27</time>
        <extensions><speed>1.32</speed></extensions>
      </trkpt>
      <trkpt lat="51.927223000" lon="7.572796000">
        <ele>62.9</ele>
        <time>2017-04-29T09:45:28</time>
        <extensions><speed>1.32</speed></extensions>
      </trkpt>
      <trkpt lat="51.927238000" lon="7.572791000">
        <ele>62.9</ele>
        <time>2017-04-29T09:45:29</time>
        <extensions><speed>1.31</speed></extensions>
      </trkpt>
      <trkpt lat="51.927250000" lon="7.572787000">
        <ele>62.9</ele>
        <time>2017-04-29T09:45:30</time>
        <extensions><speed>1.30</speed></extensions>
      </trkpt>
      <trkpt lat="51.927265000" lon="7.572785000">
        <ele>62.9</ele>
        <time>2017-04-29T09:45:31</time>
        <extensions><speed>1.28</speed></extensions>
      </trkpt>
      <trkpt lat="51.927277000" lon="7.572782000">
        <ele>62.9</ele>
        <time>2017-04-29T09:45:32</time>
        <extensions><speed>1.28</speed></extensions>
      </trkpt>
      <trkpt lat="51.927292000" lon="7.572782000">
        <ele>62.8</ele>
        <time>2017-04-29T09:45:33</time>
        <extensions><speed>1.31</speed></extensions>
      </trkpt>
      <trkpt lat="51.927307000" lon="7.572782000">
        <ele>62.8</ele>
        <time>2017-04-29T09:45:34</time>
        <extensions><speed>1.37</speed></extensions>
      </trkpt>
      <trkpt lat="51.927322000" lon="7.572780000">
        <ele>62.8</ele>
        <time>2017-04-29T09:45:35</time>
        <extensions><speed>1.43</speed></extensions>
      </trkpt>
      <trkpt lat="51.927338000" lon="7.572780000">
        <ele>62.8</ele>
        <time>2017-04-29T09:45:36</time>
        <extensions><speed>1.43</speed></extensions>
      </trkpt>
      <trkpt lat="51.927345000" lon="7.572778000">
        <ele>62.8</ele>
        <time>2017-04-29T09:45:37</time>
        <extensions><speed>1.30</speed></extensions>
      </trkpt>
      <trkpt lat="51.927353000" lon="7.572778000">
        <ele>62.8</ele>
        <time>2017-04-29T09:45:38</time>
      </trkpt>
      <trkpt lat="51.927364000" lon="7.572775000">
        <ele>62.8</ele>
        <time>2017-04-29T09:45:40</time>
        <extensions><speed>1.08</speed></extensions>
      </trkpt>
      <trkpt lat="51.927372000" lon="7.572766000">
        <ele>62.8</ele>
        <time>2017-04-29T09:45:41</time>
        <extensions><speed>1.16</speed></extensions>
      </trkpt>
      <trkpt lat="51.927387000" lon="7.572758000">
        <ele>62.8</ele>
        <time>2017-04-29T09:45:42</time>
        <extensions><speed>1.22</speed></extensions>
      </trkpt>
      <trkpt lat="51.927402000" lon="7.572755000">
        <ele>62.8</ele>
        <time>2017-04-29T09:45:43</time>
        <extensions><speed>1.31</speed></extensions>
      </trkpt>
      <trkpt lat="51.927418000" lon="7.572754000">
        <ele>62.8</ele>
        <time>2017-04-29T09:45:44</time>
        <extensions><speed>1.40</speed></extensions>
      </trkpt>
      <trkpt lat="51.927433000" lon="7.572749000">
        <ele>62.8</ele>
        <time>2017-04-29T09:45:45</time>
        <extensions><speed>1.45</speed></extensions>
      </trkpt>
      <trkpt lat="51.927444000" lon="7.572743000">
        <ele>62.7</ele>
        <time>2017-04-29T09:45:46</time>
        <extensions><speed>1.45</speed></extensions>
      </trkpt>
      <trkpt lat="51.927460000" lon="7.572740000">
        <ele>62.7</ele>
        <time>2017-04-29T09:45:47</time>
        <extensions><speed>1.41</speed></extensions>
      </trkpt>
      <trkpt lat="51.927471000" lon="7.572735000">
        <ele>62.7</ele>
        <time>2017-04-29T09:45:48</time>
        <extensions><speed>1.41</speed></extensions>
      </trkpt>
      <trkpt lat="51.927486000" lon="7.572728000">
        <ele>62.7</ele>
        <time>2017-04-29T09:45:49</time>
        <extensions><speed>1.41</speed></extensions>
      </trkpt>
      <trkpt lat="51.927502000" lon="7.572725000">
        <ele>62.7</ele>
        <time>2017-04-29T09:45:50</time>
        <extensions><speed>1.39</speed></extensions>
      </trkpt>
      <trkpt lat="51.927509000" lon="7.572722000">
        <ele>62.7</ele>
        <time>2017-04-29T09:45:51</time>
        <extensions><speed>1.37</speed></extensions>
      </trkpt>
      <trkpt lat="51.927525000" lon="7.572717000">
        <ele>62.7</ele>
        <time>2017-04-29T09:45:52</time>
        <extensions><speed>1.31</speed></extensions>
      </trkpt>
      <trkpt lat="51.927536000" lon="7.572709000">
        <ele>62.7</ele>
        <time>2017-04-29T09:45:53</time>
        <extensions><speed>1.27</speed></extensions>
      </trkpt>
      <trkpt lat="51.927544000" lon="7.572701000">
        <ele>62.6</ele>
        <time>2017-04-29T09:45:54</time>
        <extensions><speed>1.24</speed></extensions>
      </trkpt>
      <trkpt lat="51.927559000" lon="7.572695000">
        <ele>62.6</ele>
        <time>2017-04-29T09:45:55</time>
        <extensions><speed>1.26</speed></extensions>
      </trkpt>
      <trkpt lat="51.927570000" lon="7.572688000">
        <ele>62.6</ele>
        <time>2017-04-29T09:45:56</time>
        <extensions><speed>1.32</speed></extensions>
      </trkpt>
      <trkpt lat="51.927586000" lon="7.572680000">
        <ele>62.6</ele>
        <time>2017-04-29T09:45:57</time>
        <extensions><speed>1.32</speed></extensions>
      </trkpt>
      <trkpt lat="51.927597000" lon="7.572675000">
        <ele>62.6</ele>
        <time>2017-04-29T09:45:58</time>
        <extensions><speed>1.30</speed></extensions>
      </trkpt>
      <trkpt lat="51.927608000" lon="7.572668000">
        <ele>62.6</ele>
        <time>2017-04-29T09:45:59</time>
        <extensions><speed>1.30</speed></extensions>
      </trkpt>
      <trkpt lat="51.927620000" lon="7.572660000">
        <ele>62.6</ele>
        <time>2017-04-29T09:46:00</time>
        <extensions><speed>1.30</speed></extensions>
      </trkpt>
      <trkpt lat="51.927635000" lon="7.572653000">
        <ele>62.5</ele>
        <time>2017-04-29T09:46:01</time>
        <extensions><speed>1.33</speed></extensions>
      </trkpt>
      <trkpt lat="51.927647000" lon="7.572645000">
        <ele>62.5</ele>
        <time>2017-04-29T09:46:02</time>
        <extensions><speed>1.40</speed></extensions>
      </trkpt>
      <trkpt lat="51.927662000" lon="7.572642000">
        <ele>62.5</ele>
        <time>2017-04-29T09:46:03</time>
        <extensions><speed>1.39</speed></extensions>
      </trkpt>
      <trkpt lat="51.927673000" lon="7.572637000">
        <ele>62.5</ele>
        <time>2017-04-29T09:46:04</time>
        <extensions><speed>1.42</speed></extensions>
      </trkpt>
      <trkpt lat="51.927685000" lon="7.572628000">
        <ele>62.5</ele>
        <time>2017-04-29T09:46:05</time>
        <extensions><speed>1.40</speed></extensions>
      </trkpt>
      <trkpt lat="51.927700000" lon="7.572618000">
        <ele>62.5</ele>
        <time>2017-04-29T09:46:06</time>
        <extensions><speed>1.33</speed></extensions>
      </trkpt>
      <trkpt lat="51.927708000" lon="7.572608000">
        <ele>62.5</ele>
        <time>2017-04-29T09:46:07</time>
        <extensions><speed>1.33</speed></extensions>
      </trkpt>
      <trkpt lat="51.927723000" lon="7.572603000">
        <ele>62.5</ele>
        <time>2017-04-29T09:46:08</time>
        <extensions><speed>1.33</speed></extensions>
      </trkpt>
      <trkpt lat="51.927734000" lon="7.572600000">
        <ele>62.5</ele>
        <time>2017-04-29T09:46:09</time>
        <extensions><speed>1.32</speed></extensions>
      </trkpt>
      <trkpt lat="51.927746000" lon="7.572595000">
        <ele>62.4</ele>
        <time>2017-04-29T09:46:10</time>
        <extensions><speed>1.25</speed></extensions>
      </trkpt>
      <trkpt lat="51.927757000" lon="7.572591000">
        <ele>62.4</ele>
        <time>2017-04-29T09:46:11</time>
        <extensions><speed>1.26</speed></extensions>
      </trkpt>
      <trkpt lat="51.927769000" lon="7.572588000">
        <ele>62.4</ele>
        <time>2017-04-29T09:46:12</time>
        <extensions><speed>1.26</speed></extensions>
      </trkpt>
      <trkpt lat="51.927780000" lon="7.572582000">
        <ele>62.4</ele>
        <time>2017-04-29T09:46:13</time>
        <extensions><speed>1.30</speed></extensions>
      </trkpt>
      <trkpt lat="51.927795000" lon="7.572574000">
        <ele>62.4</ele>
        <time>2017-04-29T09:46:14</time>
        <extensions><speed>1.32</speed></extensions>
      </trkpt>
      <trkpt lat="51.927807000" lon="7.572567000">
        <ele>62.4</ele>
        <time>2017-04-29T09:46:15</time>
        <extensions><speed>1.32</speed></extensions>
      </trkpt>
      <trkpt lat="51.927818000" lon="7.572563000">
        <ele>62.4</ele>
        <time>2017-04-29T09:46:16</time>
        <extensions><speed>1.32</speed></extensions>
      </trkpt>
      <trkpt lat="51.927830000" lon="7.572555000">
        <ele>62.4</ele>
        <time>2017-04-29T09:46:17</time>
        <extensions><speed>1.38</speed></extensions>
      </trkpt>
      <trkpt lat="51.927845000" lon="7.572548000">
        <ele>62.4</ele>
        <time>2017-04-29T09:46:18</time>
        <extensions><speed>1.42</speed></extensions>
      </trkpt>
      <trkpt lat="51.927860000" lon="7.572542000">
        <ele>62.4</ele>
        <time>2017-04-29T09:46:19</time>
        <extensions><speed>1.40</speed></extensions>
      </trkpt>
      <trkpt lat="51.927872000" lon="7.572535000">
        <ele>62.4</ele>
        <time>2017-04-29T09:46:20</time>
        <extensions><speed>1.44</speed></extensions>
      </trkpt>
      <trkpt lat="51.927883000" lon="7.572528000">
        <ele>62.3</ele>
        <time>2017-04-29T09:46:21</time>
        <extensions><speed>1.44</speed></extensions>
      </trkpt>
      <trkpt lat="51.927895000" lon="7.572520000">
        <ele>62.3</ele>
        <time>2017-04-29T09:46:22</time>
        <extensions><speed>1.37</speed></extensions>
      </trkpt>
      <trkpt lat="51.927906000" lon="7.572509000">
        <ele>62.3</ele>
        <time>2017-04-29T09:46:23</time>
        <extensions><speed>1.32</speed></extensions>
      </trkpt>
      <trkpt lat="51.927917000" lon="7.572500000">
        <ele>62.3</ele>
        <time>2017-04-29T09:46:24</time>
        <extensions><speed>1.31</speed></extensions>
      </trkpt>
      <trkpt lat="51.927929000" lon="7.572497000">
        <ele>62.3</ele>
        <time>2017-04-29T09:46:25</time>
        <extensions><speed>1.26</speed></extensions>
      </trkpt>
      <trkpt lat="51.927937000" lon="7.572492000">
        <ele>62.3</ele>
        <time>2017-04-29T09:46:26</time>
        <extensions><speed>1.17</speed></extensions>
      </trkpt>
      <trkpt lat="51.927952000" lon="7.572483000">
        <ele>62.3</ele>
        <time>2017-04-29T09:46:27</time>
        <extensions><speed>1.15</speed></extensions>
      </trkpt>
      <trkpt lat="51.927959000" lon="7.572477000">
        <ele>62.3</ele>
        <time>2017-04-29T09:46:28</time>
        <extensions><speed>1.20</speed></extensions>
      </trkpt>
      <trkpt lat="51.927975000" lon="7.572467000">
        <ele>62.3</ele>
        <time>2017-04-29T09:46:29</time>
        <extensions><speed>1.14</speed></extensions>
      </trkpt>
      <trkpt lat="51.927982000" lon="7.572456000">
        <ele>62.3</ele>
        <time>2017-04-29T09:46:30</time>
        <extensions><speed>1.20</speed></extensions>
      </trkpt>
      <trkpt lat="51.927994000" lon="7.572444000">
        <ele>62.2</ele>
        <time>2017-04-29T09:46:31</time>
        <extensions><speed>1.20</speed></extensions>
      </trkpt>
      <trkpt lat="51.928001000" lon="7.572437000">
        <ele>62.2</ele>
        <time>2017-04-29T09:46:32</time>
        <extensions><speed>1.21</speed></extensions>
      </trkpt>
      <trkpt lat="51.928013000" lon="7.572433000">
        <ele>62.2</ele>
        <time>2017-04-29T09:46:33</time>
        <extensions><speed>1.19</speed></extensions>
      </trkpt>
      <trkpt lat="51.928024000" lon="7.572430000">
        <ele>62.2</ele>
        <time>2017-04-29T09:46:34</time>
        <extensions><speed>1.20</speed></extensions>
      </trkpt>
      <trkpt lat="51.928043000" lon="7.572430000">
        <ele>62.2</ele>
        <time>2017-04-29T09:46:35</time>
        <extensions><speed>1.26</speed></extensions>
      </trkpt>
      <trkpt lat="51.928055000" lon="7.572420000">
        <ele>62.2</ele>
        <time>2017-04-29T09:46:36</time>
        <extensions><speed>1.29</speed></extensions>
      </trkpt>
      <trkpt lat="51.928062000" lon="7.572410000">
        <ele>62.2</ele>
        <time>2017-04-29T09:46:37</time>
        <extensions><speed>1.31</speed></extensions>
      </trkpt>
      <trkpt lat="51.928074000" lon="7.572402000">
        <ele>62.2</ele>
        <time>2017-04-29T09:46:38</time>
        <extensions><speed>1.31</speed></extensions>
      </trkpt>
      <trkpt lat="51.928085000" lon="7.572392000">
        <ele>62.2</ele>
        <time>2017-04-29T09:46:39</time>
        <extensions><speed>1.25</speed></extensions>
      </trkpt>
      <trkpt lat="51.928093000" lon="7.572381000">
        <ele>62.1</ele>
        <time>2017-04-29T09:46:40</time>
        <extensions><speed>1.16</speed></extensions>
      </trkpt>
      <trkpt lat="51.928104000" lon="7.572375000">
        <ele>62.1</ele>
        <time>2017-04-29T09:46:41</time>
        <extensions><speed>1.16</speed></extensions>
      </trkpt>
      <trkpt lat="51.928116000" lon="7.572369000">
        <ele>62.1</ele>
        <time>2017-04-29T09:46:42</time>
        <extensions><speed>1.00</speed></extensions>
      </trkpt>
      <trkpt lat="51.928123000" lon="7.572360000">
        <ele>62.1</ele>
        <time>2017-04-29T09:46:43</time>
        <extensions><speed>1.04</speed></extensions>
      </trkpt>
      <trkpt lat="51.928131000" lon="7.572351000">
        <ele>62.1</ele>
        <time>2017-04-29T09:46:44</time>
        <extensions><speed>1.02</speed></extensions>
      </trkpt>
      <trkpt lat="51.928146000" lon="7.572340000">
        <ele>62.1</ele>
        <time>2017-04-29T09:46:45</time>
        <extensions><speed>1.14</speed></extensions>
      </trkpt>
      <trkpt lat="51.928154000" lon="7.572330000">
        <ele>62.1</ele>
        <time>2017-04-29T09:46:46</time>
        <extensions><speed>1.10</speed></extensions>
      </trkpt>
      <trkpt lat="51.928169000" lon="7.572317000">
        <ele>62.1</ele>
        <time>2017-04-29T09:46:47</time>
        <extensions><speed>1.27</speed></extensions>
      </trkpt>
      <trkpt lat="51.928181000" lon="7.572302000">
        <ele>62.1</ele>
        <time>2017-04-29T09:46:48</time>
        <extensions><speed>1.35</speed></extensions>
      </trkpt>
      <trkpt lat="51.928188000" lon="7.572290000">
        <ele>62.0</ele>
        <time>2017-04-29T09:46:49</time>
        <extensions><speed>1.35</speed></extensions>
      </trkpt>
      <trkpt lat="51.928204000" lon="7.572280000">
        <ele>62.0</ele>
        <time>2017-04-29T09:46:50</time>
        <extensions><speed>1.25</speed></extensions>
      </trkpt>
      <trkpt lat="51.928215000" lon="7.572269000">
        <ele>62.0</ele>
        <time>2017-04-29T09:46:51</time>
        <extensions><speed>1.25</speed></extensions>
      </trkpt>
      <trkpt lat="51.928223000" lon="7.572258000">
        <ele>62.0</ele>
        <time>2017-04-29T09:46:52</time>
        <extensions><speed>1.18</speed></extensions>
      </trkpt>
      <trkpt lat="51.928234000" lon="7.572250000">
        <ele>62.0</ele>
        <time>2017-04-29T09:46:53</time>
        <extensions><speed>1.18</speed></extensions>
      </trkpt>
      <trkpt lat="51.928246000" lon="7.572245000">
        <ele>62.0</ele>
        <time>2017-04-29T09:46:54</time>
        <extensions><speed>1.17</speed></extensions>
      </trkpt>
      <trkpt lat="51.928253000" lon="7.572236000">
        <ele>62.0</ele>
        <time>2017-04-29T09:46:55</time>
        <extensions><speed>1.22</speed></extensions>
      </trkpt>
      <trkpt lat="51.928268000" lon="7.572227000">
        <ele>62.0</ele>
        <time>2017-04-29T09:46:56</time>
        <extensions><speed>1.24</speed></extensions>
      </trkpt>
      <trkpt lat="51.928284000" lon="7.572217000">
        <ele>62.0</ele>
        <time>2017-04-29T09:46:57</time>
        <extensions><speed>1.22</speed></extensions>
      </trkpt>
      <trkpt lat="51.928291000" lon="7.572208000">
        <ele>62.0</ele>
        <time>2017-04-29T09:46:58</time>
        <extensions><speed>1.19</speed></extensions>
      </trkpt>
      <trkpt lat="51.928307000" lon="7.572199000">
        <ele>62.0</ele>
        <time>2017-04-29T09:46:59</time>
        <extensions><speed>1.19</speed></extensions>
      </trkpt>
      <trkpt lat="51.928318000" lon="7.572188000">
        <ele>62.0</ele>
        <time>2017-04-29T09:47:00</time>
        <extensions><speed>1.15</speed></extensions>
      </trkpt>
      <trkpt lat="51.928326000" lon="7.572178000">
        <ele>62.0</ele>
        <time>2017-04-29T09:47:01</time>
        <extensions><speed>1.15</speed></extensions>
      </trkpt>
      <trkpt lat="51.928337000" lon="7.572166000">
        <ele>62.0</ele>
        <time>2017-04-29T09:47:02</time>
        <extensions><speed>1.22</speed></extensions>
      </trkpt>
      <trkpt lat="51.928352000" lon="7.572155000">
        <ele>62.0</ele>
        <time>2017-04-29T09:47:03</time>
        <extensions><speed>1.26</speed></extensions>
      </trkpt>
      <trkpt lat="51.928364000" lon="7.572145000">
        <ele>62.0</ele>
        <time>2017-04-29T09:47:04</time>
        <extensions><speed>1.28</speed></extensions>
      </trkpt>
      <trkpt lat="51.928375000" lon="7.572133000">
        <ele>62.0</ele>
        <time>2017-04-29T09:47:05</time>
        <extensions><speed>1.28</speed></extensions>
      </trkpt>
      <trkpt lat="51.928383000" lon="7.572125000">
        <ele>62.0</ele>
        <time>2017-04-29T09:47:06</time>
        <extensions><speed>1.22</speed></extensions>
      </trkpt>
      <trkpt lat="51.928398000" lon="7.572115000">
        <ele>62.0</ele>
        <time>2017-04-29T09:47:07</time>
        <extensions><speed>1.18</speed></extensions>
      </trkpt>
      <trkpt lat="51.928406000" lon="7.572106000">
        <ele>62.0</ele>
        <time>2017-04-29T09:47:08</time>
        <extensions><speed>1.16</speed></extensions>
      </trkpt>
      <trkpt lat="51.928417000" lon="7.572098000">
        <ele>62.0</ele>
        <time>2017-04-29T09:47:09</time>
        <extensions><speed>1.01</speed></extensions>
      </trkpt>
      <trkpt lat="51.928425000" lon="7.572090000">
        <ele>62.0</ele>
        <time>2017-04-29T09:47:10</time>
        <extensions><speed>1.03</speed></extensions>
      </trkpt>
      <trkpt lat="51.928440000" lon="7.572080000">
        <ele>62.0</ele>
        <time>2017-04-29T09:47:11</time>
        <extensions><speed>1.07</speed></extensions>
      </trkpt>
      <trkpt lat="51.928452000" lon="7.572073000">
        <ele>62.0</ele>
        <time>2017-04-29T09:47:12</time>
        <extensions><speed>1.09</speed></extensions>
      </trkpt>
      <trkpt lat="51.928463000" lon="7.572063000">
        <ele>62.0</ele>
        <time>2017-04-29T09:47:13</time>
        <extensions><speed>1.16</speed></extensions>
      </trkpt>
      <trkpt lat="51.928474000" lon="7.572053000">
        <ele>62.0</ele>
        <time>2017-04-29T09:47:14</time>
        <extensions><speed>1.21</speed></extensions>
      </trkpt>
      <trkpt lat="51.928482000" lon="7.572042000">
        <ele>62.0</ele>
        <time>2017-04-29T09:47:15</time>
        <extensions><speed>1.16</speed></extensions>
      </trkpt>
      <trkpt lat="51.928490000" lon="7.572031000">
        <ele>62.0</ele>
        <time>2017-04-29T09:47:16</time>
        <extensions><speed>1.15</speed></extensions>
      </trkpt>
      <trkpt lat="51.928505000" lon="7.572020000">
        <ele>62.0</ele>
        <time>2017-04-29T09:47:17</time>
        <extensions><speed>1.15</speed></extensions>
      </trkpt>
      <trkpt lat="51.928516000" lon="7.572007000">
        <ele>62.0</ele>
        <time>2017-04-29T09:47:18</time>
        <extensions><speed>1.20</speed></extensions>
      </trkpt>
      <trkpt lat="51.928532000" lon="7.571995000">
        <ele>62.0</ele>
        <time>2017-04-29T09:47:19</time>
        <extensions><speed>1.22</speed></extensions>
      </trkpt>
      <trkpt lat="51.928543000" lon="7.571982000">
        <ele>62.0</ele>
        <time>2017-04-29T09:47:20</time>
        <extensions><speed>1.25</speed></extensions>
      </trkpt>
      <trkpt lat="51.928555000" lon="7.571971000">
        <ele>62.0</ele>
        <time>2017-04-29T09:47:21</time>
        <extensions><speed>1.32</speed></extensions>
      </trkpt>
      <trkpt lat="51.928570000" lon="7.571963000">
        <ele>62.0</ele>
        <time>2017-04-29T09:47:22</time>
        <extensions><speed>1.34</speed></extensions>
      </trkpt>
      <trkpt lat="51.928577000" lon="7.571954000">
        <ele>62.0</ele>
        <time>2017-04-29T09:47:23</time>
        <extensions><speed>1.38</speed></extensions>
      </trkpt>
      <trkpt lat="51.928593000" lon="7.571943000">
        <ele>62.0</ele>
        <time>2017-04-29T09:47:24</time>
        <extensions><speed>1.38</speed></extensions>
      </trkpt>
      <trkpt lat="51.928608000" lon="7.571931000">
        <ele>62.0</ele>
        <time>2017-04-29T09:47:25</time>
        <extensions><speed>1.38</speed></extensions>
      </trkpt>
      <trkpt lat="51.928616000" lon="7.571917000">
        <ele>62.0</ele>
        <time>2017-04-29T09:47:26</time>
        <extensions><speed>1.39</speed></extensions>
      </trkpt>
      <trkpt lat="51.928631000" lon="7.571903000">
        <ele>62.0</ele>
        <time>2017-04-29T09:47:27</time>
        <extensions><speed>1.42</speed></extensions>
      </trkpt>
      <trkpt lat="51.928646000" lon="7.571888000">
        <ele>62.0</ele>
        <time>2017-04-29T09:47:28</time>
        <extensions><speed>1.40</speed></extensions>
      </trkpt>
      <trkpt lat="51.928658000" lon="7.571877000">
        <ele>62.0</ele>
        <time>2017-04-29T09:47:29</time>
        <extensions><speed>1.45</speed></extensions>
      </trkpt>
      <trkpt lat="51.928673000" lon="7.571868000">
        <ele>62.0</ele>
        <time>2017-04-29T09:47:30</time>
        <extensions><speed>1.42</speed></extensions>
      </trkpt>
      <trkpt lat="51.928680000" lon="7.571860000">
        <ele>62.0</ele>
        <time>2017-04-29T09:47:31</time>
        <extensions><speed>1.37</speed></extensions>
      </trkpt>
      <trkpt lat="51.928696000" lon="7.571849000">
        <ele>62.0</ele>
        <time>2017-04-29T09:47:32</time>
        <extensions><speed>1.32</speed></extensions>
      </trkpt>
      <trkpt lat="51.928711000" lon="7.571833000">
        <ele>62.0</ele>
        <time>2017-04-29T09:47:33</time>
        <extensions><speed>1.37</speed></extensions>
      </trkpt>
      <trkpt lat="51.928722000" lon="7.571825000">
        <ele>62.0</ele>
        <time>2017-04-29T09:47:34</time>
        <extensions><speed>1.31</speed></extensions>
      </trkpt>
      <trkpt lat="51.928741000" lon="7.571821000">
        <ele>62.0</ele>
        <time>2017-04-29T09:47:35</time>
        <extensions><speed>1.28</speed></extensions>
      </trkpt>
      <trkpt lat="51.928749000" lon="7.571825000">
        <ele>62.0</ele>
        <time>2017-04-29T09:47:36</time>
        <extensions><speed>1.28</speed></extensions>
      </trkpt>
      <trkpt lat="51.928833000" lon="7.571983000">
        <ele>62.0</ele>
        <time>2017-04-29T09:47:51</time>
      </trkpt>
      <trkpt lat="51.928841000" lon="7.572001000">
        <ele>62.0</ele>
        <time>2017-04-29T09:47:53</time>
        <extensions><speed>1.32</speed></extensions>
      </trkpt>
      <trkpt lat="51.928844000" lon="7.572020000">
        <ele>62.0</ele>
        <time>2017-04-29T09:47:54</time>
        <extensions><speed>1.33</speed></extensions>
      </trkpt>
      <trkpt lat="51.928852000" lon="7.572038000">
        <ele>62.0</ele>
        <time>2017-04-29T09:47:55</time>
        <extensions><speed>1.38</speed></extensions>
      </trkpt>
      <trkpt lat="51.928860000" lon="7.572057000">
        <ele>62.0</ele>
        <time>2017-04-29T09:47:56</time>
        <extensions><speed>1.35</speed></extensions>
      </trkpt>
      <trkpt lat="51.928864000" lon="7.572077000">
        <ele>62.0</ele>
        <time>2017-04-29T09:47:57</time>
        <extensions><speed>1.35</speed></extensions>
      </trkpt>
      <trkpt lat="51.928867000" lon="7.572093000">
        <ele>62.0</ele>
        <time>2017-04-29T09:47:58</time>
        <extensions><speed>1.26</speed></extensions>
      </trkpt>
      <trkpt lat="51.928871000" lon="7.572117000">
        <ele>62.0</ele>
        <time>2017-04-29T09:47:59</time>
        <extensions><speed>1.27</speed></extensions>
      </trkpt>
      <trkpt lat="51.928879000" lon="7.572142000">
        <ele>62.0</ele>
        <time>2017-04-29T09:48:00</time>
        <extensions><speed>1.25</speed></extensions>
      </trkpt>
      <trkpt lat="51.928886000" lon="7.572164000">
        <ele>62.0</ele>
        <time>2017-04-29T09:48:01</time>
        <extensions><speed>1.34</speed></extensions>
      </trkpt>
      <trkpt lat="51.928890000" lon="7.572180000">
        <ele>62.0</ele>
        <time>2017-04-29T09:48:02</time>
        <extensions><speed>1.39</speed></extensions>
      </trkpt>
      <trkpt lat="51.928902000" lon="7.572194000">
        <ele>62.0</ele>
        <time>2017-04-29T09:48:03</time>
        <extensions><speed>1.39</speed></extensions>
      </trkpt>
      <trkpt lat="51.928905000" lon="7.572205000">
        <ele>62.0</ele>
        <time>2017-04-29T09:48:04</time>
        <extensions><speed>1.31</speed></extensions>
      </trkpt>
      <trkpt lat="51.928913000" lon="7.572208000">
        <ele>62.0</ele>
        <time>2017-04-29T09:48:05</time>
        <extensions><speed>1.22</speed></extensions>
      </trkpt>
      <trkpt lat="51.928917000" lon="7.572220000">
        <ele>62.0</ele>
        <time>2017-04-29T09:48:06</time>
      </trkpt>
      <trkpt lat="51.928917000" lon="7.572224000">
        <ele>62.0</ele>
        <time>2017-04-29T09:48:08</time>
      </trkpt>
      <trkpt lat="51.928921000" lon="7.572228000">
        <ele>62.0</ele>
        <time>2017-04-29T09:48:10</time>
      </trkpt>
      <trkpt lat="51.928925000" lon="7.572232000">
        <ele>62.0</ele>
        <time>2017-04-29T09:48:12</time>
      </trkpt>
      <trkpt lat="51.928932000" lon="7.572245000">
        <ele>62.0</ele>
        <time>2017-04-29T09:48:14</time>
        <extensions><speed>0.48</speed></extensions>
      </trkpt>
      <trkpt lat="51.928936000" lon="7.572267000">
        <ele>62.0</ele>
        <time>2017-04-29T09:48:15</time>
        <extensions><speed>0.91</speed></extensions>
      </trkpt>
      <trkpt lat="51.928944000" lon="7.572289000">
        <ele>62.0</ele>
        <time>2017-04-29T09:48:16</time>
        <extensions><speed>1.21</speed></extensions>
      </trkpt>
      <trkpt lat="51.928947000" lon="7.572313000">
        <ele>62.0</ele>
        <time>2017-04-29T09:48:17</time>
        <extensions><speed>1.41</speed></extensions>
      </trkpt>
      <trkpt lat="51.928955000" lon="7.572339000">
        <ele>62.0</ele>
        <time>2017-04-29T09:48:18</time>
        <extensions><speed>1.49</speed></extensions>
      </trkpt>
      <trkpt lat="51.928959000" lon="7.572363000">
        <ele>62.0</ele>
        <time>2017-04-29T09:48:19</time>
        <extensions><speed>1.53</speed></extensions>
      </trkpt>
      <trkpt lat="51.928967000" lon="7.572385000">
        <ele>62.0</ele>
        <time>2017-04-29T09:48:20</time>
        <extensions><speed>1.51</speed></extensions>
      </trkpt>
      <trkpt lat="51.928970000" lon="7.572407000">
        <ele>62.0</ele>
        <time>2017-04-29T09:48:21</time>
        <extensions><speed>1.51</speed></extensions>
      </trkpt>
      <trkpt lat="51.928974000" lon="7.572425000">
        <ele>62.0</ele>
        <time>2017-04-29T09:48:22</time>
        <extensions><speed>1.47</speed></extensions>
      </trkpt>
      <trkpt lat="51.928982000" lon="7.572444000">
        <ele>62.0</ele>
        <time>2017-04-29T09:48:23</time>
        <extensions><speed>1.40</speed></extensions>
      </trkpt>
      <trkpt lat="51.928986000" lon="7.572468000">
        <ele>62.0</ele>
        <time>2017-04-29T09:48:24</time>
        <extensions><speed>1.40</speed></extensions>
      </trkpt>
      <trkpt lat="51.928989000" lon="7.572495000">
        <ele>62.1</ele>
        <time>2017-04-29T09:48:25</time>
        <extensions><speed>1.46</speed></extensions>
      </trkpt>
      <trkpt lat="51.928997000" lon="7.572518000">
        <ele>62.1</ele>
        <time>2017-04-29T09:48:26</time>
        <extensions><speed>1.52</speed></extensions>
      </trkpt>
      <trkpt lat="51.929005000" lon="7.572540000">
        <ele>62.1</ele>
        <time>2017-04-29T09:48:27</time>
        <extensions><speed>1.61</speed></extensions>
      </trkpt>
      <trkpt lat="51.929008000" lon="7.572563000">
        <ele>62.2</ele>
        <time>2017-04-29T09:48:28</time>
        <extensions><speed>1.61</speed></extensions>
      </trkpt>
      <trkpt lat="51.929012000" lon="7.572587000">
        <ele>62.2</ele>
        <time>2017-04-29T09:48:29</time>
        <extensions><speed>1.55</speed></extensions>
      </trkpt>
      <trkpt lat="51.929020000" lon="7.572608000">
        <ele>62.2</ele>
        <time>2017-04-29T09:48:30</time>
        <extensions><speed>1.49</speed></extensions>
      </trkpt>
      <trkpt lat="51.929028000" lon="7.572631000">
        <ele>62.2</ele>
        <time>2017-04-29T09:48:31</time>
        <extensions><speed>1.50</speed></extensions>
      </trkpt>
      <trkpt lat="51.929035000" lon="7.572658000">
        <ele>62.3</ele>
        <time>2017-04-29T09:48:32</time>
        <extensions><speed>1.49</speed></extensions>
      </trkpt>
      <trkpt lat="51.929039000" lon="7.572685000">
        <ele>62.3</ele>
        <time>2017-04-29T09:48:33</time>
        <extensions><speed>1.53</speed></extensions>
      </trkpt>
      <trkpt lat="51.929043000" lon="7.572707000">
        <ele>62.3</ele>
        <time>2017-04-29T09:48:34</time>
        <extensions><speed>1.53</speed></extensions>
      </trkpt>
      <trkpt lat="51.929047000" lon="7.572730000">
        <ele>62.3</ele>
        <time>2017-04-29T09:48:35</time>
        <extensions><speed>1.54</speed></extensions>
      </trkpt>
      <trkpt lat="51.929050000" lon="7.572754000">
        <ele>62.3</ele>
        <time>2017-04-29T09:48:36</time>
        <extensions><speed>1.50</speed></extensions>
      </trkpt>
      <trkpt lat="51.929058000" lon="7.572777000">
        <ele>62.4</ele>
        <time>2017-04-29T09:48:37</time>
        <extensions><speed>1.47</speed></extensions>
      </trkpt>
      <trkpt lat="51.929062000" lon="7.572798000">
        <ele>62.4</ele>
        <time>2017-04-29T09:48:38</time>
        <extensions><speed>1.46</speed></extensions>
      </trkpt>
      <trkpt lat="51.929066000" lon="7.572819000">
        <ele>62.4</ele>
        <time>2017-04-29T09:48:39</time>
        <extensions><speed>1.44</speed></extensions>
      </trkpt>
      <trkpt lat="51.929070000" lon="7.572838000">
        <ele>62.5</ele>
        <time>2017-04-29T09:48:40</time>
        <extensions><speed>1.42</speed></extensions>
      </trkpt>
      <trkpt lat="51.929077000" lon="7.572859000">
        <ele>62.5</ele>
        <time>2017-04-29T09:48:41</time>
        <extensions><speed>1.38</speed></extensions>
      </trkpt>
      <trkpt lat="51.929081000" lon="7.572878000">
        <ele>62.5</ele>
        <time>2017-04-29T09:48:42</time>
        <extensions><speed>1.38</speed></extensions>
      </trkpt>
      <trkpt lat="51.929089000" lon="7.572898000">
        <ele>62.6</ele>
        <time>2017-04-29T09:48:43</time>
        <extensions><speed>1.40</speed></extensions>
      </trkpt>
      <trkpt lat="51.929096000" lon="7.572918000">
        <ele>62.6</ele>
        <time>2017-04-29T09:48:44</time>
        <extensions><speed>1.43</speed></extensions>
      </trkpt>
      <trkpt lat="51.929100000" lon="7.572940000">
        <ele>62.6</ele>
        <time>2017-04-29T09:48:45</time>
        <extensions><speed>1.42</speed></extensions>
      </trkpt>
      <trkpt lat="51.929100000" lon="7.572960000">
        <ele>62.6</ele>
        <time>2017-04-29T09:48:46</time>
        <extensions><speed>1.43</speed></extensions>
      </trkpt>
      <trkpt lat="51.929108000" lon="7.572980000">
        <ele>62.6</ele>
        <time>2017-04-29T09:48:47</time>
        <extensions><speed>1.43</speed></extensions>
      </trkpt>
      <trkpt lat="51.929111000" lon="7.573003000">
        <ele>62.6</ele>
        <time>2017-04-29T09:48:48</time>
        <extensions><speed>1.43</speed></extensions>
      </trkpt>
      <trkpt lat="51.929115000" lon="7.573025000">
        <ele>62.7</ele>
        <time>2017-04-29T09:48:49</time>
        <extensions><speed>1.43</speed></extensions>
      </trkpt>
      <trkpt lat="51.929119000" lon="7.573045000">
        <ele>62.7</ele>
        <time>2017-04-29T09:48:50</time>
        <extensions><speed>1.41</speed></extensions>
      </trkpt>
      <trkpt lat="51.929127000" lon="7.573067000">
        <ele>62.7</ele>
        <time>2017-04-29T09:48:51</time>
        <extensions><speed>1.43</speed></extensions>
      </trkpt>
      <trkpt lat="51.929131000" lon="7.573088000">
        <ele>62.7</ele>
        <time>2017-04-29T09:48:52</time>
        <extensions><speed>1.41</speed></extensions>
      </trkpt>
      <trkpt lat="51.929134000" lon="7.573108000">
        <ele>62.7</ele>
        <time>2017-04-29T09:48:53</time>
        <extensions><speed>1.44</speed></extensions>
      </trkpt>
      <trkpt lat="51.929138000" lon="7.573129000">
        <ele>62.7</ele>
        <time>2017-04-29T09:48:54</time>
        <extensions><speed>1.38</speed></extensions>
      </trkpt>
      <trkpt lat="51.929142000" lon="7.573150000">
        <ele>62.7</ele>
        <time>2017-04-29T09:48:55</time>
        <extensions><speed>1.44</speed></extensions>
      </trkpt>
      <trkpt lat="51.929150000" lon="7.573170000">
        <ele>62.7</ele>
        <time>2017-04-29T09:48:56</time>
        <extensions><speed>1.40</speed></extensions>
      </trkpt>
      <trkpt lat="51.929157000" lon="7.573188000">
        <ele>62.7</ele>
        <time>2017-04-29T09:48:57</time>
        <extensions><speed>1.40</speed></extensions>
      </trkpt>
      <trkpt lat="51.929165000" lon="7.573210000">
        <ele>62.7</ele>
        <time>2017-04-29T09:48:58</time>
        <extensions><speed>1.40</speed></extensions>
      </trkpt>
      <trkpt lat="51.929165000" lon="7.573235000">
        <ele>62.7</ele>
        <time>2017-04-29T09:48:59</time>
        <extensions><speed>1.41</speed></extensions>
      </trkpt>
      <trkpt lat="51.929169000" lon="7.573256000">
        <ele>62.7</ele>
        <time>2017-04-29T09:49:00</time>
        <extensions><speed>1.41</speed></extensions>
      </trkpt>
      <trkpt lat="51.929173000" lon="7.573279000">
        <ele>62.7</ele>
        <time>2017-04-29T09:49:01</time>
        <extensions><speed>1.48</speed></extensions>
      </trkpt>
      <trkpt lat="51.929176000" lon="7.573304000">
        <ele>62.7</ele>
        <time>2017-04-29T09:49:02</time>
        <extensions><speed>1.50</speed></extensions>
      </trkpt>
      <trkpt lat="51.929176000" lon="7.573325000">
        <ele>62.7</ele>
        <time>2017-04-29T09:49:03</time>
        <extensions><speed>1.49</speed></extensions>
      </trkpt>
      <trkpt lat="51.929180000" lon="7.573349000">
        <ele>62.7</ele>
        <time>2017-04-29T09:49:04</time>
        <extensions><speed>1.52</speed></extensions>
      </trkpt>
      <trkpt lat="51.929184000" lon="7.573372000">
        <ele>62.7</ele>
        <time>2017-04-29T09:49:05</time>
        <extensions><speed>1.52</speed></extensions>
      </trkpt>
      <trkpt lat="51.929192000" lon="7.573390000">
        <ele>62.7</ele>
        <time>2017-04-29T09:49:06</time>
        <extensions><speed>1.49</speed></extensions>
      </trkpt>
      <trkpt lat="51.929199000" lon="7.573402000">
        <ele>62.7</ele>
        <time>2017-04-29T09:49:07</time>
        <extensions><speed>1.41</speed></extensions>
      </trkpt>
      <trkpt lat="51.929207000" lon="7.573414000">
        <ele>62.7</ele>
        <time>2017-04-29T09:49:08</time>
        <extensions><speed>1.28</speed></extensions>
      </trkpt>
      <trkpt lat="51.929214000" lon="7.573430000">
        <ele>62.6</ele>
        <time>2017-04-29T09:49:09</time>
        <extensions><speed>1.25</speed></extensions>
      </trkpt>
      <trkpt lat="51.929222000" lon="7.573445000">
        <ele>62.6</ele>
        <time>2017-04-29T09:49:10</time>
        <extensions><speed>1.23</speed></extensions>
      </trkpt>
      <trkpt lat="51.929230000" lon="7.573463000">
        <ele>62.6</ele>
        <time>2017-04-29T09:49:11</time>
        <extensions><speed>1.26</speed></extensions>
      </trkpt>
      <trkpt lat="51.929234000" lon="7.573482000">
        <ele>62.6</ele>
        <time>2017-04-29T09:49:12</time>
        <extensions><speed>1.37</speed></extensions>
      </trkpt>
      <trkpt lat="51.929237000" lon="7.573503000">
        <ele>62.6</ele>
        <time>2017-04-29T09:49:13</time>
        <extensions><speed>1.43</speed></extensions>
      </trkpt>
      <trkpt lat="51.929245000" lon="7.573524000">
        <ele>62.6</ele>
        <time>2017-04-29T09:49:14</time>
        <extensions><speed>1.48</speed></extensions>
      </trkpt>
      <trkpt lat="51.929253000" lon="7.573544000">
        <ele>62.6</ele>
        <time>2017-04-29T09:49:15</time>
        <extensions><speed>1.48</speed></extensions>
      </trkpt>
      <trkpt lat="51.929260000" lon="7.573563000">
        <ele>62.6</ele>
        <time>2017-04-29T09:49:16</time>
        <extensions><speed>1.48</speed></extensions>
      </trkpt>
      <trkpt lat="51.929264000" lon="7.573582000">
        <ele>62.6</ele>
        <time>2017-04-29T09:49:17</time>
        <extensions><speed>1.49</speed></extensions>
      </trkpt>
      <trkpt lat="51.929272000" lon="7.573601000">
        <ele>62.6</ele>
        <time>2017-04-29T09:49:18</time>
        <extensions><speed>1.49</speed></extensions>
      </trkpt>
      <trkpt lat="51.929279000" lon="7.573622000">
        <ele>62.6</ele>
        <time>2017-04-29T09:49:19</time>
        <extensions><speed>1.48</speed></extensions>
      </trkpt>
      <trkpt lat="51.929283000" lon="7.573640000">
        <ele>62.5</ele>
        <time>2017-04-29T09:49:20</time>
        <extensions><speed>1.47</speed></extensions>
      </trkpt>
      <trkpt lat="51.929291000" lon="7.573660000">
        <ele>62.5</ele>
        <time>2017-04-29T09:49:21</time>
        <extensions><speed>1.47</speed></extensions>
      </trkpt>
      <trkpt lat="51.929295000" lon="7.573680000">
        <ele>62.5</ele>
        <time>2017-04-29T09:49:22</time>
        <extensions><speed>1.47</speed></extensions>
      </trkpt>
      <trkpt lat="51.929295000" lon="7.573699000">
        <ele>62.5</ele>
        <time>2017-04-29T09:49:23</time>
        <extensions><speed>1.47</speed></extensions>
      </trkpt>
      <trkpt lat="51.929295000" lon="7.573720000">
        <ele>62.5</ele>
        <time>2017-04-29T09:49:24</time>
        <extensions><speed>1.47</speed></extensions>
      </trkpt>
      <trkpt lat="51.929298000" lon="7.573738000">
        <ele>62.5</ele>
        <time>2017-04-29T09:49:25</time>
        <extensions><speed>1.48</speed></extensions>
      </trkpt>
      <trkpt lat="51.929298000" lon="7.573761000">
        <ele>62.5</ele>
        <time>2017-04-29T09:49:26</time>
        <extensions><speed>1.48</speed></extensions>
      </trkpt>
      <trkpt lat="51.929298000" lon="7.573781000">
        <ele>62.5</ele>
        <time>2017-04-29T09:49:27</time>
        <extensions><speed>1.50</speed></extensions>
      </trkpt>
      <trkpt lat="51.929302000" lon="7.573803000">
        <ele>62.5</ele>
        <time>2017-04-29T09:49:28</time>
        <extensions><speed>1.50</speed></extensions>
      </trkpt>
      <trkpt lat="51.929302000" lon="7.573825000">
        <ele>62.5</ele>
        <time>2017-04-29T09:49:29</time>
        <extensions><speed>1.47</speed></extensions>
      </trkpt>
      <trkpt lat="51.929302000" lon="7.573846000">
        <ele>62.5</ele>
        <time>2017-04-29T09:49:30</time>
        <extensions><speed>1.51</speed></extensions>
      </trkpt>
      <trkpt lat="51.929306000" lon="7.573867000">
        <ele>62.5</ele>
        <time>2017-04-29T09:49:31</time>
        <extensions><speed>1.57</speed></extensions>
      </trkpt>
      <trkpt lat="51.929310000" lon="7.573887000">
        <ele>62.5</ele>
        <time>2017-04-29T09:49:32</time>
        <extensions><speed>1.52</speed></extensions>
      </trkpt>
      <trkpt lat="51.929310000" lon="7.573906000">
        <ele>62.5</ele>
        <time>2017-04-29T09:49:33</time>
        <extensions><speed>1.51</speed></extensions>
      </trkpt>
      <trkpt lat="51.929314000" lon="7.573927000">
        <ele>62.5</ele>
        <time>2017-04-29T09:49:34</time>
        <extensions><speed>1.52</speed></extensions>
      </trkpt>
      <trkpt lat="51.929317000" lon="7.573946000">
        <ele>62.5</ele>
        <time>2017-04-29T09:49:35</time>
        <extensions><speed>1.50</speed></extensions>
      </trkpt>
      <trkpt lat="51.929321000" lon="7.573965000">
        <ele>62.5</ele>
        <time>2017-04-29T09:49:36</time>
        <extensions><speed>1.47</speed></extensions>
      </trkpt>
      <trkpt lat="51.929321000" lon="7.573987000">
        <ele>62.5</ele>
        <time>2017-04-29T09:49:37</time>
        <extensions><speed>1.48</speed></extensions>
      </trkpt>
      <trkpt lat="51.929329000" lon="7.574005000">
        <ele>62.5</ele>
        <time>2017-04-29T09:49:38</time>
        <extensions><speed>1.50</speed></extensions>
      </trkpt>
      <trkpt lat="51.929337000" lon="7.574021000">
        <ele>62.5</ele>
        <time>2017-04-29T09:49:39</time>
        <extensions><speed>1.51</speed></extensions>
      </trkpt>
      <trkpt lat="51.929340000" lon="7.574040000">
        <ele>62.5</ele>
        <time>2017-04-29T09:49:40</time>
        <extensions><speed>1.48</speed></extensions>
      </trkpt>
      <trkpt lat="51.929344000" lon="7.574057000">
        <ele>62.4</ele>
        <time>2017-04-29T09:49:41</time>
        <extensions><speed>1.46</speed></extensions>
      </trkpt>
      <trkpt lat="51.929344000" lon="7.574075000">
        <ele>62.4</ele>
        <time>2017-04-29T09:49:42</time>
        <extensions><speed>1.46</speed></extensions>
      </trkpt>
      <trkpt lat="51.929344000" lon="7.574100000">
        <ele>62.4</ele>
        <time>2017-04-29T09:49:43</time>
        <extensions><speed>1.46</speed></extensions>
      </trkpt>
      <trkpt lat="51.929348000" lon="7.574125000">
        <ele>62.4</ele>
        <time>2017-04-29T09:49:44</time>
        <extensions><speed>1.48</speed></extensions>
      </trkpt>
      <trkpt lat="51.929352000" lon="7.574143000">
        <ele>62.4</ele>
        <time>2017-04-29T09:49:45</time>
        <extensions><speed>1.52</speed></extensions>
      </trkpt>
      <trkpt lat="51.929356000" lon="7.574160000">
        <ele>62.4</ele>
        <time>2017-04-29T09:49:46</time>
        <extensions><speed>1.52</speed></extensions>
      </trkpt>
      <trkpt lat="51.929359000" lon="7.574177000">
        <ele>62.4</ele>
        <time>2017-04-29T09:49:47</time>
        <extensions><speed>1.51</speed></extensions>
      </trkpt>
      <trkpt lat="51.929363000" lon="7.574195000">
        <ele>62.4</ele>
        <time>2017-04-29T09:49:48</time>
        <extensions><speed>1.48</speed></extensions>
      </trkpt>
      <trkpt lat="51.929371000" lon="7.574217000">
        <ele>62.4</ele>
        <time>2017-04-29T09:49:49</time>
        <extensions><speed>1.48</speed></extensions>
      </trkpt>
      <trkpt lat="51.929375000" lon="7.574237000">
        <ele>62.4</ele>
        <time>2017-04-29T09:49:50</time>
        <extensions><speed>1.49</speed></extensions>
      </trkpt>
      <trkpt lat="51.929382000" lon="7.574255000">
        <ele>62.4</ele>
        <time>2017-04-29T09:49:51</time>
        <extensions><speed>1.49</speed></extensions>
      </trkpt>
      <trkpt lat="51.929390000" lon="7.574272000">
        <ele>62.4</ele>
        <time>2017-04-29T09:49:52</time>
        <extensions><speed>1.47</speed></extensions>
      </trkpt>
      <trkpt lat="51.929394000" lon="7.574288000">
        <ele>62.4</ele>
        <time>2017-04-29T09:49:53</time>
        <extensions><speed>1.45</speed></extensions>
      </trkpt>
      <trkpt lat="51.929398000" lon="7.574306000">
        <ele>62.4</ele>
        <time>2017-04-29T09:49:54</time>
        <extensions><speed>1.41</speed></extensions>
      </trkpt>
      <trkpt lat="51.929405000" lon="7.574325000">
        <ele>62.4</ele>
        <time>2017-04-29T09:49:55</time>
        <extensions><speed>1.41</speed></extensions>
      </trkpt>
      <trkpt lat="51.929409000" lon="7.574347000">
        <ele>62.4</ele>
        <time>2017-04-29T09:49:56</time>
        <extensions><speed>1.43</speed></extensions>
      </trkpt>
      <trkpt lat="51.929417000" lon="7.574367000">
        <ele>62.4</ele>
        <time>2017-04-29T09:49:57</time>
        <extensions><speed>1.47</speed></extensions>
      </trkpt>
      <trkpt lat="51.929424000" lon="7.574385000">
        <ele>62.3</ele>
        <time>2017-04-29T09:49:58</time>
        <extensions><speed>1.44</speed></extensions>
      </trkpt>
      <trkpt lat="51.929428000" lon="7.574400000">
        <ele>62.3</ele>
        <time>2017-04-29T09:49:59</time>
        <extensions><speed>1.46</speed></extensions>
      </trkpt>
      <trkpt lat="51.929428000" lon="7.574419000">
        <ele>62.3</ele>
        <time>2017-04-29T09:50:00</time>
        <extensions><speed>1.40</speed></extensions>
      </trkpt>
      <trkpt lat="51.929432000" lon="7.574435000">
        <ele>62.3</ele>
        <time>2017-04-29T09:50:01</time>
        <extensions><speed>1.32</speed></extensions>
      </trkpt>
      <trkpt lat="51.929443000" lon="7.574452000">
        <ele>62.3</ele>
        <time>2017-04-29T09:50:02</time>
        <extensions><speed>1.32</speed></extensions>
      </trkpt>
      <trkpt lat="51.929451000" lon="7.574466000">
        <ele>62.3</ele>
        <time>2017-04-29T09:50:03</time>
        <extensions><speed>1.33</speed></extensions>
      </trkpt>
      <trkpt lat="51.929459000" lon="7.574480000">
        <ele>62.3</ele>
        <time>2017-04-29T09:50:04</time>
        <extensions><speed>1.31</speed></extensions>
      </trkpt>
      <trkpt lat="51.929459000" lon="7.574497000">
        <ele>62.3</ele>
        <time>2017-04-29T09:50:05</time>
        <extensions><speed>1.34</speed></extensions>
      </trkpt>
      <trkpt lat="51.929466000" lon="7.574513000">
        <ele>62.3</ele>
        <time>2017-04-29T09:50:06</time>
        <extensions><speed>1.36</speed></extensions>
      </trkpt>
      <trkpt lat="51.929474000" lon="7.574529000">
        <ele>62.3</ele>
        <time>2017-04-29T09:50:07</time>
        <extensions><speed>1.35</speed></extensions>
      </trkpt>
      <trkpt lat="51.929485000" lon="7.574543000">
        <ele>62.3</ele>
        <time>2017-04-29T09:50:08</time>
        <extensions><speed>1.37</speed></extensions>
      </trkpt>
      <trkpt lat="51.929493000" lon="7.574560000">
        <ele>62.3</ele>
        <time>2017-04-29T09:50:09</time>
        <extensions><speed>1.37</speed></extensions>
      </trkpt>
      <trkpt lat="51.929497000" lon="7.574578000">
        <ele>62.4</ele>
        <time>2017-04-29T09:50:10</time>
        <extensions><speed>1.37</speed></extensions>
      </trkpt>
      <trkpt lat="51.929501000" lon="7.574595000">
        <ele>62.4</ele>
        <time>2017-04-29T09:50:11</time>
        <extensions><speed>1.34</speed></extensions>
      </trkpt>
      <trkpt lat="51.929508000" lon="7.574612000">
        <ele>62.4</ele>
        <time>2017-04-29T09:50:12</time>
        <extensions><speed>1.31</speed></extensions>
      </trkpt>
      <trkpt lat="51.929516000" lon="7.574630000">
        <ele>62.4</ele>
        <time>2017-04-29T09:50:13</time>
        <extensions><speed>1.31</speed></extensions>
      </trkpt>
      <trkpt lat="51.929520000" lon="7.574648000">
        <ele>62.4</ele>
        <time>2017-04-29T09:50:14</time>
        <extensions><speed>1.36</speed></extensions>
      </trkpt>
      <trkpt lat="51.929523000" lon="7.574669000">
        <ele>62.4</ele>
        <time>2017-04-29T09:50:15</time>
        <extensions><speed>1.38</speed></extensions>
      </trkpt>
      <trkpt lat="51.929527000" lon="7.574688000">
        <ele>62.4</ele>
        <time>2017-04-29T09:50:16</time>
        <extensions><speed>1.39</speed></extensions>
      </trkpt>
      <trkpt lat="51.929535000" lon="7.574706000">
        <ele>62.4</ele>
        <time>2017-04-29T09:50:17</time>
        <extensions><speed>1.40</speed></extensions>
      </trkpt>
      <trkpt lat="51.929546000" lon="7.574725000">
        <ele>62.5</ele>
        <time>2017-04-29T09:50:18</time>
        <extensions><speed>1.47</speed></extensions>
      </trkpt>
      <trkpt lat="51.929554000" lon="7.574743000">
        <ele>62.5</ele>
        <time>2017-04-29T09:50:19</time>
        <extensions><speed>1.43</speed></extensions>
      </trkpt>
      <trkpt lat="51.929558000" lon="7.574762000">
        <ele>62.5</ele>
        <time>2017-04-29T09:50:20</time>
        <extensions><speed>1.36</speed></extensions>
      </trkpt>
      <trkpt lat="51.929562000" lon="7.574780000">
        <ele>62.5</ele>
        <time>2017-04-29T09:50:21</time>
        <extensions><speed>1.36</speed></extensions>
      </trkpt>
      <trkpt lat="51.929565000" lon="7.574800000">
        <ele>62.5</ele>
        <time>2017-04-29T09:50:22</time>
        <extensions><speed>1.34</speed></extensions>
      </trkpt>
      <trkpt lat="51.929573000" lon="7.574818000">
        <ele>62.5</ele>
        <time>2017-04-29T09:50:23</time>
        <extensions><speed>1.32</speed></extensions>
      </trkpt>
      <trkpt lat="51.929581000" lon="7.574835000">
        <ele>62.6</ele>
        <time>2017-04-29T09:50:24</time>
        <extensions><speed>1.32</speed></extensions>
      </trkpt>
      <trkpt lat="51.929588000" lon="7.574850000">
        <ele>62.6</ele>
        <time>2017-04-29T09:50:25</time>
        <extensions><speed>1.32</speed></extensions>
      </trkpt>
      <trkpt lat="51.929592000" lon="7.574865000">
        <ele>62.6</ele>
        <time>2017-04-29T09:50:26</time>
        <extensions><speed>1.32</speed></extensions>
      </trkpt>
      <trkpt lat="51.929600000" lon="7.574881000">
        <ele>62.6</ele>
        <time>2017-04-29T09:50:27</time>
        <extensions><speed>1.32</speed></extensions>
      </trkpt>
      <trkpt lat="51.929607000" lon="7.574898000">
        <ele>62.6</ele>
        <time>2017-04-29T09:50:28</time>
        <extensions><speed>1.34</speed></extensions>
      </trkpt>
      <trkpt lat="51.929615000" lon="7.574916000">
        <ele>62.7</ele>
        <time>2017-04-29T09:50:29</time>
        <extensions><speed>1.35</speed></extensions>
      </trkpt>
      <trkpt lat="51.929623000" lon="7.574937000">
        <ele>62.7</ele>
        <time>2017-04-29T09:50:30</time>
        <extensions><speed>1.34</speed></extensions>
      </trkpt>
      <trkpt lat="51.929626000" lon="7.574953000">
        <ele>62.7</ele>
        <time>2017-04-29T09:50:31</time>
        <extensions><speed>1.35</speed></extensions>
      </trkpt>
      <trkpt lat="51.929634000" lon="7.574968000">
        <ele>62.7</ele>
        <time>2017-04-29T09:50:32</time>
        <extensions><speed>1.34</speed></extensions>
      </trkpt>
      <trkpt lat="51.929646000" lon="7.574984000">
        <ele>62.7</ele>
        <time>2017-04-29T09:50:33</time>
        <extensions><speed>1.34</speed></extensions>
      </trkpt>
      <trkpt lat="51.929653000" lon="7.574998000">
        <ele>62.8</ele>
        <time>2017-04-29T09:50:34</time>
        <extensions><speed>1.36</speed></extensions>
      </trkpt>
      <trkpt lat="51.929657000" lon="7.575017000">
        <ele>62.8</ele>
        <time>2017-04-29T09:50:35</time>
        <extensions><speed>1.41</speed></extensions>
      </trkpt>
      <trkpt lat="51.929668000" lon="7.575035000">
        <ele>62.8</ele>
        <time>2017-04-29T09:50:36</time>
        <extensions><speed>1.44</speed></extensions>
      </trkpt>
      <trkpt lat="51.929676000" lon="7.575052000">
        <ele>62.8</ele>
        <time>2017-04-29T09:50:37</time>
        <extensions><speed>1.47</speed></extensions>
      </trkpt>
      <trkpt lat="51.929688000" lon="7.575068000">
        <ele>62.8</ele>
        <time>2017-04-29T09:50:38</time>
        <extensions><speed>1.48</speed></extensions>
      </trkpt>
      <trkpt lat="51.929691000" lon="7.575085000">
        <ele>62.8</ele>
        <time>2017-04-29T09:50:39</time>
        <extensions><speed>1.46</speed></extensions>
      </trkpt>
      <trkpt lat="51.929699000" lon="7.575100000">
        <ele>62.9</ele>
        <time>2017-04-29T09:50:40</time>
        <extensions><speed>1.42</speed></extensions>
      </trkpt>
      <trkpt lat="51.929707000" lon="7.575115000">
        <ele>62.9</ele>
        <time>2017-04-29T09:50:41</time>
        <extensions><speed>1.36</speed></extensions>
      </trkpt>
      <trkpt lat="51.929718000" lon="7.575130000">
        <ele>62.9</ele>
        <time>2017-04-29T09:50:42</time>
        <extensions><speed>1.33</speed></extensions>
      </trkpt>
      <trkpt lat="51.929722000" lon="7.575147000">
        <ele>62.9</ele>
        <time>2017-04-29T09:50:43</time>
        <extensions><speed>1.31</speed></extensions>
      </trkpt>
      <trkpt lat="51.929729000" lon="7.575163000">
        <ele>62.9</ele>
        <time>2017-04-29T09:50:44</time>
        <extensions><speed>1.35</speed></extensions>
      </trkpt>
      <trkpt lat="51.929737000" lon="7.575180000">
        <ele>62.9</ele>
        <time>2017-04-29T09:50:45</time>
        <extensions><speed>1.36</speed></extensions>
      </trkpt>
      <trkpt lat="51.929745000" lon="7.575195000">
        <ele>62.8</ele>
        <time>2017-04-29T09:50:46</time>
        <extensions><speed>1.36</speed></extensions>
      </trkpt>
      <trkpt lat="51.929752000" lon="7.575215000">
        <ele>62.8</ele>
        <time>2017-04-29T09:50:47</time>
        <extensions><speed>1.36</speed></extensions>
      </trkpt>
      <trkpt lat="51.929756000" lon="7.575235000">
        <ele>62.8</ele>
        <time>2017-04-29T09:50:48</time>
        <extensions><speed>1.43</speed></extensions>
      </trkpt>
      <trkpt lat="51.929764000" lon="7.575252000">
        <ele>62.8</ele>
        <time>2017-04-29T09:50:49</time>
        <extensions><speed>1.43</speed></extensions>
      </trkpt>
      <trkpt lat="51.929771000" lon="7.575270000">
        <ele>62.7</ele>
        <time>2017-04-29T09:50:50</time>
        <extensions><speed>1.44</speed></extensions>
      </trkpt>
      <trkpt lat="51.929779000" lon="7.575288000">
        <ele>62.7</ele>
        <time>2017-04-29T09:50:51</time>
        <extensions><speed>1.47</speed></extensions>
      </trkpt>
      <trkpt lat="51.929787000" lon="7.575306000">
        <ele>62.7</ele>
        <time>2017-04-29T09:50:52</time>
        <extensions><speed>1.46</speed></extensions>
      </trkpt>
      <trkpt lat="51.929790000" lon="7.575324000">
        <ele>62.6</ele>
        <time>2017-04-29T09:50:53</time>
        <extensions><speed>1.45</speed></extensions>
      </trkpt>
      <trkpt lat="51.929798000" lon="7.575340000">
        <ele>62.6</ele>
        <time>2017-04-29T09:50:54</time>
        <extensions><speed>1.45</speed></extensions>
      </trkpt>
      <trkpt lat="51.929810000" lon="7.575355000">
        <ele>62.6</ele>
        <time>2017-04-29T09:50:55</time>
        <extensions><speed>1.45</speed></extensions>
      </trkpt>
      <trkpt lat="51.929817000" lon="7.575370000">
        <ele>62.6</ele>
        <time>2017-04-29T09:50:56</time>
        <extensions><speed>1.40</speed></extensions>
      </trkpt>
      <trkpt lat="51.929825000" lon="7.575383000">
        <ele>62.5</ele>
        <time>2017-04-29T09:50:57</time>
        <extensions><speed>1.37</speed></extensions>
      </trkpt>
      <trkpt lat="51.929832000" lon="7.575397000">
        <ele>62.5</ele>
        <time>2017-04-29T09:50:58</time>
        <extensions><speed>1.36</speed></extensions>
      </trkpt>
      <trkpt lat="51.929844000" lon="7.575411000">
        <ele>62.5</ele>
        <time>2017-04-29T09:50:59</time>
        <extensions><speed>1.37</speed></extensions>
      </trkpt>
      <trkpt lat="51.929852000" lon="7.575428000">
        <ele>62.4</ele>
        <time>2017-04-29T09:51:00</time>
        <extensions><speed>1.37</speed></extensions>
      </trkpt>
      <trkpt lat="51.929855000" lon="7.575447000">
        <ele>62.4</ele>
        <time>2017-04-29T09:51:01</time>
        <extensions><speed>1.38</speed></extensions>
      </trkpt>
      <trkpt lat="51.929859000" lon="7.575464000">
        <ele>62.4</ele>
        <time>2017-04-29T09:51:02</time>
        <extensions><speed>1.39</speed></extensions>
      </trkpt>
      <trkpt lat="51.929867000" lon="7.575480000">
        <ele>62.4</ele>
        <time>2017-04-29T09:51:03</time>
        <extensions><speed>1.40</speed></extensions>
      </trkpt>
      <trkpt lat="51.929874000" lon="7.575497000">
        <ele>62.4</ele>
        <time>2017-04-29T09:51:04</time>
        <extensions><speed>1.40</speed></extensions>
      </trkpt>
      <trkpt lat="51.929882000" lon="7.575513000">
        <ele>62.3</ele>
        <time>2017-04-29T09:51:05</time>
        <extensions><speed>1.42</speed></extensions>
      </trkpt>
      <trkpt lat="51.929890000" lon="7.575529000">
        <ele>62.3</ele>
        <time>2017-04-29T09:51:06</time>
        <extensions><speed>1.41</speed></extensions>
      </trkpt>
      <trkpt lat="51.929897000" lon="7.575546000">
        <ele>62.3</ele>
        <time>2017-04-29T09:51:07</time>
        <extensions><speed>1.41</speed></extensions>
      </trkpt>
      <trkpt lat="51.929905000" lon="7.575562000">
        <ele>62.3</ele>
        <time>2017-04-29T09:51:08</time>
        <extensions><speed>1.40</speed></extensions>
      </trkpt>
      <trkpt lat="51.929909000" lon="7.575576000">
        <ele>62.3</ele>
        <time>2017-04-29T09:51:09</time>
        <extensions><speed>1.37</speed></extensions>
      </trkpt>
      <trkpt lat="51.929916000" lon="7.575590000">
        <ele>62.2</ele>
        <time>2017-04-29T09:51:10</time>
        <extensions><speed>1.30</speed></extensions>
      </trkpt>
      <trkpt lat="51.929920000" lon="7.575607000">
        <ele>62.2</ele>
        <time>2017-04-29T09:51:11</time>
        <extensions><speed>1.24</speed></extensions>
      </trkpt>
      <trkpt lat="51.929932000" lon="7.575623000">
        <ele>62.2</ele>
        <time>2017-04-29T09:51:12</time>
        <extensions><speed>1.24</speed></extensions>
      </trkpt>
      <trkpt lat="51.929935000" lon="7.575639000">
        <ele>62.2</ele>
        <time>2017-04-29T09:51:13</time>
        <extensions><speed>1.30</speed></extensions>
      </trkpt>
      <trkpt lat="51.929943000" lon="7.575656000">
        <ele>62.2</ele>
        <time>2017-04-29T09:51:14</time>
        <extensions><speed>1.35</speed></extensions>
      </trkpt>
      <trkpt lat="51.929947000" lon="7.575675000">
        <ele>62.2</ele>
        <time>2017-04-29T09:51:15</time>
        <extensions><speed>1.42</speed></extensions>
      </trkpt>
      <trkpt lat="51.929955000" lon="7.575693000">
        <ele>62.1</ele>
        <time>2017-04-29T09:51:16</time>
        <extensions><speed>1.43</speed></extensions>
      </trkpt>
      <trkpt lat="51.929962000" lon="7.575710000">
        <ele>62.1</ele>
        <time>2017-04-29T09:51:17</time>
        <extensions><speed>1.43</speed></extensions>
      </trkpt>
      <trkpt lat="51.929970000" lon="7.575728000">
        <ele>62.1</ele>
        <time>2017-04-29T09:51:18</time>
        <extensions><speed>1.38</speed></extensions>
      </trkpt>
      <trkpt lat="51.929977000" lon="7.575744000">
        <ele>62.1</ele>
        <time>2017-04-29T09:51:19</time>
        <extensions><speed>1.40</speed></extensions>
      </trkpt>
      <trkpt lat="51.929985000" lon="7.575761000">
        <ele>62.1</ele>
        <time>2017-04-29T09:51:20</time>
        <extensions><speed>1.39</speed></extensions>
      </trkpt>
      <trkpt lat="51.929993000" lon="7.575777000">
        <ele>62.1</ele>
        <time>2017-04-29T09:51:21</time>
        <extensions><speed>1.35</speed></extensions>
      </trkpt>
      <trkpt lat="51.930000000" lon="7.575793000">
        <ele>62.0</ele>
        <time>2017-04-29T09:51:22</time>
        <extensions><speed>1.36</speed></extensions>
      </trkpt>
      <trkpt lat="51.930008000" lon="7.575809000">
        <ele>62.0</ele>
        <time>2017-04-29T09:51:23</time>
        <extensions><speed>1.40</speed></extensions>
      </trkpt>
      <trkpt lat="51.930012000" lon="7.575827000">
        <ele>62.0</ele>
        <time>2017-04-29T09:51:24</time>
        <extensions><speed>1.40</speed></extensions>
      </trkpt>
      <trkpt lat="51.930019000" lon="7.575847000">
        <ele>62.0</ele>
        <time>2017-04-29T09:51:25</time>
        <extensions><speed>1.40</speed></extensions>
      </trkpt>
      <trkpt lat="51.930027000" lon="7.575867000">
        <ele>62.0</ele>
        <time>2017-04-29T09:51:26</time>
        <extensions><speed>1.44</speed></extensions>
      </trkpt>
      <trkpt lat="51.930035000" lon="7.575885000">
        <ele>62.0</ele>
        <time>2017-04-29T09:51:27</time>
        <extensions><speed>1.45</speed></extensions>
      </trkpt>
      <trkpt lat="51.930042000" lon="7.575902000">
        <ele>62.0</ele>
        <time>2017-04-29T09:51:28</time>
        <extensions><speed>1.44</speed></extensions>
      </trkpt>
      <trkpt lat="51.930046000" lon="7.575919000">
        <ele>62.0</ele>
        <time>2017-04-29T09:51:29</time>
        <extensions><speed>1.44</speed></extensions>
      </trkpt>
      <trkpt lat="51.930054000" lon="7.575933000">
        <ele>61.9</ele>
        <time>2017-04-29T09:51:30</time>
        <extensions><speed>1.45</speed></extensions>
      </trkpt>
      <trkpt lat="51.930061000" lon="7.575950000">
        <ele>61.9</ele>
        <time>2017-04-29T09:51:31</time>
        <extensions><speed>1.41</speed></extensions>
      </trkpt>
      <trkpt lat="51.930073000" lon="7.575965000">
        <ele>61.9</ele>
        <time>2017-04-29T09:51:32</time>
        <extensions><speed>1.37</speed></extensions>
      </trkpt>
      <trkpt lat="51.930077000" lon="7.575980000">
        <ele>61.9</ele>
        <time>2017-04-29T09:51:33</time>
        <extensions><speed>1.39</speed></extensions>
      </trkpt>
      <trkpt lat="51.930080000" lon="7.575998000">
        <ele>61.9</ele>
        <time>2017-04-29T09:51:34</time>
        <extensions><speed>1.35</speed></extensions>
      </trkpt>
      <trkpt lat="51.930088000" lon="7.576015000">
        <ele>61.9</ele>
        <time>2017-04-29T09:51:35</time>
        <extensions><speed>1.35</speed></extensions>
      </trkpt>
      <trkpt lat="51.930096000" lon="7.576033000">
        <ele>61.8</ele>
        <time>2017-04-29T09:51:36</time>
        <extensions><speed>1.34</speed></extensions>
      </trkpt>
      <trkpt lat="51.930103000" lon="7.576048000">
        <ele>61.8</ele>
        <time>2017-04-29T09:51:37</time>
        <extensions><speed>1.37</speed></extensions>
      </trkpt>
      <trkpt lat="51.930111000" lon="7.576068000">
        <ele>61.8</ele>
        <time>2017-04-29T09:51:38</time>
        <extensions><speed>1.42</speed></extensions>
      </trkpt>
      <trkpt lat="51.930115000" lon="7.576085000">
        <ele>61.8</ele>
        <time>2017-04-29T09:51:39</time>
        <extensions><speed>1.45</speed></extensions>
      </trkpt>
      <trkpt lat="51.930126000" lon="7.576103000">
        <ele>61.8</ele>
        <time>2017-04-29T09:51:40</time>
        <extensions><speed>1.45</speed></extensions>
      </trkpt>
      <trkpt lat="51.930134000" lon="7.576122000">
        <ele>61.8</ele>
        <time>2017-04-29T09:51:41</time>
        <extensions><speed>1.47</speed></extensions>
      </trkpt>
      <trkpt lat="51.930145000" lon="7.576136000">
        <ele>61.7</ele>
        <time>2017-04-29T09:51:42</time>
        <extensions><speed>1.49</speed></extensions>
      </trkpt>
      <trkpt lat="51.930149000" lon="7.576152000">
        <ele>61.7</ele>
        <time>2017-04-29T09:51:43</time>
        <extensions><speed>1.45</speed></extensions>
      </trkpt>
      <trkpt lat="51.930157000" lon="7.576169000">
        <ele>61.7</ele>
        <time>2017-04-29T09:51:44</time>
        <extensions><speed>1.48</speed></extensions>
      </trkpt>
      <trkpt lat="51.930168000" lon="7.576187000">
        <ele>61.7</ele>
        <time>2017-04-29T09:51:45</time>
        <extensions><speed>1.45</speed></extensions>
      </trkpt>
      <trkpt lat="51.930176000" lon="7.576200000">
        <ele>61.6</ele>
        <time>2017-04-29T09:51:46</time>
        <extensions><speed>1.40</speed></extensions>
      </trkpt>
      <trkpt lat="51.930183000" lon="7.576215000">
        <ele>61.6</ele>
        <time>2017-04-29T09:51:47</time>
        <extensions><speed>1.39</speed></extensions>
      </trkpt>
      <trkpt lat="51.930191000" lon="7.576230000">
        <ele>61.6</ele>
        <time>2017-04-29T09:51:48</time>
        <extensions><speed>1.37</speed></extensions>
      </trkpt>
      <trkpt lat="51.930202000" lon="7.576245000">
        <ele>61.5</ele>
        <time>2017-04-29T09:51:49</time>
        <extensions><speed>1.32</speed></extensions>
      </trkpt>
      <trkpt lat="51.930206000" lon="7.576260000">
        <ele>61.5</ele>
        <time>2017-04-29T09:51:50</time>
        <extensions><speed>1.37</speed></extensions>
      </trkpt>
      <trkpt lat="51.930210000" lon="7.576278000">
        <ele>61.5</ele>
        <time>2017-04-29T09:51:51</time>
        <extensions><speed>1.39</speed></extensions>
      </trkpt>
      <trkpt lat="51.930214000" lon="7.576297000">
        <ele>61.5</ele>
        <time>2017-04-29T09:51:52</time>
        <extensions><speed>1.40</speed></extensions>
      </trkpt>
      <trkpt lat="51.930222000" lon="7.576315000">
        <ele>61.4</ele>
        <time>2017-04-29T09:51:53</time>
        <extensions><speed>1.40</speed></extensions>
      </trkpt>
      <trkpt lat="51.930229000" lon="7.576334000">
        <ele>61.4</ele>
        <time>2017-04-29T09:51:54</time>
        <extensions><speed>1.40</speed></extensions>
      </trkpt>
      <trkpt lat="51.930233000" lon="7.576350000">
        <ele>61.4</ele>
        <time>2017-04-29T09:51:55</time>
        <extensions><speed>1.36</speed></extensions>
      </trkpt>
      <trkpt lat="51.930241000" lon="7.576365000">
        <ele>61.4</ele>
        <time>2017-04-29T09:51:56</time>
        <extensions><speed>1.33</speed></extensions>
      </trkpt>
      <trkpt lat="51.930244000" lon="7.576380000">
        <ele>61.3</ele>
        <time>2017-04-29T09:51:57</time>
        <extensions><speed>1.33</speed></extensions>
      </trkpt>
      <trkpt lat="51.930252000" lon="7.576397000">
        <ele>61.3</ele>
        <time>2017-04-29T09:51:58</time>
        <extensions><speed>1.32</speed></extensions>
      </trkpt>
      <trkpt lat="51.930260000" lon="7.576413000">
        <ele>61.3</ele>
        <time>2017-04-29T09:51:59</time>
        <extensions><speed>1.30</speed></extensions>
      </trkpt>
      <trkpt lat="51.930264000" lon="7.576430000">
        <ele>61.3</ele>
        <time>2017-04-29T09:52:00</time>
        <extensions><speed>1.31</speed></extensions>
      </trkpt>
      <trkpt lat="51.930275000" lon="7.576446000">
        <ele>61.2</ele>
        <time>2017-04-29T09:52:01</time>
        <extensions><speed>1.34</speed></extensions>
      </trkpt>
      <trkpt lat="51.930279000" lon="7.576462000">
        <ele>61.2</ele>
        <time>2017-04-29T09:52:02</time>
        <extensions><speed>1.29</speed></extensions>
      </trkpt>
      <trkpt lat="51.930283000" lon="7.576477000">
        <ele>61.2</ele>
        <time>2017-04-29T09:52:03</time>
        <extensions><speed>1.27</speed></extensions>
      </trkpt>
      <trkpt lat="51.930294000" lon="7.576493000">
        <ele>61.1</ele>
        <time>2017-04-29T09:52:04</time>
        <extensions><speed>1.33</speed></extensions>
      </trkpt>
      <trkpt lat="51.930302000" lon="7.576512000">
        <ele>61.1</ele>
        <time>2017-04-29T09:52:05</time>
        <extensions><speed>1.34</speed></extensions>
      </trkpt>
      <trkpt lat="51.930305000" lon="7.576528000">
        <ele>61.1</ele>
        <time>2017-04-29T09:52:06</time>
        <extensions><speed>1.32</speed></extensions>
      </trkpt>
      <trkpt lat="51.930313000" lon="7.576544000">
        <ele>61.1</ele>
        <time>2017-04-29T09:52:07</time>
        <extensions><speed>1.34</speed></extensions>
      </trkpt>
      <trkpt lat="51.930321000" lon="7.576556000">
        <ele>61.0</ele>
        <time>2017-04-29T09:52:08</time>
        <extensions><speed>1.38</speed></extensions>
      </trkpt>
      <trkpt lat="51.930332000" lon="7.576570000">
        <ele>61.0</ele>
        <time>2017-04-29T09:52:09</time>
        <extensions><speed>1.34</speed></extensions>
      </trkpt>
      <trkpt lat="51.930340000" lon="7.576582000">
        <ele>61.0</ele>
        <time>2017-04-29T09:52:10</time>
        <extensions><speed>1.32</speed></extensions>
      </trkpt>
      <trkpt lat="51.930347000" lon="7.576595000">
        <ele>61.0</ele>
        <time>2017-04-29T09:52:11</time>
        <extensions><speed>1.32</speed></extensions>
      </trkpt>
      <trkpt lat="51.930355000" lon="7.576612000">
        <ele>61.0</ele>
        <time>2017-04-29T09:52:12</time>
        <extensions><speed>1.36</speed></extensions>
      </trkpt>
      <trkpt lat="51.930367000" lon="7.576628000">
        <ele>61.0</ele>
        <time>2017-04-29T09:52:13</time>
        <extensions><speed>1.36</speed></extensions>
      </trkpt>
      <trkpt lat="51.930370000" lon="7.576647000">
        <ele>61.0</ele>
        <time>2017-04-29T09:52:14</time>
        <extensions><speed>1.42</speed></extensions>
      </trkpt>
      <trkpt lat="51.930378000" lon="7.576663000">
        <ele>61.0</ele>
        <time>2017-04-29T09:52:15</time>
        <extensions><speed>1.42</speed></extensions>
      </trkpt>
      <trkpt lat="51.930386000" lon="7.576680000">
        <ele>61.0</ele>
        <time>2017-04-29T09:52:16</time>
        <extensions><speed>1.40</speed></extensions>
      </trkpt>
      <trkpt lat="51.930393000" lon="7.576694000">
        <ele>61.0</ele>
        <time>2017-04-29T09:52:17</time>
        <extensions><speed>1.37</speed></extensions>
      </trkpt>
      <trkpt lat="51.930401000" lon="7.576710000">
        <ele>61.0</ele>
        <time>2017-04-29T09:52:18</time>
        <extensions><speed>1.34</speed></extensions>
      </trkpt>
      <trkpt lat="51.930405000" lon="7.576726000">
        <ele>61.0</ele>
        <time>2017-04-29T09:52:19</time>
        <extensions><speed>1.34</speed></extensions>
      </trkpt>
      <trkpt lat="51.930408000" lon="7.576745000">
        <ele>61.0</ele>
        <time>2017-04-29T09:52:20</time>
        <extensions><speed>1.38</speed></extensions>
      </trkpt>
      <trkpt lat="51.930416000" lon="7.576763000">
        <ele>61.0</ele>
        <time>2017-04-29T09:52:21</time>
        <extensions><speed>1.41</speed></extensions>
      </trkpt>
      <trkpt lat="51.930428000" lon="7.576778000">
        <ele>61.0</ele>
        <time>2017-04-29T09:52:22</time>
        <extensions><speed>1.41</speed></extensions>
      </trkpt>
      <trkpt lat="51.930431000" lon="7.576797000">
        <ele>61.0</ele>
        <time>2017-04-29T09:52:23</time>
        <extensions><speed>1.40</speed></extensions>
      </trkpt>
      <trkpt lat="51.930439000" lon="7.576813000">
        <ele>61.0</ele>
        <time>2017-04-29T09:52:24</time>
        <extensions><speed>1.41</speed></extensions>
      </trkpt>
      <trkpt lat="51.930447000" lon="7.576829000">
        <ele>61.0</ele>
        <time>2017-04-29T09:52:25</time>
        <extensions><speed>1.38</speed></extensions>
      </trkpt>
      <trkpt lat="51.930454000" lon="7.576845000">
        <ele>61.0</ele>
        <time>2017-04-29T09:52:26</time>
        <extensions><speed>1.33</speed></extensions>
      </trkpt>
      <trkpt lat="51.930466000" lon="7.576859000">
        <ele>61.0</ele>
        <time>2017-04-29T09:52:27</time>
        <extensions><speed>1.35</speed></extensions>
      </trkpt>
      <trkpt lat="51.930470000" lon="7.576873000">
        <ele>61.0</ele>
        <time>2017-04-29T09:52:28</time>
        <extensions><speed>1.37</speed></extensions>
      </trkpt>
      <trkpt lat="51.930481000" lon="7.576890000">
        <ele>61.0</ele>
        <time>2017-04-29T09:52:29</time>
        <extensions><speed>1.37</speed></extensions>
      </trkpt>
      <trkpt lat="51.930489000" lon="7.576905000">
        <ele>61.0</ele>
        <time>2017-04-29T09:52:30</time>
        <extensions><speed>1.35</speed></extensions>
      </trkpt>
      <trkpt lat="51.930492000" lon="7.576922000">
        <ele>61.0</ele>
        <time>2017-04-29T09:52:31</time>
        <extensions><speed>1.38</speed></extensions>
      </trkpt>
      <trkpt lat="51.930500000" lon="7.576938000">
        <ele>61.0</ele>
        <time>2017-04-29T09:52:32</time>
        <extensions><speed>1.40</speed></extensions>
      </trkpt>
      <trkpt lat="51.930508000" lon="7.576953000">
        <ele>61.0</ele>
        <time>2017-04-29T09:52:33</time>
        <extensions><speed>1.39</speed></extensions>
      </trkpt>
      <trkpt lat="51.930519000" lon="7.576969000">
        <ele>61.0</ele>
        <time>2017-04-29T09:52:34</time>
        <extensions><speed>1.34</speed></extensions>
      </trkpt>
      <trkpt lat="51.930527000" lon="7.576983000">
        <ele>61.0</ele>
        <time>2017-04-29T09:52:35</time>
        <extensions><speed>1.35</speed></extensions>
      </trkpt>
      <trkpt lat="51.930534000" lon="7.577000000">
        <ele>61.0</ele>
        <time>2017-04-29T09:52:36</time>
        <extensions><speed>1.37</speed></extensions>
      </trkpt>
      <trkpt lat="51.930542000" lon="7.577015000">
        <ele>61.0</ele>
        <time>2017-04-29T09:52:37</time>
        <extensions><speed>1.35</speed></extensions>
      </trkpt>
      <trkpt lat="51.930553000" lon="7.577030000">
        <ele>61.0</ele>
        <time>2017-04-29T09:52:38</time>
        <extensions><speed>1.32</speed></extensions>
      </trkpt>
      <trkpt lat="51.930557000" lon="7.577045000">
        <ele>61.0</ele>
        <time>2017-04-29T09:52:39</time>
        <extensions><speed>1.32</speed></extensions>
      </trkpt>
      <trkpt lat="51.930569000" lon="7.577062000">
        <ele>61.0</ele>
        <time>2017-04-29T09:52:40</time>
        <extensions><speed>1.33</speed></extensions>
      </trkpt>
      <trkpt lat="51.930573000" lon="7.577078000">
        <ele>61.0</ele>
        <time>2017-04-29T09:52:41</time>
        <extensions><speed>1.33</speed></extensions>
      </trkpt>
      <trkpt lat="51.930580000" lon="7.577095000">
        <ele>61.0</ele>
        <time>2017-04-29T09:52:42</time>
        <extensions><speed>1.33</speed></extensions>
      </trkpt>
      <trkpt lat="51.930588000" lon="7.577108000">
        <ele>61.0</ele>
        <time>2017-04-29T09:52:43</time>
        <extensions><speed>1.35</speed></extensions>
      </trkpt>
      <trkpt lat="51.930599000" lon="7.577123000">
        <ele>61.0</ele>
        <time>2017-04-29T09:52:44</time>
        <extensions><speed>1.37</speed></extensions>
      </trkpt>
      <trkpt lat="51.930607000" lon="7.577140000">
        <ele>61.0</ele>
        <time>2017-04-29T09:52:45</time>
        <extensions><speed>1.41</speed></extensions>
      </trkpt>
      <trkpt lat="51.930614000" lon="7.577155000">
        <ele>61.0</ele>
        <time>2017-04-29T09:52:46</time>
        <extensions><speed>1.43</speed></extensions>
      </trkpt>
      <trkpt lat="51.930626000" lon="7.577168000">
        <ele>61.0</ele>
        <time>2017-04-29T09:52:47</time>
        <extensions><speed>1.43</speed></extensions>
      </trkpt>
      <trkpt lat="51.930634000" lon="7.577183000">
        <ele>61.0</ele>
        <time>2017-04-29T09:52:48</time>
        <extensions><speed>1.43</speed></extensions>
      </trkpt>
      <trkpt lat="51.930637000" lon="7.577199000">
        <ele>61.0</ele>
        <time>2017-04-29T09:52:49</time>
        <extensions><speed>1.39</speed></extensions>
      </trkpt>
      <trkpt lat="51.930645000" lon="7.577215000">
        <ele>61.0</ele>
        <time>2017-04-29T09:52:50</time>
        <extensions><speed>1.37</speed></extensions>
      </trkpt>
      <trkpt lat="51.930653000" lon="7.577230000">
        <ele>61.0</ele>
        <time>2017-04-29T09:52:51</time>
        <extensions><speed>1.35</speed></extensions>
      </trkpt>
      <trkpt lat="51.930664000" lon="7.577245000">
        <ele>61.0</ele>
        <time>2017-04-29T09:52:52</time>
        <extensions><speed>1.35</speed></extensions>
      </trkpt>
      <trkpt lat="51.930668000" lon="7.577258000">
        <ele>61.0</ele>
        <time>2017-04-29T09:52:53</time>
        <extensions><speed>1.35</speed></extensions>
      </trkpt>
      <trkpt lat="51.930676000" lon="7.577272000">
        <ele>61.0</ele>
        <time>2017-04-29T09:52:54</time>
        <extensions><speed>1.33</speed></extensions>
      </trkpt>
      <trkpt lat="51.930683000" lon="7.577286000">
        <ele>61.0</ele>
        <time>2017-04-29T09:52:55</time>
        <extensions><speed>1.33</speed></extensions>
      </trkpt>
      <trkpt lat="51.930695000" lon="7.577302000">
        <ele>61.0</ele>
        <time>2017-04-29T09:52:56</time>
        <extensions><speed>1.32</speed></extensions>
      </trkpt>
      <trkpt lat="51.930698000" lon="7.577316000">
        <ele>61.0</ele>
        <time>2017-04-29T09:52:57</time>
        <extensions><speed>1.30</speed></extensions>
      </trkpt>
      <trkpt lat="51.930710000" lon="7.577332000">
        <ele>61.0</ele>
        <time>2017-04-29T09:52:58</time>
        <extensions><speed>1.29</speed></extensions>
      </trkpt>
      <trkpt lat="51.930717000" lon="7.577347000">
        <ele>61.0</ele>
        <time>2017-04-29T09:52:59</time>
        <extensions><speed>1.30</speed></extensions>
      </trkpt>
      <trkpt lat="51.930725000" lon="7.577365000">
        <ele>61.0</ele>
        <time>2017-04-29T09:53:00</time>
        <extensions><speed>1.33</speed></extensions>
      </trkpt>
      <trkpt lat="51.930733000" lon="7.577382000">
        <ele>61.0</ele>
        <time>2017-04-29T09:53:01</time>
        <extensions><speed>1.35</speed></extensions>
      </trkpt>
      <trkpt lat="51.930740000" lon="7.577396000">
        <ele>61.0</ele>
        <time>2017-04-29T09:53:02</time>
        <extensions><speed>1.35</speed></extensions>
      </trkpt>
      <trkpt lat="51.930748000" lon="7.577410000">
        <ele>61.0</ele>
        <time>2017-04-29T09:53:03</time>
        <extensions><speed>1.35</speed></extensions>
      </trkpt>
      <trkpt lat="51.930756000" lon="7.577425000">
        <ele>61.0</ele>
        <time>2017-04-29T09:53:04</time>
        <extensions><speed>1.35</speed></extensions>
      </trkpt>
      <trkpt lat="51.930763000" lon="7.577442000">
        <ele>61.0</ele>
        <time>2017-04-29T09:53:05</time>
        <extensions><speed>1.35</speed></extensions>
      </trkpt>
      <trkpt lat="51.930767000" lon="7.577458000">
        <ele>61.0</ele>
        <time>2017-04-29T09:53:06</time>
        <extensions><speed>1.30</speed></extensions>
      </trkpt>
      <trkpt lat="51.930775000" lon="7.577475000">
        <ele>61.0</ele>
        <time>2017-04-29T09:53:07</time>
        <extensions><speed>1.32</speed></extensions>
      </trkpt>
      <trkpt lat="51.930782000" lon="7.577491000">
        <ele>61.0</ele>
        <time>2017-04-29T09:53:08</time>
        <extensions><speed>1.36</speed></extensions>
      </trkpt>
      <trkpt lat="51.930790000" lon="7.577508000">
        <ele>61.0</ele>
        <time>2017-04-29T09:53:09</time>
        <extensions><speed>1.41</speed></extensions>
      </trkpt>
      <trkpt lat="51.930798000" lon="7.577526000">
        <ele>61.0</ele>
        <time>2017-04-29T09:53:10</time>
        <extensions><speed>1.36</speed></extensions>
      </trkpt>
      <trkpt lat="51.930798000" lon="7.577545000">
        <ele>61.0</ele>
        <time>2017-04-29T09:53:11</time>
        <extensions><speed>1.38</speed></extensions>
      </trkpt>
      <trkpt lat="51.930801000" lon="7.577563000">
        <ele>61.0</ele>
        <time>2017-04-29T09:53:12</time>
        <extensions><speed>1.36</speed></extensions>
      </trkpt>
      <trkpt lat="51.930809000" lon="7.577583000">
        <ele>61.0</ele>
        <time>2017-04-29T09:53:13</time>
        <extensions><speed>1.37</speed></extensions>
      </trkpt>
      <trkpt lat="51.930813000" lon="7.577601000">
        <ele>61.0</ele>
        <time>2017-04-29T09:53:14</time>
        <extensions><speed>1.35</speed></extensions>
      </trkpt>
      <trkpt lat="51.930817000" lon="7.577619000">
        <ele>61.0</ele>
        <time>2017-04-29T09:53:15</time>
        <extensions><speed>1.35</speed></extensions>
      </trkpt>
      <trkpt lat="51.930824000" lon="7.577635000">
        <ele>61.0</ele>
        <time>2017-04-29T09:53:16</time>
        <extensions><speed>1.35</speed></extensions>
      </trkpt>
      <trkpt lat="51.930828000" lon="7.577655000">
        <ele>61.0</ele>
        <time>2017-04-29T09:53:17</time>
        <extensions><speed>1.35</speed></extensions>
      </trkpt>
      <trkpt lat="51.930828000" lon="7.577675000">
        <ele>61.0</ele>
        <time>2017-04-29T09:53:18</time>
        <extensions><speed>1.35</speed></extensions>
      </trkpt>
      <trkpt lat="51.930832000" lon="7.577695000">
        <ele>61.0</ele>
        <time>2017-04-29T09:53:19</time>
        <extensions><speed>1.36</speed></extensions>
      </trkpt>
      <trkpt lat="51.930836000" lon="7.577717000">
        <ele>61.0</ele>
        <time>2017-04-29T09:53:20</time>
        <extensions><speed>1.39</speed></extensions>
      </trkpt>
      <trkpt lat="51.930840000" lon="7.577740000">
        <ele>61.0</ele>
        <time>2017-04-29T09:53:21</time>
        <extensions><speed>1.44</speed></extensions>
      </trkpt>
      <trkpt lat="51.930843000" lon="7.577758000">
        <ele>61.0</ele>
        <time>2017-04-29T09:53:22</time>
        <extensions><speed>1.47</speed></extensions>
      </trkpt>
      <trkpt lat="51.930847000" lon="7.577782000">
        <ele>61.0</ele>
        <time>2017-04-29T09:53:23</time>
        <extensions><speed>1.49</speed></extensions>
      </trkpt>
      <trkpt lat="51.930851000" lon="7.577802000">
        <ele>61.0</ele>
        <time>2017-04-29T09:53:24</time>
        <extensions><speed>1.49</speed></extensions>
      </trkpt>
      <trkpt lat="51.930855000" lon="7.577823000">
        <ele>61.0</ele>
        <time>2017-04-29T09:53:25</time>
        <extensions><speed>1.47</speed></extensions>
      </trkpt>
      <trkpt lat="51.930855000" lon="7.577841000">
        <ele>61.0</ele>
        <time>2017-04-29T09:53:26</time>
        <extensions><speed>1.45</speed></extensions>
      </trkpt>
      <trkpt lat="51.930859000" lon="7.577860000">
        <ele>61.0</ele>
        <time>2017-04-29T09:53:27</time>
        <extensions><speed>1.39</speed></extensions>
      </trkpt>
      <trkpt lat="51.930862000" lon="7.577878000">
        <ele>61.0</ele>
        <time>2017-04-29T09:53:28</time>
        <extensions><speed>1.39</speed></extensions>
      </trkpt>
      <trkpt lat="51.930862000" lon="7.577900000">
        <ele>61.0</ele>
        <time>2017-04-29T09:53:29</time>
        <extensions><speed>1.41</speed></extensions>
      </trkpt>
      <trkpt lat="51.930862000" lon="7.577920000">
        <ele>61.0</ele>
        <time>2017-04-29T09:53:30</time>
        <extensions><speed>1.37</speed></extensions>
      </trkpt>
      <trkpt lat="51.930866000" lon="7.577939000">
        <ele>61.0</ele>
        <time>2017-04-29T09:53:31</time>
        <extensions><speed>1.39</speed></extensions>
      </trkpt>
      <trkpt lat="51.930866000" lon="7.577958000">
        <ele>61.0</ele>
        <time>2017-04-29T09:53:32</time>
        <extensions><speed>1.43</speed></extensions>
      </trkpt>
      <trkpt lat="51.930870000" lon="7.577978000">
        <ele>61.0</ele>
        <time>2017-04-29T09:53:33</time>
        <extensions><speed>1.43</speed></extensions>
      </trkpt>
      <trkpt lat="51.930870000" lon="7.578000000">
        <ele>61.0</ele>
        <time>2017-04-29T09:53:34</time>
        <extensions><speed>1.41</speed></extensions>
      </trkpt>
      <trkpt lat="51.930870000" lon="7.578018000">
        <ele>61.0</ele>
        <time>2017-04-29T09:53:35</time>
        <extensions><speed>1.41</speed></extensions>
      </trkpt>
      <trkpt lat="51.930874000" lon="7.578033000">
        <ele>61.0</ele>
        <time>2017-04-29T09:53:36</time>
        <extensions><speed>1.37</speed></extensions>
      </trkpt>
      <trkpt lat="51.930874000" lon="7.578050000">
        <ele>61.0</ele>
        <time>2017-04-29T09:53:37</time>
        <extensions><speed>1.30</speed></extensions>
      </trkpt>
      <trkpt lat="51.930866000" lon="7.578065000">
        <ele>61.0</ele>
        <time>2017-04-29T09:53:38</time>
        <extensions><speed>1.27</speed></extensions>
      </trkpt>
      <trkpt lat="51.930862000" lon="7.578080000">
        <ele>61.0</ele>
        <time>2017-04-29T09:53:39</time>
        <extensions><speed>1.23</speed></extensions>
      </trkpt>
      <trkpt lat="51.930862000" lon="7.578095000">
        <ele>61.0</ele>
        <time>2017-04-29T09:53:40</time>
        <extensions><speed>1.19</speed></extensions>
      </trkpt>
      <trkpt lat="51.930866000" lon="7.578107000">
        <ele>61.0</ele>
        <time>2017-04-29T09:53:41</time>
        <extensions><speed>1.11</speed></extensions>
      </trkpt>
      <trkpt lat="51.930866000" lon="7.578120000">
        <ele>61.0</ele>
        <time>2017-04-29T09:53:42</time>
        <extensions><speed>1.07</speed></extensions>
      </trkpt>
      <trkpt lat="51.930866000" lon="7.578140000">
        <ele>61.0</ele>
        <time>2017-04-29T09:53:43</time>
        <extensions><speed>1.07</speed></extensions>
      </trkpt>
      <trkpt lat="51.930870000" lon="7.578160000">
        <ele>61.0</ele>
        <time>2017-04-29T09:53:44</time>
        <extensions><speed>1.16</speed></extensions>
      </trkpt>
      <trkpt lat="51.930874000" lon="7.578178000">
        <ele>61.0</ele>
        <time>2017-04-29T09:53:45</time>
        <extensions><speed>1.30</speed></extensions>
      </trkpt>
      <trkpt lat="51.930874000" lon="7.578197000">
        <ele>61.0</ele>
        <time>2017-04-29T09:53:46</time>
        <extensions><speed>1.35</speed></extensions>
      </trkpt>
      <trkpt lat="51.930878000" lon="7.578215000">
        <ele>61.0</ele>
        <time>2017-04-29T09:53:47</time>
        <extensions><speed>1.36</speed></extensions>
      </trkpt>
      <trkpt lat="51.930878000" lon="7.578233000">
        <ele>61.0</ele>
        <time>2017-04-29T09:53:48</time>
        <extensions><speed>1.35</speed></extensions>
      </trkpt>
      <trkpt lat="51.930878000" lon="7.578252000">
        <ele>61.0</ele>
        <time>2017-04-29T09:53:49</time>
        <extensions><speed>1.35</speed></extensions>
      </trkpt>
      <trkpt lat="51.930882000" lon="7.578270000">
        <ele>61.0</ele>
        <time>2017-04-29T09:53:50</time>
        <extensions><speed>1.35</speed></extensions>
      </trkpt>
      <trkpt lat="51.930885000" lon="7.578290000">
        <ele>61.0</ele>
        <time>2017-04-29T09:53:51</time>
        <extensions><speed>1.35</speed></extensions>
      </trkpt>
      <trkpt lat="51.930889000" lon="7.578310000">
        <ele>61.0</ele>
        <time>2017-04-29T09:53:52</time>
        <extensions><speed>1.39</speed></extensions>
      </trkpt>
      <trkpt lat="51.930893000" lon="7.578330000">
        <ele>61.0</ele>
        <time>2017-04-29T09:53:53</time>
        <extensions><speed>1.44</speed></extensions>
      </trkpt>
      <trkpt lat="51.930893000" lon="7.578350000">
        <ele>61.0</ele>
        <time>2017-04-29T09:53:54</time>
        <extensions><speed>1.40</speed></extensions>
      </trkpt>
      <trkpt lat="51.930893000" lon="7.578372000">
        <ele>61.0</ele>
        <time>2017-04-29T09:53:55</time>
        <extensions><speed>1.48</speed></extensions>
      </trkpt>
      <trkpt lat="51.930893000" lon="7.578394000">
        <ele>61.0</ele>
        <time>2017-04-29T09:53:56</time>
        <extensions><speed>1.49</speed></extensions>
      </trkpt>
      <trkpt lat="51.930893000" lon="7.578412000">
        <ele>61.0</ele>
        <time>2017-04-29T09:53:57</time>
        <extensions><speed>1.43</speed></extensions>
      </trkpt>
      <trkpt lat="51.930893000" lon="7.578431000">
        <ele>61.0</ele>
        <time>2017-04-29T09:53:58</time>
        <extensions><speed>1.37</speed></extensions>
      </trkpt>
      <trkpt lat="51.930893000" lon="7.578454000">
        <ele>61.0</ele>
        <time>2017-04-29T09:53:59</time>
        <extensions><speed>1.39</speed></extensions>
      </trkpt>
      <trkpt lat="51.930893000" lon="7.578473000">
        <ele>61.0</ele>
        <time>2017-04-29T09:54:00</time>
        <extensions><speed>1.39</speed></extensions>
      </trkpt>
      <trkpt lat="51.930897000" lon="7.578494000">
        <ele>61.0</ele>
        <time>2017-04-29T09:54:01</time>
        <extensions><speed>1.40</speed></extensions>
      </trkpt>
      <trkpt lat="51.930897000" lon="7.578512000">
        <ele>61.0</ele>
        <time>2017-04-29T09:54:02</time>
        <extensions><speed>1.40</speed></extensions>
      </trkpt>
      <trkpt lat="51.930893000" lon="7.578530000">
        <ele>61.0</ele>
        <time>2017-04-29T09:54:03</time>
        <extensions><speed>1.40</speed></extensions>
      </trkpt>
      <trkpt lat="51.930893000" lon="7.578550000">
        <ele>61.0</ele>
        <time>2017-04-29T09:54:04</time>
        <extensions><speed>1.40</speed></extensions>
      </trkpt>
      <trkpt lat="51.930893000" lon="7.578571000">
        <ele>61.0</ele>
        <time>2017-04-29T09:54:05</time>
        <extensions><speed>1.40</speed></extensions>
      </trkpt>
      <trkpt lat="51.930893000" lon="7.578592000">
        <ele>61.0</ele>
        <time>2017-04-29T09:54:06</time>
        <extensions><speed>1.37</speed></extensions>
      </trkpt>
      <trkpt lat="51.930893000" lon="7.578610000">
        <ele>61.0</ele>
        <time>2017-04-29T09:54:07</time>
        <extensions><speed>1.35</speed></extensions>
      </trkpt>
      <trkpt lat="51.930893000" lon="7.578629000">
        <ele>61.0</ele>
        <time>2017-04-29T09:54:08</time>
        <extensions><speed>1.35</speed></extensions>
      </trkpt>
      <trkpt lat="51.930893000" lon="7.578648000">
        <ele>61.1</ele>
        <time>2017-04-29T09:54:09</time>
        <extensions><speed>1.34</speed></extensions>
      </trkpt>
      <trkpt lat="51.930893000" lon="7.578669000">
        <ele>61.1</ele>
        <time>2017-04-29T09:54:10</time>
        <extensions><speed>1.32</speed></extensions>
      </trkpt>
      <trkpt lat="51.930897000" lon="7.578687000">
        <ele>61.1</ele>
        <time>2017-04-29T09:54:11</time>
        <extensions><speed>1.33</speed></extensions>
      </trkpt>
      <trkpt lat="51.930897000" lon="7.578707000">
        <ele>61.1</ele>
        <time>2017-04-29T09:54:12</time>
        <extensions><speed>1.35</speed></extensions>
      </trkpt>
      <trkpt lat="51.930901000" lon="7.578728000">
        <ele>61.2</ele>
        <time>2017-04-29T09:54:13</time>
        <extensions><speed>1.41</speed></extensions>
      </trkpt>
      <trkpt lat="51.930904000" lon="7.578748000">
        <ele>61.2</ele>
        <time>2017-04-29T09:54:14</time>
        <extensions><speed>1.43</speed></extensions>
      </trkpt>
      <trkpt lat="51.930904000" lon="7.578770000">
        <ele>61.2</ele>
        <time>2017-04-29T09:54:15</time>
        <extensions><speed>1.43</speed></extensions>
      </trkpt>
      <trkpt lat="51.930904000" lon="7.578790000">
        <ele>61.2</ele>
        <time>2017-04-29T09:54:16</time>
        <extensions><speed>1.46</speed></extensions>
      </trkpt>
      <trkpt lat="51.930904000" lon="7.578812000">
        <ele>61.3</ele>
        <time>2017-04-29T09:54:17</time>
        <extensions><speed>1.45</speed></extensions>
      </trkpt>
      <trkpt lat="51.930904000" lon="7.578834000">
        <ele>61.3</ele>
        <time>2017-04-29T09:54:18</time>
        <extensions><speed>1.44</speed></extensions>
      </trkpt>
      <trkpt lat="51.930904000" lon="7.578853000">
        <ele>61.3</ele>
        <time>2017-04-29T09:54:19</time>
        <extensions><speed>1.42</speed></extensions>
      </trkpt>
      <trkpt lat="51.930908000" lon="7.578874000">
        <ele>61.4</ele>
        <time>2017-04-29T09:54:20</time>
        <extensions><speed>1.46</speed></extensions>
      </trkpt>
      <trkpt lat="51.930912000" lon="7.578895000">
        <ele>61.4</ele>
        <time>2017-04-29T09:54:21</time>
        <extensions><speed>1.46</speed></extensions>
      </trkpt>
      <trkpt lat="51.930916000" lon="7.578917000">
        <ele>61.4</ele>
        <time>2017-04-29T09:54:22</time>
        <extensions><speed>1.44</speed></extensions>
      </trkpt>
      <trkpt lat="51.930916000" lon="7.578937000">
        <ele>61.5</ele>
        <time>2017-04-29T09:54:23</time>
        <extensions><speed>1.44</speed></extensions>
      </trkpt>
      <trkpt lat="51.930916000" lon="7.578955000">
        <ele>61.5</ele>
        <time>2017-04-29T09:54:24</time>
        <extensions><speed>1.46</speed></extensions>
      </trkpt>
      <trkpt lat="51.930912000" lon="7.578975000">
        <ele>61.5</ele>
        <time>2017-04-29T09:54:25</time>
        <extensions><speed>1.42</speed></extensions>
      </trkpt>
      <trkpt lat="51.930912000" lon="7.578993000">
        <ele>61.6</ele>
        <time>2017-04-29T09:54:26</time>
        <extensions><speed>1.38</speed></extensions>
      </trkpt>
      <trkpt lat="51.930916000" lon="7.579013000">
        <ele>61.6</ele>
        <time>2017-04-29T09:54:27</time>
        <extensions><speed>1.41</speed></extensions>
      </trkpt>
      <trkpt lat="51.930912000" lon="7.579035000">
        <ele>61.6</ele>
        <time>2017-04-29T09:54:28</time>
        <extensions><speed>1.41</speed></extensions>
      </trkpt>
      <trkpt lat="51.930912000" lon="7.579055000">
        <ele>61.6</ele>
        <time>2017-04-29T09:54:29</time>
        <extensions><speed>1.43</speed></extensions>
      </trkpt>
      <trkpt lat="51.930912000" lon="7.579077000">
        <ele>61.7</ele>
        <time>2017-04-29T09:54:30</time>
        <extensions><speed>1.47</speed></extensions>
      </trkpt>
      <trkpt lat="51.930912000" lon="7.579096000">
        <ele>61.7</ele>
        <time>2017-04-29T09:54:31</time>
        <extensions><speed>1.47</speed></extensions>
      </trkpt>
      <trkpt lat="51.930916000" lon="7.579117000">
        <ele>61.7</ele>
        <time>2017-04-29T09:54:32</time>
        <extensions><speed>1.44</speed></extensions>
      </trkpt>
      <trkpt lat="51.930916000" lon="7.579135000">
        <ele>61.8</ele>
        <time>2017-04-29T09:54:33</time>
        <extensions><speed>1.43</speed></extensions>
      </trkpt>
      <trkpt lat="51.930920000" lon="7.579155000">
        <ele>61.8</ele>
        <time>2017-04-29T09:54:34</time>
        <extensions><speed>1.40</speed></extensions>
      </trkpt>
      <trkpt lat="51.930923000" lon="7.579173000">
        <ele>61.8</ele>
        <time>2017-04-29T09:54:35</time>
        <extensions><speed>1.40</speed></extensions>
      </trkpt>
      <trkpt lat="51.930923000" lon="7.579192000">
        <ele>61.8</ele>
        <time>2017-04-29T09:54:36</time>
        <extensions><speed>1.42</speed></extensions>
      </trkpt>
      <trkpt lat="51.930923000" lon="7.579212000">
        <ele>61.9</ele>
        <time>2017-04-29T09:54:37</time>
        <extensions><speed>1.42</speed></extensions>
      </trkpt>
      <trkpt lat="51.930923000" lon="7.579230000">
        <ele>61.9</ele>
        <time>2017-04-29T09:54:38</time>
        <extensions><speed>1.44</speed></extensions>
      </trkpt>
      <trkpt lat="51.930923000" lon="7.579250000">
        <ele>61.9</ele>
        <time>2017-04-29T09:54:39</time>
        <extensions><speed>1.47</speed></extensions>
      </trkpt>
      <trkpt lat="51.930923000" lon="7.579270000">
        <ele>62.0</ele>
        <time>2017-04-29T09:54:40</time>
        <extensions><speed>1.41</speed></extensions>
      </trkpt>
      <trkpt lat="51.930923000" lon="7.579278000">
        <ele>62.0</ele>
        <time>2017-04-29T09:54:41</time>
      </trkpt>
      <trkpt lat="51.930920000" lon="7.579300000">
        <ele>62.0</ele>
        <time>2017-04-29T09:54:43</time>
        <extensions><speed>1.16</speed></extensions>
      </trkpt>
      <trkpt lat="51.930920000" lon="7.579323000">
        <ele>62.0</ele>
        <time>2017-04-29T09:54:44</time>
        <extensions><speed>1.15</speed></extensions>
      </trkpt>
      <trkpt lat="51.930920000" lon="7.579343000">
        <ele>62.0</ele>
        <time>2017-04-29T09:54:45</time>
        <extensions><speed>1.19</speed></extensions>
      </trkpt>
      <trkpt lat="51.930920000" lon="7.579362000">
        <ele>62.0</ele>
        <time>2017-04-29T09:54:46</time>
        <extensions><speed>1.39</speed></extensions>
      </trkpt>
      <trkpt lat="51.930923000" lon="7.579381000">
        <ele>62.0</ele>
        <time>2017-04-29T09:54:47</time>
        <extensions><speed>1.39</speed></extensions>
      </trkpt>
      <trkpt lat="51.930920000" lon="7.579402000">
        <ele>62.0</ele>
        <time>2017-04-29T09:54:48</time>
        <extensions><speed>1.36</speed></extensions>
      </trkpt>
      <trkpt lat="51.930920000" lon="7.579423000">
        <ele>62.0</ele>
        <time>2017-04-29T09:54:49</time>
        <extensions><speed>1.36</speed></extensions>
      </trkpt>
      <trkpt lat="51.930923000" lon="7.579445000">
        <ele>62.0</ele>
        <time>2017-04-29T09:54:50</time>
        <extensions><speed>1.37</speed></extensions>
      </trkpt>
      <trkpt lat="51.930923000" lon="7.579465000">
        <ele>62.0</ele>
        <time>2017-04-29T09:54:51</time>
        <extensions><speed>1.33</speed></extensions>
      </trkpt>
      <trkpt lat="51.930923000" lon="7.579485000">
        <ele>62.0</ele>
        <time>2017-04-29T09:54:52</time>
        <extensions><speed>1.38</speed></extensions>
      </trkpt>
      <trkpt lat="51.930923000" lon="7.579505000">
        <ele>62.0</ele>
        <time>2017-04-29T09:54:53</time>
        <extensions><speed>1.42</speed></extensions>
      </trkpt>
      <trkpt lat="51.930923000" lon="7.579525000">
        <ele>62.0</ele>
        <time>2017-04-29T09:54:54</time>
        <extensions><speed>1.41</speed></extensions>
      </trkpt>
      <trkpt lat="51.930923000" lon="7.579550000">
        <ele>62.0</ele>
        <time>2017-04-29T09:54:55</time>
        <extensions><speed>1.44</speed></extensions>
      </trkpt>
      <trkpt lat="51.930920000" lon="7.579572000">
        <ele>62.0</ele>
        <time>2017-04-29T09:54:56</time>
        <extensions><speed>1.44</speed></extensions>
      </trkpt>
      <trkpt lat="51.930920000" lon="7.579592000">
        <ele>62.0</ele>
        <time>2017-04-29T09:54:57</time>
        <extensions><speed>1.43</speed></extensions>
      </trkpt>
      <trkpt lat="51.930923000" lon="7.579608000">
        <ele>62.0</ele>
        <time>2017-04-29T09:54:58</time>
        <extensions><speed>1.43</speed></extensions>
      </trkpt>
      <trkpt lat="51.930927000" lon="7.579625000">
        <ele>62.0</ele>
        <time>2017-04-29T09:54:59</time>
        <extensions><speed>1.38</speed></extensions>
      </trkpt>
      <trkpt lat="51.930927000" lon="7.579644000">
        <ele>62.0</ele>
        <time>2017-04-29T09:55:00</time>
        <extensions><speed>1.38</speed></extensions>
      </trkpt>
      <trkpt lat="51.930927000" lon="7.579667000">
        <ele>62.0</ele>
        <time>2017-04-29T09:55:01</time>
        <extensions><speed>1.40</speed></extensions>
      </trkpt>
      <trkpt lat="51.930927000" lon="7.579690000">
        <ele>62.0</ele>
        <time>2017-04-29T09:55:02</time>
        <extensions><speed>1.39</speed></extensions>
      </trkpt>
      <trkpt lat="51.930927000" lon="7.579710000">
        <ele>62.0</ele>
        <time>2017-04-29T09:55:03</time>
        <extensions><speed>1.44</speed></extensions>
      </trkpt>
      <trkpt lat="51.930927000" lon="7.579730000">
        <ele>62.0</ele>
        <time>2017-04-29T09:55:04</time>
        <extensions><speed>1.44</speed></extensions>
      </trkpt>
      <trkpt lat="51.930923000" lon="7.579752000">
        <ele>62.0</ele>
        <time>2017-04-29T09:55:05</time>
        <extensions><speed>1.46</speed></extensions>
      </trkpt>
      <trkpt lat="51.930916000" lon="7.579775000">
        <ele>62.0</ele>
        <time>2017-04-29T09:55:06</time>
        <extensions><speed>1.41</speed></extensions>
      </trkpt>
      <trkpt lat="51.930920000" lon="7.579798000">
        <ele>62.0</ele>
        <time>2017-04-29T09:55:07</time>
        <extensions><speed>1.45</speed></extensions>
      </trkpt>
      <trkpt lat="51.930920000" lon="7.579820000">
        <ele>62.0</ele>
        <time>2017-04-29T09:55:08</time>
        <extensions><speed>1.39</speed></extensions>
      </trkpt>
      <trkpt lat="51.930916000" lon="7.579836000">
        <ele>62.0</ele>
        <time>2017-04-29T09:55:09</time>
        <extensions><speed>1.39</speed></extensions>
      </trkpt>
      <trkpt lat="51.930912000" lon="7.579855000">
        <ele>62.0</ele>
        <time>2017-04-29T09:55:10</time>
        <extensions><speed>1.40</speed></extensions>
      </trkpt>
      <trkpt lat="51.930912000" lon="7.579877000">
        <ele>62.0</ele>
        <time>2017-04-29T09:55:11</time>
        <extensions><speed>1.41</speed></extensions>
      </trkpt>
      <trkpt lat="51.930916000" lon="7.579896000">
        <ele>62.0</ele>
        <time>2017-04-29T09:55:12</time>
        <extensions><speed>1.33</speed></extensions>
      </trkpt>
      <trkpt lat="51.930916000" lon="7.579915000">
        <ele>62.0</ele>
        <time>2017-04-29T09:55:13</time>
        <extensions><speed>1.33</speed></extensions>
      </trkpt>
      <trkpt lat="51.930916000" lon="7.579931000">
        <ele>62.0</ele>
        <time>2017-04-29T09:55:14</time>
        <extensions><speed>1.30</speed></extensions>
      </trkpt>
      <trkpt lat="51.930920000" lon="7.579950000">
        <ele>62.0</ele>
        <time>2017-04-29T09:55:15</time>
        <extensions><speed>1.30</speed></extensions>
      </trkpt>
      <trkpt lat="51.930923000" lon="7.579970000">
        <ele>62.0</ele>
        <time>2017-04-29T09:55:16</time>
        <extensions><speed>1.35</speed></extensions>
      </trkpt>
      <trkpt lat="51.930923000" lon="7.579992000">
        <ele>62.0</ele>
        <time>2017-04-29T09:55:17</time>
        <extensions><speed>1.51</speed></extensions>
      </trkpt>
      <trkpt lat="51.930923000" lon="7.580022000">
        <ele>62.0</ele>
        <time>2017-04-29T09:55:18</time>
        <extensions><speed>1.74</speed></extensions>
      </trkpt>
      <trkpt lat="51.930920000" lon="7.580048000">
        <ele>62.0</ele>
        <time>2017-04-29T09:55:19</time>
        <extensions><speed>1.78</speed></extensions>
      </trkpt>
      <trkpt lat="51.930923000" lon="7.580075000">
        <ele>62.0</ele>
        <time>2017-04-29T09:55:20</time>
        <extensions><speed>1.80</speed></extensions>
      </trkpt>
      <trkpt lat="51.930927000" lon="7.580101000">
        <ele>62.0</ele>
        <time>2017-04-29T09:55:21</time>
        <extensions><speed>1.86</speed></extensions>
      </trkpt>
      <trkpt lat="51.930927000" lon="7.580123000">
        <ele>62.0</ele>
        <time>2017-04-29T09:55:22</time>
        <extensions><speed>1.77</speed></extensions>
      </trkpt>
      <trkpt lat="51.930927000" lon="7.580142000">
        <ele>62.0</ele>
        <time>2017-04-29T09:55:23</time>
        <extensions><speed>1.60</speed></extensions>
      </trkpt>
      <trkpt lat="51.930927000" lon="7.580158000">
        <ele>62.0</ele>
        <time>2017-04-29T09:55:24</time>
        <extensions><speed>1.50</speed></extensions>
      </trkpt>
      <trkpt lat="51.930927000" lon="7.580174000">
        <ele>62.0</ele>
        <time>2017-04-29T09:55:25</time>
        <extensions><speed>1.38</speed></extensions>
      </trkpt>
      <trkpt lat="51.930927000" lon="7.580197000">
        <ele>62.0</ele>
        <time>2017-04-29T09:55:26</time>
        <extensions><speed>1.38</speed></extensions>
      </trkpt>
      <trkpt lat="51.930927000" lon="7.580216000">
        <ele>62.0</ele>
        <time>2017-04-29T09:55:27</time>
        <extensions><speed>1.28</speed></extensions>
      </trkpt>
      <trkpt lat="51.930927000" lon="7.580234000">
        <ele>62.0</ele>
        <time>2017-04-29T09:55:28</time>
        <extensions><speed>1.26</speed></extensions>
      </trkpt>
      <trkpt lat="51.930927000" lon="7.580252000">
        <ele>62.0</ele>
        <time>2017-04-29T09:55:29</time>
        <extensions><speed>1.32</speed></extensions>
      </trkpt>
      <trkpt lat="51.930927000" lon="7.580267000">
        <ele>62.0</ele>
        <time>2017-04-29T09:55:30</time>
        <extensions><speed>1.28</speed></extensions>
      </trkpt>
      <trkpt lat="51.930927000" lon="7.580285000">
        <ele>62.0</ele>
        <time>2017-04-29T09:55:31</time>
        <extensions><speed>1.24</speed></extensions>
      </trkpt>
      <trkpt lat="51.930927000" lon="7.580302000">
        <ele>62.0</ele>
        <time>2017-04-29T09:55:32</time>
        <extensions><speed>1.24</speed></extensions>
      </trkpt>
      <trkpt lat="51.930927000" lon="7.580320000">
        <ele>62.0</ele>
        <time>2017-04-29T09:55:33</time>
        <extensions><speed>1.23</speed></extensions>
      </trkpt>
      <trkpt lat="51.930923000" lon="7.580337000">
        <ele>62.0</ele>
        <time>2017-04-29T09:55:34</time>
        <extensions><speed>1.12</speed></extensions>
      </trkpt>
      <trkpt lat="51.930920000" lon="7.580351000">
        <ele>62.0</ele>
        <time>2017-04-29T09:55:35</time>
        <extensions><speed>1.08</speed></extensions>
      </trkpt>
      <trkpt lat="51.930916000" lon="7.580369000">
        <ele>62.0</ele>
        <time>2017-04-29T09:55:36</time>
        <extensions><speed>1.02</speed></extensions>
      </trkpt>
      <trkpt lat="51.930916000" lon="7.580385000">
        <ele>62.0</ele>
        <time>2017-04-29T09:55:37</time>
        <extensions><speed>1.12</speed></extensions>
      </trkpt>
      <trkpt lat="51.930920000" lon="7.580399000">
        <ele>62.0</ele>
        <time>2017-04-29T09:55:38</time>
        <extensions><speed>0.99</speed></extensions>
      </trkpt>
      <trkpt lat="51.930923000" lon="7.580402000">
        <ele>62.0</ele>
        <time>2017-04-29T09:55:39</time>
      </trkpt>
      <trkpt lat="51.930981000" lon="7.580547000">
        <ele>62.0</ele>
        <time>2017-04-29T09:55:55</time>
      </trkpt>
      <trkpt lat="51.930984000" lon="7.580545000">
        <ele>62.0</ele>
        <time>2017-04-29T09:55:57</time>
        <extensions><speed>0.99</speed></extensions>
      </trkpt>
      <trkpt lat="51.930988000" lon="7.580533000">
        <ele>62.0</ele>
        <time>2017-04-29T09:55:58</time>
        <extensions><speed>0.79</speed></extensions>
      </trkpt>
      <trkpt lat="51.931103000" lon="7.580540000">
        <ele>62.0</ele>
        <time>2017-04-29T09:56:45</time>
      </trkpt>
      <trkpt lat="51.931114000" lon="7.580558000">
        <ele>62.0</ele>
        <time>2017-04-29T09:56:47</time>
        <extensions><speed>1.37</speed></extensions>
      </trkpt>
      <trkpt lat="51.931122000" lon="7.580577000">
        <ele>62.0</ele>
        <time>2017-04-29T09:56:48</time>
        <extensions><speed>1.38</speed></extensions>
      </trkpt>
      <trkpt lat="51.931129000" lon="7.580596000">
        <ele>62.0</ele>
        <time>2017-04-29T09:56:49</time>
        <extensions><speed>1.49</speed></extensions>
      </trkpt>
      <trkpt lat="51.931137000" lon="7.580617000">
        <ele>62.0</ele>
        <time>2017-04-29T09:56:50</time>
        <extensions><speed>1.49</speed></extensions>
      </trkpt>
      <trkpt lat="51.931149000" lon="7.580635000">
        <ele>62.0</ele>
        <time>2017-04-29T09:56:51</time>
        <extensions><speed>1.48</speed></extensions>
      </trkpt>
      <trkpt lat="51.931156000" lon="7.580652000">
        <ele>62.0</ele>
        <time>2017-04-29T09:56:52</time>
        <extensions><speed>1.47</speed></extensions>
      </trkpt>
      <trkpt lat="51.931160000" lon="7.580668000">
        <ele>62.0</ele>
        <time>2017-04-29T09:56:53</time>
        <extensions><speed>1.40</speed></extensions>
      </trkpt>
      <trkpt lat="51.931168000" lon="7.580685000">
        <ele>62.0</ele>
        <time>2017-04-29T09:56:54</time>
        <extensions><speed>1.37</speed></extensions>
      </trkpt>
      <trkpt lat="51.931175000" lon="7.580705000">
        <ele>62.0</ele>
        <time>2017-04-29T09:56:55</time>
        <extensions><speed>1.35</speed></extensions>
      </trkpt>
      <trkpt lat="51.931183000" lon="7.580722000">
        <ele>62.1</ele>
        <time>2017-04-29T09:56:56</time>
        <extensions><speed>1.35</speed></extensions>
      </trkpt>
      <trkpt lat="51.931187000" lon="7.580737000">
        <ele>62.1</ele>
        <time>2017-04-29T09:56:57</time>
        <extensions><speed>1.33</speed></extensions>
      </trkpt>
      <trkpt lat="51.931194000" lon="7.580752000">
        <ele>62.1</ele>
        <time>2017-04-29T09:56:58</time>
        <extensions><speed>1.28</speed></extensions>
      </trkpt>
      <trkpt lat="51.931202000" lon="7.580768000">
        <ele>62.1</ele>
        <time>2017-04-29T09:56:59</time>
        <extensions><speed>1.29</speed></extensions>
      </trkpt>
      <trkpt lat="51.931210000" lon="7.580785000">
        <ele>62.1</ele>
        <time>2017-04-29T09:57:00</time>
        <extensions><speed>1.30</speed></extensions>
      </trkpt>
      <trkpt lat="51.931221000" lon="7.580800000">
        <ele>62.2</ele>
        <time>2017-04-29T09:57:01</time>
        <extensions><speed>1.30</speed></extensions>
      </trkpt>
      <trkpt lat="51.931225000" lon="7.580813000">
        <ele>62.2</ele>
        <time>2017-04-29T09:57:02</time>
        <extensions><speed>1.38</speed></extensions>
      </trkpt>
      <trkpt lat="51.931232000" lon="7.580825000">
        <ele>62.2</ele>
        <time>2017-04-29T09:57:03</time>
        <extensions><speed>1.38</speed></extensions>
      </trkpt>
      <trkpt lat="51.931244000" lon="7.580836000">
        <ele>62.2</ele>
        <time>2017-04-29T09:57:04</time>
        <extensions><speed>1.30</speed></extensions>
      </trkpt>
      <trkpt lat="51.931252000" lon="7.580847000">
        <ele>62.2</ele>
        <time>2017-04-29T09:57:05</time>
        <extensions><speed>1.22</speed></extensions>
      </trkpt>
      <trkpt lat="51.931259000" lon="7.580859000">
        <ele>62.2</ele>
        <time>2017-04-29T09:57:06</time>
        <extensions><speed>1.18</speed></extensions>
      </trkpt>
      <trkpt lat="51.931267000" lon="7.580872000">
        <ele>62.2</ele>
        <time>2017-04-29T09:57:07</time>
        <extensions><speed>1.17</speed></extensions>
      </trkpt>
      <trkpt lat="51.931278000" lon="7.580890000">
        <ele>62.2</ele>
        <time>2017-04-29T09:57:08</time>
        <extensions><speed>1.18</speed></extensions>
      </trkpt>
      <trkpt lat="51.931286000" lon="7.580908000">
        <ele>62.2</ele>
        <time>2017-04-29T09:57:09</time>
        <extensions><speed>1.22</speed></extensions>
      </trkpt>
      <trkpt lat="51.931290000" lon="7.580925000">
        <ele>62.3</ele>
        <time>2017-04-29T09:57:10</time>
        <extensions><speed>1.26</speed></extensions>
      </trkpt>
      <trkpt lat="51.931301000" lon="7.580940000">
        <ele>62.3</ele>
        <time>2017-04-29T09:57:11</time>
        <extensions><speed>1.34</speed></extensions>
      </trkpt>
      <trkpt lat="51.931309000" lon="7.580957000">
        <ele>62.3</ele>
        <time>2017-04-29T09:57:12</time>
        <extensions><speed>1.34</speed></extensions>
      </trkpt>
      <trkpt lat="51.931316000" lon="7.580973000">
        <ele>62.3</ele>
        <time>2017-04-29T09:57:13</time>
        <extensions><speed>1.34</speed></extensions>
      </trkpt>
      <trkpt lat="51.931324000" lon="7.580986000">
        <ele>62.3</ele>
        <time>2017-04-29T09:57:14</time>
        <extensions><speed>1.31</speed></extensions>
      </trkpt>
      <trkpt lat="51.931328000" lon="7.581004000">
        <ele>62.3</ele>
        <time>2017-04-29T09:57:15</time>
        <extensions><speed>1.31</speed></extensions>
      </trkpt>
      <trkpt lat="51.931335000" lon="7.581022000">
        <ele>62.3</ele>
        <time>2017-04-29T09:57:16</time>
        <extensions><speed>1.25</speed></extensions>
      </trkpt>
      <trkpt lat="51.931339000" lon="7.581037000">
        <ele>62.3</ele>
        <time>2017-04-29T09:57:17</time>
        <extensions><speed>1.22</speed></extensions>
      </trkpt>
      <trkpt lat="51.931351000" lon="7.581048000">
        <ele>62.3</ele>
        <time>2017-04-29T09:57:18</time>
        <extensions><speed>1.23</speed></extensions>
      </trkpt>
      <trkpt lat="51.931358000" lon="7.581062000">
        <ele>62.3</ele>
        <time>2017-04-29T09:57:19</time>
        <extensions><speed>1.29</speed></extensions>
      </trkpt>
      <trkpt lat="51.931370000" lon="7.581075000">
        <ele>62.3</ele>
        <time>2017-04-29T09:57:20</time>
        <extensions><speed>1.19</speed></extensions>
      </trkpt>
      <trkpt lat="51.931381000" lon="7.581088000">
        <ele>62.3</ele>
        <time>2017-04-29T09:57:21</time>
        <extensions><speed>1.21</speed></extensions>
      </trkpt>
      <trkpt lat="51.931389000" lon="7.581102000">
        <ele>62.3</ele>
        <time>2017-04-29T09:57:22</time>
        <extensions><speed>1.29</speed></extensions>
      </trkpt>
      <trkpt lat="51.931396000" lon="7.581116000">
        <ele>62.3</ele>
        <time>2017-04-29T09:57:23</time>
        <extensions><speed>1.29</speed></extensions>
      </trkpt>
      <trkpt lat="51.931408000" lon="7.581130000">
        <ele>62.3</ele>
        <time>2017-04-29T09:57:24</time>
        <extensions><speed>1.29</speed></extensions>
      </trkpt>
      <trkpt lat="51.931416000" lon="7.581142000">
        <ele>62.3</ele>
        <time>2017-04-29T09:57:25</time>
        <extensions><speed>1.29</speed></extensions>
      </trkpt>
      <trkpt lat="51.931427000" lon="7.581155000">
        <ele>62.3</ele>
        <time>2017-04-29T09:57:26</time>
        <extensions><speed>1.27</speed></extensions>
      </trkpt>
      <trkpt lat="51.931438000" lon="7.581170000">
        <ele>62.3</ele>
        <time>2017-04-29T09:57:27</time>
        <extensions><speed>1.26</speed></extensions>
      </trkpt>
      <trkpt lat="51.931446000" lon="7.581183000">
        <ele>62.3</ele>
        <time>2017-04-29T09:57:28</time>
        <extensions><speed>1.28</speed></extensions>
      </trkpt>
      <trkpt lat="51.931458000" lon="7.581197000">
        <ele>62.3</ele>
        <time>2017-04-29T09:57:29</time>
        <extensions><speed>1.28</speed></extensions>
      </trkpt>
      <trkpt lat="51.931469000" lon="7.581209000">
        <ele>62.3</ele>
        <time>2017-04-29T09:57:30</time>
        <extensions><speed>1.33</speed></extensions>
      </trkpt>
      <trkpt lat="51.931480000" lon="7.581222000">
        <ele>62.3</ele>
        <time>2017-04-29T09:57:31</time>
        <extensions><speed>1.33</speed></extensions>
      </trkpt>
      <trkpt lat="51.931488000" lon="7.581234000">
        <ele>62.3</ele>
        <time>2017-04-29T09:57:32</time>
        <extensions><speed>1.36</speed></extensions>
      </trkpt>
      <trkpt lat="51.931503000" lon="7.581242000">
        <ele>62.3</ele>
        <time>2017-04-29T09:57:33</time>
        <extensions><speed>1.37</speed></extensions>
      </trkpt>
      <trkpt lat="51.931515000" lon="7.581253000">
        <ele>62.3</ele>
        <time>2017-04-29T09:57:34</time>
        <extensions><speed>1.36</speed></extensions>
      </trkpt>
      <trkpt lat="51.931522000" lon="7.581265000">
        <ele>62.3</ele>
        <time>2017-04-29T09:57:35</time>
        <extensions><speed>1.34</speed></extensions>
      </trkpt>
      <trkpt lat="51.931534000" lon="7.581277000">
        <ele>62.3</ele>
        <time>2017-04-29T09:57:36</time>
        <extensions><speed>1.35</speed></extensions>
      </trkpt>
      <trkpt lat="51.931541000" lon="7.581286000">
        <ele>62.3</ele>
        <time>2017-04-29T09:57:37</time>
        <extensions><speed>1.32</speed></extensions>
      </trkpt>
      <trkpt lat="51.931549000" lon="7.581300000">
        <ele>62.3</ele>
        <time>2017-04-29T09:57:38</time>
        <extensions><speed>1.32</speed></extensions>
      </trkpt>
      <trkpt lat="51.931564000" lon="7.581312000">
        <ele>62.3</ele>
        <time>2017-04-29T09:57:39</time>
        <extensions><speed>1.34</speed></extensions>
      </trkpt>
      <trkpt lat="51.931576000" lon="7.581316000">
        <ele>62.2</ele>
        <time>2017-04-29T09:57:40</time>
        <extensions><speed>1.32</speed></extensions>
      </trkpt>
      <trkpt lat="51.931580000" lon="7.581316000">
        <ele>62.2</ele>
        <time>2017-04-29T09:57:41</time>
        <extensions><speed>1.11</speed></extensions>
      </trkpt>
      <trkpt lat="51.931583000" lon="7.581319000">
        <ele>62.2</ele>
        <time>2017-04-29T09:57:42</time>
        <extensions><speed>1.07</speed></extensions>
      </trkpt>
      <trkpt lat="51.931599000" lon="7.581328000">
        <ele>62.2</ele>
        <time>2017-04-29T09:57:43</time>
        <extensions><speed>0.97</speed></extensions>
      </trkpt>
      <trkpt lat="51.931610000" lon="7.581335000">
        <ele>62.2</ele>
        <time>2017-04-29T09:57:44</time>
        <extensions><speed>0.97</speed></extensions>
      </trkpt>
      <trkpt lat="51.931622000" lon="7.581347000">
        <ele>62.2</ele>
        <time>2017-04-29T09:57:45</time>
        <extensions><speed>1.13</speed></extensions>
      </trkpt>
      <trkpt lat="51.931633000" lon="7.581357000">
        <ele>62.2</ele>
        <time>2017-04-29T09:57:46</time>
        <extensions><speed>1.19</speed></extensions>
      </trkpt>
      <trkpt lat="51.931644000" lon="7.581365000">
        <ele>62.1</ele>
        <time>2017-04-29T09:57:47</time>
        <extensions><speed>1.22</speed></extensions>
      </trkpt>
      <trkpt lat="51.931656000" lon="7.581372000">
        <ele>62.1</ele>
        <time>2017-04-29T09:57:48</time>
        <extensions><speed>1.26</speed></extensions>
      </trkpt>
      <trkpt lat="51.931667000" lon="7.581378000">
        <ele>62.1</ele>
        <time>2017-04-29T09:57:49</time>
        <extensions><speed>1.30</speed></extensions>
      </trkpt>
      <trkpt lat="51.931679000" lon="7.581385000">
        <ele>62.1</ele>
        <time>2017-04-29T09:57:50</time>
        <extensions><speed>1.27</speed></extensions>
      </trkpt>
      <trkpt lat="51.931694000" lon="7.581393000">
        <ele>62.1</ele>
        <time>2017-04-29T09:57:51</time>
        <extensions><speed>1.26</speed></extensions>
      </trkpt>
      <trkpt lat="51.931705000" lon="7.581403000">
        <ele>62.1</ele>
        <time>2017-04-29T09:57:52</time>
        <extensions><speed>1.29</speed></extensions>
      </trkpt>
      <trkpt lat="51.931713000" lon="7.581413000">
        <ele>62.1</ele>
        <time>2017-04-29T09:57:53</time>
        <extensions><speed>1.25</speed></extensions>
      </trkpt>
      <trkpt lat="51.931725000" lon="7.581420000">
        <ele>62.0</ele>
        <time>2017-04-29T09:57:54</time>
        <extensions><speed>1.25</speed></extensions>
      </trkpt>
      <trkpt lat="51.931740000" lon="7.581426000">
        <ele>62.0</ele>
        <time>2017-04-29T09:57:55</time>
        <extensions><speed>1.27</speed></extensions>
      </trkpt>
      <trkpt lat="51.931751000" lon="7.581431000">
        <ele>62.0</ele>
        <time>2017-04-29T09:57:56</time>
        <extensions><speed>1.28</speed></extensions>
      </trkpt>
      <trkpt lat="51.931763000" lon="7.581440000">
        <ele>62.0</ele>
        <time>2017-04-29T09:57:57</time>
        <extensions><speed>1.24</speed></extensions>
      </trkpt>
      <trkpt lat="51.931774000" lon="7.581452000">
        <ele>62.0</ele>
        <time>2017-04-29T09:57:58</time>
        <extensions><speed>1.30</speed></extensions>
      </trkpt>
      <trkpt lat="51.931782000" lon="7.581463000">
        <ele>62.0</ele>
        <time>2017-04-29T09:57:59</time>
        <extensions><speed>1.27</speed></extensions>
      </trkpt>
      <trkpt lat="51.931793000" lon="7.581477000">
        <ele>62.0</ele>
        <time>2017-04-29T09:58:00</time>
        <extensions><speed>1.31</speed></extensions>
      </trkpt>
      <trkpt lat="51.931808000" lon="7.581491000">
        <ele>62.0</ele>
        <time>2017-04-29T09:58:01</time>
        <extensions><speed>1.45</speed></extensions>
      </trkpt>
      <trkpt lat="51.931820000" lon="7.581500000">
        <ele>62.0</ele>
        <time>2017-04-29T09:58:02</time>
        <extensions><speed>1.48</speed></extensions>
      </trkpt>
      <trkpt lat="51.931831000" lon="7.581507000">
        <ele>62.0</ele>
        <time>2017-04-29T09:58:03</time>
        <extensions><speed>1.47</speed></extensions>
      </trkpt>
      <trkpt lat="51.931843000" lon="7.581511000">
        <ele>62.0</ele>
        <time>2017-04-29T09:58:04</time>
        <extensions><speed>1.47</speed></extensions>
      </trkpt>
      <trkpt lat="51.931862000" lon="7.581519000">
        <ele>62.0</ele>
        <time>2017-04-29T09:58:05</time>
        <extensions><speed>1.37</speed></extensions>
      </trkpt>
      <trkpt lat="51.931873000" lon="7.581530000">
        <ele>62.0</ele>
        <time>2017-04-29T09:58:06</time>
        <extensions><speed>1.31</speed></extensions>
      </trkpt>
      <trkpt lat="51.931881000" lon="7.581545000">
        <ele>62.0</ele>
        <time>2017-04-29T09:58:07</time>
        <extensions><speed>1.28</speed></extensions>
      </trkpt>
      <trkpt lat="51.931889000" lon="7.581557000">
        <ele>62.0</ele>
        <time>2017-04-29T09:58:08</time>
        <extensions><speed>1.26</speed></extensions>
      </trkpt>
      <trkpt lat="51.931900000" lon="7.581563000">
        <ele>62.0</ele>
        <time>2017-04-29T09:58:09</time>
        <extensions><speed>1.26</speed></extensions>
      </trkpt>
      <trkpt lat="51.931908000" lon="7.581572000">
        <ele>62.0</ele>
        <time>2017-04-29T09:58:10</time>
        <extensions><speed>1.31</speed></extensions>
      </trkpt>
      <trkpt lat="51.931923000" lon="7.581585000">
        <ele>62.0</ele>
        <time>2017-04-29T09:58:11</time>
        <extensions><speed>1.33</speed></extensions>
      </trkpt>
      <trkpt lat="51.931938000" lon="7.581594000">
        <ele>62.0</ele>
        <time>2017-04-29T09:58:12</time>
        <extensions><speed>1.35</speed></extensions>
      </trkpt>
      <trkpt lat="51.931946000" lon="7.581601000">
        <ele>62.0</ele>
        <time>2017-04-29T09:58:13</time>
        <extensions><speed>1.35</speed></extensions>
      </trkpt>
      <trkpt lat="51.931957000" lon="7.581608000">
        <ele>62.0</ele>
        <time>2017-04-29T09:58:14</time>
        <extensions><speed>1.36</speed></extensions>
      </trkpt>
      <trkpt lat="51.931969000" lon="7.581617000">
        <ele>62.0</ele>
        <time>2017-04-29T09:58:15</time>
        <extensions><speed>1.32</speed></extensions>
      </trkpt>
      <trkpt lat="51.931980000" lon="7.581625000">
        <ele>62.0</ele>
        <time>2017-04-29T09:58:16</time>
        <extensions><speed>1.29</speed></extensions>
      </trkpt>
      <trkpt lat="51.931992000" lon="7.581632000">
        <ele>62.0</ele>
        <time>2017-04-29T09:58:17</time>
        <extensions><speed>1.27</speed></extensions>
      </trkpt>
      <trkpt lat="51.932003000" lon="7.581642000">
        <ele>62.0</ele>
        <time>2017-04-29T09:58:18</time>
        <extensions><speed>1.27</speed></extensions>
      </trkpt>
      <trkpt lat="51.932007000" lon="7.581652000">
        <ele>62.0</ele>
        <time>2017-04-29T09:58:19</time>
        <extensions><speed>1.27</speed></extensions>
      </trkpt>
      <trkpt lat="51.932014000" lon="7.581664000">
        <ele>62.0</ele>
        <time>2017-04-29T09:58:20</time>
        <extensions><speed>1.29</speed></extensions>
      </trkpt>
      <trkpt lat="51.932022000" lon="7.581675000">
        <ele>62.0</ele>
        <time>2017-04-29T09:58:21</time>
        <extensions><speed>1.29</speed></extensions>
      </trkpt>
      <trkpt lat="51.932034000" lon="7.581685000">
        <ele>62.0</ele>
        <time>2017-04-29T09:58:22</time>
        <extensions><speed>1.27</speed></extensions>
      </trkpt>
      <trkpt lat="51.932041000" lon="7.581697000">
        <ele>62.0</ele>
        <time>2017-04-29T09:58:23</time>
        <extensions><speed>1.30</speed></extensions>
      </trkpt>
      <trkpt lat="51.932053000" lon="7.581707000">
        <ele>62.0</ele>
        <time>2017-04-29T09:58:24</time>
        <extensions><speed>1.33</speed></extensions>
      </trkpt>
      <trkpt lat="51.932064000" lon="7.581715000">
        <ele>62.0</ele>
        <time>2017-04-29T09:58:25</time>
        <extensions><speed>1.33</speed></extensions>
      </trkpt>
      <trkpt lat="51.932072000" lon="7.581723000">
        <ele>62.0</ele>
        <time>2017-04-29T09:58:26</time>
        <extensions><speed>1.33</speed></extensions>
      </trkpt>
      <trkpt lat="51.932083000" lon="7.581734000">
        <ele>62.0</ele>
        <time>2017-04-29T09:58:27</time>
        <extensions><speed>1.40</speed></extensions>
      </trkpt>
      <trkpt lat="51.932095000" lon="7.581741000">
        <ele>62.0</ele>
        <time>2017-04-29T09:58:28</time>
        <extensions><speed>1.35</speed></extensions>
      </trkpt>
      <trkpt lat="51.932106000" lon="7.581750000">
        <ele>62.0</ele>
        <time>2017-04-29T09:58:29</time>
        <extensions><speed>1.35</speed></extensions>
      </trkpt>
      <trkpt lat="51.932121000" lon="7.581758000">
        <ele>62.0</ele>
        <time>2017-04-29T09:58:30</time>
        <extensions><speed>1.37</speed></extensions>
      </trkpt>
      <trkpt lat="51.932133000" lon="7.581769000">
        <ele>62.0</ele>
        <time>2017-04-29T09:58:31</time>
        <extensions><speed>1.41</speed></extensions>
      </trkpt>
      <trkpt lat="51.932140000" lon="7.581780000">
        <ele>62.0</ele>
        <time>2017-04-29T09:58:32</time>
        <extensions><speed>1.40</speed></extensions>
      </trkpt>
      <trkpt lat="51.932156000" lon="7.581795000">
        <ele>62.0</ele>
        <time>2017-04-29T09:58:33</time>
        <extensions><speed>1.41</speed></extensions>
      </trkpt>
      <trkpt lat="51.932167000" lon="7.581810000">
        <ele>62.0</ele>
        <time>2017-04-29T09:58:34</time>
        <extensions><speed>1.46</speed></extensions>
      </trkpt>
      <trkpt lat="51.932175000" lon="7.581825000">
        <ele>62.0</ele>
        <time>2017-04-29T09:58:35</time>
        <extensions><speed>1.46</speed></extensions>
      </trkpt>
      <trkpt lat="51.932186000" lon="7.581835000">
        <ele>62.0</ele>
        <time>2017-04-29T09:58:36</time>
        <extensions><speed>1.48</speed></extensions>
      </trkpt>
      <trkpt lat="51.932198000" lon="7.581845000">
        <ele>62.0</ele>
        <time>2017-04-29T09:58:37</time>
        <extensions><speed>1.49</speed></extensions>
      </trkpt>
      <trkpt lat="51.932209000" lon="7.581857000">
        <ele>62.0</ele>
        <time>2017-04-29T09:58:38</time>
        <extensions><speed>1.44</speed></extensions>
      </trkpt>
      <trkpt lat="51.932220000" lon="7.581867000">
        <ele>62.0</ele>
        <time>2017-04-29T09:58:39</time>
        <extensions><speed>1.41</speed></extensions>
      </trkpt>
      <trkpt lat="51.932232000" lon="7.581876000">
        <ele>62.0</ele>
        <time>2017-04-29T09:58:40</time>
        <extensions><speed>1.42</speed></extensions>
      </trkpt>
      <trkpt lat="51.932240000" lon="7.581885000">
        <ele>62.0</ele>
        <time>2017-04-29T09:58:41</time>
        <extensions><speed>1.39</speed></extensions>
      </trkpt>
      <trkpt lat="51.932247000" lon="7.581892000">
        <ele>62.0</ele>
        <time>2017-04-29T09:58:42</time>
        <extensions><speed>1.29</speed></extensions>
      </trkpt>
      <trkpt lat="51.932259000" lon="7.581902000">
        <ele>62.0</ele>
        <time>2017-04-29T09:58:43</time>
        <extensions><speed>1.32</speed></extensions>
      </trkpt>
      <trkpt lat="51.932270000" lon="7.581911000">
        <ele>62.0</ele>
        <time>2017-04-29T09:58:44</time>
        <extensions><speed>1.35</speed></extensions>
      </trkpt>
      <trkpt lat="51.932281000" lon="7.581920000">
        <ele>62.0</ele>
        <time>2017-04-29T09:58:45</time>
        <extensions><speed>1.33</speed></extensions>
      </trkpt>
      <trkpt lat="51.932297000" lon="7.581928000">
        <ele>62.0</ele>
        <time>2017-04-29T09:58:46</time>
        <extensions><speed>1.44</speed></extensions>
      </trkpt>
      <trkpt lat="51.932304000" lon="7.581939000">
        <ele>62.0</ele>
        <time>2017-04-29T09:58:47</time>
        <extensions><speed>1.44</speed></extensions>
      </trkpt>
      <trkpt lat="51.932316000" lon="7.581946000">
        <ele>62.0</ele>
        <time>2017-04-29T09:58:48</time>
        <extensions><speed>1.40</speed></extensions>
      </trkpt>
      <trkpt lat="51.932327000" lon="7.581956000">
        <ele>62.0</ele>
        <time>2017-04-29T09:58:49</time>
        <extensions><speed>1.40</speed></extensions>
      </trkpt>
      <trkpt lat="51.932339000" lon="7.581968000">
        <ele>62.0</ele>
        <time>2017-04-29T09:58:50</time>
        <extensions><speed>1.42</speed></extensions>
      </trkpt>
      <trkpt lat="51.932354000" lon="7.581977000">
        <ele>62.0</ele>
        <time>2017-04-29T09:58:51</time>
        <extensions><speed>1.40</speed></extensions>
      </trkpt>
      <trkpt lat="51.932362000" lon="7.581983000">
        <ele>62.0</ele>
        <time>2017-04-29T09:58:52</time>
        <extensions><speed>1.43</speed></extensions>
      </trkpt>
      <trkpt lat="51.932377000" lon="7.581988000">
        <ele>62.0</ele>
        <time>2017-04-29T09:58:53</time>
        <extensions><speed>1.44</speed></extensions>
      </trkpt>
      <trkpt lat="51.932388000" lon="7.581996000">
        <ele>62.0</ele>
        <time>2017-04-29T09:58:54</time>
        <extensions><speed>1.43</speed></extensions>
      </trkpt>
      <trkpt lat="51.932400000" lon="7.582005000">
        <ele>62.0</ele>
        <time>2017-04-29T09:58:55</time>
        <extensions><speed>1.42</speed></extensions>
      </trkpt>
      <trkpt lat="51.932411000" lon="7.582008000">
        <ele>62.0</ele>
        <time>2017-04-29T09:58:56</time>
        <extensions><speed>1.43</speed></extensions>
      </trkpt>
      <trkpt lat="51.932423000" lon="7.582010000">
        <ele>62.0</ele>
        <time>2017-04-29T09:58:57</time>
        <extensions><speed>1.39</speed></extensions>
      </trkpt>
      <trkpt lat="51.932434000" lon="7.582016000">
        <ele>62.0</ele>
        <time>2017-04-29T09:58:58</time>
        <extensions><speed>1.36</speed></extensions>
      </trkpt>
      <trkpt lat="51.932446000" lon="7.582025000">
        <ele>62.0</ele>
        <time>2017-04-29T09:58:59</time>
        <extensions><speed>1.33</speed></extensions>
      </trkpt>
      <trkpt lat="51.932457000" lon="7.582032000">
        <ele>62.0</ele>
        <time>2017-04-29T09:59:00</time>
        <extensions><speed>1.32</speed></extensions>
      </trkpt>
      <trkpt lat="51.932468000" lon="7.582037000">
        <ele>62.0</ele>
        <time>2017-04-29T09:59:01</time>
        <extensions><speed>1.32</speed></extensions>
      </trkpt>
      <trkpt lat="51.932480000" lon="7.582044000">
        <ele>61.9</ele>
        <time>2017-04-29T09:59:02</time>
        <extensions><speed>1.32</speed></extensions>
      </trkpt>
      <trkpt lat="51.932491000" lon="7.582053000">
        <ele>61.9</ele>
        <time>2017-04-29T09:59:03</time>
        <extensions><speed>1.22</speed></extensions>
      </trkpt>
      <trkpt lat="51.932495000" lon="7.582061000">
        <ele>61.9</ele>
        <time>2017-04-29T09:59:04</time>
        <extensions><speed>1.11</speed></extensions>
      </trkpt>
      <trkpt lat="51.932507000" lon="7.582068000">
        <ele>61.9</ele>
        <time>2017-04-29T09:59:05</time>
        <extensions><speed>1.11</speed></extensions>
      </trkpt>
      <trkpt lat="51.932514000" lon="7.582078000">
        <ele>61.9</ele>
        <time>2017-04-29T09:59:06</time>
        <extensions><speed>1.08</speed></extensions>
      </trkpt>
      <trkpt lat="51.932526000" lon="7.582088000">
        <ele>61.9</ele>
        <time>2017-04-29T09:59:07</time>
        <extensions><speed>1.16</speed></extensions>
      </trkpt>
      <trkpt lat="51.932533000" lon="7.582098000">
        <ele>61.8</ele>
        <time>2017-04-29T09:59:08</time>
        <extensions><speed>1.22</speed></extensions>
      </trkpt>
      <trkpt lat="51.932545000" lon="7.582107000">
        <ele>61.8</ele>
        <time>2017-04-29T09:59:09</time>
        <extensions><speed>1.28</speed></extensions>
      </trkpt>
      <trkpt lat="51.932552000" lon="7.582117000">
        <ele>61.8</ele>
        <time>2017-04-29T09:59:10</time>
        <extensions><speed>1.25</speed></extensions>
      </trkpt>
      <trkpt lat="51.932560000" lon="7.582127000">
        <ele>61.8</ele>
        <time>2017-04-29T09:59:11</time>
        <extensions><speed>1.24</speed></extensions>
      </trkpt>
      <trkpt lat="51.932571000" lon="7.582137000">
        <ele>61.8</ele>
        <time>2017-04-29T09:59:12</time>
        <extensions><speed>1.24</speed></extensions>
      </trkpt>
      <trkpt lat="51.932579000" lon="7.582150000">
        <ele>61.8</ele>
        <time>2017-04-29T09:59:13</time>
        <extensions><speed>1.30</speed></extensions>
      </trkpt>
      <trkpt lat="51.932590000" lon="7.582165000">
        <ele>61.8</ele>
        <time>2017-04-29T09:59:14</time>
        <extensions><speed>1.34</speed></extensions>
      </trkpt>
      <trkpt lat="51.932598000" lon="7.582180000">
        <ele>61.7</ele>
        <time>2017-04-29T09:59:15</time>
        <extensions><speed>1.39</speed></extensions>
      </trkpt>
      <trkpt lat="51.932613000" lon="7.582193000">
        <ele>61.7</ele>
        <time>2017-04-29T09:59:16</time>
        <extensions><speed>1.44</speed></extensions>
      </trkpt>
      <trkpt lat="51.932625000" lon="7.582203000">
        <ele>61.7</ele>
        <time>2017-04-29T09:59:17</time>
        <extensions><speed>1.42</speed></extensions>
      </trkpt>
      <trkpt lat="51.932636000" lon="7.582213000">
        <ele>61.7</ele>
        <time>2017-04-29T09:59:18</time>
        <extensions><speed>1.40</speed></extensions>
      </trkpt>
      <trkpt lat="51.932648000" lon="7.582224000">
        <ele>61.7</ele>
        <time>2017-04-29T09:59:19</time>
        <extensions><speed>1.36</speed></extensions>
      </trkpt>
      <trkpt lat="51.932659000" lon="7.582232000">
        <ele>61.7</ele>
        <time>2017-04-29T09:59:20</time>
        <extensions><speed>1.36</speed></extensions>
      </trkpt>
      <trkpt lat="51.932671000" lon="7.582242000">
        <ele>61.7</ele>
        <time>2017-04-29T09:59:21</time>
        <extensions><speed>1.36</speed></extensions>
      </trkpt>
      <trkpt lat="51.932686000" lon="7.582250000">
        <ele>61.6</ele>
        <time>2017-04-29T09:59:22</time>
        <extensions><speed>1.37</speed></extensions>
      </trkpt>
      <trkpt lat="51.932693000" lon="7.582257000">
        <ele>61.6</ele>
        <time>2017-04-29T09:59:23</time>
        <extensions><speed>1.39</speed></extensions>
      </trkpt>
      <trkpt lat="51.932709000" lon="7.582266000">
        <ele>61.6</ele>
        <time>2017-04-29T09:59:24</time>
        <extensions><speed>1.39</speed></extensions>
      </trkpt>
      <trkpt lat="51.932716000" lon="7.582275000">
        <ele>61.6</ele>
        <time>2017-04-29T09:59:25</time>
        <extensions><speed>1.39</speed></extensions>
      </trkpt>
      <trkpt lat="51.932724000" lon="7.582285000">
        <ele>61.6</ele>
        <time>2017-04-29T09:59:26</time>
        <extensions><speed>1.38</speed></extensions>
      </trkpt>
      <trkpt lat="51.932735000" lon="7.582294000">
        <ele>61.6</ele>
        <time>2017-04-29T09:59:27</time>
        <extensions><speed>1.34</speed></extensions>
      </trkpt>
      <trkpt lat="51.932751000" lon="7.582308000">
        <ele>61.5</ele>
        <time>2017-04-29T09:59:28</time>
        <extensions><speed>1.34</speed></extensions>
      </trkpt>
      <trkpt lat="51.932758000" lon="7.582320000">
        <ele>61.5</ele>
        <time>2017-04-29T09:59:29</time>
        <extensions><speed>1.35</speed></extensions>
      </trkpt>
      <trkpt lat="51.932770000" lon="7.582329000">
        <ele>61.5</ele>
        <time>2017-04-29T09:59:30</time>
        <extensions><speed>1.35</speed></extensions>
      </trkpt>
      <trkpt lat="51.932781000" lon="7.582338000">
        <ele>61.5</ele>
        <time>2017-04-29T09:59:31</time>
        <extensions><speed>1.34</speed></extensions>
      </trkpt>
      <trkpt lat="51.932785000" lon="7.582348000">
        <ele>61.5</ele>
        <time>2017-04-29T09:59:32</time>
        <extensions><speed>1.38</speed></extensions>
      </trkpt>
      <trkpt lat="51.932800000" lon="7.582359000">
        <ele>61.5</ele>
        <time>2017-04-29T09:59:33</time>
        <extensions><speed>1.31</speed></extensions>
      </trkpt>
      <trkpt lat="51.932812000" lon="7.582366000">
        <ele>61.4</ele>
        <time>2017-04-29T09:59:34</time>
        <extensions><speed>1.29</speed></extensions>
      </trkpt>
      <trkpt lat="51.932823000" lon="7.582376000">
        <ele>61.4</ele>
        <time>2017-04-29T09:59:35</time>
        <extensions><speed>1.34</speed></extensions>
      </trkpt>
      <trkpt lat="51.932835000" lon="7.582390000">
        <ele>61.4</ele>
        <time>2017-04-29T09:59:36</time>
        <extensions><speed>1.36</speed></extensions>
      </trkpt>
      <trkpt lat="51.932846000" lon="7.582403000">
        <ele>61.4</ele>
        <time>2017-04-29T09:59:37</time>
        <extensions><speed>1.36</speed></extensions>
      </trkpt>
      <trkpt lat="51.932850000" lon="7.582415000">
        <ele>61.4</ele>
        <time>2017-04-29T09:59:38</time>
        <extensions><speed>1.36</speed></extensions>
      </trkpt>
      <trkpt lat="51.932861000" lon="7.582425000">
        <ele>61.4</ele>
        <time>2017-04-29T09:59:39</time>
        <extensions><speed>1.40</speed></extensions>
      </trkpt>
      <trkpt lat="51.932873000" lon="7.582435000">
        <ele>61.4</ele>
        <time>2017-04-29T09:59:40</time>
        <extensions><speed>1.41</speed></extensions>
      </trkpt>
      <trkpt lat="51.932884000" lon="7.582445000">
        <ele>61.3</ele>
        <time>2017-04-29T09:59:41</time>
        <extensions><speed>1.41</speed></extensions>
      </trkpt>
      <trkpt lat="51.932899000" lon="7.582457000">
        <ele>61.3</ele>
        <time>2017-04-29T09:59:42</time>
        <extensions><speed>1.42</speed></extensions>
      </trkpt>
      <trkpt lat="51.932911000" lon="7.582468000">
        <ele>61.3</ele>
        <time>2017-04-29T09:59:43</time>
        <extensions><speed>1.42</speed></extensions>
      </trkpt>
      <trkpt lat="51.932919000" lon="7.582480000">
        <ele>61.3</ele>
        <time>2017-04-29T09:59:44</time>
        <extensions><speed>1.42</speed></extensions>
      </trkpt>
      <trkpt lat="51.932930000" lon="7.582490000">
        <ele>61.3</ele>
        <time>2017-04-29T09:59:45</time>
        <extensions><speed>1.39</speed></extensions>
      </trkpt>
      <trkpt lat="51.932941000" lon="7.582500000">
        <ele>61.3</ele>
        <time>2017-04-29T09:59:46</time>
        <extensions><speed>1.38</speed></extensions>
      </trkpt>
      <trkpt lat="51.932953000" lon="7.582511000">
        <ele>61.3</ele>
        <time>2017-04-29T09:59:47</time>
        <extensions><speed>1.37</speed></extensions>
      </trkpt>
      <trkpt lat="51.932964000" lon="7.582522000">
        <ele>61.2</ele>
        <time>2017-04-29T09:59:48</time>
        <extensions><speed>1.36</speed></extensions>
      </trkpt>
      <trkpt lat="51.932976000" lon="7.582532000">
        <ele>61.2</ele>
        <time>2017-04-29T09:59:49</time>
        <extensions><speed>1.31</speed></extensions>
      </trkpt>
      <trkpt lat="51.932980000" lon="7.582537000">
        <ele>61.2</ele>
        <time>2017-04-29T09:59:50</time>
      </trkpt>
      <trkpt lat="51.932991000" lon="7.582545000">
        <ele>61.2</ele>
        <time>2017-04-29T09:59:52</time>
        <extensions><speed>1.23</speed></extensions>
      </trkpt>
      <trkpt lat="51.932999000" lon="7.582557000">
        <ele>61.1</ele>
        <time>2017-04-29T09:59:53</time>
        <extensions><speed>1.23</speed></extensions>
      </trkpt>
      <trkpt lat="51.933010000" lon="7.582571000">
        <ele>61.1</ele>
        <time>2017-04-29T09:59:54</time>
        <extensions><speed>1.26</speed></extensions>
      </trkpt>
      <trkpt lat="51.933022000" lon="7.582582000">
        <ele>61.1</ele>
        <time>2017-04-29T09:59:55</time>
        <extensions><speed>1.33</speed></extensions>
      </trkpt>
      <trkpt lat="51.933033000" lon="7.582592000">
        <ele>61.1</ele>
        <time>2017-04-29T09:59:56</time>
        <extensions><speed>1.33</speed></extensions>
      </trkpt>
      <trkpt lat="51.933041000" lon="7.582603000">
        <ele>61.1</ele>
        <time>2017-04-29T09:59:57</time>
        <extensions><speed>1.28</speed></extensions>
      </trkpt>
      <trkpt lat="51.933044000" lon="7.582615000">
        <ele>61.1</ele>
        <time>2017-04-29T09:59:58</time>
        <extensions><speed>1.24</speed></extensions>
      </trkpt>
      <trkpt lat="51.933056000" lon="7.582627000">
        <ele>61.1</ele>
        <time>2017-04-29T09:59:59</time>
        <extensions><speed>1.24</speed></extensions>
      </trkpt>
      <trkpt lat="51.933067000" lon="7.582639000">
        <ele>61.1</ele>
        <time>2017-04-29T10:00:00</time>
        <extensions><speed>1.24</speed></extensions>
      </trkpt>
      <trkpt lat="51.933079000" lon="7.582648000">
        <ele>61.1</ele>
        <time>2017-04-29T10:00:01</time>
        <extensions><speed>1.30</speed></extensions>
      </trkpt>
      <trkpt lat="51.933090000" lon="7.582660000">
        <ele>61.0</ele>
        <time>2017-04-29T10:00:02</time>
        <extensions><speed>1.35</speed></extensions>
      </trkpt>
      <trkpt lat="51.933102000" lon="7.582674000">
        <ele>61.0</ele>
        <time>2017-04-29T10:00:03</time>
        <extensions><speed>1.37</speed></extensions>
      </trkpt>
      <trkpt lat="51.933109000" lon="7.582686000">
        <ele>61.0</ele>
        <time>2017-04-29T10:00:04</time>
        <extensions><speed>1.37</speed></extensions>
      </trkpt>
      <trkpt lat="51.933117000" lon="7.582700000">
        <ele>61.0</ele>
        <time>2017-04-29T10:00:05</time>
        <extensions><speed>1.31</speed></extensions>
      </trkpt>
      <trkpt lat="51.933125000" lon="7.582718000">
        <ele>61.0</ele>
        <time>2017-04-29T10:00:06</time>
        <extensions><speed>1.31</speed></extensions>
      </trkpt>
      <trkpt lat="51.933132000" lon="7.582737000">
        <ele>61.0</ele>
        <time>2017-04-29T10:00:07</time>
        <extensions><speed>1.31</speed></extensions>
      </trkpt>
      <trkpt lat="51.933140000" lon="7.582755000">
        <ele>61.1</ele>
        <time>2017-04-29T10:00:08</time>
        <extensions><speed>1.29</speed></extensions>
      </trkpt>
      <trkpt lat="51.933144000" lon="7.582774000">
        <ele>61.1</ele>
        <time>2017-04-29T10:00:09</time>
        <extensions><speed>1.37</speed></extensions>
      </trkpt>
      <trkpt lat="51.933151000" lon="7.582793000">
        <ele>61.1</ele>
        <time>2017-04-29T10:00:10</time>
        <extensions><speed>1.44</speed></extensions>
      </trkpt>
      <trkpt lat="51.933163000" lon="7.582814000">
        <ele>61.1</ele>
        <time>2017-04-29T10:00:11</time>
        <extensions><speed>1.44</speed></extensions>
      </trkpt>
      <trkpt lat="51.933170000" lon="7.582831000">
        <ele>61.1</ele>
        <time>2017-04-29T10:00:12</time>
        <extensions><speed>1.38</speed></extensions>
      </trkpt>
      <trkpt lat="51.933174000" lon="7.582849000">
        <ele>61.2</ele>
        <time>2017-04-29T10:00:13</time>
        <extensions><speed>1.39</speed></extensions>
      </trkpt>
      <trkpt lat="51.933182000" lon="7.582867000">
        <ele>61.2</ele>
        <time>2017-04-29T10:00:14</time>
        <extensions><speed>1.41</speed></extensions>
      </trkpt>
      <trkpt lat="51.933193000" lon="7.582884000">
        <ele>61.2</ele>
        <time>2017-04-29T10:00:15</time>
        <extensions><speed>1.35</speed></extensions>
      </trkpt>
      <trkpt lat="51.933201000" lon="7.582897000">
        <ele>61.2</ele>
        <time>2017-04-29T10:00:16</time>
        <extensions><speed>1.33</speed></extensions>
      </trkpt>
      <trkpt lat="51.933208000" lon="7.582913000">
        <ele>61.2</ele>
        <time>2017-04-29T10:00:17</time>
        <extensions><speed>1.30</speed></extensions>
      </trkpt>
      <trkpt lat="51.933212000" lon="7.582932000">
        <ele>61.3</ele>
        <time>2017-04-29T10:00:18</time>
        <extensions><speed>1.30</speed></extensions>
      </trkpt>
      <trkpt lat="51.933224000" lon="7.582950000">
        <ele>61.3</ele>
        <time>2017-04-29T10:00:19</time>
        <extensions><speed>1.29</speed></extensions>
      </trkpt>
      <trkpt lat="51.933231000" lon="7.582965000">
        <ele>61.3</ele>
        <time>2017-04-29T10:00:20</time>
        <extensions><speed>1.29</speed></extensions>
      </trkpt>
      <trkpt lat="51.933239000" lon="7.582980000">
        <ele>61.3</ele>
        <time>2017-04-29T10:00:21</time>
        <extensions><speed>1.30</speed></extensions>
      </trkpt>
      <trkpt lat="51.933247000" lon="7.582996000">
        <ele>61.3</ele>
        <time>2017-04-29T10:00:22</time>
        <extensions><speed>1.32</speed></extensions>
      </trkpt>
      <trkpt lat="51.933254000" lon="7.583014000">
        <ele>61.3</ele>
        <time>2017-04-29T10:00:23</time>
        <extensions><speed>1.32</speed></extensions>
      </trkpt>
      <trkpt lat="51.933266000" lon="7.583030000">
        <ele>61.3</ele>
        <time>2017-04-29T10:00:24</time>
        <extensions><speed>1.34</speed></extensions>
      </trkpt>
      <trkpt lat="51.933273000" lon="7.583045000">
        <ele>61.4</ele>
        <time>2017-04-29T10:00:25</time>
        <extensions><speed>1.36</speed></extensions>
      </trkpt>
      <trkpt lat="51.933281000" lon="7.583061000">
        <ele>61.4</ele>
        <time>2017-04-29T10:00:26</time>
        <extensions><speed>1.37</speed></extensions>
      </trkpt>
      <trkpt lat="51.933289000" lon="7.583078000">
        <ele>61.4</ele>
        <time>2017-04-29T10:00:27</time>
        <extensions><speed>1.36</speed></extensions>
      </trkpt>
      <trkpt lat="51.933300000" lon="7.583094000">
        <ele>61.4</ele>
        <time>2017-04-29T10:00:28</time>
        <extensions><speed>1.37</speed></extensions>
      </trkpt>
      <trkpt lat="51.933308000" lon="7.583105000">
        <ele>61.4</ele>
        <time>2017-04-29T10:00:29</time>
        <extensions><speed>1.38</speed></extensions>
      </trkpt>
      <trkpt lat="51.933319000" lon="7.583117000">
        <ele>61.4</ele>
        <time>2017-04-29T10:00:30</time>
        <extensions><speed>1.36</speed></extensions>
      </trkpt>
      <trkpt lat="51.933331000" lon="7.583129000">
        <ele>61.4</ele>
        <time>2017-04-29T10:00:31</time>
        <extensions><speed>1.37</speed></extensions>
      </trkpt>
      <trkpt lat="51.933338000" lon="7.583138000">
        <ele>61.4</ele>
        <time>2017-04-29T10:00:32</time>
        <extensions><speed>1.34</speed></extensions>
      </trkpt>
      <trkpt lat="51.933350000" lon="7.583145000">
        <ele>61.4</ele>
        <time>2017-04-29T10:00:33</time>
        <extensions><speed>1.33</speed></extensions>
      </trkpt>
      <trkpt lat="51.933361000" lon="7.583154000">
        <ele>61.4</ele>
        <time>2017-04-29T10:00:34</time>
        <extensions><speed>1.33</speed></extensions>
      </trkpt>
      <trkpt lat="51.933372000" lon="7.583164000">
        <ele>61.4</ele>
        <time>2017-04-29T10:00:35</time>
        <extensions><speed>1.35</speed></extensions>
      </trkpt>
      <trkpt lat="51.933384000" lon="7.583171000">
        <ele>61.4</ele>
        <time>2017-04-29T10:00:36</time>
        <extensions><speed>1.30</speed></extensions>
      </trkpt>
      <trkpt lat="51.933399000" lon="7.583178000">
        <ele>61.4</ele>
        <time>2017-04-29T10:00:37</time>
        <extensions><speed>1.31</speed></extensions>
      </trkpt>
      <trkpt lat="51.933407000" lon="7.583189000">
        <ele>61.4</ele>
        <time>2017-04-29T10:00:38</time>
        <extensions><speed>1.27</speed></extensions>
      </trkpt>
      <trkpt lat="51.933418000" lon="7.583199000">
        <ele>61.4</ele>
        <time>2017-04-29T10:00:39</time>
        <extensions><speed>1.27</speed></extensions>
      </trkpt>
      <trkpt lat="51.933430000" lon="7.583205000">
        <ele>61.4</ele>
        <time>2017-04-29T10:00:40</time>
        <extensions><speed>1.25</speed></extensions>
      </trkpt>
      <trkpt lat="51.933441000" lon="7.583211000">
        <ele>61.4</ele>
        <time>2017-04-29T10:00:41</time>
        <extensions><speed>1.28</speed></extensions>
      </trkpt>
      <trkpt lat="51.933453000" lon="7.583219000">
        <ele>61.4</ele>
        <time>2017-04-29T10:00:42</time>
        <extensions><speed>1.30</speed></extensions>
      </trkpt>
      <trkpt lat="51.933464000" lon="7.583225000">
        <ele>61.4</ele>
        <time>2017-04-29T10:00:43</time>
        <extensions><speed>1.30</speed></extensions>
      </trkpt>
      <trkpt lat="51.933472000" lon="7.583229000">
        <ele>61.4</ele>
        <time>2017-04-29T10:00:44</time>
        <extensions><speed>1.33</speed></extensions>
      </trkpt>
      <trkpt lat="51.933487000" lon="7.583234000">
        <ele>61.4</ele>
        <time>2017-04-29T10:00:45</time>
        <extensions><speed>1.36</speed></extensions>
      </trkpt>
      <trkpt lat="51.933502000" lon="7.583238000">
        <ele>61.4</ele>
        <time>2017-04-29T10:00:46</time>
        <extensions><speed>1.35</speed></extensions>
      </trkpt>
      <trkpt lat="51.933514000" lon="7.583241000">
        <ele>61.4</ele>
        <time>2017-04-29T10:00:47</time>
        <extensions><speed>1.35</speed></extensions>
      </trkpt>
      <trkpt lat="51.933529000" lon="7.583245000">
        <ele>61.4</ele>
        <time>2017-04-29T10:00:48</time>
        <extensions><speed>1.37</speed></extensions>
      </trkpt>
      <trkpt lat="51.933540000" lon="7.583248000">
        <ele>61.4</ele>
        <time>2017-04-29T10:00:49</time>
        <extensions><speed>1.37</speed></extensions>
      </trkpt>
      <trkpt lat="51.933556000" lon="7.583251000">
        <ele>61.3</ele>
        <time>2017-04-29T10:00:50</time>
        <extensions><speed>1.43</speed></extensions>
      </trkpt>
      <trkpt lat="51.933571000" lon="7.583253000">
        <ele>61.3</ele>
        <time>2017-04-29T10:00:51</time>
        <extensions><speed>1.44</speed></extensions>
      </trkpt>
      <trkpt lat="51.933586000" lon="7.583251000">
        <ele>61.3</ele>
        <time>2017-04-29T10:00:52</time>
        <extensions><speed>1.43</speed></extensions>
      </trkpt>
      <trkpt lat="51.933598000" lon="7.583255000">
        <ele>61.3</ele>
        <time>2017-04-29T10:00:53</time>
        <extensions><speed>1.38</speed></extensions>
      </trkpt>
      <trkpt lat="51.933609000" lon="7.583260000">
        <ele>61.3</ele>
        <time>2017-04-29T10:00:54</time>
        <extensions><speed>1.37</speed></extensions>
      </trkpt>
      <trkpt lat="51.933624000" lon="7.583269000">
        <ele>61.3</ele>
        <time>2017-04-29T10:00:55</time>
        <extensions><speed>1.36</speed></extensions>
      </trkpt>
      <trkpt lat="51.933632000" lon="7.583276000">
        <ele>61.2</ele>
        <time>2017-04-29T10:00:56</time>
        <extensions><speed>1.34</speed></extensions>
      </trkpt>
      <trkpt lat="51.933643000" lon="7.583285000">
        <ele>61.2</ele>
        <time>2017-04-29T10:00:57</time>
        <extensions><speed>1.35</speed></extensions>
      </trkpt>
      <trkpt lat="51.933659000" lon="7.583293000">
        <ele>61.2</ele>
        <time>2017-04-29T10:00:58</time>
        <extensions><speed>1.35</speed></extensions>
      </trkpt>
      <trkpt lat="51.933670000" lon="7.583300000">
        <ele>61.2</ele>
        <time>2017-04-29T10:00:59</time>
        <extensions><speed>1.39</speed></extensions>
      </trkpt>
      <trkpt lat="51.933685000" lon="7.583308000">
        <ele>61.2</ele>
        <time>2017-04-29T10:01:00</time>
        <extensions><speed>1.45</speed></extensions>
      </trkpt>
      <trkpt lat="51.933697000" lon="7.583318000">
        <ele>61.2</ele>
        <time>2017-04-29T10:01:01</time>
        <extensions><speed>1.45</speed></extensions>
      </trkpt>
      <trkpt lat="51.933708000" lon="7.583323000">
        <ele>61.1</ele>
        <time>2017-04-29T10:01:02</time>
        <extensions><speed>1.42</speed></extensions>
      </trkpt>
      <trkpt lat="51.933723000" lon="7.583330000">
        <ele>61.1</ele>
        <time>2017-04-29T10:01:03</time>
        <extensions><speed>1.42</speed></extensions>
      </trkpt>
      <trkpt lat="51.933735000" lon="7.583341000">
        <ele>61.1</ele>
        <time>2017-04-29T10:01:04</time>
        <extensions><speed>1.38</speed></extensions>
      </trkpt>
      <trkpt lat="51.933746000" lon="7.583353000">
        <ele>61.1</ele>
        <time>2017-04-29T10:01:05</time>
        <extensions><speed>1.32</speed></extensions>
      </trkpt>
      <trkpt lat="51.933762000" lon="7.583364000">
        <ele>61.1</ele>
        <time>2017-04-29T10:01:06</time>
        <extensions><speed>1.36</speed></extensions>
      </trkpt>
      <trkpt lat="51.933769000" lon="7.583373000">
        <ele>61.1</ele>
        <time>2017-04-29T10:01:07</time>
        <extensions><speed>1.39</speed></extensions>
      </trkpt>
      <trkpt lat="51.933781000" lon="7.583383000">
        <ele>61.1</ele>
        <time>2017-04-29T10:01:08</time>
        <extensions><speed>1.37</speed></extensions>
      </trkpt>
      <trkpt lat="51.933796000" lon="7.583390000">
        <ele>61.1</ele>
        <time>2017-04-29T10:01:09</time>
        <extensions><speed>1.33</speed></extensions>
      </trkpt>
      <trkpt lat="51.933804000" lon="7.583402000">
        <ele>61.1</ele>
        <time>2017-04-29T10:01:10</time>
        <extensions><speed>1.38</speed></extensions>
      </trkpt>
      <trkpt lat="51.933815000" lon="7.583416000">
        <ele>61.1</ele>
        <time>2017-04-29T10:01:11</time>
        <extensions><speed>1.36</speed></extensions>
      </trkpt>
      <trkpt lat="51.933826000" lon="7.583426000">
        <ele>61.1</ele>
        <time>2017-04-29T10:01:12</time>
        <extensions><speed>1.38</speed></extensions>
      </trkpt>
      <trkpt lat="51.933834000" lon="7.583437000">
        <ele>61.1</ele>
        <time>2017-04-29T10:01:13</time>
        <extensions><speed>1.38</speed></extensions>
      </trkpt>
      <trkpt lat="51.933849000" lon="7.583443000">
        <ele>61.1</ele>
        <time>2017-04-29T10:01:14</time>
        <extensions><speed>1.44</speed></extensions>
      </trkpt>
      <trkpt lat="51.933861000" lon="7.583453000">
        <ele>61.1</ele>
        <time>2017-04-29T10:01:15</time>
        <extensions><speed>1.37</speed></extensions>
      </trkpt>
      <trkpt lat="51.933868000" lon="7.583465000">
        <ele>61.1</ele>
        <time>2017-04-29T10:01:16</time>
        <extensions><speed>1.38</speed></extensions>
      </trkpt>
      <trkpt lat="51.933880000" lon="7.583478000">
        <ele>61.2</ele>
        <time>2017-04-29T10:01:17</time>
        <extensions><speed>1.37</speed></extensions>
      </trkpt>
      <trkpt lat="51.933891000" lon="7.583488000">
        <ele>61.2</ele>
        <time>2017-04-29T10:01:18</time>
        <extensions><speed>1.42</speed></extensions>
      </trkpt>
      <trkpt lat="51.933903000" lon="7.583500000">
        <ele>61.2</ele>
        <time>2017-04-29T10:01:19</time>
        <extensions><speed>1.46</speed></extensions>
      </trkpt>
      <trkpt lat="51.933918000" lon="7.583510000">
        <ele>61.2</ele>
        <time>2017-04-29T10:01:20</time>
        <extensions><speed>1.46</speed></extensions>
      </trkpt>
      <trkpt lat="51.933926000" lon="7.583518000">
        <ele>61.2</ele>
        <time>2017-04-29T10:01:21</time>
        <extensions><speed>1.45</speed></extensions>
      </trkpt>
      <trkpt lat="51.933937000" lon="7.583525000">
        <ele>61.2</ele>
        <time>2017-04-29T10:01:22</time>
        <extensions><speed>1.40</speed></extensions>
      </trkpt>
      <trkpt lat="51.933949000" lon="7.583533000">
        <ele>61.2</ele>
        <time>2017-04-29T10:01:23</time>
        <extensions><speed>1.35</speed></extensions>
      </trkpt>
      <trkpt lat="51.933960000" lon="7.583544000">
        <ele>61.3</ele>
        <time>2017-04-29T10:01:24</time>
        <extensions><speed>1.25</speed></extensions>
      </trkpt>
      <trkpt lat="51.933968000" lon="7.583553000">
        <ele>61.3</ele>
        <time>2017-04-29T10:01:25</time>
        <extensions><speed>1.27</speed></extensions>
      </trkpt>
      <trkpt lat="51.933979000" lon="7.583560000">
        <ele>61.3</ele>
        <time>2017-04-29T10:01:26</time>
        <extensions><speed>1.30</speed></extensions>
      </trkpt>
      <trkpt lat="51.933987000" lon="7.583565000">
        <ele>61.3</ele>
        <time>2017-04-29T10:01:27</time>
      </trkpt>
      <trkpt lat="51.933998000" lon="7.583573000">
        <ele>61.3</ele>
        <time>2017-04-29T10:01:29</time>
        <extensions><speed>1.32</speed></extensions>
      </trkpt>
      <trkpt lat="51.934017000" lon="7.583583000">
        <ele>61.3</ele>
        <time>2017-04-29T10:01:30</time>
        <extensions><speed>1.34</speed></extensions>
      </trkpt>
      <trkpt lat="51.934029000" lon="7.583591000">
        <ele>61.3</ele>
        <time>2017-04-29T10:01:31</time>
        <extensions><speed>1.33</speed></extensions>
      </trkpt>
      <trkpt lat="51.934040000" lon="7.583602000">
        <ele>61.4</ele>
        <time>2017-04-29T10:01:32</time>
        <extensions><speed>1.39</speed></extensions>
      </trkpt>
      <trkpt lat="51.934055000" lon="7.583612000">
        <ele>61.4</ele>
        <time>2017-04-29T10:01:33</time>
        <extensions><speed>1.39</speed></extensions>
      </trkpt>
      <trkpt lat="51.934067000" lon="7.583620000">
        <ele>61.4</ele>
        <time>2017-04-29T10:01:34</time>
        <extensions><speed>1.39</speed></extensions>
      </trkpt>
      <trkpt lat="51.934082000" lon="7.583626000">
        <ele>61.4</ele>
        <time>2017-04-29T10:01:35</time>
        <extensions><speed>1.39</speed></extensions>
      </trkpt>
      <trkpt lat="51.934093000" lon="7.583633000">
        <ele>61.4</ele>
        <time>2017-04-29T10:01:36</time>
        <extensions><speed>1.39</speed></extensions>
      </trkpt>
      <trkpt lat="51.934105000" lon="7.583639000">
        <ele>61.4</ele>
        <time>2017-04-29T10:01:37</time>
        <extensions><speed>1.37</speed></extensions>
      </trkpt>
      <trkpt lat="51.934120000" lon="7.583642000">
        <ele>61.4</ele>
        <time>2017-04-29T10:01:38</time>
        <extensions><speed>1.33</speed></extensions>
      </trkpt>
      <trkpt lat="51.934124000" lon="7.583642000">
        <ele>61.4</ele>
        <time>2017-04-29T10:01:39</time>
        <extensions><speed>1.18</speed></extensions>
      </trkpt>
      <trkpt lat="51.934139000" lon="7.583643000">
        <ele>61.4</ele>
        <time>2017-04-29T10:01:40</time>
        <extensions><speed>1.16</speed></extensions>
      </trkpt>
      <trkpt lat="51.934155000" lon="7.583647000">
        <ele>61.5</ele>
        <time>2017-04-29T10:01:41</time>
        <extensions><speed>1.11</speed></extensions>
      </trkpt>
      <trkpt lat="51.934162000" lon="7.583649000">
        <ele>61.5</ele>
        <time>2017-04-29T10:01:42</time>
        <extensions><speed>1.12</speed></extensions>
      </trkpt>
      <trkpt lat="51.934177000" lon="7.583649000">
        <ele>61.5</ele>
        <time>2017-04-29T10:01:43</time>
        <extensions><speed>1.23</speed></extensions>
      </trkpt>
      <trkpt lat="51.934189000" lon="7.583651000">
        <ele>61.5</ele>
        <time>2017-04-29T10:01:44</time>
        <extensions><speed>1.31</speed></extensions>
      </trkpt>
      <trkpt lat="51.934204000" lon="7.583651000">
        <ele>61.5</ele>
        <time>2017-04-29T10:01:45</time>
        <extensions><speed>1.35</speed></extensions>
      </trkpt>
      <trkpt lat="51.934219000" lon="7.583653000">
        <ele>61.5</ele>
        <time>2017-04-29T10:01:46</time>
        <extensions><speed>1.36</speed></extensions>
      </trkpt>
      <trkpt lat="51.934227000" lon="7.583655000">
        <ele>61.5</ele>
        <time>2017-04-29T10:01:47</time>
        <extensions><speed>1.36</speed></extensions>
      </trkpt>
      <trkpt lat="51.934242000" lon="7.583655000">
        <ele>61.5</ele>
        <time>2017-04-29T10:01:48</time>
        <extensions><speed>1.29</speed></extensions>
      </trkpt>
      <trkpt lat="51.934250000" lon="7.583658000">
        <ele>61.5</ele>
        <time>2017-04-29T10:01:49</time>
        <extensions><speed>1.27</speed></extensions>
      </trkpt>
      <trkpt lat="51.934265000" lon="7.583663000">
        <ele>61.5</ele>
        <time>2017-04-29T10:01:50</time>
        <extensions><speed>1.20</speed></extensions>
      </trkpt>
      <trkpt lat="51.934277000" lon="7.583670000">
        <ele>61.5</ele>
        <time>2017-04-29T10:01:51</time>
        <extensions><speed>1.18</speed></extensions>
      </trkpt>
      <trkpt lat="51.934284000" lon="7.583679000">
        <ele>61.5</ele>
        <time>2017-04-29T10:01:52</time>
        <extensions><speed>1.22</speed></extensions>
      </trkpt>
      <trkpt lat="51.934299000" lon="7.583688000">
        <ele>61.5</ele>
        <time>2017-04-29T10:01:53</time>
        <extensions><speed>1.25</speed></extensions>
      </trkpt>
      <trkpt lat="51.934315000" lon="7.583696000">
        <ele>61.5</ele>
        <time>2017-04-29T10:01:54</time>
        <extensions><speed>1.16</speed></extensions>
      </trkpt>
      <trkpt lat="51.934319000" lon="7.583700000">
        <ele>61.5</ele>
        <time>2017-04-29T10:01:55</time>
        <extensions><speed>1.15</speed></extensions>
      </trkpt>
      <trkpt lat="51.934326000" lon="7.583702000">
        <ele>61.5</ele>
        <time>2017-04-29T10:01:56</time>
        <extensions><speed>0.99</speed></extensions>
      </trkpt>
      <trkpt lat="51.934326000" lon="7.583705000">
        <ele>61.5</ele>
        <time>2017-04-29T10:01:57</time>
      </trkpt>
      <trkpt lat="51.934425000" lon="7.583826000">
        <ele>61.6</ele>
        <time>2017-04-29T10:02:19</time>
      </trkpt>
      <trkpt lat="51.934441000" lon="7.583838000">
        <ele>61.7</ele>
        <time>2017-04-29T10:02:21</time>
        <extensions><speed>1.63</speed></extensions>
      </trkpt>
      <trkpt lat="51.934452000" lon="7.583852000">
        <ele>61.7</ele>
        <time>2017-04-29T10:02:22</time>
        <extensions><speed>1.63</speed></extensions>
      </trkpt>
      <trkpt lat="51.934467000" lon="7.583865000">
        <ele>61.7</ele>
        <time>2017-04-29T10:02:23</time>
        <extensions><speed>1.66</speed></extensions>
      </trkpt>
      <trkpt lat="51.934479000" lon="7.583882000">
        <ele>61.7</ele>
        <time>2017-04-29T10:02:24</time>
        <extensions><speed>1.66</speed></extensions>
      </trkpt>
      <trkpt lat="51.934490000" lon="7.583898000">
        <ele>61.7</ele>
        <time>2017-04-29T10:02:25</time>
        <extensions><speed>1.69</speed></extensions>
      </trkpt>
      <trkpt lat="51.934502000" lon="7.583915000">
        <ele>61.7</ele>
        <time>2017-04-29T10:02:26</time>
        <extensions><speed>1.66</speed></extensions>
      </trkpt>
      <trkpt lat="51.934513000" lon="7.583927000">
        <ele>61.8</ele>
        <time>2017-04-29T10:02:27</time>
        <extensions><speed>1.66</speed></extensions>
      </trkpt>
      <trkpt lat="51.934525000" lon="7.583938000">
        <ele>61.8</ele>
        <time>2017-04-29T10:02:28</time>
        <extensions><speed>1.67</speed></extensions>
      </trkpt>
      <trkpt lat="51.934540000" lon="7.583952000">
        <ele>61.8</ele>
        <time>2017-04-29T10:02:29</time>
        <extensions><speed>1.63</speed></extensions>
      </trkpt>
      <trkpt lat="51.934551000" lon="7.583966000">
        <ele>61.8</ele>
        <time>2017-04-29T10:02:30</time>
        <extensions><speed>1.58</speed></extensions>
      </trkpt>
      <trkpt lat="51.934563000" lon="7.583980000">
        <ele>61.8</ele>
        <time>2017-04-29T10:02:31</time>
        <extensions><speed>1.60</speed></extensions>
      </trkpt>
      <trkpt lat="51.934574000" lon="7.583995000">
        <ele>61.8</ele>
        <time>2017-04-29T10:02:32</time>
        <extensions><speed>1.59</speed></extensions>
      </trkpt>
      <trkpt lat="51.934586000" lon="7.584010000">
        <ele>61.8</ele>
        <time>2017-04-29T10:02:33</time>
        <extensions><speed>1.59</speed></extensions>
      </trkpt>
      <trkpt lat="51.934597000" lon="7.584023000">
        <ele>61.8</ele>
        <time>2017-04-29T10:02:34</time>
        <extensions><speed>1.56</speed></extensions>
      </trkpt>
      <trkpt lat="51.934608000" lon="7.584036000">
        <ele>61.8</ele>
        <time>2017-04-29T10:02:35</time>
        <extensions><speed>1.61</speed></extensions>
      </trkpt>
      <trkpt lat="51.934624000" lon="7.584052000">
        <ele>61.8</ele>
        <time>2017-04-29T10:02:36</time>
        <extensions><speed>1.65</speed></extensions>
      </trkpt>
      <trkpt lat="51.934639000" lon="7.584067000">
        <ele>61.8</ele>
        <time>2017-04-29T10:02:37</time>
        <extensions><speed>1.73</speed></extensions>
      </trkpt>
      <trkpt lat="51.934650000" lon="7.584082000">
        <ele>61.8</ele>
        <time>2017-04-29T10:02:38</time>
        <extensions><speed>1.66</speed></extensions>
      </trkpt>
      <trkpt lat="51.934662000" lon="7.584097000">
        <ele>61.8</ele>
        <time>2017-04-29T10:02:39</time>
        <extensions><speed>1.70</speed></extensions>
      </trkpt>
      <trkpt lat="51.934669000" lon="7.584113000">
        <ele>61.8</ele>
        <time>2017-04-29T10:02:40</time>
        <extensions><speed>1.68</speed></extensions>
      </trkpt>
      <trkpt lat="51.934677000" lon="7.584132000">
        <ele>61.7</ele>
        <time>2017-04-29T10:02:41</time>
        <extensions><speed>1.65</speed></extensions>
      </trkpt>
      <trkpt lat="51.934692000" lon="7.584146000">
        <ele>61.7</ele>
        <time>2017-04-29T10:02:42</time>
        <extensions><speed>1.62</speed></extensions>
      </trkpt>
      <trkpt lat="51.934708000" lon="7.584160000">
        <ele>61.7</ele>
        <time>2017-04-29T10:02:43</time>
        <extensions><speed>1.62</speed></extensions>
      </trkpt>
      <trkpt lat="51.934719000" lon="7.584174000">
        <ele>61.7</ele>
        <time>2017-04-29T10:02:44</time>
        <extensions><speed>1.59</speed></extensions>
      </trkpt>
      <trkpt lat="51.934731000" lon="7.584187000">
        <ele>61.7</ele>
        <time>2017-04-29T10:02:45</time>
        <extensions><speed>1.55</speed></extensions>
      </trkpt>
      <trkpt lat="51.934738000" lon="7.584202000">
        <ele>61.7</ele>
        <time>2017-04-29T10:02:46</time>
        <extensions><speed>1.51</speed></extensions>
      </trkpt>
      <trkpt lat="51.934746000" lon="7.584213000">
        <ele>61.7</ele>
        <time>2017-04-29T10:02:47</time>
        <extensions><speed>1.50</speed></extensions>
      </trkpt>
      <trkpt lat="51.934761000" lon="7.584227000">
        <ele>61.7</ele>
        <time>2017-04-29T10:02:48</time>
        <extensions><speed>1.47</speed></extensions>
      </trkpt>
      <trkpt lat="51.934772000" lon="7.584237000">
        <ele>61.7</ele>
        <time>2017-04-29T10:02:49</time>
        <extensions><speed>1.45</speed></extensions>
      </trkpt>
      <trkpt lat="51.934780000" lon="7.584248000">
        <ele>61.7</ele>
        <time>2017-04-29T10:02:50</time>
        <extensions><speed>1.43</speed></extensions>
      </trkpt>
      <trkpt lat="51.934792000" lon="7.584258000">
        <ele>61.7</ele>
        <time>2017-04-29T10:02:51</time>
        <extensions><speed>1.40</speed></extensions>
      </trkpt>
      <trkpt lat="51.934803000" lon="7.584270000">
        <ele>61.7</ele>
        <time>2017-04-29T10:02:52</time>
        <extensions><speed>1.38</speed></extensions>
      </trkpt>
      <trkpt lat="51.934811000" lon="7.584283000">
        <ele>61.7</ele>
        <time>2017-04-29T10:02:53</time>
        <extensions><speed>1.38</speed></extensions>
      </trkpt>
      <trkpt lat="51.934822000" lon="7.584295000">
        <ele>61.7</ele>
        <time>2017-04-29T10:02:54</time>
        <extensions><speed>1.36</speed></extensions>
      </trkpt>
      <trkpt lat="51.934834000" lon="7.584307000">
        <ele>61.7</ele>
        <time>2017-04-29T10:02:55</time>
        <extensions><speed>1.36</speed></extensions>
      </trkpt>
      <trkpt lat="51.934841000" lon="7.584320000">
        <ele>61.7</ele>
        <time>2017-04-29T10:02:56</time>
        <extensions><speed>1.35</speed></extensions>
      </trkpt>
      <trkpt lat="51.934849000" lon="7.584333000">
        <ele>61.7</ele>
        <time>2017-04-29T10:02:57</time>
        <extensions><speed>1.34</speed></extensions>
      </trkpt>
      <trkpt lat="51.934860000" lon="7.584345000">
        <ele>61.7</ele>
        <time>2017-04-29T10:02:58</time>
        <extensions><speed>1.34</speed></extensions>
      </trkpt>
      <trkpt lat="51.934872000" lon="7.584360000">
        <ele>61.7</ele>
        <time>2017-04-29T10:02:59</time>
        <extensions><speed>1.36</speed></extensions>
      </trkpt>
      <trkpt lat="51.934879000" lon="7.584375000">
        <ele>61.7</ele>
        <time>2017-04-29T10:03:00</time>
        <extensions><speed>1.38</speed></extensions>
      </trkpt>
      <trkpt lat="51.934891000" lon="7.584390000">
        <ele>61.7</ele>
        <time>2017-04-29T10:03:01</time>
        <extensions><speed>1.40</speed></extensions>
      </trkpt>
      <trkpt lat="51.934902000" lon="7.584404000">
        <ele>61.7</ele>
        <time>2017-04-29T10:03:02</time>
        <extensions><speed>1.43</speed></extensions>
      </trkpt>
      <trkpt lat="51.934914000" lon="7.584417000">
        <ele>61.7</ele>
        <time>2017-04-29T10:03:03</time>
        <extensions><speed>1.43</speed></extensions>
      </trkpt>
      <trkpt lat="51.934925000" lon="7.584432000">
        <ele>61.7</ele>
        <time>2017-04-29T10:03:04</time>
        <extensions><speed>1.46</speed></extensions>
      </trkpt>
      <trkpt lat="51.934937000" lon="7.584447000">
        <ele>61.7</ele>
        <time>2017-04-29T10:03:05</time>
        <extensions><speed>1.46</speed></extensions>
      </trkpt>
      <trkpt lat="51.934944000" lon="7.584460000">
        <ele>61.7</ele>
        <time>2017-04-29T10:03:06</time>
        <extensions><speed>1.49</speed></extensions>
      </trkpt>
      <trkpt lat="51.934956000" lon="7.584474000">
        <ele>61.7</ele>
        <time>2017-04-29T10:03:07</time>
        <extensions><speed>1.51</speed></extensions>
      </trkpt>
      <trkpt lat="51.934963000" lon="7.584486000">
        <ele>61.7</ele>
        <time>2017-04-29T10:03:08</time>
        <extensions><speed>1.49</speed></extensions>
      </trkpt>
      <trkpt lat="51.934971000" lon="7.584498000">
        <ele>61.7</ele>
        <time>2017-04-29T10:03:09</time>
        <extensions><speed>1.47</speed></extensions>
      </trkpt>
      <trkpt lat="51.934986000" lon="7.584514000">
        <ele>61.7</ele>
        <time>2017-04-29T10:03:10</time>
        <extensions><speed>1.50</speed></extensions>
      </trkpt>
      <trkpt lat="51.934998000" lon="7.584527000">
        <ele>61.7</ele>
        <time>2017-04-29T10:03:11</time>
        <extensions><speed>1.52</speed></extensions>
      </trkpt>
      <trkpt lat="51.935009000" lon="7.584540000">
        <ele>61.8</ele>
        <time>2017-04-29T10:03:12</time>
        <extensions><speed>1.48</speed></extensions>
      </trkpt>
      <trkpt lat="51.935020000" lon="7.584554000">
        <ele>61.8</ele>
        <time>2017-04-29T10:03:13</time>
        <extensions><speed>1.45</speed></extensions>
      </trkpt>
      <trkpt lat="51.935028000" lon="7.584568000">
        <ele>61.8</ele>
        <time>2017-04-29T10:03:14</time>
        <extensions><speed>1.45</speed></extensions>
      </trkpt>
      <trkpt lat="51.935036000" lon="7.584584000">
        <ele>61.8</ele>
        <time>2017-04-29T10:03:15</time>
        <extensions><speed>1.43</speed></extensions>
      </trkpt>
      <trkpt lat="51.935047000" lon="7.584598000">
        <ele>61.8</ele>
        <time>2017-04-29T10:03:16</time>
        <extensions><speed>1.40</speed></extensions>
      </trkpt>
      <trkpt lat="51.935059000" lon="7.584615000">
        <ele>61.8</ele>
        <time>2017-04-29T10:03:17</time>
        <extensions><speed>1.42</speed></extensions>
      </trkpt>
      <trkpt lat="51.935066000" lon="7.584628000">
        <ele>61.8</ele>
        <time>2017-04-29T10:03:18</time>
        <extensions><speed>1.44</speed></extensions>
      </trkpt>
      <trkpt lat="51.935078000" lon="7.584641000">
        <ele>61.8</ele>
        <time>2017-04-29T10:03:19</time>
        <extensions><speed>1.44</speed></extensions>
      </trkpt>
      <trkpt lat="51.935085000" lon="7.584657000">
        <ele>61.9</ele>
        <time>2017-04-29T10:03:20</time>
        <extensions><speed>1.44</speed></extensions>
      </trkpt>
      <trkpt lat="51.935097000" lon="7.584671000">
        <ele>61.9</ele>
        <time>2017-04-29T10:03:21</time>
        <extensions><speed>1.45</speed></extensions>
      </trkpt>
      <trkpt lat="51.935101000" lon="7.584689000">
        <ele>61.9</ele>
        <time>2017-04-29T10:03:22</time>
        <extensions><speed>1.45</speed></extensions>
      </trkpt>
      <trkpt lat="51.935108000" lon="7.584705000">
        <ele>61.9</ele>
        <time>2017-04-29T10:03:23</time>
        <extensions><speed>1.47</speed></extensions>
      </trkpt>
      <trkpt lat="51.935116000" lon="7.584725000">
        <ele>61.9</ele>
        <time>2017-04-29T10:03:24</time>
        <extensions><speed>1.47</speed></extensions>
      </trkpt>
      <trkpt lat="51.935127000" lon="7.584742000">
        <ele>62.0</ele>
        <time>2017-04-29T10:03:25</time>
        <extensions><speed>1.44</speed></extensions>
      </trkpt>
      <trkpt lat="51.935131000" lon="7.584759000">
        <ele>62.0</ele>
        <time>2017-04-29T10:03:26</time>
        <extensions><speed>1.40</speed></extensions>
      </trkpt>
      <trkpt lat="51.935139000" lon="7.584773000">
        <ele>62.0</ele>
        <time>2017-04-29T10:03:27</time>
        <extensions><speed>1.36</speed></extensions>
      </trkpt>
      <trkpt lat="51.935146000" lon="7.584792000">
        <ele>62.0</ele>
        <time>2017-04-29T10:03:28</time>
        <extensions><speed>1.36</speed></extensions>
      </trkpt>
      <trkpt lat="51.935150000" lon="7.584808000">
        <ele>62.0</ele>
        <time>2017-04-29T10:03:29</time>
        <extensions><speed>1.32</speed></extensions>
      </trkpt>
      <trkpt lat="51.935158000" lon="7.584825000">
        <ele>62.1</ele>
        <time>2017-04-29T10:03:30</time>
        <extensions><speed>1.38</speed></extensions>
      </trkpt>
      <trkpt lat="51.935165000" lon="7.584838000">
        <ele>62.1</ele>
        <time>2017-04-29T10:03:31</time>
        <extensions><speed>1.37</speed></extensions>
      </trkpt>
      <trkpt lat="51.935173000" lon="7.584855000">
        <ele>62.1</ele>
        <time>2017-04-29T10:03:32</time>
        <extensions><speed>1.41</speed></extensions>
      </trkpt>
      <trkpt lat="51.935181000" lon="7.584873000">
        <ele>62.1</ele>
        <time>2017-04-29T10:03:33</time>
        <extensions><speed>1.44</speed></extensions>
      </trkpt>
      <trkpt lat="51.935188000" lon="7.584892000">
        <ele>62.1</ele>
        <time>2017-04-29T10:03:34</time>
        <extensions><speed>1.46</speed></extensions>
      </trkpt>
      <trkpt lat="51.935196000" lon="7.584908000">
        <ele>62.1</ele>
        <time>2017-04-29T10:03:35</time>
        <extensions><speed>1.42</speed></extensions>
      </trkpt>
      <trkpt lat="51.935200000" lon="7.584925000">
        <ele>62.2</ele>
        <time>2017-04-29T10:03:36</time>
        <extensions><speed>1.42</speed></extensions>
      </trkpt>
      <trkpt lat="51.935207000" lon="7.584941000">
        <ele>62.2</ele>
        <time>2017-04-29T10:03:37</time>
        <extensions><speed>1.39</speed></extensions>
      </trkpt>
      <trkpt lat="51.935211000" lon="7.584959000">
        <ele>62.2</ele>
        <time>2017-04-29T10:03:38</time>
        <extensions><speed>1.35</speed></extensions>
      </trkpt>
      <trkpt lat="51.935219000" lon="7.584976000">
        <ele>62.2</ele>
        <time>2017-04-29T10:03:39</time>
        <extensions><speed>1.34</speed></extensions>
      </trkpt>
      <trkpt lat="51.935226000" lon="7.584993000">
        <ele>62.2</ele>
        <time>2017-04-29T10:03:40</time>
        <extensions><speed>1.35</speed></extensions>
      </trkpt>
      <trkpt lat="51.935230000" lon="7.585011000">
        <ele>62.2</ele>
        <time>2017-04-29T10:03:41</time>
        <extensions><speed>1.39</speed></extensions>
      </trkpt>
      <trkpt lat="51.935242000" lon="7.585030000">
        <ele>62.2</ele>
        <time>2017-04-29T10:03:42</time>
        <extensions><speed>1.39</speed></extensions>
      </trkpt>
      <trkpt lat="51.935249000" lon="7.585044000">
        <ele>62.3</ele>
        <time>2017-04-29T10:03:43</time>
        <extensions><speed>1.39</speed></extensions>
      </trkpt>
      <trkpt lat="51.935253000" lon="7.585060000">
        <ele>62.3</ele>
        <time>2017-04-29T10:03:44</time>
        <extensions><speed>1.39</speed></extensions>
      </trkpt>
      <trkpt lat="51.935261000" lon="7.585077000">
        <ele>62.3</ele>
        <time>2017-04-29T10:03:45</time>
        <extensions><speed>1.39</speed></extensions>
      </trkpt>
      <trkpt lat="51.935265000" lon="7.585092000">
        <ele>62.3</ele>
        <time>2017-04-29T10:03:46</time>
        <extensions><speed>1.36</speed></extensions>
      </trkpt>
      <trkpt lat="51.935268000" lon="7.585110000">
        <ele>62.3</ele>
        <time>2017-04-29T10:03:47</time>
        <extensions><speed>1.36</speed></extensions>
      </trkpt>
      <trkpt lat="51.935272000" lon="7.585128000">
        <ele>62.3</ele>
        <time>2017-04-29T10:03:48</time>
        <extensions><speed>1.36</speed></extensions>
      </trkpt>
      <trkpt lat="51.935276000" lon="7.585150000">
        <ele>62.3</ele>
        <time>2017-04-29T10:03:49</time>
        <extensions><speed>1.39</speed></extensions>
      </trkpt>
      <trkpt lat="51.935280000" lon="7.585174000">
        <ele>62.3</ele>
        <time>2017-04-29T10:03:50</time>
        <extensions><speed>1.41</speed></extensions>
      </trkpt>
      <trkpt lat="51.935284000" lon="7.585193000">
        <ele>62.4</ele>
        <time>2017-04-29T10:03:51</time>
        <extensions><speed>1.46</speed></extensions>
      </trkpt>
      <trkpt lat="51.935287000" lon="7.585214000">
        <ele>62.4</ele>
        <time>2017-04-29T10:03:52</time>
        <extensions><speed>1.45</speed></extensions>
      </trkpt>
      <trkpt lat="51.935291000" lon="7.585232000">
        <ele>62.4</ele>
        <time>2017-04-29T10:03:53</time>
        <extensions><speed>1.45</speed></extensions>
      </trkpt>
      <trkpt lat="51.935291000" lon="7.585253000">
        <ele>62.4</ele>
        <time>2017-04-29T10:03:54</time>
        <extensions><speed>1.45</speed></extensions>
      </trkpt>
      <trkpt lat="51.935295000" lon="7.585275000">
        <ele>62.5</ele>
        <time>2017-04-29T10:03:55</time>
        <extensions><speed>1.47</speed></extensions>
      </trkpt>
      <trkpt lat="51.935295000" lon="7.585293000">
        <ele>62.5</ele>
        <time>2017-04-29T10:03:56</time>
        <extensions><speed>1.47</speed></extensions>
      </trkpt>
      <trkpt lat="51.935303000" lon="7.585313000">
        <ele>62.5</ele>
        <time>2017-04-29T10:03:57</time>
        <extensions><speed>1.50</speed></extensions>
      </trkpt>
      <trkpt lat="51.935314000" lon="7.585331000">
        <ele>62.5</ele>
        <time>2017-04-29T10:03:58</time>
        <extensions><speed>1.50</speed></extensions>
      </trkpt>
      <trkpt lat="51.935322000" lon="7.585352000">
        <ele>62.6</ele>
        <time>2017-04-29T10:03:59</time>
        <extensions><speed>1.49</speed></extensions>
      </trkpt>
      <trkpt lat="51.935326000" lon="7.585368000">
        <ele>62.6</ele>
        <time>2017-04-29T10:04:00</time>
        <extensions><speed>1.47</speed></extensions>
      </trkpt>
      <trkpt lat="51.935326000" lon="7.585379000">
        <ele>62.6</ele>
        <time>2017-04-29T10:04:01</time>
        <extensions><speed>1.38</speed></extensions>
      </trkpt>
      <trkpt lat="51.935333000" lon="7.585389000">
        <ele>62.6</ele>
        <time>2017-04-29T10:04:02</time>
        <extensions><speed>1.31</speed></extensions>
      </trkpt>
      <trkpt lat="51.935345000" lon="7.585400000">
        <ele>62.6</ele>
        <time>2017-04-29T10:04:03</time>
        <extensions><speed>1.28</speed></extensions>
      </trkpt>
      <trkpt lat="51.935356000" lon="7.585413000">
        <ele>62.7</ele>
        <time>2017-04-29T10:04:04</time>
        <extensions><speed>1.23</speed></extensions>
      </trkpt>
      <trkpt lat="51.935360000" lon="7.585422000">
        <ele>62.7</ele>
        <time>2017-04-29T10:04:05</time>
        <extensions><speed>1.20</speed></extensions>
      </trkpt>
      <trkpt lat="51.935375000" lon="7.585428000">
        <ele>62.7</ele>
        <time>2017-04-29T10:04:06</time>
        <extensions><speed>1.29</speed></extensions>
      </trkpt>
      <trkpt lat="51.935390000" lon="7.585435000">
        <ele>62.7</ele>
        <time>2017-04-29T10:04:07</time>
        <extensions><speed>1.41</speed></extensions>
      </trkpt>
      <trkpt lat="51.935402000" lon="7.585442000">
        <ele>62.7</ele>
        <time>2017-04-29T10:04:08</time>
        <extensions><speed>1.44</speed></extensions>
      </trkpt>
      <trkpt lat="51.935413000" lon="7.585447000">
        <ele>62.7</ele>
        <time>2017-04-29T10:04:09</time>
        <extensions><speed>1.47</speed></extensions>
      </trkpt>
      <trkpt lat="51.935429000" lon="7.585447000">
        <ele>62.7</ele>
        <time>2017-04-29T10:04:10</time>
        <extensions><speed>1.53</speed></extensions>
      </trkpt>
      <trkpt lat="51.935440000" lon="7.585442000">
        <ele>62.7</ele>
        <time>2017-04-29T10:04:11</time>
        <extensions><speed>1.42</speed></extensions>
      </trkpt>
      <trkpt lat="51.935452000" lon="7.585435000">
        <ele>62.7</ele>
        <time>2017-04-29T10:04:12</time>
        <extensions><speed>1.33</speed></extensions>
      </trkpt>
      <trkpt lat="51.935463000" lon="7.585428000">
        <ele>62.7</ele>
        <time>2017-04-29T10:04:13</time>
        <extensions><speed>1.32</speed></extensions>
      </trkpt>
      <trkpt lat="51.935474000" lon="7.585420000">
        <ele>62.6</ele>
        <time>2017-04-29T10:04:14</time>
        <extensions><speed>1.31</speed></extensions>
      </trkpt>
      <trkpt lat="51.935486000" lon="7.585410000">
        <ele>62.6</ele>
        <time>2017-04-29T10:04:15</time>
        <extensions><speed>1.29</speed></extensions>
      </trkpt>
      <trkpt lat="51.935493000" lon="7.585396000">
        <ele>62.6</ele>
        <time>2017-04-29T10:04:16</time>
        <extensions><speed>1.32</speed></extensions>
      </trkpt>
      <trkpt lat="51.935501000" lon="7.585382000">
        <ele>62.6</ele>
        <time>2017-04-29T10:04:17</time>
        <extensions><speed>1.32</speed></extensions>
      </trkpt>
      <trkpt lat="51.935509000" lon="7.585366000">
        <ele>62.6</ele>
        <time>2017-04-29T10:04:18</time>
        <extensions><speed>1.28</speed></extensions>
      </trkpt>
      <trkpt lat="51.935516000" lon="7.585352000">
        <ele>62.5</ele>
        <time>2017-04-29T10:04:19</time>
        <extensions><speed>1.31</speed></extensions>
      </trkpt>
      <trkpt lat="51.935524000" lon="7.585333000">
        <ele>62.5</ele>
        <time>2017-04-29T10:04:20</time>
        <extensions><speed>1.29</speed></extensions>
      </trkpt>
      <trkpt lat="51.935532000" lon="7.585317000">
        <ele>62.5</ele>
        <time>2017-04-29T10:04:21</time>
        <extensions><speed>1.28</speed></extensions>
      </trkpt>
      <trkpt lat="51.935535000" lon="7.585293000">
        <ele>62.5</ele>
        <time>2017-04-29T10:04:22</time>
        <extensions><speed>1.27</speed></extensions>
      </trkpt>
      <trkpt lat="51.935539000" lon="7.585267000">
        <ele>62.4</ele>
        <time>2017-04-29T10:04:23</time>
        <extensions><speed>1.34</speed></extensions>
      </trkpt>
      <trkpt lat="51.935547000" lon="7.585244000">
        <ele>62.4</ele>
        <time>2017-04-29T10:04:24</time>
        <extensions><speed>1.34</speed></extensions>
      </trkpt>
      <trkpt lat="51.935555000" lon="7.585221000">
        <ele>62.4</ele>
        <time>2017-04-29T10:04:25</time>
        <extensions><speed>1.37</speed></extensions>
      </trkpt>
      <trkpt lat="51.935562000" lon="7.585200000">
        <ele>62.3</ele>
        <time>2017-04-29T10:04:26</time>
        <extensions><speed>1.44</speed></extensions>
      </trkpt>
      <trkpt lat="51.935570000" lon="7.585180000">
        <ele>62.3</ele>
        <time>2017-04-29T10:04:27</time>
        <extensions><speed>1.44</speed></extensions>
      </trkpt>
      <trkpt lat="51.935577000" lon="7.585156000">
        <ele>62.3</ele>
        <time>2017-04-29T10:04:28</time>
        <extensions><speed>1.44</speed></extensions>
      </trkpt>
      <trkpt lat="51.935585000" lon="7.585130000">
        <ele>62.2</ele>
        <time>2017-04-29T10:04:29</time>
        <extensions><speed>1.48</speed></extensions>
      </trkpt>
      <trkpt lat="51.935589000" lon="7.585102000">
        <ele>62.2</ele>
        <time>2017-04-29T10:04:30</time>
        <extensions><speed>1.50</speed></extensions>
      </trkpt>
      <trkpt lat="51.935596000" lon="7.585080000">
        <ele>62.1</ele>
        <time>2017-04-29T10:04:31</time>
        <extensions><speed>1.54</speed></extensions>
      </trkpt>
      <trkpt lat="51.935604000" lon="7.585055000">
        <ele>62.1</ele>
        <time>2017-04-29T10:04:32</time>
        <extensions><speed>1.54</speed></extensions>
      </trkpt>
      <trkpt lat="51.935608000" lon="7.585032000">
        <ele>62.0</ele>
        <time>2017-04-29T10:04:33</time>
        <extensions><speed>1.51</speed></extensions>
      </trkpt>
      <trkpt lat="51.935616000" lon="7.585010000">
        <ele>62.0</ele>
        <time>2017-04-29T10:04:34</time>
        <extensions><speed>1.53</speed></extensions>
      </trkpt>
      <trkpt lat="51.935619000" lon="7.584988000">
        <ele>61.9</ele>
        <time>2017-04-29T10:04:35</time>
        <extensions><speed>1.53</speed></extensions>
      </trkpt>
      <trkpt lat="51.935631000" lon="7.584965000">
        <ele>61.9</ele>
        <time>2017-04-29T10:04:36</time>
        <extensions><speed>1.49</speed></extensions>
      </trkpt>
      <trkpt lat="51.935635000" lon="7.584941000">
        <ele>61.9</ele>
        <time>2017-04-29T10:04:37</time>
        <extensions><speed>1.48</speed></extensions>
      </trkpt>
      <trkpt lat="51.935638000" lon="7.584920000">
        <ele>61.8</ele>
        <time>2017-04-29T10:04:38</time>
        <extensions><speed>1.46</speed></extensions>
      </trkpt>
      <trkpt lat="51.935646000" lon="7.584898000">
        <ele>61.8</ele>
        <time>2017-04-29T10:04:39</time>
        <extensions><speed>1.45</speed></extensions>
      </trkpt>
      <trkpt lat="51.935650000" lon="7.584878000">
        <ele>61.7</ele>
        <time>2017-04-29T10:04:40</time>
        <extensions><speed>1.44</speed></extensions>
      </trkpt>
      <trkpt lat="51.935650000" lon="7.584857000">
        <ele>61.7</ele>
        <time>2017-04-29T10:04:41</time>
        <extensions><speed>1.42</speed></extensions>
      </trkpt>
      <trkpt lat="51.935654000" lon="7.584840000">
        <ele>61.6</ele>
        <time>2017-04-29T10:04:42</time>
        <extensions><speed>1.38</speed></extensions>
      </trkpt>
      <trkpt lat="51.935654000" lon="7.584825000">
        <ele>61.6</ele>
        <time>2017-04-29T10:04:43</time>
        <extensions><speed>1.27</speed></extensions>
      </trkpt>
      <trkpt lat="51.935654000" lon="7.584813000">
        <ele>61.6</ele>
        <time>2017-04-29T10:04:44</time>
        <extensions><speed>1.10</speed></extensions>
      </trkpt>
      <trkpt lat="51.935654000" lon="7.584808000">
        <ele>61.5</ele>
        <time>2017-04-29T10:04:47</time>
      </trkpt>
      <trkpt lat="51.935654000" lon="7.584800000">
        <ele>61.4</ele>
        <time>2017-04-29T10:04:49</time>
        <extensions><speed>0.18</speed></extensions>
      </trkpt>
      <trkpt lat="51.935654000" lon="7.584784000">
        <ele>61.4</ele>
        <time>2017-04-29T10:04:50</time>
        <extensions><speed>0.48</speed></extensions>
      </trkpt>
      <trkpt lat="51.935658000" lon="7.584766000">
        <ele>61.4</ele>
        <time>2017-04-29T10:04:51</time>
        <extensions><speed>0.86</speed></extensions>
      </trkpt>
      <trkpt lat="51.935669000" lon="7.584752000">
        <ele>61.4</ele>
        <time>2017-04-29T10:04:52</time>
        <extensions><speed>1.08</speed></extensions>
      </trkpt>
      <trkpt lat="51.935680000" lon="7.584740000">
        <ele>61.4</ele>
        <time>2017-04-29T10:04:53</time>
        <extensions><speed>1.19</speed></extensions>
      </trkpt>
      <trkpt lat="51.935692000" lon="7.584735000">
        <ele>61.4</ele>
        <time>2017-04-29T10:04:54</time>
        <extensions><speed>1.21</speed></extensions>
      </trkpt>
      <trkpt lat="51.935703000" lon="7.584731000">
        <ele>61.4</ele>
        <time>2017-04-29T10:04:55</time>
        <extensions><speed>1.22</speed></extensions>
      </trkpt>
      <trkpt lat="51.935715000" lon="7.584729000">
        <ele>61.3</ele>
        <time>2017-04-29T10:04:56</time>
        <extensions><speed>1.20</speed></extensions>
      </trkpt>
      <trkpt lat="51.935726000" lon="7.584723000">
        <ele>61.3</ele>
        <time>2017-04-29T10:04:57</time>
        <extensions><speed>1.20</speed></extensions>
      </trkpt>
      <trkpt lat="51.935738000" lon="7.584717000">
        <ele>61.3</ele>
        <time>2017-04-29T10:04:58</time>
        <extensions><speed>1.20</speed></extensions>
      </trkpt>
      <trkpt lat="51.935753000" lon="7.584715000">
        <ele>61.3</ele>
        <time>2017-04-29T10:04:59</time>
        <extensions><speed>1.21</speed></extensions>
      </trkpt>
      <trkpt lat="51.935760000" lon="7.584715000">
        <ele>61.2</ele>
        <time>2017-04-29T10:05:00</time>
        <extensions><speed>1.23</speed></extensions>
      </trkpt>
      <trkpt lat="51.935772000" lon="7.584715000">
        <ele>61.2</ele>
        <time>2017-04-29T10:05:01</time>
        <extensions><speed>1.23</speed></extensions>
      </trkpt>
      <trkpt lat="51.935783000" lon="7.584717000">
        <ele>61.2</ele>
        <time>2017-04-29T10:05:02</time>
        <extensions><speed>1.24</speed></extensions>
      </trkpt>
      <trkpt lat="51.935795000" lon="7.584718000">
        <ele>61.2</ele>
        <time>2017-04-29T10:05:03</time>
        <extensions><speed>1.24</speed></extensions>
      </trkpt>
      <trkpt lat="51.935810000" lon="7.584712000">
        <ele>61.1</ele>
        <time>2017-04-29T10:05:04</time>
        <extensions><speed>1.27</speed></extensions>
      </trkpt>
      <trkpt lat="51.935822000" lon="7.584700000">
        <ele>61.1</ele>
        <time>2017-04-29T10:05:05</time>
        <extensions><speed>1.34</speed></extensions>
      </trkpt>
      <trkpt lat="51.935837000" lon="7.584690000">
        <ele>61.1</ele>
        <time>2017-04-29T10:05:06</time>
        <extensions><speed>1.45</speed></extensions>
      </trkpt>
      <trkpt lat="51.935848000" lon="7.584677000">
        <ele>61.1</ele>
        <time>2017-04-29T10:05:07</time>
        <extensions><speed>1.54</speed></extensions>
      </trkpt>
      <trkpt lat="51.935860000" lon="7.584661000">
        <ele>61.1</ele>
        <time>2017-04-29T10:05:08</time>
        <extensions><speed>1.58</speed></extensions>
      </trkpt>
      <trkpt lat="51.935871000" lon="7.584645000">
        <ele>61.0</ele>
        <time>2017-04-29T10:05:09</time>
        <extensions><speed>1.58</speed></extensions>
      </trkpt>
      <trkpt lat="51.935883000" lon="7.584630000">
        <ele>61.0</ele>
        <time>2017-04-29T10:05:10</time>
        <extensions><speed>1.53</speed></extensions>
      </trkpt>
      <trkpt lat="51.935894000" lon="7.584615000">
        <ele>60.9</ele>
        <time>2017-04-29T10:05:11</time>
        <extensions><speed>1.46</speed></extensions>
      </trkpt>
      <trkpt lat="51.935902000" lon="7.584600000">
        <ele>60.9</ele>
        <time>2017-04-29T10:05:12</time>
        <extensions><speed>1.44</speed></extensions>
      </trkpt>
      <trkpt lat="51.935913000" lon="7.584585000">
        <ele>60.8</ele>
        <time>2017-04-29T10:05:13</time>
        <extensions><speed>1.37</speed></extensions>
      </trkpt>
      <trkpt lat="51.935917000" lon="7.584573000">
        <ele>60.8</ele>
        <time>2017-04-29T10:05:14</time>
        <extensions><speed>1.31</speed></extensions>
      </trkpt>
      <trkpt lat="51.935925000" lon="7.584558000">
        <ele>60.7</ele>
        <time>2017-04-29T10:05:15</time>
        <extensions><speed>1.24</speed></extensions>
      </trkpt>
      <trkpt lat="51.935932000" lon="7.584542000">
        <ele>60.7</ele>
        <time>2017-04-29T10:05:16</time>
        <extensions><speed>1.18</speed></extensions>
      </trkpt>
      <trkpt lat="51.935944000" lon="7.584531000">
        <ele>60.6</ele>
        <time>2017-04-29T10:05:17</time>
        <extensions><speed>1.11</speed></extensions>
      </trkpt>
      <trkpt lat="51.935947000" lon="7.584531000">
        <ele>60.5</ele>
        <time>2017-04-29T10:05:18</time>
      </trkpt>
      <trkpt lat="51.935951000" lon="7.584537000">
        <ele>60.5</ele>
        <time>2017-04-29T10:05:20</time>
        <extensions><speed>0.93</speed></extensions>
      </trkpt>
      <trkpt lat="51.935963000" lon="7.584547000">
        <ele>60.5</ele>
        <time>2017-04-29T10:05:21</time>
        <extensions><speed>0.93</speed></extensions>
      </trkpt>
      <trkpt lat="51.935974000" lon="7.584554000">
        <ele>60.4</ele>
        <time>2017-04-29T10:05:22</time>
        <extensions><speed>1.04</speed></extensions>
      </trkpt>
      <trkpt lat="51.935982000" lon="7.584565000">
        <ele>60.4</ele>
        <time>2017-04-29T10:05:23</time>
        <extensions><speed>1.11</speed></extensions>
      </trkpt>
      <trkpt lat="51.935993000" lon="7.584579000">
        <ele>60.4</ele>
        <time>2017-04-29T10:05:24</time>
        <extensions><speed>1.29</speed></extensions>
      </trkpt>
      <trkpt lat="51.936005000" lon="7.584593000">
        <ele>60.4</ele>
        <time>2017-04-29T10:05:25</time>
        <extensions><speed>1.42</speed></extensions>
      </trkpt>
      <trkpt lat="51.936016000" lon="7.584610000">
        <ele>60.3</ele>
        <time>2017-04-29T10:05:26</time>
        <extensions><speed>1.48</speed></extensions>
      </trkpt>
      <trkpt lat="51.936024000" lon="7.584625000">
        <ele>60.3</ele>
        <time>2017-04-29T10:05:27</time>
        <extensions><speed>1.53</speed></extensions>
      </trkpt>
      <trkpt lat="51.936035000" lon="7.584641000">
        <ele>60.3</ele>
        <time>2017-04-29T10:05:28</time>
        <extensions><speed>1.48</speed></extensions>
      </trkpt>
      <trkpt lat="51.936047000" lon="7.584659000">
        <ele>60.3</ele>
        <time>2017-04-29T10:05:29</time>
        <extensions><speed>1.46</speed></extensions>
      </trkpt>
      <trkpt lat="51.936050000" lon="7.584671000">
        <ele>60.3</ele>
        <time>2017-04-29T10:05:30</time>
        <extensions><speed>1.46</speed></extensions>
      </trkpt>
      <trkpt lat="51.936058000" lon="7.584689000">
        <ele>60.3</ele>
        <time>2017-04-29T10:05:31</time>
        <extensions><speed>1.46</speed></extensions>
      </trkpt>
      <trkpt lat="51.936066000" lon="7.584703000">
        <ele>60.3</ele>
        <time>2017-04-29T10:05:32</time>
        <extensions><speed>1.46</speed></extensions>
      </trkpt>
      <trkpt lat="51.936073000" lon="7.584720000">
        <ele>60.3</ele>
        <time>2017-04-29T10:05:33</time>
        <extensions><speed>1.47</speed></extensions>
      </trkpt>
      <trkpt lat="51.936081000" lon="7.584735000">
        <ele>60.3</ele>
        <time>2017-04-29T10:05:34</time>
        <extensions><speed>1.45</speed></extensions>
      </trkpt>
      <trkpt lat="51.936092000" lon="7.584748000">
        <ele>60.3</ele>
        <time>2017-04-29T10:05:35</time>
        <extensions><speed>1.42</speed></extensions>
      </trkpt>
      <trkpt lat="51.936100000" lon="7.584764000">
        <ele>60.3</ele>
        <time>2017-04-29T10:05:36</time>
        <extensions><speed>1.40</speed></extensions>
      </trkpt>
      <trkpt lat="51.936108000" lon="7.584776000">
        <ele>60.3</ele>
        <time>2017-04-29T10:05:37</time>
        <extensions><speed>1.37</speed></extensions>
      </trkpt>
      <trkpt lat="51.936115000" lon="7.584795000">
        <ele>60.3</ele>
        <time>2017-04-29T10:05:38</time>
        <extensions><speed>1.36</speed></extensions>
      </trkpt>
      <trkpt lat="51.936123000" lon="7.584813000">
        <ele>60.3</ele>
        <time>2017-04-29T10:05:39</time>
        <extensions><speed>1.35</speed></extensions>
      </trkpt>
      <trkpt lat="51.936131000" lon="7.584827000">
        <ele>60.3</ele>
        <time>2017-04-29T10:05:40</time>
        <extensions><speed>1.34</speed></extensions>
      </trkpt>
      <trkpt lat="51.936142000" lon="7.584840000">
        <ele>60.3</ele>
        <time>2017-04-29T10:05:41</time>
        <extensions><speed>1.37</speed></extensions>
      </trkpt>
      <trkpt lat="51.936150000" lon="7.584855000">
        <ele>60.3</ele>
        <time>2017-04-29T10:05:42</time>
        <extensions><speed>1.37</speed></extensions>
      </trkpt>
      <trkpt lat="51.936157000" lon="7.584869000">
        <ele>60.3</ele>
        <time>2017-04-29T10:05:43</time>
        <extensions><speed>1.39</speed></extensions>
      </trkpt>
      <trkpt lat="51.936165000" lon="7.584888000">
        <ele>60.3</ele>
        <time>2017-04-29T10:05:44</time>
        <extensions><speed>1.41</speed></extensions>
      </trkpt>
      <trkpt lat="51.936172000" lon="7.584904000">
        <ele>60.3</ele>
        <time>2017-04-29T10:05:45</time>
        <extensions><speed>1.46</speed></extensions>
      </trkpt>
      <trkpt lat="51.936176000" lon="7.584920000">
        <ele>60.3</ele>
        <time>2017-04-29T10:05:46</time>
        <extensions><speed>1.46</speed></extensions>
      </trkpt>
      <trkpt lat="51.936184000" lon="7.584939000">
        <ele>60.3</ele>
        <time>2017-04-29T10:05:47</time>
        <extensions><speed>1.46</speed></extensions>
      </trkpt>
      <trkpt lat="51.936195000" lon="7.584955000">
        <ele>60.3</ele>
        <time>2017-04-29T10:05:48</time>
        <extensions><speed>1.45</speed></extensions>
      </trkpt>
      <trkpt lat="51.936203000" lon="7.584972000">
        <ele>60.3</ele>
        <time>2017-04-29T10:05:49</time>
        <extensions><speed>1.46</speed></extensions>
      </trkpt>
      <trkpt lat="51.936207000" lon="7.584988000">
        <ele>60.3</ele>
        <time>2017-04-29T10:05:50</time>
        <extensions><speed>1.44</speed></extensions>
      </trkpt>
      <trkpt lat="51.936218000" lon="7.585005000">
        <ele>60.3</ele>
        <time>2017-04-29T10:05:51</time>
        <extensions><speed>1.44</speed></extensions>
      </trkpt>
      <trkpt lat="51.936226000" lon="7.585021000">
        <ele>60.3</ele>
        <time>2017-04-29T10:05:52</time>
        <extensions><speed>1.43</speed></extensions>
      </trkpt>
      <trkpt lat="51.936237000" lon="7.585039000">
        <ele>60.3</ele>
        <time>2017-04-29T10:05:53</time>
        <extensions><speed>1.44</speed></extensions>
      </trkpt>
      <trkpt lat="51.936241000" lon="7.585055000">
        <ele>60.3</ele>
        <time>2017-04-29T10:05:54</time>
        <extensions><speed>1.45</speed></extensions>
      </trkpt>
      <trkpt lat="51.936253000" lon="7.585072000">
        <ele>60.3</ele>
        <time>2017-04-29T10:05:55</time>
        <extensions><speed>1.45</speed></extensions>
      </trkpt>
      <trkpt lat="51.936260000" lon="7.585088000">
        <ele>60.3</ele>
        <time>2017-04-29T10:05:56</time>
        <extensions><speed>1.44</speed></extensions>
      </trkpt>
      <trkpt lat="51.936268000" lon="7.585104000">
        <ele>60.3</ele>
        <time>2017-04-29T10:05:57</time>
        <extensions><speed>1.43</speed></extensions>
      </trkpt>
      <trkpt lat="51.936275000" lon="7.585116000">
        <ele>60.3</ele>
        <time>2017-04-29T10:05:58</time>
        <extensions><speed>1.42</speed></extensions>
      </trkpt>
      <trkpt lat="51.936287000" lon="7.585132000">
        <ele>60.3</ele>
        <time>2017-04-29T10:05:59</time>
        <extensions><speed>1.40</speed></extensions>
      </trkpt>
      <trkpt lat="51.936295000" lon="7.585147000">
        <ele>60.3</ele>
        <time>2017-04-29T10:06:00</time>
        <extensions><speed>1.39</speed></extensions>
      </trkpt>
      <trkpt lat="51.936302000" lon="7.585163000">
        <ele>60.3</ele>
        <time>2017-04-29T10:06:01</time>
        <extensions><speed>1.39</speed></extensions>
      </trkpt>
      <trkpt lat="51.936306000" lon="7.585180000">
        <ele>60.3</ele>
        <time>2017-04-29T10:06:02</time>
        <extensions><speed>1.39</speed></extensions>
      </trkpt>
      <trkpt lat="51.936314000" lon="7.585195000">
        <ele>60.3</ele>
        <time>2017-04-29T10:06:03</time>
        <extensions><speed>1.37</speed></extensions>
      </trkpt>
      <trkpt lat="51.936325000" lon="7.585207000">
        <ele>60.3</ele>
        <time>2017-04-29T10:06:04</time>
        <extensions><speed>1.34</speed></extensions>
      </trkpt>
      <trkpt lat="51.936333000" lon="7.585223000">
        <ele>60.3</ele>
        <time>2017-04-29T10:06:05</time>
        <extensions><speed>1.34</speed></extensions>
      </trkpt>
      <trkpt lat="51.936337000" lon="7.585240000">
        <ele>60.3</ele>
        <time>2017-04-29T10:06:06</time>
        <extensions><speed>1.32</speed></extensions>
      </trkpt>
      <trkpt lat="51.936348000" lon="7.585250000">
        <ele>60.3</ele>
        <time>2017-04-29T10:06:07</time>
        <extensions><speed>1.32</speed></extensions>
      </trkpt>
      <trkpt lat="51.936356000" lon="7.585250000">
        <ele>60.3</ele>
        <time>2017-04-29T10:06:08</time>
      </trkpt>
      <trkpt lat="51.936363000" lon="7.585247000">
        <ele>60.3</ele>
        <time>2017-04-29T10:06:10</time>
        <extensions><speed>1.14</speed></extensions>
      </trkpt>
      <trkpt lat="51.936371000" lon="7.585235000">
        <ele>60.2</ele>
        <time>2017-04-29T10:06:11</time>
        <extensions><speed>1.06</speed></extensions>
      </trkpt>
      <trkpt lat="51.936378000" lon="7.585223000">
        <ele>60.2</ele>
        <time>2017-04-29T10:06:12</time>
        <extensions><speed>1.06</speed></extensions>
      </trkpt>
      <trkpt lat="51.936390000" lon="7.585210000">
        <ele>60.2</ele>
        <time>2017-04-29T10:06:13</time>
        <extensions><speed>1.13</speed></extensions>
      </trkpt>
      <trkpt lat="51.936401000" lon="7.585193000">
        <ele>60.2</ele>
        <time>2017-04-29T10:06:14</time>
        <extensions><speed>1.16</speed></extensions>
      </trkpt>
      <trkpt lat="51.936405000" lon="7.585175000">
        <ele>60.2</ele>
        <time>2017-04-29T10:06:15</time>
        <extensions><speed>1.21</speed></extensions>
      </trkpt>
      <trkpt lat="51.936417000" lon="7.585160000">
        <ele>60.2</ele>
        <time>2017-04-29T10:06:16</time>
        <extensions><speed>1.25</speed></extensions>
      </trkpt>
      <trkpt lat="51.936428000" lon="7.585148000">
        <ele>60.1</ele>
        <time>2017-04-29T10:06:17</time>
        <extensions><speed>1.25</speed></extensions>
      </trkpt>
      <trkpt lat="51.936436000" lon="7.585135000">
        <ele>60.1</ele>
        <time>2017-04-29T10:06:18</time>
        <extensions><speed>1.21</speed></extensions>
      </trkpt>
      <trkpt lat="51.936451000" lon="7.585122000">
        <ele>60.0</ele>
        <time>2017-04-29T10:06:19</time>
        <extensions><speed>1.24</speed></extensions>
      </trkpt>
      <trkpt lat="51.936462000" lon="7.585114000">
        <ele>60.0</ele>
        <time>2017-04-29T10:06:20</time>
        <extensions><speed>1.30</speed></extensions>
      </trkpt>
      <trkpt lat="51.936470000" lon="7.585107000">
        <ele>59.9</ele>
        <time>2017-04-29T10:06:21</time>
        <extensions><speed>1.29</speed></extensions>
      </trkpt>
      <trkpt lat="51.936481000" lon="7.585100000">
        <ele>59.9</ele>
        <time>2017-04-29T10:06:22</time>
        <extensions><speed>1.32</speed></extensions>
      </trkpt>
      <trkpt lat="51.936497000" lon="7.585093000">
        <ele>59.8</ele>
        <time>2017-04-29T10:06:23</time>
        <extensions><speed>1.32</speed></extensions>
      </trkpt>
      <trkpt lat="51.936504000" lon="7.585086000">
        <ele>59.8</ele>
        <time>2017-04-29T10:06:24</time>
        <extensions><speed>1.28</speed></extensions>
      </trkpt>
      <trkpt lat="51.936516000" lon="7.585081000">
        <ele>59.7</ele>
        <time>2017-04-29T10:06:25</time>
        <extensions><speed>1.28</speed></extensions>
      </trkpt>
      <trkpt lat="51.936531000" lon="7.585079000">
        <ele>59.7</ele>
        <time>2017-04-29T10:06:26</time>
        <extensions><speed>1.30</speed></extensions>
      </trkpt>
      <trkpt lat="51.936543000" lon="7.585072000">
        <ele>59.6</ele>
        <time>2017-04-29T10:06:27</time>
        <extensions><speed>1.31</speed></extensions>
      </trkpt>
      <trkpt lat="51.936554000" lon="7.585069000">
        <ele>59.6</ele>
        <time>2017-04-29T10:06:28</time>
        <extensions><speed>1.35</speed></extensions>
      </trkpt>
      <trkpt lat="51.936565000" lon="7.585065000">
        <ele>59.6</ele>
        <time>2017-04-29T10:06:29</time>
        <extensions><speed>1.36</speed></extensions>
      </trkpt>
      <trkpt lat="51.936584000" lon="7.585065000">
        <ele>59.5</ele>
        <time>2017-04-29T10:06:30</time>
        <extensions><speed>1.37</speed></extensions>
      </trkpt>
      <trkpt lat="51.936600000" lon="7.585058000">
        <ele>59.5</ele>
        <time>2017-04-29T10:06:31</time>
        <extensions><speed>1.34</speed></extensions>
      </trkpt>
      <trkpt lat="51.936615000" lon="7.585057000">
        <ele>59.4</ele>
        <time>2017-04-29T10:06:32</time>
        <extensions><speed>1.34</speed></extensions>
      </trkpt>
      <trkpt lat="51.936630000" lon="7.585055000">
        <ele>59.4</ele>
        <time>2017-04-29T10:06:33</time>
        <extensions><speed>1.36</speed></extensions>
      </trkpt>
      <trkpt lat="51.936642000" lon="7.585053000">
        <ele>59.3</ele>
        <time>2017-04-29T10:06:34</time>
        <extensions><speed>1.35</speed></extensions>
      </trkpt>
      <trkpt lat="51.936653000" lon="7.585052000">
        <ele>59.2</ele>
        <time>2017-04-29T10:06:35</time>
        <extensions><speed>1.29</speed></extensions>
      </trkpt>
      <trkpt lat="51.936665000" lon="7.585052000">
        <ele>59.2</ele>
        <time>2017-04-29T10:06:36</time>
        <extensions><speed>1.26</speed></extensions>
      </trkpt>
      <trkpt lat="51.936676000" lon="7.585053000">
        <ele>59.1</ele>
        <time>2017-04-29T10:06:37</time>
        <extensions><speed>1.29</speed></extensions>
      </trkpt>
      <trkpt lat="51.936687000" lon="7.585053000">
        <ele>59.1</ele>
        <time>2017-04-29T10:06:38</time>
        <extensions><speed>1.25</speed></extensions>
      </trkpt>
      <trkpt lat="51.936699000" lon="7.585053000">
        <ele>59.0</ele>
        <time>2017-04-29T10:06:39</time>
        <extensions><speed>1.23</speed></extensions>
      </trkpt>
      <trkpt lat="51.936710000" lon="7.585052000">
        <ele>59.0</ele>
        <time>2017-04-29T10:06:40</time>
        <extensions><speed>1.26</speed></extensions>
      </trkpt>
      <trkpt lat="51.936729000" lon="7.585053000">
        <ele>58.9</ele>
        <time>2017-04-29T10:06:41</time>
        <extensions><speed>1.28</speed></extensions>
      </trkpt>
      <trkpt lat="51.936737000" lon="7.585058000">
        <ele>58.9</ele>
        <time>2017-04-29T10:06:42</time>
        <extensions><speed>1.28</speed></extensions>
      </trkpt>
      <trkpt lat="51.936752000" lon="7.585065000">
        <ele>58.8</ele>
        <time>2017-04-29T10:06:43</time>
        <extensions><speed>1.28</speed></extensions>
      </trkpt>
      <trkpt lat="51.936764000" lon="7.585073000">
        <ele>58.8</ele>
        <time>2017-04-29T10:06:44</time>
        <extensions><speed>1.29</speed></extensions>
      </trkpt>
      <trkpt lat="51.936771000" lon="7.585081000">
        <ele>58.7</ele>
        <time>2017-04-29T10:06:45</time>
        <extensions><speed>1.29</speed></extensions>
      </trkpt>
      <trkpt lat="51.936783000" lon="7.585088000">
        <ele>58.7</ele>
        <time>2017-04-29T10:06:46</time>
        <extensions><speed>1.28</speed></extensions>
      </trkpt>
      <trkpt lat="51.936794000" lon="7.585095000">
        <ele>58.7</ele>
        <time>2017-04-29T10:06:47</time>
        <extensions><speed>1.31</speed></extensions>
      </trkpt>
      <trkpt lat="51.936810000" lon="7.585102000">
        <ele>58.6</ele>
        <time>2017-04-29T10:06:48</time>
        <extensions><speed>1.35</speed></extensions>
      </trkpt>
      <trkpt lat="51.936825000" lon="7.585109000">
        <ele>58.6</ele>
        <time>2017-04-29T10:06:49</time>
        <extensions><speed>1.39</speed></extensions>
      </trkpt>
      <trkpt lat="51.936832000" lon="7.585116000">
        <ele>58.5</ele>
        <time>2017-04-29T10:06:50</time>
        <extensions><speed>1.38</speed></extensions>
      </trkpt>
      <trkpt lat="51.936844000" lon="7.585126000">
        <ele>58.5</ele>
        <time>2017-04-29T10:06:51</time>
        <extensions><speed>1.39</speed></extensions>
      </trkpt>
      <trkpt lat="51.936855000" lon="7.585137000">
        <ele>58.5</ele>
        <time>2017-04-29T10:06:52</time>
        <extensions><speed>1.39</speed></extensions>
      </trkpt>
      <trkpt lat="51.936867000" lon="7.585145000">
        <ele>58.5</ele>
        <time>2017-04-29T10:06:53</time>
        <extensions><speed>1.38</speed></extensions>
      </trkpt>
      <trkpt lat="51.936882000" lon="7.585155000">
        <ele>58.4</ele>
        <time>2017-04-29T10:06:54</time>
        <extensions><speed>1.36</speed></extensions>
      </trkpt>
      <trkpt lat="51.936893000" lon="7.585165000">
        <ele>58.4</ele>
        <time>2017-04-29T10:06:55</time>
        <extensions><speed>1.40</speed></extensions>
      </trkpt>
      <trkpt lat="51.936901000" lon="7.585174000">
        <ele>58.3</ele>
        <time>2017-04-29T10:06:56</time>
        <extensions><speed>1.36</speed></extensions>
      </trkpt>
      <trkpt lat="51.936913000" lon="7.585183000">
        <ele>58.3</ele>
        <time>2017-04-29T10:06:57</time>
        <extensions><speed>1.36</speed></extensions>
      </trkpt>
      <trkpt lat="51.936924000" lon="7.585195000">
        <ele>58.2</ele>
        <time>2017-04-29T10:06:58</time>
        <extensions><speed>1.42</speed></extensions>
      </trkpt>
      <trkpt lat="51.936935000" lon="7.585208000">
        <ele>58.2</ele>
        <time>2017-04-29T10:06:59</time>
        <extensions><speed>1.41</speed></extensions>
      </trkpt>
      <trkpt lat="51.936943000" lon="7.585220000">
        <ele>58.2</ele>
        <time>2017-04-29T10:07:00</time>
        <extensions><speed>1.36</speed></extensions>
      </trkpt>
      <trkpt lat="51.936954000" lon="7.585230000">
        <ele>58.1</ele>
        <time>2017-04-29T10:07:01</time>
        <extensions><speed>1.42</speed></extensions>
      </trkpt>
      <trkpt lat="51.936966000" lon="7.585245000">
        <ele>58.1</ele>
        <time>2017-04-29T10:07:02</time>
        <extensions><speed>1.46</speed></extensions>
      </trkpt>
      <trkpt lat="51.936977000" lon="7.585258000">
        <ele>58.0</ele>
        <time>2017-04-29T10:07:03</time>
        <extensions><speed>1.40</speed></extensions>
      </trkpt>
      <trkpt lat="51.936989000" lon="7.585272000">
        <ele>58.0</ele>
        <time>2017-04-29T10:07:04</time>
        <extensions><speed>1.43</speed></extensions>
      </trkpt>
      <trkpt lat="51.937000000" lon="7.585284000">
        <ele>58.0</ele>
        <time>2017-04-29T10:07:05</time>
        <extensions><speed>1.44</speed></extensions>
      </trkpt>
      <trkpt lat="51.937012000" lon="7.585295000">
        <ele>57.9</ele>
        <time>2017-04-29T10:07:06</time>
        <extensions><speed>1.44</speed></extensions>
      </trkpt>
      <trkpt lat="51.937023000" lon="7.585305000">
        <ele>57.9</ele>
        <time>2017-04-29T10:07:07</time>
        <extensions><speed>1.41</speed></extensions>
      </trkpt>
      <trkpt lat="51.937031000" lon="7.585315000">
        <ele>57.9</ele>
        <time>2017-04-29T10:07:08</time>
        <extensions><speed>1.44</speed></extensions>
      </trkpt>
      <trkpt lat="51.937042000" lon="7.585326000">
        <ele>57.8</ele>
        <time>2017-04-29T10:07:09</time>
        <extensions><speed>1.45</speed></extensions>
      </trkpt>
      <trkpt lat="51.937054000" lon="7.585345000">
        <ele>57.8</ele>
        <time>2017-04-29T10:07:10</time>
        <extensions><speed>1.48</speed></extensions>
      </trkpt>
      <trkpt lat="51.937065000" lon="7.585361000">
        <ele>57.7</ele>
        <time>2017-04-29T10:07:11</time>
        <extensions><speed>1.50</speed></extensions>
      </trkpt>
      <trkpt lat="51.937077000" lon="7.585380000">
        <ele>57.7</ele>
        <time>2017-04-29T10:07:12</time>
        <extensions><speed>1.50</speed></extensions>
      </trkpt>
      <trkpt lat="51.937084000" lon="7.585396000">
        <ele>57.6</ele>
        <time>2017-04-29T10:07:13</time>
        <extensions><speed>1.47</speed></extensions>
      </trkpt>
      <trkpt lat="51.937092000" lon="7.585412000">
        <ele>57.6</ele>
        <time>2017-04-29T10:07:14</time>
        <extensions><speed>1.48</speed></extensions>
      </trkpt>
      <trkpt lat="51.937099000" lon="7.585425000">
        <ele>57.6</ele>
        <time>2017-04-29T10:07:15</time>
        <extensions><speed>1.45</speed></extensions>
      </trkpt>
      <trkpt lat="51.937107000" lon="7.585440000">
        <ele>57.5</ele>
        <time>2017-04-29T10:07:16</time>
        <extensions><speed>1.40</speed></extensions>
      </trkpt>
      <trkpt lat="51.937119000" lon="7.585459000">
        <ele>57.5</ele>
        <time>2017-04-29T10:07:17</time>
        <extensions><speed>1.40</speed></extensions>
      </trkpt>
      <trkpt lat="51.937126000" lon="7.585475000">
        <ele>57.5</ele>
        <time>2017-04-29T10:07:18</time>
        <extensions><speed>1.41</speed></extensions>
      </trkpt>
      <trkpt lat="51.937134000" lon="7.585492000">
        <ele>57.4</ele>
        <time>2017-04-29T10:07:19</time>
        <extensions><speed>1.41</speed></extensions>
      </trkpt>
      <trkpt lat="51.937141000" lon="7.585510000">
        <ele>57.4</ele>
        <time>2017-04-29T10:07:20</time>
        <extensions><speed>1.43</speed></extensions>
      </trkpt>
      <trkpt lat="51.937149000" lon="7.585526000">
        <ele>57.4</ele>
        <time>2017-04-29T10:07:21</time>
        <extensions><speed>1.47</speed></extensions>
      </trkpt>
      <trkpt lat="51.937157000" lon="7.585540000">
        <ele>57.4</ele>
        <time>2017-04-29T10:07:22</time>
        <extensions><speed>1.48</speed></extensions>
      </trkpt>
      <trkpt lat="51.937168000" lon="7.585555000">
        <ele>57.4</ele>
        <time>2017-04-29T10:07:23</time>
        <extensions><speed>1.48</speed></extensions>
      </trkpt>
      <trkpt lat="51.937176000" lon="7.585571000">
        <ele>57.4</ele>
        <time>2017-04-29T10:07:24</time>
        <extensions><speed>1.48</speed></extensions>
      </trkpt>
      <trkpt lat="51.937183000" lon="7.585590000">
        <ele>57.4</ele>
        <time>2017-04-29T10:07:25</time>
        <extensions><speed>1.48</speed></extensions>
      </trkpt>
      <trkpt lat="51.937191000" lon="7.585607000">
        <ele>57.3</ele>
        <time>2017-04-29T10:07:26</time>
        <extensions><speed>1.48</speed></extensions>
      </trkpt>
      <trkpt lat="51.937199000" lon="7.585625000">
        <ele>57.3</ele>
        <time>2017-04-29T10:07:27</time>
        <extensions><speed>1.47</speed></extensions>
      </trkpt>
      <trkpt lat="51.937210000" lon="7.585643000">
        <ele>57.3</ele>
        <time>2017-04-29T10:07:28</time>
        <extensions><speed>1.49</speed></extensions>
      </trkpt>
      <trkpt lat="51.937218000" lon="7.585660000">
        <ele>57.3</ele>
        <time>2017-04-29T10:07:29</time>
        <extensions><speed>1.50</speed></extensions>
      </trkpt>
      <trkpt lat="51.937225000" lon="7.585675000">
        <ele>57.3</ele>
        <time>2017-04-29T10:07:30</time>
        <extensions><speed>1.48</speed></extensions>
      </trkpt>
      <trkpt lat="51.937233000" lon="7.585692000">
        <ele>57.3</ele>
        <time>2017-04-29T10:07:31</time>
        <extensions><speed>1.46</speed></extensions>
      </trkpt>
      <trkpt lat="51.937241000" lon="7.585708000">
        <ele>57.3</ele>
        <time>2017-04-29T10:07:32</time>
        <extensions><speed>1.46</speed></extensions>
      </trkpt>
      <trkpt lat="51.937248000" lon="7.585723000">
        <ele>57.3</ele>
        <time>2017-04-29T10:07:33</time>
        <extensions><speed>1.40</speed></extensions>
      </trkpt>
      <trkpt lat="51.937256000" lon="7.585739000">
        <ele>57.4</ele>
        <time>2017-04-29T10:07:34</time>
        <extensions><speed>1.40</speed></extensions>
      </trkpt>
      <trkpt lat="51.937267000" lon="7.585755000">
        <ele>57.4</ele>
        <time>2017-04-29T10:07:35</time>
        <extensions><speed>1.40</speed></extensions>
      </trkpt>
      <trkpt lat="51.937275000" lon="7.585770000">
        <ele>57.4</ele>
        <time>2017-04-29T10:07:36</time>
        <extensions><speed>1.39</speed></extensions>
      </trkpt>
      <trkpt lat="51.937283000" lon="7.585786000">
        <ele>57.4</ele>
        <time>2017-04-29T10:07:37</time>
        <extensions><speed>1.41</speed></extensions>
      </trkpt>
      <trkpt lat="51.937286000" lon="7.585807000">
        <ele>57.4</ele>
        <time>2017-04-29T10:07:38</time>
        <extensions><speed>1.42</speed></extensions>
      </trkpt>
      <trkpt lat="51.937294000" lon="7.585825000">
        <ele>57.4</ele>
        <time>2017-04-29T10:07:39</time>
        <extensions><speed>1.43</speed></extensions>
      </trkpt>
      <trkpt lat="51.937302000" lon="7.585844000">
        <ele>57.4</ele>
        <time>2017-04-29T10:07:40</time>
        <extensions><speed>1.47</speed></extensions>
      </trkpt>
      <trkpt lat="51.937309000" lon="7.585864000">
        <ele>57.4</ele>
        <time>2017-04-29T10:07:41</time>
        <extensions><speed>1.51</speed></extensions>
      </trkpt>
      <trkpt lat="51.937317000" lon="7.585881000">
        <ele>57.5</ele>
        <time>2017-04-29T10:07:42</time>
        <extensions><speed>1.50</speed></extensions>
      </trkpt>
      <trkpt lat="51.937325000" lon="7.585896000">
        <ele>57.5</ele>
        <time>2017-04-29T10:07:43</time>
        <extensions><speed>1.53</speed></extensions>
      </trkpt>
      <trkpt lat="51.937336000" lon="7.585914000">
        <ele>57.5</ele>
        <time>2017-04-29T10:07:44</time>
        <extensions><speed>1.57</speed></extensions>
      </trkpt>
      <trkpt lat="51.937347000" lon="7.585928000">
        <ele>57.5</ele>
        <time>2017-04-29T10:07:45</time>
        <extensions><speed>1.56</speed></extensions>
      </trkpt>
      <trkpt lat="51.937359000" lon="7.585942000">
        <ele>57.5</ele>
        <time>2017-04-29T10:07:46</time>
        <extensions><speed>1.57</speed></extensions>
      </trkpt>
      <trkpt lat="51.937370000" lon="7.585953000">
        <ele>57.5</ele>
        <time>2017-04-29T10:07:47</time>
        <extensions><speed>1.64</speed></extensions>
      </trkpt>
      <trkpt lat="51.937382000" lon="7.585965000">
        <ele>57.5</ele>
        <time>2017-04-29T10:07:48</time>
        <extensions><speed>1.64</speed></extensions>
      </trkpt>
      <trkpt lat="51.937397000" lon="7.585975000">
        <ele>57.5</ele>
        <time>2017-04-29T10:07:49</time>
        <extensions><speed>1.64</speed></extensions>
      </trkpt>
      <trkpt lat="51.937408000" lon="7.585984000">
        <ele>57.5</ele>
        <time>2017-04-29T10:07:50</time>
        <extensions><speed>1.64</speed></extensions>
      </trkpt>
      <trkpt lat="51.937420000" lon="7.585991000">
        <ele>57.6</ele>
        <time>2017-04-29T10:07:51</time>
        <extensions><speed>1.56</speed></extensions>
      </trkpt>
      <trkpt lat="51.937431000" lon="7.586003000">
        <ele>57.6</ele>
        <time>2017-04-29T10:07:52</time>
        <extensions><speed>1.47</speed></extensions>
      </trkpt>
      <trkpt lat="51.937443000" lon="7.586015000">
        <ele>57.6</ele>
        <time>2017-04-29T10:07:53</time>
        <extensions><speed>1.51</speed></extensions>
      </trkpt>
      <trkpt lat="51.937454000" lon="7.586023000">
        <ele>57.6</ele>
        <time>2017-04-29T10:07:54</time>
        <extensions><speed>1.42</speed></extensions>
      </trkpt>
      <trkpt lat="51.937469000" lon="7.586031000">
        <ele>57.6</ele>
        <time>2017-04-29T10:07:55</time>
        <extensions><speed>1.46</speed></extensions>
      </trkpt>
      <trkpt lat="51.937481000" lon="7.586037000">
        <ele>57.6</ele>
        <time>2017-04-29T10:07:56</time>
        <extensions><speed>1.46</speed></extensions>
      </trkpt>
      <trkpt lat="51.937496000" lon="7.586040000">
        <ele>57.6</ele>
        <time>2017-04-29T10:07:57</time>
        <extensions><speed>1.45</speed></extensions>
      </trkpt>
      <trkpt lat="51.937508000" lon="7.586043000">
        <ele>57.5</ele>
        <time>2017-04-29T10:07:58</time>
        <extensions><speed>1.40</speed></extensions>
      </trkpt>
      <trkpt lat="51.937515000" lon="7.586047000">
        <ele>57.5</ele>
        <time>2017-04-29T10:07:59</time>
        <extensions><speed>1.39</speed></extensions>
      </trkpt>
      <trkpt lat="51.937531000" lon="7.586047000">
        <ele>57.5</ele>
        <time>2017-04-29T10:08:00</time>
        <extensions><speed>1.35</speed></extensions>
      </trkpt>
      <trkpt lat="51.937542000" lon="7.586049000">
        <ele>57.5</ele>
        <time>2017-04-29T10:08:01</time>
        <extensions><speed>1.31</speed></extensions>
      </trkpt>
      <trkpt lat="51.937550000" lon="7.586049000">
        <ele>57.5</ele>
        <time>2017-04-29T10:08:02</time>
        <extensions><speed>1.27</speed></extensions>
      </trkpt>
      <trkpt lat="51.937565000" lon="7.586049000">
        <ele>57.5</ele>
        <time>2017-04-29T10:08:03</time>
        <extensions><speed>1.28</speed></extensions>
      </trkpt>
      <trkpt lat="51.937576000" lon="7.586051000">
        <ele>57.5</ele>
        <time>2017-04-29T10:08:04</time>
        <extensions><speed>1.28</speed></extensions>
      </trkpt>
      <trkpt lat="51.937592000" lon="7.586049000">
        <ele>57.5</ele>
        <time>2017-04-29T10:08:05</time>
        <extensions><speed>1.31</speed></extensions>
      </trkpt>
      <trkpt lat="51.937607000" lon="7.586047000">
        <ele>57.5</ele>
        <time>2017-04-29T10:08:06</time>
        <extensions><speed>1.33</speed></extensions>
      </trkpt>
      <trkpt lat="51.937614000" lon="7.586045000">
        <ele>57.4</ele>
        <time>2017-04-29T10:08:07</time>
        <extensions><speed>1.33</speed></extensions>
      </trkpt>
      <trkpt lat="51.937630000" lon="7.586045000">
        <ele>57.4</ele>
        <time>2017-04-29T10:08:08</time>
        <extensions><speed>1.32</speed></extensions>
      </trkpt>
      <trkpt lat="51.937641000" lon="7.586045000">
        <ele>57.4</ele>
        <time>2017-04-29T10:08:09</time>
        <extensions><speed>1.26</speed></extensions>
      </trkpt>
      <trkpt lat="51.937653000" lon="7.586045000">
        <ele>57.4</ele>
        <time>2017-04-29T10:08:10</time>
        <extensions><speed>1.25</speed></extensions>
      </trkpt>
      <trkpt lat="51.937664000" lon="7.586045000">
        <ele>57.4</ele>
        <time>2017-04-29T10:08:11</time>
        <extensions><speed>1.20</speed></extensions>
      </trkpt>
      <trkpt lat="51.937675000" lon="7.586045000">
        <ele>57.4</ele>
        <time>2017-04-29T10:08:12</time>
        <extensions><speed>1.24</speed></extensions>
      </trkpt>
      <trkpt lat="51.937687000" lon="7.586047000">
        <ele>57.3</ele>
        <time>2017-04-29T10:08:13</time>
        <extensions><speed>1.24</speed></extensions>
      </trkpt>
      <trkpt lat="51.937702000" lon="7.586049000">
        <ele>57.3</ele>
        <time>2017-04-29T10:08:14</time>
        <extensions><speed>1.30</speed></extensions>
      </trkpt>
      <trkpt lat="51.937717000" lon="7.586051000">
        <ele>57.3</ele>
        <time>2017-04-29T10:08:15</time>
        <extensions><speed>1.31</speed></extensions>
      </trkpt>
      <trkpt lat="51.937729000" lon="7.586052000">
        <ele>57.3</ele>
        <time>2017-04-29T10:08:16</time>
        <extensions><speed>1.33</speed></extensions>
      </trkpt>
      <trkpt lat="51.937740000" lon="7.586052000">
        <ele>57.3</ele>
        <time>2017-04-29T10:08:17</time>
        <extensions><speed>1.35</speed></extensions>
      </trkpt>
      <trkpt lat="51.937756000" lon="7.586053000">
        <ele>57.2</ele>
        <time>2017-04-29T10:08:18</time>
        <extensions><speed>1.37</speed></extensions>
      </trkpt>
      <trkpt lat="51.937771000" lon="7.586056000">
        <ele>57.2</ele>
        <time>2017-04-29T10:08:19</time>
        <extensions><speed>1.37</speed></extensions>
      </trkpt>
      <trkpt lat="51.937786000" lon="7.586058000">
        <ele>57.2</ele>
        <time>2017-04-29T10:08:20</time>
        <extensions><speed>1.43</speed></extensions>
      </trkpt>
      <trkpt lat="51.937798000" lon="7.586063000">
        <ele>57.2</ele>
        <time>2017-04-29T10:08:21</time>
        <extensions><speed>1.48</speed></extensions>
      </trkpt>
      <trkpt lat="51.937809000" lon="7.586065000">
        <ele>57.2</ele>
        <time>2017-04-29T10:08:22</time>
        <extensions><speed>1.48</speed></extensions>
      </trkpt>
      <trkpt lat="51.937824000" lon="7.586065000">
        <ele>57.2</ele>
        <time>2017-04-29T10:08:23</time>
        <extensions><speed>1.47</speed></extensions>
      </trkpt>
      <trkpt lat="51.937840000" lon="7.586067000">
        <ele>57.1</ele>
        <time>2017-04-29T10:08:24</time>
        <extensions><speed>1.42</speed></extensions>
      </trkpt>
      <trkpt lat="51.937851000" lon="7.586067000">
        <ele>57.1</ele>
        <time>2017-04-29T10:08:25</time>
        <extensions><speed>1.38</speed></extensions>
      </trkpt>
      <trkpt lat="51.937866000" lon="7.586063000">
        <ele>57.1</ele>
        <time>2017-04-29T10:08:26</time>
        <extensions><speed>1.37</speed></extensions>
      </trkpt>
      <trkpt lat="51.937874000" lon="7.586060000">
        <ele>57.1</ele>
        <time>2017-04-29T10:08:27</time>
        <extensions><speed>1.39</speed></extensions>
      </trkpt>
      <trkpt lat="51.937889000" lon="7.586053000">
        <ele>57.1</ele>
        <time>2017-04-29T10:08:28</time>
        <extensions><speed>1.40</speed></extensions>
      </trkpt>
      <trkpt lat="51.937901000" lon="7.586045000">
        <ele>57.1</ele>
        <time>2017-04-29T10:08:29</time>
        <extensions><speed>1.40</speed></extensions>
      </trkpt>
      <trkpt lat="51.937912000" lon="7.586037000">
        <ele>57.0</ele>
        <time>2017-04-29T10:08:30</time>
        <extensions><speed>1.41</speed></extensions>
      </trkpt>
      <trkpt lat="51.937927000" lon="7.586025000">
        <ele>57.0</ele>
        <time>2017-04-29T10:08:31</time>
        <extensions><speed>1.44</speed></extensions>
      </trkpt>
      <trkpt lat="51.937935000" lon="7.586017000">
        <ele>57.0</ele>
        <time>2017-04-29T10:08:32</time>
        <extensions><speed>1.41</speed></extensions>
      </trkpt>
      <trkpt lat="51.937950000" lon="7.586012000">
        <ele>57.0</ele>
        <time>2017-04-29T10:08:33</time>
        <extensions><speed>1.39</speed></extensions>
      </trkpt>
      <trkpt lat="51.937965000" lon="7.586003000">
        <ele>56.9</ele>
        <time>2017-04-29T10:08:34</time>
        <extensions><speed>1.42</speed></extensions>
      </trkpt>
      <trkpt lat="51.937973000" lon="7.585991000">
        <ele>56.9</ele>
        <time>2017-04-29T10:08:35</time>
        <extensions><speed>1.44</speed></extensions>
      </trkpt>
      <trkpt lat="51.937984000" lon="7.585977000">
        <ele>56.9</ele>
        <time>2017-04-29T10:08:36</time>
        <extensions><speed>1.40</speed></extensions>
      </trkpt>
      <trkpt lat="51.938000000" lon="7.585968000">
        <ele>56.9</ele>
        <time>2017-04-29T10:08:37</time>
        <extensions><speed>1.42</speed></extensions>
      </trkpt>
      <trkpt lat="51.938007000" lon="7.585960000">
        <ele>56.8</ele>
        <time>2017-04-29T10:08:38</time>
        <extensions><speed>1.42</speed></extensions>
      </trkpt>
      <trkpt lat="51.938023000" lon="7.585953000">
        <ele>56.8</ele>
        <time>2017-04-29T10:08:39</time>
        <extensions><speed>1.41</speed></extensions>
      </trkpt>
      <trkpt lat="51.938034000" lon="7.585945000">
        <ele>56.8</ele>
        <time>2017-04-29T10:08:40</time>
        <extensions><speed>1.40</speed></extensions>
      </trkpt>
      <trkpt lat="51.938046000" lon="7.585937000">
        <ele>56.7</ele>
        <time>2017-04-29T10:08:41</time>
        <extensions><speed>1.40</speed></extensions>
      </trkpt>
      <trkpt lat="51.938061000" lon="7.585925000">
        <ele>56.7</ele>
        <time>2017-04-29T10:08:42</time>
        <extensions><speed>1.40</speed></extensions>
      </trkpt>
      <trkpt lat="51.938072000" lon="7.585918000">
        <ele>56.7</ele>
        <time>2017-04-29T10:08:43</time>
        <extensions><speed>1.40</speed></extensions>
      </trkpt>
      <trkpt lat="51.938084000" lon="7.585914000">
        <ele>56.6</ele>
        <time>2017-04-29T10:08:44</time>
        <extensions><speed>1.40</speed></extensions>
      </trkpt>
      <trkpt lat="51.938099000" lon="7.585910000">
        <ele>56.6</ele>
        <time>2017-04-29T10:08:45</time>
        <extensions><speed>1.43</speed></extensions>
      </trkpt>
      <trkpt lat="51.938114000" lon="7.585907000">
        <ele>56.6</ele>
        <time>2017-04-29T10:08:46</time>
        <extensions><speed>1.42</speed></extensions>
      </trkpt>
      <trkpt lat="51.938129000" lon="7.585902000">
        <ele>56.5</ele>
        <time>2017-04-29T10:08:47</time>
        <extensions><speed>1.43</speed></extensions>
      </trkpt>
      <trkpt lat="51.938137000" lon="7.585896000">
        <ele>56.5</ele>
        <time>2017-04-29T10:08:48</time>
        <extensions><speed>1.42</speed></extensions>
      </trkpt>
      <trkpt lat="51.938148000" lon="7.585892000">
        <ele>56.5</ele>
        <time>2017-04-29T10:08:49</time>
        <extensions><speed>1.40</speed></extensions>
      </trkpt>
      <trkpt lat="51.938164000" lon="7.585888000">
        <ele>56.5</ele>
        <time>2017-04-29T10:08:50</time>
        <extensions><speed>1.35</speed></extensions>
      </trkpt>
      <trkpt lat="51.938175000" lon="7.585885000">
        <ele>56.5</ele>
        <time>2017-04-29T10:08:51</time>
        <extensions><speed>1.36</speed></extensions>
      </trkpt>
      <trkpt lat="51.938190000" lon="7.585883000">
        <ele>56.4</ele>
        <time>2017-04-29T10:08:52</time>
        <extensions><speed>1.35</speed></extensions>
      </trkpt>
      <trkpt lat="51.938198000" lon="7.585883000">
        <ele>56.4</ele>
        <time>2017-04-29T10:08:53</time>
        <extensions><speed>1.35</speed></extensions>
      </trkpt>
      <trkpt lat="51.938210000" lon="7.585885000">
        <ele>56.4</ele>
        <time>2017-04-29T10:08:54</time>
        <extensions><speed>1.35</speed></extensions>
      </trkpt>
      <trkpt lat="51.938225000" lon="7.585885000">
        <ele>56.3</ele>
        <time>2017-04-29T10:08:55</time>
        <extensions><speed>1.33</speed></extensions>
      </trkpt>
      <trkpt lat="51.938232000" lon="7.585885000">
        <ele>56.3</ele>
        <time>2017-04-29T10:08:56</time>
        <extensions><speed>1.29</speed></extensions>
      </trkpt>
      <trkpt lat="51.938244000" lon="7.585881000">
        <ele>56.3</ele>
        <time>2017-04-29T10:08:57</time>
        <extensions><speed>1.26</speed></extensions>
      </trkpt>
      <trkpt lat="51.938255000" lon="7.585880000">
        <ele>56.3</ele>
        <time>2017-04-29T10:08:58</time>
        <extensions><speed>1.23</speed></extensions>
      </trkpt>
      <trkpt lat="51.938263000" lon="7.585879000">
        <ele>56.3</ele>
        <time>2017-04-29T10:08:59</time>
        <extensions><speed>1.17</speed></extensions>
      </trkpt>
      <trkpt lat="51.938274000" lon="7.585876000">
        <ele>56.2</ele>
        <time>2017-04-29T10:09:00</time>
        <extensions><speed>1.15</speed></extensions>
      </trkpt>
      <trkpt lat="51.938286000" lon="7.585876000">
        <ele>56.2</ele>
        <time>2017-04-29T10:09:01</time>
        <extensions><speed>1.12</speed></extensions>
      </trkpt>
      <trkpt lat="51.938293000" lon="7.585876000">
        <ele>56.2</ele>
        <time>2017-04-29T10:09:02</time>
        <extensions><speed>1.12</speed></extensions>
      </trkpt>
      <trkpt lat="51.938305000" lon="7.585876000">
        <ele>56.2</ele>
        <time>2017-04-29T10:09:03</time>
        <extensions><speed>1.12</speed></extensions>
      </trkpt>
      <trkpt lat="51.938316000" lon="7.585879000">
        <ele>56.2</ele>
        <time>2017-04-29T10:09:04</time>
        <extensions><speed>1.12</speed></extensions>
      </trkpt>
      <trkpt lat="51.938324000" lon="7.585879000">
        <ele>56.1</ele>
        <time>2017-04-29T10:09:05</time>
        <extensions><speed>1.07</speed></extensions>
      </trkpt>
      <trkpt lat="51.938328000" lon="7.585881000">
        <ele>56.1</ele>
        <time>2017-04-29T10:09:06</time>
        <extensions><speed>0.94</speed></extensions>
      </trkpt>
      <trkpt lat="51.938335000" lon="7.585885000">
        <ele>56.1</ele>
        <time>2017-04-29T10:09:07</time>
        <extensions><speed>0.90</speed></extensions>
      </trkpt>
      <trkpt lat="51.938347000" lon="7.585890000">
        <ele>56.1</ele>
        <time>2017-04-29T10:09:08</time>
        <extensions><speed>0.88</speed></extensions>
      </trkpt>
      <trkpt lat="51.938354000" lon="7.585895000">
        <ele>56.1</ele>
        <time>2017-04-29T10:09:09</time>
        <extensions><speed>0.81</speed></extensions>
      </trkpt>
      <trkpt lat="51.938465000" lon="7.585860000">
        <ele>55.9</ele>
        <time>2017-04-29T10:10:26</time>
      </trkpt>
      <trkpt lat="51.938480000" lon="7.585858000">
        <ele>55.9</ele>
        <time>2017-04-29T10:10:28</time>
        <extensions><speed>1.42</speed></extensions>
      </trkpt>
      <trkpt lat="51.938492000" lon="7.585858000">
        <ele>55.9</ele>
        <time>2017-04-29T10:10:29</time>
        <extensions><speed>1.42</speed></extensions>
      </trkpt>
      <trkpt lat="51.938507000" lon="7.585856000">
        <ele>55.9</ele>
        <time>2017-04-29T10:10:30</time>
        <extensions><speed>1.42</speed></extensions>
      </trkpt>
      <trkpt lat="51.938522000" lon="7.585856000">
        <ele>55.9</ele>
        <time>2017-04-29T10:10:31</time>
        <extensions><speed>1.44</speed></extensions>
      </trkpt>
      <trkpt lat="51.938534000" lon="7.585860000">
        <ele>55.8</ele>
        <time>2017-04-29T10:10:32</time>
        <extensions><speed>1.44</speed></extensions>
      </trkpt>
      <trkpt lat="51.938553000" lon="7.585862000">
        <ele>55.8</ele>
        <time>2017-04-29T10:10:33</time>
        <extensions><speed>1.43</speed></extensions>
      </trkpt>
      <trkpt lat="51.938560000" lon="7.585862000">
        <ele>55.8</ele>
        <time>2017-04-29T10:10:34</time>
        <extensions><speed>1.45</speed></extensions>
      </trkpt>
      <trkpt lat="51.938572000" lon="7.585865000">
        <ele>55.8</ele>
        <time>2017-04-29T10:10:35</time>
        <extensions><speed>1.43</speed></extensions>
      </trkpt>
      <trkpt lat="51.938587000" lon="7.585867000">
        <ele>55.8</ele>
        <time>2017-04-29T10:10:36</time>
        <extensions><speed>1.41</speed></extensions>
      </trkpt>
      <trkpt lat="51.938599000" lon="7.585868000">
        <ele>55.8</ele>
        <time>2017-04-29T10:10:37</time>
        <extensions><speed>1.34</speed></extensions>
      </trkpt>
      <trkpt lat="51.938614000" lon="7.585872000">
        <ele>55.7</ele>
        <time>2017-04-29T10:10:38</time>
        <extensions><speed>1.41</speed></extensions>
      </trkpt>
      <trkpt lat="51.938625000" lon="7.585874000">
        <ele>55.7</ele>
        <time>2017-04-29T10:10:39</time>
        <extensions><speed>1.36</speed></extensions>
      </trkpt>
      <trkpt lat="51.938637000" lon="7.585876000">
        <ele>55.7</ele>
        <time>2017-04-29T10:10:40</time>
        <extensions><speed>1.40</speed></extensions>
      </trkpt>
      <trkpt lat="51.938652000" lon="7.585877000">
        <ele>55.7</ele>
        <time>2017-04-29T10:10:41</time>
        <extensions><speed>1.40</speed></extensions>
      </trkpt>
      <trkpt lat="51.938663000" lon="7.585877000">
        <ele>55.7</ele>
        <time>2017-04-29T10:10:42</time>
        <extensions><speed>1.43</speed></extensions>
      </trkpt>
      <trkpt lat="51.938679000" lon="7.585876000">
        <ele>55.7</ele>
        <time>2017-04-29T10:10:43</time>
        <extensions><speed>1.43</speed></extensions>
      </trkpt>
      <trkpt lat="51.938690000" lon="7.585876000">
        <ele>55.8</ele>
        <time>2017-04-29T10:10:44</time>
        <extensions><speed>1.45</speed></extensions>
      </trkpt>
      <trkpt lat="51.938705000" lon="7.585877000">
        <ele>55.8</ele>
        <time>2017-04-29T10:10:45</time>
        <extensions><speed>1.47</speed></extensions>
      </trkpt>
      <trkpt lat="51.938717000" lon="7.585881000">
        <ele>55.8</ele>
        <time>2017-04-29T10:10:46</time>
        <extensions><speed>1.50</speed></extensions>
      </trkpt>
      <trkpt lat="51.938732000" lon="7.585883000">
        <ele>55.8</ele>
        <time>2017-04-29T10:10:47</time>
        <extensions><speed>1.52</speed></extensions>
      </trkpt>
      <trkpt lat="51.938751000" lon="7.585883000">
        <ele>55.8</ele>
        <time>2017-04-29T10:10:48</time>
        <extensions><speed>1.53</speed></extensions>
      </trkpt>
      <trkpt lat="51.938763000" lon="7.585885000">
        <ele>55.8</ele>
        <time>2017-04-29T10:10:49</time>
        <extensions><speed>1.52</speed></extensions>
      </trkpt>
      <trkpt lat="51.938774000" lon="7.585885000">
        <ele>55.8</ele>
        <time>2017-04-29T10:10:50</time>
        <extensions><speed>1.51</speed></extensions>
      </trkpt>
      <trkpt lat="51.938789000" lon="7.585886000">
        <ele>55.8</ele>
        <time>2017-04-29T10:10:51</time>
        <extensions><speed>1.51</speed></extensions>
      </trkpt>
      <trkpt lat="51.938805000" lon="7.585888000">
        <ele>55.8</ele>
        <time>2017-04-29T10:10:52</time>
        <extensions><speed>1.52</speed></extensions>
      </trkpt>
      <trkpt lat="51.938816000" lon="7.585890000">
        <ele>55.8</ele>
        <time>2017-04-29T10:10:53</time>
        <extensions><speed>1.50</speed></extensions>
      </trkpt>
      <trkpt lat="51.938831000" lon="7.585890000">
        <ele>55.8</ele>
        <time>2017-04-29T10:10:54</time>
        <extensions><speed>1.50</speed></extensions>
      </trkpt>
      <trkpt lat="51.938847000" lon="7.585888000">
        <ele>55.8</ele>
        <time>2017-04-29T10:10:55</time>
        <extensions><speed>1.53</speed></extensions>
      </trkpt>
      <trkpt lat="51.938862000" lon="7.585886000">
        <ele>55.8</ele>
        <time>2017-04-29T10:10:56</time>
        <extensions><speed>1.52</speed></extensions>
      </trkpt>
      <trkpt lat="51.938881000" lon="7.585885000">
        <ele>55.8</ele>
        <time>2017-04-29T10:10:57</time>
        <extensions><speed>1.52</speed></extensions>
      </trkpt>
      <trkpt lat="51.938889000" lon="7.585883000">
        <ele>55.8</ele>
        <time>2017-04-29T10:10:58</time>
        <extensions><speed>1.52</speed></extensions>
      </trkpt>
      <trkpt lat="51.938904000" lon="7.585880000">
        <ele>55.8</ele>
        <time>2017-04-29T10:10:59</time>
        <extensions><speed>1.48</speed></extensions>
      </trkpt>
      <trkpt lat="51.938915000" lon="7.585877000">
        <ele>55.9</ele>
        <time>2017-04-29T10:11:00</time>
        <extensions><speed>1.41</speed></extensions>
      </trkpt>
      <trkpt lat="51.938927000" lon="7.585876000">
        <ele>55.9</ele>
        <time>2017-04-29T10:11:01</time>
        <extensions><speed>1.37</speed></extensions>
      </trkpt>
      <trkpt lat="51.938942000" lon="7.585874000">
        <ele>55.9</ele>
        <time>2017-04-29T10:11:02</time>
        <extensions><speed>1.35</speed></extensions>
      </trkpt>
      <trkpt lat="51.938950000" lon="7.585874000">
        <ele>55.9</ele>
        <time>2017-04-29T10:11:03</time>
        <extensions><speed>1.35</speed></extensions>
      </trkpt>
      <trkpt lat="51.938957000" lon="7.585865000">
        <ele>55.9</ele>
        <time>2017-04-29T10:11:04</time>
        <extensions><speed>1.16</speed></extensions>
      </trkpt>
      <trkpt lat="51.938965000" lon="7.585860000">
        <ele>55.9</ele>
        <time>2017-04-29T10:11:05</time>
        <extensions><speed>1.13</speed></extensions>
      </trkpt>
      <trkpt lat="51.938980000" lon="7.585860000">
        <ele>55.9</ele>
        <time>2017-04-29T10:11:06</time>
        <extensions><speed>1.13</speed></extensions>
      </trkpt>
      <trkpt lat="51.938992000" lon="7.585858000">
        <ele>55.9</ele>
        <time>2017-04-29T10:11:07</time>
        <extensions><speed>1.15</speed></extensions>
      </trkpt>
      <trkpt lat="51.939007000" lon="7.585853000">
        <ele>55.9</ele>
        <time>2017-04-29T10:11:08</time>
        <extensions><speed>1.30</speed></extensions>
      </trkpt>
      <trkpt lat="51.939014000" lon="7.585853000">
        <ele>55.9</ele>
        <time>2017-04-29T10:11:09</time>
        <extensions><speed>1.30</speed></extensions>
      </trkpt>
      <trkpt lat="51.939030000" lon="7.585855000">
        <ele>55.9</ele>
        <time>2017-04-29T10:11:10</time>
        <extensions><speed>1.35</speed></extensions>
      </trkpt>
      <trkpt lat="51.939045000" lon="7.585853000">
        <ele>55.9</ele>
        <time>2017-04-29T10:11:11</time>
        <extensions><speed>1.34</speed></extensions>
      </trkpt>
      <trkpt lat="51.939056000" lon="7.585853000">
        <ele>55.9</ele>
        <time>2017-04-29T10:11:12</time>
        <extensions><speed>1.35</speed></extensions>
      </trkpt>
      <trkpt lat="51.939072000" lon="7.585851000">
        <ele>55.9</ele>
        <time>2017-04-29T10:11:13</time>
        <extensions><speed>1.41</speed></extensions>
      </trkpt>
      <trkpt lat="51.939079000" lon="7.585850000">
        <ele>55.9</ele>
        <time>2017-04-29T10:11:14</time>
        <extensions><speed>1.41</speed></extensions>
      </trkpt>
      <trkpt lat="51.939095000" lon="7.585848000">
        <ele>55.9</ele>
        <time>2017-04-29T10:11:15</time>
        <extensions><speed>1.42</speed></extensions>
      </trkpt>
      <trkpt lat="51.939110000" lon="7.585846000">
        <ele>55.9</ele>
        <time>2017-04-29T10:11:16</time>
        <extensions><speed>1.41</speed></extensions>
      </trkpt>
      <trkpt lat="51.939121000" lon="7.585845000">
        <ele>55.9</ele>
        <time>2017-04-29T10:11:17</time>
        <extensions><speed>1.41</speed></extensions>
      </trkpt>
      <trkpt lat="51.939137000" lon="7.585845000">
        <ele>55.9</ele>
        <time>2017-04-29T10:11:18</time>
        <extensions><speed>1.43</speed></extensions>
      </trkpt>
      <trkpt lat="51.939144000" lon="7.585846000">
        <ele>55.9</ele>
        <time>2017-04-29T10:11:19</time>
        <extensions><speed>1.43</speed></extensions>
      </trkpt>
      <trkpt lat="51.939159000" lon="7.585846000">
        <ele>55.9</ele>
        <time>2017-04-29T10:11:20</time>
        <extensions><speed>1.37</speed></extensions>
      </trkpt>
      <trkpt lat="51.939171000" lon="7.585846000">
        <ele>55.9</ele>
        <time>2017-04-29T10:11:21</time>
        <extensions><speed>1.39</speed></extensions>
      </trkpt>
      <trkpt lat="51.939182000" lon="7.585848000">
        <ele>55.9</ele>
        <time>2017-04-29T10:11:22</time>
        <extensions><speed>1.39</speed></extensions>
      </trkpt>
      <trkpt lat="51.939194000" lon="7.585851000">
        <ele>55.9</ele>
        <time>2017-04-29T10:11:23</time>
        <extensions><speed>1.39</speed></extensions>
      </trkpt>
      <trkpt lat="51.939209000" lon="7.585855000">
        <ele>56.0</ele>
        <time>2017-04-29T10:11:24</time>
        <extensions><speed>1.47</speed></extensions>
      </trkpt>
      <trkpt lat="51.939224000" lon="7.585860000">
        <ele>56.0</ele>
        <time>2017-04-29T10:11:25</time>
        <extensions><speed>1.50</speed></extensions>
      </trkpt>
      <trkpt lat="51.939240000" lon="7.585865000">
        <ele>56.0</ele>
        <time>2017-04-29T10:11:26</time>
        <extensions><speed>1.56</speed></extensions>
      </trkpt>
      <trkpt lat="51.939255000" lon="7.585872000">
        <ele>56.0</ele>
        <time>2017-04-29T10:11:27</time>
        <extensions><speed>1.61</speed></extensions>
      </trkpt>
      <trkpt lat="51.939270000" lon="7.585877000">
        <ele>56.0</ele>
        <time>2017-04-29T10:11:28</time>
        <extensions><speed>1.64</speed></extensions>
      </trkpt>
      <trkpt lat="51.939281000" lon="7.585885000">
        <ele>56.0</ele>
        <time>2017-04-29T10:11:29</time>
        <extensions><speed>1.64</speed></extensions>
      </trkpt>
      <trkpt lat="51.939293000" lon="7.585893000">
        <ele>56.0</ele>
        <time>2017-04-29T10:11:30</time>
        <extensions><speed>1.60</speed></extensions>
      </trkpt>
      <trkpt lat="51.939304000" lon="7.585898000">
        <ele>56.0</ele>
        <time>2017-04-29T10:11:31</time>
        <extensions><speed>1.53</speed></extensions>
      </trkpt>
      <trkpt lat="51.939316000" lon="7.585904000">
        <ele>56.0</ele>
        <time>2017-04-29T10:11:32</time>
        <extensions><speed>1.44</speed></extensions>
      </trkpt>
      <trkpt lat="51.939327000" lon="7.585904000">
        <ele>56.0</ele>
        <time>2017-04-29T10:11:33</time>
        <extensions><speed>1.32</speed></extensions>
      </trkpt>
      <trkpt lat="51.939335000" lon="7.585907000">
        <ele>56.0</ele>
        <time>2017-04-29T10:11:34</time>
        <extensions><speed>1.20</speed></extensions>
      </trkpt>
      <trkpt lat="51.939339000" lon="7.585912000">
        <ele>56.1</ele>
        <time>2017-04-29T10:11:35</time>
        <extensions><speed>1.11</speed></extensions>
      </trkpt>
      <trkpt lat="51.939354000" lon="7.585915000">
        <ele>56.1</ele>
        <time>2017-04-29T10:11:36</time>
        <extensions><speed>1.11</speed></extensions>
      </trkpt>
      <trkpt lat="51.939369000" lon="7.585914000">
        <ele>56.1</ele>
        <time>2017-04-29T10:11:37</time>
        <extensions><speed>1.26</speed></extensions>
      </trkpt>
      <trkpt lat="51.939381000" lon="7.585914000">
        <ele>56.1</ele>
        <time>2017-04-29T10:11:38</time>
        <extensions><speed>1.38</speed></extensions>
      </trkpt>
      <trkpt lat="51.939396000" lon="7.585915000">
        <ele>56.1</ele>
        <time>2017-04-29T10:11:39</time>
        <extensions><speed>1.45</speed></extensions>
      </trkpt>
      <trkpt lat="51.939404000" lon="7.585915000">
        <ele>56.1</ele>
        <time>2017-04-29T10:11:40</time>
        <extensions><speed>1.45</speed></extensions>
      </trkpt>
      <trkpt lat="51.939415000" lon="7.585914000">
        <ele>56.1</ele>
        <time>2017-04-29T10:11:41</time>
        <extensions><speed>1.36</speed></extensions>
      </trkpt>
      <trkpt lat="51.939426000" lon="7.585902000">
        <ele>56.1</ele>
        <time>2017-04-29T10:11:42</time>
        <extensions><speed>1.28</speed></extensions>
      </trkpt>
      <trkpt lat="51.939438000" lon="7.585892000">
        <ele>56.2</ele>
        <time>2017-04-29T10:11:43</time>
        <extensions><speed>1.28</speed></extensions>
      </trkpt>
      <trkpt lat="51.939449000" lon="7.585886000">
        <ele>56.2</ele>
        <time>2017-04-29T10:11:44</time>
        <extensions><speed>1.25</speed></extensions>
      </trkpt>
      <trkpt lat="51.939465000" lon="7.585881000">
        <ele>56.2</ele>
        <time>2017-04-29T10:11:45</time>
        <extensions><speed>1.20</speed></extensions>
      </trkpt>
      <trkpt lat="51.939468000" lon="7.585879000">
        <ele>56.2</ele>
        <time>2017-04-29T10:11:46</time>
        <extensions><speed>1.20</speed></extensions>
      </trkpt>
      <trkpt lat="51.939480000" lon="7.585874000">
        <ele>56.2</ele>
        <time>2017-04-29T10:11:47</time>
        <extensions><speed>1.06</speed></extensions>
      </trkpt>
      <trkpt lat="51.939487000" lon="7.585868000">
        <ele>56.2</ele>
        <time>2017-04-29T10:11:48</time>
        <extensions><speed>0.97</speed></extensions>
      </trkpt>
      <trkpt lat="51.939499000" lon="7.585860000">
        <ele>56.2</ele>
        <time>2017-04-29T10:11:49</time>
        <extensions><speed>0.85</speed></extensions>
      </trkpt>
      <trkpt lat="51.939499000" lon="7.585856000">
        <ele>56.3</ele>
        <time>2017-04-29T10:11:52</time>
      </trkpt>
      <trkpt lat="51.939602000" lon="7.585793000">
        <ele>56.3</ele>
        <time>2017-04-29T10:13:38</time>
      </trkpt>
      <trkpt lat="51.939617000" lon="7.585792000">
        <ele>56.3</ele>
        <time>2017-04-29T10:13:40</time>
        <extensions><speed>1.31</speed></extensions>
      </trkpt>
      <trkpt lat="51.939629000" lon="7.585788000">
        <ele>56.3</ele>
        <time>2017-04-29T10:13:41</time>
        <extensions><speed>1.18</speed></extensions>
      </trkpt>
      <trkpt lat="51.939636000" lon="7.585785000">
        <ele>56.3</ele>
        <time>2017-04-29T10:13:42</time>
        <extensions><speed>1.17</speed></extensions>
      </trkpt>
      <trkpt lat="51.939648000" lon="7.585782000">
        <ele>56.3</ele>
        <time>2017-04-29T10:13:43</time>
        <extensions><speed>1.17</speed></extensions>
      </trkpt>
      <trkpt lat="51.939659000" lon="7.585778000">
        <ele>56.3</ele>
        <time>2017-04-29T10:13:44</time>
        <extensions><speed>1.17</speed></extensions>
      </trkpt>
      <trkpt lat="51.939671000" lon="7.585774000">
        <ele>56.3</ele>
        <time>2017-04-29T10:13:45</time>
        <extensions><speed>1.17</speed></extensions>
      </trkpt>
      <trkpt lat="51.939678000" lon="7.585772000">
        <ele>56.3</ele>
        <time>2017-04-29T10:13:46</time>
        <extensions><speed>1.15</speed></extensions>
      </trkpt>
      <trkpt lat="51.939686000" lon="7.585770000">
        <ele>56.3</ele>
        <time>2017-04-29T10:13:47</time>
        <extensions><speed>1.12</speed></extensions>
      </trkpt>
      <trkpt lat="51.939697000" lon="7.585770000">
        <ele>56.4</ele>
        <time>2017-04-29T10:13:48</time>
        <extensions><speed>0.99</speed></extensions>
      </trkpt>
      <trkpt lat="51.939705000" lon="7.585767000">
        <ele>56.4</ele>
        <time>2017-04-29T10:13:49</time>
        <extensions><speed>1.00</speed></extensions>
      </trkpt>
      <trkpt lat="51.939716000" lon="7.585762000">
        <ele>56.4</ele>
        <time>2017-04-29T10:13:50</time>
        <extensions><speed>1.03</speed></extensions>
      </trkpt>
      <trkpt lat="51.939728000" lon="7.585762000">
        <ele>56.4</ele>
        <time>2017-04-29T10:13:51</time>
        <extensions><speed>1.21</speed></extensions>
      </trkpt>
      <trkpt lat="51.939743000" lon="7.585765000">
        <ele>56.4</ele>
        <time>2017-04-29T10:13:52</time>
        <extensions><speed>1.38</speed></extensions>
      </trkpt>
      <trkpt lat="51.939754000" lon="7.585769000">
        <ele>56.4</ele>
        <time>2017-04-29T10:13:53</time>
        <extensions><speed>1.38</speed></extensions>
      </trkpt>
      <trkpt lat="51.939762000" lon="7.585772000">
        <ele>56.4</ele>
        <time>2017-04-29T10:13:54</time>
        <extensions><speed>1.32</speed></extensions>
      </trkpt>
      <trkpt lat="51.939766000" lon="7.585776000">
        <ele>56.4</ele>
        <time>2017-04-29T10:13:55</time>
        <extensions><speed>1.23</speed></extensions>
      </trkpt>
      <trkpt lat="51.939789000" lon="7.585783000">
        <ele>56.4</ele>
        <time>2017-04-29T10:13:56</time>
        <extensions><speed>1.23</speed></extensions>
      </trkpt>
      <trkpt lat="51.939800000" lon="7.585790000">
        <ele>56.4</ele>
        <time>2017-04-29T10:13:57</time>
        <extensions><speed>1.25</speed></extensions>
      </trkpt>
      <trkpt lat="51.939812000" lon="7.585795000">
        <ele>56.4</ele>
        <time>2017-04-29T10:13:58</time>
        <extensions><speed>1.19</speed></extensions>
      </trkpt>
      <trkpt lat="51.939827000" lon="7.585798000">
        <ele>56.4</ele>
        <time>2017-04-29T10:13:59</time>
        <extensions><speed>1.39</speed></extensions>
      </trkpt>
      <trkpt lat="51.939842000" lon="7.585802000">
        <ele>56.4</ele>
        <time>2017-04-29T10:14:00</time>
        <extensions><speed>1.44</speed></extensions>
      </trkpt>
      <trkpt lat="51.939857000" lon="7.585810000">
        <ele>56.5</ele>
        <time>2017-04-29T10:14:01</time>
        <extensions><speed>1.38</speed></extensions>
      </trkpt>
      <trkpt lat="51.939873000" lon="7.585825000">
        <ele>56.5</ele>
        <time>2017-04-29T10:14:02</time>
        <extensions><speed>1.29</speed></extensions>
      </trkpt>
      <trkpt lat="51.939892000" lon="7.585839000">
        <ele>56.5</ele>
        <time>2017-04-29T10:14:03</time>
        <extensions><speed>1.41</speed></extensions>
      </trkpt>
      <trkpt lat="51.939907000" lon="7.585855000">
        <ele>56.5</ele>
        <time>2017-04-29T10:14:04</time>
        <extensions><speed>1.36</speed></extensions>
      </trkpt>
      <trkpt lat="51.939922000" lon="7.585872000">
        <ele>56.5</ele>
        <time>2017-04-29T10:14:05</time>
        <extensions><speed>1.43</speed></extensions>
      </trkpt>
      <trkpt lat="51.939934000" lon="7.585888000">
        <ele>56.6</ele>
        <time>2017-04-29T10:14:06</time>
        <extensions><speed>1.40</speed></extensions>
      </trkpt>
      <trkpt lat="51.939945000" lon="7.585902000">
        <ele>56.6</ele>
        <time>2017-04-29T10:14:07</time>
        <extensions><speed>1.40</speed></extensions>
      </trkpt>
      <trkpt lat="51.939957000" lon="7.585914000">
        <ele>56.6</ele>
        <time>2017-04-29T10:14:08</time>
        <extensions><speed>1.40</speed></extensions>
      </trkpt>
      <trkpt lat="51.939968000" lon="7.585928000">
        <ele>56.7</ele>
        <time>2017-04-29T10:14:09</time>
        <extensions><speed>1.38</speed></extensions>
      </trkpt>
      <trkpt lat="51.939983000" lon="7.585944000">
        <ele>56.7</ele>
        <time>2017-04-29T10:14:10</time>
        <extensions><speed>1.39</speed></extensions>
      </trkpt>
      <trkpt lat="51.939999000" lon="7.585957000">
        <ele>56.7</ele>
        <time>2017-04-29T10:14:11</time>
        <extensions><speed>1.44</speed></extensions>
      </trkpt>
      <trkpt lat="51.940014000" lon="7.585967000">
        <ele>56.8</ele>
        <time>2017-04-29T10:14:12</time>
        <extensions><speed>1.44</speed></extensions>
      </trkpt>
      <trkpt lat="51.940025000" lon="7.585975000">
        <ele>56.8</ele>
        <time>2017-04-29T10:14:13</time>
        <extensions><speed>1.46</speed></extensions>
      </trkpt>
      <trkpt lat="51.940041000" lon="7.585980000">
        <ele>56.8</ele>
        <time>2017-04-29T10:14:14</time>
        <extensions><speed>1.47</speed></extensions>
      </trkpt>
      <trkpt lat="51.940056000" lon="7.585990000">
        <ele>56.8</ele>
        <time>2017-04-29T10:14:15</time>
        <extensions><speed>1.48</speed></extensions>
      </trkpt>
      <trkpt lat="51.940067000" lon="7.586000000">
        <ele>56.9</ele>
        <time>2017-04-29T10:14:16</time>
        <extensions><speed>1.43</speed></extensions>
      </trkpt>
      <trkpt lat="51.940083000" lon="7.586007000">
        <ele>56.9</ele>
        <time>2017-04-29T10:14:17</time>
        <extensions><speed>1.43</speed></extensions>
      </trkpt>
      <trkpt lat="51.940094000" lon="7.586014000">
        <ele>56.9</ele>
        <time>2017-04-29T10:14:18</time>
        <extensions><speed>1.39</speed></extensions>
      </trkpt>
      <trkpt lat="51.940109000" lon="7.586023000">
        <ele>56.9</ele>
        <time>2017-04-29T10:14:19</time>
        <extensions><speed>1.42</speed></extensions>
      </trkpt>
      <trkpt lat="51.940121000" lon="7.586028000">
        <ele>56.9</ele>
        <time>2017-04-29T10:14:20</time>
        <extensions><speed>1.42</speed></extensions>
      </trkpt>
      <trkpt lat="51.940136000" lon="7.586031000">
        <ele>56.9</ele>
        <time>2017-04-29T10:14:21</time>
        <extensions><speed>1.40</speed></extensions>
      </trkpt>
      <trkpt lat="51.940147000" lon="7.586033000">
        <ele>56.9</ele>
        <time>2017-04-29T10:14:22</time>
        <extensions><speed>1.43</speed></extensions>
      </trkpt>
      <trkpt lat="51.940159000" lon="7.586039000">
        <ele>56.9</ele>
        <time>2017-04-29T10:14:23</time>
        <extensions><speed>1.44</speed></extensions>
      </trkpt>
      <trkpt lat="51.940174000" lon="7.586042000">
        <ele>57.0</ele>
        <time>2017-04-29T10:14:24</time>
        <extensions><speed>1.38</speed></extensions>
      </trkpt>
      <trkpt lat="51.940186000" lon="7.586043000">
        <ele>57.0</ele>
        <time>2017-04-29T10:14:25</time>
        <extensions><speed>1.34</speed></extensions>
      </trkpt>
      <trkpt lat="51.940201000" lon="7.586047000">
        <ele>57.0</ele>
        <time>2017-04-29T10:14:26</time>
        <extensions><speed>1.36</speed></extensions>
      </trkpt>
      <trkpt lat="51.940212000" lon="7.586051000">
        <ele>57.0</ele>
        <time>2017-04-29T10:14:27</time>
        <extensions><speed>1.37</speed></extensions>
      </trkpt>
      <trkpt lat="51.940224000" lon="7.586052000">
        <ele>57.0</ele>
        <time>2017-04-29T10:14:28</time>
        <extensions><speed>1.33</speed></extensions>
      </trkpt>
      <trkpt lat="51.940239000" lon="7.586055000">
        <ele>57.0</ele>
        <time>2017-04-29T10:14:29</time>
        <extensions><speed>1.40</speed></extensions>
      </trkpt>
      <trkpt lat="51.940254000" lon="7.586060000">
        <ele>57.0</ele>
        <time>2017-04-29T10:14:30</time>
        <extensions><speed>1.46</speed></extensions>
      </trkpt>
      <trkpt lat="51.940269000" lon="7.586063000">
        <ele>57.0</ele>
        <time>2017-04-29T10:14:31</time>
        <extensions><speed>1.49</speed></extensions>
      </trkpt>
      <trkpt lat="51.940285000" lon="7.586067000">
        <ele>57.0</ele>
        <time>2017-04-29T10:14:32</time>
        <extensions><speed>1.50</speed></extensions>
      </trkpt>
      <trkpt lat="51.940300000" lon="7.586075000">
        <ele>57.0</ele>
        <time>2017-04-29T10:14:33</time>
        <extensions><speed>1.51</speed></extensions>
      </trkpt>
      <trkpt lat="51.940315000" lon="7.586083000">
        <ele>57.0</ele>
        <time>2017-04-29T10:14:34</time>
        <extensions><speed>1.48</speed></extensions>
      </trkpt>
      <trkpt lat="51.940323000" lon="7.586095000">
        <ele>57.0</ele>
        <time>2017-04-29T10:14:35</time>
        <extensions><speed>1.47</speed></extensions>
      </trkpt>
      <trkpt lat="51.940334000" lon="7.586113000">
        <ele>57.0</ele>
        <time>2017-04-29T10:14:36</time>
        <extensions><speed>1.47</speed></extensions>
      </trkpt>
      <trkpt lat="51.940338000" lon="7.586130000">
        <ele>57.0</ele>
        <time>2017-04-29T10:14:37</time>
        <extensions><speed>1.45</speed></extensions>
      </trkpt>
      <trkpt lat="51.940338000" lon="7.586149000">
        <ele>57.0</ele>
        <time>2017-04-29T10:14:38</time>
        <extensions><speed>1.42</speed></extensions>
      </trkpt>
      <trkpt lat="51.940334000" lon="7.586168000">
        <ele>57.0</ele>
        <time>2017-04-29T10:14:39</time>
        <extensions><speed>1.42</speed></extensions>
      </trkpt>
      <trkpt lat="51.940334000" lon="7.586192000">
        <ele>57.0</ele>
        <time>2017-04-29T10:14:40</time>
        <extensions><speed>1.39</speed></extensions>
      </trkpt>
      <trkpt lat="51.940331000" lon="7.586215000">
        <ele>57.0</ele>
        <time>2017-04-29T10:14:41</time>
        <extensions><speed>1.39</speed></extensions>
      </trkpt>
      <trkpt lat="51.940327000" lon="7.586235000">
        <ele>57.0</ele>
        <time>2017-04-29T10:14:42</time>
        <extensions><speed>1.39</speed></extensions>
      </trkpt>
      <trkpt lat="51.940323000" lon="7.586257000">
        <ele>57.0</ele>
        <time>2017-04-29T10:14:43</time>
        <extensions><speed>1.41</speed></extensions>
      </trkpt>
      <trkpt lat="51.940319000" lon="7.586277000">
        <ele>57.0</ele>
        <time>2017-04-29T10:14:44</time>
        <extensions><speed>1.41</speed></extensions>
      </trkpt>
      <trkpt lat="51.940315000" lon="7.586297000">
        <ele>57.0</ele>
        <time>2017-04-29T10:14:45</time>
        <extensions><speed>1.46</speed></extensions>
      </trkpt>
      <trkpt lat="51.940311000" lon="7.586317000">
        <ele>57.0</ele>
        <time>2017-04-29T10:14:46</time>
        <extensions><speed>1.50</speed></extensions>
      </trkpt>
      <trkpt lat="51.940308000" lon="7.586336000">
        <ele>57.0</ele>
        <time>2017-04-29T10:14:47</time>
        <extensions><speed>1.51</speed></extensions>
      </trkpt>
      <trkpt lat="51.940304000" lon="7.586360000">
        <ele>57.0</ele>
        <time>2017-04-29T10:14:48</time>
        <extensions><speed>1.47</speed></extensions>
      </trkpt>
      <trkpt lat="51.940304000" lon="7.586383000">
        <ele>57.0</ele>
        <time>2017-04-29T10:14:49</time>
        <extensions><speed>1.49</speed></extensions>
      </trkpt>
      <trkpt lat="51.940300000" lon="7.586405000">
        <ele>57.0</ele>
        <time>2017-04-29T10:14:50</time>
        <extensions><speed>1.47</speed></extensions>
      </trkpt>
      <trkpt lat="51.940296000" lon="7.586423000">
        <ele>57.0</ele>
        <time>2017-04-29T10:14:51</time>
        <extensions><speed>1.45</speed></extensions>
      </trkpt>
      <trkpt lat="51.940292000" lon="7.586445000">
        <ele>57.0</ele>
        <time>2017-04-29T10:14:52</time>
        <extensions><speed>1.46</speed></extensions>
      </trkpt>
      <trkpt lat="51.940289000" lon="7.586467000">
        <ele>57.0</ele>
        <time>2017-04-29T10:14:53</time>
        <extensions><speed>1.47</speed></extensions>
      </trkpt>
      <trkpt lat="51.940285000" lon="7.586490000">
        <ele>57.0</ele>
        <time>2017-04-29T10:14:54</time>
        <extensions><speed>1.48</speed></extensions>
      </trkpt>
      <trkpt lat="51.940285000" lon="7.586510000">
        <ele>57.0</ele>
        <time>2017-04-29T10:14:55</time>
        <extensions><speed>1.51</speed></extensions>
      </trkpt>
      <trkpt lat="51.940285000" lon="7.586535000">
        <ele>57.0</ele>
        <time>2017-04-29T10:14:56</time>
        <extensions><speed>1.55</speed></extensions>
      </trkpt>
      <trkpt lat="51.940281000" lon="7.586558000">
        <ele>57.0</ele>
        <time>2017-04-29T10:14:57</time>
        <extensions><speed>1.54</speed></extensions>
      </trkpt>
      <trkpt lat="51.940273000" lon="7.586578000">
        <ele>57.0</ele>
        <time>2017-04-29T10:14:58</time>
        <extensions><speed>1.54</speed></extensions>
      </trkpt>
      <trkpt lat="51.940273000" lon="7.586600000">
        <ele>57.0</ele>
        <time>2017-04-29T10:14:59</time>
        <extensions><speed>1.52</speed></extensions>
      </trkpt>
      <trkpt lat="51.940273000" lon="7.586618000">
        <ele>57.0</ele>
        <time>2017-04-29T10:15:00</time>
        <extensions><speed>1.48</speed></extensions>
      </trkpt>
      <trkpt lat="51.940269000" lon="7.586640000">
        <ele>57.0</ele>
        <time>2017-04-29T10:15:01</time>
        <extensions><speed>1.48</speed></extensions>
      </trkpt>
      <trkpt lat="51.940262000" lon="7.586663000">
        <ele>57.0</ele>
        <time>2017-04-29T10:15:02</time>
        <extensions><speed>1.47</speed></extensions>
      </trkpt>
      <trkpt lat="51.940258000" lon="7.586683000">
        <ele>57.0</ele>
        <time>2017-04-29T10:15:03</time>
        <extensions><speed>1.45</speed></extensions>
      </trkpt>
      <trkpt lat="51.940258000" lon="7.586703000">
        <ele>57.0</ele>
        <time>2017-04-29T10:15:04</time>
        <extensions><speed>1.47</speed></extensions>
      </trkpt>
      <trkpt lat="51.940254000" lon="7.586723000">
        <ele>57.0</ele>
        <time>2017-04-29T10:15:05</time>
        <extensions><speed>1.45</speed></extensions>
      </trkpt>
      <trkpt lat="51.940250000" lon="7.586740000">
        <ele>57.0</ele>
        <time>2017-04-29T10:15:06</time>
        <extensions><speed>1.41</speed></extensions>
      </trkpt>
      <trkpt lat="51.940250000" lon="7.586760000">
        <ele>57.0</ele>
        <time>2017-04-29T10:15:07</time>
        <extensions><speed>1.40</speed></extensions>
      </trkpt>
      <trkpt lat="51.940250000" lon="7.586781000">
        <ele>57.0</ele>
        <time>2017-04-29T10:15:08</time>
        <extensions><speed>1.36</speed></extensions>
      </trkpt>
      <trkpt lat="51.940247000" lon="7.586800000">
        <ele>57.0</ele>
        <time>2017-04-29T10:15:09</time>
        <extensions><speed>1.36</speed></extensions>
      </trkpt>
      <trkpt lat="51.940243000" lon="7.586821000">
        <ele>57.0</ele>
        <time>2017-04-29T10:15:10</time>
        <extensions><speed>1.45</speed></extensions>
      </trkpt>
      <trkpt lat="51.940239000" lon="7.586843000">
        <ele>57.0</ele>
        <time>2017-04-29T10:15:11</time>
        <extensions><speed>1.46</speed></extensions>
      </trkpt>
      <trkpt lat="51.940235000" lon="7.586865000">
        <ele>57.0</ele>
        <time>2017-04-29T10:15:12</time>
        <extensions><speed>1.46</speed></extensions>
      </trkpt>
      <trkpt lat="51.940231000" lon="7.586887000">
        <ele>57.0</ele>
        <time>2017-04-29T10:15:13</time>
        <extensions><speed>1.52</speed></extensions>
      </trkpt>
      <trkpt lat="51.940228000" lon="7.586910000">
        <ele>57.0</ele>
        <time>2017-04-29T10:15:14</time>
        <extensions><speed>1.53</speed></extensions>
      </trkpt>
      <trkpt lat="51.940228000" lon="7.586930000">
        <ele>56.9</ele>
        <time>2017-04-29T10:15:15</time>
        <extensions><speed>1.49</speed></extensions>
      </trkpt>
      <trkpt lat="51.940224000" lon="7.586954000">
        <ele>56.9</ele>
        <time>2017-04-29T10:15:16</time>
        <extensions><speed>1.56</speed></extensions>
      </trkpt>
      <trkpt lat="51.940220000" lon="7.586973000">
        <ele>56.9</ele>
        <time>2017-04-29T10:15:17</time>
        <extensions><speed>1.56</speed></extensions>
      </trkpt>
      <trkpt lat="51.940220000" lon="7.586990000">
        <ele>56.9</ele>
        <time>2017-04-29T10:15:18</time>
        <extensions><speed>1.49</speed></extensions>
      </trkpt>
      <trkpt lat="51.940220000" lon="7.587003000">
        <ele>56.9</ele>
        <time>2017-04-29T10:15:19</time>
        <extensions><speed>1.37</speed></extensions>
      </trkpt>
      <trkpt lat="51.940216000" lon="7.587013000">
        <ele>56.9</ele>
        <time>2017-04-29T10:15:20</time>
        <extensions><speed>1.18</speed></extensions>
      </trkpt>
      <trkpt lat="51.940216000" lon="7.587024000">
        <ele>56.8</ele>
        <time>2017-04-29T10:15:21</time>
        <extensions><speed>0.96</speed></extensions>
      </trkpt>
      <trkpt lat="51.940216000" lon="7.587029000">
        <ele>56.8</ele>
        <time>2017-04-29T10:15:22</time>
        <extensions><speed>0.78</speed></extensions>
      </trkpt>
      <trkpt lat="51.940216000" lon="7.587037000">
        <ele>56.8</ele>
        <time>2017-04-29T10:15:23</time>
        <extensions><speed>0.66</speed></extensions>
      </trkpt>
      <trkpt lat="51.940216000" lon="7.587041000">
        <ele>56.8</ele>
        <time>2017-04-29T10:15:25</time>
      </trkpt>
      <trkpt lat="51.940208000" lon="7.587050000">
        <ele>56.8</ele>
        <time>2017-04-29T10:15:27</time>
        <extensions><speed>0.43</speed></extensions>
      </trkpt>
      <trkpt lat="51.940197000" lon="7.587063000">
        <ele>56.8</ele>
        <time>2017-04-29T10:15:28</time>
        <extensions><speed>0.72</speed></extensions>
      </trkpt>
      <trkpt lat="51.940189000" lon="7.587083000">
        <ele>56.8</ele>
        <time>2017-04-29T10:15:29</time>
        <extensions><speed>1.24</speed></extensions>
      </trkpt>
      <trkpt lat="51.940186000" lon="7.587103000">
        <ele>56.8</ele>
        <time>2017-04-29T10:15:30</time>
        <extensions><speed>1.30</speed></extensions>
      </trkpt>
      <trkpt lat="51.940182000" lon="7.587117000">
        <ele>56.7</ele>
        <time>2017-04-29T10:15:31</time>
        <extensions><speed>1.48</speed></extensions>
      </trkpt>
      <trkpt lat="51.940174000" lon="7.587131000">
        <ele>56.7</ele>
        <time>2017-04-29T10:15:32</time>
        <extensions><speed>1.44</speed></extensions>
      </trkpt>
      <trkpt lat="51.940166000" lon="7.587143000">
        <ele>56.7</ele>
        <time>2017-04-29T10:15:33</time>
        <extensions><speed>1.27</speed></extensions>
      </trkpt>
      <trkpt lat="51.940163000" lon="7.587155000">
        <ele>56.7</ele>
        <time>2017-04-29T10:15:34</time>
        <extensions><speed>1.12</speed></extensions>
      </trkpt>
      <trkpt lat="51.940155000" lon="7.587172000">
        <ele>56.7</ele>
        <time>2017-04-29T10:15:35</time>
        <extensions><speed>1.26</speed></extensions>
      </trkpt>
      <trkpt lat="51.940151000" lon="7.587192000">
        <ele>56.7</ele>
        <time>2017-04-29T10:15:36</time>
        <extensions><speed>1.24</speed></extensions>
      </trkpt>
      <trkpt lat="51.940151000" lon="7.587212000">
        <ele>56.7</ele>
        <time>2017-04-29T10:15:37</time>
        <extensions><speed>1.27</speed></extensions>
      </trkpt>
      <trkpt lat="51.940151000" lon="7.587232000">
        <ele>56.6</ele>
        <time>2017-04-29T10:15:38</time>
        <extensions><speed>1.34</speed></extensions>
      </trkpt>
      <trkpt lat="51.940147000" lon="7.587250000">
        <ele>56.6</ele>
        <time>2017-04-29T10:15:39</time>
        <extensions><speed>1.34</speed></extensions>
      </trkpt>
      <trkpt lat="51.940151000" lon="7.587265000">
        <ele>56.6</ele>
        <time>2017-04-29T10:15:40</time>
        <extensions><speed>1.29</speed></extensions>
      </trkpt>
      <trkpt lat="51.940151000" lon="7.587278000">
        <ele>56.6</ele>
        <time>2017-04-29T10:15:41</time>
        <extensions><speed>1.16</speed></extensions>
      </trkpt>
      <trkpt lat="51.940159000" lon="7.587288000">
        <ele>56.6</ele>
        <time>2017-04-29T10:15:42</time>
        <extensions><speed>1.01</speed></extensions>
      </trkpt>
      <trkpt lat="51.940170000" lon="7.587295000">
        <ele>56.5</ele>
        <time>2017-04-29T10:15:43</time>
        <extensions><speed>0.92</speed></extensions>
      </trkpt>
      <trkpt lat="51.940182000" lon="7.587300000">
        <ele>56.5</ele>
        <time>2017-04-29T10:15:44</time>
        <extensions><speed>0.92</speed></extensions>
      </trkpt>
      <trkpt lat="51.940193000" lon="7.587306000">
        <ele>56.5</ele>
        <time>2017-04-29T10:15:45</time>
        <extensions><speed>0.94</speed></extensions>
      </trkpt>
      <trkpt lat="51.940205000" lon="7.587315000">
        <ele>56.5</ele>
        <time>2017-04-29T10:15:46</time>
        <extensions><speed>1.04</speed></extensions>
      </trkpt>
      <trkpt lat="51.940216000" lon="7.587327000">
        <ele>56.5</ele>
        <time>2017-04-29T10:15:47</time>
        <extensions><speed>1.14</speed></extensions>
      </trkpt>
      <trkpt lat="51.940224000" lon="7.587337000">
        <ele>56.5</ele>
        <time>2017-04-29T10:15:48</time>
        <extensions><speed>1.17</speed></extensions>
      </trkpt>
      <trkpt lat="51.940235000" lon="7.587340000">
        <ele>56.5</ele>
        <time>2017-04-29T10:15:49</time>
        <extensions><speed>1.19</speed></extensions>
      </trkpt>
      <trkpt lat="51.940247000" lon="7.587341000">
        <ele>56.5</ele>
        <time>2017-04-29T10:15:50</time>
        <extensions><speed>1.19</speed></extensions>
      </trkpt>
      <trkpt lat="51.940250000" lon="7.587347000">
        <ele>56.5</ele>
        <time>2017-04-29T10:15:51</time>
        <extensions><speed>1.18</speed></extensions>
      </trkpt>
      <trkpt lat="51.940258000" lon="7.587365000">
        <ele>56.5</ele>
        <time>2017-04-29T10:15:52</time>
        <extensions><speed>1.18</speed></extensions>
      </trkpt>
      <trkpt lat="51.940266000" lon="7.587381000">
        <ele>56.5</ele>
        <time>2017-04-29T10:15:53</time>
        <extensions><speed>1.25</speed></extensions>
      </trkpt>
      <trkpt lat="51.940277000" lon="7.587397000">
        <ele>56.5</ele>
        <time>2017-04-29T10:15:54</time>
        <extensions><speed>1.30</speed></extensions>
      </trkpt>
      <trkpt lat="51.940285000" lon="7.587409000">
        <ele>56.5</ele>
        <time>2017-04-29T10:15:55</time>
        <extensions><speed>1.35</speed></extensions>
      </trkpt>
      <trkpt lat="51.940296000" lon="7.587416000">
        <ele>56.5</ele>
        <time>2017-04-29T10:15:56</time>
        <extensions><speed>1.35</speed></extensions>
      </trkpt>
      <trkpt lat="51.940304000" lon="7.587430000">
        <ele>56.5</ele>
        <time>2017-04-29T10:15:57</time>
        <extensions><speed>1.36</speed></extensions>
      </trkpt>
      <trkpt lat="51.940315000" lon="7.587442000">
        <ele>56.5</ele>
        <time>2017-04-29T10:15:58</time>
        <extensions><speed>1.36</speed></extensions>
      </trkpt>
      <trkpt lat="51.940323000" lon="7.587455000">
        <ele>56.5</ele>
        <time>2017-04-29T10:15:59</time>
        <extensions><speed>1.32</speed></extensions>
      </trkpt>
      <trkpt lat="51.940334000" lon="7.587467000">
        <ele>56.5</ele>
        <time>2017-04-29T10:16:00</time>
        <extensions><speed>1.26</speed></extensions>
      </trkpt>
      <trkpt lat="51.940346000" lon="7.587479000">
        <ele>56.5</ele>
        <time>2017-04-29T10:16:01</time>
        <extensions><speed>1.30</speed></extensions>
      </trkpt>
      <trkpt lat="51.940350000" lon="7.587492000">
        <ele>56.5</ele>
        <time>2017-04-29T10:16:02</time>
        <extensions><speed>1.33</speed></extensions>
      </trkpt>
      <trkpt lat="51.940361000" lon="7.587500000">
        <ele>56.6</ele>
        <time>2017-04-29T10:16:03</time>
        <extensions><speed>1.29</speed></extensions>
      </trkpt>
      <trkpt lat="51.940365000" lon="7.587509000">
        <ele>56.6</ele>
        <time>2017-04-29T10:16:04</time>
        <extensions><speed>1.26</speed></extensions>
      </trkpt>
      <trkpt lat="51.940376000" lon="7.587516000">
        <ele>56.6</ele>
        <time>2017-04-29T10:16:05</time>
        <extensions><speed>1.35</speed></extensions>
      </trkpt>
      <trkpt lat="51.940384000" lon="7.587525000">
        <ele>56.6</ele>
        <time>2017-04-29T10:16:06</time>
        <extensions><speed>1.34</speed></extensions>
      </trkpt>
      <trkpt lat="51.940395000" lon="7.587537000">
        <ele>56.6</ele>
        <time>2017-04-29T10:16:07</time>
        <extensions><speed>1.24</speed></extensions>
      </trkpt>
      <trkpt lat="51.940407000" lon="7.587550000">
        <ele>56.6</ele>
        <time>2017-04-29T10:16:08</time>
        <extensions><speed>1.27</speed></extensions>
      </trkpt>
      <trkpt lat="51.940414000" lon="7.587563000">
        <ele>56.6</ele>
        <time>2017-04-29T10:16:09</time>
        <extensions><speed>1.37</speed></extensions>
      </trkpt>
      <trkpt lat="51.940430000" lon="7.587575000">
        <ele>56.6</ele>
        <time>2017-04-29T10:16:10</time>
        <extensions><speed>1.32</speed></extensions>
      </trkpt>
      <trkpt lat="51.940441000" lon="7.587586000">
        <ele>56.6</ele>
        <time>2017-04-29T10:16:11</time>
        <extensions><speed>1.32</speed></extensions>
      </trkpt>
      <trkpt lat="51.940445000" lon="7.587596000">
        <ele>56.6</ele>
        <time>2017-04-29T10:16:12</time>
        <extensions><speed>1.34</speed></extensions>
      </trkpt>
      <trkpt lat="51.940456000" lon="7.587605000">
        <ele>56.6</ele>
        <time>2017-04-29T10:16:13</time>
        <extensions><speed>1.30</speed></extensions>
      </trkpt>
      <trkpt lat="51.940468000" lon="7.587612000">
        <ele>56.6</ele>
        <time>2017-04-29T10:16:14</time>
        <extensions><speed>1.26</speed></extensions>
      </trkpt>
      <trkpt lat="51.940479000" lon="7.587619000">
        <ele>56.6</ele>
        <time>2017-04-29T10:16:15</time>
        <extensions><speed>1.28</speed></extensions>
      </trkpt>
      <trkpt lat="51.940487000" lon="7.587628000">
        <ele>56.6</ele>
        <time>2017-04-29T10:16:16</time>
        <extensions><speed>1.31</speed></extensions>
      </trkpt>
      <trkpt lat="51.940498000" lon="7.587640000">
        <ele>56.6</ele>
        <time>2017-04-29T10:16:17</time>
        <extensions><speed>1.30</speed></extensions>
      </trkpt>
      <trkpt lat="51.940510000" lon="7.587650000">
        <ele>56.6</ele>
        <time>2017-04-29T10:16:18</time>
        <extensions><speed>1.31</speed></extensions>
      </trkpt>
      <trkpt lat="51.940514000" lon="7.587660000">
        <ele>56.6</ele>
        <time>2017-04-29T10:16:19</time>
        <extensions><speed>1.31</speed></extensions>
      </trkpt>
      <trkpt lat="51.940525000" lon="7.587668000">
        <ele>56.6</ele>
        <time>2017-04-29T10:16:20</time>
        <extensions><speed>1.27</speed></extensions>
      </trkpt>
      <trkpt lat="51.940533000" lon="7.587675000">
        <ele>56.6</ele>
        <time>2017-04-29T10:16:21</time>
        <extensions><speed>1.23</speed></extensions>
      </trkpt>
      <trkpt lat="51.940544000" lon="7.587684000">
        <ele>56.6</ele>
        <time>2017-04-29T10:16:22</time>
        <extensions><speed>1.23</speed></extensions>
      </trkpt>
      <trkpt lat="51.940556000" lon="7.587697000">
        <ele>56.6</ele>
        <time>2017-04-29T10:16:23</time>
        <extensions><speed>1.26</speed></extensions>
      </trkpt>
      <trkpt lat="51.940571000" lon="7.587707000">
        <ele>56.6</ele>
        <time>2017-04-29T10:16:24</time>
        <extensions><speed>1.32</speed></extensions>
      </trkpt>
      <trkpt lat="51.940578000" lon="7.587714000">
        <ele>56.6</ele>
        <time>2017-04-29T10:16:25</time>
        <extensions><speed>1.36</speed></extensions>
      </trkpt>
      <trkpt lat="51.940586000" lon="7.587726000">
        <ele>56.6</ele>
        <time>2017-04-29T10:16:26</time>
        <extensions><speed>1.40</speed></extensions>
      </trkpt>
      <trkpt lat="51.940598000" lon="7.587740000">
        <ele>56.6</ele>
        <time>2017-04-29T10:16:27</time>
        <extensions><speed>1.40</speed></extensions>
      </trkpt>
      <trkpt lat="51.940609000" lon="7.587754000">
        <ele>56.6</ele>
        <time>2017-04-29T10:16:28</time>
        <extensions><speed>1.40</speed></extensions>
      </trkpt>
      <trkpt lat="51.940617000" lon="7.587765000">
        <ele>56.6</ele>
        <time>2017-04-29T10:16:29</time>
        <extensions><speed>1.42</speed></extensions>
      </trkpt>
      <trkpt lat="51.940628000" lon="7.587773000">
        <ele>56.6</ele>
        <time>2017-04-29T10:16:30</time>
        <extensions><speed>1.41</speed></extensions>
      </trkpt>
      <trkpt lat="51.940636000" lon="7.587787000">
        <ele>56.6</ele>
        <time>2017-04-29T10:16:31</time>
        <extensions><speed>1.32</speed></extensions>
      </trkpt>
      <trkpt lat="51.940643000" lon="7.587796000">
        <ele>56.6</ele>
        <time>2017-04-29T10:16:32</time>
        <extensions><speed>1.37</speed></extensions>
      </trkpt>
      <trkpt lat="51.940651000" lon="7.587808000">
        <ele>56.6</ele>
        <time>2017-04-29T10:16:33</time>
        <extensions><speed>1.38</speed></extensions>
      </trkpt>
      <trkpt lat="51.940662000" lon="7.587822000">
        <ele>56.6</ele>
        <time>2017-04-29T10:16:34</time>
        <extensions><speed>1.34</speed></extensions>
      </trkpt>
      <trkpt lat="51.940674000" lon="7.587836000">
        <ele>56.6</ele>
        <time>2017-04-29T10:16:35</time>
        <extensions><speed>1.30</speed></extensions>
      </trkpt>
      <trkpt lat="51.940681000" lon="7.587853000">
        <ele>56.6</ele>
        <time>2017-04-29T10:16:36</time>
        <extensions><speed>1.33</speed></extensions>
      </trkpt>
      <trkpt lat="51.940693000" lon="7.587866000">
        <ele>56.6</ele>
        <time>2017-04-29T10:16:37</time>
        <extensions><speed>1.32</speed></extensions>
      </trkpt>
      <trkpt lat="51.940704000" lon="7.587875000">
        <ele>56.6</ele>
        <time>2017-04-29T10:16:38</time>
        <extensions><speed>1.32</speed></extensions>
      </trkpt>
      <trkpt lat="51.940708000" lon="7.587885000">
        <ele>56.6</ele>
        <time>2017-04-29T10:16:39</time>
        <extensions><speed>1.35</speed></extensions>
      </trkpt>
      <trkpt lat="51.940720000" lon="7.587895000">
        <ele>56.7</ele>
        <time>2017-04-29T10:16:40</time>
        <extensions><speed>1.35</speed></extensions>
      </trkpt>
      <trkpt lat="51.940727000" lon="7.587905000">
        <ele>56.7</ele>
        <time>2017-04-29T10:16:41</time>
        <extensions><speed>1.38</speed></extensions>
      </trkpt>
      <trkpt lat="51.940739000" lon="7.587920000">
        <ele>56.7</ele>
        <time>2017-04-29T10:16:42</time>
        <extensions><speed>1.41</speed></extensions>
      </trkpt>
      <trkpt lat="51.940750000" lon="7.587936000">
        <ele>56.8</ele>
        <time>2017-04-29T10:16:43</time>
        <extensions><speed>1.43</speed></extensions>
      </trkpt>
      <trkpt lat="51.940758000" lon="7.587948000">
        <ele>56.8</ele>
        <time>2017-04-29T10:16:44</time>
        <extensions><speed>1.39</speed></extensions>
      </trkpt>
      <trkpt lat="51.940769000" lon="7.587962000">
        <ele>56.8</ele>
        <time>2017-04-29T10:16:45</time>
        <extensions><speed>1.43</speed></extensions>
      </trkpt>
      <trkpt lat="51.940777000" lon="7.587978000">
        <ele>56.9</ele>
        <time>2017-04-29T10:16:46</time>
        <extensions><speed>1.39</speed></extensions>
      </trkpt>
      <trkpt lat="51.940788000" lon="7.587992000">
        <ele>56.9</ele>
        <time>2017-04-29T10:16:47</time>
        <extensions><speed>1.40</speed></extensions>
      </trkpt>
      <trkpt lat="51.940796000" lon="7.588005000">
        <ele>56.9</ele>
        <time>2017-04-29T10:16:48</time>
        <extensions><speed>1.39</speed></extensions>
      </trkpt>
      <trkpt lat="51.940804000" lon="7.588017000">
        <ele>57.0</ele>
        <time>2017-04-29T10:16:49</time>
        <extensions><speed>1.41</speed></extensions>
      </trkpt>
      <trkpt lat="51.940811000" lon="7.588030000">
        <ele>57.0</ele>
        <time>2017-04-29T10:16:50</time>
        <extensions><speed>1.37</speed></extensions>
      </trkpt>
      <trkpt lat="51.940823000" lon="7.588041000">
        <ele>57.1</ele>
        <time>2017-04-29T10:16:51</time>
        <extensions><speed>1.40</speed></extensions>
      </trkpt>
      <trkpt lat="51.940834000" lon="7.588057000">
        <ele>57.1</ele>
        <time>2017-04-29T10:16:52</time>
        <extensions><speed>1.39</speed></extensions>
      </trkpt>
      <trkpt lat="51.940838000" lon="7.588073000">
        <ele>57.1</ele>
        <time>2017-04-29T10:16:53</time>
        <extensions><speed>1.43</speed></extensions>
      </trkpt>
      <trkpt lat="51.940849000" lon="7.588089000">
        <ele>57.1</ele>
        <time>2017-04-29T10:16:54</time>
        <extensions><speed>1.39</speed></extensions>
      </trkpt>
      <trkpt lat="51.940861000" lon="7.588104000">
        <ele>57.2</ele>
        <time>2017-04-29T10:16:55</time>
        <extensions><speed>1.43</speed></extensions>
      </trkpt>
      <trkpt lat="51.940868000" lon="7.588117000">
        <ele>57.2</ele>
        <time>2017-04-29T10:16:56</time>
        <extensions><speed>1.39</speed></extensions>
      </trkpt>
      <trkpt lat="51.940876000" lon="7.588129000">
        <ele>57.3</ele>
        <time>2017-04-29T10:16:57</time>
        <extensions><speed>1.34</speed></extensions>
      </trkpt>
      <trkpt lat="51.940887000" lon="7.588139000">
        <ele>57.3</ele>
        <time>2017-04-29T10:16:58</time>
        <extensions><speed>1.30</speed></extensions>
      </trkpt>
      <trkpt lat="51.940899000" lon="7.588148000">
        <ele>57.4</ele>
        <time>2017-04-29T10:16:59</time>
        <extensions><speed>1.31</speed></extensions>
      </trkpt>
      <trkpt lat="51.940907000" lon="7.588163000">
        <ele>57.4</ele>
        <time>2017-04-29T10:17:00</time>
        <extensions><speed>1.31</speed></extensions>
      </trkpt>
      <trkpt lat="51.940914000" lon="7.588178000">
        <ele>57.5</ele>
        <time>2017-04-29T10:17:01</time>
        <extensions><speed>1.36</speed></extensions>
      </trkpt>
      <trkpt lat="51.940926000" lon="7.588192000">
        <ele>57.5</ele>
        <time>2017-04-29T10:17:02</time>
        <extensions><speed>1.38</speed></extensions>
      </trkpt>
      <trkpt lat="51.940933000" lon="7.588203000">
        <ele>57.6</ele>
        <time>2017-04-29T10:17:03</time>
        <extensions><speed>1.38</speed></extensions>
      </trkpt>
      <trkpt lat="51.940941000" lon="7.588216000">
        <ele>57.6</ele>
        <time>2017-04-29T10:17:04</time>
        <extensions><speed>1.37</speed></extensions>
      </trkpt>
      <trkpt lat="51.940952000" lon="7.588227000">
        <ele>57.7</ele>
        <time>2017-04-29T10:17:05</time>
        <extensions><speed>1.33</speed></extensions>
      </trkpt>
      <trkpt lat="51.940964000" lon="7.588239000">
        <ele>57.7</ele>
        <time>2017-04-29T10:17:06</time>
        <extensions><speed>1.29</speed></extensions>
      </trkpt>
      <trkpt lat="51.940968000" lon="7.588250000">
        <ele>57.8</ele>
        <time>2017-04-29T10:17:07</time>
        <extensions><speed>1.25</speed></extensions>
      </trkpt>
      <trkpt lat="51.940975000" lon="7.588262000">
        <ele>57.8</ele>
        <time>2017-04-29T10:17:08</time>
        <extensions><speed>1.28</speed></extensions>
      </trkpt>
      <trkpt lat="51.940987000" lon="7.588275000">
        <ele>57.9</ele>
        <time>2017-04-29T10:17:09</time>
        <extensions><speed>1.26</speed></extensions>
      </trkpt>
      <trkpt lat="51.940998000" lon="7.588286000">
        <ele>57.9</ele>
        <time>2017-04-29T10:17:10</time>
        <extensions><speed>1.30</speed></extensions>
      </trkpt>
      <trkpt lat="51.941002000" lon="7.588302000">
        <ele>58.0</ele>
        <time>2017-04-29T10:17:11</time>
        <extensions><speed>1.35</speed></extensions>
      </trkpt>
      <trkpt lat="51.941013000" lon="7.588314000">
        <ele>58.1</ele>
        <time>2017-04-29T10:17:12</time>
        <extensions><speed>1.35</speed></extensions>
      </trkpt>
      <trkpt lat="51.941021000" lon="7.588325000">
        <ele>58.1</ele>
        <time>2017-04-29T10:17:13</time>
        <extensions><speed>1.35</speed></extensions>
      </trkpt>
      <trkpt lat="51.941032000" lon="7.588338000">
        <ele>58.1</ele>
        <time>2017-04-29T10:17:14</time>
        <extensions><speed>1.38</speed></extensions>
      </trkpt>
      <trkpt lat="51.941040000" lon="7.588353000">
        <ele>58.2</ele>
        <time>2017-04-29T10:17:15</time>
        <extensions><speed>1.40</speed></extensions>
      </trkpt>
      <trkpt lat="51.941051000" lon="7.588367000">
        <ele>58.3</ele>
        <time>2017-04-29T10:17:16</time>
        <extensions><speed>1.34</speed></extensions>
      </trkpt>
      <trkpt lat="51.941059000" lon="7.588380000">
        <ele>58.3</ele>
        <time>2017-04-29T10:17:17</time>
        <extensions><speed>1.33</speed></extensions>
      </trkpt>
      <trkpt lat="51.941067000" lon="7.588397000">
        <ele>58.4</ele>
        <time>2017-04-29T10:17:18</time>
        <extensions><speed>1.32</speed></extensions>
      </trkpt>
      <trkpt lat="51.941074000" lon="7.588412000">
        <ele>58.4</ele>
        <time>2017-04-29T10:17:19</time>
        <extensions><speed>1.34</speed></extensions>
      </trkpt>
      <trkpt lat="51.941082000" lon="7.588427000">
        <ele>58.5</ele>
        <time>2017-04-29T10:17:20</time>
        <extensions><speed>1.37</speed></extensions>
      </trkpt>
      <trkpt lat="51.941093000" lon="7.588442000">
        <ele>58.5</ele>
        <time>2017-04-29T10:17:21</time>
        <extensions><speed>1.44</speed></extensions>
      </trkpt>
      <trkpt lat="51.941101000" lon="7.588456000">
        <ele>58.6</ele>
        <time>2017-04-29T10:17:22</time>
        <extensions><speed>1.44</speed></extensions>
      </trkpt>
      <trkpt lat="51.941113000" lon="7.588471000">
        <ele>58.6</ele>
        <time>2017-04-29T10:17:23</time>
        <extensions><speed>1.45</speed></extensions>
      </trkpt>
      <trkpt lat="51.941120000" lon="7.588489000">
        <ele>58.7</ele>
        <time>2017-04-29T10:17:24</time>
        <extensions><speed>1.45</speed></extensions>
      </trkpt>
      <trkpt lat="51.941132000" lon="7.588507000">
        <ele>58.7</ele>
        <time>2017-04-29T10:17:25</time>
        <extensions><speed>1.44</speed></extensions>
      </trkpt>
      <trkpt lat="51.941139000" lon="7.588524000">
        <ele>58.8</ele>
        <time>2017-04-29T10:17:26</time>
        <extensions><speed>1.46</speed></extensions>
      </trkpt>
      <trkpt lat="51.941147000" lon="7.588538000">
        <ele>58.8</ele>
        <time>2017-04-29T10:17:27</time>
        <extensions><speed>1.48</speed></extensions>
      </trkpt>
      <trkpt lat="51.941154000" lon="7.588553000">
        <ele>58.9</ele>
        <time>2017-04-29T10:17:28</time>
        <extensions><speed>1.48</speed></extensions>
      </trkpt>
      <trkpt lat="51.941162000" lon="7.588568000">
        <ele>58.9</ele>
        <time>2017-04-29T10:17:29</time>
        <extensions><speed>1.44</speed></extensions>
      </trkpt>
      <trkpt lat="51.941166000" lon="7.588585000">
        <ele>59.0</ele>
        <time>2017-04-29T10:17:30</time>
        <extensions><speed>1.42</speed></extensions>
      </trkpt>
      <trkpt lat="51.941177000" lon="7.588600000">
        <ele>59.0</ele>
        <time>2017-04-29T10:17:31</time>
        <extensions><speed>1.42</speed></extensions>
      </trkpt>
      <trkpt lat="51.941189000" lon="7.588617000">
        <ele>59.1</ele>
        <time>2017-04-29T10:17:32</time>
        <extensions><speed>1.43</speed></extensions>
      </trkpt>
      <trkpt lat="51.941196000" lon="7.588634000">
        <ele>59.1</ele>
        <time>2017-04-29T10:17:33</time>
        <extensions><speed>1.51</speed></extensions>
      </trkpt>
      <trkpt lat="51.941200000" lon="7.588654000">
        <ele>59.2</ele>
        <time>2017-04-29T10:17:34</time>
        <extensions><speed>1.52</speed></extensions>
      </trkpt>
      <trkpt lat="51.941208000" lon="7.588670000">
        <ele>59.2</ele>
        <time>2017-04-29T10:17:35</time>
        <extensions><speed>1.52</speed></extensions>
      </trkpt>
      <trkpt lat="51.941216000" lon="7.588685000">
        <ele>59.3</ele>
        <time>2017-04-29T10:17:36</time>
        <extensions><speed>1.47</speed></extensions>
      </trkpt>
      <trkpt lat="51.941227000" lon="7.588699000">
        <ele>59.3</ele>
        <time>2017-04-29T10:17:37</time>
        <extensions><speed>1.39</speed></extensions>
      </trkpt>
      <trkpt lat="51.941231000" lon="7.588710000">
        <ele>59.4</ele>
        <time>2017-04-29T10:17:38</time>
        <extensions><speed>1.29</speed></extensions>
      </trkpt>
      <trkpt lat="51.941242000" lon="7.588724000">
        <ele>59.4</ele>
        <time>2017-04-29T10:17:39</time>
        <extensions><speed>1.29</speed></extensions>
      </trkpt>
      <trkpt lat="51.941254000" lon="7.588738000">
        <ele>59.5</ele>
        <time>2017-04-29T10:17:40</time>
        <extensions><speed>1.30</speed></extensions>
      </trkpt>
      <trkpt lat="51.941261000" lon="7.588755000">
        <ele>59.5</ele>
        <time>2017-04-29T10:17:41</time>
        <extensions><speed>1.36</speed></extensions>
      </trkpt>
      <trkpt lat="51.941269000" lon="7.588771000">
        <ele>59.5</ele>
        <time>2017-04-29T10:17:42</time>
        <extensions><speed>1.39</speed></extensions>
      </trkpt>
      <trkpt lat="51.941277000" lon="7.588790000">
        <ele>59.6</ele>
        <time>2017-04-29T10:17:43</time>
        <extensions><speed>1.42</speed></extensions>
      </trkpt>
      <trkpt lat="51.941284000" lon="7.588806000">
        <ele>59.6</ele>
        <time>2017-04-29T10:17:44</time>
        <extensions><speed>1.38</speed></extensions>
      </trkpt>
      <trkpt lat="51.941292000" lon="7.588823000">
        <ele>59.7</ele>
        <time>2017-04-29T10:17:45</time>
        <extensions><speed>1.40</speed></extensions>
      </trkpt>
      <trkpt lat="51.941296000" lon="7.588838000">
        <ele>59.7</ele>
        <time>2017-04-29T10:17:46</time>
        <extensions><speed>1.39</speed></extensions>
      </trkpt>
      <trkpt lat="51.941303000" lon="7.588853000">
        <ele>59.8</ele>
        <time>2017-04-29T10:17:47</time>
        <extensions><speed>1.39</speed></extensions>
      </trkpt>
      <trkpt lat="51.941311000" lon="7.588869000">
        <ele>59.8</ele>
        <time>2017-04-29T10:17:48</time>
        <extensions><speed>1.35</speed></extensions>
      </trkpt>
      <trkpt lat="51.941319000" lon="7.588883000">
        <ele>59.9</ele>
        <time>2017-04-29T10:17:49</time>
        <extensions><speed>1.31</speed></extensions>
      </trkpt>
      <trkpt lat="51.941322000" lon="7.588900000">
        <ele>59.9</ele>
        <time>2017-04-29T10:17:50</time>
        <extensions><speed>1.24</speed></extensions>
      </trkpt>
      <trkpt lat="51.941326000" lon="7.588916000">
        <ele>59.9</ele>
        <time>2017-04-29T10:17:51</time>
        <extensions><speed>1.27</speed></extensions>
      </trkpt>
      <trkpt lat="51.941330000" lon="7.588933000">
        <ele>60.0</ele>
        <time>2017-04-29T10:17:52</time>
        <extensions><speed>1.27</speed></extensions>
      </trkpt>
      <trkpt lat="51.941338000" lon="7.588950000">
        <ele>60.0</ele>
        <time>2017-04-29T10:17:53</time>
        <extensions><speed>1.24</speed></extensions>
      </trkpt>
      <trkpt lat="51.941341000" lon="7.588965000">
        <ele>60.0</ele>
        <time>2017-04-29T10:17:54</time>
        <extensions><speed>1.23</speed></extensions>
      </trkpt>
      <trkpt lat="51.941349000" lon="7.588980000">
        <ele>60.0</ele>
        <time>2017-04-29T10:17:55</time>
        <extensions><speed>1.25</speed></extensions>
      </trkpt>
      <trkpt lat="51.941353000" lon="7.588998000">
        <ele>60.0</ele>
        <time>2017-04-29T10:17:56</time>
        <extensions><speed>1.25</speed></extensions>
      </trkpt>
      <trkpt lat="51.941357000" lon="7.589015000">
        <ele>60.0</ele>
        <time>2017-04-29T10:17:57</time>
        <extensions><speed>1.25</speed></extensions>
      </trkpt>
      <trkpt lat="51.941360000" lon="7.589034000">
        <ele>60.1</ele>
        <time>2017-04-29T10:17:58</time>
        <extensions><speed>1.24</speed></extensions>
      </trkpt>
      <trkpt lat="51.941360000" lon="7.589050000">
        <ele>60.1</ele>
        <time>2017-04-29T10:17:59</time>
        <extensions><speed>1.28</speed></extensions>
      </trkpt>
      <trkpt lat="51.941368000" lon="7.589067000">
        <ele>60.1</ele>
        <time>2017-04-29T10:18:00</time>
        <extensions><speed>1.31</speed></extensions>
      </trkpt>
      <trkpt lat="51.941372000" lon="7.589083000">
        <ele>60.1</ele>
        <time>2017-04-29T10:18:01</time>
        <extensions><speed>1.33</speed></extensions>
      </trkpt>
      <trkpt lat="51.941376000" lon="7.589102000">
        <ele>60.1</ele>
        <time>2017-04-29T10:18:02</time>
        <extensions><speed>1.29</speed></extensions>
      </trkpt>
      <trkpt lat="51.941376000" lon="7.589116000">
        <ele>60.1</ele>
        <time>2017-04-29T10:18:03</time>
        <extensions><speed>1.25</speed></extensions>
      </trkpt>
      <trkpt lat="51.941380000" lon="7.589125000">
        <ele>60.1</ele>
        <time>2017-04-29T10:18:04</time>
        <extensions><speed>1.10</speed></extensions>
      </trkpt>
      <trkpt lat="51.941399000" lon="7.589317000">
        <ele>60.1</ele>
        <time>2017-04-29T10:18:46</time>
      </trkpt>
      <trkpt lat="51.941402000" lon="7.589333000">
        <ele>60.0</ele>
        <time>2017-04-29T10:18:48</time>
        <extensions><speed>1.34</speed></extensions>
      </trkpt>
      <trkpt lat="51.941410000" lon="7.589354000">
        <ele>60.0</ele>
        <time>2017-04-29T10:18:49</time>
        <extensions><speed>1.41</speed></extensions>
      </trkpt>
      <trkpt lat="51.941414000" lon="7.589375000">
        <ele>60.0</ele>
        <time>2017-04-29T10:18:50</time>
        <extensions><speed>1.46</speed></extensions>
      </trkpt>
      <trkpt lat="51.941418000" lon="7.589394000">
        <ele>60.0</ele>
        <time>2017-04-29T10:18:51</time>
        <extensions><speed>1.44</speed></extensions>
      </trkpt>
      <trkpt lat="51.941425000" lon="7.589413000">
        <ele>60.0</ele>
        <time>2017-04-29T10:18:52</time>
        <extensions><speed>1.47</speed></extensions>
      </trkpt>
      <trkpt lat="51.941433000" lon="7.589435000">
        <ele>60.0</ele>
        <time>2017-04-29T10:18:53</time>
        <extensions><speed>1.47</speed></extensions>
      </trkpt>
      <trkpt lat="51.941441000" lon="7.589455000">
        <ele>60.0</ele>
        <time>2017-04-29T10:18:54</time>
        <extensions><speed>1.46</speed></extensions>
      </trkpt>
      <trkpt lat="51.941444000" lon="7.589475000">
        <ele>60.0</ele>
        <time>2017-04-29T10:18:55</time>
        <extensions><speed>1.47</speed></extensions>
      </trkpt>
      <trkpt lat="51.941452000" lon="7.589495000">
        <ele>60.0</ele>
        <time>2017-04-29T10:18:56</time>
        <extensions><speed>1.48</speed></extensions>
      </trkpt>
      <trkpt lat="51.941456000" lon="7.589513000">
        <ele>60.0</ele>
        <time>2017-04-29T10:18:57</time>
        <extensions><speed>1.46</speed></extensions>
      </trkpt>
      <trkpt lat="51.941463000" lon="7.589530000">
        <ele>60.0</ele>
        <time>2017-04-29T10:18:58</time>
        <extensions><speed>1.46</speed></extensions>
      </trkpt>
      <trkpt lat="51.941467000" lon="7.589548000">
        <ele>60.0</ele>
        <time>2017-04-29T10:18:59</time>
        <extensions><speed>1.46</speed></extensions>
      </trkpt>
      <trkpt lat="51.941475000" lon="7.589569000">
        <ele>60.1</ele>
        <time>2017-04-29T10:19:00</time>
        <extensions><speed>1.51</speed></extensions>
      </trkpt>
      <trkpt lat="51.941483000" lon="7.589587000">
        <ele>60.1</ele>
        <time>2017-04-29T10:19:01</time>
        <extensions><speed>1.46</speed></extensions>
      </trkpt>
      <trkpt lat="51.941490000" lon="7.589604000">
        <ele>60.1</ele>
        <time>2017-04-29T10:19:02</time>
        <extensions><speed>1.46</speed></extensions>
      </trkpt>
      <trkpt lat="51.941498000" lon="7.589622000">
        <ele>60.1</ele>
        <time>2017-04-29T10:19:03</time>
        <extensions><speed>1.46</speed></extensions>
      </trkpt>
      <trkpt lat="51.941505000" lon="7.589641000">
        <ele>60.1</ele>
        <time>2017-04-29T10:19:04</time>
        <extensions><speed>1.46</speed></extensions>
      </trkpt>
      <trkpt lat="51.941509000" lon="7.589658000">
        <ele>60.1</ele>
        <time>2017-04-29T10:19:05</time>
        <extensions><speed>1.44</speed></extensions>
      </trkpt>
      <trkpt lat="51.941517000" lon="7.589676000">
        <ele>60.2</ele>
        <time>2017-04-29T10:19:06</time>
        <extensions><speed>1.44</speed></extensions>
      </trkpt>
      <trkpt lat="51.941521000" lon="7.589697000">
        <ele>60.2</ele>
        <time>2017-04-29T10:19:07</time>
        <extensions><speed>1.45</speed></extensions>
      </trkpt>
      <trkpt lat="51.941528000" lon="7.589713000">
        <ele>60.2</ele>
        <time>2017-04-29T10:19:08</time>
        <extensions><speed>1.42</speed></extensions>
      </trkpt>
      <trkpt lat="51.941536000" lon="7.589728000">
        <ele>60.2</ele>
        <time>2017-04-29T10:19:09</time>
        <extensions><speed>1.40</speed></extensions>
      </trkpt>
      <trkpt lat="51.941544000" lon="7.589748000">
        <ele>60.2</ele>
        <time>2017-04-29T10:19:10</time>
        <extensions><speed>1.41</speed></extensions>
      </trkpt>
      <trkpt lat="51.941547000" lon="7.589768000">
        <ele>60.2</ele>
        <time>2017-04-29T10:19:11</time>
        <extensions><speed>1.41</speed></extensions>
      </trkpt>
      <trkpt lat="51.941555000" lon="7.589790000">
        <ele>60.2</ele>
        <time>2017-04-29T10:19:12</time>
        <extensions><speed>1.45</speed></extensions>
      </trkpt>
      <trkpt lat="51.941555000" lon="7.589810000">
        <ele>60.2</ele>
        <time>2017-04-29T10:19:13</time>
        <extensions><speed>1.47</speed></extensions>
      </trkpt>
      <trkpt lat="51.941563000" lon="7.589828000">
        <ele>60.2</ele>
        <time>2017-04-29T10:19:14</time>
        <extensions><speed>1.48</speed></extensions>
      </trkpt>
      <trkpt lat="51.941566000" lon="7.589847000">
        <ele>60.2</ele>
        <time>2017-04-29T10:19:15</time>
        <extensions><speed>1.48</speed></extensions>
      </trkpt>
      <trkpt lat="51.941574000" lon="7.589863000">
        <ele>60.2</ele>
        <time>2017-04-29T10:19:16</time>
        <extensions><speed>1.42</speed></extensions>
      </trkpt>
      <trkpt lat="51.941582000" lon="7.589880000">
        <ele>60.3</ele>
        <time>2017-04-29T10:19:17</time>
        <extensions><speed>1.42</speed></extensions>
      </trkpt>
      <trkpt lat="51.941586000" lon="7.589900000">
        <ele>60.3</ele>
        <time>2017-04-29T10:19:18</time>
        <extensions><speed>1.45</speed></extensions>
      </trkpt>
      <trkpt lat="51.941593000" lon="7.589918000">
        <ele>60.3</ele>
        <time>2017-04-29T10:19:19</time>
        <extensions><speed>1.44</speed></extensions>
      </trkpt>
      <trkpt lat="51.941601000" lon="7.589939000">
        <ele>60.3</ele>
        <time>2017-04-29T10:19:20</time>
        <extensions><speed>1.46</speed></extensions>
      </trkpt>
      <trkpt lat="51.941612000" lon="7.589956000">
        <ele>60.3</ele>
        <time>2017-04-29T10:19:21</time>
        <extensions><speed>1.46</speed></extensions>
      </trkpt>
      <trkpt lat="51.941620000" lon="7.589975000">
        <ele>60.3</ele>
        <time>2017-04-29T10:19:22</time>
        <extensions><speed>1.44</speed></extensions>
      </trkpt>
      <trkpt lat="51.941624000" lon="7.589990000">
        <ele>60.3</ele>
        <time>2017-04-29T10:19:23</time>
        <extensions><speed>1.42</speed></extensions>
      </trkpt>
      <trkpt lat="51.941628000" lon="7.590005000">
        <ele>60.3</ele>
        <time>2017-04-29T10:19:24</time>
        <extensions><speed>1.38</speed></extensions>
      </trkpt>
      <trkpt lat="51.941635000" lon="7.590023000">
        <ele>60.3</ele>
        <time>2017-04-29T10:19:25</time>
        <extensions><speed>1.38</speed></extensions>
      </trkpt>
      <trkpt lat="51.941643000" lon="7.590040000">
        <ele>60.3</ele>
        <time>2017-04-29T10:19:26</time>
        <extensions><speed>1.37</speed></extensions>
      </trkpt>
      <trkpt lat="51.941650000" lon="7.590060000">
        <ele>60.3</ele>
        <time>2017-04-29T10:19:27</time>
        <extensions><speed>1.39</speed></extensions>
      </trkpt>
      <trkpt lat="51.941654000" lon="7.590078000">
        <ele>60.3</ele>
        <time>2017-04-29T10:19:28</time>
        <extensions><speed>1.41</speed></extensions>
      </trkpt>
      <trkpt lat="51.941666000" lon="7.590095000">
        <ele>60.3</ele>
        <time>2017-04-29T10:19:29</time>
        <extensions><speed>1.42</speed></extensions>
      </trkpt>
      <trkpt lat="51.941673000" lon="7.590114000">
        <ele>60.3</ele>
        <time>2017-04-29T10:19:30</time>
        <extensions><speed>1.42</speed></extensions>
      </trkpt>
      <trkpt lat="51.941681000" lon="7.590128000">
        <ele>60.3</ele>
        <time>2017-04-29T10:19:31</time>
        <extensions><speed>1.40</speed></extensions>
      </trkpt>
      <trkpt lat="51.941685000" lon="7.590145000">
        <ele>60.3</ele>
        <time>2017-04-29T10:19:32</time>
        <extensions><speed>1.37</speed></extensions>
      </trkpt>
      <trkpt lat="51.941692000" lon="7.590163000">
        <ele>60.3</ele>
        <time>2017-04-29T10:19:33</time>
        <extensions><speed>1.41</speed></extensions>
      </trkpt>
      <trkpt lat="51.941700000" lon="7.590183000">
        <ele>60.3</ele>
        <time>2017-04-29T10:19:34</time>
        <extensions><speed>1.46</speed></extensions>
      </trkpt>
      <trkpt lat="51.941708000" lon="7.590203000">
        <ele>60.3</ele>
        <time>2017-04-29T10:19:35</time>
        <extensions><speed>1.44</speed></extensions>
      </trkpt>
      <trkpt lat="51.941715000" lon="7.590222000">
        <ele>60.3</ele>
        <time>2017-04-29T10:19:36</time>
        <extensions><speed>1.49</speed></extensions>
      </trkpt>
      <trkpt lat="51.941723000" lon="7.590238000">
        <ele>60.3</ele>
        <time>2017-04-29T10:19:37</time>
        <extensions><speed>1.53</speed></extensions>
      </trkpt>
      <trkpt lat="51.941730000" lon="7.590253000">
        <ele>60.3</ele>
        <time>2017-04-29T10:19:38</time>
        <extensions><speed>1.49</speed></extensions>
      </trkpt>
      <trkpt lat="51.941742000" lon="7.590268000">
        <ele>60.3</ele>
        <time>2017-04-29T10:19:39</time>
        <extensions><speed>1.49</speed></extensions>
      </trkpt>
      <trkpt lat="51.941753000" lon="7.590285000">
        <ele>60.3</ele>
        <time>2017-04-29T10:19:40</time>
        <extensions><speed>1.56</speed></extensions>
      </trkpt>
      <trkpt lat="51.941765000" lon="7.590302000">
        <ele>60.3</ele>
        <time>2017-04-29T10:19:41</time>
        <extensions><speed>1.53</speed></extensions>
      </trkpt>
      <trkpt lat="51.941772000" lon="7.590318000">
        <ele>60.3</ele>
        <time>2017-04-29T10:19:42</time>
        <extensions><speed>1.47</speed></extensions>
      </trkpt>
      <trkpt lat="51.941780000" lon="7.590336000">
        <ele>60.3</ele>
        <time>2017-04-29T10:19:43</time>
        <extensions><speed>1.51</speed></extensions>
      </trkpt>
      <trkpt lat="51.941784000" lon="7.590355000">
        <ele>60.3</ele>
        <time>2017-04-29T10:19:44</time>
        <extensions><speed>1.42</speed></extensions>
      </trkpt>
      <trkpt lat="51.941795000" lon="7.590373000">
        <ele>60.3</ele>
        <time>2017-04-29T10:19:45</time>
        <extensions><speed>1.42</speed></extensions>
      </trkpt>
      <trkpt lat="51.941803000" lon="7.590394000">
        <ele>60.3</ele>
        <time>2017-04-29T10:19:46</time>
        <extensions><speed>1.45</speed></extensions>
      </trkpt>
      <trkpt lat="51.941811000" lon="7.590411000">
        <ele>60.3</ele>
        <time>2017-04-29T10:19:47</time>
        <extensions><speed>1.45</speed></extensions>
      </trkpt>
      <trkpt lat="51.941814000" lon="7.590425000">
        <ele>60.3</ele>
        <time>2017-04-29T10:19:48</time>
        <extensions><speed>1.40</speed></extensions>
      </trkpt>
      <trkpt lat="51.941822000" lon="7.590440000">
        <ele>60.3</ele>
        <time>2017-04-29T10:19:49</time>
        <extensions><speed>1.43</speed></extensions>
      </trkpt>
      <trkpt lat="51.941830000" lon="7.590456000">
        <ele>60.3</ele>
        <time>2017-04-29T10:19:50</time>
        <extensions><speed>1.35</speed></extensions>
      </trkpt>
      <trkpt lat="51.941837000" lon="7.590472000">
        <ele>60.3</ele>
        <time>2017-04-29T10:19:51</time>
        <extensions><speed>1.35</speed></extensions>
      </trkpt>
      <trkpt lat="51.941845000" lon="7.590488000">
        <ele>60.3</ele>
        <time>2017-04-29T10:19:52</time>
        <extensions><speed>1.31</speed></extensions>
      </trkpt>
      <trkpt lat="51.941849000" lon="7.590505000">
        <ele>60.3</ele>
        <time>2017-04-29T10:19:53</time>
        <extensions><speed>1.36</speed></extensions>
      </trkpt>
      <trkpt lat="51.941853000" lon="7.590523000">
        <ele>60.3</ele>
        <time>2017-04-29T10:19:54</time>
        <extensions><speed>1.35</speed></extensions>
      </trkpt>
      <trkpt lat="51.941860000" lon="7.590540000">
        <ele>60.3</ele>
        <time>2017-04-29T10:19:55</time>
        <extensions><speed>1.41</speed></extensions>
      </trkpt>
      <trkpt lat="51.941872000" lon="7.590557000">
        <ele>60.3</ele>
        <time>2017-04-29T10:19:56</time>
        <extensions><speed>1.41</speed></extensions>
      </trkpt>
      <trkpt lat="51.941879000" lon="7.590572000">
        <ele>60.3</ele>
        <time>2017-04-29T10:19:57</time>
        <extensions><speed>1.41</speed></extensions>
      </trkpt>
      <trkpt lat="51.941883000" lon="7.590587000">
        <ele>60.3</ele>
        <time>2017-04-29T10:19:58</time>
        <extensions><speed>1.39</speed></extensions>
      </trkpt>
      <trkpt lat="51.941891000" lon="7.590603000">
        <ele>60.3</ele>
        <time>2017-04-29T10:19:59</time>
        <extensions><speed>1.39</speed></extensions>
      </trkpt>
      <trkpt lat="51.941895000" lon="7.590625000">
        <ele>60.2</ele>
        <time>2017-04-29T10:20:00</time>
        <extensions><speed>1.40</speed></extensions>
      </trkpt>
      <trkpt lat="51.941902000" lon="7.590644000">
        <ele>60.2</ele>
        <time>2017-04-29T10:20:01</time>
        <extensions><speed>1.42</speed></extensions>
      </trkpt>
      <trkpt lat="51.941906000" lon="7.590663000">
        <ele>60.2</ele>
        <time>2017-04-29T10:20:02</time>
        <extensions><speed>1.48</speed></extensions>
      </trkpt>
      <trkpt lat="51.941914000" lon="7.590684000">
        <ele>60.2</ele>
        <time>2017-04-29T10:20:03</time>
        <extensions><speed>1.49</speed></extensions>
      </trkpt>
      <trkpt lat="51.941917000" lon="7.590705000">
        <ele>60.2</ele>
        <time>2017-04-29T10:20:04</time>
        <extensions><speed>1.47</speed></extensions>
      </trkpt>
      <trkpt lat="51.941925000" lon="7.590726000">
        <ele>60.2</ele>
        <time>2017-04-29T10:20:05</time>
        <extensions><speed>1.49</speed></extensions>
      </trkpt>
      <trkpt lat="51.941929000" lon="7.590749000">
        <ele>60.2</ele>
        <time>2017-04-29T10:20:06</time>
        <extensions><speed>1.52</speed></extensions>
      </trkpt>
      <trkpt lat="51.941936000" lon="7.590768000">
        <ele>60.1</ele>
        <time>2017-04-29T10:20:07</time>
        <extensions><speed>1.51</speed></extensions>
      </trkpt>
      <trkpt lat="51.941944000" lon="7.590784000">
        <ele>60.1</ele>
        <time>2017-04-29T10:20:08</time>
        <extensions><speed>1.51</speed></extensions>
      </trkpt>
      <trkpt lat="51.941948000" lon="7.590802000">
        <ele>60.1</ele>
        <time>2017-04-29T10:20:09</time>
        <extensions><speed>1.51</speed></extensions>
      </trkpt>
      <trkpt lat="51.941952000" lon="7.590820000">
        <ele>60.1</ele>
        <time>2017-04-29T10:20:10</time>
        <extensions><speed>1.47</speed></extensions>
      </trkpt>
      <trkpt lat="51.941963000" lon="7.590840000">
        <ele>60.0</ele>
        <time>2017-04-29T10:20:11</time>
        <extensions><speed>1.47</speed></extensions>
      </trkpt>
      <trkpt lat="51.941971000" lon="7.590861000">
        <ele>60.0</ele>
        <time>2017-04-29T10:20:12</time>
        <extensions><speed>1.45</speed></extensions>
      </trkpt>
      <trkpt lat="51.941975000" lon="7.590880000">
        <ele>60.0</ele>
        <time>2017-04-29T10:20:13</time>
        <extensions><speed>1.45</speed></extensions>
      </trkpt>
      <trkpt lat="51.941978000" lon="7.590900000">
        <ele>60.0</ele>
        <time>2017-04-29T10:20:14</time>
        <extensions><speed>1.45</speed></extensions>
      </trkpt>
      <trkpt lat="51.941982000" lon="7.590920000">
        <ele>60.0</ele>
        <time>2017-04-29T10:20:15</time>
        <extensions><speed>1.49</speed></extensions>
      </trkpt>
      <trkpt lat="51.941990000" lon="7.590941000">
        <ele>59.9</ele>
        <time>2017-04-29T10:20:16</time>
        <extensions><speed>1.49</speed></extensions>
      </trkpt>
      <trkpt lat="51.941998000" lon="7.590959000">
        <ele>59.9</ele>
        <time>2017-04-29T10:20:17</time>
        <extensions><speed>1.47</speed></extensions>
      </trkpt>
      <trkpt lat="51.942005000" lon="7.590977000">
        <ele>59.9</ele>
        <time>2017-04-29T10:20:18</time>
        <extensions><speed>1.45</speed></extensions>
      </trkpt>
      <trkpt lat="51.942009000" lon="7.590995000">
        <ele>59.9</ele>
        <time>2017-04-29T10:20:19</time>
        <extensions><speed>1.47</speed></extensions>
      </trkpt>
      <trkpt lat="51.942013000" lon="7.591012000">
        <ele>59.9</ele>
        <time>2017-04-29T10:20:20</time>
        <extensions><speed>1.47</speed></extensions>
      </trkpt>
      <trkpt lat="51.942020000" lon="7.591031000">
        <ele>59.9</ele>
        <time>2017-04-29T10:20:21</time>
        <extensions><speed>1.42</speed></extensions>
      </trkpt>
      <trkpt lat="51.942028000" lon="7.591050000">
        <ele>59.9</ele>
        <time>2017-04-29T10:20:22</time>
        <extensions><speed>1.42</speed></extensions>
      </trkpt>
      <trkpt lat="51.942032000" lon="7.591070000">
        <ele>59.9</ele>
        <time>2017-04-29T10:20:23</time>
        <extensions><speed>1.42</speed></extensions>
      </trkpt>
      <trkpt lat="51.942039000" lon="7.591087000">
        <ele>59.9</ele>
        <time>2017-04-29T10:20:24</time>
        <extensions><speed>1.42</speed></extensions>
      </trkpt>
      <trkpt lat="51.942043000" lon="7.591105000">
        <ele>59.9</ele>
        <time>2017-04-29T10:20:25</time>
        <extensions><speed>1.39</speed></extensions>
      </trkpt>
      <trkpt lat="51.942047000" lon="7.591124000">
        <ele>59.9</ele>
        <time>2017-04-29T10:20:26</time>
        <extensions><speed>1.42</speed></extensions>
      </trkpt>
      <trkpt lat="51.942055000" lon="7.591141000">
        <ele>59.9</ele>
        <time>2017-04-29T10:20:27</time>
        <extensions><speed>1.43</speed></extensions>
      </trkpt>
      <trkpt lat="51.942059000" lon="7.591160000">
        <ele>60.0</ele>
        <time>2017-04-29T10:20:28</time>
        <extensions><speed>1.42</speed></extensions>
      </trkpt>
      <trkpt lat="51.942066000" lon="7.591178000">
        <ele>60.0</ele>
        <time>2017-04-29T10:20:29</time>
        <extensions><speed>1.43</speed></extensions>
      </trkpt>
      <trkpt lat="51.942074000" lon="7.591195000">
        <ele>60.0</ele>
        <time>2017-04-29T10:20:30</time>
        <extensions><speed>1.42</speed></extensions>
      </trkpt>
      <trkpt lat="51.942078000" lon="7.591213000">
        <ele>60.0</ele>
        <time>2017-04-29T10:20:31</time>
        <extensions><speed>1.37</speed></extensions>
      </trkpt>
      <trkpt lat="51.942078000" lon="7.591234000">
        <ele>60.0</ele>
        <time>2017-04-29T10:20:32</time>
        <extensions><speed>1.39</speed></extensions>
      </trkpt>
      <trkpt lat="51.942081000" lon="7.591253000">
        <ele>60.0</ele>
        <time>2017-04-29T10:20:33</time>
        <extensions><speed>1.38</speed></extensions>
      </trkpt>
      <trkpt lat="51.942093000" lon="7.591270000">
        <ele>60.1</ele>
        <time>2017-04-29T10:20:34</time>
        <extensions><speed>1.38</speed></extensions>
      </trkpt>
      <trkpt lat="51.942097000" lon="7.591287000">
        <ele>60.1</ele>
        <time>2017-04-29T10:20:35</time>
        <extensions><speed>1.41</speed></extensions>
      </trkpt>
      <trkpt lat="51.942104000" lon="7.591305000">
        <ele>60.1</ele>
        <time>2017-04-29T10:20:36</time>
        <extensions><speed>1.42</speed></extensions>
      </trkpt>
      <trkpt lat="51.942108000" lon="7.591321000">
        <ele>60.1</ele>
        <time>2017-04-29T10:20:37</time>
        <extensions><speed>1.38</speed></extensions>
      </trkpt>
      <trkpt lat="51.942116000" lon="7.591339000">
        <ele>60.1</ele>
        <time>2017-04-29T10:20:38</time>
        <extensions><speed>1.42</speed></extensions>
      </trkpt>
      <trkpt lat="51.942127000" lon="7.591353000">
        <ele>60.1</ele>
        <time>2017-04-29T10:20:39</time>
        <extensions><speed>1.45</speed></extensions>
      </trkpt>
      <trkpt lat="51.942135000" lon="7.591370000">
        <ele>60.2</ele>
        <time>2017-04-29T10:20:40</time>
        <extensions><speed>1.45</speed></extensions>
      </trkpt>
      <trkpt lat="51.942142000" lon="7.591386000">
        <ele>60.2</ele>
        <time>2017-04-29T10:20:41</time>
        <extensions><speed>1.46</speed></extensions>
      </trkpt>
      <trkpt lat="51.942146000" lon="7.591402000">
        <ele>60.2</ele>
        <time>2017-04-29T10:20:42</time>
        <extensions><speed>1.46</speed></extensions>
      </trkpt>
      <trkpt lat="51.942154000" lon="7.591420000">
        <ele>60.3</ele>
        <time>2017-04-29T10:20:43</time>
        <extensions><speed>1.40</speed></extensions>
      </trkpt>
      <trkpt lat="51.942162000" lon="7.591440000">
        <ele>60.3</ele>
        <time>2017-04-29T10:20:44</time>
        <extensions><speed>1.38</speed></extensions>
      </trkpt>
      <trkpt lat="51.942169000" lon="7.591456000">
        <ele>60.4</ele>
        <time>2017-04-29T10:20:45</time>
        <extensions><speed>1.37</speed></extensions>
      </trkpt>
      <trkpt lat="51.942173000" lon="7.591470000">
        <ele>60.4</ele>
        <time>2017-04-29T10:20:46</time>
        <extensions><speed>1.37</speed></extensions>
      </trkpt>
      <trkpt lat="51.942181000" lon="7.591485000">
        <ele>60.5</ele>
        <time>2017-04-29T10:20:47</time>
        <extensions><speed>1.37</speed></extensions>
      </trkpt>
      <trkpt lat="51.942188000" lon="7.591498000">
        <ele>60.5</ele>
        <time>2017-04-29T10:20:48</time>
        <extensions><speed>1.33</speed></extensions>
      </trkpt>
      <trkpt lat="51.942196000" lon="7.591516000">
        <ele>60.6</ele>
        <time>2017-04-29T10:20:49</time>
        <extensions><speed>1.32</speed></extensions>
      </trkpt>
      <trkpt lat="51.942204000" lon="7.591530000">
        <ele>60.6</ele>
        <time>2017-04-29T10:20:50</time>
        <extensions><speed>1.30</speed></extensions>
      </trkpt>
      <trkpt lat="51.942211000" lon="7.591544000">
        <ele>60.7</ele>
        <time>2017-04-29T10:20:51</time>
        <extensions><speed>1.30</speed></extensions>
      </trkpt>
      <trkpt lat="51.942219000" lon="7.591558000">
        <ele>60.7</ele>
        <time>2017-04-29T10:20:52</time>
        <extensions><speed>1.31</speed></extensions>
      </trkpt>
      <trkpt lat="51.942226000" lon="7.591573000">
        <ele>60.8</ele>
        <time>2017-04-29T10:20:53</time>
        <extensions><speed>1.32</speed></extensions>
      </trkpt>
      <trkpt lat="51.942234000" lon="7.591585000">
        <ele>60.8</ele>
        <time>2017-04-29T10:20:54</time>
        <extensions><speed>1.31</speed></extensions>
      </trkpt>
      <trkpt lat="51.942242000" lon="7.591598000">
        <ele>60.8</ele>
        <time>2017-04-29T10:20:55</time>
        <extensions><speed>1.32</speed></extensions>
      </trkpt>
      <trkpt lat="51.942249000" lon="7.591614000">
        <ele>60.9</ele>
        <time>2017-04-29T10:20:56</time>
        <extensions><speed>1.32</speed></extensions>
      </trkpt>
      <trkpt lat="51.942253000" lon="7.591628000">
        <ele>60.9</ele>
        <time>2017-04-29T10:20:57</time>
        <extensions><speed>1.33</speed></extensions>
      </trkpt>
      <trkpt lat="51.942265000" lon="7.591643000">
        <ele>61.0</ele>
        <time>2017-04-29T10:20:58</time>
        <extensions><speed>1.33</speed></extensions>
      </trkpt>
      <trkpt lat="51.942272000" lon="7.591658000">
        <ele>61.1</ele>
        <time>2017-04-29T10:20:59</time>
        <extensions><speed>1.37</speed></extensions>
      </trkpt>
      <trkpt lat="51.942280000" lon="7.591673000">
        <ele>61.2</ele>
        <time>2017-04-29T10:21:00</time>
        <extensions><speed>1.39</speed></extensions>
      </trkpt>
      <trkpt lat="51.942287000" lon="7.591691000">
        <ele>61.3</ele>
        <time>2017-04-29T10:21:01</time>
        <extensions><speed>1.45</speed></extensions>
      </trkpt>
      <trkpt lat="51.942299000" lon="7.591700000">
        <ele>61.3</ele>
        <time>2017-04-29T10:21:02</time>
        <extensions><speed>1.41</speed></extensions>
      </trkpt>
      <trkpt lat="51.942307000" lon="7.591712000">
        <ele>61.4</ele>
        <time>2017-04-29T10:21:03</time>
        <extensions><speed>1.40</speed></extensions>
      </trkpt>
      <trkpt lat="51.942318000" lon="7.591723000">
        <ele>61.5</ele>
        <time>2017-04-29T10:21:04</time>
        <extensions><speed>1.31</speed></extensions>
      </trkpt>
      <trkpt lat="51.942322000" lon="7.591738000">
        <ele>61.6</ele>
        <time>2017-04-29T10:21:05</time>
        <extensions><speed>1.34</speed></extensions>
      </trkpt>
      <trkpt lat="51.942333000" lon="7.591753000">
        <ele>61.7</ele>
        <time>2017-04-29T10:21:06</time>
        <extensions><speed>1.25</speed></extensions>
      </trkpt>
      <trkpt lat="51.942341000" lon="7.591768000">
        <ele>61.7</ele>
        <time>2017-04-29T10:21:07</time>
        <extensions><speed>1.29</speed></extensions>
      </trkpt>
      <trkpt lat="51.942352000" lon="7.591785000">
        <ele>61.8</ele>
        <time>2017-04-29T10:21:08</time>
        <extensions><speed>1.40</speed></extensions>
      </trkpt>
      <trkpt lat="51.942360000" lon="7.591801000">
        <ele>61.9</ele>
        <time>2017-04-29T10:21:09</time>
        <extensions><speed>1.39</speed></extensions>
      </trkpt>
      <trkpt lat="51.942368000" lon="7.591817000">
        <ele>62.0</ele>
        <time>2017-04-29T10:21:10</time>
        <extensions><speed>1.33</speed></extensions>
      </trkpt>
      <trkpt lat="51.942371000" lon="7.591833000">
        <ele>62.1</ele>
        <time>2017-04-29T10:21:11</time>
        <extensions><speed>1.39</speed></extensions>
      </trkpt>
      <trkpt lat="51.942379000" lon="7.591850000">
        <ele>62.2</ele>
        <time>2017-04-29T10:21:12</time>
        <extensions><speed>1.33</speed></extensions>
      </trkpt>
      <trkpt lat="51.942390000" lon="7.591864000">
        <ele>62.2</ele>
        <time>2017-04-29T10:21:13</time>
        <extensions><speed>1.33</speed></extensions>
      </trkpt>
      <trkpt lat="51.942398000" lon="7.591880000">
        <ele>62.3</ele>
        <time>2017-04-29T10:21:14</time>
        <extensions><speed>1.36</speed></extensions>
      </trkpt>
      <trkpt lat="51.942402000" lon="7.591897000">
        <ele>62.3</ele>
        <time>2017-04-29T10:21:15</time>
        <extensions><speed>1.39</speed></extensions>
      </trkpt>
      <trkpt lat="51.942413000" lon="7.591911000">
        <ele>62.4</ele>
        <time>2017-04-29T10:21:16</time>
        <extensions><speed>1.38</speed></extensions>
      </trkpt>
      <trkpt lat="51.942421000" lon="7.591928000">
        <ele>62.5</ele>
        <time>2017-04-29T10:21:17</time>
        <extensions><speed>1.43</speed></extensions>
      </trkpt>
      <trkpt lat="51.942429000" lon="7.591945000">
        <ele>62.5</ele>
        <time>2017-04-29T10:21:18</time>
        <extensions><speed>1.39</speed></extensions>
      </trkpt>
      <trkpt lat="51.942436000" lon="7.591960000">
        <ele>62.6</ele>
        <time>2017-04-29T10:21:19</time>
        <extensions><speed>1.38</speed></extensions>
      </trkpt>
      <trkpt lat="51.942440000" lon="7.591975000">
        <ele>62.6</ele>
        <time>2017-04-29T10:21:20</time>
        <extensions><speed>1.39</speed></extensions>
      </trkpt>
      <trkpt lat="51.942451000" lon="7.591992000">
        <ele>62.7</ele>
        <time>2017-04-29T10:21:21</time>
        <extensions><speed>1.39</speed></extensions>
      </trkpt>
      <trkpt lat="51.942459000" lon="7.592006000">
        <ele>62.8</ele>
        <time>2017-04-29T10:21:22</time>
        <extensions><speed>1.40</speed></extensions>
      </trkpt>
      <trkpt lat="51.942467000" lon="7.592021000">
        <ele>62.8</ele>
        <time>2017-04-29T10:21:23</time>
        <extensions><speed>1.43</speed></extensions>
      </trkpt>
      <trkpt lat="51.942474000" lon="7.592037000">
        <ele>62.9</ele>
        <time>2017-04-29T10:21:24</time>
        <extensions><speed>1.44</speed></extensions>
      </trkpt>
      <trkpt lat="51.942482000" lon="7.592052000">
        <ele>62.9</ele>
        <time>2017-04-29T10:21:25</time>
        <extensions><speed>1.42</speed></extensions>
      </trkpt>
      <trkpt lat="51.942493000" lon="7.592069000">
        <ele>63.0</ele>
        <time>2017-04-29T10:21:26</time>
        <extensions><speed>1.44</speed></extensions>
      </trkpt>
      <trkpt lat="51.942501000" lon="7.592083000">
        <ele>63.0</ele>
        <time>2017-04-29T10:21:27</time>
        <extensions><speed>1.42</speed></extensions>
      </trkpt>
      <trkpt lat="51.942509000" lon="7.592100000">
        <ele>63.1</ele>
        <time>2017-04-29T10:21:28</time>
        <extensions><speed>1.41</speed></extensions>
      </trkpt>
      <trkpt lat="51.942516000" lon="7.592116000">
        <ele>63.2</ele>
        <time>2017-04-29T10:21:29</time>
        <extensions><speed>1.42</speed></extensions>
      </trkpt>
      <trkpt lat="51.942528000" lon="7.592134000">
        <ele>63.2</ele>
        <time>2017-04-29T10:21:30</time>
        <extensions><speed>1.41</speed></extensions>
      </trkpt>
      <trkpt lat="51.942532000" lon="7.592150000">
        <ele>63.3</ele>
        <time>2017-04-29T10:21:31</time>
        <extensions><speed>1.41</speed></extensions>
      </trkpt>
      <trkpt lat="51.942543000" lon="7.592164000">
        <ele>63.4</ele>
        <time>2017-04-29T10:21:32</time>
        <extensions><speed>1.43</speed></extensions>
      </trkpt>
      <trkpt lat="51.942554000" lon="7.592175000">
        <ele>63.4</ele>
        <time>2017-04-29T10:21:33</time>
        <extensions><speed>1.43</speed></extensions>
      </trkpt>
      <trkpt lat="51.942566000" lon="7.592188000">
        <ele>63.5</ele>
        <time>2017-04-29T10:21:34</time>
        <extensions><speed>1.41</speed></extensions>
      </trkpt>
      <trkpt lat="51.942577000" lon="7.592205000">
        <ele>63.5</ele>
        <time>2017-04-29T10:21:35</time>
        <extensions><speed>1.46</speed></extensions>
      </trkpt>
      <trkpt lat="51.942589000" lon="7.592223000">
        <ele>63.6</ele>
        <time>2017-04-29T10:21:36</time>
        <extensions><speed>1.44</speed></extensions>
      </trkpt>
      <trkpt lat="51.942596000" lon="7.592240000">
        <ele>63.7</ele>
        <time>2017-04-29T10:21:37</time>
        <extensions><speed>1.39</speed></extensions>
      </trkpt>
      <trkpt lat="51.942600000" lon="7.592255000">
        <ele>63.8</ele>
        <time>2017-04-29T10:21:38</time>
        <extensions><speed>1.39</speed></extensions>
      </trkpt>
      <trkpt lat="51.942616000" lon="7.592267000">
        <ele>63.8</ele>
        <time>2017-04-29T10:21:39</time>
        <extensions><speed>1.49</speed></extensions>
      </trkpt>
      <trkpt lat="51.942627000" lon="7.592278000">
        <ele>63.9</ele>
        <time>2017-04-29T10:21:40</time>
        <extensions><speed>1.39</speed></extensions>
      </trkpt>
      <trkpt lat="51.942635000" lon="7.592290000">
        <ele>64.0</ele>
        <time>2017-04-29T10:21:41</time>
        <extensions><speed>1.33</speed></extensions>
      </trkpt>
      <trkpt lat="51.942642000" lon="7.592302000">
        <ele>64.1</ele>
        <time>2017-04-29T10:21:42</time>
        <extensions><speed>1.34</speed></extensions>
      </trkpt>
      <trkpt lat="51.942654000" lon="7.592317000">
        <ele>64.1</ele>
        <time>2017-04-29T10:21:43</time>
        <extensions><speed>1.33</speed></extensions>
      </trkpt>
      <trkpt lat="51.942661000" lon="7.592331000">
        <ele>64.2</ele>
        <time>2017-04-29T10:21:44</time>
        <extensions><speed>1.33</speed></extensions>
      </trkpt>
      <trkpt lat="51.942665000" lon="7.592350000">
        <ele>64.2</ele>
        <time>2017-04-29T10:21:45</time>
        <extensions><speed>1.35</speed></extensions>
      </trkpt>
      <trkpt lat="51.942673000" lon="7.592365000">
        <ele>64.3</ele>
        <time>2017-04-29T10:21:46</time>
        <extensions><speed>1.35</speed></extensions>
      </trkpt>
      <trkpt lat="51.942680000" lon="7.592384000">
        <ele>64.4</ele>
        <time>2017-04-29T10:21:47</time>
        <extensions><speed>1.39</speed></extensions>
      </trkpt>
      <trkpt lat="51.942688000" lon="7.592402000">
        <ele>64.4</ele>
        <time>2017-04-29T10:21:48</time>
        <extensions><speed>1.41</speed></extensions>
      </trkpt>
      <trkpt lat="51.942696000" lon="7.592419000">
        <ele>64.4</ele>
        <time>2017-04-29T10:21:49</time>
        <extensions><speed>1.39</speed></extensions>
      </trkpt>
      <trkpt lat="51.942699000" lon="7.592437000">
        <ele>64.4</ele>
        <time>2017-04-29T10:21:50</time>
        <extensions><speed>1.48</speed></extensions>
      </trkpt>
      <trkpt lat="51.942711000" lon="7.592453000">
        <ele>64.4</ele>
        <time>2017-04-29T10:21:51</time>
        <extensions><speed>1.48</speed></extensions>
      </trkpt>
      <trkpt lat="51.942719000" lon="7.592468000">
        <ele>64.4</ele>
        <time>2017-04-29T10:21:52</time>
        <extensions><speed>1.43</speed></extensions>
      </trkpt>
      <trkpt lat="51.942726000" lon="7.592482000">
        <ele>64.4</ele>
        <time>2017-04-29T10:21:53</time>
        <extensions><speed>1.38</speed></extensions>
      </trkpt>
      <trkpt lat="51.942730000" lon="7.592496000">
        <ele>64.4</ele>
        <time>2017-04-29T10:21:54</time>
        <extensions><speed>1.33</speed></extensions>
      </trkpt>
      <trkpt lat="51.942738000" lon="7.592514000">
        <ele>64.4</ele>
        <time>2017-04-29T10:21:55</time>
        <extensions><speed>1.33</speed></extensions>
      </trkpt>
      <trkpt lat="51.942745000" lon="7.592531000">
        <ele>64.4</ele>
        <time>2017-04-29T10:21:56</time>
        <extensions><speed>1.38</speed></extensions>
      </trkpt>
      <trkpt lat="51.942753000" lon="7.592550000">
        <ele>64.4</ele>
        <time>2017-04-29T10:21:57</time>
        <extensions><speed>1.42</speed></extensions>
      </trkpt>
      <trkpt lat="51.942760000" lon="7.592568000">
        <ele>64.4</ele>
        <time>2017-04-29T10:21:58</time>
        <extensions><speed>1.49</speed></extensions>
      </trkpt>
      <trkpt lat="51.942764000" lon="7.592588000">
        <ele>64.4</ele>
        <time>2017-04-29T10:21:59</time>
        <extensions><speed>1.52</speed></extensions>
      </trkpt>
      <trkpt lat="51.942772000" lon="7.592608000">
        <ele>64.4</ele>
        <time>2017-04-29T10:22:00</time>
        <extensions><speed>1.52</speed></extensions>
      </trkpt>
      <trkpt lat="51.942780000" lon="7.592625000">
        <ele>64.4</ele>
        <time>2017-04-29T10:22:01</time>
        <extensions><speed>1.50</speed></extensions>
      </trkpt>
      <trkpt lat="51.942787000" lon="7.592641000">
        <ele>64.4</ele>
        <time>2017-04-29T10:22:02</time>
        <extensions><speed>1.50</speed></extensions>
      </trkpt>
      <trkpt lat="51.942795000" lon="7.592660000">
        <ele>64.4</ele>
        <time>2017-04-29T10:22:03</time>
        <extensions><speed>1.43</speed></extensions>
      </trkpt>
      <trkpt lat="51.942795000" lon="7.592675000">
        <ele>64.4</ele>
        <time>2017-04-29T10:22:04</time>
        <extensions><speed>1.36</speed></extensions>
      </trkpt>
      <trkpt lat="51.942802000" lon="7.592690000">
        <ele>64.4</ele>
        <time>2017-04-29T10:22:05</time>
        <extensions><speed>1.35</speed></extensions>
      </trkpt>
      <trkpt lat="51.942806000" lon="7.592708000">
        <ele>64.3</ele>
        <time>2017-04-29T10:22:06</time>
        <extensions><speed>1.38</speed></extensions>
      </trkpt>
      <trkpt lat="51.942810000" lon="7.592727000">
        <ele>64.3</ele>
        <time>2017-04-29T10:22:07</time>
        <extensions><speed>1.37</speed></extensions>
      </trkpt>
      <trkpt lat="51.942814000" lon="7.592745000">
        <ele>64.3</ele>
        <time>2017-04-29T10:22:08</time>
        <extensions><speed>1.40</speed></extensions>
      </trkpt>
      <trkpt lat="51.942818000" lon="7.592765000">
        <ele>64.3</ele>
        <time>2017-04-29T10:22:09</time>
        <extensions><speed>1.42</speed></extensions>
      </trkpt>
      <trkpt lat="51.942825000" lon="7.592783000">
        <ele>64.2</ele>
        <time>2017-04-29T10:22:10</time>
        <extensions><speed>1.40</speed></extensions>
      </trkpt>
      <trkpt lat="51.942825000" lon="7.592800000">
        <ele>64.2</ele>
        <time>2017-04-29T10:22:11</time>
        <extensions><speed>1.40</speed></extensions>
      </trkpt>
      <trkpt lat="51.942833000" lon="7.592816000">
        <ele>64.1</ele>
        <time>2017-04-29T10:22:12</time>
        <extensions><speed>1.38</speed></extensions>
      </trkpt>
      <trkpt lat="51.942837000" lon="7.592834000">
        <ele>64.1</ele>
        <time>2017-04-29T10:22:13</time>
        <extensions><speed>1.39</speed></extensions>
      </trkpt>
      <trkpt lat="51.942844000" lon="7.592852000">
        <ele>64.1</ele>
        <time>2017-04-29T10:22:14</time>
        <extensions><speed>1.40</speed></extensions>
      </trkpt>
      <trkpt lat="51.942856000" lon="7.592870000">
        <ele>64.0</ele>
        <time>2017-04-29T10:22:15</time>
        <extensions><speed>1.44</speed></extensions>
      </trkpt>
      <trkpt lat="51.942863000" lon="7.592885000">
        <ele>64.0</ele>
        <time>2017-04-29T10:22:16</time>
        <extensions><speed>1.44</speed></extensions>
      </trkpt>
      <trkpt lat="51.942871000" lon="7.592906000">
        <ele>63.9</ele>
        <time>2017-04-29T10:22:17</time>
        <extensions><speed>1.48</speed></extensions>
      </trkpt>
      <trkpt lat="51.942879000" lon="7.592927000">
        <ele>63.9</ele>
        <time>2017-04-29T10:22:18</time>
        <extensions><speed>1.45</speed></extensions>
      </trkpt>
      <trkpt lat="51.942883000" lon="7.592946000">
        <ele>63.9</ele>
        <time>2017-04-29T10:22:19</time>
        <extensions><speed>1.41</speed></extensions>
      </trkpt>
      <trkpt lat="51.942890000" lon="7.592963000">
        <ele>63.9</ele>
        <time>2017-04-29T10:22:20</time>
        <extensions><speed>1.38</speed></extensions>
      </trkpt>
      <trkpt lat="51.942894000" lon="7.592981000">
        <ele>63.8</ele>
        <time>2017-04-29T10:22:21</time>
        <extensions><speed>1.42</speed></extensions>
      </trkpt>
      <trkpt lat="51.942902000" lon="7.593000000">
        <ele>63.8</ele>
        <time>2017-04-29T10:22:22</time>
        <extensions><speed>1.39</speed></extensions>
      </trkpt>
      <trkpt lat="51.942905000" lon="7.593018000">
        <ele>63.8</ele>
        <time>2017-04-29T10:22:23</time>
        <extensions><speed>1.42</speed></extensions>
      </trkpt>
      <trkpt lat="51.942917000" lon="7.593037000">
        <ele>63.8</ele>
        <time>2017-04-29T10:22:24</time>
        <extensions><speed>1.48</speed></extensions>
      </trkpt>
      <trkpt lat="51.942924000" lon="7.593055000">
        <ele>63.7</ele>
        <time>2017-04-29T10:22:25</time>
        <extensions><speed>1.51</speed></extensions>
      </trkpt>
      <trkpt lat="51.942932000" lon="7.593070000">
        <ele>63.7</ele>
        <time>2017-04-29T10:22:26</time>
        <extensions><speed>1.52</speed></extensions>
      </trkpt>
      <trkpt lat="51.942944000" lon="7.593086000">
        <ele>63.7</ele>
        <time>2017-04-29T10:22:27</time>
        <extensions><speed>1.56</speed></extensions>
      </trkpt>
      <trkpt lat="51.942955000" lon="7.593103000">
        <ele>63.6</ele>
        <time>2017-04-29T10:22:28</time>
        <extensions><speed>1.60</speed></extensions>
      </trkpt>
      <trkpt lat="51.942963000" lon="7.593122000">
        <ele>63.6</ele>
        <time>2017-04-29T10:22:29</time>
        <extensions><speed>1.61</speed></extensions>
      </trkpt>
      <trkpt lat="51.942970000" lon="7.593140000">
        <ele>63.6</ele>
        <time>2017-04-29T10:22:30</time>
        <extensions><speed>1.61</speed></extensions>
      </trkpt>
      <trkpt lat="51.942982000" lon="7.593154000">
        <ele>63.6</ele>
        <time>2017-04-29T10:22:31</time>
        <extensions><speed>1.56</speed></extensions>
      </trkpt>
      <trkpt lat="51.942989000" lon="7.593170000">
        <ele>63.6</ele>
        <time>2017-04-29T10:22:32</time>
        <extensions><speed>1.55</speed></extensions>
      </trkpt>
      <trkpt lat="51.942993000" lon="7.593189000">
        <ele>63.6</ele>
        <time>2017-04-29T10:22:33</time>
        <extensions><speed>1.48</speed></extensions>
      </trkpt>
      <trkpt lat="51.943005000" lon="7.593207000">
        <ele>63.6</ele>
        <time>2017-04-29T10:22:34</time>
        <extensions><speed>1.46</speed></extensions>
      </trkpt>
      <trkpt lat="51.943012000" lon="7.593224000">
        <ele>63.6</ele>
        <time>2017-04-29T10:22:35</time>
        <extensions><speed>1.50</speed></extensions>
      </trkpt>
      <trkpt lat="51.943020000" lon="7.593242000">
        <ele>63.5</ele>
        <time>2017-04-29T10:22:36</time>
        <extensions><speed>1.55</speed></extensions>
      </trkpt>
      <trkpt lat="51.943024000" lon="7.593259000">
        <ele>63.5</ele>
        <time>2017-04-29T10:22:37</time>
        <extensions><speed>1.51</speed></extensions>
      </trkpt>
      <trkpt lat="51.943031000" lon="7.593273000">
        <ele>63.5</ele>
        <time>2017-04-29T10:22:38</time>
        <extensions><speed>1.51</speed></extensions>
      </trkpt>
      <trkpt lat="51.943039000" lon="7.593290000">
        <ele>63.5</ele>
        <time>2017-04-29T10:22:39</time>
        <extensions><speed>1.46</speed></extensions>
      </trkpt>
      <trkpt lat="51.943047000" lon="7.593308000">
        <ele>63.5</ele>
        <time>2017-04-29T10:22:40</time>
        <extensions><speed>1.40</speed></extensions>
      </trkpt>
      <trkpt lat="51.943054000" lon="7.593328000">
        <ele>63.4</ele>
        <time>2017-04-29T10:22:41</time>
        <extensions><speed>1.40</speed></extensions>
      </trkpt>
      <trkpt lat="51.943058000" lon="7.593347000">
        <ele>63.4</ele>
        <time>2017-04-29T10:22:42</time>
        <extensions><speed>1.33</speed></extensions>
      </trkpt>
      <trkpt lat="51.943066000" lon="7.593363000">
        <ele>63.4</ele>
        <time>2017-04-29T10:22:43</time>
        <extensions><speed>1.38</speed></extensions>
      </trkpt>
      <trkpt lat="51.943073000" lon="7.593382000">
        <ele>63.3</ele>
        <time>2017-04-29T10:22:44</time>
        <extensions><speed>1.51</speed></extensions>
      </trkpt>
      <trkpt lat="51.943085000" lon="7.593401000">
        <ele>63.3</ele>
        <time>2017-04-29T10:22:45</time>
        <extensions><speed>1.58</speed></extensions>
      </trkpt>
      <trkpt lat="51.943085000" lon="7.593422000">
        <ele>63.3</ele>
        <time>2017-04-29T10:22:46</time>
        <extensions><speed>1.55</speed></extensions>
      </trkpt>
      <trkpt lat="51.943092000" lon="7.593441000">
        <ele>63.2</ele>
        <time>2017-04-29T10:22:47</time>
        <extensions><speed>1.56</speed></extensions>
      </trkpt>
      <trkpt lat="51.943100000" lon="7.593464000">
        <ele>63.2</ele>
        <time>2017-04-29T10:22:48</time>
        <extensions><speed>1.52</speed></extensions>
      </trkpt>
      <trkpt lat="51.943104000" lon="7.593485000">
        <ele>63.1</ele>
        <time>2017-04-29T10:22:49</time>
        <extensions><speed>1.52</speed></extensions>
      </trkpt>
      <trkpt lat="51.943111000" lon="7.593503000">
        <ele>63.1</ele>
        <time>2017-04-29T10:22:50</time>
        <extensions><speed>1.53</speed></extensions>
      </trkpt>
      <trkpt lat="51.943119000" lon="7.593525000">
        <ele>63.0</ele>
        <time>2017-04-29T10:22:51</time>
        <extensions><speed>1.59</speed></extensions>
      </trkpt>
      <trkpt lat="51.943127000" lon="7.593546000">
        <ele>63.0</ele>
        <time>2017-04-29T10:22:52</time>
        <extensions><speed>1.60</speed></extensions>
      </trkpt>
      <trkpt lat="51.943134000" lon="7.593567000">
        <ele>62.9</ele>
        <time>2017-04-29T10:22:53</time>
        <extensions><speed>1.60</speed></extensions>
      </trkpt>
      <trkpt lat="51.943142000" lon="7.593586000">
        <ele>62.9</ele>
        <time>2017-04-29T10:22:54</time>
        <extensions><speed>1.58</speed></extensions>
      </trkpt>
      <trkpt lat="51.943146000" lon="7.593606000">
        <ele>62.8</ele>
        <time>2017-04-29T10:22:55</time>
        <extensions><speed>1.53</speed></extensions>
      </trkpt>
      <trkpt lat="51.943153000" lon="7.593625000">
        <ele>62.7</ele>
        <time>2017-04-29T10:22:56</time>
        <extensions><speed>1.52</speed></extensions>
      </trkpt>
      <trkpt lat="51.943157000" lon="7.593647000">
        <ele>62.7</ele>
        <time>2017-04-29T10:22:57</time>
        <extensions><speed>1.52</speed></extensions>
      </trkpt>
      <trkpt lat="51.943161000" lon="7.593667000">
        <ele>62.6</ele>
        <time>2017-04-29T10:22:58</time>
        <extensions><speed>1.48</speed></extensions>
      </trkpt>
      <trkpt lat="51.943161000" lon="7.593688000">
        <ele>62.6</ele>
        <time>2017-04-29T10:22:59</time>
        <extensions><speed>1.52</speed></extensions>
      </trkpt>
      <trkpt lat="51.943165000" lon="7.593711000">
        <ele>62.6</ele>
        <time>2017-04-29T10:23:00</time>
        <extensions><speed>1.62</speed></extensions>
      </trkpt>
      <trkpt lat="51.943172000" lon="7.593735000">
        <ele>62.5</ele>
        <time>2017-04-29T10:23:01</time>
        <extensions><speed>1.62</speed></extensions>
      </trkpt>
      <trkpt lat="51.943172000" lon="7.593758000">
        <ele>62.4</ele>
        <time>2017-04-29T10:23:02</time>
        <extensions><speed>1.71</speed></extensions>
      </trkpt>
      <trkpt lat="51.943176000" lon="7.593783000">
        <ele>62.4</ele>
        <time>2017-04-29T10:23:03</time>
        <extensions><speed>1.76</speed></extensions>
      </trkpt>
      <trkpt lat="51.943180000" lon="7.593803000">
        <ele>62.3</ele>
        <time>2017-04-29T10:23:04</time>
        <extensions><speed>1.70</speed></extensions>
      </trkpt>
      <trkpt lat="51.943184000" lon="7.593822000">
        <ele>62.2</ele>
        <time>2017-04-29T10:23:05</time>
        <extensions><speed>1.61</speed></extensions>
      </trkpt>
      <trkpt lat="51.943184000" lon="7.593845000">
        <ele>62.1</ele>
        <time>2017-04-29T10:23:06</time>
        <extensions><speed>1.61</speed></extensions>
      </trkpt>
      <trkpt lat="51.943188000" lon="7.593868000">
        <ele>62.0</ele>
        <time>2017-04-29T10:23:07</time>
        <extensions><speed>1.57</speed></extensions>
      </trkpt>
      <trkpt lat="51.943192000" lon="7.593886000">
        <ele>61.9</ele>
        <time>2017-04-29T10:23:08</time>
        <extensions><speed>1.55</speed></extensions>
      </trkpt>
      <trkpt lat="51.943203000" lon="7.593902000">
        <ele>61.8</ele>
        <time>2017-04-29T10:23:09</time>
        <extensions><speed>1.44</speed></extensions>
      </trkpt>
      <trkpt lat="51.943211000" lon="7.593908000">
        <ele>61.7</ele>
        <time>2017-04-29T10:23:10</time>
        <extensions><speed>1.44</speed></extensions>
      </trkpt>
      <trkpt lat="51.943218000" lon="7.593912000">
        <ele>61.6</ele>
        <time>2017-04-29T10:23:11</time>
        <extensions><speed>1.47</speed></extensions>
      </trkpt>
      <trkpt lat="51.943233000" lon="7.593912000">
        <ele>61.5</ele>
        <time>2017-04-29T10:23:12</time>
        <extensions><speed>1.36</speed></extensions>
      </trkpt>
      <trkpt lat="51.943233000" lon="7.593905000">
        <ele>61.5</ele>
        <time>2017-04-29T10:23:13</time>
      </trkpt>
      <trkpt lat="51.943237000" lon="7.593892000">
        <ele>61.5</ele>
        <time>2017-04-29T10:23:15</time>
        <extensions><speed>0.76</speed></extensions>
      </trkpt>
      <trkpt lat="51.943333000" lon="7.593769000">
        <ele>62.2</ele>
        <time>2017-04-29T10:23:50</time>
      </trkpt>
      <trkpt lat="51.943344000" lon="7.593753000">
        <ele>62.3</ele>
        <time>2017-04-29T10:23:52</time>
        <extensions><speed>1.26</speed></extensions>
      </trkpt>
      <trkpt lat="51.943352000" lon="7.593742000">
        <ele>62.4</ele>
        <time>2017-04-29T10:23:53</time>
        <extensions><speed>1.34</speed></extensions>
      </trkpt>
      <trkpt lat="51.943363000" lon="7.593727000">
        <ele>62.6</ele>
        <time>2017-04-29T10:23:54</time>
        <extensions><speed>1.48</speed></extensions>
      </trkpt>
      <trkpt lat="51.943371000" lon="7.593710000">
        <ele>62.7</ele>
        <time>2017-04-29T10:23:55</time>
        <extensions><speed>1.48</speed></extensions>
      </trkpt>
      <trkpt lat="51.943375000" lon="7.593697000">
        <ele>62.9</ele>
        <time>2017-04-29T10:23:56</time>
        <extensions><speed>1.38</speed></extensions>
      </trkpt>
      <trkpt lat="51.943378000" lon="7.593680000">
        <ele>63.0</ele>
        <time>2017-04-29T10:23:57</time>
        <extensions><speed>1.20</speed></extensions>
      </trkpt>
      <trkpt lat="51.943378000" lon="7.593660000">
        <ele>63.1</ele>
        <time>2017-04-29T10:23:58</time>
        <extensions><speed>1.24</speed></extensions>
      </trkpt>
      <trkpt lat="51.943386000" lon="7.593639000">
        <ele>63.1</ele>
        <time>2017-04-29T10:23:59</time>
        <extensions><speed>1.17</speed></extensions>
      </trkpt>
      <trkpt lat="51.943394000" lon="7.593618000">
        <ele>63.3</ele>
        <time>2017-04-29T10:24:00</time>
        <extensions><speed>1.19</speed></extensions>
      </trkpt>
      <trkpt lat="51.943401000" lon="7.593595000">
        <ele>63.4</ele>
        <time>2017-04-29T10:24:01</time>
        <extensions><speed>1.36</speed></extensions>
      </trkpt>
      <trkpt lat="51.943405000" lon="7.593570000">
        <ele>63.6</ele>
        <time>2017-04-29T10:24:02</time>
        <extensions><speed>1.38</speed></extensions>
      </trkpt>
      <trkpt lat="51.943413000" lon="7.593546000">
        <ele>63.7</ele>
        <time>2017-04-29T10:24:03</time>
        <extensions><speed>1.30</speed></extensions>
      </trkpt>
      <trkpt lat="51.943413000" lon="7.593527000">
        <ele>63.9</ele>
        <time>2017-04-29T10:24:04</time>
        <extensions><speed>1.30</speed></extensions>
      </trkpt>
      <trkpt lat="51.943420000" lon="7.593504000">
        <ele>64.0</ele>
        <time>2017-04-29T10:24:05</time>
        <extensions><speed>1.28</speed></extensions>
      </trkpt>
      <trkpt lat="51.943424000" lon="7.593488000">
        <ele>64.2</ele>
        <time>2017-04-29T10:24:06</time>
        <extensions><speed>1.18</speed></extensions>
      </trkpt>
      <trkpt lat="51.943432000" lon="7.593467000">
        <ele>64.4</ele>
        <time>2017-04-29T10:24:07</time>
        <extensions><speed>1.12</speed></extensions>
      </trkpt>
      <trkpt lat="51.943436000" lon="7.593445000">
        <ele>64.5</ele>
        <time>2017-04-29T10:24:08</time>
        <extensions><speed>1.22</speed></extensions>
      </trkpt>
      <trkpt lat="51.943439000" lon="7.593423000">
        <ele>64.7</ele>
        <time>2017-04-29T10:24:09</time>
        <extensions><speed>1.20</speed></extensions>
      </trkpt>
      <trkpt lat="51.943443000" lon="7.593400000">
        <ele>64.8</ele>
        <time>2017-04-29T10:24:10</time>
        <extensions><speed>1.25</speed></extensions>
      </trkpt>
      <trkpt lat="51.943447000" lon="7.593377000">
        <ele>64.9</ele>
        <time>2017-04-29T10:24:11</time>
        <extensions><speed>1.32</speed></extensions>
      </trkpt>
      <trkpt lat="51.943451000" lon="7.593352000">
        <ele>65.1</ele>
        <time>2017-04-29T10:24:12</time>
        <extensions><speed>1.32</speed></extensions>
      </trkpt>
      <trkpt lat="51.943451000" lon="7.593328000">
        <ele>65.2</ele>
        <time>2017-04-29T10:24:13</time>
        <extensions><speed>1.26</speed></extensions>
      </trkpt>
      <trkpt lat="51.943459000" lon="7.593308000">
        <ele>65.4</ele>
        <time>2017-04-29T10:24:14</time>
        <extensions><speed>1.25</speed></extensions>
      </trkpt>
      <trkpt lat="51.943462000" lon="7.593287000">
        <ele>65.5</ele>
        <time>2017-04-29T10:24:15</time>
        <extensions><speed>1.26</speed></extensions>
      </trkpt>
      <trkpt lat="51.943470000" lon="7.593266000">
        <ele>65.6</ele>
        <time>2017-04-29T10:24:16</time>
        <extensions><speed>1.25</speed></extensions>
      </trkpt>
      <trkpt lat="51.943478000" lon="7.593252000">
        <ele>65.8</ele>
        <time>2017-04-29T10:24:17</time>
        <extensions><speed>1.25</speed></extensions>
      </trkpt>
      <trkpt lat="51.943481000" lon="7.593235000">
        <ele>65.9</ele>
        <time>2017-04-29T10:24:18</time>
        <extensions><speed>1.16</speed></extensions>
      </trkpt>
      <trkpt lat="51.943489000" lon="7.593210000">
        <ele>66.1</ele>
        <time>2017-04-29T10:24:19</time>
        <extensions><speed>1.18</speed></extensions>
      </trkpt>
      <trkpt lat="51.943497000" lon="7.593191000">
        <ele>66.2</ele>
        <time>2017-04-29T10:24:20</time>
        <extensions><speed>0.99</speed></extensions>
      </trkpt>
      <trkpt lat="51.943501000" lon="7.593174000">
        <ele>66.3</ele>
        <time>2017-04-29T10:24:21</time>
        <extensions><speed>0.98</speed></extensions>
      </trkpt>
      <trkpt lat="51.943504000" lon="7.593150000">
        <ele>66.5</ele>
        <time>2017-04-29T10:24:22</time>
        <extensions><speed>1.16</speed></extensions>
      </trkpt>
      <trkpt lat="51.943508000" lon="7.593130000">
        <ele>66.6</ele>
        <time>2017-04-29T10:24:23</time>
        <extensions><speed>1.32</speed></extensions>
      </trkpt>
      <trkpt lat="51.943508000" lon="7.593109000">
        <ele>66.7</ele>
        <time>2017-04-29T10:24:24</time>
        <extensions><speed>1.27</speed></extensions>
      </trkpt>
      <trkpt lat="51.943508000" lon="7.593086000">
        <ele>66.9</ele>
        <time>2017-04-29T10:24:25</time>
        <extensions><speed>1.27</speed></extensions>
      </trkpt>
      <trkpt lat="51.943512000" lon="7.593063000">
        <ele>67.0</ele>
        <time>2017-04-29T10:24:26</time>
        <extensions><speed>1.29</speed></extensions>
      </trkpt>
      <trkpt lat="51.943512000" lon="7.593042000">
        <ele>67.1</ele>
        <time>2017-04-29T10:24:27</time>
        <extensions><speed>1.27</speed></extensions>
      </trkpt>
      <trkpt lat="51.943516000" lon="7.593018000">
        <ele>67.2</ele>
        <time>2017-04-29T10:24:28</time>
        <extensions><speed>1.29</speed></extensions>
      </trkpt>
      <trkpt lat="51.943520000" lon="7.592997000">
        <ele>67.4</ele>
        <time>2017-04-29T10:24:29</time>
        <extensions><speed>1.26</speed></extensions>
      </trkpt>
      <trkpt lat="51.943520000" lon="7.592975000">
        <ele>67.5</ele>
        <time>2017-04-29T10:24:30</time>
        <extensions><speed>1.32</speed></extensions>
      </trkpt>
      <trkpt lat="51.943523000" lon="7.592951000">
        <ele>67.6</ele>
        <time>2017-04-29T10:24:31</time>
        <extensions><speed>1.31</speed></extensions>
      </trkpt>
      <trkpt lat="51.943523000" lon="7.592930000">
        <ele>67.8</ele>
        <time>2017-04-29T10:24:32</time>
        <extensions><speed>1.33</speed></extensions>
      </trkpt>
      <trkpt lat="51.943527000" lon="7.592911000">
        <ele>67.9</ele>
        <time>2017-04-29T10:24:33</time>
        <extensions><speed>1.29</speed></extensions>
      </trkpt>
      <trkpt lat="51.943531000" lon="7.592893000">
        <ele>68.0</ele>
        <time>2017-04-29T10:24:34</time>
        <extensions><speed>1.29</speed></extensions>
      </trkpt>
      <trkpt lat="51.943535000" lon="7.592878000">
        <ele>68.1</ele>
        <time>2017-04-29T10:24:35</time>
        <extensions><speed>1.28</speed></extensions>
      </trkpt>
      <trkpt lat="51.943539000" lon="7.592858000">
        <ele>68.3</ele>
        <time>2017-04-29T10:24:36</time>
        <extensions><speed>1.28</speed></extensions>
      </trkpt>
      <trkpt lat="51.943542000" lon="7.592841000">
        <ele>68.4</ele>
        <time>2017-04-29T10:24:37</time>
        <extensions><speed>1.23</speed></extensions>
      </trkpt>
      <trkpt lat="51.943542000" lon="7.592828000">
        <ele>68.5</ele>
        <time>2017-04-29T10:24:38</time>
        <extensions><speed>1.17</speed></extensions>
      </trkpt>
      <trkpt lat="51.943546000" lon="7.592812000">
        <ele>68.6</ele>
        <time>2017-04-29T10:24:39</time>
        <extensions><speed>1.12</speed></extensions>
      </trkpt>
      <trkpt lat="51.943554000" lon="7.592792000">
        <ele>68.7</ele>
        <time>2017-04-29T10:24:40</time>
        <extensions><speed>1.16</speed></extensions>
      </trkpt>
      <trkpt lat="51.943562000" lon="7.592773000">
        <ele>68.8</ele>
        <time>2017-04-29T10:24:41</time>
        <extensions><speed>1.16</speed></extensions>
      </trkpt>
      <trkpt lat="51.943569000" lon="7.592757000">
        <ele>68.9</ele>
        <time>2017-04-29T10:24:42</time>
        <extensions><speed>1.13</speed></extensions>
      </trkpt>
      <trkpt lat="51.943577000" lon="7.592741000">
        <ele>69.0</ele>
        <time>2017-04-29T10:24:43</time>
        <extensions><speed>1.21</speed></extensions>
      </trkpt>
      <trkpt lat="51.943581000" lon="7.592725000">
        <ele>69.1</ele>
        <time>2017-04-29T10:24:44</time>
        <extensions><speed>1.22</speed></extensions>
      </trkpt>
      <trkpt lat="51.943588000" lon="7.592705000">
        <ele>69.2</ele>
        <time>2017-04-29T10:24:45</time>
        <extensions><speed>1.25</speed></extensions>
      </trkpt>
      <trkpt lat="51.943596000" lon="7.592683000">
        <ele>69.3</ele>
        <time>2017-04-29T10:24:46</time>
        <extensions><speed>1.25</speed></extensions>
      </trkpt>
      <trkpt lat="51.943604000" lon="7.592664000">
        <ele>69.5</ele>
        <time>2017-04-29T10:24:47</time>
        <extensions><speed>1.28</speed></extensions>
      </trkpt>
      <trkpt lat="51.943607000" lon="7.592641000">
        <ele>69.6</ele>
        <time>2017-04-29T10:24:48</time>
        <extensions><speed>1.31</speed></extensions>
      </trkpt>
      <trkpt lat="51.943607000" lon="7.592617000">
        <ele>69.7</ele>
        <time>2017-04-29T10:24:49</time>
        <extensions><speed>1.40</speed></extensions>
      </trkpt>
      <trkpt lat="51.943615000" lon="7.592596000">
        <ele>69.8</ele>
        <time>2017-04-29T10:24:50</time>
        <extensions><speed>1.39</speed></extensions>
      </trkpt>
      <trkpt lat="51.943626000" lon="7.592582000">
        <ele>69.9</ele>
        <time>2017-04-29T10:24:51</time>
        <extensions><speed>1.28</speed></extensions>
      </trkpt>
      <trkpt lat="51.943634000" lon="7.592565000">
        <ele>70.0</ele>
        <time>2017-04-29T10:24:52</time>
        <extensions><speed>1.13</speed></extensions>
      </trkpt>
      <trkpt lat="51.943638000" lon="7.592545000">
        <ele>70.2</ele>
        <time>2017-04-29T10:24:53</time>
        <extensions><speed>0.96</speed></extensions>
      </trkpt>
      <trkpt lat="51.943642000" lon="7.592527000">
        <ele>70.3</ele>
        <time>2017-04-29T10:24:54</time>
        <extensions><speed>0.96</speed></extensions>
      </trkpt>
      <trkpt lat="51.943642000" lon="7.592503000">
        <ele>70.4</ele>
        <time>2017-04-29T10:24:55</time>
        <extensions><speed>1.02</speed></extensions>
      </trkpt>
      <trkpt lat="51.943642000" lon="7.592482000">
        <ele>70.5</ele>
        <time>2017-04-29T10:24:56</time>
        <extensions><speed>1.15</speed></extensions>
      </trkpt>
      <trkpt lat="51.943642000" lon="7.592461000">
        <ele>70.6</ele>
        <time>2017-04-29T10:24:57</time>
        <extensions><speed>1.22</speed></extensions>
      </trkpt>
      <trkpt lat="51.943642000" lon="7.592445000">
        <ele>70.8</ele>
        <time>2017-04-29T10:24:58</time>
        <extensions><speed>1.22</speed></extensions>
      </trkpt>
      <trkpt lat="51.943642000" lon="7.592428000">
        <ele>70.8</ele>
        <time>2017-04-29T10:24:59</time>
        <extensions><speed>1.26</speed></extensions>
      </trkpt>
      <trkpt lat="51.943645000" lon="7.592407000">
        <ele>70.9</ele>
        <time>2017-04-29T10:25:00</time>
        <extensions><speed>1.26</speed></extensions>
      </trkpt>
      <trkpt lat="51.943649000" lon="7.592387000">
        <ele>71.0</ele>
        <time>2017-04-29T10:25:01</time>
        <extensions><speed>1.26</speed></extensions>
      </trkpt>
      <trkpt lat="51.943649000" lon="7.592367000">
        <ele>71.1</ele>
        <time>2017-04-29T10:25:02</time>
        <extensions><speed>1.25</speed></extensions>
      </trkpt>
      <trkpt lat="51.943649000" lon="7.592350000">
        <ele>71.2</ele>
        <time>2017-04-29T10:25:03</time>
        <extensions><speed>1.22</speed></extensions>
      </trkpt>
      <trkpt lat="51.943649000" lon="7.592330000">
        <ele>71.3</ele>
        <time>2017-04-29T10:25:04</time>
        <extensions><speed>1.26</speed></extensions>
      </trkpt>
      <trkpt lat="51.943645000" lon="7.592307000">
        <ele>71.5</ele>
        <time>2017-04-29T10:25:05</time>
        <extensions><speed>1.32</speed></extensions>
      </trkpt>
      <trkpt lat="51.943642000" lon="7.592288000">
        <ele>71.6</ele>
        <time>2017-04-29T10:25:06</time>
        <extensions><speed>1.16</speed></extensions>
      </trkpt>
      <trkpt lat="51.943642000" lon="7.592274000">
        <ele>71.7</ele>
        <time>2017-04-29T10:25:07</time>
        <extensions><speed>1.20</speed></extensions>
      </trkpt>
      <trkpt lat="51.943645000" lon="7.592255000">
        <ele>71.8</ele>
        <time>2017-04-29T10:25:08</time>
        <extensions><speed>1.29</speed></extensions>
      </trkpt>
      <trkpt lat="51.943649000" lon="7.592237000">
        <ele>71.9</ele>
        <time>2017-04-29T10:25:09</time>
        <extensions><speed>1.27</speed></extensions>
      </trkpt>
      <trkpt lat="51.943661000" lon="7.592225000">
        <ele>72.0</ele>
        <time>2017-04-29T10:25:10</time>
        <extensions><speed>1.19</speed></extensions>
      </trkpt>
      <trkpt lat="51.943672000" lon="7.592218000">
        <ele>72.1</ele>
        <time>2017-04-29T10:25:11</time>
        <extensions><speed>1.20</speed></extensions>
      </trkpt>
      <trkpt lat="51.943676000" lon="7.592214000">
        <ele>72.2</ele>
        <time>2017-04-29T10:25:12</time>
        <extensions><speed>1.20</speed></extensions>
      </trkpt>
      <trkpt lat="51.943684000" lon="7.592204000">
        <ele>72.3</ele>
        <time>2017-04-29T10:25:13</time>
        <extensions><speed>1.12</speed></extensions>
      </trkpt>
      <trkpt lat="51.943687000" lon="7.592195000">
        <ele>72.4</ele>
        <time>2017-04-29T10:25:14</time>
        <extensions><speed>0.98</speed></extensions>
      </trkpt>
      <trkpt lat="51.943691000" lon="7.592183000">
        <ele>72.4</ele>
        <time>2017-04-29T10:25:15</time>
        <extensions><speed>0.96</speed></extensions>
      </trkpt>
      <trkpt lat="51.943703000" lon="7.592175000">
        <ele>72.5</ele>
        <time>2017-04-29T10:25:16</time>
        <extensions><speed>0.96</speed></extensions>
      </trkpt>
      <trkpt lat="51.943710000" lon="7.592168000">
        <ele>72.5</ele>
        <time>2017-04-29T10:25:17</time>
        <extensions><speed>1.09</speed></extensions>
      </trkpt>
      <trkpt lat="51.943722000" lon="7.592164000">
        <ele>72.6</ele>
        <time>2017-04-29T10:25:18</time>
        <extensions><speed>1.02</speed></extensions>
      </trkpt>
      <trkpt lat="51.943729000" lon="7.592156000">
        <ele>72.6</ele>
        <time>2017-04-29T10:25:19</time>
        <extensions><speed>1.11</speed></extensions>
      </trkpt>
      <trkpt lat="51.943737000" lon="7.592150000">
        <ele>72.7</ele>
        <time>2017-04-29T10:25:20</time>
        <extensions><speed>1.13</speed></extensions>
      </trkpt>
      <trkpt lat="51.943745000" lon="7.592148000">
        <ele>72.7</ele>
        <time>2017-04-29T10:25:21</time>
        <extensions><speed>1.04</speed></extensions>
      </trkpt>
      <trkpt lat="51.943752000" lon="7.592144000">
        <ele>72.7</ele>
        <time>2017-04-29T10:25:22</time>
        <extensions><speed>1.05</speed></extensions>
      </trkpt>
      <trkpt lat="51.943768000" lon="7.592135000">
        <ele>72.8</ele>
        <time>2017-04-29T10:25:23</time>
        <extensions><speed>1.22</speed></extensions>
      </trkpt>
      <trkpt lat="51.943779000" lon="7.592122000">
        <ele>72.8</ele>
        <time>2017-04-29T10:25:24</time>
        <extensions><speed>1.22</speed></extensions>
      </trkpt>
      <trkpt lat="51.943794000" lon="7.592105000">
        <ele>72.8</ele>
        <time>2017-04-29T10:25:25</time>
        <extensions><speed>1.21</speed></extensions>
      </trkpt>
      <trkpt lat="51.943794000" lon="7.592107000">
        <ele>72.9</ele>
        <time>2017-04-29T10:25:26</time>
      </trkpt>
      <trkpt lat="51.943806000" lon="7.592105000">
        <ele>73.0</ele>
        <time>2017-04-29T10:25:28</time>
        <extensions><speed>0.94</speed></extensions>
      </trkpt>
      <trkpt lat="51.943817000" lon="7.592097000">
        <ele>73.0</ele>
        <time>2017-04-29T10:25:29</time>
        <extensions><speed>0.87</speed></extensions>
      </trkpt>
      <trkpt lat="51.943829000" lon="7.592088000">
        <ele>73.0</ele>
        <time>2017-04-29T10:25:30</time>
        <extensions><speed>0.89</speed></extensions>
      </trkpt>
      <trkpt lat="51.943840000" lon="7.592076000">
        <ele>73.1</ele>
        <time>2017-04-29T10:25:31</time>
        <extensions><speed>1.12</speed></extensions>
      </trkpt>
      <trkpt lat="51.943851000" lon="7.592067000">
        <ele>73.1</ele>
        <time>2017-04-29T10:25:32</time>
        <extensions><speed>1.18</speed></extensions>
      </trkpt>
      <trkpt lat="51.943863000" lon="7.592057000">
        <ele>73.1</ele>
        <time>2017-04-29T10:25:33</time>
        <extensions><speed>1.18</speed></extensions>
      </trkpt>
      <trkpt lat="51.943874000" lon="7.592046000">
        <ele>73.1</ele>
        <time>2017-04-29T10:25:34</time>
        <extensions><speed>1.18</speed></extensions>
      </trkpt>
      <trkpt lat="51.943882000" lon="7.592039000">
        <ele>73.2</ele>
        <time>2017-04-29T10:25:35</time>
        <extensions><speed>1.16</speed></extensions>
      </trkpt>
      <trkpt lat="51.943893000" lon="7.592035000">
        <ele>73.2</ele>
        <time>2017-04-29T10:25:36</time>
        <extensions><speed>0.99</speed></extensions>
      </trkpt>
      <trkpt lat="51.943901000" lon="7.592030000">
        <ele>73.3</ele>
        <time>2017-04-29T10:25:37</time>
        <extensions><speed>0.86</speed></extensions>
      </trkpt>
      <trkpt lat="51.943913000" lon="7.592021000">
        <ele>73.3</ele>
        <time>2017-04-29T10:25:38</time>
        <extensions><speed>0.86</speed></extensions>
      </trkpt>
      <trkpt lat="51.943924000" lon="7.592013000">
        <ele>73.4</ele>
        <time>2017-04-29T10:25:39</time>
        <extensions><speed>0.79</speed></extensions>
      </trkpt>
      <trkpt lat="51.943935000" lon="7.592008000">
        <ele>73.4</ele>
        <time>2017-04-29T10:25:40</time>
        <extensions><speed>0.86</speed></extensions>
      </trkpt>
      <trkpt lat="51.943943000" lon="7.592004000">
        <ele>73.4</ele>
        <time>2017-04-29T10:25:41</time>
        <extensions><speed>1.03</speed></extensions>
      </trkpt>
      <trkpt lat="51.943962000" lon="7.591999000">
        <ele>73.5</ele>
        <time>2017-04-29T10:25:42</time>
        <extensions><speed>1.16</speed></extensions>
      </trkpt>
      <trkpt lat="51.943974000" lon="7.591992000">
        <ele>73.5</ele>
        <time>2017-04-29T10:25:43</time>
        <extensions><speed>1.03</speed></extensions>
      </trkpt>
      <trkpt lat="51.943985000" lon="7.591987000">
        <ele>73.5</ele>
        <time>2017-04-29T10:25:44</time>
        <extensions><speed>1.06</speed></extensions>
      </trkpt>
      <trkpt lat="51.943996000" lon="7.591985000">
        <ele>73.5</ele>
        <time>2017-04-29T10:25:45</time>
        <extensions><speed>1.11</speed></extensions>
      </trkpt>
      <trkpt lat="51.944000000" lon="7.591983000">
        <ele>73.6</ele>
        <time>2017-04-29T10:25:46</time>
        <extensions><speed>1.06</speed></extensions>
      </trkpt>
      <trkpt lat="51.944016000" lon="7.591978000">
        <ele>73.6</ele>
        <time>2017-04-29T10:25:47</time>
        <extensions><speed>1.06</speed></extensions>
      </trkpt>
      <trkpt lat="51.944031000" lon="7.591975000">
        <ele>73.6</ele>
        <time>2017-04-29T10:25:48</time>
        <extensions><speed>1.12</speed></extensions>
      </trkpt>
      <trkpt lat="51.944046000" lon="7.591969000">
        <ele>73.7</ele>
        <time>2017-04-29T10:25:49</time>
        <extensions><speed>1.16</speed></extensions>
      </trkpt>
      <trkpt lat="51.944061000" lon="7.591964000">
        <ele>73.7</ele>
        <time>2017-04-29T10:25:50</time>
        <extensions><speed>1.20</speed></extensions>
      </trkpt>
      <trkpt lat="51.944069000" lon="7.591962000">
        <ele>73.7</ele>
        <time>2017-04-29T10:25:51</time>
        <extensions><speed>1.20</speed></extensions>
      </trkpt>
      <trkpt lat="51.944080000" lon="7.591964000">
        <ele>73.7</ele>
        <time>2017-04-29T10:25:52</time>
        <extensions><speed>1.24</speed></extensions>
      </trkpt>
      <trkpt lat="51.944096000" lon="7.591969000">
        <ele>73.7</ele>
        <time>2017-04-29T10:25:53</time>
        <extensions><speed>1.29</speed></extensions>
      </trkpt>
      <trkpt lat="51.944107000" lon="7.591970000">
        <ele>73.7</ele>
        <time>2017-04-29T10:25:54</time>
        <extensions><speed>1.25</speed></extensions>
      </trkpt>
      <trkpt lat="51.944122000" lon="7.591973000">
        <ele>73.7</ele>
        <time>2017-04-29T10:25:55</time>
        <extensions><speed>1.26</speed></extensions>
      </trkpt>
      <trkpt lat="51.944130000" lon="7.591983000">
        <ele>73.7</ele>
        <time>2017-04-29T10:25:56</time>
        <extensions><speed>1.30</speed></extensions>
      </trkpt>
      <trkpt lat="51.944145000" lon="7.591992000">
        <ele>73.7</ele>
        <time>2017-04-29T10:25:57</time>
        <extensions><speed>1.30</speed></extensions>
      </trkpt>
      <trkpt lat="51.944160000" lon="7.591999000">
        <ele>73.7</ele>
        <time>2017-04-29T10:25:58</time>
        <extensions><speed>1.27</speed></extensions>
      </trkpt>
      <trkpt lat="51.944172000" lon="7.592006000">
        <ele>73.7</ele>
        <time>2017-04-29T10:25:59</time>
        <extensions><speed>1.27</speed></extensions>
      </trkpt>
      <trkpt lat="51.944183000" lon="7.592018000">
        <ele>73.7</ele>
        <time>2017-04-29T10:26:00</time>
        <extensions><speed>1.23</speed></extensions>
      </trkpt>
      <trkpt lat="51.944195000" lon="7.592029000">
        <ele>73.6</ele>
        <time>2017-04-29T10:26:01</time>
        <extensions><speed>1.23</speed></extensions>
      </trkpt>
      <trkpt lat="51.944202000" lon="7.592041000">
        <ele>73.6</ele>
        <time>2017-04-29T10:26:02</time>
        <extensions><speed>1.26</speed></extensions>
      </trkpt>
      <trkpt lat="51.944206000" lon="7.592053000">
        <ele>73.5</ele>
        <time>2017-04-29T10:26:03</time>
        <extensions><speed>1.26</speed></extensions>
      </trkpt>
      <trkpt lat="51.944202000" lon="7.592074000">
        <ele>73.5</ele>
        <time>2017-04-29T10:26:04</time>
        <extensions><speed>1.11</speed></extensions>
      </trkpt>
      <trkpt lat="51.944202000" lon="7.592086000">
        <ele>73.4</ele>
        <time>2017-04-29T10:26:05</time>
        <extensions><speed>0.96</speed></extensions>
      </trkpt>
      <trkpt lat="51.944206000" lon="7.592097000">
        <ele>73.4</ele>
        <time>2017-04-29T10:26:06</time>
        <extensions><speed>0.83</speed></extensions>
      </trkpt>
      <trkpt lat="51.944210000" lon="7.592110000">
        <ele>73.3</ele>
        <time>2017-04-29T10:26:07</time>
        <extensions><speed>0.83</speed></extensions>
      </trkpt>
      <trkpt lat="51.944214000" lon="7.592134000">
        <ele>73.3</ele>
        <time>2017-04-29T10:26:08</time>
        <extensions><speed>0.97</speed></extensions>
      </trkpt>
      <trkpt lat="51.944214000" lon="7.592153000">
        <ele>73.2</ele>
        <time>2017-04-29T10:26:09</time>
        <extensions><speed>1.08</speed></extensions>
      </trkpt>
      <trkpt lat="51.944218000" lon="7.592168000">
        <ele>73.2</ele>
        <time>2017-04-29T10:26:10</time>
        <extensions><speed>1.08</speed></extensions>
      </trkpt>
      <trkpt lat="51.944225000" lon="7.592179000">
        <ele>73.1</ele>
        <time>2017-04-29T10:26:11</time>
        <extensions><speed>1.17</speed></extensions>
      </trkpt>
      <trkpt lat="51.944229000" lon="7.592190000">
        <ele>73.1</ele>
        <time>2017-04-29T10:26:12</time>
        <extensions><speed>1.06</speed></extensions>
      </trkpt>
      <trkpt lat="51.944241000" lon="7.592204000">
        <ele>73.1</ele>
        <time>2017-04-29T10:26:13</time>
        <extensions><speed>1.03</speed></extensions>
      </trkpt>
      <trkpt lat="51.944248000" lon="7.592220000">
        <ele>73.0</ele>
        <time>2017-04-29T10:26:14</time>
        <extensions><speed>1.09</speed></extensions>
      </trkpt>
      <trkpt lat="51.944256000" lon="7.592233000">
        <ele>73.0</ele>
        <time>2017-04-29T10:26:15</time>
        <extensions><speed>1.21</speed></extensions>
      </trkpt>
      <trkpt lat="51.944260000" lon="7.592251000">
        <ele>72.9</ele>
        <time>2017-04-29T10:26:16</time>
        <extensions><speed>1.26</speed></extensions>
      </trkpt>
      <trkpt lat="51.944263000" lon="7.592270000">
        <ele>72.9</ele>
        <time>2017-04-29T10:26:17</time>
        <extensions><speed>1.34</speed></extensions>
      </trkpt>
      <trkpt lat="51.944271000" lon="7.592280000">
        <ele>72.8</ele>
        <time>2017-04-29T10:26:18</time>
        <extensions><speed>1.38</speed></extensions>
      </trkpt>
      <trkpt lat="51.944275000" lon="7.592290000">
        <ele>72.8</ele>
        <time>2017-04-29T10:26:19</time>
        <extensions><speed>1.38</speed></extensions>
      </trkpt>
      <trkpt lat="51.944275000" lon="7.592303000">
        <ele>72.7</ele>
        <time>2017-04-29T10:26:20</time>
        <extensions><speed>1.34</speed></extensions>
      </trkpt>
      <trkpt lat="51.944279000" lon="7.592314000">
        <ele>72.7</ele>
        <time>2017-04-29T10:26:21</time>
        <extensions><speed>1.28</speed></extensions>
      </trkpt>
      <trkpt lat="51.944275000" lon="7.592327000">
        <ele>72.6</ele>
        <time>2017-04-29T10:26:22</time>
        <extensions><speed>1.26</speed></extensions>
      </trkpt>
      <trkpt lat="51.944279000" lon="7.592343000">
        <ele>72.6</ele>
        <time>2017-04-29T10:26:23</time>
        <extensions><speed>1.26</speed></extensions>
      </trkpt>
      <trkpt lat="51.944286000" lon="7.592361000">
        <ele>72.5</ele>
        <time>2017-04-29T10:26:24</time>
        <extensions><speed>1.34</speed></extensions>
      </trkpt>
      <trkpt lat="51.944294000" lon="7.592379000">
        <ele>72.5</ele>
        <time>2017-04-29T10:26:25</time>
        <extensions><speed>1.34</speed></extensions>
      </trkpt>
      <trkpt lat="51.944298000" lon="7.592393000">
        <ele>72.4</ele>
        <time>2017-04-29T10:26:26</time>
        <extensions><speed>1.34</speed></extensions>
      </trkpt>
      <trkpt lat="51.944302000" lon="7.592408000">
        <ele>72.4</ele>
        <time>2017-04-29T10:26:27</time>
        <extensions><speed>1.34</speed></extensions>
      </trkpt>
      <trkpt lat="51.944305000" lon="7.592424000">
        <ele>72.3</ele>
        <time>2017-04-29T10:26:28</time>
        <extensions><speed>1.22</speed></extensions>
      </trkpt>
      <trkpt lat="51.944313000" lon="7.592442000">
        <ele>72.3</ele>
        <time>2017-04-29T10:26:29</time>
        <extensions><speed>1.22</speed></extensions>
      </trkpt>
      <trkpt lat="51.944313000" lon="7.592457000">
        <ele>72.2</ele>
        <time>2017-04-29T10:26:30</time>
        <extensions><speed>1.26</speed></extensions>
      </trkpt>
      <trkpt lat="51.944309000" lon="7.592480000">
        <ele>72.2</ele>
        <time>2017-04-29T10:26:31</time>
        <extensions><speed>1.31</speed></extensions>
      </trkpt>
      <trkpt lat="51.944305000" lon="7.592498000">
        <ele>72.1</ele>
        <time>2017-04-29T10:26:32</time>
        <extensions><speed>1.34</speed></extensions>
      </trkpt>
      <trkpt lat="51.944305000" lon="7.592512000">
        <ele>72.0</ele>
        <time>2017-04-29T10:26:33</time>
        <extensions><speed>1.34</speed></extensions>
      </trkpt>
      <trkpt lat="51.944309000" lon="7.592530000">
        <ele>72.0</ele>
        <time>2017-04-29T10:26:34</time>
        <extensions><speed>1.29</speed></extensions>
      </trkpt>
      <trkpt lat="51.944309000" lon="7.592548000">
        <ele>71.9</ele>
        <time>2017-04-29T10:26:35</time>
        <extensions><speed>1.17</speed></extensions>
      </trkpt>
      <trkpt lat="51.944309000" lon="7.592563000">
        <ele>71.9</ele>
        <time>2017-04-29T10:26:36</time>
        <extensions><speed>1.10</speed></extensions>
      </trkpt>
      <trkpt lat="51.944309000" lon="7.592580000">
        <ele>71.8</ele>
        <time>2017-04-29T10:26:37</time>
        <extensions><speed>1.06</speed></extensions>
      </trkpt>
      <trkpt lat="51.944305000" lon="7.592600000">
        <ele>71.8</ele>
        <time>2017-04-29T10:26:38</time>
        <extensions><speed>1.13</speed></extensions>
      </trkpt>
      <trkpt lat="51.944309000" lon="7.592617000">
        <ele>71.7</ele>
        <time>2017-04-29T10:26:39</time>
        <extensions><speed>1.06</speed></extensions>
      </trkpt>
      <trkpt lat="51.944309000" lon="7.592625000">
        <ele>71.6</ele>
        <time>2017-04-29T10:26:40</time>
        <extensions><speed>1.03</speed></extensions>
      </trkpt>
      <trkpt lat="51.944309000" lon="7.592633000">
        <ele>71.6</ele>
        <time>2017-04-29T10:26:41</time>
        <extensions><speed>1.00</speed></extensions>
      </trkpt>
      <trkpt lat="51.944309000" lon="7.592643000">
        <ele>71.5</ele>
        <time>2017-04-29T10:26:42</time>
        <extensions><speed>0.99</speed></extensions>
      </trkpt>
      <trkpt lat="51.944305000" lon="7.592650000">
        <ele>71.5</ele>
        <time>2017-04-29T10:26:43</time>
        <extensions><speed>0.90</speed></extensions>
      </trkpt>
      <trkpt lat="51.944305000" lon="7.592664000">
        <ele>71.4</ele>
        <time>2017-04-29T10:26:44</time>
        <extensions><speed>0.99</speed></extensions>
      </trkpt>
      <trkpt lat="51.944313000" lon="7.592677000">
        <ele>71.4</ele>
        <time>2017-04-29T10:26:45</time>
        <extensions><speed>1.06</speed></extensions>
      </trkpt>
      <trkpt lat="51.944321000" lon="7.592693000">
        <ele>71.4</ele>
        <time>2017-04-29T10:26:46</time>
        <extensions><speed>1.13</speed></extensions>
      </trkpt>
      <trkpt lat="51.944324000" lon="7.592710000">
        <ele>71.3</ele>
        <time>2017-04-29T10:26:47</time>
        <extensions><speed>1.22</speed></extensions>
      </trkpt>
      <trkpt lat="51.944336000" lon="7.592723000">
        <ele>71.3</ele>
        <time>2017-04-29T10:26:48</time>
        <extensions><speed>1.32</speed></extensions>
      </trkpt>
      <trkpt lat="51.944340000" lon="7.592736000">
        <ele>71.2</ele>
        <time>2017-04-29T10:26:49</time>
        <extensions><speed>1.31</speed></extensions>
      </trkpt>
      <trkpt lat="51.944340000" lon="7.592743000">
        <ele>71.2</ele>
        <time>2017-04-29T10:26:50</time>
      </trkpt>
      <trkpt lat="51.944344000" lon="7.592753000">
        <ele>71.1</ele>
        <time>2017-04-29T10:26:52</time>
        <extensions><speed>0.89</speed></extensions>
      </trkpt>
      <trkpt lat="51.944344000" lon="7.592755000">
        <ele>71.1</ele>
        <time>2017-04-29T10:26:53</time>
        <extensions><speed>0.66</speed></extensions>
      </trkpt>
      <trkpt lat="51.944351000" lon="7.592763000">
        <ele>71.1</ele>
        <time>2017-04-29T10:26:54</time>
        <extensions><speed>0.56</speed></extensions>
      </trkpt>
      <trkpt lat="51.944359000" lon="7.592775000">
        <ele>71.0</ele>
        <time>2017-04-29T10:26:55</time>
        <extensions><speed>0.79</speed></extensions>
      </trkpt>
      <trkpt lat="51.944359000" lon="7.592787000">
        <ele>71.0</ele>
        <time>2017-04-29T10:26:56</time>
        <extensions><speed>0.77</speed></extensions>
      </trkpt>
      <trkpt lat="51.944366000" lon="7.592797000">
        <ele>71.0</ele>
        <time>2017-04-29T10:26:57</time>
        <extensions><speed>0.94</speed></extensions>
      </trkpt>
      <trkpt lat="51.944370000" lon="7.592810000">
        <ele>71.0</ele>
        <time>2017-04-29T10:26:58</time>
        <extensions><speed>0.94</speed></extensions>
      </trkpt>
      <trkpt lat="51.944370000" lon="7.592824000">
        <ele>71.0</ele>
        <time>2017-04-29T10:26:59</time>
        <extensions><speed>0.92</speed></extensions>
      </trkpt>
      <trkpt lat="51.944378000" lon="7.592839000">
        <ele>70.9</ele>
        <time>2017-04-29T10:27:00</time>
        <extensions><speed>0.90</speed></extensions>
      </trkpt>
      <trkpt lat="51.944382000" lon="7.592855000">
        <ele>70.9</ele>
        <time>2017-04-29T10:27:01</time>
        <extensions><speed>0.89</speed></extensions>
      </trkpt>
      <trkpt lat="51.944389000" lon="7.592867000">
        <ele>70.9</ele>
        <time>2017-04-29T10:27:02</time>
        <extensions><speed>0.74</speed></extensions>
      </trkpt>
      <trkpt lat="51.944389000" lon="7.592872000">
        <ele>70.9</ele>
        <time>2017-04-29T10:27:03</time>
        <extensions><speed>0.79</speed></extensions>
      </trkpt>
      <trkpt lat="51.944389000" lon="7.592878000">
        <ele>70.8</ele>
        <time>2017-04-29T10:27:04</time>
      </trkpt>
      <trkpt lat="51.944393000" lon="7.592895000">
        <ele>70.7</ele>
        <time>2017-04-29T10:27:06</time>
        <extensions><speed>0.57</speed></extensions>
      </trkpt>
      <trkpt lat="51.944401000" lon="7.592913000">
        <ele>70.7</ele>
        <time>2017-04-29T10:27:07</time>
        <extensions><speed>0.80</speed></extensions>
      </trkpt>
      <trkpt lat="51.944412000" lon="7.592925000">
        <ele>70.7</ele>
        <time>2017-04-29T10:27:08</time>
        <extensions><speed>0.93</speed></extensions>
      </trkpt>
      <trkpt lat="51.944416000" lon="7.592938000">
        <ele>70.7</ele>
        <time>2017-04-29T10:27:09</time>
        <extensions><speed>1.07</speed></extensions>
      </trkpt>
      <trkpt lat="51.944420000" lon="7.592950000">
        <ele>70.6</ele>
        <time>2017-04-29T10:27:10</time>
        <extensions><speed>1.07</speed></extensions>
      </trkpt>
      <trkpt lat="51.944424000" lon="7.592965000">
        <ele>70.6</ele>
        <time>2017-04-29T10:27:11</time>
        <extensions><speed>1.01</speed></extensions>
      </trkpt>
      <trkpt lat="51.944424000" lon="7.592979000">
        <ele>70.6</ele>
        <time>2017-04-29T10:27:12</time>
        <extensions><speed>0.90</speed></extensions>
      </trkpt>
      <trkpt lat="51.944427000" lon="7.592985000">
        <ele>70.5</ele>
        <time>2017-04-29T10:27:13</time>
      </trkpt>
      <trkpt lat="51.944435000" lon="7.592997000">
        <ele>70.5</ele>
        <time>2017-04-29T10:27:15</time>
        <extensions><speed>0.79</speed></extensions>
      </trkpt>
      <trkpt lat="51.944443000" lon="7.593012000">
        <ele>70.4</ele>
        <time>2017-04-29T10:27:16</time>
        <extensions><speed>0.83</speed></extensions>
      </trkpt>
      <trkpt lat="51.944454000" lon="7.593030000">
        <ele>70.4</ele>
        <time>2017-04-29T10:27:17</time>
        <extensions><speed>1.09</speed></extensions>
      </trkpt>
      <trkpt lat="51.944454000" lon="7.593042000">
        <ele>70.4</ele>
        <time>2017-04-29T10:27:18</time>
        <extensions><speed>1.09</speed></extensions>
      </trkpt>
      <trkpt lat="51.944458000" lon="7.593053000">
        <ele>70.3</ele>
        <time>2017-04-29T10:27:19</time>
        <extensions><speed>1.15</speed></extensions>
      </trkpt>
      <trkpt lat="51.944469000" lon="7.593069000">
        <ele>70.3</ele>
        <time>2017-04-29T10:27:20</time>
        <extensions><speed>1.17</speed></extensions>
      </trkpt>
      <trkpt lat="51.944481000" lon="7.593085000">
        <ele>70.3</ele>
        <time>2017-04-29T10:27:21</time>
        <extensions><speed>1.16</speed></extensions>
      </trkpt>
      <trkpt lat="51.944492000" lon="7.593102000">
        <ele>70.3</ele>
        <time>2017-04-29T10:27:22</time>
        <extensions><speed>1.16</speed></extensions>
      </trkpt>
      <trkpt lat="51.944504000" lon="7.593113000">
        <ele>70.2</ele>
        <time>2017-04-29T10:27:23</time>
        <extensions><speed>1.16</speed></extensions>
      </trkpt>
      <trkpt lat="51.944515000" lon="7.593126000">
        <ele>70.2</ele>
        <time>2017-04-29T10:27:24</time>
        <extensions><speed>1.28</speed></extensions>
      </trkpt>
      <trkpt lat="51.944523000" lon="7.593137000">
        <ele>70.1</ele>
        <time>2017-04-29T10:27:25</time>
        <extensions><speed>1.13</speed></extensions>
      </trkpt>
      <trkpt lat="51.944527000" lon="7.593147000">
        <ele>70.1</ele>
        <time>2017-04-29T10:27:26</time>
        <extensions><speed>1.12</speed></extensions>
      </trkpt>
      <trkpt lat="51.944538000" lon="7.593162000">
        <ele>70.1</ele>
        <time>2017-04-29T10:27:27</time>
        <extensions><speed>1.07</speed></extensions>
      </trkpt>
      <trkpt lat="51.944550000" lon="7.593175000">
        <ele>70.0</ele>
        <time>2017-04-29T10:27:28</time>
        <extensions><speed>1.26</speed></extensions>
      </trkpt>
      <trkpt lat="51.944561000" lon="7.593191000">
        <ele>70.0</ele>
        <time>2017-04-29T10:27:29</time>
        <extensions><speed>1.31</speed></extensions>
      </trkpt>
      <trkpt lat="51.944576000" lon="7.593208000">
        <ele>70.0</ele>
        <time>2017-04-29T10:27:30</time>
        <extensions><speed>1.36</speed></extensions>
      </trkpt>
      <trkpt lat="51.944584000" lon="7.593220000">
        <ele>70.0</ele>
        <time>2017-04-29T10:27:31</time>
        <extensions><speed>1.35</speed></extensions>
      </trkpt>
      <trkpt lat="51.944595000" lon="7.593226000">
        <ele>70.0</ele>
        <time>2017-04-29T10:27:32</time>
        <extensions><speed>1.32</speed></extensions>
      </trkpt>
      <trkpt lat="51.944607000" lon="7.593235000">
        <ele>69.9</ele>
        <time>2017-04-29T10:27:33</time>
        <extensions><speed>1.17</speed></extensions>
      </trkpt>
      <trkpt lat="51.944618000" lon="7.593247000">
        <ele>69.9</ele>
        <time>2017-04-29T10:27:34</time>
        <extensions><speed>1.08</speed></extensions>
      </trkpt>
      <trkpt lat="51.944626000" lon="7.593259000">
        <ele>69.9</ele>
        <time>2017-04-29T10:27:35</time>
        <extensions><speed>1.08</speed></extensions>
      </trkpt>
      <trkpt lat="51.944641000" lon="7.593273000">
        <ele>69.9</ele>
        <time>2017-04-29T10:27:36</time>
        <extensions><speed>1.14</speed></extensions>
      </trkpt>
      <trkpt lat="51.944653000" lon="7.593288000">
        <ele>69.8</ele>
        <time>2017-04-29T10:27:37</time>
        <extensions><speed>1.19</speed></extensions>
      </trkpt>
      <trkpt lat="51.944660000" lon="7.593300000">
        <ele>69.8</ele>
        <time>2017-04-29T10:27:38</time>
        <extensions><speed>1.24</speed></extensions>
      </trkpt>
      <trkpt lat="51.944668000" lon="7.593313000">
        <ele>69.8</ele>
        <time>2017-04-29T10:27:39</time>
        <extensions><speed>1.24</speed></extensions>
      </trkpt>
      <trkpt lat="51.944675000" lon="7.593328000">
        <ele>69.8</ele>
        <time>2017-04-29T10:27:40</time>
        <extensions><speed>1.19</speed></extensions>
      </trkpt>
      <trkpt lat="51.944679000" lon="7.593343000">
        <ele>69.8</ele>
        <time>2017-04-29T10:27:41</time>
        <extensions><speed>1.19</speed></extensions>
      </trkpt>
      <trkpt lat="51.944683000" lon="7.593359000">
        <ele>69.8</ele>
        <time>2017-04-29T10:27:42</time>
        <extensions><speed>1.10</speed></extensions>
      </trkpt>
      <trkpt lat="51.944695000" lon="7.593368000">
        <ele>69.8</ele>
        <time>2017-04-29T10:27:43</time>
        <extensions><speed>1.13</speed></extensions>
      </trkpt>
      <trkpt lat="51.944710000" lon="7.593385000">
        <ele>69.7</ele>
        <time>2017-04-29T10:27:44</time>
        <extensions><speed>1.20</speed></extensions>
      </trkpt>
      <trkpt lat="51.944717000" lon="7.593397000">
        <ele>69.7</ele>
        <time>2017-04-29T10:27:45</time>
        <extensions><speed>1.28</speed></extensions>
      </trkpt>
      <trkpt lat="51.944721000" lon="7.593413000">
        <ele>69.7</ele>
        <time>2017-04-29T10:27:46</time>
        <extensions><speed>1.26</speed></extensions>
      </trkpt>
      <trkpt lat="51.944729000" lon="7.593431000">
        <ele>69.7</ele>
        <time>2017-04-29T10:27:47</time>
        <extensions><speed>1.26</speed></extensions>
      </trkpt>
      <trkpt lat="51.944733000" lon="7.593441000">
        <ele>69.6</ele>
        <time>2017-04-29T10:27:48</time>
        <extensions><speed>1.17</speed></extensions>
      </trkpt>
      <trkpt lat="51.944744000" lon="7.593453000">
        <ele>69.6</ele>
        <time>2017-04-29T10:27:49</time>
        <extensions><speed>1.20</speed></extensions>
      </trkpt>
      <trkpt lat="51.944752000" lon="7.593467000">
        <ele>69.6</ele>
        <time>2017-04-29T10:27:50</time>
        <extensions><speed>1.21</speed></extensions>
      </trkpt>
      <trkpt lat="51.944759000" lon="7.593480000">
        <ele>69.6</ele>
        <time>2017-04-29T10:27:51</time>
        <extensions><speed>1.18</speed></extensions>
      </trkpt>
      <trkpt lat="51.944771000" lon="7.593493000">
        <ele>69.5</ele>
        <time>2017-04-29T10:27:52</time>
        <extensions><speed>1.29</speed></extensions>
      </trkpt>
      <trkpt lat="51.944782000" lon="7.593502000">
        <ele>69.5</ele>
        <time>2017-04-29T10:27:53</time>
        <extensions><speed>1.30</speed></extensions>
      </trkpt>
      <trkpt lat="51.944798000" lon="7.593513000">
        <ele>69.4</ele>
        <time>2017-04-29T10:27:54</time>
        <extensions><speed>1.29</speed></extensions>
      </trkpt>
      <trkpt lat="51.944805000" lon="7.593530000">
        <ele>69.4</ele>
        <time>2017-04-29T10:27:55</time>
        <extensions><speed>1.29</speed></extensions>
      </trkpt>
      <trkpt lat="51.944813000" lon="7.593546000">
        <ele>69.3</ele>
        <time>2017-04-29T10:27:56</time>
        <extensions><speed>1.29</speed></extensions>
      </trkpt>
      <trkpt lat="51.944820000" lon="7.593560000">
        <ele>69.3</ele>
        <time>2017-04-29T10:27:57</time>
        <extensions><speed>1.20</speed></extensions>
      </trkpt>
      <trkpt lat="51.944828000" lon="7.593572000">
        <ele>69.2</ele>
        <time>2017-04-29T10:27:58</time>
        <extensions><speed>1.18</speed></extensions>
      </trkpt>
      <trkpt lat="51.944839000" lon="7.593583000">
        <ele>69.1</ele>
        <time>2017-04-29T10:27:59</time>
        <extensions><speed>1.24</speed></extensions>
      </trkpt>
      <trkpt lat="51.944847000" lon="7.593597000">
        <ele>69.0</ele>
        <time>2017-04-29T10:28:00</time>
        <extensions><speed>1.17</speed></extensions>
      </trkpt>
      <trkpt lat="51.944851000" lon="7.593610000">
        <ele>69.0</ele>
        <time>2017-04-29T10:28:01</time>
        <extensions><speed>1.17</speed></extensions>
      </trkpt>
      <trkpt lat="51.944862000" lon="7.593620000">
        <ele>69.0</ele>
        <time>2017-04-29T10:28:02</time>
        <extensions><speed>1.18</speed></extensions>
      </trkpt>
      <trkpt lat="51.944874000" lon="7.593632000">
        <ele>68.9</ele>
        <time>2017-04-29T10:28:03</time>
        <extensions><speed>1.28</speed></extensions>
      </trkpt>
      <trkpt lat="51.944881000" lon="7.593643000">
        <ele>68.8</ele>
        <time>2017-04-29T10:28:04</time>
        <extensions><speed>1.20</speed></extensions>
      </trkpt>
      <trkpt lat="51.944889000" lon="7.593657000">
        <ele>68.8</ele>
        <time>2017-04-29T10:28:05</time>
        <extensions><speed>1.22</speed></extensions>
      </trkpt>
      <trkpt lat="51.944996000" lon="7.593660000">
        <ele>68.2</ele>
        <time>2017-04-29T10:40:08</time>
      </trkpt>
      <trkpt lat="51.945004000" lon="7.593670000">
        <ele>68.2</ele>
        <time>2017-04-29T10:40:09</time>
        <extensions><speed>0.82</speed></extensions>
      </trkpt>
      <trkpt lat="51.945011000" lon="7.593678000">
        <ele>68.2</ele>
        <time>2017-04-29T10:40:10</time>
        <extensions><speed>0.85</speed></extensions>
      </trkpt>
      <trkpt lat="51.945019000" lon="7.593676000">
        <ele>68.2</ele>
        <time>2017-04-29T10:40:11</time>
        <extensions><speed>0.78</speed></extensions>
      </trkpt>
      <trkpt lat="51.945030000" lon="7.593680000">
        <ele>68.2</ele>
        <time>2017-04-29T10:40:12</time>
        <extensions><speed>0.87</speed></extensions>
      </trkpt>
      <trkpt lat="51.945038000" lon="7.593680000">
        <ele>68.1</ele>
        <time>2017-04-29T10:40:13</time>
        <extensions><speed>0.98</speed></extensions>
      </trkpt>
      <trkpt lat="51.945049000" lon="7.593680000">
        <ele>68.1</ele>
        <time>2017-04-29T10:40:14</time>
        <extensions><speed>1.01</speed></extensions>
      </trkpt>
      <trkpt lat="51.945068000" lon="7.593681000">
        <ele>68.1</ele>
        <time>2017-04-29T10:40:15</time>
        <extensions><speed>1.11</speed></extensions>
      </trkpt>
      <trkpt lat="51.945084000" lon="7.593688000">
        <ele>68.0</ele>
        <time>2017-04-29T10:40:16</time>
        <extensions><speed>1.25</speed></extensions>
      </trkpt>
      <trkpt lat="51.945099000" lon="7.593697000">
        <ele>68.0</ele>
        <time>2017-04-29T10:40:17</time>
        <extensions><speed>1.38</speed></extensions>
      </trkpt>
      <trkpt lat="51.945110000" lon="7.593704000">
        <ele>68.0</ele>
        <time>2017-04-29T10:40:18</time>
        <extensions><speed>1.45</speed></extensions>
      </trkpt>
      <trkpt lat="51.945126000" lon="7.593705000">
        <ele>67.9</ele>
        <time>2017-04-29T10:40:19</time>
        <extensions><speed>1.45</speed></extensions>
      </trkpt>
      <trkpt lat="51.945141000" lon="7.593710000">
        <ele>67.9</ele>
        <time>2017-04-29T10:40:20</time>
        <extensions><speed>1.44</speed></extensions>
      </trkpt>
      <trkpt lat="51.945152000" lon="7.593711000">
        <ele>67.8</ele>
        <time>2017-04-29T10:40:21</time>
        <extensions><speed>1.43</speed></extensions>
      </trkpt>
      <trkpt lat="51.945164000" lon="7.593715000">
        <ele>67.8</ele>
        <time>2017-04-29T10:40:22</time>
        <extensions><speed>1.41</speed></extensions>
      </trkpt>
      <trkpt lat="51.945175000" lon="7.593720000">
        <ele>67.7</ele>
        <time>2017-04-29T10:40:23</time>
        <extensions><speed>1.37</speed></extensions>
      </trkpt>
      <trkpt lat="51.945190000" lon="7.593725000">
        <ele>67.7</ele>
        <time>2017-04-29T10:40:24</time>
        <extensions><speed>1.41</speed></extensions>
      </trkpt>
      <trkpt lat="51.945206000" lon="7.593730000">
        <ele>67.6</ele>
        <time>2017-04-29T10:40:25</time>
        <extensions><speed>1.46</speed></extensions>
      </trkpt>
      <trkpt lat="51.945221000" lon="7.593735000">
        <ele>67.6</ele>
        <time>2017-04-29T10:40:26</time>
        <extensions><speed>1.46</speed></extensions>
      </trkpt>
      <trkpt lat="51.945236000" lon="7.593742000">
        <ele>67.6</ele>
        <time>2017-04-29T10:40:27</time>
        <extensions><speed>1.46</speed></extensions>
      </trkpt>
      <trkpt lat="51.945244000" lon="7.593748000">
        <ele>67.5</ele>
        <time>2017-04-29T10:40:28</time>
        <extensions><speed>1.47</speed></extensions>
      </trkpt>
      <trkpt lat="51.945255000" lon="7.593753000">
        <ele>67.5</ele>
        <time>2017-04-29T10:40:29</time>
        <extensions><speed>1.37</speed></extensions>
      </trkpt>
      <trkpt lat="51.945271000" lon="7.593760000">
        <ele>67.4</ele>
        <time>2017-04-29T10:40:30</time>
        <extensions><speed>1.36</speed></extensions>
      </trkpt>
      <trkpt lat="51.945282000" lon="7.593767000">
        <ele>67.4</ele>
        <time>2017-04-29T10:40:31</time>
        <extensions><speed>1.39</speed></extensions>
      </trkpt>
      <trkpt lat="51.945297000" lon="7.593777000">
        <ele>67.3</ele>
        <time>2017-04-29T10:40:32</time>
        <extensions><speed>1.39</speed></extensions>
      </trkpt>
      <trkpt lat="51.945309000" lon="7.593785000">
        <ele>67.3</ele>
        <time>2017-04-29T10:40:33</time>
        <extensions><speed>1.43</speed></extensions>
      </trkpt>
      <trkpt lat="51.945324000" lon="7.593791000">
        <ele>67.2</ele>
        <time>2017-04-29T10:40:34</time>
        <extensions><speed>1.43</speed></extensions>
      </trkpt>
      <trkpt lat="51.945335000" lon="7.593800000">
        <ele>67.2</ele>
        <time>2017-04-29T10:40:35</time>
        <extensions><speed>1.51</speed></extensions>
      </trkpt>
      <trkpt lat="51.945351000" lon="7.593810000">
        <ele>67.1</ele>
        <time>2017-04-29T10:40:36</time>
        <extensions><speed>1.57</speed></extensions>
      </trkpt>
      <trkpt lat="51.945366000" lon="7.593816000">
        <ele>67.1</ele>
        <time>2017-04-29T10:40:37</time>
        <extensions><speed>1.50</speed></extensions>
      </trkpt>
      <trkpt lat="51.945374000" lon="7.593822000">
        <ele>67.1</ele>
        <time>2017-04-29T10:40:38</time>
        <extensions><speed>1.46</speed></extensions>
      </trkpt>
      <trkpt lat="51.945389000" lon="7.593828000">
        <ele>67.0</ele>
        <time>2017-04-29T10:40:39</time>
        <extensions><speed>1.50</speed></extensions>
      </trkpt>
      <trkpt lat="51.945400000" lon="7.593835000">
        <ele>67.0</ele>
        <time>2017-04-29T10:40:40</time>
        <extensions><speed>1.40</speed></extensions>
      </trkpt>
      <trkpt lat="51.945412000" lon="7.593840000">
        <ele>66.9</ele>
        <time>2017-04-29T10:40:41</time>
        <extensions><speed>1.36</speed></extensions>
      </trkpt>
      <trkpt lat="51.945427000" lon="7.593851000">
        <ele>66.9</ele>
        <time>2017-04-29T10:40:42</time>
        <extensions><speed>1.42</speed></extensions>
      </trkpt>
      <trkpt lat="51.945446000" lon="7.593874000">
        <ele>66.8</ele>
        <time>2017-04-29T10:40:44</time>
        <extensions><speed>1.39</speed></extensions>
      </trkpt>
      <trkpt lat="51.945461000" lon="7.593884000">
        <ele>66.7</ele>
        <time>2017-04-29T10:40:45</time>
        <extensions><speed>1.41</speed></extensions>
      </trkpt>
      <trkpt lat="51.945469000" lon="7.593893000">
        <ele>66.7</ele>
        <time>2017-04-29T10:40:46</time>
        <extensions><speed>1.39</speed></extensions>
      </trkpt>
      <trkpt lat="51.945484000" lon="7.593905000">
        <ele>66.6</ele>
        <time>2017-04-29T10:40:47</time>
        <extensions><speed>1.39</speed></extensions>
      </trkpt>
      <trkpt lat="51.945492000" lon="7.593917000">
        <ele>66.6</ele>
        <time>2017-04-29T10:40:48</time>
        <extensions><speed>1.39</speed></extensions>
      </trkpt>
      <trkpt lat="51.945499000" lon="7.593926000">
        <ele>66.5</ele>
        <time>2017-04-29T10:40:49</time>
        <extensions><speed>1.39</speed></extensions>
      </trkpt>
      <trkpt lat="51.945511000" lon="7.593938000">
        <ele>66.4</ele>
        <time>2017-04-29T10:40:50</time>
        <extensions><speed>1.34</speed></extensions>
      </trkpt>
      <trkpt lat="51.945526000" lon="7.593945000">
        <ele>66.4</ele>
        <time>2017-04-29T10:40:51</time>
        <extensions><speed>1.40</speed></extensions>
      </trkpt>
      <trkpt lat="51.945534000" lon="7.593954000">
        <ele>66.3</ele>
        <time>2017-04-29T10:40:52</time>
        <extensions><speed>1.39</speed></extensions>
      </trkpt>
      <trkpt lat="51.945545000" lon="7.593965000">
        <ele>66.2</ele>
        <time>2017-04-29T10:40:53</time>
        <extensions><speed>1.43</speed></extensions>
      </trkpt>
      <trkpt lat="51.945557000" lon="7.593977000">
        <ele>66.1</ele>
        <time>2017-04-29T10:40:54</time>
        <extensions><speed>1.38</speed></extensions>
      </trkpt>
      <trkpt lat="51.945564000" lon="7.593989000">
        <ele>66.1</ele>
        <time>2017-04-29T10:40:55</time>
        <extensions><speed>1.40</speed></extensions>
      </trkpt>
      <trkpt lat="51.945572000" lon="7.594005000">
        <ele>66.0</ele>
        <time>2017-04-29T10:40:56</time>
        <extensions><speed>1.40</speed></extensions>
      </trkpt>
      <trkpt lat="51.945583000" lon="7.594018000">
        <ele>65.9</ele>
        <time>2017-04-29T10:40:57</time>
        <extensions><speed>1.38</speed></extensions>
      </trkpt>
      <trkpt lat="51.945591000" lon="7.594030000">
        <ele>65.9</ele>
        <time>2017-04-29T10:40:58</time>
        <extensions><speed>1.36</speed></extensions>
      </trkpt>
      <trkpt lat="51.945599000" lon="7.594040000">
        <ele>65.8</ele>
        <time>2017-04-29T10:40:59</time>
        <extensions><speed>1.39</speed></extensions>
      </trkpt>
      <trkpt lat="51.945610000" lon="7.594054000">
        <ele>65.7</ele>
        <time>2017-04-29T10:41:00</time>
        <extensions><speed>1.41</speed></extensions>
      </trkpt>
      <trkpt lat="51.945625000" lon="7.594070000">
        <ele>65.7</ele>
        <time>2017-04-29T10:41:01</time>
        <extensions><speed>1.43</speed></extensions>
      </trkpt>
      <trkpt lat="51.945629000" lon="7.594089000">
        <ele>65.6</ele>
        <time>2017-04-29T10:41:02</time>
        <extensions><speed>1.42</speed></extensions>
      </trkpt>
      <trkpt lat="51.945637000" lon="7.594105000">
        <ele>65.6</ele>
        <time>2017-04-29T10:41:03</time>
        <extensions><speed>1.42</speed></extensions>
      </trkpt>
      <trkpt lat="51.945648000" lon="7.594122000">
        <ele>65.5</ele>
        <time>2017-04-29T10:41:04</time>
        <extensions><speed>1.45</speed></extensions>
      </trkpt>
      <trkpt lat="51.945656000" lon="7.594136000">
        <ele>65.4</ele>
        <time>2017-04-29T10:41:05</time>
        <extensions><speed>1.35</speed></extensions>
      </trkpt>
      <trkpt lat="51.945663000" lon="7.594150000">
        <ele>65.4</ele>
        <time>2017-04-29T10:41:06</time>
        <extensions><speed>1.33</speed></extensions>
      </trkpt>
      <trkpt lat="51.945675000" lon="7.594166000">
        <ele>65.3</ele>
        <time>2017-04-29T10:41:07</time>
        <extensions><speed>1.38</speed></extensions>
      </trkpt>
      <trkpt lat="51.945686000" lon="7.594185000">
        <ele>65.3</ele>
        <time>2017-04-29T10:41:08</time>
        <extensions><speed>1.49</speed></extensions>
      </trkpt>
      <trkpt lat="51.945694000" lon="7.594201000">
        <ele>65.2</ele>
        <time>2017-04-29T10:41:09</time>
        <extensions><speed>1.43</speed></extensions>
      </trkpt>
      <trkpt lat="51.945705000" lon="7.594215000">
        <ele>65.2</ele>
        <time>2017-04-29T10:41:10</time>
        <extensions><speed>1.43</speed></extensions>
      </trkpt>
      <trkpt lat="51.945717000" lon="7.594225000">
        <ele>65.1</ele>
        <time>2017-04-29T10:41:11</time>
        <extensions><speed>1.40</speed></extensions>
      </trkpt>
      <trkpt lat="51.945728000" lon="7.594240000">
        <ele>65.0</ele>
        <time>2017-04-29T10:41:12</time>
        <extensions><speed>1.35</speed></extensions>
      </trkpt>
      <trkpt lat="51.945732000" lon="7.594258000">
        <ele>65.0</ele>
        <time>2017-04-29T10:41:13</time>
        <extensions><speed>1.35</speed></extensions>
      </trkpt>
      <trkpt lat="51.945740000" lon="7.594278000">
        <ele>65.0</ele>
        <time>2017-04-29T10:41:14</time>
        <extensions><speed>1.41</speed></extensions>
      </trkpt>
      <trkpt lat="51.945751000" lon="7.594297000">
        <ele>64.9</ele>
        <time>2017-04-29T10:41:15</time>
        <extensions><speed>1.42</speed></extensions>
      </trkpt>
      <trkpt lat="51.945759000" lon="7.594313000">
        <ele>64.8</ele>
        <time>2017-04-29T10:41:16</time>
        <extensions><speed>1.49</speed></extensions>
      </trkpt>
      <trkpt lat="51.945766000" lon="7.594330000">
        <ele>64.8</ele>
        <time>2017-04-29T10:41:17</time>
        <extensions><speed>1.51</speed></extensions>
      </trkpt>
      <trkpt lat="51.945778000" lon="7.594347000">
        <ele>64.7</ele>
        <time>2017-04-29T10:41:18</time>
        <extensions><speed>1.46</speed></extensions>
      </trkpt>
      <trkpt lat="51.945786000" lon="7.594364000">
        <ele>64.6</ele>
        <time>2017-04-29T10:41:19</time>
        <extensions><speed>1.47</speed></extensions>
      </trkpt>
      <trkpt lat="51.945793000" lon="7.594380000">
        <ele>64.6</ele>
        <time>2017-04-29T10:41:20</time>
        <extensions><speed>1.50</speed></extensions>
      </trkpt>
      <trkpt lat="51.945805000" lon="7.594395000">
        <ele>64.5</ele>
        <time>2017-04-29T10:41:21</time>
        <extensions><speed>1.46</speed></extensions>
      </trkpt>
      <trkpt lat="51.945816000" lon="7.594408000">
        <ele>64.4</ele>
        <time>2017-04-29T10:41:22</time>
        <extensions><speed>1.46</speed></extensions>
      </trkpt>
      <trkpt lat="51.945824000" lon="7.594421000">
        <ele>64.3</ele>
        <time>2017-04-29T10:41:23</time>
        <extensions><speed>1.42</speed></extensions>
      </trkpt>
      <trkpt lat="51.945831000" lon="7.594435000">
        <ele>64.2</ele>
        <time>2017-04-29T10:41:24</time>
        <extensions><speed>1.39</speed></extensions>
      </trkpt>
      <trkpt lat="51.945839000" lon="7.594450000">
        <ele>64.1</ele>
        <time>2017-04-29T10:41:25</time>
        <extensions><speed>1.39</speed></extensions>
      </trkpt>
      <trkpt lat="51.945850000" lon="7.594467000">
        <ele>64.0</ele>
        <time>2017-04-29T10:41:26</time>
        <extensions><speed>1.44</speed></extensions>
      </trkpt>
      <trkpt lat="51.945858000" lon="7.594481000">
        <ele>63.9</ele>
        <time>2017-04-29T10:41:27</time>
        <extensions><speed>1.48</speed></extensions>
      </trkpt>
      <trkpt lat="51.945866000" lon="7.594491000">
        <ele>63.8</ele>
        <time>2017-04-29T10:41:28</time>
        <extensions><speed>1.48</speed></extensions>
      </trkpt>
      <trkpt lat="51.945877000" lon="7.594509000">
        <ele>63.8</ele>
        <time>2017-04-29T10:41:29</time>
        <extensions><speed>1.55</speed></extensions>
      </trkpt>
      <trkpt lat="51.945889000" lon="7.594523000">
        <ele>63.7</ele>
        <time>2017-04-29T10:41:30</time>
        <extensions><speed>1.64</speed></extensions>
      </trkpt>
      <trkpt lat="51.945900000" lon="7.594540000">
        <ele>63.6</ele>
        <time>2017-04-29T10:41:31</time>
        <extensions><speed>1.55</speed></extensions>
      </trkpt>
      <trkpt lat="51.945911000" lon="7.594553000">
        <ele>63.5</ele>
        <time>2017-04-29T10:41:32</time>
        <extensions><speed>1.56</speed></extensions>
      </trkpt>
      <trkpt lat="51.945923000" lon="7.594567000">
        <ele>63.4</ele>
        <time>2017-04-29T10:41:33</time>
        <extensions><speed>1.56</speed></extensions>
      </trkpt>
      <trkpt lat="51.945927000" lon="7.594579000">
        <ele>63.3</ele>
        <time>2017-04-29T10:41:34</time>
        <extensions><speed>1.45</speed></extensions>
      </trkpt>
      <trkpt lat="51.945938000" lon="7.594590000">
        <ele>63.2</ele>
        <time>2017-04-29T10:41:35</time>
        <extensions><speed>1.44</speed></extensions>
      </trkpt>
      <trkpt lat="51.945946000" lon="7.594605000">
        <ele>63.1</ele>
        <time>2017-04-29T10:41:36</time>
        <extensions><speed>1.44</speed></extensions>
      </trkpt>
      <trkpt lat="51.945953000" lon="7.594623000">
        <ele>63.1</ele>
        <time>2017-04-29T10:41:37</time>
        <extensions><speed>1.43</speed></extensions>
      </trkpt>
      <trkpt lat="51.945957000" lon="7.594640000">
        <ele>63.0</ele>
        <time>2017-04-29T10:41:38</time>
        <extensions><speed>1.37</speed></extensions>
      </trkpt>
      <trkpt lat="51.945961000" lon="7.594658000">
        <ele>62.9</ele>
        <time>2017-04-29T10:41:39</time>
        <extensions><speed>1.49</speed></extensions>
      </trkpt>
      <trkpt lat="51.945969000" lon="7.594675000">
        <ele>62.8</ele>
        <time>2017-04-29T10:41:40</time>
        <extensions><speed>1.44</speed></extensions>
      </trkpt>
      <trkpt lat="51.945980000" lon="7.594690000">
        <ele>62.7</ele>
        <time>2017-04-29T10:41:41</time>
        <extensions><speed>1.44</speed></extensions>
      </trkpt>
      <trkpt lat="51.945988000" lon="7.594703000">
        <ele>62.7</ele>
        <time>2017-04-29T10:41:42</time>
        <extensions><speed>1.33</speed></extensions>
      </trkpt>
      <trkpt lat="51.945995000" lon="7.594715000">
        <ele>62.6</ele>
        <time>2017-04-29T10:41:43</time>
        <extensions><speed>1.43</speed></extensions>
      </trkpt>
      <trkpt lat="51.946007000" lon="7.594727000">
        <ele>62.5</ele>
        <time>2017-04-29T10:41:44</time>
        <extensions><speed>1.39</speed></extensions>
      </trkpt>
      <trkpt lat="51.946018000" lon="7.594738000">
        <ele>62.4</ele>
        <time>2017-04-29T10:41:45</time>
        <extensions><speed>1.40</speed></extensions>
      </trkpt>
      <trkpt lat="51.946030000" lon="7.594752000">
        <ele>62.4</ele>
        <time>2017-04-29T10:41:46</time>
        <extensions><speed>1.43</speed></extensions>
      </trkpt>
      <trkpt lat="51.946041000" lon="7.594763000">
        <ele>62.3</ele>
        <time>2017-04-29T10:41:47</time>
        <extensions><speed>1.43</speed></extensions>
      </trkpt>
      <trkpt lat="51.946053000" lon="7.594775000">
        <ele>62.2</ele>
        <time>2017-04-29T10:41:48</time>
        <extensions><speed>1.50</speed></extensions>
      </trkpt>
      <trkpt lat="51.946060000" lon="7.594789000">
        <ele>62.1</ele>
        <time>2017-04-29T10:41:49</time>
        <extensions><speed>1.52</speed></extensions>
      </trkpt>
      <trkpt lat="51.946072000" lon="7.594803000">
        <ele>62.1</ele>
        <time>2017-04-29T10:41:50</time>
        <extensions><speed>1.47</speed></extensions>
      </trkpt>
      <trkpt lat="51.946083000" lon="7.594815000">
        <ele>62.0</ele>
        <time>2017-04-29T10:41:51</time>
        <extensions><speed>1.31</speed></extensions>
      </trkpt>
      <trkpt lat="51.946087000" lon="7.594825000">
        <ele>61.9</ele>
        <time>2017-04-29T10:41:52</time>
        <extensions><speed>1.36</speed></extensions>
      </trkpt>
      <trkpt lat="51.946102000" lon="7.594837000">
        <ele>61.8</ele>
        <time>2017-04-29T10:41:53</time>
        <extensions><speed>1.36</speed></extensions>
      </trkpt>
      <trkpt lat="51.946114000" lon="7.594847000">
        <ele>61.8</ele>
        <time>2017-04-29T10:41:54</time>
        <extensions><speed>1.35</speed></extensions>
      </trkpt>
      <trkpt lat="51.946121000" lon="7.594859000">
        <ele>61.7</ele>
        <time>2017-04-29T10:41:55</time>
        <extensions><speed>1.38</speed></extensions>
      </trkpt>
      <trkpt lat="51.946133000" lon="7.594872000">
        <ele>61.6</ele>
        <time>2017-04-29T10:41:56</time>
        <extensions><speed>1.38</speed></extensions>
      </trkpt>
      <trkpt lat="51.946148000" lon="7.594885000">
        <ele>61.6</ele>
        <time>2017-04-29T10:41:57</time>
        <extensions><speed>1.42</speed></extensions>
      </trkpt>
      <trkpt lat="51.946152000" lon="7.594896000">
        <ele>61.5</ele>
        <time>2017-04-29T10:41:58</time>
        <extensions><speed>1.41</speed></extensions>
      </trkpt>
      <trkpt lat="51.946163000" lon="7.594908000">
        <ele>61.4</ele>
        <time>2017-04-29T10:41:59</time>
        <extensions><speed>1.37</speed></extensions>
      </trkpt>
      <trkpt lat="51.946175000" lon="7.594919000">
        <ele>61.3</ele>
        <time>2017-04-29T10:42:00</time>
        <extensions><speed>1.38</speed></extensions>
      </trkpt>
      <trkpt lat="51.946186000" lon="7.594929000">
        <ele>61.3</ele>
        <time>2017-04-29T10:42:01</time>
        <extensions><speed>1.46</speed></extensions>
      </trkpt>
      <trkpt lat="51.946194000" lon="7.594940000">
        <ele>61.2</ele>
        <time>2017-04-29T10:42:02</time>
        <extensions><speed>1.39</speed></extensions>
      </trkpt>
      <trkpt lat="51.946205000" lon="7.594954000">
        <ele>61.1</ele>
        <time>2017-04-29T10:42:03</time>
        <extensions><speed>1.39</speed></extensions>
      </trkpt>
      <trkpt lat="51.946217000" lon="7.594964000">
        <ele>61.1</ele>
        <time>2017-04-29T10:42:04</time>
        <extensions><speed>1.45</speed></extensions>
      </trkpt>
      <trkpt lat="51.946224000" lon="7.594975000">
        <ele>61.0</ele>
        <time>2017-04-29T10:42:05</time>
        <extensions><speed>1.37</speed></extensions>
      </trkpt>
      <trkpt lat="51.946236000" lon="7.594984000">
        <ele>61.0</ele>
        <time>2017-04-29T10:42:06</time>
        <extensions><speed>1.30</speed></extensions>
      </trkpt>
      <trkpt lat="51.946247000" lon="7.594994000">
        <ele>60.9</ele>
        <time>2017-04-29T10:42:07</time>
        <extensions><speed>1.37</speed></extensions>
      </trkpt>
      <trkpt lat="51.946259000" lon="7.595003000">
        <ele>60.8</ele>
        <time>2017-04-29T10:42:08</time>
        <extensions><speed>1.31</speed></extensions>
      </trkpt>
      <trkpt lat="51.946270000" lon="7.595016000">
        <ele>60.8</ele>
        <time>2017-04-29T10:42:09</time>
        <extensions><speed>1.27</speed></extensions>
      </trkpt>
      <trkpt lat="51.946281000" lon="7.595025000">
        <ele>60.7</ele>
        <time>2017-04-29T10:42:10</time>
        <extensions><speed>1.26</speed></extensions>
      </trkpt>
      <trkpt lat="51.946289000" lon="7.595032000">
        <ele>60.7</ele>
        <time>2017-04-29T10:42:11</time>
        <extensions><speed>1.25</speed></extensions>
      </trkpt>
      <trkpt lat="51.946297000" lon="7.595043000">
        <ele>60.6</ele>
        <time>2017-04-29T10:42:12</time>
        <extensions><speed>1.25</speed></extensions>
      </trkpt>
      <trkpt lat="51.946312000" lon="7.595052000">
        <ele>60.6</ele>
        <time>2017-04-29T10:42:13</time>
        <extensions><speed>1.30</speed></extensions>
      </trkpt>
      <trkpt lat="51.946323000" lon="7.595060000">
        <ele>60.5</ele>
        <time>2017-04-29T10:42:14</time>
        <extensions><speed>1.36</speed></extensions>
      </trkpt>
      <trkpt lat="51.946335000" lon="7.595069000">
        <ele>60.5</ele>
        <time>2017-04-29T10:42:15</time>
        <extensions><speed>1.43</speed></extensions>
      </trkpt>
      <trkpt lat="51.946346000" lon="7.595077000">
        <ele>60.5</ele>
        <time>2017-04-29T10:42:16</time>
        <extensions><speed>1.43</speed></extensions>
      </trkpt>
      <trkpt lat="51.946358000" lon="7.595083000">
        <ele>60.4</ele>
        <time>2017-04-29T10:42:17</time>
        <extensions><speed>1.42</speed></extensions>
      </trkpt>
      <trkpt lat="51.946369000" lon="7.595092000">
        <ele>60.4</ele>
        <time>2017-04-29T10:42:18</time>
        <extensions><speed>1.40</speed></extensions>
      </trkpt>
      <trkpt lat="51.946381000" lon="7.595103000">
        <ele>60.3</ele>
        <time>2017-04-29T10:42:19</time>
        <extensions><speed>1.40</speed></extensions>
      </trkpt>
      <trkpt lat="51.946388000" lon="7.595113000">
        <ele>60.3</ele>
        <time>2017-04-29T10:42:20</time>
        <extensions><speed>1.37</speed></extensions>
      </trkpt>
      <trkpt lat="51.946404000" lon="7.595123000">
        <ele>60.2</ele>
        <time>2017-04-29T10:42:21</time>
        <extensions><speed>1.40</speed></extensions>
      </trkpt>
      <trkpt lat="51.946415000" lon="7.595130000">
        <ele>60.2</ele>
        <time>2017-04-29T10:42:22</time>
        <extensions><speed>1.37</speed></extensions>
      </trkpt>
      <trkpt lat="51.946426000" lon="7.595137000">
        <ele>60.1</ele>
        <time>2017-04-29T10:42:23</time>
        <extensions><speed>1.38</speed></extensions>
      </trkpt>
      <trkpt lat="51.946438000" lon="7.595145000">
        <ele>60.1</ele>
        <time>2017-04-29T10:42:24</time>
        <extensions><speed>1.40</speed></extensions>
      </trkpt>
      <trkpt lat="51.946449000" lon="7.595155000">
        <ele>60.0</ele>
        <time>2017-04-29T10:42:25</time>
        <extensions><speed>1.40</speed></extensions>
      </trkpt>
      <trkpt lat="51.946461000" lon="7.595163000">
        <ele>60.0</ele>
        <time>2017-04-29T10:42:26</time>
        <extensions><speed>1.39</speed></extensions>
      </trkpt>
      <trkpt lat="51.946476000" lon="7.595169000">
        <ele>59.9</ele>
        <time>2017-04-29T10:42:27</time>
        <extensions><speed>1.39</speed></extensions>
      </trkpt>
      <trkpt lat="51.946484000" lon="7.595175000">
        <ele>59.9</ele>
        <time>2017-04-29T10:42:28</time>
        <extensions><speed>1.38</speed></extensions>
      </trkpt>
      <trkpt lat="51.946495000" lon="7.595187000">
        <ele>59.8</ele>
        <time>2017-04-29T10:42:29</time>
        <extensions><speed>1.30</speed></extensions>
      </trkpt>
      <trkpt lat="51.946510000" lon="7.595193000">
        <ele>59.8</ele>
        <time>2017-04-29T10:42:30</time>
        <extensions><speed>1.33</speed></extensions>
      </trkpt>
      <trkpt lat="51.946522000" lon="7.595202000">
        <ele>59.7</ele>
        <time>2017-04-29T10:42:31</time>
        <extensions><speed>1.33</speed></extensions>
      </trkpt>
      <trkpt lat="51.946533000" lon="7.595210000">
        <ele>59.7</ele>
        <time>2017-04-29T10:42:32</time>
        <extensions><speed>1.37</speed></extensions>
      </trkpt>
      <trkpt lat="51.946541000" lon="7.595216000">
        <ele>59.6</ele>
        <time>2017-04-29T10:42:33</time>
        <extensions><speed>1.27</speed></extensions>
      </trkpt>
      <trkpt lat="51.946552000" lon="7.595223000">
        <ele>59.6</ele>
        <time>2017-04-29T10:42:34</time>
        <extensions><speed>1.37</speed></extensions>
      </trkpt>
      <trkpt lat="51.946571000" lon="7.595228000">
        <ele>59.5</ele>
        <time>2017-04-29T10:42:35</time>
        <extensions><speed>1.42</speed></extensions>
      </trkpt>
      <trkpt lat="51.946579000" lon="7.595239000">
        <ele>59.5</ele>
        <time>2017-04-29T10:42:36</time>
        <extensions><speed>1.32</speed></extensions>
      </trkpt>
      <trkpt lat="51.946590000" lon="7.595244000">
        <ele>59.5</ele>
        <time>2017-04-29T10:42:37</time>
        <extensions><speed>1.33</speed></extensions>
      </trkpt>
      <trkpt lat="51.946606000" lon="7.595253000">
        <ele>59.4</ele>
        <time>2017-04-29T10:42:38</time>
        <extensions><speed>1.33</speed></extensions>
      </trkpt>
      <trkpt lat="51.946613000" lon="7.595260000">
        <ele>59.4</ele>
        <time>2017-04-29T10:42:39</time>
        <extensions><speed>1.38</speed></extensions>
      </trkpt>
      <trkpt lat="51.946629000" lon="7.595267000">
        <ele>59.3</ele>
        <time>2017-04-29T10:42:40</time>
        <extensions><speed>1.38</speed></extensions>
      </trkpt>
      <trkpt lat="51.946640000" lon="7.595277000">
        <ele>59.3</ele>
        <time>2017-04-29T10:42:41</time>
        <extensions><speed>1.48</speed></extensions>
      </trkpt>
      <trkpt lat="51.946655000" lon="7.595285000">
        <ele>59.2</ele>
        <time>2017-04-29T10:42:42</time>
        <extensions><speed>1.48</speed></extensions>
      </trkpt>
      <trkpt lat="51.946667000" lon="7.595295000">
        <ele>59.2</ele>
        <time>2017-04-29T10:42:43</time>
        <extensions><speed>1.52</speed></extensions>
      </trkpt>
      <trkpt lat="51.946678000" lon="7.595305000">
        <ele>59.1</ele>
        <time>2017-04-29T10:42:44</time>
        <extensions><speed>1.49</speed></extensions>
      </trkpt>
      <trkpt lat="51.946690000" lon="7.595312000">
        <ele>59.1</ele>
        <time>2017-04-29T10:42:45</time>
        <extensions><speed>1.47</speed></extensions>
      </trkpt>
      <trkpt lat="51.946701000" lon="7.595322000">
        <ele>59.0</ele>
        <time>2017-04-29T10:42:46</time>
        <extensions><speed>1.47</speed></extensions>
      </trkpt>
      <trkpt lat="51.946709000" lon="7.595334000">
        <ele>59.0</ele>
        <time>2017-04-29T10:42:47</time>
        <extensions><speed>1.47</speed></extensions>
      </trkpt>
      <trkpt lat="51.946720000" lon="7.595344000">
        <ele>58.9</ele>
        <time>2017-04-29T10:42:48</time>
        <extensions><speed>1.47</speed></extensions>
      </trkpt>
      <trkpt lat="51.946735000" lon="7.595353000">
        <ele>58.9</ele>
        <time>2017-04-29T10:42:49</time>
        <extensions><speed>1.46</speed></extensions>
      </trkpt>
      <trkpt lat="51.946743000" lon="7.595363000">
        <ele>58.8</ele>
        <time>2017-04-29T10:42:50</time>
        <extensions><speed>1.46</speed></extensions>
      </trkpt>
      <trkpt lat="51.946754000" lon="7.595377000">
        <ele>58.8</ele>
        <time>2017-04-29T10:42:51</time>
        <extensions><speed>1.46</speed></extensions>
      </trkpt>
      <trkpt lat="51.946762000" lon="7.595393000">
        <ele>58.8</ele>
        <time>2017-04-29T10:42:52</time>
        <extensions><speed>1.49</speed></extensions>
      </trkpt>
      <trkpt lat="51.946770000" lon="7.595410000">
        <ele>58.7</ele>
        <time>2017-04-29T10:42:53</time>
        <extensions><speed>1.51</speed></extensions>
      </trkpt>
      <trkpt lat="51.946777000" lon="7.595427000">
        <ele>58.7</ele>
        <time>2017-04-29T10:42:54</time>
        <extensions><speed>1.51</speed></extensions>
      </trkpt>
      <trkpt lat="51.946781000" lon="7.595445000">
        <ele>58.6</ele>
        <time>2017-04-29T10:42:55</time>
        <extensions><speed>1.49</speed></extensions>
      </trkpt>
      <trkpt lat="51.946781000" lon="7.595463000">
        <ele>58.6</ele>
        <time>2017-04-29T10:42:56</time>
        <extensions><speed>1.48</speed></extensions>
      </trkpt>
      <trkpt lat="51.946781000" lon="7.595486000">
        <ele>58.5</ele>
        <time>2017-04-29T10:42:57</time>
        <extensions><speed>1.48</speed></extensions>
      </trkpt>
      <trkpt lat="51.946781000" lon="7.595512000">
        <ele>58.5</ele>
        <time>2017-04-29T10:42:58</time>
        <extensions><speed>1.52</speed></extensions>
      </trkpt>
      <trkpt lat="51.946777000" lon="7.595531000">
        <ele>58.4</ele>
        <time>2017-04-29T10:42:59</time>
        <extensions><speed>1.52</speed></extensions>
      </trkpt>
      <trkpt lat="51.946777000" lon="7.595552000">
        <ele>58.4</ele>
        <time>2017-04-29T10:43:00</time>
        <extensions><speed>1.54</speed></extensions>
      </trkpt>
      <trkpt lat="51.946777000" lon="7.595570000">
        <ele>58.4</ele>
        <time>2017-04-29T10:43:01</time>
        <extensions><speed>1.53</speed></extensions>
      </trkpt>
      <trkpt lat="51.946777000" lon="7.595589000">
        <ele>58.3</ele>
        <time>2017-04-29T10:43:02</time>
        <extensions><speed>1.47</speed></extensions>
      </trkpt>
      <trkpt lat="51.946781000" lon="7.595608000">
        <ele>58.3</ele>
        <time>2017-04-29T10:43:03</time>
        <extensions><speed>1.47</speed></extensions>
      </trkpt>
      <trkpt lat="51.946781000" lon="7.595632000">
        <ele>58.3</ele>
        <time>2017-04-29T10:43:04</time>
        <extensions><speed>1.44</speed></extensions>
      </trkpt>
      <trkpt lat="51.946785000" lon="7.595648000">
        <ele>58.2</ele>
        <time>2017-04-29T10:43:05</time>
        <extensions><speed>1.37</speed></extensions>
      </trkpt>
      <trkpt lat="51.946789000" lon="7.595665000">
        <ele>58.2</ele>
        <time>2017-04-29T10:43:06</time>
        <extensions><speed>1.36</speed></extensions>
      </trkpt>
      <trkpt lat="51.946789000" lon="7.595687000">
        <ele>58.2</ele>
        <time>2017-04-29T10:43:07</time>
        <extensions><speed>1.42</speed></extensions>
      </trkpt>
      <trkpt lat="51.946789000" lon="7.595708000">
        <ele>58.1</ele>
        <time>2017-04-29T10:43:08</time>
        <extensions><speed>1.42</speed></extensions>
      </trkpt>
      <trkpt lat="51.946789000" lon="7.595729000">
        <ele>58.1</ele>
        <time>2017-04-29T10:43:09</time>
        <extensions><speed>1.42</speed></extensions>
      </trkpt>
      <trkpt lat="51.946793000" lon="7.595750000">
        <ele>58.1</ele>
        <time>2017-04-29T10:43:10</time>
        <extensions><speed>1.46</speed></extensions>
      </trkpt>
      <trkpt lat="51.946793000" lon="7.595770000">
        <ele>58.1</ele>
        <time>2017-04-29T10:43:11</time>
        <extensions><speed>1.43</speed></extensions>
      </trkpt>
      <trkpt lat="51.946796000" lon="7.595790000">
        <ele>58.1</ele>
        <time>2017-04-29T10:43:12</time>
        <extensions><speed>1.43</speed></extensions>
      </trkpt>
      <trkpt lat="51.946793000" lon="7.595810000">
        <ele>58.0</ele>
        <time>2017-04-29T10:43:13</time>
        <extensions><speed>1.42</speed></extensions>
      </trkpt>
      <trkpt lat="51.946796000" lon="7.595834000">
        <ele>58.0</ele>
        <time>2017-04-29T10:43:14</time>
        <extensions><speed>1.46</speed></extensions>
      </trkpt>
      <trkpt lat="51.946796000" lon="7.595857000">
        <ele>58.0</ele>
        <time>2017-04-29T10:43:15</time>
        <extensions><speed>1.48</speed></extensions>
      </trkpt>
      <trkpt lat="51.946800000" lon="7.595875000">
        <ele>58.0</ele>
        <time>2017-04-29T10:43:16</time>
        <extensions><speed>1.48</speed></extensions>
      </trkpt>
      <trkpt lat="51.946804000" lon="7.595893000">
        <ele>58.0</ele>
        <time>2017-04-29T10:43:17</time>
        <extensions><speed>1.43</speed></extensions>
      </trkpt>
      <trkpt lat="51.946804000" lon="7.595912000">
        <ele>58.0</ele>
        <time>2017-04-29T10:43:18</time>
        <extensions><speed>1.38</speed></extensions>
      </trkpt>
      <trkpt lat="51.946808000" lon="7.595930000">
        <ele>58.0</ele>
        <time>2017-04-29T10:43:19</time>
        <extensions><speed>1.31</speed></extensions>
      </trkpt>
      <trkpt lat="51.946812000" lon="7.595945000">
        <ele>58.0</ele>
        <time>2017-04-29T10:43:20</time>
        <extensions><speed>1.29</speed></extensions>
      </trkpt>
      <trkpt lat="51.946815000" lon="7.595965000">
        <ele>58.0</ele>
        <time>2017-04-29T10:43:21</time>
        <extensions><speed>1.29</speed></extensions>
      </trkpt>
      <trkpt lat="51.946819000" lon="7.595986000">
        <ele>58.0</ele>
        <time>2017-04-29T10:43:22</time>
        <extensions><speed>1.29</speed></extensions>
      </trkpt>
      <trkpt lat="51.946823000" lon="7.596004000">
        <ele>58.0</ele>
        <time>2017-04-29T10:43:23</time>
        <extensions><speed>1.33</speed></extensions>
      </trkpt>
      <trkpt lat="51.946823000" lon="7.596025000">
        <ele>58.0</ele>
        <time>2017-04-29T10:43:24</time>
        <extensions><speed>1.39</speed></extensions>
      </trkpt>
      <trkpt lat="51.946827000" lon="7.596046000">
        <ele>58.0</ele>
        <time>2017-04-29T10:43:25</time>
        <extensions><speed>1.46</speed></extensions>
      </trkpt>
      <trkpt lat="51.946831000" lon="7.596065000">
        <ele>58.0</ele>
        <time>2017-04-29T10:43:26</time>
        <extensions><speed>1.45</speed></extensions>
      </trkpt>
      <trkpt lat="51.946835000" lon="7.596087000">
        <ele>58.0</ele>
        <time>2017-04-29T10:43:27</time>
        <extensions><speed>1.45</speed></extensions>
      </trkpt>
      <trkpt lat="51.946835000" lon="7.596105000">
        <ele>58.0</ele>
        <time>2017-04-29T10:43:28</time>
        <extensions><speed>1.46</speed></extensions>
      </trkpt>
      <trkpt lat="51.946838000" lon="7.596125000">
        <ele>58.0</ele>
        <time>2017-04-29T10:43:29</time>
        <extensions><speed>1.44</speed></extensions>
      </trkpt>
      <trkpt lat="51.946846000" lon="7.596145000">
        <ele>58.0</ele>
        <time>2017-04-29T10:43:30</time>
        <extensions><speed>1.43</speed></extensions>
      </trkpt>
      <trkpt lat="51.946850000" lon="7.596163000">
        <ele>58.0</ele>
        <time>2017-04-29T10:43:31</time>
        <extensions><speed>1.43</speed></extensions>
      </trkpt>
      <trkpt lat="51.946854000" lon="7.596183000">
        <ele>58.0</ele>
        <time>2017-04-29T10:43:32</time>
        <extensions><speed>1.43</speed></extensions>
      </trkpt>
      <trkpt lat="51.946857000" lon="7.596202000">
        <ele>58.0</ele>
        <time>2017-04-29T10:43:33</time>
        <extensions><speed>1.42</speed></extensions>
      </trkpt>
      <trkpt lat="51.946865000" lon="7.596218000">
        <ele>58.0</ele>
        <time>2017-04-29T10:43:34</time>
        <extensions><speed>1.39</speed></extensions>
      </trkpt>
      <trkpt lat="51.946869000" lon="7.596235000">
        <ele>58.0</ele>
        <time>2017-04-29T10:43:35</time>
        <extensions><speed>1.40</speed></extensions>
      </trkpt>
      <trkpt lat="51.946873000" lon="7.596253000">
        <ele>57.9</ele>
        <time>2017-04-29T10:43:36</time>
        <extensions><speed>1.40</speed></extensions>
      </trkpt>
      <trkpt lat="51.946880000" lon="7.596268000">
        <ele>57.9</ele>
        <time>2017-04-29T10:43:37</time>
        <extensions><speed>1.40</speed></extensions>
      </trkpt>
      <trkpt lat="51.946888000" lon="7.596287000">
        <ele>57.9</ele>
        <time>2017-04-29T10:43:38</time>
        <extensions><speed>1.43</speed></extensions>
      </trkpt>
      <trkpt lat="51.946896000" lon="7.596305000">
        <ele>57.9</ele>
        <time>2017-04-29T10:43:39</time>
        <extensions><speed>1.45</speed></extensions>
      </trkpt>
      <trkpt lat="51.946903000" lon="7.596320000">
        <ele>57.9</ele>
        <time>2017-04-29T10:43:40</time>
        <extensions><speed>1.43</speed></extensions>
      </trkpt>
      <trkpt lat="51.946911000" lon="7.596332000">
        <ele>57.9</ele>
        <time>2017-04-29T10:43:41</time>
        <extensions><speed>1.41</speed></extensions>
      </trkpt>
      <trkpt lat="51.946918000" lon="7.596345000">
        <ele>57.9</ele>
        <time>2017-04-29T10:43:42</time>
        <extensions><speed>1.40</speed></extensions>
      </trkpt>
      <trkpt lat="51.946926000" lon="7.596361000">
        <ele>57.9</ele>
        <time>2017-04-29T10:43:43</time>
        <extensions><speed>1.38</speed></extensions>
      </trkpt>
      <trkpt lat="51.946934000" lon="7.596377000">
        <ele>57.9</ele>
        <time>2017-04-29T10:43:44</time>
        <extensions><speed>1.37</speed></extensions>
      </trkpt>
      <trkpt lat="51.946941000" lon="7.596387000">
        <ele>57.9</ele>
        <time>2017-04-29T10:43:45</time>
        <extensions><speed>1.37</speed></extensions>
      </trkpt>
      <trkpt lat="51.946949000" lon="7.596396000">
        <ele>57.8</ele>
        <time>2017-04-29T10:43:46</time>
        <extensions><speed>1.40</speed></extensions>
      </trkpt>
      <trkpt lat="51.946960000" lon="7.596406000">
        <ele>57.8</ele>
        <time>2017-04-29T10:43:47</time>
        <extensions><speed>1.41</speed></extensions>
      </trkpt>
      <trkpt lat="51.946968000" lon="7.596420000">
        <ele>57.8</ele>
        <time>2017-04-29T10:43:48</time>
        <extensions><speed>1.40</speed></extensions>
      </trkpt>
      <trkpt lat="51.946980000" lon="7.596433000">
        <ele>57.8</ele>
        <time>2017-04-29T10:43:49</time>
        <extensions><speed>1.40</speed></extensions>
      </trkpt>
      <trkpt lat="51.946991000" lon="7.596442000">
        <ele>57.8</ele>
        <time>2017-04-29T10:43:50</time>
        <extensions><speed>1.37</speed></extensions>
      </trkpt>
      <trkpt lat="51.946999000" lon="7.596454000">
        <ele>57.7</ele>
        <time>2017-04-29T10:43:51</time>
        <extensions><speed>1.37</speed></extensions>
      </trkpt>
      <trkpt lat="51.947006000" lon="7.596468000">
        <ele>57.7</ele>
        <time>2017-04-29T10:43:52</time>
        <extensions><speed>1.34</speed></extensions>
      </trkpt>
      <trkpt lat="51.947014000" lon="7.596480000">
        <ele>57.7</ele>
        <time>2017-04-29T10:43:53</time>
        <extensions><speed>1.37</speed></extensions>
      </trkpt>
      <trkpt lat="51.947025000" lon="7.596494000">
        <ele>57.6</ele>
        <time>2017-04-29T10:43:54</time>
        <extensions><speed>1.40</speed></extensions>
      </trkpt>
      <trkpt lat="51.947033000" lon="7.596507000">
        <ele>57.6</ele>
        <time>2017-04-29T10:43:55</time>
        <extensions><speed>1.41</speed></extensions>
      </trkpt>
      <trkpt lat="51.947041000" lon="7.596520000">
        <ele>57.6</ele>
        <time>2017-04-29T10:43:56</time>
        <extensions><speed>1.43</speed></extensions>
      </trkpt>
      <trkpt lat="51.947052000" lon="7.596531000">
        <ele>57.5</ele>
        <time>2017-04-29T10:43:57</time>
        <extensions><speed>1.43</speed></extensions>
      </trkpt>
      <trkpt lat="51.947060000" lon="7.596543000">
        <ele>57.5</ele>
        <time>2017-04-29T10:43:58</time>
        <extensions><speed>1.38</speed></extensions>
      </trkpt>
      <trkpt lat="51.947063000" lon="7.596555000">
        <ele>57.5</ele>
        <time>2017-04-29T10:43:59</time>
        <extensions><speed>1.35</speed></extensions>
      </trkpt>
      <trkpt lat="51.947071000" lon="7.596568000">
        <ele>57.5</ele>
        <time>2017-04-29T10:44:00</time>
        <extensions><speed>1.29</speed></extensions>
      </trkpt>
      <trkpt lat="51.947079000" lon="7.596583000">
        <ele>57.4</ele>
        <time>2017-04-29T10:44:01</time>
        <extensions><speed>1.29</speed></extensions>
      </trkpt>
      <trkpt lat="51.947090000" lon="7.596600000">
        <ele>57.4</ele>
        <time>2017-04-29T10:44:02</time>
        <extensions><speed>1.27</speed></extensions>
      </trkpt>
      <trkpt lat="51.947098000" lon="7.596613000">
        <ele>57.4</ele>
        <time>2017-04-29T10:44:03</time>
        <extensions><speed>1.28</speed></extensions>
      </trkpt>
      <trkpt lat="51.947102000" lon="7.596630000">
        <ele>57.3</ele>
        <time>2017-04-29T10:44:04</time>
        <extensions><speed>1.31</speed></extensions>
      </trkpt>
      <trkpt lat="51.947113000" lon="7.596643000">
        <ele>57.3</ele>
        <time>2017-04-29T10:44:05</time>
        <extensions><speed>1.35</speed></extensions>
      </trkpt>
      <trkpt lat="51.947121000" lon="7.596659000">
        <ele>57.3</ele>
        <time>2017-04-29T10:44:06</time>
        <extensions><speed>1.35</speed></extensions>
      </trkpt>
      <trkpt lat="51.947128000" lon="7.596675000">
        <ele>57.2</ele>
        <time>2017-04-29T10:44:07</time>
        <extensions><speed>1.39</speed></extensions>
      </trkpt>
      <trkpt lat="51.947128000" lon="7.596692000">
        <ele>57.2</ele>
        <time>2017-04-29T10:44:08</time>
        <extensions><speed>1.38</speed></extensions>
      </trkpt>
      <trkpt lat="51.947136000" lon="7.596712000">
        <ele>57.2</ele>
        <time>2017-04-29T10:44:09</time>
        <extensions><speed>1.41</speed></extensions>
      </trkpt>
      <trkpt lat="51.947144000" lon="7.596730000">
        <ele>57.1</ele>
        <time>2017-04-29T10:44:10</time>
        <extensions><speed>1.45</speed></extensions>
      </trkpt>
      <trkpt lat="51.947151000" lon="7.596748000">
        <ele>57.1</ele>
        <time>2017-04-29T10:44:11</time>
        <extensions><speed>1.45</speed></extensions>
      </trkpt>
      <trkpt lat="51.947159000" lon="7.596767000">
        <ele>57.1</ele>
        <time>2017-04-29T10:44:12</time>
        <extensions><speed>1.44</speed></extensions>
      </trkpt>
      <trkpt lat="51.947163000" lon="7.596785000">
        <ele>57.1</ele>
        <time>2017-04-29T10:44:13</time>
        <extensions><speed>1.46</speed></extensions>
      </trkpt>
      <trkpt lat="51.947166000" lon="7.596804000">
        <ele>57.0</ele>
        <time>2017-04-29T10:44:14</time>
        <extensions><speed>1.43</speed></extensions>
      </trkpt>
      <trkpt lat="51.947174000" lon="7.596820000">
        <ele>57.0</ele>
        <time>2017-04-29T10:44:15</time>
        <extensions><speed>1.42</speed></extensions>
      </trkpt>
      <trkpt lat="51.947178000" lon="7.596842000">
        <ele>56.9</ele>
        <time>2017-04-29T10:44:16</time>
        <extensions><speed>1.44</speed></extensions>
      </trkpt>
      <trkpt lat="51.947186000" lon="7.596862000">
        <ele>56.9</ele>
        <time>2017-04-29T10:44:17</time>
        <extensions><speed>1.44</speed></extensions>
      </trkpt>
      <trkpt lat="51.947186000" lon="7.596881000">
        <ele>56.9</ele>
        <time>2017-04-29T10:44:18</time>
        <extensions><speed>1.42</speed></extensions>
      </trkpt>
      <trkpt lat="51.947189000" lon="7.596900000">
        <ele>56.8</ele>
        <time>2017-04-29T10:44:19</time>
        <extensions><speed>1.42</speed></extensions>
      </trkpt>
      <trkpt lat="51.947189000" lon="7.596918000">
        <ele>56.8</ele>
        <time>2017-04-29T10:44:20</time>
        <extensions><speed>1.44</speed></extensions>
      </trkpt>
      <trkpt lat="51.947193000" lon="7.596939000">
        <ele>56.8</ele>
        <time>2017-04-29T10:44:21</time>
        <extensions><speed>1.39</speed></extensions>
      </trkpt>
      <trkpt lat="51.947193000" lon="7.596958000">
        <ele>56.7</ele>
        <time>2017-04-29T10:44:22</time>
        <extensions><speed>1.38</speed></extensions>
      </trkpt>
      <trkpt lat="51.947193000" lon="7.596981000">
        <ele>56.7</ele>
        <time>2017-04-29T10:44:23</time>
        <extensions><speed>1.36</speed></extensions>
      </trkpt>
      <trkpt lat="51.947197000" lon="7.597000000">
        <ele>56.7</ele>
        <time>2017-04-29T10:44:24</time>
        <extensions><speed>1.41</speed></extensions>
      </trkpt>
      <trkpt lat="51.947197000" lon="7.597020000">
        <ele>56.6</ele>
        <time>2017-04-29T10:44:25</time>
        <extensions><speed>1.38</speed></extensions>
      </trkpt>
      <trkpt lat="51.947201000" lon="7.597040000">
        <ele>56.6</ele>
        <time>2017-04-29T10:44:26</time>
        <extensions><speed>1.40</speed></extensions>
      </trkpt>
      <trkpt lat="51.947205000" lon="7.597062000">
        <ele>56.6</ele>
        <time>2017-04-29T10:44:27</time>
        <extensions><speed>1.43</speed></extensions>
      </trkpt>
      <trkpt lat="51.947205000" lon="7.597084000">
        <ele>56.5</ele>
        <time>2017-04-29T10:44:28</time>
        <extensions><speed>1.43</speed></extensions>
      </trkpt>
      <trkpt lat="51.947208000" lon="7.597103000">
        <ele>56.5</ele>
        <time>2017-04-29T10:44:29</time>
        <extensions><speed>1.43</speed></extensions>
      </trkpt>
      <trkpt lat="51.947212000" lon="7.597123000">
        <ele>56.5</ele>
        <time>2017-04-29T10:44:30</time>
        <extensions><speed>1.45</speed></extensions>
      </trkpt>
      <trkpt lat="51.947212000" lon="7.597145000">
        <ele>56.4</ele>
        <time>2017-04-29T10:44:31</time>
        <extensions><speed>1.45</speed></extensions>
      </trkpt>
      <trkpt lat="51.947212000" lon="7.597165000">
        <ele>56.4</ele>
        <time>2017-04-29T10:44:32</time>
        <extensions><speed>1.42</speed></extensions>
      </trkpt>
      <trkpt lat="51.947212000" lon="7.597185000">
        <ele>56.3</ele>
        <time>2017-04-29T10:44:33</time>
        <extensions><speed>1.42</speed></extensions>
      </trkpt>
      <trkpt lat="51.947212000" lon="7.597207000">
        <ele>56.3</ele>
        <time>2017-04-29T10:44:34</time>
        <extensions><speed>1.42</speed></extensions>
      </trkpt>
      <trkpt lat="51.947212000" lon="7.597226000">
        <ele>56.3</ele>
        <time>2017-04-29T10:44:35</time>
        <extensions><speed>1.42</speed></extensions>
      </trkpt>
      <trkpt lat="51.947212000" lon="7.597249000">
        <ele>56.2</ele>
        <time>2017-04-29T10:44:36</time>
        <extensions><speed>1.43</speed></extensions>
      </trkpt>
      <trkpt lat="51.947212000" lon="7.597270000">
        <ele>56.2</ele>
        <time>2017-04-29T10:44:37</time>
        <extensions><speed>1.42</speed></extensions>
      </trkpt>
      <trkpt lat="51.947212000" lon="7.597292000">
        <ele>56.1</ele>
        <time>2017-04-29T10:44:38</time>
        <extensions><speed>1.42</speed></extensions>
      </trkpt>
      <trkpt lat="51.947212000" lon="7.597311000">
        <ele>56.1</ele>
        <time>2017-04-29T10:44:39</time>
        <extensions><speed>1.42</speed></extensions>
      </trkpt>
      <trkpt lat="51.947212000" lon="7.597331000">
        <ele>56.0</ele>
        <time>2017-04-29T10:44:40</time>
        <extensions><speed>1.38</speed></extensions>
      </trkpt>
      <trkpt lat="51.947216000" lon="7.597352000">
        <ele>56.0</ele>
        <time>2017-04-29T10:44:41</time>
        <extensions><speed>1.38</speed></extensions>
      </trkpt>
      <trkpt lat="51.947216000" lon="7.597375000">
        <ele>56.0</ele>
        <time>2017-04-29T10:44:42</time>
        <extensions><speed>1.41</speed></extensions>
      </trkpt>
      <trkpt lat="51.947212000" lon="7.597397000">
        <ele>55.9</ele>
        <time>2017-04-29T10:44:43</time>
        <extensions><speed>1.46</speed></extensions>
      </trkpt>
      <trkpt lat="51.947212000" lon="7.597416000">
        <ele>55.9</ele>
        <time>2017-04-29T10:44:44</time>
        <extensions><speed>1.44</speed></extensions>
      </trkpt>
      <trkpt lat="51.947216000" lon="7.597436000">
        <ele>55.8</ele>
        <time>2017-04-29T10:44:45</time>
        <extensions><speed>1.44</speed></extensions>
      </trkpt>
      <trkpt lat="51.947220000" lon="7.597457000">
        <ele>55.8</ele>
        <time>2017-04-29T10:44:46</time>
        <extensions><speed>1.41</speed></extensions>
      </trkpt>
      <trkpt lat="51.947216000" lon="7.597475000">
        <ele>55.7</ele>
        <time>2017-04-29T10:44:47</time>
        <extensions><speed>1.37</speed></extensions>
      </trkpt>
      <trkpt lat="51.947216000" lon="7.597494000">
        <ele>55.7</ele>
        <time>2017-04-29T10:44:48</time>
        <extensions><speed>1.36</speed></extensions>
      </trkpt>
      <trkpt lat="51.947216000" lon="7.597511000">
        <ele>55.7</ele>
        <time>2017-04-29T10:44:49</time>
        <extensions><speed>1.36</speed></extensions>
      </trkpt>
      <trkpt lat="51.947216000" lon="7.597534000">
        <ele>55.6</ele>
        <time>2017-04-29T10:44:50</time>
        <extensions><speed>1.39</speed></extensions>
      </trkpt>
      <trkpt lat="51.947220000" lon="7.597557000">
        <ele>55.6</ele>
        <time>2017-04-29T10:44:51</time>
        <extensions><speed>1.41</speed></extensions>
      </trkpt>
      <trkpt lat="51.947224000" lon="7.597576000">
        <ele>55.5</ele>
        <time>2017-04-29T10:44:52</time>
        <extensions><speed>1.47</speed></extensions>
      </trkpt>
      <trkpt lat="51.947224000" lon="7.597597000">
        <ele>55.5</ele>
        <time>2017-04-29T10:44:53</time>
        <extensions><speed>1.47</speed></extensions>
      </trkpt>
      <trkpt lat="51.947224000" lon="7.597615000">
        <ele>55.5</ele>
        <time>2017-04-29T10:44:54</time>
        <extensions><speed>1.44</speed></extensions>
      </trkpt>
      <trkpt lat="51.947227000" lon="7.597633000">
        <ele>55.4</ele>
        <time>2017-04-29T10:44:55</time>
        <extensions><speed>1.40</speed></extensions>
      </trkpt>
      <trkpt lat="51.947227000" lon="7.597653000">
        <ele>55.4</ele>
        <time>2017-04-29T10:44:56</time>
        <extensions><speed>1.40</speed></extensions>
      </trkpt>
      <trkpt lat="51.947235000" lon="7.597673000">
        <ele>55.3</ele>
        <time>2017-04-29T10:44:57</time>
        <extensions><speed>1.40</speed></extensions>
      </trkpt>
      <trkpt lat="51.947235000" lon="7.597692000">
        <ele>55.3</ele>
        <time>2017-04-29T10:44:58</time>
        <extensions><speed>1.39</speed></extensions>
      </trkpt>
      <trkpt lat="51.947235000" lon="7.597709000">
        <ele>55.3</ele>
        <time>2017-04-29T10:44:59</time>
        <extensions><speed>1.37</speed></extensions>
      </trkpt>
      <trkpt lat="51.947239000" lon="7.597728000">
        <ele>55.2</ele>
        <time>2017-04-29T10:45:00</time>
        <extensions><speed>1.39</speed></extensions>
      </trkpt>
      <trkpt lat="51.947243000" lon="7.597750000">
        <ele>55.2</ele>
        <time>2017-04-29T10:45:01</time>
        <extensions><speed>1.39</speed></extensions>
      </trkpt>
      <trkpt lat="51.947243000" lon="7.597770000">
        <ele>55.1</ele>
        <time>2017-04-29T10:45:02</time>
        <extensions><speed>1.39</speed></extensions>
      </trkpt>
      <trkpt lat="51.947243000" lon="7.597786000">
        <ele>55.1</ele>
        <time>2017-04-29T10:45:03</time>
        <extensions><speed>1.44</speed></extensions>
      </trkpt>
      <trkpt lat="51.947243000" lon="7.597805000">
        <ele>55.1</ele>
        <time>2017-04-29T10:45:04</time>
        <extensions><speed>1.44</speed></extensions>
      </trkpt>
      <trkpt lat="51.947247000" lon="7.597823000">
        <ele>55.0</ele>
        <time>2017-04-29T10:45:05</time>
        <extensions><speed>1.42</speed></extensions>
      </trkpt>
      <trkpt lat="51.947247000" lon="7.597842000">
        <ele>55.0</ele>
        <time>2017-04-29T10:45:06</time>
        <extensions><speed>1.43</speed></extensions>
      </trkpt>
      <trkpt lat="51.947250000" lon="7.597861000">
        <ele>55.0</ele>
        <time>2017-04-29T10:45:07</time>
        <extensions><speed>1.45</speed></extensions>
      </trkpt>
      <trkpt lat="51.947250000" lon="7.597882000">
        <ele>54.9</ele>
        <time>2017-04-29T10:45:08</time>
        <extensions><speed>1.45</speed></extensions>
      </trkpt>
      <trkpt lat="51.947254000" lon="7.597900000">
        <ele>54.9</ele>
        <time>2017-04-29T10:45:09</time>
        <extensions><speed>1.46</speed></extensions>
      </trkpt>
      <trkpt lat="51.947258000" lon="7.597919000">
        <ele>54.9</ele>
        <time>2017-04-29T10:45:10</time>
        <extensions><speed>1.46</speed></extensions>
      </trkpt>
      <trkpt lat="51.947262000" lon="7.597938000">
        <ele>54.9</ele>
        <time>2017-04-29T10:45:11</time>
        <extensions><speed>1.46</speed></extensions>
      </trkpt>
      <trkpt lat="51.947266000" lon="7.597958000">
        <ele>54.9</ele>
        <time>2017-04-29T10:45:12</time>
        <extensions><speed>1.45</speed></extensions>
      </trkpt>
      <trkpt lat="51.947269000" lon="7.597979000">
        <ele>54.8</ele>
        <time>2017-04-29T10:45:13</time>
        <extensions><speed>1.44</speed></extensions>
      </trkpt>
      <trkpt lat="51.947273000" lon="7.597995000">
        <ele>54.8</ele>
        <time>2017-04-29T10:45:14</time>
        <extensions><speed>1.44</speed></extensions>
      </trkpt>
      <trkpt lat="51.947277000" lon="7.598015000">
        <ele>54.8</ele>
        <time>2017-04-29T10:45:15</time>
        <extensions><speed>1.45</speed></extensions>
      </trkpt>
      <trkpt lat="51.947281000" lon="7.598035000">
        <ele>54.7</ele>
        <time>2017-04-29T10:45:16</time>
        <extensions><speed>1.45</speed></extensions>
      </trkpt>
      <trkpt lat="51.947285000" lon="7.598055000">
        <ele>54.7</ele>
        <time>2017-04-29T10:45:17</time>
        <extensions><speed>1.43</speed></extensions>
      </trkpt>
      <trkpt lat="51.947292000" lon="7.598073000">
        <ele>54.7</ele>
        <time>2017-04-29T10:45:18</time>
        <extensions><speed>1.42</speed></extensions>
      </trkpt>
      <trkpt lat="51.947292000" lon="7.598094000">
        <ele>54.6</ele>
        <time>2017-04-29T10:45:19</time>
        <extensions><speed>1.40</speed></extensions>
      </trkpt>
      <trkpt lat="51.947300000" lon="7.598114000">
        <ele>54.6</ele>
        <time>2017-04-29T10:45:20</time>
        <extensions><speed>1.40</speed></extensions>
      </trkpt>
      <trkpt lat="51.947308000" lon="7.598130000">
        <ele>54.6</ele>
        <time>2017-04-29T10:45:21</time>
        <extensions><speed>1.38</speed></extensions>
      </trkpt>
      <trkpt lat="51.947311000" lon="7.598148000">
        <ele>54.5</ele>
        <time>2017-04-29T10:45:22</time>
        <extensions><speed>1.41</speed></extensions>
      </trkpt>
      <trkpt lat="51.947319000" lon="7.598168000">
        <ele>54.5</ele>
        <time>2017-04-29T10:45:23</time>
        <extensions><speed>1.43</speed></extensions>
      </trkpt>
      <trkpt lat="51.947323000" lon="7.598188000">
        <ele>54.5</ele>
        <time>2017-04-29T10:45:24</time>
        <extensions><speed>1.42</speed></extensions>
      </trkpt>
      <trkpt lat="51.947323000" lon="7.598205000">
        <ele>54.5</ele>
        <time>2017-04-29T10:45:25</time>
        <extensions><speed>1.37</speed></extensions>
      </trkpt>
      <trkpt lat="51.947327000" lon="7.598225000">
        <ele>54.4</ele>
        <time>2017-04-29T10:45:26</time>
        <extensions><speed>1.39</speed></extensions>
      </trkpt>
      <trkpt lat="51.947334000" lon="7.598243000">
        <ele>54.4</ele>
        <time>2017-04-29T10:45:27</time>
        <extensions><speed>1.37</speed></extensions>
      </trkpt>
      <trkpt lat="51.947338000" lon="7.598262000">
        <ele>54.4</ele>
        <time>2017-04-29T10:45:28</time>
        <extensions><speed>1.36</speed></extensions>
      </trkpt>
      <trkpt lat="51.947342000" lon="7.598281000">
        <ele>54.4</ele>
        <time>2017-04-29T10:45:29</time>
        <extensions><speed>1.39</speed></extensions>
      </trkpt>
      <trkpt lat="51.947350000" lon="7.598304000">
        <ele>54.3</ele>
        <time>2017-04-29T10:45:30</time>
        <extensions><speed>1.39</speed></extensions>
      </trkpt>
      <trkpt lat="51.947353000" lon="7.598323000">
        <ele>54.3</ele>
        <time>2017-04-29T10:45:31</time>
        <extensions><speed>1.37</speed></extensions>
      </trkpt>
      <trkpt lat="51.947357000" lon="7.598343000">
        <ele>54.3</ele>
        <time>2017-04-29T10:45:32</time>
        <extensions><speed>1.39</speed></extensions>
      </trkpt>
      <trkpt lat="51.947361000" lon="7.598365000">
        <ele>54.2</ele>
        <time>2017-04-29T10:45:33</time>
        <extensions><speed>1.38</speed></extensions>
      </trkpt>
      <trkpt lat="51.947369000" lon="7.598385000">
        <ele>54.2</ele>
        <time>2017-04-29T10:45:34</time>
        <extensions><speed>1.40</speed></extensions>
      </trkpt>
      <trkpt lat="51.947376000" lon="7.598403000">
        <ele>54.2</ele>
        <time>2017-04-29T10:45:35</time>
        <extensions><speed>1.39</speed></extensions>
      </trkpt>
      <trkpt lat="51.947388000" lon="7.598420000">
        <ele>54.2</ele>
        <time>2017-04-29T10:45:36</time>
        <extensions><speed>1.42</speed></extensions>
      </trkpt>
      <trkpt lat="51.947392000" lon="7.598437000">
        <ele>54.1</ele>
        <time>2017-04-29T10:45:37</time>
        <extensions><speed>1.39</speed></extensions>
      </trkpt>
      <trkpt lat="51.947399000" lon="7.598452000">
        <ele>54.1</ele>
        <time>2017-04-29T10:45:38</time>
        <extensions><speed>1.40</speed></extensions>
      </trkpt>
      <trkpt lat="51.947407000" lon="7.598470000">
        <ele>54.1</ele>
        <time>2017-04-29T10:45:39</time>
        <extensions><speed>1.38</speed></extensions>
      </trkpt>
      <trkpt lat="51.947411000" lon="7.598488000">
        <ele>54.0</ele>
        <time>2017-04-29T10:45:40</time>
        <extensions><speed>1.41</speed></extensions>
      </trkpt>
      <trkpt lat="51.947418000" lon="7.598509000">
        <ele>54.0</ele>
        <time>2017-04-29T10:45:41</time>
        <extensions><speed>1.37</speed></extensions>
      </trkpt>
      <trkpt lat="51.947422000" lon="7.598526000">
        <ele>54.0</ele>
        <time>2017-04-29T10:45:42</time>
        <extensions><speed>1.39</speed></extensions>
      </trkpt>
      <trkpt lat="51.947430000" lon="7.598544000">
        <ele>54.0</ele>
        <time>2017-04-29T10:45:43</time>
        <extensions><speed>1.39</speed></extensions>
      </trkpt>
      <trkpt lat="51.947437000" lon="7.598560000">
        <ele>53.9</ele>
        <time>2017-04-29T10:45:44</time>
        <extensions><speed>1.44</speed></extensions>
      </trkpt>
      <trkpt lat="51.947445000" lon="7.598577000">
        <ele>53.9</ele>
        <time>2017-04-29T10:45:45</time>
        <extensions><speed>1.41</speed></extensions>
      </trkpt>
      <trkpt lat="51.947456000" lon="7.598593000">
        <ele>53.9</ele>
        <time>2017-04-29T10:45:46</time>
        <extensions><speed>1.44</speed></extensions>
      </trkpt>
      <trkpt lat="51.947460000" lon="7.598612000">
        <ele>53.9</ele>
        <time>2017-04-29T10:45:47</time>
        <extensions><speed>1.47</speed></extensions>
      </trkpt>
      <trkpt lat="51.947468000" lon="7.598628000">
        <ele>53.8</ele>
        <time>2017-04-29T10:45:48</time>
        <extensions><speed>1.42</speed></extensions>
      </trkpt>
      <trkpt lat="51.947475000" lon="7.598647000">
        <ele>53.8</ele>
        <time>2017-04-29T10:45:49</time>
        <extensions><speed>1.42</speed></extensions>
      </trkpt>
      <trkpt lat="51.947487000" lon="7.598661000">
        <ele>53.8</ele>
        <time>2017-04-29T10:45:50</time>
        <extensions><speed>1.45</speed></extensions>
      </trkpt>
      <trkpt lat="51.947491000" lon="7.598680000">
        <ele>53.8</ele>
        <time>2017-04-29T10:45:51</time>
        <extensions><speed>1.45</speed></extensions>
      </trkpt>
      <trkpt lat="51.947498000" lon="7.598695000">
        <ele>53.7</ele>
        <time>2017-04-29T10:45:52</time>
        <extensions><speed>1.45</speed></extensions>
      </trkpt>
      <trkpt lat="51.947510000" lon="7.598710000">
        <ele>53.7</ele>
        <time>2017-04-29T10:45:53</time>
        <extensions><speed>1.45</speed></extensions>
      </trkpt>
      <trkpt lat="51.947521000" lon="7.598723000">
        <ele>53.7</ele>
        <time>2017-04-29T10:45:54</time>
        <extensions><speed>1.43</speed></extensions>
      </trkpt>
      <trkpt lat="51.947529000" lon="7.598737000">
        <ele>53.7</ele>
        <time>2017-04-29T10:45:55</time>
        <extensions><speed>1.43</speed></extensions>
      </trkpt>
      <trkpt lat="51.947536000" lon="7.598753000">
        <ele>53.7</ele>
        <time>2017-04-29T10:45:56</time>
        <extensions><speed>1.42</speed></extensions>
      </trkpt>
      <trkpt lat="51.947544000" lon="7.598770000">
        <ele>53.7</ele>
        <time>2017-04-29T10:45:57</time>
        <extensions><speed>1.44</speed></extensions>
      </trkpt>
      <trkpt lat="51.947552000" lon="7.598787000">
        <ele>53.7</ele>
        <time>2017-04-29T10:45:58</time>
        <extensions><speed>1.46</speed></extensions>
      </trkpt>
      <trkpt lat="51.947559000" lon="7.598803000">
        <ele>53.7</ele>
        <time>2017-04-29T10:45:59</time>
        <extensions><speed>1.46</speed></extensions>
      </trkpt>
      <trkpt lat="51.947571000" lon="7.598820000">
        <ele>53.7</ele>
        <time>2017-04-29T10:46:00</time>
        <extensions><speed>1.45</speed></extensions>
      </trkpt>
      <trkpt lat="51.947578000" lon="7.598838000">
        <ele>53.7</ele>
        <time>2017-04-29T10:46:01</time>
        <extensions><speed>1.43</speed></extensions>
      </trkpt>
      <trkpt lat="51.947586000" lon="7.598855000">
        <ele>53.7</ele>
        <time>2017-04-29T10:46:02</time>
        <extensions><speed>1.40</speed></extensions>
      </trkpt>
      <trkpt lat="51.947590000" lon="7.598870000">
        <ele>53.7</ele>
        <time>2017-04-29T10:46:03</time>
        <extensions><speed>1.40</speed></extensions>
      </trkpt>
      <trkpt lat="51.947601000" lon="7.598884000">
        <ele>53.7</ele>
        <time>2017-04-29T10:46:04</time>
        <extensions><speed>1.43</speed></extensions>
      </trkpt>
      <trkpt lat="51.947613000" lon="7.598897000">
        <ele>53.7</ele>
        <time>2017-04-29T10:46:05</time>
        <extensions><speed>1.45</speed></extensions>
      </trkpt>
      <trkpt lat="51.947617000" lon="7.598915000">
        <ele>53.7</ele>
        <time>2017-04-29T10:46:06</time>
        <extensions><speed>1.48</speed></extensions>
      </trkpt>
      <trkpt lat="51.947628000" lon="7.598933000">
        <ele>53.7</ele>
        <time>2017-04-29T10:46:07</time>
        <extensions><speed>1.48</speed></extensions>
      </trkpt>
      <trkpt lat="51.947639000" lon="7.598948000">
        <ele>53.7</ele>
        <time>2017-04-29T10:46:08</time>
        <extensions><speed>1.48</speed></extensions>
      </trkpt>
      <trkpt lat="51.947647000" lon="7.598962000">
        <ele>53.7</ele>
        <time>2017-04-29T10:46:09</time>
        <extensions><speed>1.46</speed></extensions>
      </trkpt>
      <trkpt lat="51.947655000" lon="7.598975000">
        <ele>53.7</ele>
        <time>2017-04-29T10:46:10</time>
        <extensions><speed>1.46</speed></extensions>
      </trkpt>
      <trkpt lat="51.947662000" lon="7.598989000">
        <ele>53.7</ele>
        <time>2017-04-29T10:46:11</time>
        <extensions><speed>1.45</speed></extensions>
      </trkpt>
      <trkpt lat="51.947674000" lon="7.599003000">
        <ele>53.7</ele>
        <time>2017-04-29T10:46:12</time>
        <extensions><speed>1.46</speed></extensions>
      </trkpt>
      <trkpt lat="51.947681000" lon="7.599017000">
        <ele>53.7</ele>
        <time>2017-04-29T10:46:13</time>
        <extensions><speed>1.48</speed></extensions>
      </trkpt>
      <trkpt lat="51.947689000" lon="7.599032000">
        <ele>53.7</ele>
        <time>2017-04-29T10:46:14</time>
        <extensions><speed>1.48</speed></extensions>
      </trkpt>
      <trkpt lat="51.947697000" lon="7.599047000">
        <ele>53.7</ele>
        <time>2017-04-29T10:46:15</time>
        <extensions><speed>1.49</speed></extensions>
      </trkpt>
      <trkpt lat="51.947712000" lon="7.599060000">
        <ele>53.7</ele>
        <time>2017-04-29T10:46:16</time>
        <extensions><speed>1.51</speed></extensions>
      </trkpt>
      <trkpt lat="51.947716000" lon="7.599073000">
        <ele>53.7</ele>
        <time>2017-04-29T10:46:17</time>
        <extensions><speed>1.47</speed></extensions>
      </trkpt>
      <trkpt lat="51.947723000" lon="7.599090000">
        <ele>53.7</ele>
        <time>2017-04-29T10:46:18</time>
        <extensions><speed>1.43</speed></extensions>
      </trkpt>
      <trkpt lat="51.947735000" lon="7.599105000">
        <ele>53.7</ele>
        <time>2017-04-29T10:46:19</time>
        <extensions><speed>1.44</speed></extensions>
      </trkpt>
      <trkpt lat="51.947742000" lon="7.599122000">
        <ele>53.7</ele>
        <time>2017-04-29T10:46:20</time>
        <extensions><speed>1.44</speed></extensions>
      </trkpt>
      <trkpt lat="51.947750000" lon="7.599137000">
        <ele>53.7</ele>
        <time>2017-04-29T10:46:21</time>
        <extensions><speed>1.37</speed></extensions>
      </trkpt>
      <trkpt lat="51.947754000" lon="7.599150000">
        <ele>53.7</ele>
        <time>2017-04-29T10:46:22</time>
        <extensions><speed>1.37</speed></extensions>
      </trkpt>
      <trkpt lat="51.947762000" lon="7.599164000">
        <ele>53.7</ele>
        <time>2017-04-29T10:46:23</time>
        <extensions><speed>1.32</speed></extensions>
      </trkpt>
      <trkpt lat="51.947773000" lon="7.599176000">
        <ele>53.7</ele>
        <time>2017-04-29T10:46:24</time>
        <extensions><speed>1.37</speed></extensions>
      </trkpt>
      <trkpt lat="51.947781000" lon="7.599192000">
        <ele>53.7</ele>
        <time>2017-04-29T10:46:25</time>
        <extensions><speed>1.38</speed></extensions>
      </trkpt>
      <trkpt lat="51.947788000" lon="7.599209000">
        <ele>53.7</ele>
        <time>2017-04-29T10:46:26</time>
        <extensions><speed>1.43</speed></extensions>
      </trkpt>
      <trkpt lat="51.947800000" lon="7.599223000">
        <ele>53.8</ele>
        <time>2017-04-29T10:46:27</time>
        <extensions><speed>1.51</speed></extensions>
      </trkpt>
      <trkpt lat="51.947811000" lon="7.599237000">
        <ele>53.8</ele>
        <time>2017-04-29T10:46:28</time>
        <extensions><speed>1.51</speed></extensions>
      </trkpt>
      <trkpt lat="51.947819000" lon="7.599250000">
        <ele>53.8</ele>
        <time>2017-04-29T10:46:29</time>
        <extensions><speed>1.46</speed></extensions>
      </trkpt>
      <trkpt lat="51.947826000" lon="7.599263000">
        <ele>53.8</ele>
        <time>2017-04-29T10:46:30</time>
        <extensions><speed>1.42</speed></extensions>
      </trkpt>
      <trkpt lat="51.947838000" lon="7.599279000">
        <ele>53.8</ele>
        <time>2017-04-29T10:46:31</time>
        <extensions><speed>1.41</speed></extensions>
      </trkpt>
      <trkpt lat="51.947845000" lon="7.599291000">
        <ele>53.8</ele>
        <time>2017-04-29T10:46:32</time>
        <extensions><speed>1.38</speed></extensions>
      </trkpt>
      <trkpt lat="51.947857000" lon="7.599305000">
        <ele>53.8</ele>
        <time>2017-04-29T10:46:33</time>
        <extensions><speed>1.37</speed></extensions>
      </trkpt>
      <trkpt lat="51.947865000" lon="7.599318000">
        <ele>53.8</ele>
        <time>2017-04-29T10:46:34</time>
        <extensions><speed>1.37</speed></extensions>
      </trkpt>
      <trkpt lat="51.947876000" lon="7.599330000">
        <ele>53.8</ele>
        <time>2017-04-29T10:46:35</time>
        <extensions><speed>1.37</speed></extensions>
      </trkpt>
      <trkpt lat="51.947880000" lon="7.599344000">
        <ele>53.8</ele>
        <time>2017-04-29T10:46:36</time>
        <extensions><speed>1.36</speed></extensions>
      </trkpt>
      <trkpt lat="51.947891000" lon="7.599356000">
        <ele>53.8</ele>
        <time>2017-04-29T10:46:37</time>
        <extensions><speed>1.36</speed></extensions>
      </trkpt>
      <trkpt lat="51.947899000" lon="7.599372000">
        <ele>53.8</ele>
        <time>2017-04-29T10:46:38</time>
        <extensions><speed>1.34</speed></extensions>
      </trkpt>
      <trkpt lat="51.947910000" lon="7.599386000">
        <ele>53.8</ele>
        <time>2017-04-29T10:46:39</time>
        <extensions><speed>1.33</speed></extensions>
      </trkpt>
      <trkpt lat="51.947914000" lon="7.599398000">
        <ele>53.8</ele>
        <time>2017-04-29T10:46:40</time>
        <extensions><speed>1.36</speed></extensions>
      </trkpt>
      <trkpt lat="51.947926000" lon="7.599410000">
        <ele>53.8</ele>
        <time>2017-04-29T10:46:41</time>
        <extensions><speed>1.37</speed></extensions>
      </trkpt>
      <trkpt lat="51.947937000" lon="7.599423000">
        <ele>53.8</ele>
        <time>2017-04-29T10:46:42</time>
        <extensions><speed>1.37</speed></extensions>
      </trkpt>
      <trkpt lat="51.947945000" lon="7.599438000">
        <ele>53.8</ele>
        <time>2017-04-29T10:46:43</time>
        <extensions><speed>1.38</speed></extensions>
      </trkpt>
      <trkpt lat="51.947952000" lon="7.599452000">
        <ele>53.7</ele>
        <time>2017-04-29T10:46:44</time>
        <extensions><speed>1.39</speed></extensions>
      </trkpt>
      <trkpt lat="51.947964000" lon="7.599465000">
        <ele>53.7</ele>
        <time>2017-04-29T10:46:45</time>
        <extensions><speed>1.40</speed></extensions>
      </trkpt>
      <trkpt lat="51.947975000" lon="7.599480000">
        <ele>53.7</ele>
        <time>2017-04-29T10:46:46</time>
        <extensions><speed>1.43</speed></extensions>
      </trkpt>
      <trkpt lat="51.947983000" lon="7.599495000">
        <ele>53.7</ele>
        <time>2017-04-29T10:46:47</time>
        <extensions><speed>1.49</speed></extensions>
      </trkpt>
      <trkpt lat="51.947998000" lon="7.599510000">
        <ele>53.7</ele>
        <time>2017-04-29T10:46:48</time>
        <extensions><speed>1.49</speed></extensions>
      </trkpt>
      <trkpt lat="51.948009000" lon="7.599524000">
        <ele>53.7</ele>
        <time>2017-04-29T10:46:49</time>
        <extensions><speed>1.49</speed></extensions>
      </trkpt>
      <trkpt lat="51.948017000" lon="7.599535000">
        <ele>53.7</ele>
        <time>2017-04-29T10:46:50</time>
        <extensions><speed>1.50</speed></extensions>
      </trkpt>
      <trkpt lat="51.948029000" lon="7.599547000">
        <ele>53.7</ele>
        <time>2017-04-29T10:46:51</time>
        <extensions><speed>1.43</speed></extensions>
      </trkpt>
      <trkpt lat="51.948040000" lon="7.599559000">
        <ele>53.6</ele>
        <time>2017-04-29T10:46:52</time>
        <extensions><speed>1.40</speed></extensions>
      </trkpt>
      <trkpt lat="51.948044000" lon="7.599570000">
        <ele>53.6</ele>
        <time>2017-04-29T10:46:53</time>
        <extensions><speed>1.39</speed></extensions>
      </trkpt>
      <trkpt lat="51.948055000" lon="7.599582000">
        <ele>53.6</ele>
        <time>2017-04-29T10:46:54</time>
        <extensions><speed>1.31</speed></extensions>
      </trkpt>
      <trkpt lat="51.948067000" lon="7.599592000">
        <ele>53.6</ele>
        <time>2017-04-29T10:46:55</time>
        <extensions><speed>1.27</speed></extensions>
      </trkpt>
      <trkpt lat="51.948074000" lon="7.599601000">
        <ele>53.6</ele>
        <time>2017-04-29T10:46:56</time>
        <extensions><speed>1.26</speed></extensions>
      </trkpt>
      <trkpt lat="51.948082000" lon="7.599613000">
        <ele>53.6</ele>
        <time>2017-04-29T10:46:57</time>
        <extensions><speed>1.26</speed></extensions>
      </trkpt>
      <trkpt lat="51.948093000" lon="7.599624000">
        <ele>53.5</ele>
        <time>2017-04-29T10:46:58</time>
        <extensions><speed>1.26</speed></extensions>
      </trkpt>
      <trkpt lat="51.948105000" lon="7.599633000">
        <ele>53.5</ele>
        <time>2017-04-29T10:46:59</time>
        <extensions><speed>1.28</speed></extensions>
      </trkpt>
      <trkpt lat="51.948112000" lon="7.599643000">
        <ele>53.5</ele>
        <time>2017-04-29T10:47:00</time>
        <extensions><speed>1.28</speed></extensions>
      </trkpt>
      <trkpt lat="51.948124000" lon="7.599650000">
        <ele>53.5</ele>
        <time>2017-04-29T10:47:01</time>
        <extensions><speed>1.27</speed></extensions>
      </trkpt>
      <trkpt lat="51.948135000" lon="7.599658000">
        <ele>53.5</ele>
        <time>2017-04-29T10:47:02</time>
        <extensions><speed>1.25</speed></extensions>
      </trkpt>
      <trkpt lat="51.948143000" lon="7.599666000">
        <ele>53.5</ele>
        <time>2017-04-29T10:47:03</time>
        <extensions><speed>1.23</speed></extensions>
      </trkpt>
      <trkpt lat="51.948151000" lon="7.599679000">
        <ele>53.4</ele>
        <time>2017-04-29T10:47:04</time>
        <extensions><speed>1.18</speed></extensions>
      </trkpt>
      <trkpt lat="51.948162000" lon="7.599689000">
        <ele>53.4</ele>
        <time>2017-04-29T10:47:05</time>
        <extensions><speed>1.16</speed></extensions>
      </trkpt>
      <trkpt lat="51.948174000" lon="7.599699000">
        <ele>53.4</ele>
        <time>2017-04-29T10:47:06</time>
        <extensions><speed>1.16</speed></extensions>
      </trkpt>
      <trkpt lat="51.948177000" lon="7.599710000">
        <ele>53.4</ele>
        <time>2017-04-29T10:47:07</time>
        <extensions><speed>1.21</speed></extensions>
      </trkpt>
      <trkpt lat="51.948189000" lon="7.599722000">
        <ele>53.4</ele>
        <time>2017-04-29T10:47:08</time>
        <extensions><speed>1.25</speed></extensions>
      </trkpt>
      <trkpt lat="51.948200000" lon="7.599732000">
        <ele>53.3</ele>
        <time>2017-04-29T10:47:09</time>
        <extensions><speed>1.26</speed></extensions>
      </trkpt>
      <trkpt lat="51.948204000" lon="7.599741000">
        <ele>53.3</ele>
        <time>2017-04-29T10:47:10</time>
        <extensions><speed>1.27</speed></extensions>
      </trkpt>
      <trkpt lat="51.948212000" lon="7.599747000">
        <ele>53.3</ele>
        <time>2017-04-29T10:47:11</time>
      </trkpt>
      <trkpt lat="51.948227000" lon="7.599757000">
        <ele>53.3</ele>
        <time>2017-04-29T10:47:13</time>
        <extensions><speed>1.31</speed></extensions>
      </trkpt>
      <trkpt lat="51.948238000" lon="7.599767000">
        <ele>53.3</ele>
        <time>2017-04-29T10:47:14</time>
        <extensions><speed>1.26</speed></extensions>
      </trkpt>
      <trkpt lat="51.948246000" lon="7.599778000">
        <ele>53.3</ele>
        <time>2017-04-29T10:47:15</time>
        <extensions><speed>1.28</speed></extensions>
      </trkpt>
      <trkpt lat="51.948254000" lon="7.599790000">
        <ele>53.3</ele>
        <time>2017-04-29T10:47:16</time>
        <extensions><speed>1.29</speed></extensions>
      </trkpt>
      <trkpt lat="51.948265000" lon="7.599802000">
        <ele>53.3</ele>
        <time>2017-04-29T10:47:17</time>
        <extensions><speed>1.17</speed></extensions>
      </trkpt>
      <trkpt lat="51.948269000" lon="7.599813000">
        <ele>53.3</ele>
        <time>2017-04-29T10:47:18</time>
        <extensions><speed>1.16</speed></extensions>
      </trkpt>
      <trkpt lat="51.948280000" lon="7.599823000">
        <ele>53.3</ele>
        <time>2017-04-29T10:47:19</time>
        <extensions><speed>1.24</speed></extensions>
      </trkpt>
      <trkpt lat="51.948292000" lon="7.599837000">
        <ele>53.3</ele>
        <time>2017-04-29T10:47:20</time>
        <extensions><speed>1.24</speed></extensions>
      </trkpt>
      <trkpt lat="51.948303000" lon="7.599850000">
        <ele>53.3</ele>
        <time>2017-04-29T10:47:21</time>
        <extensions><speed>1.32</speed></extensions>
      </trkpt>
      <trkpt lat="51.948311000" lon="7.599862000">
        <ele>53.3</ele>
        <time>2017-04-29T10:47:22</time>
        <extensions><speed>1.35</speed></extensions>
      </trkpt>
      <trkpt lat="51.948322000" lon="7.599873000">
        <ele>53.3</ele>
        <time>2017-04-29T10:47:23</time>
        <extensions><speed>1.39</speed></extensions>
      </trkpt>
      <trkpt lat="51.948334000" lon="7.599883000">
        <ele>53.3</ele>
        <time>2017-04-29T10:47:24</time>
        <extensions><speed>1.39</speed></extensions>
      </trkpt>
      <trkpt lat="51.948349000" lon="7.599894000">
        <ele>53.3</ele>
        <time>2017-04-29T10:47:25</time>
        <extensions><speed>1.42</speed></extensions>
      </trkpt>
      <trkpt lat="51.948360000" lon="7.599904000">
        <ele>53.4</ele>
        <time>2017-04-29T10:47:26</time>
        <extensions><speed>1.41</speed></extensions>
      </trkpt>
      <trkpt lat="51.948368000" lon="7.599911000">
        <ele>53.4</ele>
        <time>2017-04-29T10:47:27</time>
        <extensions><speed>1.37</speed></extensions>
      </trkpt>
      <trkpt lat="51.948380000" lon="7.599920000">
        <ele>53.4</ele>
        <time>2017-04-29T10:47:28</time>
        <extensions><speed>1.34</speed></extensions>
      </trkpt>
      <trkpt lat="51.948391000" lon="7.599927000">
        <ele>53.4</ele>
        <time>2017-04-29T10:47:29</time>
        <extensions><speed>1.39</speed></extensions>
      </trkpt>
      <trkpt lat="51.948402000" lon="7.599940000">
        <ele>53.5</ele>
        <time>2017-04-29T10:47:30</time>
        <extensions><speed>1.39</speed></extensions>
      </trkpt>
      <trkpt lat="51.948410000" lon="7.599955000">
        <ele>53.5</ele>
        <time>2017-04-29T10:47:31</time>
        <extensions><speed>1.47</speed></extensions>
      </trkpt>
      <trkpt lat="51.948425000" lon="7.599968000">
        <ele>53.5</ele>
        <time>2017-04-29T10:47:32</time>
        <extensions><speed>1.47</speed></extensions>
      </trkpt>
      <trkpt lat="51.948433000" lon="7.599976000">
        <ele>53.6</ele>
        <time>2017-04-29T10:47:33</time>
        <extensions><speed>1.45</speed></extensions>
      </trkpt>
      <trkpt lat="51.948444000" lon="7.599987000">
        <ele>53.6</ele>
        <time>2017-04-29T10:47:34</time>
        <extensions><speed>1.46</speed></extensions>
      </trkpt>
      <trkpt lat="51.948456000" lon="7.599997000">
        <ele>53.6</ele>
        <time>2017-04-29T10:47:35</time>
        <extensions><speed>1.40</speed></extensions>
      </trkpt>
      <trkpt lat="51.948467000" lon="7.600008000">
        <ele>53.6</ele>
        <time>2017-04-29T10:47:36</time>
        <extensions><speed>1.36</speed></extensions>
      </trkpt>
      <trkpt lat="51.948475000" lon="7.600020000">
        <ele>53.6</ele>
        <time>2017-04-29T10:47:37</time>
        <extensions><speed>1.37</speed></extensions>
      </trkpt>
      <trkpt lat="51.948486000" lon="7.600032000">
        <ele>53.7</ele>
        <time>2017-04-29T10:47:38</time>
        <extensions><speed>1.37</speed></extensions>
      </trkpt>
      <trkpt lat="51.948498000" lon="7.600044000">
        <ele>53.7</ele>
        <time>2017-04-29T10:47:39</time>
        <extensions><speed>1.34</speed></extensions>
      </trkpt>
      <trkpt lat="51.948502000" lon="7.600055000">
        <ele>53.7</ele>
        <time>2017-04-29T10:47:40</time>
        <extensions><speed>1.29</speed></extensions>
      </trkpt>
      <trkpt lat="51.948513000" lon="7.600067000">
        <ele>53.7</ele>
        <time>2017-04-29T10:47:41</time>
        <extensions><speed>1.27</speed></extensions>
      </trkpt>
      <trkpt lat="51.948524000" lon="7.600079000">
        <ele>53.7</ele>
        <time>2017-04-29T10:47:42</time>
        <extensions><speed>1.27</speed></extensions>
      </trkpt>
      <trkpt lat="51.948532000" lon="7.600091000">
        <ele>53.8</ele>
        <time>2017-04-29T10:47:43</time>
        <extensions><speed>1.32</speed></extensions>
      </trkpt>
      <trkpt lat="51.948544000" lon="7.600107000">
        <ele>53.8</ele>
        <time>2017-04-29T10:47:44</time>
        <extensions><speed>1.37</speed></extensions>
      </trkpt>
      <trkpt lat="51.948555000" lon="7.600118000">
        <ele>53.8</ele>
        <time>2017-04-29T10:47:45</time>
        <extensions><speed>1.37</speed></extensions>
      </trkpt>
      <trkpt lat="51.948563000" lon="7.600130000">
        <ele>53.8</ele>
        <time>2017-04-29T10:47:46</time>
        <extensions><speed>1.38</speed></extensions>
      </trkpt>
      <trkpt lat="51.948574000" lon="7.600143000">
        <ele>53.8</ele>
        <time>2017-04-29T10:47:47</time>
        <extensions><speed>1.37</speed></extensions>
      </trkpt>
      <trkpt lat="51.948582000" lon="7.600153000">
        <ele>53.8</ele>
        <time>2017-04-29T10:47:48</time>
        <extensions><speed>1.33</speed></extensions>
      </trkpt>
      <trkpt lat="51.948593000" lon="7.600165000">
        <ele>53.8</ele>
        <time>2017-04-29T10:47:49</time>
        <extensions><speed>1.33</speed></extensions>
      </trkpt>
      <trkpt lat="51.948601000" lon="7.600175000">
        <ele>53.9</ele>
        <time>2017-04-29T10:47:50</time>
        <extensions><speed>1.33</speed></extensions>
      </trkpt>
      <trkpt lat="51.948612000" lon="7.600186000">
        <ele>53.9</ele>
        <time>2017-04-29T10:47:51</time>
        <extensions><speed>1.34</speed></extensions>
      </trkpt>
      <trkpt lat="51.948624000" lon="7.600200000">
        <ele>53.9</ele>
        <time>2017-04-29T10:47:52</time>
        <extensions><speed>1.35</speed></extensions>
      </trkpt>
      <trkpt lat="51.948631000" lon="7.600212000">
        <ele>53.9</ele>
        <time>2017-04-29T10:47:53</time>
        <extensions><speed>1.34</speed></extensions>
      </trkpt>
      <trkpt lat="51.948647000" lon="7.600223000">
        <ele>53.9</ele>
        <time>2017-04-29T10:47:54</time>
        <extensions><speed>1.34</speed></extensions>
      </trkpt>
      <trkpt lat="51.948658000" lon="7.600235000">
        <ele>53.9</ele>
        <time>2017-04-29T10:47:55</time>
        <extensions><speed>1.40</speed></extensions>
      </trkpt>
      <trkpt lat="51.948662000" lon="7.600249000">
        <ele>53.9</ele>
        <time>2017-04-29T10:47:56</time>
        <extensions><speed>1.42</speed></extensions>
      </trkpt>
      <trkpt lat="51.948673000" lon="7.600263000">
        <ele>53.9</ele>
        <time>2017-04-29T10:47:57</time>
        <extensions><speed>1.43</speed></extensions>
      </trkpt>
      <trkpt lat="51.948685000" lon="7.600278000">
        <ele>53.9</ele>
        <time>2017-04-29T10:47:58</time>
        <extensions><speed>1.43</speed></extensions>
      </trkpt>
      <trkpt lat="51.948692000" lon="7.600291000">
        <ele>54.0</ele>
        <time>2017-04-29T10:47:59</time>
        <extensions><speed>1.43</speed></extensions>
      </trkpt>
      <trkpt lat="51.948704000" lon="7.600305000">
        <ele>54.0</ele>
        <time>2017-04-29T10:48:00</time>
        <extensions><speed>1.43</speed></extensions>
      </trkpt>
      <trkpt lat="51.948715000" lon="7.600318000">
        <ele>54.0</ele>
        <time>2017-04-29T10:48:01</time>
        <extensions><speed>1.37</speed></extensions>
      </trkpt>
      <trkpt lat="51.948727000" lon="7.600333000">
        <ele>54.0</ele>
        <time>2017-04-29T10:48:02</time>
        <extensions><speed>1.39</speed></extensions>
      </trkpt>
      <trkpt lat="51.948730000" lon="7.600348000">
        <ele>54.0</ele>
        <time>2017-04-29T10:48:03</time>
        <extensions><speed>1.40</speed></extensions>
      </trkpt>
      <trkpt lat="51.948742000" lon="7.600361000">
        <ele>54.0</ele>
        <time>2017-04-29T10:48:04</time>
        <extensions><speed>1.35</speed></extensions>
      </trkpt>
      <trkpt lat="51.948753000" lon="7.600373000">
        <ele>54.0</ele>
        <time>2017-04-29T10:48:05</time>
        <extensions><speed>1.41</speed></extensions>
      </trkpt>
      <trkpt lat="51.948761000" lon="7.600385000">
        <ele>54.0</ele>
        <time>2017-04-29T10:48:06</time>
        <extensions><speed>1.43</speed></extensions>
      </trkpt>
      <trkpt lat="51.948772000" lon="7.600396000">
        <ele>54.0</ele>
        <time>2017-04-29T10:48:07</time>
        <extensions><speed>1.39</speed></extensions>
      </trkpt>
      <trkpt lat="51.948784000" lon="7.600410000">
        <ele>54.0</ele>
        <time>2017-04-29T10:48:08</time>
        <extensions><speed>1.35</speed></extensions>
      </trkpt>
      <trkpt lat="51.948792000" lon="7.600424000">
        <ele>54.0</ele>
        <time>2017-04-29T10:48:09</time>
        <extensions><speed>1.39</speed></extensions>
      </trkpt>
      <trkpt lat="51.948799000" lon="7.600438000">
        <ele>54.0</ele>
        <time>2017-04-29T10:48:10</time>
        <extensions><speed>1.39</speed></extensions>
      </trkpt>
      <trkpt lat="51.948811000" lon="7.600453000">
        <ele>54.0</ele>
        <time>2017-04-29T10:48:11</time>
        <extensions><speed>1.38</speed></extensions>
      </trkpt>
      <trkpt lat="51.948822000" lon="7.600468000">
        <ele>54.0</ele>
        <time>2017-04-29T10:48:12</time>
        <extensions><speed>1.45</speed></extensions>
      </trkpt>
      <trkpt lat="51.948826000" lon="7.600482000">
        <ele>54.0</ele>
        <time>2017-04-29T10:48:13</time>
        <extensions><speed>1.45</speed></extensions>
      </trkpt>
      <trkpt lat="51.948837000" lon="7.600493000">
        <ele>54.0</ele>
        <time>2017-04-29T10:48:14</time>
        <extensions><speed>1.43</speed></extensions>
      </trkpt>
      <trkpt lat="51.948849000" lon="7.600508000">
        <ele>54.0</ele>
        <time>2017-04-29T10:48:15</time>
        <extensions><speed>1.34</speed></extensions>
      </trkpt>
      <trkpt lat="51.948856000" lon="7.600525000">
        <ele>54.0</ele>
        <time>2017-04-29T10:48:16</time>
        <extensions><speed>1.42</speed></extensions>
      </trkpt>
      <trkpt lat="51.948868000" lon="7.600543000">
        <ele>54.0</ele>
        <time>2017-04-29T10:48:17</time>
        <extensions><speed>1.42</speed></extensions>
      </trkpt>
      <trkpt lat="51.948875000" lon="7.600560000">
        <ele>54.0</ele>
        <time>2017-04-29T10:48:18</time>
        <extensions><speed>1.48</speed></extensions>
      </trkpt>
      <trkpt lat="51.948887000" lon="7.600576000">
        <ele>54.0</ele>
        <time>2017-04-29T10:48:19</time>
        <extensions><speed>1.55</speed></extensions>
      </trkpt>
      <trkpt lat="51.948895000" lon="7.600592000">
        <ele>54.0</ele>
        <time>2017-04-29T10:48:20</time>
        <extensions><speed>1.55</speed></extensions>
      </trkpt>
      <trkpt lat="51.948906000" lon="7.600608000">
        <ele>54.0</ele>
        <time>2017-04-29T10:48:21</time>
        <extensions><speed>1.49</speed></extensions>
      </trkpt>
      <trkpt lat="51.948917000" lon="7.600625000">
        <ele>54.0</ele>
        <time>2017-04-29T10:48:22</time>
        <extensions><speed>1.50</speed></extensions>
      </trkpt>
      <trkpt lat="51.948921000" lon="7.600641000">
        <ele>54.0</ele>
        <time>2017-04-29T10:48:23</time>
        <extensions><speed>1.47</speed></extensions>
      </trkpt>
      <trkpt lat="51.948933000" lon="7.600658000">
        <ele>54.1</ele>
        <time>2017-04-29T10:48:24</time>
        <extensions><speed>1.43</speed></extensions>
      </trkpt>
      <trkpt lat="51.948944000" lon="7.600672000">
        <ele>54.1</ele>
        <time>2017-04-29T10:48:25</time>
        <extensions><speed>1.50</speed></extensions>
      </trkpt>
      <trkpt lat="51.948956000" lon="7.600685000">
        <ele>54.2</ele>
        <time>2017-04-29T10:48:26</time>
        <extensions><speed>1.47</speed></extensions>
      </trkpt>
      <trkpt lat="51.948963000" lon="7.600700000">
        <ele>54.2</ele>
        <time>2017-04-29T10:48:27</time>
        <extensions><speed>1.39</speed></extensions>
      </trkpt>
      <trkpt lat="51.948971000" lon="7.600715000">
        <ele>54.3</ele>
        <time>2017-04-29T10:48:28</time>
        <extensions><speed>1.45</speed></extensions>
      </trkpt>
      <trkpt lat="51.948982000" lon="7.600730000">
        <ele>54.3</ele>
        <time>2017-04-29T10:48:29</time>
        <extensions><speed>1.44</speed></extensions>
      </trkpt>
      <trkpt lat="51.948990000" lon="7.600742000">
        <ele>54.4</ele>
        <time>2017-04-29T10:48:30</time>
        <extensions><speed>1.36</speed></extensions>
      </trkpt>
      <trkpt lat="51.949001000" lon="7.600755000">
        <ele>54.4</ele>
        <time>2017-04-29T10:48:31</time>
        <extensions><speed>1.40</speed></extensions>
      </trkpt>
      <trkpt lat="51.949009000" lon="7.600769000">
        <ele>54.5</ele>
        <time>2017-04-29T10:48:32</time>
        <extensions><speed>1.40</speed></extensions>
      </trkpt>
      <trkpt lat="51.949017000" lon="7.600780000">
        <ele>54.5</ele>
        <time>2017-04-29T10:48:33</time>
        <extensions><speed>1.31</speed></extensions>
      </trkpt>
      <trkpt lat="51.949020000" lon="7.600795000">
        <ele>54.6</ele>
        <time>2017-04-29T10:48:34</time>
        <extensions><speed>1.26</speed></extensions>
      </trkpt>
      <trkpt lat="51.949028000" lon="7.600811000">
        <ele>54.6</ele>
        <time>2017-04-29T10:48:35</time>
        <extensions><speed>1.30</speed></extensions>
      </trkpt>
      <trkpt lat="51.949039000" lon="7.600825000">
        <ele>54.6</ele>
        <time>2017-04-29T10:48:36</time>
        <extensions><speed>1.30</speed></extensions>
      </trkpt>
      <trkpt lat="51.949051000" lon="7.600839000">
        <ele>54.7</ele>
        <time>2017-04-29T10:48:37</time>
        <extensions><speed>1.35</speed></extensions>
      </trkpt>
      <trkpt lat="51.949055000" lon="7.600853000">
        <ele>54.7</ele>
        <time>2017-04-29T10:48:38</time>
        <extensions><speed>1.42</speed></extensions>
      </trkpt>
      <trkpt lat="51.949066000" lon="7.600872000">
        <ele>54.8</ele>
        <time>2017-04-29T10:48:39</time>
        <extensions><speed>1.47</speed></extensions>
      </trkpt>
      <trkpt lat="51.949074000" lon="7.600890000">
        <ele>54.8</ele>
        <time>2017-04-29T10:48:40</time>
        <extensions><speed>1.48</speed></extensions>
      </trkpt>
      <trkpt lat="51.949078000" lon="7.600909000">
        <ele>54.8</ele>
        <time>2017-04-29T10:48:41</time>
        <extensions><speed>1.44</speed></extensions>
      </trkpt>
      <trkpt lat="51.949085000" lon="7.600925000">
        <ele>54.9</ele>
        <time>2017-04-29T10:48:42</time>
        <extensions><speed>1.45</speed></extensions>
      </trkpt>
      <trkpt lat="51.949093000" lon="7.600942000">
        <ele>54.9</ele>
        <time>2017-04-29T10:48:43</time>
        <extensions><speed>1.45</speed></extensions>
      </trkpt>
      <trkpt lat="51.949104000" lon="7.600956000">
        <ele>54.9</ele>
        <time>2017-04-29T10:48:44</time>
        <extensions><speed>1.41</speed></extensions>
      </trkpt>
      <trkpt lat="51.949112000" lon="7.600972000">
        <ele>55.0</ele>
        <time>2017-04-29T10:48:45</time>
        <extensions><speed>1.41</speed></extensions>
      </trkpt>
      <trkpt lat="51.949120000" lon="7.600988000">
        <ele>55.0</ele>
        <time>2017-04-29T10:48:46</time>
        <extensions><speed>1.38</speed></extensions>
      </trkpt>
      <trkpt lat="51.949131000" lon="7.601002000">
        <ele>55.0</ele>
        <time>2017-04-29T10:48:47</time>
        <extensions><speed>1.37</speed></extensions>
      </trkpt>
      <trkpt lat="51.949139000" lon="7.601019000">
        <ele>55.1</ele>
        <time>2017-04-29T10:48:48</time>
        <extensions><speed>1.37</speed></extensions>
      </trkpt>
      <trkpt lat="51.949146000" lon="7.601033000">
        <ele>55.1</ele>
        <time>2017-04-29T10:48:49</time>
        <extensions><speed>1.37</speed></extensions>
      </trkpt>
      <trkpt lat="51.949154000" lon="7.601048000">
        <ele>55.2</ele>
        <time>2017-04-29T10:48:50</time>
        <extensions><speed>1.36</speed></extensions>
      </trkpt>
      <trkpt lat="51.949165000" lon="7.601063000">
        <ele>55.2</ele>
        <time>2017-04-29T10:48:51</time>
        <extensions><speed>1.36</speed></extensions>
      </trkpt>
      <trkpt lat="51.949173000" lon="7.601075000">
        <ele>55.2</ele>
        <time>2017-04-29T10:48:52</time>
        <extensions><speed>1.33</speed></extensions>
      </trkpt>
      <trkpt lat="51.949184000" lon="7.601087000">
        <ele>55.3</ele>
        <time>2017-04-29T10:48:53</time>
        <extensions><speed>1.33</speed></extensions>
      </trkpt>
      <trkpt lat="51.949188000" lon="7.601098000">
        <ele>55.3</ele>
        <time>2017-04-29T10:48:54</time>
        <extensions><speed>1.33</speed></extensions>
      </trkpt>
      <trkpt lat="51.949196000" lon="7.601107000">
        <ele>55.4</ele>
        <time>2017-04-29T10:48:55</time>
        <extensions><speed>1.22</speed></extensions>
      </trkpt>
      <trkpt lat="51.949200000" lon="7.601115000">
        <ele>55.4</ele>
        <time>2017-04-29T10:48:56</time>
        <extensions><speed>1.14</speed></extensions>
      </trkpt>
      <trkpt lat="51.949203000" lon="7.601119000">
        <ele>55.5</ele>
        <time>2017-04-29T10:48:57</time>
      </trkpt>
      <trkpt lat="51.949203000" lon="7.601122000">
        <ele>55.5</ele>
        <time>2017-04-29T10:48:59</time>
        <extensions><speed>0.60</speed></extensions>
      </trkpt>
      <trkpt lat="51.949287000" lon="7.601259000">
        <ele>55.8</ele>
        <time>2017-04-29T10:49:42</time>
      </trkpt>
      <trkpt lat="51.949295000" lon="7.601273000">
        <ele>55.8</ele>
        <time>2017-04-29T10:49:44</time>
        <extensions><speed>1.38</speed></extensions>
      </trkpt>
      <trkpt lat="51.949306000" lon="7.601292000">
        <ele>55.9</ele>
        <time>2017-04-29T10:49:45</time>
        <extensions><speed>1.43</speed></extensions>
      </trkpt>
      <trkpt lat="51.949314000" lon="7.601310000">
        <ele>55.9</ele>
        <time>2017-04-29T10:49:46</time>
        <extensions><speed>1.50</speed></extensions>
      </trkpt>
      <trkpt lat="51.949322000" lon="7.601327000">
        <ele>56.0</ele>
        <time>2017-04-29T10:49:47</time>
        <extensions><speed>1.50</speed></extensions>
      </trkpt>
      <trkpt lat="51.949329000" lon="7.601343000">
        <ele>56.0</ele>
        <time>2017-04-29T10:49:48</time>
        <extensions><speed>1.43</speed></extensions>
      </trkpt>
      <trkpt lat="51.949337000" lon="7.601360000">
        <ele>56.0</ele>
        <time>2017-04-29T10:49:49</time>
        <extensions><speed>1.45</speed></extensions>
      </trkpt>
      <trkpt lat="51.949345000" lon="7.601373000">
        <ele>56.0</ele>
        <time>2017-04-29T10:49:50</time>
        <extensions><speed>1.39</speed></extensions>
      </trkpt>
      <trkpt lat="51.949348000" lon="7.601387000">
        <ele>56.1</ele>
        <time>2017-04-29T10:49:51</time>
        <extensions><speed>1.31</speed></extensions>
      </trkpt>
      <trkpt lat="51.949352000" lon="7.601404000">
        <ele>56.1</ele>
        <time>2017-04-29T10:49:52</time>
        <extensions><speed>1.32</speed></extensions>
      </trkpt>
      <trkpt lat="51.949360000" lon="7.601422000">
        <ele>56.1</ele>
        <time>2017-04-29T10:49:53</time>
        <extensions><speed>1.33</speed></extensions>
      </trkpt>
      <trkpt lat="51.949368000" lon="7.601437000">
        <ele>56.1</ele>
        <time>2017-04-29T10:49:54</time>
        <extensions><speed>1.29</speed></extensions>
      </trkpt>
      <trkpt lat="51.949375000" lon="7.601453000">
        <ele>56.1</ele>
        <time>2017-04-29T10:49:55</time>
        <extensions><speed>1.32</speed></extensions>
      </trkpt>
      <trkpt lat="51.949379000" lon="7.601469000">
        <ele>56.1</ele>
        <time>2017-04-29T10:49:56</time>
        <extensions><speed>1.32</speed></extensions>
      </trkpt>
      <trkpt lat="51.949387000" lon="7.601483000">
        <ele>56.1</ele>
        <time>2017-04-29T10:49:57</time>
        <extensions><speed>1.29</speed></extensions>
      </trkpt>
      <trkpt lat="51.949394000" lon="7.601500000">
        <ele>56.1</ele>
        <time>2017-04-29T10:49:58</time>
        <extensions><speed>1.31</speed></extensions>
      </trkpt>
      <trkpt lat="51.949402000" lon="7.601516000">
        <ele>56.2</ele>
        <time>2017-04-29T10:49:59</time>
        <extensions><speed>1.37</speed></extensions>
      </trkpt>
      <trkpt lat="51.949409000" lon="7.601532000">
        <ele>56.2</ele>
        <time>2017-04-29T10:50:00</time>
        <extensions><speed>1.37</speed></extensions>
      </trkpt>
      <trkpt lat="51.949413000" lon="7.601548000">
        <ele>56.2</ele>
        <time>2017-04-29T10:50:01</time>
        <extensions><speed>1.42</speed></extensions>
      </trkpt>
      <trkpt lat="51.949421000" lon="7.601567000">
        <ele>56.2</ele>
        <time>2017-04-29T10:50:02</time>
        <extensions><speed>1.44</speed></extensions>
      </trkpt>
      <trkpt lat="51.949429000" lon="7.601585000">
        <ele>56.2</ele>
        <time>2017-04-29T10:50:03</time>
        <extensions><speed>1.47</speed></extensions>
      </trkpt>
      <trkpt lat="51.949440000" lon="7.601602000">
        <ele>56.2</ele>
        <time>2017-04-29T10:50:04</time>
        <extensions><speed>1.50</speed></extensions>
      </trkpt>
      <trkpt lat="51.949444000" lon="7.601620000">
        <ele>56.2</ele>
        <time>2017-04-29T10:50:05</time>
        <extensions><speed>1.48</speed></extensions>
      </trkpt>
      <trkpt lat="51.949451000" lon="7.601637000">
        <ele>56.2</ele>
        <time>2017-04-29T10:50:06</time>
        <extensions><speed>1.48</speed></extensions>
      </trkpt>
      <trkpt lat="51.949459000" lon="7.601653000">
        <ele>56.2</ele>
        <time>2017-04-29T10:50:07</time>
        <extensions><speed>1.51</speed></extensions>
      </trkpt>
      <trkpt lat="51.949471000" lon="7.601674000">
        <ele>56.2</ele>
        <time>2017-04-29T10:50:08</time>
        <extensions><speed>1.47</speed></extensions>
      </trkpt>
      <trkpt lat="51.949478000" lon="7.601690000">
        <ele>56.2</ele>
        <time>2017-04-29T10:50:09</time>
        <extensions><speed>1.44</speed></extensions>
      </trkpt>
      <trkpt lat="51.949482000" lon="7.601707000">
        <ele>56.2</ele>
        <time>2017-04-29T10:50:10</time>
        <extensions><speed>1.44</speed></extensions>
      </trkpt>
      <trkpt lat="51.949490000" lon="7.601723000">
        <ele>56.2</ele>
        <time>2017-04-29T10:50:11</time>
        <extensions><speed>1.47</speed></extensions>
      </trkpt>
      <trkpt lat="51.949493000" lon="7.601742000">
        <ele>56.2</ele>
        <time>2017-04-29T10:50:12</time>
        <extensions><speed>1.45</speed></extensions>
      </trkpt>
      <trkpt lat="51.949505000" lon="7.601757000">
        <ele>56.2</ele>
        <time>2017-04-29T10:50:13</time>
        <extensions><speed>1.45</speed></extensions>
      </trkpt>
      <trkpt lat="51.949509000" lon="7.601773000">
        <ele>56.2</ele>
        <time>2017-04-29T10:50:14</time>
        <extensions><speed>1.41</speed></extensions>
      </trkpt>
      <trkpt lat="51.949516000" lon="7.601791000">
        <ele>56.1</ele>
        <time>2017-04-29T10:50:15</time>
        <extensions><speed>1.44</speed></extensions>
      </trkpt>
      <trkpt lat="51.949528000" lon="7.601810000">
        <ele>56.1</ele>
        <time>2017-04-29T10:50:16</time>
        <extensions><speed>1.44</speed></extensions>
      </trkpt>
      <trkpt lat="51.949535000" lon="7.601825000">
        <ele>56.1</ele>
        <time>2017-04-29T10:50:17</time>
        <extensions><speed>1.44</speed></extensions>
      </trkpt>
      <trkpt lat="51.949543000" lon="7.601840000">
        <ele>56.1</ele>
        <time>2017-04-29T10:50:18</time>
        <extensions><speed>1.43</speed></extensions>
      </trkpt>
      <trkpt lat="51.949547000" lon="7.601855000">
        <ele>56.1</ele>
        <time>2017-04-29T10:50:19</time>
        <extensions><speed>1.43</speed></extensions>
      </trkpt>
      <trkpt lat="51.949554000" lon="7.601871000">
        <ele>56.1</ele>
        <time>2017-04-29T10:50:20</time>
        <extensions><speed>1.45</speed></extensions>
      </trkpt>
      <trkpt lat="51.949562000" lon="7.601891000">
        <ele>56.1</ele>
        <time>2017-04-29T10:50:21</time>
        <extensions><speed>1.45</speed></extensions>
      </trkpt>
      <trkpt lat="51.949570000" lon="7.601907000">
        <ele>56.1</ele>
        <time>2017-04-29T10:50:22</time>
        <extensions><speed>1.45</speed></extensions>
      </trkpt>
      <trkpt lat="51.949574000" lon="7.601922000">
        <ele>56.1</ele>
        <time>2017-04-29T10:50:23</time>
        <extensions><speed>1.46</speed></extensions>
      </trkpt>
      <trkpt lat="51.949585000" lon="7.601936000">
        <ele>56.1</ele>
        <time>2017-04-29T10:50:24</time>
        <extensions><speed>1.50</speed></extensions>
      </trkpt>
      <trkpt lat="51.949593000" lon="7.601952000">
        <ele>56.1</ele>
        <time>2017-04-29T10:50:25</time>
        <extensions><speed>1.47</speed></extensions>
      </trkpt>
      <trkpt lat="51.949604000" lon="7.601966000">
        <ele>56.1</ele>
        <time>2017-04-29T10:50:26</time>
        <extensions><speed>1.46</speed></extensions>
      </trkpt>
      <trkpt lat="51.949608000" lon="7.601984000">
        <ele>56.1</ele>
        <time>2017-04-29T10:50:27</time>
        <extensions><speed>1.46</speed></extensions>
      </trkpt>
      <trkpt lat="51.949615000" lon="7.602001000">
        <ele>56.2</ele>
        <time>2017-04-29T10:50:28</time>
        <extensions><speed>1.47</speed></extensions>
      </trkpt>
      <trkpt lat="51.949623000" lon="7.602022000">
        <ele>56.2</ele>
        <time>2017-04-29T10:50:29</time>
        <extensions><speed>1.47</speed></extensions>
      </trkpt>
      <trkpt lat="51.949635000" lon="7.602040000">
        <ele>56.2</ele>
        <time>2017-04-29T10:50:30</time>
        <extensions><speed>1.47</speed></extensions>
      </trkpt>
      <trkpt lat="51.949638000" lon="7.602057000">
        <ele>56.2</ele>
        <time>2017-04-29T10:50:31</time>
        <extensions><speed>1.45</speed></extensions>
      </trkpt>
      <trkpt lat="51.949646000" lon="7.602071000">
        <ele>56.3</ele>
        <time>2017-04-29T10:50:32</time>
        <extensions><speed>1.48</speed></extensions>
      </trkpt>
      <trkpt lat="51.949654000" lon="7.602088000">
        <ele>56.3</ele>
        <time>2017-04-29T10:50:33</time>
        <extensions><speed>1.48</speed></extensions>
      </trkpt>
      <trkpt lat="51.949661000" lon="7.602107000">
        <ele>56.3</ele>
        <time>2017-04-29T10:50:34</time>
        <extensions><speed>1.46</speed></extensions>
      </trkpt>
      <trkpt lat="51.949669000" lon="7.602123000">
        <ele>56.4</ele>
        <time>2017-04-29T10:50:35</time>
        <extensions><speed>1.49</speed></extensions>
      </trkpt>
      <trkpt lat="51.949673000" lon="7.602141000">
        <ele>56.4</ele>
        <time>2017-04-29T10:50:36</time>
        <extensions><speed>1.51</speed></extensions>
      </trkpt>
      <trkpt lat="51.949684000" lon="7.602160000">
        <ele>56.4</ele>
        <time>2017-04-29T10:50:37</time>
        <extensions><speed>1.51</speed></extensions>
      </trkpt>
      <trkpt lat="51.949692000" lon="7.602176000">
        <ele>56.4</ele>
        <time>2017-04-29T10:50:38</time>
        <extensions><speed>1.51</speed></extensions>
      </trkpt>
      <trkpt lat="51.949703000" lon="7.602189000">
        <ele>56.4</ele>
        <time>2017-04-29T10:50:39</time>
        <extensions><speed>1.51</speed></extensions>
      </trkpt>
      <trkpt lat="51.949707000" lon="7.602202000">
        <ele>56.5</ele>
        <time>2017-04-29T10:50:40</time>
        <extensions><speed>1.48</speed></extensions>
      </trkpt>
      <trkpt lat="51.949711000" lon="7.602218000">
        <ele>56.5</ele>
        <time>2017-04-29T10:50:41</time>
        <extensions><speed>1.36</speed></extensions>
      </trkpt>
      <trkpt lat="51.949718000" lon="7.602233000">
        <ele>56.5</ele>
        <time>2017-04-29T10:50:42</time>
        <extensions><speed>1.31</speed></extensions>
      </trkpt>
      <trkpt lat="51.949726000" lon="7.602246000">
        <ele>56.5</ele>
        <time>2017-04-29T10:50:43</time>
        <extensions><speed>1.23</speed></extensions>
      </trkpt>
      <trkpt lat="51.949734000" lon="7.602260000">
        <ele>56.5</ele>
        <time>2017-04-29T10:50:44</time>
        <extensions><speed>1.27</speed></extensions>
      </trkpt>
      <trkpt lat="51.949738000" lon="7.602274000">
        <ele>56.6</ele>
        <time>2017-04-29T10:50:45</time>
        <extensions><speed>1.25</speed></extensions>
      </trkpt>
      <trkpt lat="51.949745000" lon="7.602286000">
        <ele>56.6</ele>
        <time>2017-04-29T10:50:46</time>
        <extensions><speed>1.29</speed></extensions>
      </trkpt>
      <trkpt lat="51.949757000" lon="7.602302000">
        <ele>56.6</ele>
        <time>2017-04-29T10:50:47</time>
        <extensions><speed>1.35</speed></extensions>
      </trkpt>
      <trkpt lat="51.949764000" lon="7.602318000">
        <ele>56.6</ele>
        <time>2017-04-29T10:50:48</time>
        <extensions><speed>1.35</speed></extensions>
      </trkpt>
      <trkpt lat="51.949768000" lon="7.602337000">
        <ele>56.6</ele>
        <time>2017-04-29T10:50:49</time>
        <extensions><speed>1.39</speed></extensions>
      </trkpt>
      <trkpt lat="51.949772000" lon="7.602355000">
        <ele>56.7</ele>
        <time>2017-04-29T10:50:50</time>
        <extensions><speed>1.46</speed></extensions>
      </trkpt>
      <trkpt lat="51.949780000" lon="7.602374000">
        <ele>56.7</ele>
        <time>2017-04-29T10:50:51</time>
        <extensions><speed>1.44</speed></extensions>
      </trkpt>
      <trkpt lat="51.949787000" lon="7.602392000">
        <ele>56.7</ele>
        <time>2017-04-29T10:50:52</time>
        <extensions><speed>1.44</speed></extensions>
      </trkpt>
      <trkpt lat="51.949799000" lon="7.602410000">
        <ele>56.7</ele>
        <time>2017-04-29T10:50:53</time>
        <extensions><speed>1.48</speed></extensions>
      </trkpt>
      <trkpt lat="51.949806000" lon="7.602427000">
        <ele>56.7</ele>
        <time>2017-04-29T10:50:54</time>
        <extensions><speed>1.48</speed></extensions>
      </trkpt>
      <trkpt lat="51.949810000" lon="7.602444000">
        <ele>56.7</ele>
        <time>2017-04-29T10:50:55</time>
        <extensions><speed>1.44</speed></extensions>
      </trkpt>
      <trkpt lat="51.949818000" lon="7.602458000">
        <ele>56.7</ele>
        <time>2017-04-29T10:50:56</time>
        <extensions><speed>1.38</speed></extensions>
      </trkpt>
      <trkpt lat="51.949829000" lon="7.602470000">
        <ele>56.7</ele>
        <time>2017-04-29T10:50:57</time>
        <extensions><speed>1.31</speed></extensions>
      </trkpt>
      <trkpt lat="51.949837000" lon="7.602485000">
        <ele>56.8</ele>
        <time>2017-04-29T10:50:58</time>
        <extensions><speed>1.28</speed></extensions>
      </trkpt>
      <trkpt lat="51.949841000" lon="7.602503000">
        <ele>56.8</ele>
        <time>2017-04-29T10:50:59</time>
        <extensions><speed>1.28</speed></extensions>
      </trkpt>
      <trkpt lat="51.949852000" lon="7.602517000">
        <ele>56.8</ele>
        <time>2017-04-29T10:51:00</time>
        <extensions><speed>1.30</speed></extensions>
      </trkpt>
      <trkpt lat="51.949863000" lon="7.602528000">
        <ele>56.8</ele>
        <time>2017-04-29T10:51:01</time>
        <extensions><speed>1.32</speed></extensions>
      </trkpt>
      <trkpt lat="51.949871000" lon="7.602542000">
        <ele>56.8</ele>
        <time>2017-04-29T10:51:02</time>
        <extensions><speed>1.32</speed></extensions>
      </trkpt>
      <trkpt lat="51.949879000" lon="7.602556000">
        <ele>56.8</ele>
        <time>2017-04-29T10:51:03</time>
        <extensions><speed>1.35</speed></extensions>
      </trkpt>
      <trkpt lat="51.949886000" lon="7.602575000">
        <ele>56.8</ele>
        <time>2017-04-29T10:51:04</time>
        <extensions><speed>1.34</speed></extensions>
      </trkpt>
      <trkpt lat="51.949894000" lon="7.602590000">
        <ele>56.9</ele>
        <time>2017-04-29T10:51:05</time>
        <extensions><speed>1.35</speed></extensions>
      </trkpt>
      <trkpt lat="51.949902000" lon="7.602603000">
        <ele>56.9</ele>
        <time>2017-04-29T10:51:06</time>
        <extensions><speed>1.36</speed></extensions>
      </trkpt>
      <trkpt lat="51.949909000" lon="7.602621000">
        <ele>56.9</ele>
        <time>2017-04-29T10:51:07</time>
        <extensions><speed>1.37</speed></extensions>
      </trkpt>
      <trkpt lat="51.949913000" lon="7.602637000">
        <ele>56.9</ele>
        <time>2017-04-29T10:51:08</time>
        <extensions><speed>1.39</speed></extensions>
      </trkpt>
      <trkpt lat="51.949921000" lon="7.602654000">
        <ele>57.0</ele>
        <time>2017-04-29T10:51:09</time>
        <extensions><speed>1.41</speed></extensions>
      </trkpt>
      <trkpt lat="51.949928000" lon="7.602666000">
        <ele>57.0</ele>
        <time>2017-04-29T10:51:10</time>
        <extensions><speed>1.41</speed></extensions>
      </trkpt>
      <trkpt lat="51.949936000" lon="7.602680000">
        <ele>57.0</ele>
        <time>2017-04-29T10:51:11</time>
        <extensions><speed>1.41</speed></extensions>
      </trkpt>
      <trkpt lat="51.949944000" lon="7.602695000">
        <ele>57.0</ele>
        <time>2017-04-29T10:51:12</time>
        <extensions><speed>1.37</speed></extensions>
      </trkpt>
      <trkpt lat="51.949951000" lon="7.602708000">
        <ele>57.0</ele>
        <time>2017-04-29T10:51:13</time>
        <extensions><speed>1.37</speed></extensions>
      </trkpt>
      <trkpt lat="51.949959000" lon="7.602724000">
        <ele>57.0</ele>
        <time>2017-04-29T10:51:14</time>
        <extensions><speed>1.32</speed></extensions>
      </trkpt>
      <trkpt lat="51.949966000" lon="7.602735000">
        <ele>57.1</ele>
        <time>2017-04-29T10:51:15</time>
        <extensions><speed>1.29</speed></extensions>
      </trkpt>
      <trkpt lat="51.949974000" lon="7.602750000">
        <ele>57.1</ele>
        <time>2017-04-29T10:51:16</time>
        <extensions><speed>1.38</speed></extensions>
      </trkpt>
      <trkpt lat="51.949986000" lon="7.602765000">
        <ele>57.1</ele>
        <time>2017-04-29T10:51:17</time>
        <extensions><speed>1.44</speed></extensions>
      </trkpt>
      <trkpt lat="51.949993000" lon="7.602778000">
        <ele>57.1</ele>
        <time>2017-04-29T10:51:18</time>
        <extensions><speed>1.35</speed></extensions>
      </trkpt>
      <trkpt lat="51.949997000" lon="7.602790000">
        <ele>57.1</ele>
        <time>2017-04-29T10:51:19</time>
        <extensions><speed>1.35</speed></extensions>
      </trkpt>
      <trkpt lat="51.950005000" lon="7.602803000">
        <ele>57.1</ele>
        <time>2017-04-29T10:51:20</time>
        <extensions><speed>1.35</speed></extensions>
      </trkpt>
      <trkpt lat="51.950016000" lon="7.602820000">
        <ele>57.1</ele>
        <time>2017-04-29T10:51:21</time>
        <extensions><speed>1.34</speed></extensions>
      </trkpt>
      <trkpt lat="51.950027000" lon="7.602837000">
        <ele>57.1</ele>
        <time>2017-04-29T10:51:22</time>
        <extensions><speed>1.34</speed></extensions>
      </trkpt>
      <trkpt lat="51.950031000" lon="7.602853000">
        <ele>57.2</ele>
        <time>2017-04-29T10:51:23</time>
        <extensions><speed>1.32</speed></extensions>
      </trkpt>
      <trkpt lat="51.950039000" lon="7.602870000">
        <ele>57.2</ele>
        <time>2017-04-29T10:51:24</time>
        <extensions><speed>1.33</speed></extensions>
      </trkpt>
      <trkpt lat="51.950047000" lon="7.602885000">
        <ele>57.2</ele>
        <time>2017-04-29T10:51:25</time>
        <extensions><speed>1.32</speed></extensions>
      </trkpt>
      <trkpt lat="51.950054000" lon="7.602901000">
        <ele>57.2</ele>
        <time>2017-04-29T10:51:26</time>
        <extensions><speed>1.25</speed></extensions>
      </trkpt>
      <trkpt lat="51.950058000" lon="7.602913000">
        <ele>57.2</ele>
        <time>2017-04-29T10:51:27</time>
        <extensions><speed>1.20</speed></extensions>
      </trkpt>
      <trkpt lat="51.950062000" lon="7.602927000">
        <ele>57.2</ele>
        <time>2017-04-29T10:51:28</time>
        <extensions><speed>1.19</speed></extensions>
      </trkpt>
      <trkpt lat="51.950069000" lon="7.602942000">
        <ele>57.2</ele>
        <time>2017-04-29T10:51:29</time>
        <extensions><speed>1.16</speed></extensions>
      </trkpt>
      <trkpt lat="51.950081000" lon="7.602959000">
        <ele>57.2</ele>
        <time>2017-04-29T10:51:30</time>
        <extensions><speed>1.16</speed></extensions>
      </trkpt>
      <trkpt lat="51.950092000" lon="7.602975000">
        <ele>57.2</ele>
        <time>2017-04-29T10:51:31</time>
        <extensions><speed>1.23</speed></extensions>
      </trkpt>
      <trkpt lat="51.950096000" lon="7.602992000">
        <ele>57.2</ele>
        <time>2017-04-29T10:51:32</time>
        <extensions><speed>1.25</speed></extensions>
      </trkpt>
      <trkpt lat="51.950104000" lon="7.603008000">
        <ele>57.2</ele>
        <time>2017-04-29T10:51:33</time>
        <extensions><speed>1.33</speed></extensions>
      </trkpt>
      <trkpt lat="51.950111000" lon="7.603027000">
        <ele>57.2</ele>
        <time>2017-04-29T10:51:34</time>
        <extensions><speed>1.41</speed></extensions>
      </trkpt>
      <trkpt lat="51.950119000" lon="7.603041000">
        <ele>57.2</ele>
        <time>2017-04-29T10:51:35</time>
        <extensions><speed>1.41</speed></extensions>
      </trkpt>
      <trkpt lat="51.950127000" lon="7.603056000">
        <ele>57.2</ele>
        <time>2017-04-29T10:51:36</time>
        <extensions><speed>1.39</speed></extensions>
      </trkpt>
      <trkpt lat="51.950134000" lon="7.603075000">
        <ele>57.2</ele>
        <time>2017-04-29T10:51:37</time>
        <extensions><speed>1.41</speed></extensions>
      </trkpt>
      <trkpt lat="51.950142000" lon="7.603092000">
        <ele>57.2</ele>
        <time>2017-04-29T10:51:38</time>
        <extensions><speed>1.43</speed></extensions>
      </trkpt>
      <trkpt lat="51.950153000" lon="7.603107000">
        <ele>57.2</ele>
        <time>2017-04-29T10:51:39</time>
        <extensions><speed>1.41</speed></extensions>
      </trkpt>
      <trkpt lat="51.950161000" lon="7.603120000">
        <ele>57.1</ele>
        <time>2017-04-29T10:51:40</time>
        <extensions><speed>1.41</speed></extensions>
      </trkpt>
      <trkpt lat="51.950165000" lon="7.603135000">
        <ele>57.1</ele>
        <time>2017-04-29T10:51:41</time>
        <extensions><speed>1.40</speed></extensions>
      </trkpt>
      <trkpt lat="51.950169000" lon="7.603151000">
        <ele>57.1</ele>
        <time>2017-04-29T10:51:42</time>
        <extensions><speed>1.34</speed></extensions>
      </trkpt>
      <trkpt lat="51.950176000" lon="7.603168000">
        <ele>57.1</ele>
        <time>2017-04-29T10:51:43</time>
        <extensions><speed>1.32</speed></extensions>
      </trkpt>
      <trkpt lat="51.950180000" lon="7.603183000">
        <ele>57.1</ele>
        <time>2017-04-29T10:51:44</time>
        <extensions><speed>1.30</speed></extensions>
      </trkpt>
      <trkpt lat="51.950188000" lon="7.603199000">
        <ele>57.1</ele>
        <time>2017-04-29T10:51:45</time>
        <extensions><speed>1.32</speed></extensions>
      </trkpt>
      <trkpt lat="51.950191000" lon="7.603215000">
        <ele>57.1</ele>
        <time>2017-04-29T10:51:46</time>
        <extensions><speed>1.32</speed></extensions>
      </trkpt>
      <trkpt lat="51.950199000" lon="7.603232000">
        <ele>57.0</ele>
        <time>2017-04-29T10:51:47</time>
        <extensions><speed>1.35</speed></extensions>
      </trkpt>
      <trkpt lat="51.950207000" lon="7.603248000">
        <ele>57.0</ele>
        <time>2017-04-29T10:51:48</time>
        <extensions><speed>1.36</speed></extensions>
      </trkpt>
      <trkpt lat="51.950214000" lon="7.603265000">
        <ele>57.0</ele>
        <time>2017-04-29T10:51:49</time>
        <extensions><speed>1.46</speed></extensions>
      </trkpt>
      <trkpt lat="51.950226000" lon="7.603282000">
        <ele>57.0</ele>
        <time>2017-04-29T10:51:50</time>
        <extensions><speed>1.49</speed></extensions>
      </trkpt>
      <trkpt lat="51.950226000" lon="7.603298000">
        <ele>57.0</ele>
        <time>2017-04-29T10:51:51</time>
        <extensions><speed>1.49</speed></extensions>
      </trkpt>
      <trkpt lat="51.950233000" lon="7.603318000">
        <ele>56.9</ele>
        <time>2017-04-29T10:51:52</time>
        <extensions><speed>1.45</speed></extensions>
      </trkpt>
      <trkpt lat="51.950241000" lon="7.603337000">
        <ele>56.9</ele>
        <time>2017-04-29T10:51:53</time>
        <extensions><speed>1.52</speed></extensions>
      </trkpt>
      <trkpt lat="51.950253000" lon="7.603353000">
        <ele>56.9</ele>
        <time>2017-04-29T10:51:54</time>
        <extensions><speed>1.45</speed></extensions>
      </trkpt>
      <trkpt lat="51.950260000" lon="7.603374000">
        <ele>56.9</ele>
        <time>2017-04-29T10:51:55</time>
        <extensions><speed>1.49</speed></extensions>
      </trkpt>
      <trkpt lat="51.950268000" lon="7.603393000">
        <ele>56.8</ele>
        <time>2017-04-29T10:51:56</time>
        <extensions><speed>1.60</speed></extensions>
      </trkpt>
      <trkpt lat="51.950275000" lon="7.603412000">
        <ele>56.8</ele>
        <time>2017-04-29T10:51:57</time>
        <extensions><speed>1.62</speed></extensions>
      </trkpt>
      <trkpt lat="51.950287000" lon="7.603428000">
        <ele>56.8</ele>
        <time>2017-04-29T10:51:58</time>
        <extensions><speed>1.60</speed></extensions>
      </trkpt>
      <trkpt lat="51.950291000" lon="7.603447000">
        <ele>56.8</ele>
        <time>2017-04-29T10:51:59</time>
        <extensions><speed>1.64</speed></extensions>
      </trkpt>
      <trkpt lat="51.950298000" lon="7.603467000">
        <ele>56.8</ele>
        <time>2017-04-29T10:52:00</time>
        <extensions><speed>1.57</speed></extensions>
      </trkpt>
      <trkpt lat="51.950306000" lon="7.603485000">
        <ele>56.8</ele>
        <time>2017-04-29T10:52:01</time>
        <extensions><speed>1.51</speed></extensions>
      </trkpt>
      <trkpt lat="51.950314000" lon="7.603505000">
        <ele>56.7</ele>
        <time>2017-04-29T10:52:02</time>
        <extensions><speed>1.52</speed></extensions>
      </trkpt>
      <trkpt lat="51.950317000" lon="7.603513000">
        <ele>56.7</ele>
        <time>2017-04-29T10:52:03</time>
      </trkpt>
      <trkpt lat="51.950325000" lon="7.603529000">
        <ele>56.7</ele>
        <time>2017-04-29T10:52:05</time>
        <extensions><speed>1.41</speed></extensions>
      </trkpt>
      <trkpt lat="51.950333000" lon="7.603547000">
        <ele>56.7</ele>
        <time>2017-04-29T10:52:06</time>
        <extensions><speed>1.47</speed></extensions>
      </trkpt>
      <trkpt lat="51.950340000" lon="7.603560000">
        <ele>56.7</ele>
        <time>2017-04-29T10:52:07</time>
        <extensions><speed>1.41</speed></extensions>
      </trkpt>
      <trkpt lat="51.950348000" lon="7.603575000">
        <ele>56.7</ele>
        <time>2017-04-29T10:52:08</time>
        <extensions><speed>1.41</speed></extensions>
      </trkpt>
      <trkpt lat="51.950356000" lon="7.603590000">
        <ele>56.6</ele>
        <time>2017-04-29T10:52:09</time>
        <extensions><speed>1.37</speed></extensions>
      </trkpt>
      <trkpt lat="51.950356000" lon="7.603607000">
        <ele>56.6</ele>
        <time>2017-04-29T10:52:10</time>
        <extensions><speed>1.33</speed></extensions>
      </trkpt>
      <trkpt lat="51.950363000" lon="7.603623000">
        <ele>56.6</ele>
        <time>2017-04-29T10:52:11</time>
        <extensions><speed>1.33</speed></extensions>
      </trkpt>
      <trkpt lat="51.950371000" lon="7.603643000">
        <ele>56.6</ele>
        <time>2017-04-29T10:52:12</time>
        <extensions><speed>1.38</speed></extensions>
      </trkpt>
      <trkpt lat="51.950378000" lon="7.603662000">
        <ele>56.6</ele>
        <time>2017-04-29T10:52:13</time>
        <extensions><speed>1.41</speed></extensions>
      </trkpt>
      <trkpt lat="51.950386000" lon="7.603680000">
        <ele>56.6</ele>
        <time>2017-04-29T10:52:14</time>
        <extensions><speed>1.44</speed></extensions>
      </trkpt>
      <trkpt lat="51.950390000" lon="7.603697000">
        <ele>56.6</ele>
        <time>2017-04-29T10:52:15</time>
        <extensions><speed>1.44</speed></extensions>
      </trkpt>
      <trkpt lat="51.950394000" lon="7.603715000">
        <ele>56.5</ele>
        <time>2017-04-29T10:52:16</time>
        <extensions><speed>1.43</speed></extensions>
      </trkpt>
      <trkpt lat="51.950397000" lon="7.603734000">
        <ele>56.5</ele>
        <time>2017-04-29T10:52:17</time>
        <extensions><speed>1.43</speed></extensions>
      </trkpt>
      <trkpt lat="51.950409000" lon="7.603754000">
        <ele>56.5</ele>
        <time>2017-04-29T10:52:18</time>
        <extensions><speed>1.44</speed></extensions>
      </trkpt>
      <trkpt lat="51.950420000" lon="7.603770000">
        <ele>56.5</ele>
        <time>2017-04-29T10:52:19</time>
        <extensions><speed>1.44</speed></extensions>
      </trkpt>
      <trkpt lat="51.950424000" lon="7.603785000">
        <ele>56.5</ele>
        <time>2017-04-29T10:52:20</time>
        <extensions><speed>1.46</speed></extensions>
      </trkpt>
      <trkpt lat="51.950432000" lon="7.603802000">
        <ele>56.4</ele>
        <time>2017-04-29T10:52:21</time>
        <extensions><speed>1.40</speed></extensions>
      </trkpt>
      <trkpt lat="51.950439000" lon="7.603817000">
        <ele>56.4</ele>
        <time>2017-04-29T10:52:22</time>
        <extensions><speed>1.31</speed></extensions>
      </trkpt>
      <trkpt lat="51.950443000" lon="7.603834000">
        <ele>56.4</ele>
        <time>2017-04-29T10:52:23</time>
        <extensions><speed>1.31</speed></extensions>
      </trkpt>
      <trkpt lat="51.950451000" lon="7.603850000">
        <ele>56.3</ele>
        <time>2017-04-29T10:52:24</time>
        <extensions><speed>1.36</speed></extensions>
      </trkpt>
      <trkpt lat="51.950455000" lon="7.603867000">
        <ele>56.3</ele>
        <time>2017-04-29T10:52:25</time>
        <extensions><speed>1.32</speed></extensions>
      </trkpt>
      <trkpt lat="51.950459000" lon="7.603887000">
        <ele>56.3</ele>
        <time>2017-04-29T10:52:26</time>
        <extensions><speed>1.36</speed></extensions>
      </trkpt>
      <trkpt lat="51.950466000" lon="7.603905000">
        <ele>56.3</ele>
        <time>2017-04-29T10:52:27</time>
        <extensions><speed>1.36</speed></extensions>
      </trkpt>
      <trkpt lat="51.950470000" lon="7.603920000">
        <ele>56.2</ele>
        <time>2017-04-29T10:52:28</time>
        <extensions><speed>1.36</speed></extensions>
      </trkpt>
      <trkpt lat="51.950481000" lon="7.603940000">
        <ele>56.2</ele>
        <time>2017-04-29T10:52:29</time>
        <extensions><speed>1.40</speed></extensions>
      </trkpt>
      <trkpt lat="51.950489000" lon="7.603958000">
        <ele>56.2</ele>
        <time>2017-04-29T10:52:30</time>
        <extensions><speed>1.42</speed></extensions>
      </trkpt>
      <trkpt lat="51.950500000" lon="7.603972000">
        <ele>56.1</ele>
        <time>2017-04-29T10:52:31</time>
        <extensions><speed>1.38</speed></extensions>
      </trkpt>
      <trkpt lat="51.950504000" lon="7.603981000">
        <ele>56.1</ele>
        <time>2017-04-29T10:52:32</time>
      </trkpt>
      <trkpt lat="51.950512000" lon="7.603998000">
        <ele>56.1</ele>
        <time>2017-04-29T10:52:34</time>
        <extensions><speed>1.31</speed></extensions>
      </trkpt>
      <trkpt lat="51.950520000" lon="7.604020000">
        <ele>56.0</ele>
        <time>2017-04-29T10:52:35</time>
        <extensions><speed>1.29</speed></extensions>
      </trkpt>
      <trkpt lat="51.950520000" lon="7.604042000">
        <ele>56.0</ele>
        <time>2017-04-29T10:52:36</time>
        <extensions><speed>1.27</speed></extensions>
      </trkpt>
      <trkpt lat="51.950523000" lon="7.604062000">
        <ele>56.0</ele>
        <time>2017-04-29T10:52:37</time>
        <extensions><speed>1.27</speed></extensions>
      </trkpt>
      <trkpt lat="51.950527000" lon="7.604080000">
        <ele>56.0</ele>
        <time>2017-04-29T10:52:38</time>
        <extensions><speed>1.24</speed></extensions>
      </trkpt>
      <trkpt lat="51.950535000" lon="7.604096000">
        <ele>56.0</ele>
        <time>2017-04-29T10:52:39</time>
        <extensions><speed>1.26</speed></extensions>
      </trkpt>
      <trkpt lat="51.950542000" lon="7.604117000">
        <ele>56.0</ele>
        <time>2017-04-29T10:52:40</time>
        <extensions><speed>1.31</speed></extensions>
      </trkpt>
      <trkpt lat="51.950550000" lon="7.604138000">
        <ele>55.9</ele>
        <time>2017-04-29T10:52:41</time>
        <extensions><speed>1.38</speed></extensions>
      </trkpt>
      <trkpt lat="51.950554000" lon="7.604160000">
        <ele>55.9</ele>
        <time>2017-04-29T10:52:42</time>
        <extensions><speed>1.44</speed></extensions>
      </trkpt>
      <trkpt lat="51.950554000" lon="7.604178000">
        <ele>55.9</ele>
        <time>2017-04-29T10:52:43</time>
        <extensions><speed>1.44</speed></extensions>
      </trkpt>
      <trkpt lat="51.950558000" lon="7.604193000">
        <ele>55.8</ele>
        <time>2017-04-29T10:52:44</time>
        <extensions><speed>1.35</speed></extensions>
      </trkpt>
      <trkpt lat="51.950562000" lon="7.604212000">
        <ele>55.8</ele>
        <time>2017-04-29T10:52:45</time>
        <extensions><speed>1.33</speed></extensions>
      </trkpt>
      <trkpt lat="51.950577000" lon="7.604230000">
        <ele>55.8</ele>
        <time>2017-04-29T10:52:46</time>
        <extensions><speed>1.33</speed></extensions>
      </trkpt>
      <trkpt lat="51.950584000" lon="7.604247000">
        <ele>55.7</ele>
        <time>2017-04-29T10:52:47</time>
        <extensions><speed>1.27</speed></extensions>
      </trkpt>
      <trkpt lat="51.950592000" lon="7.604263000">
        <ele>55.7</ele>
        <time>2017-04-29T10:52:48</time>
        <extensions><speed>1.30</speed></extensions>
      </trkpt>
      <trkpt lat="51.950600000" lon="7.604280000">
        <ele>55.7</ele>
        <time>2017-04-29T10:52:49</time>
        <extensions><speed>1.39</speed></extensions>
      </trkpt>
      <trkpt lat="51.950607000" lon="7.604298000">
        <ele>55.6</ele>
        <time>2017-04-29T10:52:50</time>
        <extensions><speed>1.41</speed></extensions>
      </trkpt>
      <trkpt lat="51.950619000" lon="7.604313000">
        <ele>55.6</ele>
        <time>2017-04-29T10:52:51</time>
        <extensions><speed>1.41</speed></extensions>
      </trkpt>
      <trkpt lat="51.950630000" lon="7.604330000">
        <ele>55.6</ele>
        <time>2017-04-29T10:52:52</time>
        <extensions><speed>1.51</speed></extensions>
      </trkpt>
      <trkpt lat="51.950638000" lon="7.604349000">
        <ele>55.6</ele>
        <time>2017-04-29T10:52:53</time>
        <extensions><speed>1.51</speed></extensions>
      </trkpt>
      <trkpt lat="51.950649000" lon="7.604368000">
        <ele>55.6</ele>
        <time>2017-04-29T10:52:54</time>
        <extensions><speed>1.53</speed></extensions>
      </trkpt>
      <trkpt lat="51.950657000" lon="7.604389000">
        <ele>55.6</ele>
        <time>2017-04-29T10:52:55</time>
        <extensions><speed>1.53</speed></extensions>
      </trkpt>
      <trkpt lat="51.950661000" lon="7.604408000">
        <ele>55.6</ele>
        <time>2017-04-29T10:52:56</time>
        <extensions><speed>1.46</speed></extensions>
      </trkpt>
      <trkpt lat="51.950668000" lon="7.604427000">
        <ele>55.5</ele>
        <time>2017-04-29T10:52:57</time>
        <extensions><speed>1.43</speed></extensions>
      </trkpt>
      <trkpt lat="51.950676000" lon="7.604442000">
        <ele>55.5</ele>
        <time>2017-04-29T10:52:58</time>
        <extensions><speed>1.41</speed></extensions>
      </trkpt>
      <trkpt lat="51.950680000" lon="7.604455000">
        <ele>55.5</ele>
        <time>2017-04-29T10:52:59</time>
        <extensions><speed>1.37</speed></extensions>
      </trkpt>
      <trkpt lat="51.950684000" lon="7.604466000">
        <ele>55.5</ele>
        <time>2017-04-29T10:53:00</time>
        <extensions><speed>1.35</speed></extensions>
      </trkpt>
      <trkpt lat="51.950687000" lon="7.604480000">
        <ele>55.5</ele>
        <time>2017-04-29T10:53:01</time>
        <extensions><speed>1.33</speed></extensions>
      </trkpt>
      <trkpt lat="51.950699000" lon="7.604497000">
        <ele>55.5</ele>
        <time>2017-04-29T10:53:02</time>
        <extensions><speed>1.33</speed></extensions>
      </trkpt>
      <trkpt lat="51.950710000" lon="7.604511000">
        <ele>55.4</ele>
        <time>2017-04-29T10:53:03</time>
        <extensions><speed>1.33</speed></extensions>
      </trkpt>
      <trkpt lat="51.950718000" lon="7.604524000">
        <ele>55.4</ele>
        <time>2017-04-29T10:53:04</time>
        <extensions><speed>1.34</speed></extensions>
      </trkpt>
      <trkpt lat="51.950722000" lon="7.604543000">
        <ele>55.4</ele>
        <time>2017-04-29T10:53:05</time>
        <extensions><speed>1.35</speed></extensions>
      </trkpt>
      <trkpt lat="51.950733000" lon="7.604564000">
        <ele>55.4</ele>
        <time>2017-04-29T10:53:06</time>
        <extensions><speed>1.39</speed></extensions>
      </trkpt>
      <trkpt lat="51.950741000" lon="7.604587000">
        <ele>55.4</ele>
        <time>2017-04-29T10:53:07</time>
        <extensions><speed>1.34</speed></extensions>
      </trkpt>
      <trkpt lat="51.950745000" lon="7.604600000">
        <ele>55.4</ele>
        <time>2017-04-29T10:53:08</time>
        <extensions><speed>1.27</speed></extensions>
      </trkpt>
      <trkpt lat="51.950748000" lon="7.604609000">
        <ele>55.4</ele>
        <time>2017-04-29T10:53:09</time>
        <extensions><speed>1.05</speed></extensions>
      </trkpt>
      <trkpt lat="51.950748000" lon="7.604620000">
        <ele>55.3</ele>
        <time>2017-04-29T10:53:10</time>
        <extensions><speed>0.79</speed></extensions>
      </trkpt>
      <trkpt lat="51.950756000" lon="7.604621000">
        <ele>55.3</ele>
        <time>2017-04-29T10:53:11</time>
        <extensions><speed>0.55</speed></extensions>
      </trkpt>
      <trkpt lat="51.950760000" lon="7.604620000">
        <ele>55.3</ele>
        <time>2017-04-29T10:53:12</time>
        <extensions><speed>0.54</speed></extensions>
      </trkpt>
      <trkpt lat="51.950760000" lon="7.604623000">
        <ele>55.3</ele>
        <time>2017-04-29T10:53:13</time>
        <extensions><speed>0.60</speed></extensions>
      </trkpt>
      <trkpt lat="51.950768000" lon="7.604634000">
        <ele>55.3</ele>
        <time>2017-04-29T10:53:14</time>
        <extensions><speed>0.63</speed></extensions>
      </trkpt>
      <trkpt lat="51.950775000" lon="7.604646000">
        <ele>55.3</ele>
        <time>2017-04-29T10:53:15</time>
        <extensions><speed>0.83</speed></extensions>
      </trkpt>
      <trkpt lat="51.950783000" lon="7.604665000">
        <ele>55.3</ele>
        <time>2017-04-29T10:53:16</time>
        <extensions><speed>1.08</speed></extensions>
      </trkpt>
      <trkpt lat="51.950787000" lon="7.604683000">
        <ele>55.3</ele>
        <time>2017-04-29T10:53:17</time>
        <extensions><speed>1.24</speed></extensions>
      </trkpt>
      <trkpt lat="51.950794000" lon="7.604703000">
        <ele>55.3</ele>
        <time>2017-04-29T10:53:18</time>
        <extensions><speed>1.28</speed></extensions>
      </trkpt>
      <trkpt lat="51.950802000" lon="7.604718000">
        <ele>55.3</ele>
        <time>2017-04-29T10:53:19</time>
        <extensions><speed>1.28</speed></extensions>
      </trkpt>
      <trkpt lat="51.950813000" lon="7.604733000">
        <ele>55.3</ele>
        <time>2017-04-29T10:53:20</time>
        <extensions><speed>1.26</speed></extensions>
      </trkpt>
      <trkpt lat="51.950825000" lon="7.604750000">
        <ele>55.3</ele>
        <time>2017-04-29T10:53:21</time>
        <extensions><speed>1.22</speed></extensions>
      </trkpt>
      <trkpt lat="51.950832000" lon="7.604756000">
        <ele>55.3</ele>
        <time>2017-04-29T10:53:22</time>
        <extensions><speed>1.05</speed></extensions>
      </trkpt>
      <trkpt lat="51.950836000" lon="7.604762000">
        <ele>55.3</ele>
        <time>2017-04-29T10:53:23</time>
        <extensions><speed>0.78</speed></extensions>
      </trkpt>
      <trkpt lat="51.950836000" lon="7.604774000">
        <ele>55.3</ele>
        <time>2017-04-29T10:53:24</time>
        <extensions><speed>0.48</speed></extensions>
      </trkpt>
      <trkpt lat="51.950848000" lon="7.604780000">
        <ele>55.2</ele>
        <time>2017-04-29T10:53:25</time>
        <extensions><speed>0.48</speed></extensions>
      </trkpt>
      <trkpt lat="51.950855000" lon="7.604783000">
        <ele>55.2</ele>
        <time>2017-04-29T10:53:26</time>
        <extensions><speed>0.48</speed></extensions>
      </trkpt>
      <trkpt lat="51.950867000" lon="7.604786000">
        <ele>55.2</ele>
        <time>2017-04-29T10:53:27</time>
        <extensions><speed>0.56</speed></extensions>
      </trkpt>
      <trkpt lat="51.950871000" lon="7.604790000">
        <ele>55.2</ele>
        <time>2017-04-29T10:53:28</time>
      </trkpt>
      <trkpt lat="51.950924000" lon="7.604663000">
        <ele>55.7</ele>
        <time>2017-04-29T10:53:50</time>
      </trkpt>
      <trkpt lat="51.950916000" lon="7.604672000">
        <ele>55.7</ele>
        <time>2017-04-29T10:53:52</time>
        <extensions><speed>1.11</speed></extensions>
      </trkpt>
      <trkpt lat="51.950912000" lon="7.604683000">
        <ele>55.7</ele>
        <time>2017-04-29T10:53:53</time>
        <extensions><speed>1.14</speed></extensions>
      </trkpt>
      <trkpt lat="51.950909000" lon="7.604692000">
        <ele>55.8</ele>
        <time>2017-04-29T10:53:54</time>
        <extensions><speed>1.14</speed></extensions>
      </trkpt>
      <trkpt lat="51.950901000" lon="7.604703000">
        <ele>55.8</ele>
        <time>2017-04-29T10:53:55</time>
        <extensions><speed>1.18</speed></extensions>
      </trkpt>
      <trkpt lat="51.950893000" lon="7.604715000">
        <ele>55.8</ele>
        <time>2017-04-29T10:53:56</time>
        <extensions><speed>1.21</speed></extensions>
      </trkpt>
      <trkpt lat="51.950886000" lon="7.604725000">
        <ele>55.8</ele>
        <time>2017-04-29T10:53:57</time>
        <extensions><speed>1.18</speed></extensions>
      </trkpt>
      <trkpt lat="51.950878000" lon="7.604735000">
        <ele>55.8</ele>
        <time>2017-04-29T10:53:58</time>
        <extensions><speed>1.24</speed></extensions>
      </trkpt>
      <trkpt lat="51.950871000" lon="7.604742000">
        <ele>55.7</ele>
        <time>2017-04-29T10:53:59</time>
        <extensions><speed>1.23</speed></extensions>
      </trkpt>
      <trkpt lat="51.950867000" lon="7.604752000">
        <ele>55.7</ele>
        <time>2017-04-29T10:54:00</time>
        <extensions><speed>1.16</speed></extensions>
      </trkpt>
      <trkpt lat="51.950863000" lon="7.604767000">
        <ele>55.6</ele>
        <time>2017-04-29T10:54:01</time>
        <extensions><speed>1.11</speed></extensions>
      </trkpt>
      <trkpt lat="51.950855000" lon="7.604780000">
        <ele>55.6</ele>
        <time>2017-04-29T10:54:02</time>
        <extensions><speed>1.16</speed></extensions>
      </trkpt>
      <trkpt lat="51.950851000" lon="7.604790000">
        <ele>55.5</ele>
        <time>2017-04-29T10:54:03</time>
        <extensions><speed>1.15</speed></extensions>
      </trkpt>
      <trkpt lat="51.950844000" lon="7.604795000">
        <ele>55.5</ele>
        <time>2017-04-29T10:54:04</time>
        <extensions><speed>1.20</speed></extensions>
      </trkpt>
      <trkpt lat="51.950836000" lon="7.604798000">
        <ele>55.4</ele>
        <time>2017-04-29T10:54:05</time>
        <extensions><speed>1.23</speed></extensions>
      </trkpt>
      <trkpt lat="51.950829000" lon="7.604809000">
        <ele>55.4</ele>
        <time>2017-04-29T10:54:06</time>
        <extensions><speed>1.30</speed></extensions>
      </trkpt>
      <trkpt lat="51.950821000" lon="7.604821000">
        <ele>55.3</ele>
        <time>2017-04-29T10:54:07</time>
        <extensions><speed>1.31</speed></extensions>
      </trkpt>
      <trkpt lat="51.950813000" lon="7.604834000">
        <ele>55.3</ele>
        <time>2017-04-29T10:54:08</time>
        <extensions><speed>1.30</speed></extensions>
      </trkpt>
      <trkpt lat="51.950806000" lon="7.604842000">
        <ele>55.2</ele>
        <time>2017-04-29T10:54:09</time>
        <extensions><speed>1.26</speed></extensions>
      </trkpt>
      <trkpt lat="51.950794000" lon="7.604856000">
        <ele>55.2</ele>
        <time>2017-04-29T10:54:10</time>
        <extensions><speed>1.26</speed></extensions>
      </trkpt>
      <trkpt lat="51.950787000" lon="7.604870000">
        <ele>55.1</ele>
        <time>2017-04-29T10:54:11</time>
        <extensions><speed>1.26</speed></extensions>
      </trkpt>
      <trkpt lat="51.950779000" lon="7.604880000">
        <ele>55.1</ele>
        <time>2017-04-29T10:54:12</time>
        <extensions><speed>1.25</speed></extensions>
      </trkpt>
      <trkpt lat="51.950768000" lon="7.604888000">
        <ele>55.0</ele>
        <time>2017-04-29T10:54:13</time>
        <extensions><speed>1.29</speed></extensions>
      </trkpt>
      <trkpt lat="51.950756000" lon="7.604900000">
        <ele>55.0</ele>
        <time>2017-04-29T10:54:14</time>
        <extensions><speed>1.25</speed></extensions>
      </trkpt>
      <trkpt lat="51.950752000" lon="7.604908000">
        <ele>54.9</ele>
        <time>2017-04-29T10:54:15</time>
        <extensions><speed>1.25</speed></extensions>
      </trkpt>
      <trkpt lat="51.950748000" lon="7.604921000">
        <ele>54.8</ele>
        <time>2017-04-29T10:54:16</time>
        <extensions><speed>1.23</speed></extensions>
      </trkpt>
      <trkpt lat="51.950748000" lon="7.604940000">
        <ele>54.8</ele>
        <time>2017-04-29T10:54:17</time>
        <extensions><speed>1.25</speed></extensions>
      </trkpt>
      <trkpt lat="51.950741000" lon="7.604954000">
        <ele>54.7</ele>
        <time>2017-04-29T10:54:18</time>
        <extensions><speed>1.25</speed></extensions>
      </trkpt>
      <trkpt lat="51.950726000" lon="7.604963000">
        <ele>54.7</ele>
        <time>2017-04-29T10:54:19</time>
        <extensions><speed>1.30</speed></extensions>
      </trkpt>
      <trkpt lat="51.950714000" lon="7.604968000">
        <ele>54.7</ele>
        <time>2017-04-29T10:54:20</time>
        <extensions><speed>1.32</speed></extensions>
      </trkpt>
      <trkpt lat="51.950703000" lon="7.604970000">
        <ele>54.6</ele>
        <time>2017-04-29T10:54:21</time>
        <extensions><speed>1.32</speed></extensions>
      </trkpt>
      <trkpt lat="51.950691000" lon="7.604977000">
        <ele>54.6</ele>
        <time>2017-04-29T10:54:22</time>
        <extensions><speed>1.30</speed></extensions>
      </trkpt>
      <trkpt lat="51.950687000" lon="7.604980000">
        <ele>54.5</ele>
        <time>2017-04-29T10:54:23</time>
        <extensions><speed>1.26</speed></extensions>
      </trkpt>
      <trkpt lat="51.950684000" lon="7.604982000">
        <ele>54.5</ele>
        <time>2017-04-29T10:54:24</time>
        <extensions><speed>1.07</speed></extensions>
      </trkpt>
      <trkpt lat="51.950676000" lon="7.604989000">
        <ele>54.4</ele>
        <time>2017-04-29T10:54:25</time>
        <extensions><speed>1.00</speed></extensions>
      </trkpt>
      <trkpt lat="51.950672000" lon="7.605001000">
        <ele>54.4</ele>
        <time>2017-04-29T10:54:26</time>
        <extensions><speed>1.00</speed></extensions>
      </trkpt>
      <trkpt lat="51.950665000" lon="7.605017000">
        <ele>54.3</ele>
        <time>2017-04-29T10:54:27</time>
        <extensions><speed>1.03</speed></extensions>
      </trkpt>
      <trkpt lat="51.950653000" lon="7.605031000">
        <ele>54.3</ele>
        <time>2017-04-29T10:54:28</time>
        <extensions><speed>1.23</speed></extensions>
      </trkpt>
      <trkpt lat="51.950645000" lon="7.605045000">
        <ele>54.3</ele>
        <time>2017-04-29T10:54:29</time>
        <extensions><speed>1.34</speed></extensions>
      </trkpt>
      <trkpt lat="51.950634000" lon="7.605060000">
        <ele>54.2</ele>
        <time>2017-04-29T10:54:30</time>
        <extensions><speed>1.39</speed></extensions>
      </trkpt>
      <trkpt lat="51.950626000" lon="7.605073000">
        <ele>54.2</ele>
        <time>2017-04-29T10:54:31</time>
        <extensions><speed>1.39</speed></extensions>
      </trkpt>
      <trkpt lat="51.950623000" lon="7.605085000">
        <ele>54.2</ele>
        <time>2017-04-29T10:54:32</time>
        <extensions><speed>1.34</speed></extensions>
      </trkpt>
      <trkpt lat="51.950619000" lon="7.605093000">
        <ele>54.1</ele>
        <time>2017-04-29T10:54:33</time>
        <extensions><speed>1.23</speed></extensions>
      </trkpt>
      <trkpt lat="51.950615000" lon="7.605100000">
        <ele>54.1</ele>
        <time>2017-04-29T10:54:34</time>
        <extensions><speed>1.09</speed></extensions>
      </trkpt>
      <trkpt lat="51.950607000" lon="7.605105000">
        <ele>54.0</ele>
        <time>2017-04-29T10:54:35</time>
        <extensions><speed>1.02</speed></extensions>
      </trkpt>
      <trkpt lat="51.950607000" lon="7.605114000">
        <ele>54.0</ele>
        <time>2017-04-29T10:54:36</time>
        <extensions><speed>0.95</speed></extensions>
      </trkpt>
      <trkpt lat="51.950603000" lon="7.605124000">
        <ele>53.9</ele>
        <time>2017-04-29T10:54:37</time>
        <extensions><speed>0.89</speed></extensions>
      </trkpt>
      <trkpt lat="51.950592000" lon="7.605127000">
        <ele>53.9</ele>
        <time>2017-04-29T10:54:38</time>
        <extensions><speed>0.85</speed></extensions>
      </trkpt>
      <trkpt lat="51.950584000" lon="7.605128000">
        <ele>53.9</ele>
        <time>2017-04-29T10:54:39</time>
        <extensions><speed>0.85</speed></extensions>
      </trkpt>
      <trkpt lat="51.950577000" lon="7.605136000">
        <ele>53.9</ele>
        <time>2017-04-29T10:54:40</time>
        <extensions><speed>0.91</speed></extensions>
      </trkpt>
      <trkpt lat="51.950573000" lon="7.605147000">
        <ele>53.8</ele>
        <time>2017-04-29T10:54:41</time>
        <extensions><speed>0.88</speed></extensions>
      </trkpt>
      <trkpt lat="51.950565000" lon="7.605152000">
        <ele>53.8</ele>
        <time>2017-04-29T10:54:42</time>
        <extensions><speed>0.93</speed></extensions>
      </trkpt>
      <trkpt lat="51.950558000" lon="7.605157000">
        <ele>53.8</ele>
        <time>2017-04-29T10:54:43</time>
        <extensions><speed>1.07</speed></extensions>
      </trkpt>
      <trkpt lat="51.950554000" lon="7.605170000">
        <ele>53.8</ele>
        <time>2017-04-29T10:54:44</time>
        <extensions><speed>1.15</speed></extensions>
      </trkpt>
      <trkpt lat="51.950546000" lon="7.605185000">
        <ele>53.7</ele>
        <time>2017-04-29T10:54:45</time>
        <extensions><speed>1.18</speed></extensions>
      </trkpt>
      <trkpt lat="51.950535000" lon="7.605198000">
        <ele>53.7</ele>
        <time>2017-04-29T10:54:46</time>
        <extensions><speed>1.36</speed></extensions>
      </trkpt>
      <trkpt lat="51.950523000" lon="7.605213000">
        <ele>53.7</ele>
        <time>2017-04-29T10:54:47</time>
        <extensions><speed>1.40</speed></extensions>
      </trkpt>
      <trkpt lat="51.950516000" lon="7.605230000">
        <ele>53.7</ele>
        <time>2017-04-29T10:54:48</time>
        <extensions><speed>1.42</speed></extensions>
      </trkpt>
      <trkpt lat="51.950508000" lon="7.605241000">
        <ele>53.6</ele>
        <time>2017-04-29T10:54:49</time>
        <extensions><speed>1.42</speed></extensions>
      </trkpt>
      <trkpt lat="51.950500000" lon="7.605253000">
        <ele>53.6</ele>
        <time>2017-04-29T10:54:50</time>
        <extensions><speed>1.41</speed></extensions>
      </trkpt>
      <trkpt lat="51.950489000" lon="7.605265000">
        <ele>53.6</ele>
        <time>2017-04-29T10:54:51</time>
        <extensions><speed>1.40</speed></extensions>
      </trkpt>
      <trkpt lat="51.950481000" lon="7.605278000">
        <ele>53.5</ele>
        <time>2017-04-29T10:54:52</time>
        <extensions><speed>1.37</speed></extensions>
      </trkpt>
      <trkpt lat="51.950470000" lon="7.605289000">
        <ele>53.5</ele>
        <time>2017-04-29T10:54:53</time>
        <extensions><speed>1.35</speed></extensions>
      </trkpt>
      <trkpt lat="51.950459000" lon="7.605303000">
        <ele>53.5</ele>
        <time>2017-04-29T10:54:54</time>
        <extensions><speed>1.39</speed></extensions>
      </trkpt>
      <trkpt lat="51.950455000" lon="7.605317000">
        <ele>53.5</ele>
        <time>2017-04-29T10:54:55</time>
        <extensions><speed>1.40</speed></extensions>
      </trkpt>
      <trkpt lat="51.950443000" lon="7.605329000">
        <ele>53.4</ele>
        <time>2017-04-29T10:54:56</time>
        <extensions><speed>1.40</speed></extensions>
      </trkpt>
      <trkpt lat="51.950432000" lon="7.605340000">
        <ele>53.4</ele>
        <time>2017-04-29T10:54:57</time>
        <extensions><speed>1.40</speed></extensions>
      </trkpt>
      <trkpt lat="51.950420000" lon="7.605353000">
        <ele>53.4</ele>
        <time>2017-04-29T10:54:58</time>
        <extensions><speed>1.43</speed></extensions>
      </trkpt>
      <trkpt lat="51.950413000" lon="7.605365000">
        <ele>53.4</ele>
        <time>2017-04-29T10:54:59</time>
        <extensions><speed>1.41</speed></extensions>
      </trkpt>
      <trkpt lat="51.950397000" lon="7.605378000">
        <ele>53.4</ele>
        <time>2017-04-29T10:55:00</time>
        <extensions><speed>1.42</speed></extensions>
      </trkpt>
      <trkpt lat="51.950390000" lon="7.605393000">
        <ele>53.4</ele>
        <time>2017-04-29T10:55:01</time>
        <extensions><speed>1.42</speed></extensions>
      </trkpt>
      <trkpt lat="51.950378000" lon="7.605408000">
        <ele>53.4</ele>
        <time>2017-04-29T10:55:02</time>
        <extensions><speed>1.45</speed></extensions>
      </trkpt>
      <trkpt lat="51.950371000" lon="7.605425000">
        <ele>53.4</ele>
        <time>2017-04-29T10:55:03</time>
        <extensions><speed>1.41</speed></extensions>
      </trkpt>
      <trkpt lat="51.950359000" lon="7.605439000">
        <ele>53.5</ele>
        <time>2017-04-29T10:55:04</time>
        <extensions><speed>1.40</speed></extensions>
      </trkpt>
      <trkpt lat="51.950356000" lon="7.605453000">
        <ele>53.5</ele>
        <time>2017-04-29T10:55:05</time>
        <extensions><speed>1.34</speed></extensions>
      </trkpt>
      <trkpt lat="51.950344000" lon="7.605465000">
        <ele>53.5</ele>
        <time>2017-04-29T10:55:06</time>
        <extensions><speed>1.30</speed></extensions>
      </trkpt>
      <trkpt lat="51.950336000" lon="7.605475000">
        <ele>53.5</ele>
        <time>2017-04-29T10:55:07</time>
        <extensions><speed>1.28</speed></extensions>
      </trkpt>
      <trkpt lat="51.950329000" lon="7.605486000">
        <ele>53.6</ele>
        <time>2017-04-29T10:55:08</time>
        <extensions><speed>1.25</speed></extensions>
      </trkpt>
      <trkpt lat="51.950321000" lon="7.605500000">
        <ele>53.6</ele>
        <time>2017-04-29T10:55:09</time>
        <extensions><speed>1.24</speed></extensions>
      </trkpt>
      <trkpt lat="51.950310000" lon="7.605511000">
        <ele>53.6</ele>
        <time>2017-04-29T10:55:10</time>
        <extensions><speed>1.25</speed></extensions>
      </trkpt>
      <trkpt lat="51.950298000" lon="7.605525000">
        <ele>53.6</ele>
        <time>2017-04-29T10:55:11</time>
        <extensions><speed>1.26</speed></extensions>
      </trkpt>
      <trkpt lat="51.950291000" lon="7.605537000">
        <ele>53.7</ele>
        <time>2017-04-29T10:55:12</time>
        <extensions><speed>1.28</speed></extensions>
      </trkpt>
      <trkpt lat="51.950279000" lon="7.605548000">
        <ele>53.7</ele>
        <time>2017-04-29T10:55:13</time>
        <extensions><speed>1.33</speed></extensions>
      </trkpt>
      <trkpt lat="51.950268000" lon="7.605560000">
        <ele>53.7</ele>
        <time>2017-04-29T10:55:14</time>
        <extensions><speed>1.34</speed></extensions>
      </trkpt>
      <trkpt lat="51.950260000" lon="7.605575000">
        <ele>53.7</ele>
        <time>2017-04-29T10:55:15</time>
        <extensions><speed>1.30</speed></extensions>
      </trkpt>
      <trkpt lat="51.950253000" lon="7.605588000">
        <ele>53.8</ele>
        <time>2017-04-29T10:55:16</time>
        <extensions><speed>1.33</speed></extensions>
      </trkpt>
      <trkpt lat="51.950241000" lon="7.605600000">
        <ele>53.8</ele>
        <time>2017-04-29T10:55:17</time>
        <extensions><speed>1.33</speed></extensions>
      </trkpt>
      <trkpt lat="51.950233000" lon="7.605614000">
        <ele>53.8</ele>
        <time>2017-04-29T10:55:18</time>
        <extensions><speed>1.25</speed></extensions>
      </trkpt>
      <trkpt lat="51.950226000" lon="7.605625000">
        <ele>53.8</ele>
        <time>2017-04-29T10:55:19</time>
        <extensions><speed>1.27</speed></extensions>
      </trkpt>
      <trkpt lat="51.950218000" lon="7.605639000">
        <ele>53.8</ele>
        <time>2017-04-29T10:55:20</time>
        <extensions><speed>1.23</speed></extensions>
      </trkpt>
      <trkpt lat="51.950207000" lon="7.605651000">
        <ele>53.9</ele>
        <time>2017-04-29T10:55:21</time>
        <extensions><speed>1.23</speed></extensions>
      </trkpt>
      <trkpt lat="51.950195000" lon="7.605663000">
        <ele>53.9</ele>
        <time>2017-04-29T10:55:22</time>
        <extensions><speed>1.30</speed></extensions>
      </trkpt>
      <trkpt lat="51.950188000" lon="7.605679000">
        <ele>53.9</ele>
        <time>2017-04-29T10:55:23</time>
        <extensions><speed>1.35</speed></extensions>
      </trkpt>
      <trkpt lat="51.950180000" lon="7.605691000">
        <ele>54.0</ele>
        <time>2017-04-29T10:55:24</time>
        <extensions><speed>1.34</speed></extensions>
      </trkpt>
      <trkpt lat="51.950165000" lon="7.605701000">
        <ele>54.0</ele>
        <time>2017-04-29T10:55:25</time>
        <extensions><speed>1.40</speed></extensions>
      </trkpt>
      <trkpt lat="51.950157000" lon="7.605714000">
        <ele>54.0</ele>
        <time>2017-04-29T10:55:26</time>
        <extensions><speed>1.39</speed></extensions>
      </trkpt>
      <trkpt lat="51.950146000" lon="7.605728000">
        <ele>54.1</ele>
        <time>2017-04-29T10:55:27</time>
        <extensions><speed>1.35</speed></extensions>
      </trkpt>
      <trkpt lat="51.950134000" lon="7.605740000">
        <ele>54.1</ele>
        <time>2017-04-29T10:55:28</time>
        <extensions><speed>1.32</speed></extensions>
      </trkpt>
      <trkpt lat="51.950127000" lon="7.605752000">
        <ele>54.2</ele>
        <time>2017-04-29T10:55:29</time>
        <extensions><speed>1.36</speed></extensions>
      </trkpt>
      <trkpt lat="51.950115000" lon="7.605762000">
        <ele>54.3</ele>
        <time>2017-04-29T10:55:30</time>
        <extensions><speed>1.36</speed></extensions>
      </trkpt>
      <trkpt lat="51.950104000" lon="7.605772000">
        <ele>54.4</ele>
        <time>2017-04-29T10:55:31</time>
        <extensions><speed>1.39</speed></extensions>
      </trkpt>
      <trkpt lat="51.950096000" lon="7.605785000">
        <ele>54.4</ele>
        <time>2017-04-29T10:55:32</time>
        <extensions><speed>1.39</speed></extensions>
      </trkpt>
      <trkpt lat="51.950085000" lon="7.605796000">
        <ele>54.5</ele>
        <time>2017-04-29T10:55:33</time>
        <extensions><speed>1.39</speed></extensions>
      </trkpt>
      <trkpt lat="51.950077000" lon="7.605808000">
        <ele>54.6</ele>
        <time>2017-04-29T10:55:34</time>
        <extensions><speed>1.35</speed></extensions>
      </trkpt>
      <trkpt lat="51.950066000" lon="7.605819000">
        <ele>54.6</ele>
        <time>2017-04-29T10:55:35</time>
        <extensions><speed>1.31</speed></extensions>
      </trkpt>
      <trkpt lat="51.950054000" lon="7.605828000">
        <ele>54.7</ele>
        <time>2017-04-29T10:55:36</time>
        <extensions><speed>1.32</speed></extensions>
      </trkpt>
      <trkpt lat="51.950047000" lon="7.605840000">
        <ele>54.8</ele>
        <time>2017-04-29T10:55:37</time>
        <extensions><speed>1.30</speed></extensions>
      </trkpt>
      <trkpt lat="51.950039000" lon="7.605852000">
        <ele>54.8</ele>
        <time>2017-04-29T10:55:38</time>
        <extensions><speed>1.32</speed></extensions>
      </trkpt>
      <trkpt lat="51.950031000" lon="7.605865000">
        <ele>54.9</ele>
        <time>2017-04-29T10:55:39</time>
        <extensions><speed>1.34</speed></extensions>
      </trkpt>
      <trkpt lat="51.950016000" lon="7.605880000">
        <ele>54.9</ele>
        <time>2017-04-29T10:55:40</time>
        <extensions><speed>1.38</speed></extensions>
      </trkpt>
      <trkpt lat="51.950005000" lon="7.605895000">
        <ele>55.0</ele>
        <time>2017-04-29T10:55:41</time>
        <extensions><speed>1.37</speed></extensions>
      </trkpt>
      <trkpt lat="51.949997000" lon="7.605910000">
        <ele>55.1</ele>
        <time>2017-04-29T10:55:42</time>
        <extensions><speed>1.41</speed></extensions>
      </trkpt>
      <trkpt lat="51.949989000" lon="7.605924000">
        <ele>55.1</ele>
        <time>2017-04-29T10:55:43</time>
        <extensions><speed>1.46</speed></extensions>
      </trkpt>
      <trkpt lat="51.949978000" lon="7.605937000">
        <ele>55.2</ele>
        <time>2017-04-29T10:55:44</time>
        <extensions><speed>1.49</speed></extensions>
      </trkpt>
      <trkpt lat="51.949966000" lon="7.605947000">
        <ele>55.3</ele>
        <time>2017-04-29T10:55:45</time>
        <extensions><speed>1.42</speed></extensions>
      </trkpt>
      <trkpt lat="51.949959000" lon="7.605955000">
        <ele>55.3</ele>
        <time>2017-04-29T10:55:46</time>
        <extensions><speed>1.42</speed></extensions>
      </trkpt>
      <trkpt lat="51.949947000" lon="7.605965000">
        <ele>55.4</ele>
        <time>2017-04-29T10:55:47</time>
        <extensions><speed>1.38</speed></extensions>
      </trkpt>
      <trkpt lat="51.949940000" lon="7.605977000">
        <ele>55.5</ele>
        <time>2017-04-29T10:55:48</time>
        <extensions><speed>1.38</speed></extensions>
      </trkpt>
      <trkpt lat="51.949932000" lon="7.605994000">
        <ele>55.6</ele>
        <time>2017-04-29T10:55:49</time>
        <extensions><speed>1.33</speed></extensions>
      </trkpt>
      <trkpt lat="51.949928000" lon="7.606008000">
        <ele>55.6</ele>
        <time>2017-04-29T10:55:50</time>
        <extensions><speed>1.34</speed></extensions>
      </trkpt>
      <trkpt lat="51.949924000" lon="7.606029000">
        <ele>55.7</ele>
        <time>2017-04-29T10:55:51</time>
        <extensions><speed>1.34</speed></extensions>
      </trkpt>
      <trkpt lat="51.949928000" lon="7.606045000">
        <ele>55.8</ele>
        <time>2017-04-29T10:55:52</time>
        <extensions><speed>1.31</speed></extensions>
      </trkpt>
      <trkpt lat="51.949928000" lon="7.606065000">
        <ele>55.8</ele>
        <time>2017-04-29T10:55:53</time>
        <extensions><speed>1.31</speed></extensions>
      </trkpt>
      <trkpt lat="51.949932000" lon="7.606085000">
        <ele>55.9</ele>
        <time>2017-04-29T10:55:54</time>
        <extensions><speed>1.32</speed></extensions>
      </trkpt>
      <trkpt lat="51.949936000" lon="7.606103000">
        <ele>56.0</ele>
        <time>2017-04-29T10:55:55</time>
        <extensions><speed>1.26</speed></extensions>
      </trkpt>
      <trkpt lat="51.949944000" lon="7.606122000">
        <ele>56.1</ele>
        <time>2017-04-29T10:55:56</time>
        <extensions><speed>1.33</speed></extensions>
      </trkpt>
      <trkpt lat="51.949959000" lon="7.606132000">
        <ele>56.1</ele>
        <time>2017-04-29T10:55:57</time>
        <extensions><speed>1.37</speed></extensions>
      </trkpt>
      <trkpt lat="51.949970000" lon="7.606138000">
        <ele>56.2</ele>
        <time>2017-04-29T10:55:58</time>
        <extensions><speed>1.37</speed></extensions>
      </trkpt>
      <trkpt lat="51.949982000" lon="7.606146000">
        <ele>56.3</ele>
        <time>2017-04-29T10:55:59</time>
        <extensions><speed>1.31</speed></extensions>
      </trkpt>
      <trkpt lat="51.949993000" lon="7.606155000">
        <ele>56.4</ele>
        <time>2017-04-29T10:56:00</time>
        <extensions><speed>1.27</speed></extensions>
      </trkpt>
      <trkpt lat="51.950005000" lon="7.606162000">
        <ele>56.4</ele>
        <time>2017-04-29T10:56:01</time>
        <extensions><speed>1.27</speed></extensions>
      </trkpt>
      <trkpt lat="51.950024000" lon="7.606169000">
        <ele>56.4</ele>
        <time>2017-04-29T10:56:02</time>
        <extensions><speed>1.30</speed></extensions>
      </trkpt>
      <trkpt lat="51.950035000" lon="7.606174000">
        <ele>56.5</ele>
        <time>2017-04-29T10:56:03</time>
        <extensions><speed>1.23</speed></extensions>
      </trkpt>
      <trkpt lat="51.950047000" lon="7.606180000">
        <ele>56.5</ele>
        <time>2017-04-29T10:56:04</time>
        <extensions><speed>1.29</speed></extensions>
      </trkpt>
      <trkpt lat="51.950058000" lon="7.606183000">
        <ele>56.5</ele>
        <time>2017-04-29T10:56:05</time>
        <extensions><speed>1.31</speed></extensions>
      </trkpt>
      <trkpt lat="51.950066000" lon="7.606185000">
        <ele>56.5</ele>
        <time>2017-04-29T10:56:06</time>
        <extensions><speed>1.27</speed></extensions>
      </trkpt>
      <trkpt lat="51.950081000" lon="7.606188000">
        <ele>56.5</ele>
        <time>2017-04-29T10:56:07</time>
        <extensions><speed>1.27</speed></extensions>
      </trkpt>
      <trkpt lat="51.950096000" lon="7.606190000">
        <ele>56.4</ele>
        <time>2017-04-29T10:56:08</time>
        <extensions><speed>1.27</speed></extensions>
      </trkpt>
      <trkpt lat="51.950108000" lon="7.606188000">
        <ele>56.4</ele>
        <time>2017-04-29T10:56:09</time>
        <extensions><speed>1.25</speed></extensions>
      </trkpt>
      <trkpt lat="51.950119000" lon="7.606186000">
        <ele>56.4</ele>
        <time>2017-04-29T10:56:10</time>
        <extensions><speed>1.21</speed></extensions>
      </trkpt>
      <trkpt lat="51.950127000" lon="7.606183000">
        <ele>56.4</ele>
        <time>2017-04-29T10:56:11</time>
        <extensions><speed>1.21</speed></extensions>
      </trkpt>
      <trkpt lat="51.950138000" lon="7.606183000">
        <ele>56.4</ele>
        <time>2017-04-29T10:56:12</time>
        <extensions><speed>1.21</speed></extensions>
      </trkpt>
      <trkpt lat="51.950153000" lon="7.606185000">
        <ele>56.3</ele>
        <time>2017-04-29T10:56:13</time>
        <extensions><speed>1.26</speed></extensions>
      </trkpt>
      <trkpt lat="51.950161000" lon="7.606190000">
        <ele>56.3</ele>
        <time>2017-04-29T10:56:14</time>
        <extensions><speed>1.32</speed></extensions>
      </trkpt>
      <trkpt lat="51.950176000" lon="7.606197000">
        <ele>56.3</ele>
        <time>2017-04-29T10:56:15</time>
        <extensions><speed>1.34</speed></extensions>
      </trkpt>
      <trkpt lat="51.950191000" lon="7.606202000">
        <ele>56.2</ele>
        <time>2017-04-29T10:56:16</time>
        <extensions><speed>1.35</speed></extensions>
      </trkpt>
      <trkpt lat="51.950199000" lon="7.606207000">
        <ele>56.2</ele>
        <time>2017-04-29T10:56:17</time>
        <extensions><speed>1.34</speed></extensions>
      </trkpt>
      <trkpt lat="51.950211000" lon="7.606215000">
        <ele>56.2</ele>
        <time>2017-04-29T10:56:18</time>
        <extensions><speed>1.40</speed></extensions>
      </trkpt>
      <trkpt lat="51.950226000" lon="7.606220000">
        <ele>56.1</ele>
        <time>2017-04-29T10:56:19</time>
        <extensions><speed>1.44</speed></extensions>
      </trkpt>
      <trkpt lat="51.950241000" lon="7.606228000">
        <ele>56.1</ele>
        <time>2017-04-29T10:56:20</time>
        <extensions><speed>1.40</speed></extensions>
      </trkpt>
      <trkpt lat="51.950256000" lon="7.606235000">
        <ele>56.1</ele>
        <time>2017-04-29T10:56:21</time>
        <extensions><speed>1.41</speed></extensions>
      </trkpt>
      <trkpt lat="51.950264000" lon="7.606241000">
        <ele>56.1</ele>
        <time>2017-04-29T10:56:22</time>
        <extensions><speed>1.42</speed></extensions>
      </trkpt>
      <trkpt lat="51.950279000" lon="7.606246000">
        <ele>56.1</ele>
        <time>2017-04-29T10:56:23</time>
        <extensions><speed>1.42</speed></extensions>
      </trkpt>
      <trkpt lat="51.950291000" lon="7.606255000">
        <ele>56.1</ele>
        <time>2017-04-29T10:56:24</time>
        <extensions><speed>1.38</speed></extensions>
      </trkpt>
      <trkpt lat="51.950306000" lon="7.606262000">
        <ele>56.1</ele>
        <time>2017-04-29T10:56:25</time>
        <extensions><speed>1.40</speed></extensions>
      </trkpt>
      <trkpt lat="51.950317000" lon="7.606268000">
        <ele>56.1</ele>
        <time>2017-04-29T10:56:26</time>
        <extensions><speed>1.44</speed></extensions>
      </trkpt>
      <trkpt lat="51.950329000" lon="7.606276000">
        <ele>56.1</ele>
        <time>2017-04-29T10:56:27</time>
        <extensions><speed>1.42</speed></extensions>
      </trkpt>
      <trkpt lat="51.950336000" lon="7.606285000">
        <ele>56.2</ele>
        <time>2017-04-29T10:56:28</time>
        <extensions><speed>1.40</speed></extensions>
      </trkpt>
      <trkpt lat="51.950344000" lon="7.606300000">
        <ele>56.2</ele>
        <time>2017-04-29T10:56:29</time>
        <extensions><speed>1.38</speed></extensions>
      </trkpt>
      <trkpt lat="51.950352000" lon="7.606320000">
        <ele>56.2</ele>
        <time>2017-04-29T10:56:30</time>
        <extensions><speed>1.37</speed></extensions>
      </trkpt>
      <trkpt lat="51.950359000" lon="7.606333000">
        <ele>56.2</ele>
        <time>2017-04-29T10:56:31</time>
        <extensions><speed>1.33</speed></extensions>
      </trkpt>
      <trkpt lat="51.950371000" lon="7.606346000">
        <ele>56.3</ele>
        <time>2017-04-29T10:56:32</time>
        <extensions><speed>1.39</speed></extensions>
      </trkpt>
      <trkpt lat="51.950378000" lon="7.606360000">
        <ele>56.3</ele>
        <time>2017-04-29T10:56:33</time>
        <extensions><speed>1.38</speed></extensions>
      </trkpt>
      <trkpt lat="51.950390000" lon="7.606375000">
        <ele>56.3</ele>
        <time>2017-04-29T10:56:34</time>
        <extensions><speed>1.41</speed></extensions>
      </trkpt>
      <trkpt lat="51.950397000" lon="7.606390000">
        <ele>56.4</ele>
        <time>2017-04-29T10:56:35</time>
        <extensions><speed>1.43</speed></extensions>
      </trkpt>
      <trkpt lat="51.950409000" lon="7.606407000">
        <ele>56.4</ele>
        <time>2017-04-29T10:56:36</time>
        <extensions><speed>1.46</speed></extensions>
      </trkpt>
      <trkpt lat="51.950417000" lon="7.606423000">
        <ele>56.5</ele>
        <time>2017-04-29T10:56:37</time>
        <extensions><speed>1.45</speed></extensions>
      </trkpt>
      <trkpt lat="51.950424000" lon="7.606435000">
        <ele>56.5</ele>
        <time>2017-04-29T10:56:38</time>
        <extensions><speed>1.46</speed></extensions>
      </trkpt>
      <trkpt lat="51.950436000" lon="7.606443000">
        <ele>56.6</ele>
        <time>2017-04-29T10:56:39</time>
        <extensions><speed>1.46</speed></extensions>
      </trkpt>
      <trkpt lat="51.950447000" lon="7.606451000">
        <ele>56.6</ele>
        <time>2017-04-29T10:56:40</time>
        <extensions><speed>1.40</speed></extensions>
      </trkpt>
      <trkpt lat="51.950455000" lon="7.606460000">
        <ele>56.7</ele>
        <time>2017-04-29T10:56:41</time>
        <extensions><speed>1.33</speed></extensions>
      </trkpt>
      <trkpt lat="51.950462000" lon="7.606475000">
        <ele>56.7</ele>
        <time>2017-04-29T10:56:42</time>
        <extensions><speed>1.34</speed></extensions>
      </trkpt>
      <trkpt lat="51.950470000" lon="7.606492000">
        <ele>56.8</ele>
        <time>2017-04-29T10:56:43</time>
        <extensions><speed>1.34</speed></extensions>
      </trkpt>
      <trkpt lat="51.950481000" lon="7.606508000">
        <ele>56.8</ele>
        <time>2017-04-29T10:56:44</time>
        <extensions><speed>1.38</speed></extensions>
      </trkpt>
      <trkpt lat="51.950485000" lon="7.606523000">
        <ele>56.9</ele>
        <time>2017-04-29T10:56:45</time>
        <extensions><speed>1.44</speed></extensions>
      </trkpt>
      <trkpt lat="51.950497000" lon="7.606537000">
        <ele>56.9</ele>
        <time>2017-04-29T10:56:46</time>
        <extensions><speed>1.44</speed></extensions>
      </trkpt>
      <trkpt lat="51.950508000" lon="7.606549000">
        <ele>56.9</ele>
        <time>2017-04-29T10:56:47</time>
        <extensions><speed>1.38</speed></extensions>
      </trkpt>
      <trkpt lat="51.950520000" lon="7.606558000">
        <ele>57.0</ele>
        <time>2017-04-29T10:56:48</time>
        <extensions><speed>1.29</speed></extensions>
      </trkpt>
      <trkpt lat="51.950527000" lon="7.606572000">
        <ele>57.0</ele>
        <time>2017-04-29T10:56:49</time>
        <extensions><speed>1.32</speed></extensions>
      </trkpt>
      <trkpt lat="51.950535000" lon="7.606586000">
        <ele>57.1</ele>
        <time>2017-04-29T10:56:50</time>
        <extensions><speed>1.29</speed></extensions>
      </trkpt>
      <trkpt lat="51.950546000" lon="7.606598000">
        <ele>57.1</ele>
        <time>2017-04-29T10:56:51</time>
        <extensions><speed>1.33</speed></extensions>
      </trkpt>
      <trkpt lat="51.950554000" lon="7.606612000">
        <ele>57.1</ele>
        <time>2017-04-29T10:56:52</time>
        <extensions><speed>1.38</speed></extensions>
      </trkpt>
      <trkpt lat="51.950565000" lon="7.606625000">
        <ele>57.2</ele>
        <time>2017-04-29T10:56:53</time>
        <extensions><speed>1.38</speed></extensions>
      </trkpt>
      <trkpt lat="51.950573000" lon="7.606638000">
        <ele>57.2</ele>
        <time>2017-04-29T10:56:54</time>
        <extensions><speed>1.37</speed></extensions>
      </trkpt>
      <trkpt lat="51.950584000" lon="7.606654000">
        <ele>57.3</ele>
        <time>2017-04-29T10:56:55</time>
        <extensions><speed>1.41</speed></extensions>
      </trkpt>
      <trkpt lat="51.950592000" lon="7.606665000">
        <ele>57.3</ele>
        <time>2017-04-29T10:56:56</time>
        <extensions><speed>1.37</speed></extensions>
      </trkpt>
      <trkpt lat="51.950600000" lon="7.606677000">
        <ele>57.3</ele>
        <time>2017-04-29T10:56:57</time>
        <extensions><speed>1.40</speed></extensions>
      </trkpt>
      <trkpt lat="51.950611000" lon="7.606692000">
        <ele>57.4</ele>
        <time>2017-04-29T10:56:58</time>
        <extensions><speed>1.47</speed></extensions>
      </trkpt>
      <trkpt lat="51.950619000" lon="7.606707000">
        <ele>57.4</ele>
        <time>2017-04-29T10:56:59</time>
        <extensions><speed>1.48</speed></extensions>
      </trkpt>
      <trkpt lat="51.950626000" lon="7.606722000">
        <ele>57.4</ele>
        <time>2017-04-29T10:57:00</time>
        <extensions><speed>1.45</speed></extensions>
      </trkpt>
      <trkpt lat="51.950638000" lon="7.606737000">
        <ele>57.5</ele>
        <time>2017-04-29T10:57:01</time>
        <extensions><speed>1.48</speed></extensions>
      </trkpt>
      <trkpt lat="51.950645000" lon="7.606752000">
        <ele>57.5</ele>
        <time>2017-04-29T10:57:02</time>
        <extensions><speed>1.44</speed></extensions>
      </trkpt>
      <trkpt lat="51.950653000" lon="7.606764000">
        <ele>57.6</ele>
        <time>2017-04-29T10:57:03</time>
        <extensions><speed>1.43</speed></extensions>
      </trkpt>
      <trkpt lat="51.950665000" lon="7.606777000">
        <ele>57.6</ele>
        <time>2017-04-29T10:57:04</time>
        <extensions><speed>1.43</speed></extensions>
      </trkpt>
      <trkpt lat="51.950672000" lon="7.606790000">
        <ele>57.6</ele>
        <time>2017-04-29T10:57:05</time>
        <extensions><speed>1.43</speed></extensions>
      </trkpt>
      <trkpt lat="51.950680000" lon="7.606803000">
        <ele>57.7</ele>
        <time>2017-04-29T10:57:06</time>
        <extensions><speed>1.46</speed></extensions>
      </trkpt>
      <trkpt lat="51.950691000" lon="7.606817000">
        <ele>57.7</ele>
        <time>2017-04-29T10:57:07</time>
        <extensions><speed>1.44</speed></extensions>
      </trkpt>
      <trkpt lat="51.950699000" lon="7.606832000">
        <ele>57.8</ele>
        <time>2017-04-29T10:57:08</time>
        <extensions><speed>1.44</speed></extensions>
      </trkpt>
      <trkpt lat="51.950710000" lon="7.606848000">
        <ele>57.8</ele>
        <time>2017-04-29T10:57:09</time>
        <extensions><speed>1.44</speed></extensions>
      </trkpt>
      <trkpt lat="51.950718000" lon="7.606862000">
        <ele>57.8</ele>
        <time>2017-04-29T10:57:10</time>
        <extensions><speed>1.49</speed></extensions>
      </trkpt>
      <trkpt lat="51.950726000" lon="7.606873000">
        <ele>57.9</ele>
        <time>2017-04-29T10:57:11</time>
        <extensions><speed>1.44</speed></extensions>
      </trkpt>
      <trkpt lat="51.950737000" lon="7.606885000">
        <ele>57.9</ele>
        <time>2017-04-29T10:57:12</time>
        <extensions><speed>1.44</speed></extensions>
      </trkpt>
      <trkpt lat="51.950748000" lon="7.606899000">
        <ele>58.0</ele>
        <time>2017-04-29T10:57:13</time>
        <extensions><speed>1.42</speed></extensions>
      </trkpt>
      <trkpt lat="51.950756000" lon="7.606912000">
        <ele>58.0</ele>
        <time>2017-04-29T10:57:14</time>
        <extensions><speed>1.37</speed></extensions>
      </trkpt>
      <trkpt lat="51.950768000" lon="7.606925000">
        <ele>58.0</ele>
        <time>2017-04-29T10:57:15</time>
        <extensions><speed>1.37</speed></extensions>
      </trkpt>
      <trkpt lat="51.950779000" lon="7.606937000">
        <ele>58.0</ele>
        <time>2017-04-29T10:57:16</time>
        <extensions><speed>1.37</speed></extensions>
      </trkpt>
      <trkpt lat="51.950790000" lon="7.606946000">
        <ele>58.1</ele>
        <time>2017-04-29T10:57:17</time>
        <extensions><speed>1.37</speed></extensions>
      </trkpt>
      <trkpt lat="51.950798000" lon="7.606958000">
        <ele>58.1</ele>
        <time>2017-04-29T10:57:18</time>
        <extensions><speed>1.35</speed></extensions>
      </trkpt>
      <trkpt lat="51.950809000" lon="7.606973000">
        <ele>58.1</ele>
        <time>2017-04-29T10:57:19</time>
        <extensions><speed>1.36</speed></extensions>
      </trkpt>
      <trkpt lat="51.950813000" lon="7.606990000">
        <ele>58.1</ele>
        <time>2017-04-29T10:57:20</time>
        <extensions><speed>1.42</speed></extensions>
      </trkpt>
      <trkpt lat="51.950825000" lon="7.607008000">
        <ele>58.1</ele>
        <time>2017-04-29T10:57:21</time>
        <extensions><speed>1.49</speed></extensions>
      </trkpt>
      <trkpt lat="51.950836000" lon="7.607023000">
        <ele>58.2</ele>
        <time>2017-04-29T10:57:22</time>
        <extensions><speed>1.46</speed></extensions>
      </trkpt>
      <trkpt lat="51.950844000" lon="7.607035000">
        <ele>58.2</ele>
        <time>2017-04-29T10:57:23</time>
        <extensions><speed>1.46</speed></extensions>
      </trkpt>
      <trkpt lat="51.950851000" lon="7.607045000">
        <ele>58.2</ele>
        <time>2017-04-29T10:57:24</time>
        <extensions><speed>1.42</speed></extensions>
      </trkpt>
      <trkpt lat="51.950867000" lon="7.607057000">
        <ele>58.2</ele>
        <time>2017-04-29T10:57:25</time>
        <extensions><speed>1.42</speed></extensions>
      </trkpt>
      <trkpt lat="51.950878000" lon="7.607070000">
        <ele>58.2</ele>
        <time>2017-04-29T10:57:26</time>
        <extensions><speed>1.37</speed></extensions>
      </trkpt>
      <trkpt lat="51.950886000" lon="7.607081000">
        <ele>58.2</ele>
        <time>2017-04-29T10:57:27</time>
        <extensions><speed>1.41</speed></extensions>
      </trkpt>
      <trkpt lat="51.950897000" lon="7.607097000">
        <ele>58.3</ele>
        <time>2017-04-29T10:57:28</time>
        <extensions><speed>1.45</speed></extensions>
      </trkpt>
      <trkpt lat="51.950905000" lon="7.607112000">
        <ele>58.3</ele>
        <time>2017-04-29T10:57:29</time>
        <extensions><speed>1.44</speed></extensions>
      </trkpt>
      <trkpt lat="51.950912000" lon="7.607128000">
        <ele>58.3</ele>
        <time>2017-04-29T10:57:30</time>
        <extensions><speed>1.42</speed></extensions>
      </trkpt>
      <trkpt lat="51.950920000" lon="7.607144000">
        <ele>58.3</ele>
        <time>2017-04-29T10:57:31</time>
        <extensions><speed>1.41</speed></extensions>
      </trkpt>
      <trkpt lat="51.950932000" lon="7.607156000">
        <ele>58.3</ele>
        <time>2017-04-29T10:57:32</time>
        <extensions><speed>1.37</speed></extensions>
      </trkpt>
      <trkpt lat="51.950943000" lon="7.607172000">
        <ele>58.3</ele>
        <time>2017-04-29T10:57:33</time>
        <extensions><speed>1.37</speed></extensions>
      </trkpt>
      <trkpt lat="51.950947000" lon="7.607186000">
        <ele>58.3</ele>
        <time>2017-04-29T10:57:34</time>
        <extensions><speed>1.43</speed></extensions>
      </trkpt>
      <trkpt lat="51.950958000" lon="7.607200000">
        <ele>58.3</ele>
        <time>2017-04-29T10:57:35</time>
        <extensions><speed>1.41</speed></extensions>
      </trkpt>
      <trkpt lat="51.950966000" lon="7.607215000">
        <ele>58.4</ele>
        <time>2017-04-29T10:57:36</time>
        <extensions><speed>1.44</speed></extensions>
      </trkpt>
      <trkpt lat="51.950977000" lon="7.607232000">
        <ele>58.4</ele>
        <time>2017-04-29T10:57:37</time>
        <extensions><speed>1.51</speed></extensions>
      </trkpt>
      <trkpt lat="51.950985000" lon="7.607245000">
        <ele>58.4</ele>
        <time>2017-04-29T10:57:38</time>
        <extensions><speed>1.46</speed></extensions>
      </trkpt>
      <trkpt lat="51.950996000" lon="7.607256000">
        <ele>58.4</ele>
        <time>2017-04-29T10:57:39</time>
        <extensions><speed>1.44</speed></extensions>
      </trkpt>
      <trkpt lat="51.951008000" lon="7.607270000">
        <ele>58.4</ele>
        <time>2017-04-29T10:57:40</time>
        <extensions><speed>1.46</speed></extensions>
      </trkpt>
      <trkpt lat="51.951015000" lon="7.607284000">
        <ele>58.3</ele>
        <time>2017-04-29T10:57:41</time>
        <extensions><speed>1.48</speed></extensions>
      </trkpt>
      <trkpt lat="51.951027000" lon="7.607295000">
        <ele>58.3</ele>
        <time>2017-04-29T10:57:42</time>
        <extensions><speed>1.44</speed></extensions>
      </trkpt>
      <trkpt lat="51.951035000" lon="7.607307000">
        <ele>58.3</ele>
        <time>2017-04-29T10:57:43</time>
        <extensions><speed>1.44</speed></extensions>
      </trkpt>
      <trkpt lat="51.951042000" lon="7.607320000">
        <ele>58.3</ele>
        <time>2017-04-29T10:57:44</time>
        <extensions><speed>1.43</speed></extensions>
      </trkpt>
      <trkpt lat="51.951050000" lon="7.607335000">
        <ele>58.3</ele>
        <time>2017-04-29T10:57:45</time>
        <extensions><speed>1.45</speed></extensions>
      </trkpt>
      <trkpt lat="51.951061000" lon="7.607348000">
        <ele>58.3</ele>
        <time>2017-04-29T10:57:46</time>
        <extensions><speed>1.44</speed></extensions>
      </trkpt>
      <trkpt lat="51.951073000" lon="7.607358000">
        <ele>58.2</ele>
        <time>2017-04-29T10:57:47</time>
        <extensions><speed>1.45</speed></extensions>
      </trkpt>
      <trkpt lat="51.951084000" lon="7.607372000">
        <ele>58.2</ele>
        <time>2017-04-29T10:57:48</time>
        <extensions><speed>1.45</speed></extensions>
      </trkpt>
      <trkpt lat="51.951096000" lon="7.607385000">
        <ele>58.2</ele>
        <time>2017-04-29T10:57:49</time>
        <extensions><speed>1.45</speed></extensions>
      </trkpt>
      <trkpt lat="51.951103000" lon="7.607397000">
        <ele>58.2</ele>
        <time>2017-04-29T10:57:50</time>
        <extensions><speed>1.40</speed></extensions>
      </trkpt>
      <trkpt lat="51.951111000" lon="7.607410000">
        <ele>58.1</ele>
        <time>2017-04-29T10:57:51</time>
        <extensions><speed>1.39</speed></extensions>
      </trkpt>
      <trkpt lat="51.951122000" lon="7.607424000">
        <ele>58.1</ele>
        <time>2017-04-29T10:57:52</time>
        <extensions><speed>1.40</speed></extensions>
      </trkpt>
      <trkpt lat="51.951134000" lon="7.607437000">
        <ele>58.1</ele>
        <time>2017-04-29T10:57:53</time>
        <extensions><speed>1.41</speed></extensions>
      </trkpt>
      <trkpt lat="51.951141000" lon="7.607450000">
        <ele>58.0</ele>
        <time>2017-04-29T10:57:54</time>
        <extensions><speed>1.40</speed></extensions>
      </trkpt>
      <trkpt lat="51.951153000" lon="7.607461000">
        <ele>58.0</ele>
        <time>2017-04-29T10:57:55</time>
        <extensions><speed>1.40</speed></extensions>
      </trkpt>
      <trkpt lat="51.951164000" lon="7.607475000">
        <ele>57.9</ele>
        <time>2017-04-29T10:57:56</time>
        <extensions><speed>1.40</speed></extensions>
      </trkpt>
      <trkpt lat="51.951172000" lon="7.607491000">
        <ele>57.9</ele>
        <time>2017-04-29T10:57:57</time>
        <extensions><speed>1.38</speed></extensions>
      </trkpt>
      <trkpt lat="51.951180000" lon="7.607502000">
        <ele>57.9</ele>
        <time>2017-04-29T10:57:58</time>
        <extensions><speed>1.39</speed></extensions>
      </trkpt>
      <trkpt lat="51.951191000" lon="7.607515000">
        <ele>57.8</ele>
        <time>2017-04-29T10:57:59</time>
        <extensions><speed>1.36</speed></extensions>
      </trkpt>
      <trkpt lat="51.951199000" lon="7.607530000">
        <ele>57.8</ele>
        <time>2017-04-29T10:58:00</time>
        <extensions><speed>1.35</speed></extensions>
      </trkpt>
      <trkpt lat="51.951206000" lon="7.607542000">
        <ele>57.8</ele>
        <time>2017-04-29T10:58:01</time>
        <extensions><speed>1.35</speed></extensions>
      </trkpt>
      <trkpt lat="51.951218000" lon="7.607557000">
        <ele>57.7</ele>
        <time>2017-04-29T10:58:02</time>
        <extensions><speed>1.39</speed></extensions>
      </trkpt>
      <trkpt lat="51.951229000" lon="7.607570000">
        <ele>57.7</ele>
        <time>2017-04-29T10:58:03</time>
        <extensions><speed>1.40</speed></extensions>
      </trkpt>
      <trkpt lat="51.951237000" lon="7.607584000">
        <ele>57.6</ele>
        <time>2017-04-29T10:58:04</time>
        <extensions><speed>1.44</speed></extensions>
      </trkpt>
      <trkpt lat="51.951244000" lon="7.607597000">
        <ele>57.6</ele>
        <time>2017-04-29T10:58:05</time>
        <extensions><speed>1.44</speed></extensions>
      </trkpt>
      <trkpt lat="51.951252000" lon="7.607612000">
        <ele>57.6</ele>
        <time>2017-04-29T10:58:06</time>
        <extensions><speed>1.43</speed></extensions>
      </trkpt>
      <trkpt lat="51.951263000" lon="7.607632000">
        <ele>57.5</ele>
        <time>2017-04-29T10:58:07</time>
        <extensions><speed>1.43</speed></extensions>
      </trkpt>
      <trkpt lat="51.951271000" lon="7.607650000">
        <ele>57.5</ele>
        <time>2017-04-29T10:58:08</time>
        <extensions><speed>1.45</speed></extensions>
      </trkpt>
      <trkpt lat="51.951283000" lon="7.607666000">
        <ele>57.5</ele>
        <time>2017-04-29T10:58:09</time>
        <extensions><speed>1.44</speed></extensions>
      </trkpt>
      <trkpt lat="51.951294000" lon="7.607677000">
        <ele>57.4</ele>
        <time>2017-04-29T10:58:10</time>
        <extensions><speed>1.44</speed></extensions>
      </trkpt>
      <trkpt lat="51.951302000" lon="7.607688000">
        <ele>57.4</ele>
        <time>2017-04-29T10:58:11</time>
        <extensions><speed>1.41</speed></extensions>
      </trkpt>
      <trkpt lat="51.951309000" lon="7.607702000">
        <ele>57.4</ele>
        <time>2017-04-29T10:58:12</time>
        <extensions><speed>1.37</speed></extensions>
      </trkpt>
      <trkpt lat="51.951317000" lon="7.607717000">
        <ele>57.4</ele>
        <time>2017-04-29T10:58:13</time>
        <extensions><speed>1.33</speed></extensions>
      </trkpt>
      <trkpt lat="51.951328000" lon="7.607732000">
        <ele>57.3</ele>
        <time>2017-04-29T10:58:14</time>
        <extensions><speed>1.33</speed></extensions>
      </trkpt>
      <trkpt lat="51.951336000" lon="7.607745000">
        <ele>57.3</ele>
        <time>2017-04-29T10:58:15</time>
        <extensions><speed>1.38</speed></extensions>
      </trkpt>
      <trkpt lat="51.951344000" lon="7.607760000">
        <ele>57.3</ele>
        <time>2017-04-29T10:58:16</time>
        <extensions><speed>1.43</speed></extensions>
      </trkpt>
      <trkpt lat="51.951355000" lon="7.607775000">
        <ele>57.2</ele>
        <time>2017-04-29T10:58:17</time>
        <extensions><speed>1.43</speed></extensions>
      </trkpt>
      <trkpt lat="51.951363000" lon="7.607788000">
        <ele>57.2</ele>
        <time>2017-04-29T10:58:18</time>
        <extensions><speed>1.43</speed></extensions>
      </trkpt>
      <trkpt lat="51.951370000" lon="7.607802000">
        <ele>57.2</ele>
        <time>2017-04-29T10:58:19</time>
        <extensions><speed>1.42</speed></extensions>
      </trkpt>
      <trkpt lat="51.951378000" lon="7.607815000">
        <ele>57.1</ele>
        <time>2017-04-29T10:58:20</time>
        <extensions><speed>1.41</speed></extensions>
      </trkpt>
      <trkpt lat="51.951389000" lon="7.607825000">
        <ele>57.1</ele>
        <time>2017-04-29T10:58:21</time>
        <extensions><speed>1.41</speed></extensions>
      </trkpt>
      <trkpt lat="51.951397000" lon="7.607833000">
        <ele>57.1</ele>
        <time>2017-04-29T10:58:22</time>
        <extensions><speed>1.40</speed></extensions>
      </trkpt>
      <trkpt lat="51.951405000" lon="7.607845000">
        <ele>57.0</ele>
        <time>2017-04-29T10:58:23</time>
        <extensions><speed>1.40</speed></extensions>
      </trkpt>
      <trkpt lat="51.951416000" lon="7.607857000">
        <ele>57.0</ele>
        <time>2017-04-29T10:58:24</time>
        <extensions><speed>1.41</speed></extensions>
      </trkpt>
      <trkpt lat="51.951427000" lon="7.607869000">
        <ele>57.0</ele>
        <time>2017-04-29T10:58:25</time>
        <extensions><speed>1.41</speed></extensions>
      </trkpt>
      <trkpt lat="51.951435000" lon="7.607883000">
        <ele>56.9</ele>
        <time>2017-04-29T10:58:26</time>
        <extensions><speed>1.44</speed></extensions>
      </trkpt>
      <trkpt lat="51.951447000" lon="7.607897000">
        <ele>56.9</ele>
        <time>2017-04-29T10:58:27</time>
        <extensions><speed>1.51</speed></extensions>
      </trkpt>
      <trkpt lat="51.951458000" lon="7.607913000">
        <ele>56.9</ele>
        <time>2017-04-29T10:58:28</time>
        <extensions><speed>1.53</speed></extensions>
      </trkpt>
      <trkpt lat="51.951466000" lon="7.607928000">
        <ele>56.9</ele>
        <time>2017-04-29T10:58:29</time>
        <extensions><speed>1.53</speed></extensions>
      </trkpt>
      <trkpt lat="51.951469000" lon="7.607945000">
        <ele>56.8</ele>
        <time>2017-04-29T10:58:30</time>
        <extensions><speed>1.49</speed></extensions>
      </trkpt>
      <trkpt lat="51.951477000" lon="7.607963000">
        <ele>56.8</ele>
        <time>2017-04-29T10:58:31</time>
        <extensions><speed>1.46</speed></extensions>
      </trkpt>
      <trkpt lat="51.951488000" lon="7.607980000">
        <ele>56.7</ele>
        <time>2017-04-29T10:58:32</time>
        <extensions><speed>1.44</speed></extensions>
      </trkpt>
      <trkpt lat="51.951496000" lon="7.607996000">
        <ele>56.7</ele>
        <time>2017-04-29T10:58:33</time>
        <extensions><speed>1.44</speed></extensions>
      </trkpt>
      <trkpt lat="51.951500000" lon="7.608014000">
        <ele>56.7</ele>
        <time>2017-04-29T10:58:34</time>
        <extensions><speed>1.45</speed></extensions>
      </trkpt>
      <trkpt lat="51.951511000" lon="7.608025000">
        <ele>56.6</ele>
        <time>2017-04-29T10:58:35</time>
        <extensions><speed>1.45</speed></extensions>
      </trkpt>
      <trkpt lat="51.951519000" lon="7.608038000">
        <ele>56.6</ele>
        <time>2017-04-29T10:58:36</time>
        <extensions><speed>1.45</speed></extensions>
      </trkpt>
      <trkpt lat="51.951530000" lon="7.608049000">
        <ele>56.6</ele>
        <time>2017-04-29T10:58:37</time>
        <extensions><speed>1.43</speed></extensions>
      </trkpt>
      <trkpt lat="51.951538000" lon="7.608055000">
        <ele>56.6</ele>
        <time>2017-04-29T10:58:38</time>
        <extensions><speed>1.38</speed></extensions>
      </trkpt>
      <trkpt lat="51.951550000" lon="7.608063000">
        <ele>56.5</ele>
        <time>2017-04-29T10:58:39</time>
        <extensions><speed>1.38</speed></extensions>
      </trkpt>
      <trkpt lat="51.951561000" lon="7.608072000">
        <ele>56.5</ele>
        <time>2017-04-29T10:58:40</time>
        <extensions><speed>1.36</speed></extensions>
      </trkpt>
      <trkpt lat="51.951569000" lon="7.608082000">
        <ele>56.5</ele>
        <time>2017-04-29T10:58:41</time>
        <extensions><speed>1.32</speed></extensions>
      </trkpt>
      <trkpt lat="51.951580000" lon="7.608091000">
        <ele>56.4</ele>
        <time>2017-04-29T10:58:42</time>
        <extensions><speed>1.31</speed></extensions>
      </trkpt>
      <trkpt lat="51.951588000" lon="7.608107000">
        <ele>56.4</ele>
        <time>2017-04-29T10:58:43</time>
        <extensions><speed>1.37</speed></extensions>
      </trkpt>
      <trkpt lat="51.951595000" lon="7.608120000">
        <ele>56.4</ele>
        <time>2017-04-29T10:58:44</time>
        <extensions><speed>1.36</speed></extensions>
      </trkpt>
      <trkpt lat="51.951607000" lon="7.608131000">
        <ele>56.3</ele>
        <time>2017-04-29T10:58:45</time>
        <extensions><speed>1.36</speed></extensions>
      </trkpt>
      <trkpt lat="51.951618000" lon="7.608140000">
        <ele>56.3</ele>
        <time>2017-04-29T10:58:46</time>
        <extensions><speed>1.37</speed></extensions>
      </trkpt>
      <trkpt lat="51.951630000" lon="7.608149000">
        <ele>56.2</ele>
        <time>2017-04-29T10:58:47</time>
        <extensions><speed>1.38</speed></extensions>
      </trkpt>
      <trkpt lat="51.951637000" lon="7.608158000">
        <ele>56.2</ele>
        <time>2017-04-29T10:58:48</time>
        <extensions><speed>1.34</speed></extensions>
      </trkpt>
      <trkpt lat="51.951645000" lon="7.608168000">
        <ele>56.2</ele>
        <time>2017-04-29T10:58:49</time>
        <extensions><speed>1.29</speed></extensions>
      </trkpt>
      <trkpt lat="51.951656000" lon="7.608182000">
        <ele>56.1</ele>
        <time>2017-04-29T10:58:50</time>
        <extensions><speed>1.31</speed></extensions>
      </trkpt>
      <trkpt lat="51.951664000" lon="7.608193000">
        <ele>56.1</ele>
        <time>2017-04-29T10:58:51</time>
        <extensions><speed>1.32</speed></extensions>
      </trkpt>
      <trkpt lat="51.951675000" lon="7.608203000">
        <ele>56.1</ele>
        <time>2017-04-29T10:58:52</time>
        <extensions><speed>1.32</speed></extensions>
      </trkpt>
      <trkpt lat="51.951687000" lon="7.608217000">
        <ele>56.0</ele>
        <time>2017-04-29T10:58:53</time>
        <extensions><speed>1.37</speed></extensions>
      </trkpt>
      <trkpt lat="51.951694000" lon="7.608232000">
        <ele>56.0</ele>
        <time>2017-04-29T10:58:54</time>
        <extensions><speed>1.40</speed></extensions>
      </trkpt>
      <trkpt lat="51.951702000" lon="7.608247000">
        <ele>56.0</ele>
        <time>2017-04-29T10:58:55</time>
        <extensions><speed>1.43</speed></extensions>
      </trkpt>
      <trkpt lat="51.951717000" lon="7.608261000">
        <ele>56.0</ele>
        <time>2017-04-29T10:58:56</time>
        <extensions><speed>1.47</speed></extensions>
      </trkpt>
      <trkpt lat="51.951725000" lon="7.608273000">
        <ele>55.9</ele>
        <time>2017-04-29T10:58:57</time>
        <extensions><speed>1.47</speed></extensions>
      </trkpt>
      <trkpt lat="51.951733000" lon="7.608287000">
        <ele>55.9</ele>
        <time>2017-04-29T10:58:58</time>
        <extensions><speed>1.49</speed></extensions>
      </trkpt>
      <trkpt lat="51.951744000" lon="7.608300000">
        <ele>55.9</ele>
        <time>2017-04-29T10:58:59</time>
        <extensions><speed>1.52</speed></extensions>
      </trkpt>
      <trkpt lat="51.951756000" lon="7.608314000">
        <ele>55.9</ele>
        <time>2017-04-29T10:59:00</time>
        <extensions><speed>1.44</speed></extensions>
      </trkpt>
      <trkpt lat="51.951763000" lon="7.608324000">
        <ele>55.8</ele>
        <time>2017-04-29T10:59:01</time>
        <extensions><speed>1.44</speed></extensions>
      </trkpt>
      <trkpt lat="51.951775000" lon="7.608333000">
        <ele>55.8</ele>
        <time>2017-04-29T10:59:02</time>
        <extensions><speed>1.44</speed></extensions>
      </trkpt>
      <trkpt lat="51.951790000" lon="7.608343000">
        <ele>55.8</ele>
        <time>2017-04-29T10:59:03</time>
        <extensions><speed>1.45</speed></extensions>
      </trkpt>
      <trkpt lat="51.951797000" lon="7.608355000">
        <ele>55.8</ele>
        <time>2017-04-29T10:59:04</time>
        <extensions><speed>1.47</speed></extensions>
      </trkpt>
      <trkpt lat="51.951809000" lon="7.608368000">
        <ele>55.7</ele>
        <time>2017-04-29T10:59:05</time>
        <extensions><speed>1.46</speed></extensions>
      </trkpt>
      <trkpt lat="51.951820000" lon="7.608382000">
        <ele>55.7</ele>
        <time>2017-04-29T10:59:06</time>
        <extensions><speed>1.42</speed></extensions>
      </trkpt>
      <trkpt lat="51.951828000" lon="7.608397000">
        <ele>55.7</ele>
        <time>2017-04-29T10:59:07</time>
        <extensions><speed>1.46</speed></extensions>
      </trkpt>
      <trkpt lat="51.951843000" lon="7.608410000">
        <ele>55.6</ele>
        <time>2017-04-29T10:59:08</time>
        <extensions><speed>1.44</speed></extensions>
      </trkpt>
      <trkpt lat="51.951855000" lon="7.608424000">
        <ele>55.6</ele>
        <time>2017-04-29T10:59:09</time>
        <extensions><speed>1.41</speed></extensions>
      </trkpt>
      <trkpt lat="51.951862000" lon="7.608436000">
        <ele>55.6</ele>
        <time>2017-04-29T10:59:10</time>
        <extensions><speed>1.44</speed></extensions>
      </trkpt>
      <trkpt lat="51.951874000" lon="7.608450000">
        <ele>55.6</ele>
        <time>2017-04-29T10:59:11</time>
        <extensions><speed>1.43</speed></extensions>
      </trkpt>
      <trkpt lat="51.951885000" lon="7.608464000">
        <ele>55.5</ele>
        <time>2017-04-29T10:59:12</time>
        <extensions><speed>1.45</speed></extensions>
      </trkpt>
      <trkpt lat="51.951897000" lon="7.608480000">
        <ele>55.5</ele>
        <time>2017-04-29T10:59:13</time>
        <extensions><speed>1.48</speed></extensions>
      </trkpt>
      <trkpt lat="51.951908000" lon="7.608493000">
        <ele>55.5</ele>
        <time>2017-04-29T10:59:14</time>
        <extensions><speed>1.52</speed></extensions>
      </trkpt>
      <trkpt lat="51.951923000" lon="7.608506000">
        <ele>55.4</ele>
        <time>2017-04-29T10:59:15</time>
        <extensions><speed>1.50</speed></extensions>
      </trkpt>
      <trkpt lat="51.951931000" lon="7.608520000">
        <ele>55.4</ele>
        <time>2017-04-29T10:59:16</time>
        <extensions><speed>1.53</speed></extensions>
      </trkpt>
      <trkpt lat="51.951942000" lon="7.608532000">
        <ele>55.4</ele>
        <time>2017-04-29T10:59:17</time>
        <extensions><speed>1.52</speed></extensions>
      </trkpt>
      <trkpt lat="51.951954000" lon="7.608546000">
        <ele>55.4</ele>
        <time>2017-04-29T10:59:18</time>
        <extensions><speed>1.49</speed></extensions>
      </trkpt>
      <trkpt lat="51.951962000" lon="7.608562000">
        <ele>55.3</ele>
        <time>2017-04-29T10:59:19</time>
        <extensions><speed>1.47</speed></extensions>
      </trkpt>
      <trkpt lat="51.951969000" lon="7.608578000">
        <ele>55.3</ele>
        <time>2017-04-29T10:59:20</time>
        <extensions><speed>1.50</speed></extensions>
      </trkpt>
      <trkpt lat="51.951981000" lon="7.608597000">
        <ele>55.3</ele>
        <time>2017-04-29T10:59:21</time>
        <extensions><speed>1.46</speed></extensions>
      </trkpt>
      <trkpt lat="51.951988000" lon="7.608613000">
        <ele>55.2</ele>
        <time>2017-04-29T10:59:22</time>
        <extensions><speed>1.51</speed></extensions>
      </trkpt>
      <trkpt lat="51.952000000" lon="7.608628000">
        <ele>55.2</ele>
        <time>2017-04-29T10:59:23</time>
        <extensions><speed>1.57</speed></extensions>
      </trkpt>
      <trkpt lat="51.952007000" lon="7.608644000">
        <ele>55.2</ele>
        <time>2017-04-29T10:59:24</time>
        <extensions><speed>1.62</speed></extensions>
      </trkpt>
      <trkpt lat="51.952019000" lon="7.608658000">
        <ele>55.2</ele>
        <time>2017-04-29T10:59:25</time>
        <extensions><speed>1.58</speed></extensions>
      </trkpt>
      <trkpt lat="51.952026000" lon="7.608674000">
        <ele>55.2</ele>
        <time>2017-04-29T10:59:26</time>
        <extensions><speed>1.58</speed></extensions>
      </trkpt>
      <trkpt lat="51.952034000" lon="7.608688000">
        <ele>55.2</ele>
        <time>2017-04-29T10:59:27</time>
        <extensions><speed>1.48</speed></extensions>
      </trkpt>
      <trkpt lat="51.952045000" lon="7.608702000">
        <ele>55.1</ele>
        <time>2017-04-29T10:59:28</time>
        <extensions><speed>1.48</speed></extensions>
      </trkpt>
      <trkpt lat="51.952053000" lon="7.608715000">
        <ele>55.1</ele>
        <time>2017-04-29T10:59:29</time>
        <extensions><speed>1.44</speed></extensions>
      </trkpt>
      <trkpt lat="51.952068000" lon="7.608727000">
        <ele>55.1</ele>
        <time>2017-04-29T10:59:30</time>
        <extensions><speed>1.44</speed></extensions>
      </trkpt>
      <trkpt lat="51.952080000" lon="7.608733000">
        <ele>55.1</ele>
        <time>2017-04-29T10:59:31</time>
        <extensions><speed>1.45</speed></extensions>
      </trkpt>
      <trkpt lat="51.952087000" lon="7.608742000">
        <ele>55.1</ele>
        <time>2017-04-29T10:59:32</time>
        <extensions><speed>1.47</speed></extensions>
      </trkpt>
      <trkpt lat="51.952099000" lon="7.608757000">
        <ele>55.0</ele>
        <time>2017-04-29T10:59:33</time>
        <extensions><speed>1.47</speed></extensions>
      </trkpt>
      <trkpt lat="51.952110000" lon="7.608770000">
        <ele>55.0</ele>
        <time>2017-04-29T10:59:34</time>
        <extensions><speed>1.44</speed></extensions>
      </trkpt>
      <trkpt lat="51.952118000" lon="7.608785000">
        <ele>55.0</ele>
        <time>2017-04-29T10:59:35</time>
        <extensions><speed>1.42</speed></extensions>
      </trkpt>
      <trkpt lat="51.952133000" lon="7.608802000">
        <ele>55.0</ele>
        <time>2017-04-29T10:59:36</time>
        <extensions><speed>1.47</speed></extensions>
      </trkpt>
      <trkpt lat="51.952141000" lon="7.608814000">
        <ele>54.9</ele>
        <time>2017-04-29T10:59:37</time>
        <extensions><speed>1.43</speed></extensions>
      </trkpt>
      <trkpt lat="51.952148000" lon="7.608827000">
        <ele>54.9</ele>
        <time>2017-04-29T10:59:38</time>
        <extensions><speed>1.41</speed></extensions>
      </trkpt>
      <trkpt lat="51.952160000" lon="7.608842000">
        <ele>54.9</ele>
        <time>2017-04-29T10:59:39</time>
        <extensions><speed>1.45</speed></extensions>
      </trkpt>
      <trkpt lat="51.952171000" lon="7.608855000">
        <ele>54.9</ele>
        <time>2017-04-29T10:59:40</time>
        <extensions><speed>1.45</speed></extensions>
      </trkpt>
      <trkpt lat="51.952183000" lon="7.608868000">
        <ele>54.9</ele>
        <time>2017-04-29T10:59:41</time>
        <extensions><speed>1.45</speed></extensions>
      </trkpt>
      <trkpt lat="51.952190000" lon="7.608884000">
        <ele>54.9</ele>
        <time>2017-04-29T10:59:42</time>
        <extensions><speed>1.45</speed></extensions>
      </trkpt>
      <trkpt lat="51.952198000" lon="7.608900000">
        <ele>54.9</ele>
        <time>2017-04-29T10:59:43</time>
        <extensions><speed>1.44</speed></extensions>
      </trkpt>
      <trkpt lat="51.952209000" lon="7.608915000">
        <ele>54.9</ele>
        <time>2017-04-29T10:59:44</time>
        <extensions><speed>1.49</speed></extensions>
      </trkpt>
      <trkpt lat="51.952221000" lon="7.608926000">
        <ele>54.9</ele>
        <time>2017-04-29T10:59:45</time>
        <extensions><speed>1.46</speed></extensions>
      </trkpt>
      <trkpt lat="51.952232000" lon="7.608940000">
        <ele>54.9</ele>
        <time>2017-04-29T10:59:46</time>
        <extensions><speed>1.41</speed></extensions>
      </trkpt>
      <trkpt lat="51.952240000" lon="7.608952000">
        <ele>54.9</ele>
        <time>2017-04-29T10:59:47</time>
        <extensions><speed>1.38</speed></extensions>
      </trkpt>
      <trkpt lat="51.952248000" lon="7.608965000">
        <ele>54.9</ele>
        <time>2017-04-29T10:59:48</time>
        <extensions><speed>1.40</speed></extensions>
      </trkpt>
      <trkpt lat="51.952259000" lon="7.608982000">
        <ele>54.9</ele>
        <time>2017-04-29T10:59:49</time>
        <extensions><speed>1.40</speed></extensions>
      </trkpt>
      <trkpt lat="51.952267000" lon="7.608996000">
        <ele>54.9</ele>
        <time>2017-04-29T10:59:50</time>
        <extensions><speed>1.43</speed></extensions>
      </trkpt>
      <trkpt lat="51.952278000" lon="7.609008000">
        <ele>54.9</ele>
        <time>2017-04-29T10:59:51</time>
        <extensions><speed>1.41</speed></extensions>
      </trkpt>
      <trkpt lat="51.952290000" lon="7.609020000">
        <ele>54.9</ele>
        <time>2017-04-29T10:59:52</time>
        <extensions><speed>1.41</speed></extensions>
      </trkpt>
      <trkpt lat="51.952301000" lon="7.609035000">
        <ele>54.9</ele>
        <time>2017-04-29T10:59:53</time>
        <extensions><speed>1.44</speed></extensions>
      </trkpt>
      <trkpt lat="51.952309000" lon="7.609050000">
        <ele>54.9</ele>
        <time>2017-04-29T10:59:54</time>
        <extensions><speed>1.32</speed></extensions>
      </trkpt>
      <trkpt lat="51.952312000" lon="7.609055000">
        <ele>54.9</ele>
        <time>2017-04-29T10:59:55</time>
        <extensions><speed>1.22</speed></extensions>
      </trkpt>
      <trkpt lat="51.952320000" lon="7.609059000">
        <ele>54.9</ele>
        <time>2017-04-29T10:59:56</time>
        <extensions><speed>1.04</speed></extensions>
      </trkpt>
      <trkpt lat="51.952412000" lon="7.609200000">
        <ele>55.1</ele>
        <time>2017-04-29T11:01:13</time>
      </trkpt>
      <trkpt lat="51.952419000" lon="7.609215000">
        <ele>55.1</ele>
        <time>2017-04-29T11:01:15</time>
        <extensions><speed>1.47</speed></extensions>
      </trkpt>
      <trkpt lat="51.952431000" lon="7.609229000">
        <ele>55.1</ele>
        <time>2017-04-29T11:01:16</time>
        <extensions><speed>1.45</speed></extensions>
      </trkpt>
      <trkpt lat="51.952442000" lon="7.609241000">
        <ele>55.1</ele>
        <time>2017-04-29T11:01:17</time>
        <extensions><speed>1.45</speed></extensions>
      </trkpt>
      <trkpt lat="51.952454000" lon="7.609257000">
        <ele>55.2</ele>
        <time>2017-04-29T11:01:18</time>
        <extensions><speed>1.51</speed></extensions>
      </trkpt>
      <trkpt lat="51.952465000" lon="7.609271000">
        <ele>55.2</ele>
        <time>2017-04-29T11:01:19</time>
        <extensions><speed>1.56</speed></extensions>
      </trkpt>
      <trkpt lat="51.952477000" lon="7.609287000">
        <ele>55.2</ele>
        <time>2017-04-29T11:01:20</time>
        <extensions><speed>1.57</speed></extensions>
      </trkpt>
      <trkpt lat="51.952484000" lon="7.609302000">
        <ele>55.3</ele>
        <time>2017-04-29T11:01:21</time>
        <extensions><speed>1.57</speed></extensions>
      </trkpt>
      <trkpt lat="51.952496000" lon="7.609316000">
        <ele>55.3</ele>
        <time>2017-04-29T11:01:22</time>
        <extensions><speed>1.56</speed></extensions>
      </trkpt>
      <trkpt lat="51.952507000" lon="7.609330000">
        <ele>55.3</ele>
        <time>2017-04-29T11:01:23</time>
        <extensions><speed>1.51</speed></extensions>
      </trkpt>
      <trkpt lat="51.952511000" lon="7.609340000">
        <ele>55.3</ele>
        <time>2017-04-29T11:01:24</time>
        <extensions><speed>1.44</speed></extensions>
      </trkpt>
      <trkpt lat="51.952522000" lon="7.609353000">
        <ele>55.4</ele>
        <time>2017-04-29T11:01:25</time>
        <extensions><speed>1.47</speed></extensions>
      </trkpt>
      <trkpt lat="51.952534000" lon="7.609370000">
        <ele>55.4</ele>
        <time>2017-04-29T11:01:26</time>
        <extensions><speed>1.52</speed></extensions>
      </trkpt>
      <trkpt lat="51.952545000" lon="7.609386000">
        <ele>55.4</ele>
        <time>2017-04-29T11:01:27</time>
        <extensions><speed>1.49</speed></extensions>
      </trkpt>
      <trkpt lat="51.952557000" lon="7.609402000">
        <ele>55.4</ele>
        <time>2017-04-29T11:01:28</time>
        <extensions><speed>1.52</speed></extensions>
      </trkpt>
      <trkpt lat="51.952564000" lon="7.609413000">
        <ele>55.5</ele>
        <time>2017-04-29T11:01:29</time>
        <extensions><speed>1.55</speed></extensions>
      </trkpt>
      <trkpt lat="51.952572000" lon="7.609423000">
        <ele>55.5</ele>
        <time>2017-04-29T11:01:30</time>
        <extensions><speed>1.48</speed></extensions>
      </trkpt>
      <trkpt lat="51.952583000" lon="7.609434000">
        <ele>55.5</ele>
        <time>2017-04-29T11:01:31</time>
        <extensions><speed>1.41</speed></extensions>
      </trkpt>
      <trkpt lat="51.952595000" lon="7.609442000">
        <ele>55.5</ele>
        <time>2017-04-29T11:01:32</time>
        <extensions><speed>1.33</speed></extensions>
      </trkpt>
      <trkpt lat="51.952606000" lon="7.609451000">
        <ele>55.6</ele>
        <time>2017-04-29T11:01:33</time>
        <extensions><speed>1.27</speed></extensions>
      </trkpt>
      <trkpt lat="51.952997884" lon="7.610227597">
        <ele>57.5</ele>
      </trkpt>
      <trkpt lat="51.953118289" lon="7.610529354">
        <ele>57.8</ele>
      </trkpt>
      <trkpt lat="51.953257006" lon="7.610859639">
        <ele>58.0</ele>
      </trkpt>
      <trkpt lat="51.953385880" lon="7.611117497">
        <ele>57.9</ele>
      </trkpt>
      <trkpt lat="51.953656282" lon="7.611181878">
        <ele>56.2</ele>
      </trkpt>
      <trkpt lat="51.953952367" lon="7.611900074">
        <ele>56.0</ele>
      </trkpt>
      <trkpt lat="51.954185554" lon="7.612620220">
        <ele>55.8</ele>
      </trkpt>
      <trkpt lat="51.954421647" lon="7.613587582">
        <ele>56.2</ele>
      </trkpt>
      <trkpt lat="51.954671938" lon="7.614234482">
        <ele>55.3</ele>
      </trkpt>
      <trkpt lat="51.954822709" lon="7.614826266">
        <ele>55.4</ele>
      </trkpt>
      <trkpt lat="51.955109787" lon="7.615544782">
        <ele>55.4</ele>
      </trkpt>
      <trkpt lat="51.955550286" lon="7.616316774">
        <ele>54.6</ele>
      </trkpt>
      <trkpt lat="51.955944490" lon="7.616973826">
        <ele>54.4</ele>
      </trkpt>
      <trkpt lat="51.956348870" lon="7.617732409">
        <ele>54.6</ele>
      </trkpt>
      <trkpt lat="51.956398061" lon="7.618094586">
        <ele>55.7</ele>
      </trkpt>
      <trkpt lat="51.956471134" lon="7.618194174">
        <ele>55.8</ele>
      </trkpt>
      <trkpt lat="51.957012154" lon="7.619108605">
        <ele>58.0</ele>
      </trkpt>
      <trkpt lat="51.957176438" lon="7.619321777">
        <ele>58.7</ele>
      </trkpt>
      <trkpt lat="51.957305124" lon="7.619565139">
        <ele>58.7</ele>
      </trkpt>
      <trkpt lat="51.957282771" lon="7.619958619">
        <ele>58.7</ele>
      </trkpt>
      <trkpt lat="51.957221069" lon="7.620062348">
        <ele>58.8</ele>
      </trkpt>
      <trkpt lat="51.957161412" lon="7.620340588">
        <ele>59.3</ele>
      </trkpt>
      <trkpt lat="51.957054105" lon="7.620387524">
        <ele>59.3</ele>
      </trkpt>
      <trkpt lat="51.956922569" lon="7.620667968">
        <ele>59.9</ele>
      </trkpt>
      <trkpt lat="51.956873598" lon="7.621091356">
        <ele>60.3</ele>
      </trkpt>
      <trkpt lat="51.956931082" lon="7.621395096">
        <ele>59.6</ele>
      </trkpt>
      <trkpt lat="51.957025015" lon="7.621741363">
        <ele>59.6</ele>
      </trkpt>
      <trkpt lat="51.957154376" lon="7.622042902">
        <ele>59.6</ele>
      </trkpt>
      <trkpt lat="51.957267298" lon="7.622475877">
        <ele>59.7</ele>
      </trkpt>
      <trkpt lat="51.957008294" lon="7.623385777">
        <ele>57.4</ele>
      </trkpt>
      <trkpt lat="51.956876939" lon="7.624451784">
        <ele>60.4</ele>
      </trkpt>
      <trkpt lat="51.956732687" lon="7.625183583">
        <ele>60.7</ele>
      </trkpt>
      <trkpt lat="51.956519773" lon="7.626193880">
        <ele>60.9</ele>
      </trkpt>
      <trkpt lat="51.956437726" lon="7.626865577">
        <ele>60.9</ele>
      </trkpt>
      <trkpt lat="51.956510111" lon="7.627678034">
        <ele>61.4</ele>
      </trkpt>
      <trkpt lat="51.956680308" lon="7.628400223">
        <ele>61.5</ele>
      </trkpt>
      <trkpt lat="51.956948996" lon="7.629090319">
        <ele>61.3</ele>
      </trkpt>
      <trkpt lat="51.957270913" lon="7.629720609">
        <ele>61.3</ele>
      </trkpt>
      <trkpt lat="51.957563503" lon="7.630148130">
        <ele>61.5</ele>
      </trkpt>
      <trkpt lat="51.957891694" lon="7.630545476">
        <ele>61.3</ele>
      </trkpt>
      <trkpt lat="51.958138197" lon="7.630101523">
        <ele>61.1</ele>
      </trkpt>
      <trkpt lat="51.958412329" lon="7.629714916">
        <ele>60.8</ele>
      </trkpt>
      <trkpt lat="51.958938714" lon="7.629378806">
        <ele>60.6</ele>
      </trkpt>
      <trkpt lat="51.959232845" lon="7.629166160">
        <ele>60.7</ele>
      </trkpt>
      <trkpt lat="51.959645302" lon="7.629080839">
        <ele>60.6</ele>
      </trkpt>
      <trkpt lat="51.960085561" lon="7.629067413">
        <ele>60.3</ele>
      </trkpt>
      <trkpt lat="51.960618545" lon="7.629298491">
        <ele>60.0</ele>
      </trkpt>
      <trkpt lat="51.960817397" lon="7.629394271">
        <ele>60.0</ele>
      </trkpt>
      <trkpt lat="51.960888937" lon="7.629362992">
        <ele>60.0</ele>
      </trkpt>
      <trkpt lat="51.960884706" lon="7.628999395">
        <ele>59.9</ele>
      </trkpt>
      <trkpt lat="51.960888272" lon="7.628533717">
        <ele>59.8</ele>
      </trkpt>
      <trkpt lat="51.960946424" lon="7.628124569">
        <ele>59.7</ele>
      </trkpt>
      <trkpt lat="51.961013729" lon="7.627729689">
        <ele>59.6</ele>
      </trkpt>
      <trkpt lat="51.961173253" lon="7.627535681">
        <ele>59.7</ele>
      </trkpt>
      <trkpt lat="51.961407707" lon="7.627601269">
        <ele>59.7</ele>
      </trkpt>
      <trkpt lat="51.961535020" lon="7.627728325">
        <ele>59.7</ele>
      </trkpt>
      <trkpt lat="51.961644024" lon="7.627826842">
        <ele>59.9</ele>
      </trkpt>
      <trkpt lat="51.961824907" lon="7.627923166">
        <ele>60.2</ele>
      </trkpt>
      <trkpt lat="51.961987821" lon="7.628020039">
        <ele>60.3</ele>
      </trkpt>
      <trkpt lat="51.962087332" lon="7.628075200">
        <ele>60.4</ele>
      </trkpt>
    </trkseg>
  </trk>
</gpx>
